
Distance (Route):
Temperature : 10.7°C
Humidity : -1.0%
Pressure : -1.0hPa| Receiver | Frames | First received | Last received |
|---|---|---|---|
| DF8AY | 396 | 2026-08-31 12:07:20 | 2026-08-31 13:15:54 |
| DO3DL | 374 | 2026-08-31 10:15:06 | 2026-08-31 12:07:15 |
| GOEST3-10 | 369 | 2026-08-31 10:44:27 | 2026-08-31 11:56:52 |
| AA1-15 | 363 | 2026-08-31 10:44:45 | 2026-08-31 12:08:38 |
| BIOWL1-15 | 273 | 2026-08-31 10:12:23 | 2026-08-31 12:17:35 |
| DO3MHA-11 | 271 | 2026-08-31 10:30:04 | 2026-08-31 12:00:22 |
| HSKMA3-T | 269 | 2026-08-31 10:49:36 | 2026-08-31 12:46:45 |
| DO2JMG | 257 | 2026-08-31 10:44:07 | 2026-08-31 12:42:39 |
| DL1XH-west | 233 | 2026-08-31 10:48:19 | 2026-08-31 12:22:35 |
| DL1NUX | 186 | 2026-08-31 11:54:39 | 2026-08-31 12:46:31 |
| DO2KSM | 183 | 2026-08-31 09:54:00 | 2026-08-31 11:50:44 |
| DL1XH-15 | 160 | 2026-08-31 11:35:53 | 2026-08-31 12:19:08 |
| DD1CC2-15 | 123 | 2026-08-31 10:39:56 | 2026-08-31 11:51:39 |
| DM7RM-13 | 119 | 2026-08-31 10:47:12 | 2026-08-31 12:06:47 |
| DF2AP-13 | 108 | 2026-08-31 10:17:51 | 2026-08-31 13:09:29 |
| DL3OBA | 98 | 2026-08-31 10:34:21 | 2026-08-31 12:28:34 |
| AM1SDL-15 | 87 | 2026-08-31 12:20:54 | 2026-08-31 13:09:48 |
| DM0DOS-11 | 83 | 2026-08-31 10:10:45 | 2026-08-31 12:26:06 |
| DO2SHX-10 | 71 | 2026-08-31 11:06:11 | 2026-08-31 11:48:54 |
| DB0UT-7 | 65 | 2026-08-31 09:34:18 | 2026-08-31 10:57:02 |
| DF1GD-15 | 64 | 2026-08-31 10:53:48 | 2026-08-31 11:52:27 |
| SO1NDE-10 | 62 | 2026-08-31 11:55:05 | 2026-08-31 12:46:13 |
| DF5WG-10 | 49 | 2026-08-31 11:21:00 | 2026-08-31 11:50:55 |
| DO8TBO-1 | 45 | 2026-08-31 11:35:07 | 2026-08-31 12:21:58 |
| DJTTGO | 30 | 2026-08-31 10:48:08 | 2026-08-31 11:56:58 |
| DJ3KS | 29 | 2026-08-31 09:42:57 | 2026-08-31 10:53:47 |
| DB0NH | 27 | 2026-08-31 10:13:24 | 2026-08-31 12:29:12 |
| DL8DAS-15 | 25 | 2026-08-31 09:56:08 | 2026-08-31 12:00:04 |
| OE3JTB-15 | 20 | 2026-08-31 11:05:32 | 2026-08-31 11:33:36 |
| NBG1-10 | 17 | 2026-08-31 10:18:44 | 2026-08-31 11:17:46 |
| DO1YAY-16 | 16 | 2026-08-31 09:49:05 | 2026-08-31 10:47:05 |
| DL1ZP-14 | 15 | 2026-08-31 09:53:21 | 2026-08-31 10:17:11 |
| DL8DAS-14 | 14 | 2026-08-31 09:50:45 | 2026-08-31 11:57:02 |
| THATR2-17 | 13 | 2026-08-31 12:15:51 | 2026-08-31 13:09:42 |
| SP3BTT-10 | 12 | 2026-08-31 11:13:21 | 2026-08-31 11:26:56 |
| DB0ND-19 | 11 | 2026-08-31 09:34:57 | 2026-08-31 10:10:07 |
| TFSTFS | 11 | 2026-08-31 12:07:58 | 2026-08-31 12:47:53 |
| SONCRA | 10 | 2026-08-31 12:09:04 | 2026-08-31 13:17:53 |
| BIOWL7-15 | 9 | 2026-08-31 10:12:24 | 2026-08-31 10:36:21 |
| DL1CLM-18 | 9 | 2026-08-31 10:25:18 | 2026-08-31 12:13:31 |
| EDDB2-12 | 8 | 2026-08-31 12:03:02 | 2026-08-31 12:52:43 |
| SONDE2-11 | 7 | 2026-08-31 12:32:02 | 2026-08-31 12:52:44 |
| DH3RM | 6 | 2026-08-31 09:59:30 | 2026-08-31 10:03:54 |
| WPPR-10 | 5 | 2026-08-31 10:13:05 | 2026-08-31 11:26:05 |
| DF7PN | 2 | 2026-08-31 10:22:08 | 2026-08-31 11:03:02 |
| DJ2DS-15 | 2 | 2026-08-31 10:34:02 | 2026-08-31 11:04:05 |
| OE5DRO-10 | 2 | 2026-08-31 11:22:33 | 2026-08-31 11:22:52 |
| BUE01 | 2 | 2026-08-31 11:50:02 | 2026-08-31 12:20:35 |
| DC4HF-4 | 2 | 2026-08-31 12:12:03 | 2026-08-31 12:21:03 |
| S3001 | 2 | 2026-08-31 12:20:37 | 2026-08-31 12:49:05 |
| BIOWL9-15 | 1 | 2026-08-31 10:33:02 | 2026-08-31 10:33:02 |
| SMARD9-15 | 1 | 2026-08-31 11:01:02 | 2026-08-31 11:01:02 |
| DF3TZ-5 | 1 | 2026-08-31 11:04:04 | 2026-08-31 11:04:04 |
| DL3AQ-11 | 1 | 2026-08-31 11:35:04 | 2026-08-31 11:35:04 |
| DD1CC8 | 1 | 2026-08-31 11:39:03 | 2026-08-31 11:39:03 |
| EDDB2-11 | 1 | 2026-08-31 12:12:08 | 2026-08-31 12:12:08 |
| Receiver | Date | Latitude | Longitude | Direction | Speed | Altitude | Climb | Temperature | Humidity | Pressure | Voltage | Killtimer | Uptime | BKT | XDATA |
|---|---|---|---|---|---|---|---|---|---|---|---|---|---|---|---|
| SONCRA | 2026-08-31 13:17:53 | 51.62201 | 10.73471 | 43° | 49km/h | 1313m | -2.1m/s | 10.7°C | -1.0% | -1.0hPa | 5.2V | 00:00:00 | 00:00:00 | 00:00:00 | |
| SONCRA | 2026-08-31 13:17:22 | 51.62173 | 10.73430 | 41° | 49km/h | 1320m | -2.1m/s | 10.7°C | -1.0% | -1.0hPa | 5.2V | 00:00:00 | 00:00:00 | 00:00:00 | |
| SONCRA | 2026-08-31 13:16:51 | 51.61898 | 10.73051 | 46° | 42km/h | 1380m | -1.6m/s | 9.9°C | -1.0% | -1.0hPa | 5.2V | 00:00:00 | 00:00:00 | 00:00:00 | |
| SONCRA | 2026-08-31 13:16:20 | 51.61650 | 10.72695 | 43° | 47km/h | 1432m | -2.0m/s | 9.3°C | -1.0% | -1.0hPa | 5.2V | 00:00:00 | 00:00:00 | 00:00:00 | |
| DF8AY | 2026-08-31 13:15:54 | 51.61456 | 10.72309 | 53° | 51km/h | 1473m | -1.5m/s | 8.9°C | 0% | 0hPa | 5.2V | 00:00:00 | 00:00:00 | 00:00:00 | |
| DF8AY | 2026-08-31 13:15:51 | 51.61431 | 10.72260 | 49° | 53km/h | 1476m | -1.1m/s | 0°C | 0% | 0hPa | 0V | 00:00:00 | 00:00:00 | 00:00:00 | |
| DF8AY | 2026-08-31 13:15:49 | 51.61422 | 10.72244 | 48° | 51km/h | 1477m | -1m/s | 0°C | 0% | 0hPa | 0V | 00:00:00 | 00:00:00 | 00:00:00 | |
| DF8AY | 2026-08-31 13:15:47 | 51.61396 | 10.72199 | 47° | 51km/h | 1481m | -0.9m/s | 0°C | 0% | 0hPa | 0V | 00:00:00 | 00:00:00 | 00:00:00 | |
| DF8AY | 2026-08-31 13:15:43 | 51.61363 | 10.72139 | 51° | 49km/h | 1486m | -1.5m/s | 0°C | 0% | 0hPa | 0V | 00:00:00 | 00:00:00 | 00:00:00 | |
| DF8AY | 2026-08-31 13:15:41 | 51.61348 | 10.72110 | 51° | 47km/h | 1488m | -1.1m/s | 0°C | 0% | 0hPa | 0V | 00:00:00 | 00:00:00 | 00:00:00 | |
| DF8AY | 2026-08-31 13:15:38 | 51.61326 | 10.72066 | 52° | 46km/h | 1492m | -1m/s | 0°C | 0% | 0hPa | 0V | 00:00:00 | 00:00:00 | 00:00:00 | |
| SONCRA | 2026-08-31 13:15:18 | 51.61199 | 10.71793 | 46° | 38km/h | 1516m | -1.1m/s | 8.5°C | -1.0% | -1.0hPa | 5.2V | 00:00:00 | 00:00:00 | 00:00:00 | |
| SONCRA | 2026-08-31 13:14:47 | 51.60977 | 10.71361 | 52° | 46km/h | 1552m | -1.4m/s | 8.2°C | -1.0% | -1.0hPa | 5.2V | 00:00:00 | 00:00:00 | 00:00:00 | |
| DF8AY | 2026-08-31 13:14:02 | 51.60677 | 10.70740 | 60° | 40km/h | 1596m | -0.3m/s | 7.8°C | 0% | 0hPa | 5.2V | 00:00:00 | 00:00:00 | 00:00:00 | |
| DF8AY | 2026-08-31 13:13:49 | 51.60602 | 10.70555 | 52° | 44km/h | 1597m | -0.2m/s | 7.8°C | 0% | 0hPa | 5.2V | 00:00:00 | 00:00:00 | 00:00:00 | |
| DF8AY | 2026-08-31 13:13:46 | 51.60580 | 10.70513 | 49° | 46km/h | 1597m | -0.5m/s | 7.9°C | 0% | 0hPa | 5.2V | 00:00:00 | 00:00:00 | 00:00:00 | |
| DF8AY | 2026-08-31 13:13:43 | 51.60558 | 10.70472 | 49° | 46km/h | 1598m | -0.5m/s | 7.9°C | 0% | 0hPa | 5.2V | 00:00:00 | 00:00:00 | 00:00:00 | |
| DF8AY | 2026-08-31 13:13:43 | 51.60523 | 10.70402 | 54° | 44km/h | 1602m | -0.7m/s | 7.8°C | 0% | 0hPa | 5.2V | 00:00:00 | 00:00:00 | 00:00:00 | |
| DF8AY | 2026-08-31 13:13:21 | 51.60414 | 10.70169 | 53° | 42km/h | 1606m | 0m/s | 7.8°C | 0% | 0hPa | 5.2V | 00:00:00 | 00:00:00 | 00:00:00 | |
| DF8AY | 2026-08-31 13:13:18 | 51.60394 | 10.70129 | 50° | 42km/h | 1606m | -0m/s | 7.8°C | 0% | 0hPa | 5.2V | 00:00:00 | 00:00:00 | 00:00:00 | |
| DF8AY | 2026-08-31 13:13:16 | 51.60380 | 10.70102 | 49° | 42km/h | 1606m | 0.2m/s | 7.9°C | 0% | 0hPa | 5.2V | 00:00:00 | 00:00:00 | 00:00:00 | |
| DF8AY | 2026-08-31 13:13:14 | 51.60374 | 10.70090 | 49° | 40km/h | 1606m | 0.2m/s | 7.8°C | 0% | 0hPa | 5.2V | 00:00:00 | 00:00:00 | 00:00:00 | |
| DF8AY | 2026-08-31 13:13:12 | 51.60354 | 10.70052 | 51° | 40km/h | 1605m | 0.2m/s | 7.8°C | 0% | 0hPa | 5.2V | 00:00:00 | 00:00:00 | 00:00:00 | |
| DF8AY | 2026-08-31 13:13:10 | 51.60348 | 10.70040 | 51° | 40km/h | 1605m | -0m/s | 7.8°C | 0% | 0hPa | 5.2V | 00:00:00 | 00:00:00 | 00:00:00 | |
| DF8AY | 2026-08-31 13:13:06 | 51.60316 | 10.69972 | 55° | 44km/h | 1605m | 0.5m/s | 7.8°C | 0% | 0hPa | 5.2V | 00:00:00 | 00:00:00 | 00:00:00 | |
| DF8AY | 2026-08-31 13:12:55 | 51.60242 | 10.69816 | 54° | 44km/h | 1601m | 0.1m/s | 7.9°C | 0% | 0hPa | 5.2V | 00:00:00 | 00:00:00 | 00:00:00 | |
| DF8AY | 2026-08-31 13:12:53 | 51.60229 | 10.69787 | 56° | 44km/h | 1601m | 0.1m/s | 7.9°C | 0% | 0hPa | 5.2V | 00:00:00 | 00:00:00 | 00:00:00 | |
| DF8AY | 2026-08-31 13:12:50 | 51.60211 | 10.69743 | 57° | 44km/h | 1601m | -0m/s | 7.9°C | 0% | 0hPa | 5.2V | 00:00:00 | 00:00:00 | 00:00:00 | |
| DF8AY | 2026-08-31 13:12:49 | 51.60205 | 10.69728 | 56° | 44km/h | 1601m | -0.1m/s | 7.9°C | 0% | 0hPa | 5.2V | 00:00:00 | 00:00:00 | 00:00:00 | |
| DF8AY | 2026-08-31 13:12:42 | 51.60162 | 10.69623 | 57° | 46km/h | 1604m | -0.6m/s | 8°C | 0% | 0hPa | 5.2V | 00:00:00 | 00:00:00 | 00:00:00 | |
| DF8AY | 2026-08-31 13:12:40 | 51.60149 | 10.69591 | 56° | 47km/h | 1605m | -0.7m/s | 8°C | 0% | 0hPa | 5.2V | 00:00:00 | 00:00:00 | 00:00:00 | |
| DF8AY | 2026-08-31 13:12:36 | 51.60121 | 10.69526 | 55° | 49km/h | 1608m | -0.5m/s | 7.9°C | 0% | 0hPa | 5.2V | 00:00:00 | 00:00:00 | 00:00:00 | |
| DF8AY | 2026-08-31 13:12:33 | 51.60099 | 10.69477 | 54° | 47km/h | 1609m | -0.6m/s | 7.9°C | 0% | 0hPa | 5.2V | 00:00:00 | 00:00:00 | 00:00:00 | |
| DF8AY | 2026-08-31 13:12:31 | 51.60085 | 10.69446 | 54° | 47km/h | 1611m | -0.9m/s | 7.9°C | 0% | 0hPa | 5.2V | 00:00:00 | 00:00:00 | 00:00:00 | |
| DF8AY | 2026-08-31 13:12:29 | 51.60071 | 10.69414 | 54° | 47km/h | 1612m | -0.9m/s | 7.9°C | 0% | 0hPa | 5.2V | 00:00:00 | 00:00:00 | 00:00:00 | |
| DF8AY | 2026-08-31 13:12:27 | 51.60057 | 10.69383 | 55° | 47km/h | 1614m | -1.1m/s | 7.9°C | 0% | 0hPa | 5.2V | 00:00:00 | 00:00:00 | 00:00:00 | |
| DF8AY | 2026-08-31 13:12:25 | 51.60043 | 10.69351 | 56° | 46km/h | 1617m | -1.2m/s | 7.9°C | 0% | 0hPa | 5.2V | 00:00:00 | 00:00:00 | 00:00:00 | |
| DF8AY | 2026-08-31 13:12:22 | 51.60024 | 10.69303 | 57° | 46km/h | 1620m | -0.8m/s | 7.9°C | 0% | 0hPa | 5.2V | 00:00:00 | 00:00:00 | 00:00:00 | |
| DF8AY | 2026-08-31 13:12:20 | 51.60011 | 10.69272 | 54° | 47km/h | 1621m | -0.8m/s | 7.9°C | 0% | 0hPa | 5.2V | 00:00:00 | 00:00:00 | 00:00:00 | |
| DF8AY | 2026-08-31 13:12:19 | 51.60004 | 10.69256 | 52° | 47km/h | 1622m | -0.8m/s | 7.8°C | 0% | 0hPa | 5.2V | 00:00:00 | 00:00:00 | 00:00:00 | |
| DF8AY | 2026-08-31 13:12:16 | 51.59980 | 10.69208 | 52° | 51km/h | 1625m | -1.3m/s | 7.7°C | 0% | 0hPa | 5.2V | 00:00:00 | 00:00:00 | 00:00:00 | |
| DF8AY | 2026-08-31 13:12:14 | 51.59965 | 10.69175 | 56° | 49km/h | 1627m | -0.9m/s | 7.6°C | 0% | 0hPa | 5.2V | 00:00:00 | 00:00:00 | 00:00:00 | |
| DF8AY | 2026-08-31 13:12:12 | 51.59951 | 10.69142 | 59° | 47km/h | 1629m | -1.1m/s | 7.6°C | 0% | 0hPa | 5.2V | 00:00:00 | 00:00:00 | 00:00:00 | |
| DF8AY | 2026-08-31 13:12:10 | 51.59939 | 10.69108 | 60° | 49km/h | 1632m | -0.9m/s | 7.6°C | 0% | 0hPa | 5.2V | 00:00:00 | 00:00:00 | 00:00:00 | |
| DF8AY | 2026-08-31 13:12:08 | 51.59926 | 10.69074 | 59° | 49km/h | 1633m | -0.6m/s | 7.6°C | 0% | 0hPa | 5.2V | 00:00:00 | 00:00:00 | 00:00:00 | |
| DF8AY | 2026-08-31 13:12:06 | 51.59913 | 10.69039 | 59° | 51km/h | 1634m | -0.8m/s | 7.6°C | 0% | 0hPa | 5.2V | 00:00:00 | 00:00:00 | 00:00:00 | |
| DF8AY | 2026-08-31 13:12:06 | 51.59906 | 10.69021 | 59° | 53km/h | 1635m | -0.5m/s | 7.6°C | 0% | 0hPa | 5.2V | 00:00:00 | 00:00:00 | 00:00:00 | |
| DF8AY | 2026-08-31 13:12:03 | 51.59892 | 10.68986 | 58° | 53km/h | 1635m | -0.3m/s | 7.5°C | 0% | 0hPa | 5.2V | 00:00:00 | 00:00:00 | 00:00:00 | |
| DF8AY | 2026-08-31 13:12:01 | 51.59878 | 10.68950 | 57° | 51km/h | 1636m | -0.6m/s | 7.5°C | 0% | 0hPa | 5.2V | 00:00:00 | 00:00:00 | 00:00:00 | |
| DF8AY | 2026-08-31 13:11:54 | 51.59833 | 10.68833 | 62° | 47km/h | 1642m | -0.8m/s | 7.4°C | 0% | 0hPa | 5.2V | 00:00:00 | 00:00:00 | 00:00:00 | |
| DF8AY | 2026-08-31 13:11:52 | 51.59822 | 10.68798 | 63° | 49km/h | 1644m | -1m/s | 7.3°C | 0% | 0hPa | 5.2V | 00:00:00 | 00:00:00 | 00:00:00 | |
| DF8AY | 2026-08-31 13:11:50 | 51.59810 | 10.68762 | 62° | 51km/h | 1647m | -1.1m/s | 7.3°C | 0% | 0hPa | 5.2V | 00:00:00 | 00:00:00 | 00:00:00 | |
| DF8AY | 2026-08-31 13:11:47 | 51.59768 | 10.68655 | 53° | 51km/h | 1654m | -1.3m/s | 7.3°C | 0% | 0hPa | 5.2V | 00:00:00 | 00:00:00 | 00:00:00 | |
| DF8AY | 2026-08-31 13:11:47 | 51.59753 | 10.68622 | 54° | 49km/h | 1657m | -1.4m/s | 7.2°C | 0% | 0hPa | 5.2V | 00:00:00 | 00:00:00 | 00:00:00 | |
| DF8AY | 2026-08-31 13:11:39 | 51.59731 | 10.68572 | 55° | 49km/h | 1660m | -1.4m/s | 7.2°C | 0% | 0hPa | 5.2V | 00:00:00 | 00:00:00 | 00:00:00 | |
| DF8AY | 2026-08-31 13:11:37 | 51.59716 | 10.68538 | 54° | 51km/h | 1663m | -1.2m/s | 7.2°C | 0% | 0hPa | 5.2V | 00:00:00 | 00:00:00 | 00:00:00 | |
| DF8AY | 2026-08-31 13:11:35 | 51.59700 | 10.68504 | 53° | 53km/h | 1665m | -1.1m/s | 7.2°C | 0% | 0hPa | 5.2V | 00:00:00 | 00:00:00 | 00:00:00 | |
| DF8AY | 2026-08-31 13:11:33 | 51.59692 | 10.68487 | 53° | 53km/h | 1666m | -0.9m/s | 7.2°C | 0% | 0hPa | 5.2V | 00:00:00 | 00:00:00 | 00:00:00 | |
| DF8AY | 2026-08-31 13:11:31 | 51.59668 | 10.68434 | 56° | 53km/h | 1669m | -1m/s | 7.1°C | 0% | 0hPa | 5.2V | 00:00:00 | 00:00:00 | 00:00:00 | |
| DF8AY | 2026-08-31 13:11:29 | 51.59654 | 10.68398 | 58° | 51km/h | 1672m | -0.9m/s | 7.1°C | 0% | 0hPa | 5.2V | 00:00:00 | 00:00:00 | 00:00:00 | |
| DF8AY | 2026-08-31 13:11:26 | 51.59634 | 10.68345 | 59° | 51km/h | 1675m | -0.9m/s | 7.1°C | 0% | 0hPa | 5.2V | 00:00:00 | 00:00:00 | 00:00:00 | |
| DF8AY | 2026-08-31 13:11:24 | 51.59620 | 10.68310 | 57° | 51km/h | 1677m | -1.4m/s | 7.1°C | 0% | 0hPa | 5.2V | 00:00:00 | 00:00:00 | 00:00:00 | |
| DF8AY | 2026-08-31 13:11:22 | 51.59605 | 10.68276 | 56° | 51km/h | 1680m | -1.4m/s | 7°C | 0% | 0hPa | 5.2V | 00:00:00 | 00:00:00 | 00:00:00 | |
| DF8AY | 2026-08-31 13:11:20 | 51.59591 | 10.68241 | 56° | 51km/h | 1682m | -1.3m/s | 7°C | 0% | 0hPa | 5.2V | 00:00:00 | 00:00:00 | 00:00:00 | |
| DF8AY | 2026-08-31 13:11:18 | 51.59576 | 10.68206 | 57° | 53km/h | 1685m | -1.2m/s | 7°C | 0% | 0hPa | 5.2V | 00:00:00 | 00:00:00 | 00:00:00 | |
| DF8AY | 2026-08-31 13:11:14 | 51.59546 | 10.68134 | 55° | 55km/h | 1690m | -1.9m/s | 6.9°C | 0% | 0hPa | 5.2V | 00:00:00 | 00:00:00 | 00:00:00 | |
| DF8AY | 2026-08-31 13:11:11 | 51.59522 | 10.68080 | 52° | 53km/h | 1695m | -1m/s | 6.9°C | 0% | 0hPa | 5.2V | 00:00:00 | 00:00:00 | 00:00:00 | |
| DF8AY | 2026-08-31 13:11:09 | 51.59513 | 10.68063 | 52° | 51km/h | 1696m | -1m/s | 6.9°C | 0% | 0hPa | 5.2V | 00:00:00 | 00:00:00 | 00:00:00 | |
| DF8AY | 2026-08-31 13:11:07 | 51.59490 | 10.68014 | 54° | 49km/h | 1699m | -1m/s | 6.8°C | 0% | 0hPa | 5.2V | 00:00:00 | 00:00:00 | 00:00:00 | |
| DF8AY | 2026-08-31 13:11:05 | 51.59476 | 10.67981 | 56° | 49km/h | 1701m | -1.3m/s | 6.8°C | 0% | 0hPa | 5.2V | 00:00:00 | 00:00:00 | 00:00:00 | |
| DF8AY | 2026-08-31 13:11:03 | 51.59462 | 10.67947 | 58° | 49km/h | 1704m | -1.6m/s | 6.7°C | 0% | 0hPa | 5.2V | 00:00:00 | 00:00:00 | 00:00:00 | |
| DF8AY | 2026-08-31 13:11:00 | 51.59410 | 10.67829 | 53° | 49km/h | 1718m | -1.6m/s | 6.6°C | 0% | 0hPa | 5.2V | 00:00:00 | 00:00:00 | 00:00:00 | |
| DF8AY | 2026-08-31 13:11:00 | 51.59403 | 10.67813 | 53° | 49km/h | 1719m | -1.8m/s | 6.6°C | 0% | 0hPa | 5.2V | 00:00:00 | 00:00:00 | 00:00:00 | |
| DF8AY | 2026-08-31 13:10:53 | 51.59388 | 10.67782 | 53° | 49km/h | 1723m | -2m/s | 6.5°C | 0% | 0hPa | 5.2V | 00:00:00 | 00:00:00 | 00:00:00 | |
| DF8AY | 2026-08-31 13:10:53 | 51.59381 | 10.67766 | 54° | 49km/h | 1725m | -1.9m/s | 6.5°C | 0% | 0hPa | 5.2V | 00:00:00 | 00:00:00 | 00:00:00 | |
| DF8AY | 2026-08-31 13:10:50 | 51.59367 | 10.67734 | 55° | 47km/h | 1729m | -1.7m/s | 6.5°C | 0% | 0hPa | 5.2V | 00:00:00 | 00:00:00 | 00:00:00 | |
| DF8AY | 2026-08-31 13:10:49 | 51.59353 | 10.67702 | 57° | 47km/h | 1732m | -1.7m/s | 6.5°C | 0% | 0hPa | 5.2V | 00:00:00 | 00:00:00 | 00:00:00 | |
| DF8AY | 2026-08-31 13:10:46 | 51.59340 | 10.67669 | 59° | 49km/h | 1735m | -1.3m/s | 6.4°C | 0% | 0hPa | 5.2V | 00:00:00 | 00:00:00 | 00:00:00 | |
| DF8AY | 2026-08-31 13:10:43 | 51.59321 | 10.67614 | 63° | 53km/h | 1739m | -1.7m/s | 6.4°C | 0% | 0hPa | 5.2V | 00:00:00 | 00:00:00 | 00:00:00 | |
| DF8AY | 2026-08-31 13:10:41 | 51.59309 | 10.67576 | 63° | 53km/h | 1742m | -1.5m/s | 6.4°C | 0% | 0hPa | 5.2V | 00:00:00 | 00:00:00 | 00:00:00 | |
| DF8AY | 2026-08-31 13:10:39 | 51.59297 | 10.67537 | 64° | 53km/h | 1745m | -1.8m/s | 6.3°C | 0% | 0hPa | 5.2V | 00:00:00 | 00:00:00 | 00:00:00 | |
| DF8AY | 2026-08-31 13:10:37 | 51.59285 | 10.67498 | 64° | 53km/h | 1749m | -1.9m/s | 6.3°C | 0% | 0hPa | 5.2V | 00:00:00 | 00:00:00 | 00:00:00 | |
| DF8AY | 2026-08-31 13:10:35 | 51.59273 | 10.67459 | 64° | 53km/h | 1754m | -2.1m/s | 6.3°C | 0% | 0hPa | 5.2V | 00:00:00 | 00:00:00 | 00:00:00 | |
| DF8AY | 2026-08-31 13:10:33 | 51.59261 | 10.67419 | 63° | 55km/h | 1758m | -2.1m/s | 6.2°C | 0% | 0hPa | 5.2V | 00:00:00 | 00:00:00 | 00:00:00 | |
| DF8AY | 2026-08-31 13:10:31 | 51.59248 | 10.67380 | 63° | 55km/h | 1762m | -2.1m/s | 6.2°C | 0% | 0hPa | 5.2V | 00:00:00 | 00:00:00 | 00:00:00 | |
| DF8AY | 2026-08-31 13:10:26 | 51.59217 | 10.67278 | 64° | 58km/h | 1772m | -1.8m/s | 6.1°C | 0% | 0hPa | 5.2V | 00:00:00 | 00:00:00 | 00:00:00 | |
| DF8AY | 2026-08-31 13:10:24 | 51.59203 | 10.67235 | 64° | 58km/h | 1775m | -1.9m/s | 6.1°C | 0% | 0hPa | 5.2V | 00:00:00 | 00:00:00 | 00:00:00 | |
| DF8AY | 2026-08-31 13:10:22 | 51.59191 | 10.67193 | 64° | 57km/h | 1779m | -1.6m/s | 6°C | 0% | 0hPa | 5.2V | 00:00:00 | 00:00:00 | 00:00:00 | |
| DF8AY | 2026-08-31 13:10:20 | 51.59178 | 10.67151 | 65° | 57km/h | 1782m | -2m/s | 6°C | 0% | 0hPa | 5.2V | 00:00:00 | 00:00:00 | 00:00:00 | |
| DF8AY | 2026-08-31 13:10:18 | 51.59167 | 10.67110 | 66° | 55km/h | 1786m | -1.7m/s | 5.9°C | 0% | 0hPa | 5.2V | 00:00:00 | 00:00:00 | 00:00:00 | |
| DF8AY | 2026-08-31 13:10:16 | 51.59156 | 10.67070 | 67° | 53km/h | 1789m | -1.8m/s | 5.9°C | 0% | 0hPa | 5.2V | 00:00:00 | 00:00:00 | 00:00:00 | |
| DF8AY | 2026-08-31 13:10:09 | 51.59124 | 10.66957 | 65° | 51km/h | 1800m | -2m/s | 5.8°C | 0% | 0hPa | 5.2V | 00:00:00 | 00:00:00 | 00:00:00 | |
| DF8AY | 2026-08-31 13:10:02 | 51.59082 | 10.66800 | 69° | 51km/h | 1817m | -2.1m/s | 5.7°C | 0% | 0hPa | 5.2V | 00:00:00 | 00:00:00 | 00:00:00 | |
| DF8AY | 2026-08-31 13:10:01 | 51.59077 | 10.66781 | 68° | 51km/h | 1819m | -2.4m/s | 5.7°C | 0% | 0hPa | 5.2V | 00:00:00 | 00:00:00 | 00:00:00 | |
| DF8AY | 2026-08-31 13:09:58 | 51.59062 | 10.66722 | 66° | 51km/h | 1827m | -2.3m/s | 5.6°C | 0% | 0hPa | 5.2V | 00:00:00 | 00:00:00 | 00:00:00 | |
| DF8AY | 2026-08-31 13:09:56 | 51.59050 | 10.66685 | 62° | 51km/h | 1832m | -2.5m/s | 5.6°C | 0% | 0hPa | 5.2V | 00:00:00 | 00:00:00 | 00:00:00 | |
| DF8AY | 2026-08-31 13:09:54 | 51.59038 | 10.66649 | 59° | 49km/h | 1837m | -2.4m/s | 5.5°C | 0% | 0hPa | 5.2V | 00:00:00 | 00:00:00 | 00:00:00 | |
| DF8AY | 2026-08-31 13:09:50 | 51.59010 | 10.66580 | 57° | 51km/h | 1846m | -1.9m/s | 5.5°C | 0% | 0hPa | 5.2V | 00:00:00 | 00:00:00 | 00:00:00 | |
| AM1SDL-15 | 2026-08-31 13:09:48 | 51.59003 | 10.66562 | 57° | 53km/h | 1853m | -1.2m/s | 0°C | 0% | 0hPa | 5.2V | 00:00:00 | 00:00:00 | 00:00:00 | |
| DF8AY | 2026-08-31 13:09:48 | 51.58995 | 10.66544 | 57° | 53km/h | 1850m | -1.4m/s | 5.5°C | 0% | 0hPa | 5.2V | 00:00:00 | 00:00:00 | 00:00:00 | |
| THATR2-17 | 2026-08-31 13:09:42 | 51.58889 | 10.66275 | 58° | 47km/h | 1870m | 0m/s | 0°C | 0% | 0hPa | 5.2V | 00:00:00 | 00:00:00 | 00:00:00 | |
| DF8AY | 2026-08-31 13:09:41 | 51.58943 | 10.66417 | 56° | 53km/h | 1859m | -1.3m/s | 5.4°C | 0% | 0hPa | 5.2V | 00:00:00 | 00:00:00 | 00:00:00 | |
| DF8AY | 2026-08-31 13:09:40 | 51.58915 | 10.66345 | 60° | 51km/h | 1864m | -1.3m/s | 5.4°C | 0% | 0hPa | 5.2V | 00:00:00 | 00:00:00 | 00:00:00 | |
| DF8AY | 2026-08-31 13:09:40 | 51.58902 | 10.66309 | 60° | 49km/h | 1867m | -1.4m/s | 5.3°C | 0% | 0hPa | 5.2V | 00:00:00 | 00:00:00 | 00:00:00 | |
| AM1SDL-15 | 2026-08-31 13:09:36 | 51.58914 | 10.66345 | 60° | 55km/h | 1865m | -1.3m/s | 0°C | 0% | 0hPa | 5.2V | 00:00:00 | 00:00:00 | 00:00:00 | |
| DF8AY | 2026-08-31 13:09:33 | 51.58889 | 10.66275 | 59° | 47km/h | 1870m | -1.5m/s | 5.3°C | 0% | 0hPa | 5.2V | 00:00:00 | 00:00:00 | 00:00:00 | |
| DF8AY | 2026-08-31 13:09:30 | 51.58870 | 10.66225 | 58° | 49km/h | 1875m | -1.4m/s | 5.3°C | 0% | 0hPa | 5.2V | 00:00:00 | 00:00:00 | 00:00:00 | |
| DF2AP-13 | 2026-08-31 13:09:29 | 51.58869 | 10.66225 | 58° | 58km/h | 1876m | -1.2m/s | 0°C | 0% | 0hPa | 5.2V | 00:00:00 | 00:00:00 | 00:00:00 | |
| DF8AY | 2026-08-31 13:09:28 | 51.58856 | 10.66189 | 58° | 55km/h | 1877m | -1.3m/s | 5.3°C | 0% | 0hPa | 5.2V | 00:00:00 | 00:00:00 | 00:00:00 | |
| DF8AY | 2026-08-31 13:09:26 | 51.58841 | 10.66151 | 58° | 57km/h | 1880m | -1.4m/s | 5.3°C | 0% | 0hPa | 5.2V | 00:00:00 | 00:00:00 | 00:00:00 | |
| DF8AY | 2026-08-31 13:09:21 | 51.58803 | 10.66052 | 61° | 57km/h | 1888m | -2m/s | 5.2°C | 0% | 0hPa | 5.2V | 00:00:00 | 00:00:00 | 00:00:00 | |
| DF8AY | 2026-08-31 13:09:19 | 51.58789 | 10.66012 | 64° | 57km/h | 1893m | -1.9m/s | 5.2°C | 0% | 0hPa | 5.2V | 00:00:00 | 00:00:00 | 00:00:00 | |
| DF8AY | 2026-08-31 13:09:18 | 51.58756 | 10.65903 | 62° | 60km/h | 1901m | -1.4m/s | 5.1°C | 0% | 0hPa | 5.2V | 00:00:00 | 00:00:00 | 00:00:00 | |
| DF8AY | 2026-08-31 13:09:18 | 51.58749 | 10.65882 | 61° | 60km/h | 1903m | -1.9m/s | 5.1°C | 0% | 0hPa | 5.2V | 00:00:00 | 00:00:00 | 00:00:00 | |
| AM1SDL-15 | 2026-08-31 13:09:17 | 51.58783 | 10.65991 | 65° | 58km/h | 1896m | -1.9m/s | 0°C | 0% | 0hPa | 5.2V | 00:00:00 | 00:00:00 | 00:00:00 | |
| DF8AY | 2026-08-31 13:09:11 | 51.58734 | 10.65840 | 59° | 58km/h | 1907m | -1.7m/s | 5.1°C | 0% | 0hPa | 5.2V | 00:00:00 | 00:00:00 | 00:00:00 | |
| DF2AP-13 | 2026-08-31 13:09:09 | 51.58726 | 10.65819 | 59° | 55km/h | 1910m | -1.2m/s | 0°C | 0% | 0hPa | 5.2V | 00:00:00 | 00:00:00 | 00:00:00 | |
| DF8AY | 2026-08-31 13:09:09 | 51.58718 | 10.65799 | 59° | 58km/h | 1910m | -1.3m/s | 5.1°C | 0% | 0hPa | 5.2V | 00:00:00 | 00:00:00 | 00:00:00 | |
| DF8AY | 2026-08-31 13:09:07 | 51.58704 | 10.65759 | 59° | 57km/h | 1913m | -1.5m/s | 5.1°C | 0% | 0hPa | 5.2V | 00:00:00 | 00:00:00 | 00:00:00 | |
| AM1SDL-15 | 2026-08-31 13:09:05 | 51.58696 | 10.65740 | 59° | 55km/h | 1916m | -1.8m/s | 0°C | 0% | 0hPa | 5.2V | 00:00:00 | 00:00:00 | 00:00:00 | |
| DF8AY | 2026-08-31 13:09:04 | 51.58682 | 10.65702 | 59° | 53km/h | 1918m | -1.8m/s | 5°C | 0% | 0hPa | 5.2V | 00:00:00 | 00:00:00 | 00:00:00 | |
| DF8AY | 2026-08-31 13:09:00 | 51.58655 | 10.65628 | 58° | 53km/h | 1926m | -2.7m/s | 4.9°C | 0% | 0hPa | 5.2V | 00:00:00 | 00:00:00 | 00:00:00 | |
| DF2AP-13 | 2026-08-31 13:08:59 | 51.58655 | 10.65628 | 59° | 53km/h | 1928m | -2.4m/s | 0°C | 0% | 0hPa | 5.2V | 00:00:00 | 00:00:00 | 00:00:00 | |
| DF8AY | 2026-08-31 13:08:57 | 51.58633 | 10.65573 | 59° | 53km/h | 1934m | -2.7m/s | 4.8°C | 0% | 0hPa | 5.2V | 00:00:00 | 00:00:00 | 00:00:00 | |
| DF8AY | 2026-08-31 13:08:55 | 51.58607 | 10.65499 | 62° | 51km/h | 1943m | -2.1m/s | 4.7°C | 0% | 0hPa | 5.2V | 00:00:00 | 00:00:00 | 00:00:00 | |
| DF8AY | 2026-08-31 13:08:51 | 51.58594 | 10.65462 | 62° | 51km/h | 1948m | -2.4m/s | 4.7°C | 0% | 0hPa | 5.2V | 00:00:00 | 00:00:00 | 00:00:00 | |
| DF2AP-13 | 2026-08-31 13:08:49 | 51.58588 | 10.65443 | 61° | 49km/h | 1953m | -2.4m/s | 0°C | 0% | 0hPa | 5.2V | 00:00:00 | 00:00:00 | 00:00:00 | |
| DF8AY | 2026-08-31 13:08:49 | 51.58582 | 10.65426 | 60° | 51km/h | 1953m | -2.5m/s | 4.8°C | 0% | 0hPa | 5.2V | 00:00:00 | 00:00:00 | 00:00:00 | |
| DF8AY | 2026-08-31 13:08:47 | 51.58569 | 10.65390 | 59° | 49km/h | 1958m | -2.8m/s | 4.8°C | 0% | 0hPa | 5.2V | 00:00:00 | 00:00:00 | 00:00:00 | |
| DF8AY | 2026-08-31 13:08:45 | 51.58556 | 10.65356 | 59° | 49km/h | 1962m | -1.7m/s | 4.7°C | 0% | 0hPa | 5.2V | 00:00:00 | 00:00:00 | 00:00:00 | |
| DF8AY | 2026-08-31 13:08:43 | 51.58543 | 10.65321 | 60° | 49km/h | 1965m | -1.7m/s | 4.7°C | 0% | 0hPa | 5.2V | 00:00:00 | 00:00:00 | 00:00:00 | |
| DF8AY | 2026-08-31 13:08:41 | 51.58531 | 10.65285 | 60° | 49km/h | 1969m | -1.8m/s | 4.6°C | 0% | 0hPa | 5.2V | 00:00:00 | 00:00:00 | 00:00:00 | |
| DF2AP-13 | 2026-08-31 13:08:39 | 51.58524 | 10.65268 | 61° | 49km/h | 1973m | -1.8m/s | 0°C | 0% | 0hPa | 5.2V | 00:00:00 | 00:00:00 | 00:00:00 | |
| DF8AY | 2026-08-31 13:08:39 | 51.58518 | 10.65250 | 60° | 49km/h | 1973m | -1.8m/s | 4.6°C | 0% | 0hPa | 5.2V | 00:00:00 | 00:00:00 | 00:00:00 | |
| DF8AY | 2026-08-31 13:08:36 | 51.58499 | 10.65198 | 59° | 49km/h | 1978m | -1.9m/s | 4.5°C | 0% | 0hPa | 5.2V | 00:00:00 | 00:00:00 | 00:00:00 | |
| DF8AY | 2026-08-31 13:08:34 | 51.58492 | 10.65180 | 59° | 49km/h | 1980m | -1.8m/s | 4.5°C | 0% | 0hPa | 5.2V | 00:00:00 | 00:00:00 | 00:00:00 | |
| DF8AY | 2026-08-31 13:08:32 | 51.58473 | 10.65127 | 60° | 51km/h | 1985m | -2m/s | 4.4°C | 0% | 0hPa | 5.2V | 00:00:00 | 00:00:00 | 00:00:00 | |
| DF8AY | 2026-08-31 13:08:30 | 51.58460 | 10.65092 | 61° | 51km/h | 1989m | -2.4m/s | 4.4°C | 0% | 0hPa | 5.2V | 00:00:00 | 00:00:00 | 00:00:00 | |
| DF2AP-13 | 2026-08-31 13:08:29 | 51.58460 | 10.65092 | 61° | 51km/h | 1992m | -2.2m/s | 0°C | 0% | 0hPa | 5.2V | 00:00:00 | 00:00:00 | 00:00:00 | |
| DF8AY | 2026-08-31 13:08:28 | 51.58447 | 10.65056 | 60° | 51km/h | 1994m | -2.5m/s | 4.3°C | 0% | 0hPa | 5.2V | 00:00:00 | 00:00:00 | 00:00:00 | |
| DF8AY | 2026-08-31 13:08:26 | 51.58434 | 10.65021 | 58° | 51km/h | 1999m | -2.6m/s | 4.4°C | 0% | 0hPa | 5.2V | 00:00:00 | 00:00:00 | 00:00:00 | |
| DF8AY | 2026-08-31 13:08:22 | 51.58371 | 10.64851 | 62° | 58km/h | 2017m | -2m/s | 4.2°C | 0% | 0hPa | 5.2V | 00:00:00 | 00:00:00 | 00:00:00 | |
| DF2AP-13 | 2026-08-31 13:08:19 | 51.58392 | 10.64913 | 61° | 57km/h | 2013m | -1.7m/s | 0°C | 0% | 0hPa | 5.2V | 00:00:00 | 00:00:00 | 00:00:00 | |
| DF8AY | 2026-08-31 13:08:06 | 51.58309 | 10.64617 | 66° | 57km/h | 2045m | -2.3m/s | 4.2°C | 0% | 0hPa | 5.2V | 00:00:00 | 00:00:00 | 00:00:00 | |
| SONCRA | 2026-08-31 13:08:03 | 51.58291 | 10.64554 | 63° | 57km/h | 2051m | -2.7m/s | 4.2°C | -1.0% | -1.0hPa | 5.2V | 00:00:00 | 00:00:00 | 00:00:00 | |
| DF2AP-13 | 2026-08-31 13:07:59 | 51.58271 | 10.64493 | 61° | 57km/h | 2062m | -2.8m/s | 0°C | 0% | 0hPa | 5.2V | 00:00:00 | 00:00:00 | 00:00:00 | |
| DF8AY | 2026-08-31 13:07:55 | 51.58236 | 10.64397 | 62° | 57km/h | 2073m | -2.3m/s | 4.1°C | 0% | 0hPa | 5.2V | 00:00:00 | 00:00:00 | 00:00:00 | |
| DF8AY | 2026-08-31 13:07:45 | 51.58178 | 10.64178 | 64° | 57km/h | 2096m | -2.3m/s | 3.8°C | 0% | 0hPa | 5.2V | 00:00:00 | 00:00:00 | 00:00:00 | |
| DF2AP-13 | 2026-08-31 13:07:39 | 51.58147 | 10.64074 | 67° | 58km/h | 2109m | -2.1m/s | 0°C | 0% | 0hPa | 5.2V | 00:00:00 | 00:00:00 | 00:00:00 | |
| DF8AY | 2026-08-31 13:07:34 | 51.58113 | 10.63943 | 65° | 62km/h | 2119m | -1.9m/s | 3.5°C | 0% | 0hPa | 5.2V | 00:00:00 | 00:00:00 | 00:00:00 | |
| DF8AY | 2026-08-31 13:07:23 | 51.58050 | 10.63704 | 73° | 53km/h | 2140m | -2.6m/s | 3.2°C | 0% | 0hPa | 5.2V | 00:00:00 | 00:00:00 | 00:00:00 | |
| DF2AP-13 | 2026-08-31 13:07:19 | 51.58039 | 10.63642 | 75° | 46km/h | 2154m | -2.4m/s | 0°C | 0% | 0hPa | 5.2V | 00:00:00 | 00:00:00 | 00:00:00 | |
| DF8AY | 2026-08-31 13:07:12 | 51.58008 | 10.63501 | 66° | 44km/h | 2168m | -2m/s | 3.1°C | 0% | 0hPa | 5.2V | 00:00:00 | 00:00:00 | 00:00:00 | |
| DF8AY | 2026-08-31 13:07:01 | 51.57957 | 10.63308 | 63° | 53km/h | 2191m | -1.5m/s | 3.5°C | 0% | 0hPa | 5.2V | 00:00:00 | 00:00:00 | 00:00:00 | |
| DF2AP-13 | 2026-08-31 13:06:59 | 51.57951 | 10.63288 | 64° | 51km/h | 2193m | -1.1m/s | 0°C | 0% | 0hPa | 5.2V | 00:00:00 | 00:00:00 | 00:00:00 | |
| DF8AY | 2026-08-31 13:06:56 | 51.57903 | 10.63106 | 72° | 55km/h | 2206m | -1.6m/s | 3.6°C | 0% | 0hPa | 5.2V | 00:00:00 | 00:00:00 | 00:00:00 | |
| DF8AY | 2026-08-31 13:06:41 | 51.57863 | 10.62895 | 69° | 46km/h | 2221m | -0.7m/s | 3.5°C | 0% | 0hPa | 5.2V | 00:00:00 | 00:00:00 | 00:00:00 | |
| DF2AP-13 | 2026-08-31 13:06:36 | 51.57851 | 10.62844 | 74° | 47km/h | 2223m | -0.1m/s | 0°C | 0% | 0hPa | 5.2V | 00:00:00 | 00:00:00 | 00:00:00 | |
| DF8AY | 2026-08-31 13:06:29 | 51.57823 | 10.62682 | 72° | 55km/h | 2225m | 0.2m/s | 3.5°C | 0% | 0hPa | 5.2V | 00:00:00 | 00:00:00 | 00:00:00 | |
| DF8AY | 2026-08-31 13:06:19 | 51.57790 | 10.62493 | 75° | 44km/h | 2227m | -0.5m/s | 3.6°C | 0% | 0hPa | 5.2V | 00:00:00 | 00:00:00 | 00:00:00 | |
| DF8AY | 2026-08-31 13:06:08 | 51.57751 | 10.62308 | 69° | 44km/h | 2240m | -0.4m/s | 3.5°C | 0% | 0hPa | 5.2V | 00:00:00 | 00:00:00 | 00:00:00 | |
| DF2AP-13 | 2026-08-31 13:06:06 | 51.57747 | 10.62290 | 67° | 60km/h | 2241m | -0.2m/s | 0°C | 0% | 0hPa | 5.2V | 00:00:00 | 00:00:00 | 00:00:00 | |
| DF8AY | 2026-08-31 13:05:57 | 51.57692 | 10.62090 | 74° | 57km/h | 2242m | -0.1m/s | 3.5°C | 0% | 0hPa | 5.2V | 00:00:00 | 00:00:00 | 00:00:00 | |
| DF8AY | 2026-08-31 13:05:46 | 51.57643 | 10.61885 | 64° | 53km/h | 2246m | -0.2m/s | 3.7°C | 0% | 0hPa | 5.2V | 00:00:00 | 00:00:00 | 00:00:00 | |
| DF8AY | 2026-08-31 13:05:35 | 51.57588 | 10.61680 | 72° | 55km/h | 2254m | -1.4m/s | 3.6°C | 0% | 0hPa | 5.2V | 00:00:00 | 00:00:00 | 00:00:00 | |
| DF8AY | 2026-08-31 13:05:25 | 51.57539 | 10.61455 | 75° | 60km/h | 2272m | -1.8m/s | 3.5°C | 0% | 0hPa | 5.2V | 00:00:00 | 00:00:00 | 00:00:00 | |
| DF8AY | 2026-08-31 13:05:14 | 51.57508 | 10.61212 | 78° | 55km/h | 2291m | -1.7m/s | 3.4°C | 0% | 0hPa | 5.2V | 00:00:00 | 00:00:00 | 00:00:00 | |
| DF8AY | 2026-08-31 13:05:03 | 51.57487 | 10.60979 | 78° | 46km/h | 2309m | -0.6m/s | 3.5°C | 0% | 0hPa | 5.2V | 00:00:00 | 00:00:00 | 00:00:00 | |
| DF8AY | 2026-08-31 13:04:52 | 51.57445 | 10.60768 | 71° | 51km/h | 2318m | -0.7m/s | 3.1°C | 0% | 0hPa | 5.2V | 00:00:00 | 00:00:00 | 00:00:00 | |
| DF8AY | 2026-08-31 13:04:42 | 51.57402 | 10.60567 | 74° | 55km/h | 2326m | -1.4m/s | 3.3°C | 0% | 0hPa | 5.2V | 00:00:00 | 00:00:00 | 00:00:00 | |
| DF8AY | 2026-08-31 13:04:31 | 51.57358 | 10.60340 | 73° | 55km/h | 2339m | -1.1m/s | 2.9°C | 0% | 0hPa | 5.1V | 00:00:00 | 00:00:00 | 00:00:00 | |
| DF8AY | 2026-08-31 13:04:20 | 51.57327 | 10.60100 | 81° | 55km/h | 2350m | -1m/s | 3.1°C | 0% | 0hPa | 5.2V | 00:00:00 | 00:00:00 | 00:00:00 | |
| DF8AY | 2026-08-31 13:04:09 | 51.57299 | 10.59856 | 78° | 57km/h | 2358m | -0.5m/s | 3.1°C | 0% | 0hPa | 5.2V | 00:00:00 | 00:00:00 | 00:00:00 | |
| DF8AY | 2026-08-31 13:03:58 | 51.57264 | 10.59610 | 75° | 55km/h | 2368m | -0.9m/s | 2.7°C | 0% | 0hPa | 5.2V | 00:00:00 | 00:00:00 | 00:00:00 | |
| DF8AY | 2026-08-31 13:03:48 | 51.57223 | 10.59394 | 74° | 57km/h | 2378m | -1.1m/s | 2.8°C | 0% | 0hPa | 5.2V | 00:00:00 | 00:00:00 | 00:00:00 | |
| DF8AY | 2026-08-31 13:03:37 | 51.57179 | 10.59165 | 74° | 55km/h | 2390m | -1.1m/s | 2.6°C | 0% | 0hPa | 5.2V | 00:00:00 | 00:00:00 | 00:00:00 | |
| DF8AY | 2026-08-31 13:03:26 | 51.57138 | 10.58933 | 74° | 53km/h | 2403m | -1.2m/s | 2.8°C | 0% | 0hPa | 5.2V | 00:00:00 | 00:00:00 | 00:00:00 | |
| DF8AY | 2026-08-31 13:03:15 | 51.57096 | 10.58704 | 75° | 57km/h | 2416m | -1.3m/s | 2.8°C | 0% | 0hPa | 5.2V | 00:00:00 | 00:00:00 | 00:00:00 | |
| DF8AY | 2026-08-31 13:03:05 | 51.57057 | 10.58490 | 72° | 53km/h | 2430m | -1.3m/s | 2.9°C | 0% | 0hPa | 5.1V | 00:00:00 | 00:00:00 | 00:00:00 | |
| DF8AY | 2026-08-31 13:02:54 | 51.57011 | 10.58254 | 74° | 57km/h | 2447m | -1.5m/s | 2.8°C | 0% | 0hPa | 5.1V | 00:00:00 | 00:00:00 | 00:00:00 | |
| DF8AY | 2026-08-31 13:02:43 | 51.56964 | 10.58016 | 74° | 58km/h | 2462m | -1.5m/s | 2.8°C | 0% | 0hPa | 5.1V | 00:00:00 | 00:00:00 | 00:00:00 | |
| DF8AY | 2026-08-31 13:02:33 | 51.56932 | 10.57756 | 83° | 55km/h | 2478m | -1.4m/s | 2.8°C | 0% | 0hPa | 5.1V | 00:00:00 | 00:00:00 | 00:00:00 | |
| AM1SDL-15 | 2026-08-31 13:02:30 | 51.56930 | 10.57734 | 83° | 60km/h | 2480m | -1.5m/s | 0°C | 0% | 0hPa | 5.1V | 00:00:00 | 00:00:00 | 00:00:00 | |
| DF8AY | 2026-08-31 13:02:22 | 51.56898 | 10.57547 | 71° | 55km/h | 2493m | -1.6m/s | 2.6°C | 0% | 0hPa | 5.1V | 00:00:00 | 00:00:00 | 00:00:00 | |
| DF8AY | 2026-08-31 13:02:11 | 51.56857 | 10.57292 | 80° | 60km/h | 2512m | -1.8m/s | 2.6°C | 0% | 0hPa | 5.1V | 00:00:00 | 00:00:00 | 00:00:00 | |
| AM1SDL-15 | 2026-08-31 13:02:09 | 51.56855 | 10.57268 | 82° | 55km/h | 2516m | -1.8m/s | 0°C | 0% | 0hPa | 5.1V | 00:00:00 | 00:00:00 | 00:00:00 | |
| DF8AY | 2026-08-31 13:02:00 | 51.56831 | 10.57049 | 74° | 51km/h | 2533m | -1.7m/s | 2.4°C | 0% | 0hPa | 5.1V | 00:00:00 | 00:00:00 | 00:00:00 | |
| AM1SDL-15 | 2026-08-31 13:01:57 | 51.56823 | 10.57009 | 73° | 58km/h | 2549m | -1.7m/s | 0°C | 0% | 0hPa | 5.1V | 00:00:00 | 00:00:00 | 00:00:00 | |
| THATR2-17 | 2026-08-31 13:01:56 | 51.56767 | 10.56568 | 82° | 53km/h | 2575m | 0m/s | 0°C | 0% | 0hPa | 5.1V | 00:00:00 | 00:00:00 | 00:00:00 | |
| DF8AY | 2026-08-31 13:01:49 | 51.56791 | 10.56805 | 78° | 60km/h | 2553m | -1.9m/s | 2.2°C | 0% | 0hPa | 5.1V | 00:00:00 | 00:00:00 | 00:00:00 | |
| AM1SDL-15 | 2026-08-31 13:01:41 | 51.56772 | 10.56636 | 84° | 58km/h | 2570m | -2.1m/s | 0°C | 0% | 0hPa | 5.1V | 00:00:00 | 00:00:00 | 00:00:00 | |
| DF8AY | 2026-08-31 13:01:39 | 51.56767 | 10.56568 | 83° | 53km/h | 2575m | -2.4m/s | 2.3°C | 0% | 0hPa | 5.1V | 00:00:00 | 00:00:00 | 00:00:00 | |
| DF8AY | 2026-08-31 13:01:28 | 51.56742 | 10.56363 | 75° | 49km/h | 2599m | -2.5m/s | 1.9°C | 0% | 0hPa | 5.1V | 00:00:00 | 00:00:00 | 00:00:00 | |
| THATR2-17 | 2026-08-31 13:01:25 | 51.56723 | 10.56256 | 73° | 58km/h | 2611m | 0m/s | 0°C | 0% | 0hPa | 5.1V | 00:00:00 | 00:00:00 | 00:00:00 | |
| DF8AY | 2026-08-31 13:01:18 | 51.56692 | 10.56089 | 75° | 62km/h | 2629m | -2.3m/s | 1.5°C | 0% | 0hPa | 5.1V | 00:00:00 | 00:00:00 | 00:00:00 | |
| DF8AY | 2026-08-31 13:01:06 | 51.56660 | 10.55822 | 83° | 58km/h | 2655m | -2.6m/s | 1.5°C | 0% | 0hPa | 5.1V | 00:00:00 | 00:00:00 | 00:00:00 | |
| DF8AY | 2026-08-31 13:00:55 | 51.56625 | 10.55581 | 72° | 62km/h | 2683m | -2.9m/s | 1.1°C | 0% | 0hPa | 5.1V | 00:00:00 | 00:00:00 | 00:00:00 | |
| DF8AY | 2026-08-31 13:00:45 | 51.56584 | 10.55336 | 80° | 58km/h | 2711m | -2.8m/s | 1°C | 0% | 0hPa | 5.1V | 00:00:00 | 00:00:00 | 00:00:00 | |
| DF8AY | 2026-08-31 13:00:34 | 51.56558 | 10.55077 | 80° | 57km/h | 2743m | -2.8m/s | 0.8°C | 0% | 0hPa | 5.1V | 00:00:00 | 00:00:00 | 00:00:00 | |
| AM1SDL-15 | 2026-08-31 13:00:30 | 51.56551 | 10.55010 | 81° | 62km/h | 2755m | -3.1m/s | 0°C | 0% | 0hPa | 5.1V | 00:00:00 | 00:00:00 | 00:00:00 | |
| DF8AY | 2026-08-31 13:00:23 | 51.56532 | 10.54823 | 80° | 62km/h | 2775m | -3m/s | 0.5°C | 0% | 0hPa | 5.1V | 00:00:00 | 00:00:00 | 00:00:00 | |
| AM1SDL-15 | 2026-08-31 13:00:16 | 51.56512 | 10.54642 | 81° | 68km/h | 2799m | -3.0m/s | 0°C | 0% | 0hPa | 5.1V | 00:00:00 | 00:00:00 | 00:00:00 | |
| DF8AY | 2026-08-31 13:00:12 | 51.56500 | 10.54537 | 79° | 66km/h | 2808m | -3.1m/s | 0.1°C | 0% | 0hPa | 5.1V | 00:00:00 | 00:00:00 | 00:00:00 | |
| AM1SDL-15 | 2026-08-31 13:00:03 | 51.56479 | 10.54321 | 84° | 62km/h | 2836m | -3.1m/s | 0°C | 0% | 0hPa | 5.1V | 00:00:00 | 00:00:00 | 00:00:00 | |
| DF8AY | 2026-08-31 13:00:02 | 51.56475 | 10.54271 | 82° | 60km/h | 2840m | -3.1m/s | 0°C | 0% | 0hPa | 5.1V | 00:00:00 | 00:00:00 | 00:00:00 | |
| DF2AP-13 | 2026-08-31 12:59:58 | 51.56467 | 10.54201 | 78° | 64km/h | 2851m | -2.9m/s | 0°C | 0% | 0hPa | 5.1V | 00:00:00 | 00:00:00 | 00:00:00 | |
| DF8AY | 2026-08-31 12:59:51 | 51.56432 | 10.53998 | 74° | 68km/h | 2872m | -2.9m/s | -0.3°C | 0% | 0hPa | 5.1V | 00:00:00 | 00:00:00 | 00:00:00 | |
| AM1SDL-15 | 2026-08-31 12:59:51 | 51.56436 | 10.54021 | 75° | 66km/h | 2875m | -2.7m/s | 0°C | 0% | 0hPa | 5.1V | 00:00:00 | 00:00:00 | 00:00:00 | |
| DF8AY | 2026-08-31 12:59:40 | 51.56383 | 10.53725 | 73° | 66km/h | 2904m | -2.7m/s | -0.6°C | 0% | 0hPa | 5.1V | 00:00:00 | 00:00:00 | 00:00:00 | |
| AM1SDL-15 | 2026-08-31 12:59:38 | 51.56378 | 10.53699 | 74° | 69km/h | 2910m | -2.7m/s | 0°C | 0% | 0hPa | 5.1V | 00:00:00 | 00:00:00 | 00:00:00 | |
| DF8AY | 2026-08-31 12:59:30 | 51.56336 | 10.53457 | 78° | 71km/h | 2932m | -2.9m/s | -0.7°C | 0% | 0hPa | 5.1V | 00:00:00 | 00:00:00 | 00:00:00 | |
| AM1SDL-15 | 2026-08-31 12:59:26 | 51.56326 | 10.53372 | 81° | 66km/h | 2944m | -2.6m/s | 0°C | 0% | 0hPa | 5.1V | 00:00:00 | 00:00:00 | 00:00:00 | |
| DF8AY | 2026-08-31 12:59:20 | 51.56287 | 10.53072 | 73° | 64km/h | 2974m | -2.7m/s | -1.1°C | 0% | 0hPa | 5.1V | 00:00:00 | 00:00:00 | 00:00:00 | |
| DF2AP-13 | 2026-08-31 12:59:15 | 51.56291 | 10.53097 | 74° | 68km/h | 2974m | -2.6m/s | 0°C | 0% | 0hPa | 5.1V | 00:00:00 | 00:00:00 | 00:00:00 | |
| DF8AY | 2026-08-31 12:59:08 | 51.56251 | 10.52888 | 74° | 71km/h | 2993m | -2.5m/s | -1.2°C | 0% | 0hPa | 5.1V | 00:00:00 | 00:00:00 | 00:00:00 | |
| AM1SDL-15 | 2026-08-31 12:58:58 | 51.56221 | 10.52645 | 79° | 62km/h | 3026m | -2.5m/s | 0°C | 0% | 0hPa | 5.1V | 00:00:00 | 00:00:00 | 00:00:00 | |
| DF8AY | 2026-08-31 12:58:57 | 51.56214 | 10.52595 | 79° | 64km/h | 3021m | -2.7m/s | -1.5°C | 0% | 0hPa | 5.1V | 00:00:00 | 00:00:00 | 00:00:00 | |
| DF2AP-13 | 2026-08-31 12:58:55 | 51.56211 | 10.52569 | 80° | 64km/h | 3026m | -2.5m/s | 0°C | 0% | 0hPa | 5.1V | 00:00:00 | 00:00:00 | 00:00:00 | |
| DF8AY | 2026-08-31 12:58:46 | 51.56183 | 10.52327 | 77° | 58km/h | 3049m | -2.8m/s | -1.8°C | 0% | 0hPa | 5.1V | 00:00:00 | 00:00:00 | 00:00:00 | |
| DF8AY | 2026-08-31 12:58:35 | 51.56130 | 10.52055 | 74° | 69km/h | 3080m | -2.5m/s | -2.1°C | 0% | 0hPa | 5.1V | 00:00:00 | 00:00:00 | 00:00:00 | |
| DF8AY | 2026-08-31 12:58:25 | 51.56099 | 10.51794 | 81° | 60km/h | 3105m | -2.6m/s | -2.2°C | 0% | 0hPa | 5.1V | 00:00:00 | 00:00:00 | 00:00:00 | |
| DF2AP-13 | 2026-08-31 12:58:25 | 51.56101 | 10.51818 | 81° | 60km/h | 3105m | -2.5m/s | 0°C | 0% | 0hPa | 5.1V | 00:00:00 | 00:00:00 | 00:00:00 | |
| DF8AY | 2026-08-31 12:58:14 | 51.56054 | 10.51537 | 70° | 64km/h | 3135m | -2.6m/s | -2.5°C | 0% | 0hPa | 5.1V | 00:00:00 | 00:00:00 | 00:00:00 | |
| DF8AY | 2026-08-31 12:58:03 | 51.56004 | 10.51260 | 75° | 58km/h | 3161m | -2.2m/s | -2.9°C | 0% | 0hPa | 5.1V | 00:00:00 | 00:00:00 | 00:00:00 | |
| DF2AP-13 | 2026-08-31 12:57:55 | 51.55974 | 10.51104 | 75° | 53km/h | 3179m | -1.8m/s | 0°C | 0% | 0hPa | 5.1V | 00:00:00 | 00:00:00 | 00:00:00 | |
| DF8AY | 2026-08-31 12:57:53 | 51.55963 | 10.51036 | 75° | 58km/h | 3182m | -2m/s | -2.8°C | 0% | 0hPa | 5.1V | 00:00:00 | 00:00:00 | 00:00:00 | |
| DF8AY | 2026-08-31 12:57:43 | 51.55921 | 10.50803 | 70° | 51km/h | 3204m | -1.9m/s | -2.9°C | 0% | 0hPa | 5.1V | 00:00:00 | 00:00:00 | 00:00:00 | |
| DF8AY | 2026-08-31 12:57:31 | 51.55867 | 10.50583 | 72° | 51km/h | 3228m | -1.9m/s | -3.1°C | 0% | 0hPa | 5.1V | 00:00:00 | 00:00:00 | 00:00:00 | |
| DF2AP-13 | 2026-08-31 12:57:25 | 51.55846 | 10.50485 | 69° | 55km/h | 3239m | -2.0m/s | 0°C | 0% | 0hPa | 5.1V | 00:00:00 | 00:00:00 | 00:00:00 | |
| DF8AY | 2026-08-31 12:57:20 | 51.55813 | 10.50363 | 67° | 60km/h | 3247m | -1.8m/s | -3.1°C | 0% | 0hPa | 5.1V | 00:00:00 | 00:00:00 | 00:00:00 | |
| THATR2-17 | 2026-08-31 12:57:17 | 51.55712 | 10.49932 | 66° | 57km/h | 3284m | 0m/s | 0°C | 0% | 0hPa | 5.1V | 00:00:00 | 00:00:00 | 00:00:00 | |
| DF8AY | 2026-08-31 12:57:09 | 51.55764 | 10.50120 | 74° | 49km/h | 3267m | -1.7m/s | -3.3°C | 0% | 0hPa | 5.1V | 00:00:00 | 00:00:00 | 00:00:00 | |
| DF8AY | 2026-08-31 12:56:59 | 51.55712 | 10.49932 | 67° | 57km/h | 3284m | -1.5m/s | -3.3°C | 0% | 0hPa | 5.1V | 00:00:00 | 00:00:00 | 00:00:00 | |
| DF2AP-13 | 2026-08-31 12:56:55 | 51.55698 | 10.49865 | 74° | 51km/h | 3291m | -1.6m/s | 0°C | 0% | 0hPa | 5.1V | 00:00:00 | 00:00:00 | 00:00:00 | |
| DF8AY | 2026-08-31 12:56:48 | 51.55670 | 10.49700 | 73° | 49km/h | 3303m | -1.7m/s | -3.4°C | 0% | 0hPa | 5.1V | 00:00:00 | 00:00:00 | 00:00:00 | |
| DF8AY | 2026-08-31 12:56:38 | 51.55622 | 10.49520 | 64° | 55km/h | 3320m | -1.8m/s | -3.1°C | 0% | 0hPa | 5.1V | 00:00:00 | 00:00:00 | 00:00:00 | |
| AM1SDL-15 | 2026-08-31 12:56:37 | 51.55622 | 10.49520 | 65° | 51km/h | 3320m | -1.7m/s | 0°C | 0% | 0hPa | 5.1V | 00:00:00 | 00:00:00 | 00:00:00 | |
| DF8AY | 2026-08-31 12:56:26 | 51.55575 | 10.49273 | 74° | 46km/h | 3342m | -1.7m/s | -3.3°C | 0% | 0hPa | 5.1V | 00:00:00 | 00:00:00 | 00:00:00 | |
| DF2AP-13 | 2026-08-31 12:56:25 | 51.55575 | 10.49273 | 74° | 53km/h | 3343m | -1.7m/s | 0°C | 0% | 0hPa | 5V | 00:00:00 | 00:00:00 | 00:00:00 | |
| DF8AY | 2026-08-31 12:56:15 | 51.55524 | 10.49072 | 68° | 55km/h | 3360m | -1.7m/s | -3.2°C | 0% | 0hPa | 5V | 00:00:00 | 00:00:00 | 00:00:00 | |
| AM1SDL-15 | 2026-08-31 12:56:12 | 51.55514 | 10.49031 | 70° | 55km/h | 3365m | -1.7m/s | 0°C | 0% | 0hPa | 5.1V | 00:00:00 | 00:00:00 | 00:00:00 | |
| DF8AY | 2026-08-31 12:56:05 | 51.55479 | 10.48855 | 74° | 55km/h | 3377m | -1.5m/s | -3.2°C | 0% | 0hPa | 5.1V | 00:00:00 | 00:00:00 | 00:00:00 | |
| AM1SDL-15 | 2026-08-31 12:56:00 | 51.55465 | 10.48774 | 76° | 51km/h | 3384m | -1.3m/s | 0°C | 0% | 0hPa | 5.1V | 00:00:00 | 00:00:00 | 00:00:00 | |
| DF2AP-13 | 2026-08-31 12:55:55 | 51.55447 | 10.48673 | 72° | 55km/h | 3392m | -1.4m/s | 0°C | 0% | 0hPa | 5.1V | 00:00:00 | 00:00:00 | 00:00:00 | |
| DF8AY | 2026-08-31 12:55:55 | 51.55438 | 10.48633 | 68° | 51km/h | 3394m | -1.4m/s | -3.1°C | 0% | 0hPa | 5.1V | 00:00:00 | 00:00:00 | 00:00:00 | |
| AM1SDL-15 | 2026-08-31 12:55:48 | 51.55411 | 10.48539 | 64° | 55km/h | 3417m | -1.1m/s | 0°C | 0% | 0hPa | 5.1V | 00:00:00 | 00:00:00 | 00:00:00 | |
| DF8AY | 2026-08-31 12:55:43 | 51.55376 | 10.48409 | 69° | 62km/h | 3408m | -1.2m/s | -3.1°C | 0% | 0hPa | 5.1V | 00:00:00 | 00:00:00 | 00:00:00 | |
| DF8AY | 2026-08-31 12:55:33 | 51.55337 | 10.48178 | 77° | 53km/h | 3419m | -1.1m/s | -3°C | 0% | 0hPa | 5.1V | 00:00:00 | 00:00:00 | 00:00:00 | |
| AM1SDL-15 | 2026-08-31 12:55:27 | 51.55317 | 10.48077 | 68° | 60km/h | 3425m | -1.0m/s | 0°C | 0% | 0hPa | 5.1V | 00:00:00 | 00:00:00 | 00:00:00 | |
| DF2AP-13 | 2026-08-31 12:55:25 | 51.55306 | 10.48035 | 67° | 58km/h | 3427m | -0.9m/s | 0°C | 0% | 0hPa | 5.1V | 00:00:00 | 00:00:00 | 00:00:00 | |
| DF8AY | 2026-08-31 12:55:22 | 51.55283 | 10.47944 | 70° | 64km/h | 3430m | -1.1m/s | -2.9°C | 0% | 0hPa | 5.1V | 00:00:00 | 00:00:00 | 00:00:00 | |
| AM1SDL-15 | 2026-08-31 12:55:15 | 51.55257 | 10.47796 | 78° | 55km/h | 3437m | -1.0m/s | 0°C | 0% | 0hPa | 5V | 00:00:00 | 00:00:00 | 00:00:00 | |
| DF8AY | 2026-08-31 12:55:11 | 51.55240 | 10.47686 | 72° | 55km/h | 3441m | -0.9m/s | -2.5°C | 0% | 0hPa | 5V | 00:00:00 | 00:00:00 | 00:00:00 | |
| AM1SDL-15 | 2026-08-31 12:55:03 | 51.55206 | 10.47547 | 65° | 60km/h | 3449m | -1.0m/s | 0°C | 0% | 0hPa | 5V | 00:00:00 | 00:00:00 | 00:00:00 | |
| DF8AY | 2026-08-31 12:55:00 | 51.55180 | 10.47464 | 65° | 62km/h | 3452m | -1.1m/s | -2.6°C | 0% | 0hPa | 5V | 00:00:00 | 00:00:00 | 00:00:00 | |
| DF2AP-13 | 2026-08-31 12:54:55 | 51.55158 | 10.47366 | 76° | 57km/h | 3457m | -0.9m/s | 0°C | 0% | 0hPa | 5V | 00:00:00 | 00:00:00 | 00:00:00 | |
| AM1SDL-15 | 2026-08-31 12:54:51 | 51.55144 | 10.47273 | 71° | 55km/h | 3462m | -0.9m/s | 0°C | 0% | 0hPa | 5V | 00:00:00 | 00:00:00 | 00:00:00 | |
| DF8AY | 2026-08-31 12:54:49 | 51.55132 | 10.47215 | 69° | 51km/h | 3463m | -0.9m/s | -2.6°C | 0% | 0hPa | 5V | 00:00:00 | 00:00:00 | 00:00:00 | |
| AM1SDL-15 | 2026-08-31 12:54:39 | 51.55079 | 10.47027 | 68° | 60km/h | 3472m | -0.8m/s | 0°C | 0% | 0hPa | 5V | 00:00:00 | 00:00:00 | 00:00:00 | |
| DF8AY | 2026-08-31 12:54:38 | 51.55042 | 10.46839 | 76° | 58km/h | 3478m | -0.9m/s | -2.6°C | 0% | 0hPa | 5V | 00:00:00 | 00:00:00 | 00:00:00 | |
| AM1SDL-15 | 2026-08-31 12:54:27 | 51.55026 | 10.46752 | 72° | 55km/h | 3484m | -1.0m/s | 0°C | 0% | 0hPa | 5V | 00:00:00 | 00:00:00 | 00:00:00 | |
| DF2AP-13 | 2026-08-31 12:54:25 | 51.55017 | 10.46712 | 70° | 57km/h | 3484m | -1.0m/s | 0°C | 0% | 0hPa | 5V | 00:00:00 | 00:00:00 | 00:00:00 | |
| DF8AY | 2026-08-31 12:54:21 | 51.54953 | 10.46484 | 71° | 64km/h | 3496m | -1m/s | -2.8°C | 0% | 0hPa | 5V | 00:00:00 | 00:00:00 | 00:00:00 | |
| AM1SDL-15 | 2026-08-31 12:54:15 | 51.54956 | 10.46508 | 69° | 53km/h | 3495m | -0.9m/s | 0°C | 0% | 0hPa | 5V | 00:00:00 | 00:00:00 | 00:00:00 | |
| DF8AY | 2026-08-31 12:54:06 | 51.54915 | 10.46288 | 69° | 51km/h | 3505m | -1m/s | -2.9°C | 0% | 0hPa | 5V | 00:00:00 | 00:00:00 | 00:00:00 | |
| SONCRA | 2026-08-31 12:54:06 | 51.54911 | 10.46269 | 67° | 49km/h | 3505m | -1.0m/s | -2.8°C | -1.0% | -1.0hPa | 5V | 00:00:00 | 00:00:00 | 00:00:00 | |
| AM1SDL-15 | 2026-08-31 12:53:58 | 51.54875 | 10.46149 | 66° | 64km/h | 3514m | -1.0m/s | 0°C | 0% | 0hPa | 5V | 00:00:00 | 00:00:00 | 00:00:00 | |
| DF8AY | 2026-08-31 12:53:57 | 51.54844 | 10.46033 | 68° | 64km/h | 3518m | -1.1m/s | -3°C | 0% | 0hPa | 5V | 00:00:00 | 00:00:00 | 00:00:00 | |
| DF2AP-13 | 2026-08-31 12:53:55 | 51.54856 | 10.46081 | 68° | 62km/h | 3517m | -1.3m/s | 0°C | 0% | 0hPa | 5V | 00:00:00 | 00:00:00 | 00:00:00 | |
| DF8AY | 2026-08-31 12:53:45 | 51.54803 | 10.45817 | 73° | 55km/h | 3528m | -1.1m/s | -3°C | 0% | 0hPa | 5V | 00:00:00 | 00:00:00 | 00:00:00 | |
| DF8AY | 2026-08-31 12:53:35 | 51.54743 | 10.45598 | 65° | 64km/h | 3537m | -1.1m/s | -2.7°C | 0% | 0hPa | 5V | 00:00:00 | 00:00:00 | 00:00:00 | |
| DF2AP-13 | 2026-08-31 12:53:25 | 51.54697 | 10.45373 | 75° | 64km/h | 3548m | -0.9m/s | 0°C | 0% | 0hPa | 5V | 00:00:00 | 00:00:00 | 00:00:00 | |
| DF8AY | 2026-08-31 12:53:23 | 51.54684 | 10.45296 | 75° | 68km/h | 3550m | -1.2m/s | -2.6°C | 0% | 0hPa | 5V | 00:00:00 | 00:00:00 | 00:00:00 | |
| AM1SDL-15 | 2026-08-31 12:53:23 | 51.54688 | 10.45322 | 75° | 64km/h | 3551m | -1.2m/s | 0°C | 0% | 0hPa | 5V | 00:00:00 | 00:00:00 | 00:00:00 | |
| DF8AY | 2026-08-31 12:53:12 | 51.54642 | 10.45015 | 77° | 58km/h | 3563m | -1.2m/s | -2.5°C | 0% | 0hPa | 5V | 00:00:00 | 00:00:00 | 00:00:00 | |
| AM1SDL-15 | 2026-08-31 12:53:10 | 51.54639 | 10.44992 | 75° | 64km/h | 3565m | -1.2m/s | 0°C | 0% | 0hPa | 5V | 00:00:00 | 00:00:00 | 00:00:00 | |
| DF8AY | 2026-08-31 12:53:02 | 51.54589 | 10.44781 | 72° | 69km/h | 3576m | -1.3m/s | -2.5°C | 0% | 0hPa | 5V | 00:00:00 | 00:00:00 | 00:00:00 | |
| DF2AP-13 | 2026-08-31 12:52:55 | 51.54567 | 10.44621 | 81° | 64km/h | 3586m | -1.2m/s | 0°C | 0% | 0hPa | 5V | 00:00:00 | 00:00:00 | 00:00:00 | |
| AM1SDL-15 | 2026-08-31 12:52:53 | 51.54562 | 10.44572 | 81° | 60km/h | 3587m | -1.1m/s | 0°C | 0% | 0hPa | 5V | 00:00:00 | 00:00:00 | 00:00:00 | |
| DF8AY | 2026-08-31 12:52:51 | 51.54552 | 10.44503 | 73° | 57km/h | 3591m | -1.2m/s | -2.5°C | 0% | 0hPa | 5V | 00:00:00 | 00:00:00 | 00:00:00 | |
| DF8AY | 2026-08-31 12:52:45 | 51.54490 | 10.44230 | 71° | 73km/h | 3606m | -1.4m/s | -2.8°C | 0% | 0hPa | 5V | 00:00:00 | 00:00:00 | 00:00:00 | |
| SONDE2-11 | 2026-08-31 12:52:44 | 51.54514 | 10.44337 | 69° | 66km/h | 3601m | -1.3m/s | -2.2°C | -1.0% | -1.0hPa | 5V | 00:00:00 | 00:00:00 | 00:00:00 | |
| EDDB2-12 | 2026-08-31 12:52:43 | 51.54508 | 10.44312 | 69° | 68km/h | 3602m | -1.4m/s | -2.2°C | -1.0% | -1.0hPa | 5V | 00:00:00 | 00:00:00 | 00:00:00 | |
| THATR2-17 | 2026-08-31 12:52:37 | 51.54381 | 10.43643 | 77° | 60km/h | 3639m | 0m/s | 0°C | 0% | 0hPa | 5V | 00:00:00 | 00:00:00 | 00:00:00 | |
| AM1SDL-15 | 2026-08-31 12:52:30 | 51.54456 | 10.43998 | 72° | 68km/h | 3620m | -1.3m/s | 0°C | 0% | 0hPa | 5V | 00:00:00 | 00:00:00 | 00:00:00 | |
| DF8AY | 2026-08-31 12:52:29 | 51.54445 | 10.43953 | 67° | 60km/h | 3621m | -1.5m/s | -2.9°C | 0% | 0hPa | 5V | 00:00:00 | 00:00:00 | 00:00:00 | |
| DF2AP-13 | 2026-08-31 12:52:25 | 51.54425 | 10.43882 | 69° | 68km/h | 3628m | -1.4m/s | 0°C | 0% | 0hPa | 5V | 00:00:00 | 00:00:00 | 00:00:00 | |
| DF8AY | 2026-08-31 12:52:19 | 51.54388 | 10.43694 | 78° | 66km/h | 3636m | -1.6m/s | -3°C | 0% | 0hPa | 5V | 00:00:00 | 00:00:00 | 00:00:00 | |
| AM1SDL-15 | 2026-08-31 12:52:16 | 51.54381 | 10.43642 | 76° | 66km/h | 3641m | -1.4m/s | 0°C | 0% | 0hPa | 5V | 00:00:00 | 00:00:00 | 00:00:00 | |
| DF8AY | 2026-08-31 12:52:08 | 51.54329 | 10.43427 | 64° | 71km/h | 3652m | -1.4m/s | -3.2°C | 0% | 0hPa | 5V | 00:00:00 | 00:00:00 | 00:00:00 | |
| AM1SDL-15 | 2026-08-31 12:52:04 | 51.54306 | 10.43346 | 68° | 71km/h | 3659m | -1.4m/s | 0°C | 0% | 0hPa | 5V | 00:00:00 | 00:00:00 | 00:00:00 | |
| DF8AY | 2026-08-31 12:51:58 | 51.54271 | 10.43150 | 74° | 66km/h | 3668m | -1.5m/s | -3.2°C | 0% | 0hPa | 5V | 00:00:00 | 00:00:00 | 00:00:00 | |
| DF2AP-13 | 2026-08-31 12:51:55 | 51.54260 | 10.43100 | 66° | 73km/h | 3673m | -1.5m/s | 0°C | 0% | 0hPa | 5V | 00:00:00 | 00:00:00 | 00:00:00 | |
| AM1SDL-15 | 2026-08-31 12:51:52 | 51.54238 | 10.43026 | 64° | 69km/h | 3684m | -1.5m/s | 0°C | 0% | 0hPa | 5V | 00:00:00 | 00:00:00 | 00:00:00 | |
| DF8AY | 2026-08-31 12:51:46 | 51.54186 | 10.42829 | 73° | 77km/h | 3688m | -1.5m/s | -2.9°C | 0% | 0hPa | 5V | 00:00:00 | 00:00:00 | 00:00:00 | |
| AM1SDL-15 | 2026-08-31 12:51:39 | 51.54154 | 10.42669 | 69° | 75km/h | 3700m | -1.7m/s | 0°C | 0% | 0hPa | 5V | 00:00:00 | 00:00:00 | 00:00:00 | |
| DF8AY | 2026-08-31 12:51:36 | 51.54118 | 10.42539 | 65° | 75km/h | 3707m | -1.7m/s | -3.2°C | 0% | 0hPa | 5V | 00:00:00 | 00:00:00 | 00:00:00 | |
| DF8AY | 2026-08-31 12:51:29 | 51.54038 | 10.42192 | 72° | 68km/h | 3728m | -1.8m/s | -3.2°C | 0% | 0hPa | 5V | 00:00:00 | 00:00:00 | 00:00:00 | |
| AM1SDL-15 | 2026-08-31 12:51:27 | 51.54064 | 10.42334 | 72° | 71km/h | 3721m | -1.7m/s | 0°C | 0% | 0hPa | 5V | 00:00:00 | 00:00:00 | 00:00:00 | |
| DF2AP-13 | 2026-08-31 12:51:25 | 51.54053 | 10.42275 | 75° | 73km/h | 3725m | -1.8m/s | 0°C | 0% | 0hPa | 5V | 00:00:00 | 00:00:00 | 00:00:00 | |
| AM1SDL-15 | 2026-08-31 12:51:15 | 51.53987 | 10.42010 | 63° | 75km/h | 3743m | -1.9m/s | 0°C | 0% | 0hPa | 5V | 00:00:00 | 00:00:00 | 00:00:00 | |
| DF8AY | 2026-08-31 12:51:14 | 51.53970 | 10.41954 | 65° | 78km/h | 3745m | -1.8m/s | -3.4°C | 0% | 0hPa | 5V | 00:00:00 | 00:00:00 | 00:00:00 | |
| DF8AY | 2026-08-31 12:51:04 | 51.53908 | 10.41667 | 68° | 68km/h | 3764m | -1.9m/s | -3.5°C | 0% | 0hPa | 5V | 00:00:00 | 00:00:00 | 00:00:00 | |
| AM1SDL-15 | 2026-08-31 12:51:03 | 51.53908 | 10.41667 | 67° | 73km/h | 3766m | -2.0m/s | 0°C | 0% | 0hPa | 5V | 00:00:00 | 00:00:00 | 00:00:00 | |
| DF2AP-13 | 2026-08-31 12:50:55 | 51.53846 | 10.41450 | 68° | 75km/h | 3783m | -1.9m/s | 0°C | 0% | 0hPa | 5V | 00:00:00 | 00:00:00 | 00:00:00 | |
| DF8AY | 2026-08-31 12:50:53 | 51.53825 | 10.41360 | 70° | 78km/h | 3787m | -2m/s | -3.5°C | 0% | 0hPa | 5V | 00:00:00 | 00:00:00 | 00:00:00 | |
| DF8AY | 2026-08-31 12:50:41 | 51.53756 | 10.41033 | 65° | 69km/h | 3811m | -2.2m/s | -3.8°C | 0% | 0hPa | 5V | 00:00:00 | 00:00:00 | 00:00:00 | |
| DF8AY | 2026-08-31 12:50:34 | 51.53668 | 10.40688 | 73° | 78km/h | 3837m | -2.4m/s | -4.1°C | 0% | 0hPa | 5V | 00:00:00 | 00:00:00 | 00:00:00 | |
| DF2AP-13 | 2026-08-31 12:50:25 | 51.53653 | 10.40601 | 75° | 71km/h | 3846m | -2.3m/s | 0°C | 0% | 0hPa | 5V | 00:00:00 | 00:00:00 | 00:00:00 | |
| DF8AY | 2026-08-31 12:50:15 | 51.53532 | 10.40083 | 73° | 68km/h | 3887m | -2.3m/s | -4.5°C | 0% | 0hPa | 5V | 00:00:00 | 00:00:00 | 00:00:00 | |
| SONDE2-11 | 2026-08-31 12:50:09 | 51.53542 | 10.40136 | 73° | 69km/h | 3883m | -2.4m/s | -3.8°C | -1.0% | -1.0hPa | 5V | 00:00:00 | 00:00:00 | 00:00:00 | |
| EDDB2-12 | 2026-08-31 12:50:07 | 51.53532 | 10.40083 | 72° | 66km/h | 3887m | -2.3m/s | -3.9°C | -1.0% | -1.0hPa | 5V | 00:00:00 | 00:00:00 | 00:00:00 | |
| DF8AY | 2026-08-31 12:50:01 | 51.53494 | 10.39935 | 64° | 69km/h | 3901m | -2.4m/s | -4.6°C | 0% | 0hPa | 5V | 00:00:00 | 00:00:00 | 00:00:00 | |
| DF2AP-13 | 2026-08-31 12:49:55 | 51.53455 | 10.39794 | 69° | 73km/h | 3915m | -2.5m/s | 0°C | 0% | 0hPa | 5V | 00:00:00 | 00:00:00 | 00:00:00 | |
| DF8AY | 2026-08-31 12:49:46 | 51.53396 | 10.39514 | 65° | 68km/h | 3938m | -2.4m/s | -4.9°C | 0% | 0hPa | 5V | 00:00:00 | 00:00:00 | 00:00:00 | |
| DF8AY | 2026-08-31 12:49:36 | 51.53313 | 10.39198 | 74° | 75km/h | 3964m | -2.3m/s | -4.8°C | 0% | 0hPa | 5V | 00:00:00 | 00:00:00 | 00:00:00 | |
| DF2AP-13 | 2026-08-31 12:49:25 | 51.53247 | 10.38961 | 63° | 77km/h | 3988m | -2.2m/s | 0°C | 0% | 0hPa | 5V | 00:00:00 | 00:00:00 | 00:00:00 | |
| DF8AY | 2026-08-31 12:49:21 | 51.53207 | 10.38806 | 72° | 82km/h | 3997m | -2.4m/s | -5°C | 0% | 0hPa | 5V | 00:00:00 | 00:00:00 | 00:00:00 | |
| DF8AY | 2026-08-31 12:49:07 | 51.53102 | 10.38414 | 69° | 84km/h | 4031m | -2.4m/s | -5.2°C | 0% | 0hPa | 5V | 00:00:00 | 00:00:00 | 00:00:00 | |
| SONDE2-11 | 2026-08-31 12:49:07 | 51.53102 | 10.38414 | 68° | 82km/h | 4031m | -2.4m/s | -4.6°C | -1.0% | -1.0hPa | 5V | 00:00:00 | 00:00:00 | 00:00:00 | |
| S3001 | 2026-08-31 12:49:05 | 51.53052 | 10.38186 | 65° | 68km/h | 4049m | -2.2m/s | -6.3°C | -1.0% | -1.0hPa | 5V | 00:00:00 | 00:00:00 | 00:00:00 | |
| THATR2-17 | 2026-08-31 12:49:00 | 51.53052 | 10.38186 | 65° | 68km/h | 4049m | 0m/s | 0°C | 0% | 0hPa | 5V | 00:00:00 | 00:00:00 | 00:00:00 | |
| DF8AY | 2026-08-31 12:48:57 | 51.53036 | 10.38135 | 62° | 73km/h | 4054m | -2.3m/s | -5.5°C | 0% | 0hPa | 5V | 00:00:00 | 00:00:00 | 00:00:00 | |
| DF2AP-13 | 2026-08-31 12:48:55 | 51.53027 | 10.38108 | 62° | 77km/h | 4059m | -2.3m/s | 0°C | 0% | 0hPa | 5V | 00:00:00 | 00:00:00 | 00:00:00 | |
| DF8AY | 2026-08-31 12:48:42 | 51.52901 | 10.37625 | 61° | 73km/h | 4096m | -2.3m/s | -5.7°C | 0% | 0hPa | 5V | 00:00:00 | 00:00:00 | 00:00:00 | |
| AM1SDL-15 | 2026-08-31 12:48:27 | 51.52816 | 10.37306 | 70° | 78km/h | 4150m | -2.2m/s | 0°C | 0% | 0hPa | 5V | 00:00:00 | 00:00:00 | 00:00:00 | |
| DF8AY | 2026-08-31 12:48:25 | 51.52760 | 10.37126 | 60° | 75km/h | 4138m | -2.4m/s | -6.1°C | 0% | 0hPa | 5V | 00:00:00 | 00:00:00 | 00:00:00 | |
| DF2AP-13 | 2026-08-31 12:48:25 | 51.52802 | 10.37253 | 66° | 77km/h | 4128m | -2.2m/s | 0°C | 0% | 0hPa | 5V | 00:00:00 | 00:00:00 | 00:00:00 | |
| DF8AY | 2026-08-31 12:48:13 | 51.52695 | 10.36887 | 71° | 73km/h | 4157m | -2.2m/s | -6.1°C | 0% | 0hPa | 5V | 00:00:00 | 00:00:00 | 00:00:00 | |
| DF8AY | 2026-08-31 12:48:02 | 51.52600 | 10.36590 | 65° | 84km/h | 4183m | -2.6m/s | -6.2°C | 0% | 0hPa | 5V | 00:00:00 | 00:00:00 | 00:00:00 | |
| THATR2-17 | 2026-08-31 12:47:58 | 51.52380 | 10.35861 | 57° | 75km/h | 4247m | 0m/s | 0°C | 0% | 0hPa | 4.9V | 00:00:00 | 00:00:00 | 00:00:00 | |
| DF2AP-13 | 2026-08-31 12:47:55 | 51.52558 | 10.36417 | 68° | 75km/h | 4200m | -2.4m/s | 0°C | 0% | 0hPa | 4.9V | 00:00:00 | 00:00:00 | 00:00:00 | |
| TFSTFS | 2026-08-31 12:47:53 | 51.52544 | 10.36367 | 64° | 68km/h | 4202m | -2.5m/s | -6.5°C | 0% | 0hPa | 4.9V | 00:00:00 | 00:00:00 | 00:00:00 | |
| DF8AY | 2026-08-31 12:47:51 | 51.52517 | 10.36294 | 57° | 73km/h | 4210m | -2.3m/s | -6.5°C | 0% | 0hPa | 4.9V | 00:00:00 | 00:00:00 | 00:00:00 | |
| AM1SDL-15 | 2026-08-31 12:47:44 | 51.52458 | 10.36123 | 68° | 78km/h | 4226m | -2.2m/s | 0°C | 0% | 0hPa | 4.9V | 00:00:00 | 00:00:00 | 00:00:00 | |
| DF8AY | 2026-08-31 12:47:41 | 51.52431 | 10.36010 | 68° | 69km/h | 4233m | -2.4m/s | -6.6°C | 0% | 0hPa | 4.9V | 00:00:00 | 00:00:00 | 00:00:00 | |
| DF8AY | 2026-08-31 12:47:30 | 51.52331 | 10.35717 | 66° | 82km/h | 4259m | -2.5m/s | -6.7°C | 0% | 0hPa | 4.9V | 00:00:00 | 00:00:00 | 00:00:00 | |
| DF2AP-13 | 2026-08-31 12:47:25 | 51.52301 | 10.35600 | 67° | 75km/h | 4271m | -2.3m/s | 0°C | 0% | 0hPa | 4.9V | 00:00:00 | 00:00:00 | 00:00:00 | |
| DF8AY | 2026-08-31 12:47:20 | 51.52254 | 10.35451 | 58° | 69km/h | 4283m | -2.5m/s | -7.1°C | 0% | 0hPa | 4.9V | 00:00:00 | 00:00:00 | 00:00:00 | |
| DF8AY | 2026-08-31 12:47:13 | 51.52150 | 10.35115 | 66° | 69km/h | 4313m | -2.4m/s | -7.3°C | 0% | 0hPa | 4.9V | 00:00:00 | 00:00:00 | 00:00:00 | |
| TFSTFS | 2026-08-31 12:47:05 | 51.52134 | 10.35065 | 62° | 68km/h | 4317m | -2.4m/s | -7.4°C | 0% | 0hPa | 4.9V | 00:00:00 | 00:00:00 | 00:00:00 | |
| SONDE2-11 | 2026-08-31 12:47:03 | 51.52106 | 10.34991 | 57° | 75km/h | 4325m | -2.4m/s | -6.8°C | -1.0% | -1.0hPa | 4.9V | 00:00:00 | 00:00:00 | 00:00:00 | |
| DF8AY | 2026-08-31 12:46:58 | 51.52055 | 10.34847 | 66° | 84km/h | 4337m | -2.4m/s | -7.4°C | 0% | 0hPa | 4.9V | 00:00:00 | 00:00:00 | 00:00:00 | |
| DF2AP-13 | 2026-08-31 12:46:55 | 51.52039 | 10.34784 | 70° | 78km/h | 4344m | -2.3m/s | 0°C | 0% | 0hPa | 4.9V | 00:00:00 | 00:00:00 | 00:00:00 | |
| HSKMA3-T | 2026-08-31 12:46:45 | 51.51945 | 10.34490 | 60° | 82km/h | 4368m | -2.3m/s | -7.8°C | 0% | 0hPa | 4.9V | 00:00:00 | 00:00:00 | 00:00:00 | |
| DF8AY | 2026-08-31 12:46:34 | 51.51815 | 10.34062 | 60° | 84km/h | 4404m | -2.2m/s | -8.1°C | 0% | 0hPa | 4.9V | 00:00:00 | 00:00:00 | 00:00:00 | |
| HSKMA3-T | 2026-08-31 12:46:34 | 51.51856 | 10.34170 | 60° | 71km/h | 4394m | -2.3m/s | -7.9°C | 0% | 0hPa | 4.9V | 00:00:00 | 00:00:00 | 00:00:00 | |
| DL1NUX | 2026-08-31 12:46:31 | 51.51786 | 10.33971 | 65° | 84km/h | 4433m | -2.3m/s | 0°C | 0% | 0hPa | 0V | 00:00:00 | 00:00:00 | 00:00:00 | |
| DF2AP-13 | 2026-08-31 12:46:25 | 51.51777 | 10.33939 | 69° | 78km/h | 4415m | -2.3m/s | 0°C | 0% | 0hPa | 4.9V | 00:00:00 | 00:00:00 | 00:00:00 | |
| DF8AY | 2026-08-31 12:46:24 | 51.51763 | 10.33878 | 70° | 78km/h | 4417m | -2.3m/s | -8.1°C | 0% | 0hPa | 4.9V | 00:00:00 | 00:00:00 | 00:00:00 | |
| HSKMA3-T | 2026-08-31 12:46:23 | 51.51756 | 10.33849 | 70° | 77km/h | 4420m | -2.3m/s | -8.1°C | 0% | 0hPa | 4.9V | 00:00:00 | 00:00:00 | 00:00:00 | |
| DL1NUX | 2026-08-31 12:46:19 | 51.51667 | 10.33577 | 61° | 86km/h | 4442m | -2.3m/s | 0°C | 0% | 0hPa | 0V | 00:00:00 | 00:00:00 | 00:00:00 | |
| SO1NDE-10 | 2026-08-31 12:46:13 | 51.51667 | 10.33577 | 62° | 78km/h | 4442m | -2.2m/s | 0°C | 0% | 0hPa | 4.9V | 00:00:00 | 00:00:00 | 00:00:00 | |
| DL1NUX | 2026-08-31 12:46:13 | 51.51622 | 10.33422 | 68° | 78km/h | 4468m | -2.2m/s | 0°C | 0% | 0hPa | 0V | 00:00:00 | 00:00:00 | 00:00:00 | |
| HSKMA3-T | 2026-08-31 12:46:12 | 51.51656 | 10.33546 | 63° | 86km/h | 4444m | -2.2m/s | -8.4°C | 0% | 0hPa | 4.9V | 00:00:00 | 00:00:00 | 00:00:00 | |
| TFSTFS | 2026-08-31 12:46:09 | 51.51638 | 10.33483 | 68° | 86km/h | 4449m | -2.2m/s | -8.4°C | 0% | 0hPa | 4.9V | 00:00:00 | 00:00:00 | 00:00:00 | |
| HSKMA3-T | 2026-08-31 12:46:01 | 51.51566 | 10.33237 | 57° | 75km/h | 4468m | -2.2m/s | -8.6°C | 0% | 0hPa | 4.9V | 00:00:00 | 00:00:00 | 00:00:00 | |
| DL1NUX | 2026-08-31 12:45:59 | 51.51502 | 10.33063 | 65° | 84km/h | 4483m | -2m/s | 0°C | 0% | 0hPa | 0V | 00:00:00 | 00:00:00 | 00:00:00 | |
| DF2AP-13 | 2026-08-31 12:45:55 | 51.51512 | 10.33094 | 66° | 78km/h | 4481m | -2.1m/s | 0°C | 0% | 0hPa | 4.9V | 00:00:00 | 00:00:00 | 00:00:00 | |
| THATR2-17 | 2026-08-31 12:45:53 | 51.51301 | 10.32472 | 66° | 82km/h | 4525m | 0m/s | 0°C | 0% | 0hPa | 4.9V | 00:00:00 | 00:00:00 | 00:00:00 | |
| HSKMA3-T | 2026-08-31 12:45:51 | 51.51470 | 10.32946 | 65° | 75km/h | 4489m | -2m/s | -8.6°C | 0% | 0hPa | 4.9V | 00:00:00 | 00:00:00 | 00:00:00 | |
| DL1NUX | 2026-08-31 12:45:48 | 51.51407 | 10.32763 | 57° | 75km/h | 4506m | -2.2m/s | 0°C | 0% | 0hPa | 0V | 00:00:00 | 00:00:00 | 00:00:00 | |
| SO1NDE-10 | 2026-08-31 12:45:42 | 51.51397 | 10.32738 | 57° | 82km/h | 4509m | -2.1m/s | 0°C | 0% | 0hPa | 4.9V | 00:00:00 | 00:00:00 | 00:00:00 | |
| HSKMA3-T | 2026-08-31 12:45:40 | 51.51363 | 10.32656 | 57° | 84km/h | 4513m | -2.1m/s | -8.8°C | 0% | 0hPa | 4.9V | 00:00:00 | 00:00:00 | 00:00:00 | |
| DF8AY | 2026-08-31 12:45:37 | 51.51285 | 10.32413 | 66° | 75km/h | 4529m | -2.1m/s | -8.9°C | 0% | 0hPa | 4.9V | 00:00:00 | 00:00:00 | 00:00:00 | |
| DL1NUX | 2026-08-31 12:45:33 | 51.51301 | 10.32471 | 67° | 82km/h | 4527m | -1.9m/s | 0°C | 0% | 0hPa | 0V | 00:00:00 | 00:00:00 | 00:00:00 | |
| DL1NUX | 2026-08-31 12:45:33 | 51.51260 | 10.32335 | 58° | 71km/h | 4539m | -2.2m/s | 0°C | 0% | 0hPa | 0V | 00:00:00 | 00:00:00 | 00:00:00 | |
| HSKMA3-T | 2026-08-31 12:45:29 | 51.51260 | 10.32335 | 59° | 71km/h | 4535m | -2.1m/s | -9°C | 0% | 0hPa | 4.9V | 00:00:00 | 00:00:00 | 00:00:00 | |
| DF8AY | 2026-08-31 12:45:27 | 51.51240 | 10.32284 | 56° | 77km/h | 4539m | -2.2m/s | -9°C | 0% | 0hPa | 4.9V | 00:00:00 | 00:00:00 | 00:00:00 | |
| DF2AP-13 | 2026-08-31 12:45:25 | 51.51229 | 10.32259 | 57° | 82km/h | 4544m | -1.9m/s | 0°C | 0% | 0hPa | 0V | 00:00:00 | 00:00:00 | 00:00:00 | |
| DL1NUX | 2026-08-31 12:45:22 | 51.51195 | 10.32174 | 59° | 86km/h | 4550m | -2.1m/s | 0°C | 0% | 0hPa | 0V | 00:00:00 | 00:00:00 | 00:00:00 | |
| HSKMA3-T | 2026-08-31 12:45:19 | 51.51154 | 10.32050 | 65° | 86km/h | 4556m | -2.2m/s | -9°C | 0% | 0hPa | 4.9V | 00:00:00 | 00:00:00 | 00:00:00 | |
| DL1NUX | 2026-08-31 12:45:16 | 51.51091 | 10.31848 | 60° | 75km/h | 4575m | -2m/s | 0°C | 0% | 0hPa | 0V | 00:00:00 | 00:00:00 | 00:00:00 | |
| DF8AY | 2026-08-31 12:45:16 | 51.51128 | 10.31959 | 64° | 80km/h | 4563m | -2.1m/s | -9°C | 0% | 0hPa | 4.9V | 00:00:00 | 00:00:00 | 00:00:00 | |
| SO1NDE-10 | 2026-08-31 12:45:12 | 51.51101 | 10.31875 | 62° | 80km/h | 4569m | -1.9m/s | 0°C | 0% | 0hPa | 4.9V | 00:00:00 | 00:00:00 | 00:00:00 | |
| HSKMA3-T | 2026-08-31 12:45:08 | 51.51052 | 10.31744 | 56° | 77km/h | 4579m | -2m/s | -9.1°C | 0% | 0hPa | 4.9V | 00:00:00 | 00:00:00 | 00:00:00 | |
| DL1NUX | 2026-08-31 12:45:06 | 51.50983 | 10.31566 | 66° | 89km/h | 4594m | -2m/s | 0°C | 0% | 0hPa | 0V | 00:00:00 | 00:00:00 | 00:00:00 | |
| DF8AY | 2026-08-31 12:45:05 | 51.51018 | 10.31664 | 56° | 84km/h | 4586m | -2m/s | -9.2°C | 0% | 0hPa | 4.9V | 00:00:00 | 00:00:00 | 00:00:00 | |
| HSKMA3-T | 2026-08-31 12:44:57 | 51.50937 | 10.31417 | 66° | 77km/h | 4602m | -1.9m/s | -9.1°C | 0% | 0hPa | 4.9V | 00:00:00 | 00:00:00 | 00:00:00 | |
| DF2AP-13 | 2026-08-31 12:44:55 | 51.50929 | 10.31389 | 65° | 82km/h | 4606m | -1.9m/s | 0°C | 0% | 0hPa | 0V | 00:00:00 | 00:00:00 | 00:00:00 | |
| DF8AY | 2026-08-31 12:44:55 | 51.50921 | 10.31362 | 63° | 73km/h | 4606m | -2m/s | -9.1°C | 0% | 0hPa | 4.9V | 00:00:00 | 00:00:00 | 00:00:00 | |
| DL1NUX | 2026-08-31 12:44:52 | 51.50845 | 10.31174 | 58° | 88km/h | 4624m | -1.9m/s | 0°C | 0% | 0hPa | 0V | 00:00:00 | 00:00:00 | 00:00:00 | |
| DL1NUX | 2026-08-31 12:44:47 | 51.50795 | 10.31012 | 56° | 82km/h | 4635m | -1.9m/s | 0°C | 0% | 0hPa | 0V | 00:00:00 | 00:00:00 | 00:00:00 | |
| HSKMA3-T | 2026-08-31 12:44:46 | 51.50823 | 10.31111 | 63° | 89km/h | 4624m | -1.9m/s | -9.1°C | 0% | 0hPa | 4.9V | 00:00:00 | 00:00:00 | 00:00:00 | |
| DF8AY | 2026-08-31 12:44:42 | 51.50787 | 10.30987 | 66° | 78km/h | 4632m | -2m/s | -9.2°C | 0% | 0hPa | 4.9V | 00:00:00 | 00:00:00 | 00:00:00 | |
| SO1NDE-10 | 2026-08-31 12:44:42 | 51.50795 | 10.31012 | 57° | 84km/h | 4636m | -1.9m/s | 0°C | 0% | 0hPa | 0V | 00:00:00 | 00:00:00 | 00:00:00 | |
| DL1NUX | 2026-08-31 12:44:41 | 51.50741 | 10.30853 | 56° | 75km/h | 4646m | -2m/s | 0°C | 0% | 0hPa | 0V | 00:00:00 | 00:00:00 | 00:00:00 | |
| HSKMA3-T | 2026-08-31 12:44:35 | 51.50719 | 10.30800 | 55° | 80km/h | 4646m | -2m/s | -9.4°C | 0% | 0hPa | 4.9V | 00:00:00 | 00:00:00 | 00:00:00 | |
| DL1NUX | 2026-08-31 12:44:29 | 51.50661 | 10.30651 | 65° | 88km/h | 4662m | -2.1m/s | 0°C | 0% | 0hPa | 0V | 00:00:00 | 00:00:00 | 00:00:00 | |
| DL1NUX | 2026-08-31 12:44:29 | 51.50615 | 10.30498 | 65° | 80km/h | 4676m | -2.1m/s | 0°C | 0% | 0hPa | 0V | 00:00:00 | 00:00:00 | 00:00:00 | |
| HSKMA3-T | 2026-08-31 12:44:25 | 51.50615 | 10.30498 | 66° | 80km/h | 4666m | -1.9m/s | -9.5°C | 0% | 0hPa | 4.9V | 00:00:00 | 00:00:00 | 00:00:00 | |
| THATR2-17 | 2026-08-31 12:44:20 | 51.50560 | 10.30331 | 57° | 78km/h | 4678m | 0m/s | 0°C | 0% | 0hPa | 4.9V | 00:00:00 | 00:00:00 | 00:00:00 | |
| DF8AY | 2026-08-31 12:44:19 | 51.50560 | 10.30331 | 58° | 80km/h | 4678m | -1.9m/s | -9.6°C | 0% | 0hPa | 4.9V | 00:00:00 | 00:00:00 | 00:00:00 | |
| HSKMA3-T | 2026-08-31 12:44:14 | 51.50501 | 10.30189 | 57° | 88km/h | 4688m | -2.1m/s | -9.6°C | 0% | 0hPa | 4.9V | 00:00:00 | 00:00:00 | 00:00:00 | |
| SO1NDE-10 | 2026-08-31 12:44:11 | 51.50477 | 10.30127 | 60° | 86km/h | 4694m | -1.9m/s | 0°C | 0% | 0hPa | 0V | 00:00:00 | 00:00:00 | 00:00:00 | |
| AM1SDL-15 | 2026-08-31 12:44:09 | 51.50455 | 10.30063 | 65° | 82km/h | 4698m | -1.9m/s | 0°C | 0% | 0hPa | 0V | 00:00:00 | 00:00:00 | 00:00:00 | |
| DL1NUX | 2026-08-31 12:44:07 | 51.50436 | 10.29997 | 65° | 86km/h | 4703m | -2.1m/s | 0°C | 0% | 0hPa | 0V | 00:00:00 | 00:00:00 | 00:00:00 | |
| DL1NUX | 2026-08-31 12:44:07 | 51.50390 | 10.29852 | 58° | 78km/h | 4713m | -1.9m/s | 0°C | 0% | 0hPa | 0V | 00:00:00 | 00:00:00 | 00:00:00 | |
| DF8AY | 2026-08-31 12:44:07 | 51.50427 | 10.29967 | 66° | 84km/h | 4703m | -2.1m/s | -9.5°C | 0% | 0hPa | 4.9V | 00:00:00 | 00:00:00 | 00:00:00 | |
| HSKMA3-T | 2026-08-31 12:44:03 | 51.50390 | 10.29852 | 59° | 78km/h | 4711m | -1.9m/s | -9.5°C | 0% | 0hPa | 4.9V | 00:00:00 | 00:00:00 | 00:00:00 | |
| DL1NUX | 2026-08-31 12:44:02 | 51.50333 | 10.29713 | 55° | 88km/h | 4722m | -1.9m/s | 0°C | 0% | 0hPa | 0V | 00:00:00 | 00:00:00 | 00:00:00 | |
| DF8AY | 2026-08-31 12:43:58 | 51.50320 | 10.29683 | 56° | 89km/h | 4722m | -1.9m/s | -9.7°C | 0% | 0hPa | 4.9V | 00:00:00 | 00:00:00 | 00:00:00 | |
| DL1NUX | 2026-08-31 12:43:57 | 51.50262 | 10.29523 | 63° | 89km/h | 4734m | -1.9m/s | 0°C | 0% | 0hPa | 0V | 00:00:00 | 00:00:00 | 00:00:00 | |
| AM1SDL-15 | 2026-08-31 12:43:57 | 51.50332 | 10.29713 | 56° | 88km/h | 4722m | -1.9m/s | 0°C | 0% | 0hPa | 4.9V | 00:00:00 | 00:00:00 | 00:00:00 | |
| DF2AP-13 | 2026-08-31 12:43:55 | 51.50308 | 10.29653 | 58° | 86km/h | 4726m | -1.8m/s | 0°C | 0% | 0hPa | 4.9V | 00:00:00 | 00:00:00 | 00:00:00 | |
| HSKMA3-T | 2026-08-31 12:43:53 | 51.50262 | 10.29523 | 64° | 91km/h | 4732m | -1.8m/s | -9.7°C | 0% | 0hPa | 4.9V | 00:00:00 | 00:00:00 | 00:00:00 | |
| DL1NUX | 2026-08-31 12:43:52 | 51.50217 | 10.29373 | 55° | 78km/h | 4743m | -2m/s | 0°C | 0% | 0hPa | 0V | 00:00:00 | 00:00:00 | 00:00:00 | |
| DF8AY | 2026-08-31 12:43:46 | 51.50207 | 10.29341 | 60° | 78km/h | 4743m | -2m/s | -9.7°C | 0% | 0hPa | 4.9V | 00:00:00 | 00:00:00 | 00:00:00 | |
| DL1NUX | 2026-08-31 12:43:45 | 51.50148 | 10.29200 | 55° | 91km/h | 4755m | -2.1m/s | 0°C | 0% | 0hPa | 0V | 00:00:00 | 00:00:00 | 00:00:00 | |
| AM1SDL-15 | 2026-08-31 12:43:45 | 51.50207 | 10.29341 | 61° | 88km/h | 4745m | -1.9m/s | 0°C | 0% | 0hPa | 4.9V | 00:00:00 | 00:00:00 | 00:00:00 | |
| HSKMA3-T | 2026-08-31 12:43:41 | 51.50148 | 10.29200 | 56° | 91km/h | 4753m | -2m/s | -9.9°C | 0% | 0hPa | 4.9V | 00:00:00 | 00:00:00 | 00:00:00 | |
| SO1NDE-10 | 2026-08-31 12:43:41 | 51.50161 | 10.29231 | 56° | 89km/h | 4753m | -2.0m/s | 0°C | 0% | 0hPa | 0V | 00:00:00 | 00:00:00 | 00:00:00 | |
| DL1NUX | 2026-08-31 12:43:40 | 51.50089 | 10.29036 | 64° | 91km/h | 4763m | -2m/s | 0°C | 0% | 0hPa | 0V | 00:00:00 | 00:00:00 | 00:00:00 | |
| DF8AY | 2026-08-31 12:43:36 | 51.50089 | 10.29036 | 65° | 91km/h | 4763m | -2m/s | -9.8°C | 0% | 0hPa | 4.9V | 00:00:00 | 00:00:00 | 00:00:00 | |
| AM1SDL-15 | 2026-08-31 12:43:33 | 51.50070 | 10.28971 | 66° | 89km/h | 4767m | -1.8m/s | 0°C | 0% | 0hPa | 4.9V | 00:00:00 | 00:00:00 | 00:00:00 | |
| HSKMA3-T | 2026-08-31 12:43:31 | 51.50043 | 10.28883 | 61° | 78km/h | 4772m | -1.9m/s | -9.9°C | 0% | 0hPa | 4.9V | 00:00:00 | 00:00:00 | 00:00:00 | |
| DL1NUX | 2026-08-31 12:43:29 | 51.49968 | 10.28708 | 58° | 95km/h | 4784m | -1.9m/s | 0°C | 0% | 0hPa | 0V | 00:00:00 | 00:00:00 | 00:00:00 | |
| DF2AP-13 | 2026-08-31 12:43:25 | 51.49985 | 10.28740 | 57° | 88km/h | 4784m | -1.8m/s | 0°C | 0% | 0hPa | 4.9V | 00:00:00 | 00:00:00 | 00:00:00 | |
| DF8AY | 2026-08-31 12:43:23 | 51.49937 | 10.28608 | 63° | 93km/h | 4789m | -1.9m/s | -9.9°C | 0% | 0hPa | 4.9V | 00:00:00 | 00:00:00 | 00:00:00 | |
| DL1NUX | 2026-08-31 12:43:22 | 51.49898 | 10.28477 | 64° | 86km/h | 4812m | -1.9m/s | 0°C | 0% | 0hPa | 0V | 00:00:00 | 00:00:00 | 00:00:00 | |
| HSKMA3-T | 2026-08-31 12:43:20 | 51.49917 | 10.28541 | 65° | 89km/h | 4792m | -1.9m/s | -9.9°C | 0% | 0hPa | 4.9V | 00:00:00 | 00:00:00 | 00:00:00 | |
| AM1SDL-15 | 2026-08-31 12:43:19 | 51.49917 | 10.28541 | 65° | 84km/h | 4795m | -1.7m/s | 0°C | 0% | 0hPa | 4.9V | 00:00:00 | 00:00:00 | 00:00:00 | |
| DF8AY | 2026-08-31 12:43:11 | 51.49765 | 10.28122 | 59° | 95km/h | 4817m | -1.8m/s | -10.2°C | 0% | 0hPa | 4.9V | 00:00:00 | 00:00:00 | 00:00:00 | |
| HSKMA3-T | 2026-08-31 12:43:09 | 51.49802 | 10.28215 | 56° | 88km/h | 4812m | -1.9m/s | -10.2°C | 0% | 0hPa | 4.9V | 00:00:00 | 00:00:00 | 00:00:00 | |
| AM1SDL-15 | 2026-08-31 12:43:07 | 51.49790 | 10.28186 | 58° | 89km/h | 4816m | -1.8m/s | 0°C | 0% | 0hPa | 0V | 00:00:00 | 00:00:00 | 00:00:00 | |
| DL1NUX | 2026-08-31 12:43:01 | 51.49678 | 10.27833 | 59° | 82km/h | 4833m | -1.7m/s | 0°C | 0% | 0hPa | 0V | 00:00:00 | 00:00:00 | 00:00:00 | |
| HSKMA3-T | 2026-08-31 12:42:59 | 51.49694 | 10.27891 | 64° | 80km/h | 4830m | -1.7m/s | -10.3°C | 0% | 0hPa | 4.9V | 00:00:00 | 00:00:00 | 00:00:00 | |
| DL1NUX | 2026-08-31 12:42:56 | 51.49617 | 10.27692 | 56° | 89km/h | 4844m | -1.6m/s | 0°C | 0% | 0hPa | 0V | 00:00:00 | 00:00:00 | 00:00:00 | |
| DF8AY | 2026-08-31 12:42:56 | 51.49665 | 10.27806 | 58° | 80km/h | 4835m | -1.8m/s | -10.3°C | 0% | 0hPa | 4.9V | 00:00:00 | 00:00:00 | 00:00:00 | |
| SO1NDE-10 | 2026-08-31 12:42:56 | 51.49677 | 10.27833 | 60° | 86km/h | 4833m | -1.7m/s | 0°C | 0% | 0hPa | 4.9V | 00:00:00 | 00:00:00 | 00:00:00 | |
| AM1SDL-15 | 2026-08-31 12:42:55 | 51.49665 | 10.27806 | 58° | 88km/h | 4837m | -1.6m/s | 0°C | 0% | 0hPa | 4.9V | 00:00:00 | 00:00:00 | 00:00:00 | |
| HSKMA3-T | 2026-08-31 12:42:48 | 51.49569 | 10.27565 | 62° | 91km/h | 4848m | -1.7m/s | -10.4°C | 0% | 0hPa | 4.9V | 00:00:00 | 00:00:00 | 00:00:00 | |
| DL1NUX | 2026-08-31 12:42:46 | 51.49511 | 10.27374 | 63° | 80km/h | 4859m | -1.6m/s | 0°C | 0% | 0hPa | 0V | 00:00:00 | 00:00:00 | 00:00:00 | |
| DF8AY | 2026-08-31 12:42:46 | 51.49548 | 10.27500 | 64° | 89km/h | 4852m | -1.8m/s | -10.3°C | 0% | 0hPa | 4.9V | 00:00:00 | 00:00:00 | 00:00:00 | |
| AM1SDL-15 | 2026-08-31 12:42:43 | 51.49529 | 10.27434 | 65° | 82km/h | 4857m | -1.6m/s | 0°C | 0% | 0hPa | 0V | 00:00:00 | 00:00:00 | 00:00:00 | |
| DL1NUX | 2026-08-31 12:42:41 | 51.49461 | 10.27236 | 56° | 78km/h | 4869m | -1.6m/s | 0°C | 0% | 0hPa | 0V | 00:00:00 | 00:00:00 | 00:00:00 | |
| DO2JMG | 2026-08-31 12:42:39 | 51.49492 | 10.27317 | 61° | 78km/h | 4862m | -1.5m/s | 0°C | 0% | 0hPa | 0V | 00:00:00 | 00:00:00 | 00:00:00 | |
| HSKMA3-T | 2026-08-31 12:42:37 | 51.49461 | 10.27236 | 57° | 78km/h | 4867m | -1.6m/s | -10.6°C | 0% | 0hPa | 4.9V | 00:00:00 | 00:00:00 | 00:00:00 | |
| DL1NUX | 2026-08-31 12:42:36 | 51.49400 | 10.27095 | 57° | 91km/h | 4879m | -1.7m/s | 0°C | 0% | 0hPa | 0V | 00:00:00 | 00:00:00 | 00:00:00 | |
| DF8AY | 2026-08-31 12:42:35 | 51.49299 | 10.26794 | 60° | 78km/h | 4891m | -1.6m/s | -10.6°C | 0% | 0hPa | 4.9V | 00:00:00 | 00:00:00 | 00:00:00 | |
| DL1NUX | 2026-08-31 12:42:31 | 51.49346 | 10.26937 | 63° | 84km/h | 4884m | -1.6m/s | 0°C | 0% | 0hPa | 0V | 00:00:00 | 00:00:00 | 00:00:00 | |
| AM1SDL-15 | 2026-08-31 12:42:31 | 51.49400 | 10.27095 | 58° | 84km/h | 4877m | -1.7m/s | 0°C | 0% | 0hPa | 4.9V | 00:00:00 | 00:00:00 | 00:00:00 | |
| SO1NDE-10 | 2026-08-31 12:42:27 | 51.49346 | 10.26937 | 64° | 82km/h | 4884m | -1.5m/s | 0°C | 0% | 0hPa | 4.9V | 00:00:00 | 00:00:00 | 00:00:00 | |
| HSKMA3-T | 2026-08-31 12:42:25 | 51.49327 | 10.26878 | 63° | 78km/h | 4887m | -1.7m/s | -10.6°C | 0% | 0hPa | 4.9V | 00:00:00 | 00:00:00 | 00:00:00 | |
| DF8AY | 2026-08-31 12:42:24 | 51.49244 | 10.26656 | 56° | 82km/h | 4900m | -1.6m/s | -10.7°C | 0% | 0hPa | 4.9V | 00:00:00 | 00:00:00 | 00:00:00 | |
| DL1NUX | 2026-08-31 12:42:22 | 51.49279 | 10.26739 | 57° | 80km/h | 4896m | -1.6m/s | 0°C | 0% | 0hPa | 0V | 00:00:00 | 00:00:00 | 00:00:00 | |
| AM1SDL-15 | 2026-08-31 12:42:19 | 51.49278 | 10.26739 | 58° | 80km/h | 4900m | -1.6m/s | 0°C | 0% | 0hPa | 0V | 00:00:00 | 00:00:00 | 00:00:00 | |
| DL1NUX | 2026-08-31 12:42:15 | 51.49221 | 10.26601 | 56° | 82km/h | 4908m | -1.5m/s | 0°C | 0% | 0hPa | 0V | 00:00:00 | 00:00:00 | 00:00:00 | |
| HSKMA3-T | 2026-08-31 12:42:14 | 51.49210 | 10.26574 | 57° | 80km/h | 4905m | -1.6m/s | -10.8°C | 0% | 0hPa | 4.9V | 00:00:00 | 00:00:00 | 00:00:00 | |
| DL1NUX | 2026-08-31 12:42:09 | 51.49166 | 10.26463 | 58° | 78km/h | 4916m | -1.7m/s | 0°C | 0% | 0hPa | 0V | 00:00:00 | 00:00:00 | 00:00:00 | |
| DL1NUX | 2026-08-31 12:42:09 | 51.49115 | 10.26335 | 54° | 77km/h | 4922m | -1.5m/s | 0°C | 0% | 0hPa | 0V | 00:00:00 | 00:00:00 | 00:00:00 | |
| AM1SDL-15 | 2026-08-31 12:42:07 | 51.49146 | 10.26411 | 59° | 82km/h | 4916m | -1.6m/s | 0°C | 0% | 0hPa | 4.9V | 00:00:00 | 00:00:00 | 00:00:00 | |
| HSKMA3-T | 2026-08-31 12:42:03 | 51.49091 | 10.26283 | 54° | 84km/h | 4923m | -1.5m/s | -11.1°C | 0% | 0hPa | 4.9V | 00:00:00 | 00:00:00 | 00:00:00 | |
| DL1NUX | 2026-08-31 12:42:02 | 51.49054 | 10.26196 | 57° | 89km/h | 4929m | -1.6m/s | 0°C | 0% | 0hPa | 0V | 00:00:00 | 00:00:00 | 00:00:00 | |
| DF8AY | 2026-08-31 12:41:56 | 51.48993 | 10.26015 | 63° | 77km/h | 4938m | -1.6m/s | -11.1°C | 0% | 0hPa | 4.9V | 00:00:00 | 00:00:00 | 00:00:00 | |
| DL1NUX | 2026-08-31 12:41:55 | 51.49003 | 10.26044 | 63° | 75km/h | 4936m | -1.7m/s | 0°C | 0% | 0hPa | 0V | 00:00:00 | 00:00:00 | 00:00:00 | |
| AM1SDL-15 | 2026-08-31 12:41:55 | 51.49011 | 10.26073 | 64° | 77km/h | 4937m | -1.6m/s | 0°C | 0% | 0hPa | 4.8V | 00:00:00 | 00:00:00 | 00:00:00 | |
| SO1NDE-10 | 2026-08-31 12:41:54 | 51.49003 | 10.26043 | 64° | 78km/h | 4937m | -1.6m/s | 0°C | 0% | 0hPa | 4.8V | 00:00:00 | 00:00:00 | 00:00:00 | |
| HSKMA3-T | 2026-08-31 12:41:52 | 51.48975 | 10.25962 | 59° | 75km/h | 4941m | -1.4m/s | -11.1°C | 0% | 0hPa | 4.8V | 00:00:00 | 00:00:00 | 00:00:00 | |
| DL1NUX | 2026-08-31 12:41:49 | 51.48955 | 10.25912 | 54° | 75km/h | 4947m | -1.6m/s | 0°C | 0% | 0hPa | 0V | 00:00:00 | 00:00:00 | 00:00:00 | |
| DL1NUX | 2026-08-31 12:41:49 | 51.48897 | 10.25784 | 54° | 82km/h | 4954m | -1.4m/s | 0°C | 0% | 0hPa | 0V | 00:00:00 | 00:00:00 | 00:00:00 | |
| DF8AY | 2026-08-31 12:41:46 | 51.48897 | 10.25784 | 55° | 82km/h | 4952m | -1.5m/s | -11.2°C | 0% | 0hPa | 4.8V | 00:00:00 | 00:00:00 | 00:00:00 | |
| AM1SDL-15 | 2026-08-31 12:41:43 | 51.48885 | 10.25756 | 58° | 82km/h | 4955m | -1.3m/s | 0°C | 0% | 0hPa | 4.8V | 00:00:00 | 00:00:00 | 00:00:00 | |
| HSKMA3-T | 2026-08-31 12:41:42 | 51.48851 | 10.25668 | 60° | 86km/h | 4958m | -1.6m/s | -11.2°C | 0% | 0hPa | 4.8V | 00:00:00 | 00:00:00 | 00:00:00 | |
| DF8AY | 2026-08-31 12:41:35 | 51.48795 | 10.25489 | 65° | 77km/h | 4968m | -1.6m/s | -11.4°C | 0% | 0hPa | 4.8V | 00:00:00 | 00:00:00 | 00:00:00 | |
| DL1NUX | 2026-08-31 12:41:34 | 51.48795 | 10.25488 | 65° | 77km/h | 4969m | -1.5m/s | 0°C | 0% | 0hPa | 0V | 00:00:00 | 00:00:00 | 00:00:00 | |
| HSKMA3-T | 2026-08-31 12:41:31 | 51.48760 | 10.25384 | 57° | 71km/h | 4974m | -1.5m/s | -11.5°C | 0% | 0hPa | 4.8V | 00:00:00 | 00:00:00 | 00:00:00 | |
| AM1SDL-15 | 2026-08-31 12:41:31 | 51.48769 | 10.25409 | 61° | 80km/h | 4974m | -1.5m/s | 0°C | 0% | 0hPa | 0V | 00:00:00 | 00:00:00 | 00:00:00 | |
| DF2AP-13 | 2026-08-31 12:41:25 | 51.48703 | 10.25254 | 56° | 78km/h | 4982m | -1.5m/s | 0°C | 0% | 0hPa | 0V | 00:00:00 | 00:00:00 | 00:00:00 | |
| DL1NUX | 2026-08-31 12:41:24 | 51.48691 | 10.25226 | 60° | 86km/h | 4984m | -1.6m/s | 0°C | 0% | 0hPa | 0V | 00:00:00 | 00:00:00 | 00:00:00 | |
| SO1NDE-10 | 2026-08-31 12:41:24 | 51.48691 | 10.25226 | 61° | 77km/h | 4984m | -1.6m/s | 0°C | 0% | 0hPa | 4.8V | 00:00:00 | 00:00:00 | 00:00:00 | |
| HSKMA3-T | 2026-08-31 12:41:21 | 51.48650 | 10.25108 | 63° | 80km/h | 4989m | -1.6m/s | -11.5°C | 0% | 0hPa | 4.8V | 00:00:00 | 00:00:00 | 00:00:00 | |
| DF8AY | 2026-08-31 12:41:19 | 51.48582 | 10.24893 | 57° | 69km/h | 5003m | -1.7m/s | -11.8°C | 0% | 0hPa | 4.8V | 00:00:00 | 00:00:00 | 00:00:00 | |
| AM1SDL-15 | 2026-08-31 12:41:19 | 51.48640 | 10.25078 | 65° | 75km/h | 4992m | -1.6m/s | 0°C | 0% | 0hPa | 0V | 00:00:00 | 00:00:00 | 00:00:00 | |
| DL1NUX | 2026-08-31 12:41:16 | 51.48600 | 10.24941 | 62° | 69km/h | 5010m | -1.5m/s | 0°C | 0% | 0hPa | 0V | 00:00:00 | 00:00:00 | 00:00:00 | |
| THATR2-17 | 2026-08-31 12:41:14 | 51.48425 | 10.24450 | 63° | 71km/h | 5028m | 0m/s | 0°C | 0% | 0hPa | 4.8V | 00:00:00 | 00:00:00 | 00:00:00 | |
| HSKMA3-T | 2026-08-31 12:41:11 | 51.48561 | 10.24844 | 54° | 77km/h | 5007m | -1.4m/s | -11.8°C | 0% | 0hPa | 4.8V | 00:00:00 | 00:00:00 | 00:00:00 | |
| AM1SDL-15 | 2026-08-31 12:41:07 | 51.48526 | 10.24763 | 57° | 78km/h | 5014m | -1.6m/s | 0°C | 0% | 0hPa | 0V | 00:00:00 | 00:00:00 | 00:00:00 | |
| DL1NUX | 2026-08-31 12:41:05 | 51.48493 | 10.24672 | 63° | 84km/h | 5018m | -1.6m/s | 0°C | 0% | 0hPa | 0V | 00:00:00 | 00:00:00 | 00:00:00 | |
| DF8AY | 2026-08-31 12:41:02 | 51.48465 | 10.24587 | 65° | 77km/h | 5021m | -1.7m/s | -11.8°C | 0% | 0hPa | 4.8V | 00:00:00 | 00:00:00 | 00:00:00 | |
| HSKMA3-T | 2026-08-31 12:40:59 | 51.48441 | 10.24504 | 65° | 75km/h | 5026m | -1.5m/s | -11.9°C | 0% | 0hPa | 4.8V | 00:00:00 | 00:00:00 | 00:00:00 | |
| DL1NUX | 2026-08-31 12:40:55 | 51.48367 | 10.24300 | 54° | 75km/h | 5040m | -1.6m/s | 0°C | 0% | 0hPa | 0V | 00:00:00 | 00:00:00 | 00:00:00 | |
| AM1SDL-15 | 2026-08-31 12:40:55 | 51.48416 | 10.24424 | 62° | 77km/h | 5031m | -1.4m/s | 0°C | 0% | 0hPa | 4.8V | 00:00:00 | 00:00:00 | 00:00:00 | |
| SO1NDE-10 | 2026-08-31 12:40:53 | 51.48398 | 10.24374 | 57° | 78km/h | 5034m | -1.4m/s | 0°C | 0% | 0hPa | 4.8V | 00:00:00 | 00:00:00 | 00:00:00 | |
| DF8AY | 2026-08-31 12:40:51 | 51.48310 | 10.24163 | 60° | 86km/h | 5046m | -1.6m/s | -12.2°C | 0% | 0hPa | 4.8V | 00:00:00 | 00:00:00 | 00:00:00 | |
| HSKMA3-T | 2026-08-31 12:40:49 | 51.48344 | 10.24249 | 55° | 80km/h | 5041m | -1.6m/s | -12.2°C | 0% | 0hPa | 4.8V | 00:00:00 | 00:00:00 | 00:00:00 | |
| DL1NUX | 2026-08-31 12:40:45 | 51.48266 | 10.24015 | 66° | 73km/h | 5055m | -1.5m/s | 0°C | 0% | 0hPa | 0V | 00:00:00 | 00:00:00 | 00:00:00 | |
| DF8AY | 2026-08-31 12:40:41 | 51.48266 | 10.24015 | 66° | 73km/h | 5054m | -1.6m/s | -12.2°C | 0% | 0hPa | 4.8V | 00:00:00 | 00:00:00 | 00:00:00 | |
| HSKMA3-T | 2026-08-31 12:40:39 | 51.48251 | 10.23964 | 62° | 68km/h | 5057m | -1.6m/s | -12.2°C | 0% | 0hPa | 4.8V | 00:00:00 | 00:00:00 | 00:00:00 | |
| DL1NUX | 2026-08-31 12:40:35 | 51.48167 | 10.23758 | 61° | 84km/h | 5072m | -1.8m/s | 0°C | 0% | 0hPa | 0V | 00:00:00 | 00:00:00 | 00:00:00 | |
| HSKMA3-T | 2026-08-31 12:40:28 | 51.48138 | 10.23667 | 66° | 82km/h | 5076m | -1.7m/s | -12.4°C | 0% | 0hPa | 4.8V | 00:00:00 | 00:00:00 | 00:00:00 | |
| DL1NUX | 2026-08-31 12:40:25 | 51.48083 | 10.23485 | 54° | 69km/h | 5090m | -1.8m/s | 0°C | 0% | 0hPa | 0V | 00:00:00 | 00:00:00 | 00:00:00 | |
| DF2AP-13 | 2026-08-31 12:40:25 | 51.48123 | 10.23606 | 68° | 77km/h | 5081m | -1.7m/s | 0°C | 0% | 0hPa | 4.8V | 00:00:00 | 00:00:00 | 00:00:00 | |
| SO1NDE-10 | 2026-08-31 12:40:23 | 51.48110 | 10.23556 | 65° | 77km/h | 5083m | -1.7m/s | 0°C | 0% | 0hPa | 4.8V | 00:00:00 | 00:00:00 | 00:00:00 | |
| AM1SDL-15 | 2026-08-31 12:40:22 | 51.48101 | 10.23532 | 61° | 71km/h | 5101m | -1.7m/s | 0°C | 0% | 0hPa | 4.8V | 00:00:00 | 00:00:00 | 00:00:00 | |
| HSKMA3-T | 2026-08-31 12:40:17 | 51.48049 | 10.23410 | 56° | 82km/h | 5094m | -1.7m/s | -12.7°C | 0% | 0hPa | 4.8V | 00:00:00 | 00:00:00 | 00:00:00 | |
| DL1NUX | 2026-08-31 12:40:15 | 51.47986 | 10.23209 | 65° | 69km/h | 5108m | -1.8m/s | 0°C | 0% | 0hPa | 0V | 00:00:00 | 00:00:00 | 00:00:00 | |
| AM1SDL-15 | 2026-08-31 12:40:08 | 51.47971 | 10.23160 | 60° | 77km/h | 5110m | -1.8m/s | 0°C | 0% | 0hPa | 4.8V | 00:00:00 | 00:00:00 | 00:00:00 | |
| HSKMA3-T | 2026-08-31 12:40:07 | 51.47952 | 10.23113 | 55° | 71km/h | 5114m | -1.8m/s | -12.9°C | 0% | 0hPa | 4.8V | 00:00:00 | 00:00:00 | 00:00:00 | |
| DF8AY | 2026-08-31 12:40:02 | 51.47898 | 10.22982 | 60° | 80km/h | 5123m | -1.7m/s | -12.9°C | 0% | 0hPa | 4.8V | 00:00:00 | 00:00:00 | 00:00:00 | |
| HSKMA3-T | 2026-08-31 12:39:57 | 51.47851 | 10.22835 | 65° | 80km/h | 5132m | -1.9m/s | -12.9°C | 0% | 0hPa | 4.8V | 00:00:00 | 00:00:00 | 00:00:00 | |
| DL1NUX | 2026-08-31 12:39:55 | 51.47799 | 10.22674 | 59° | 71km/h | 5148m | -1.9m/s | 0°C | 0% | 0hPa | 0V | 00:00:00 | 00:00:00 | 00:00:00 | |
| DF2AP-13 | 2026-08-31 12:39:55 | 51.47842 | 10.22804 | 64° | 75km/h | 5136m | -1.8m/s | 0°C | 0% | 0hPa | 4.8V | 00:00:00 | 00:00:00 | 00:00:00 | |
| AM1SDL-15 | 2026-08-31 12:39:54 | 51.47834 | 10.22777 | 64° | 77km/h | 5140m | -1.7m/s | 0°C | 0% | 0hPa | 4.8V | 00:00:00 | 00:00:00 | 00:00:00 | |
| SO1NDE-10 | 2026-08-31 12:39:53 | 51.47825 | 10.22750 | 61° | 75km/h | 5140m | -1.7m/s | 0°C | 0% | 0hPa | 4.8V | 00:00:00 | 00:00:00 | 00:00:00 | |
| DF8AY | 2026-08-31 12:39:51 | 51.47798 | 10.22674 | 60° | 71km/h | 5144m | -2m/s | -12.9°C | 0% | 0hPa | 4.8V | 00:00:00 | 00:00:00 | 00:00:00 | |
| HSKMA3-T | 2026-08-31 12:39:47 | 51.47763 | 10.22574 | 62° | 71km/h | 5151m | -1.8m/s | -12.9°C | 0% | 0hPa | 4.8V | 00:00:00 | 00:00:00 | 00:00:00 | |
| DL1NUX | 2026-08-31 12:39:45 | 51.47713 | 10.22411 | 63° | 78km/h | 5165m | -2m/s | 0°C | 0% | 0hPa | 0V | 00:00:00 | 00:00:00 | 00:00:00 | |
| DF8AY | 2026-08-31 12:39:39 | 51.47695 | 10.22353 | 63° | 80km/h | 5167m | -2.1m/s | -13.1°C | 0% | 0hPa | 4.8V | 00:00:00 | 00:00:00 | 00:00:00 | |
| HSKMA3-T | 2026-08-31 12:39:36 | 51.47643 | 10.22208 | 58° | 82km/h | 5178m | -2.2m/s | 0°C | 0% | 0hPa | 4.8V | 00:00:00 | 00:00:00 | 00:00:00 | |
| DL1NUX | 2026-08-31 12:39:35 | 51.47610 | 10.22128 | 56° | 75km/h | 5186m | -2m/s | 0°C | 0% | 0hPa | 0V | 00:00:00 | 00:00:00 | 00:00:00 | |
| AM1SDL-15 | 2026-08-31 12:39:35 | 51.47665 | 10.22266 | 60° | 77km/h | 5192m | -2.0m/s | 0°C | 0% | 0hPa | 0V | 00:00:00 | 00:00:00 | 00:00:00 | |
| DL1NUX | 2026-08-31 12:39:25 | 51.47519 | 10.21870 | 65° | 80km/h | 5206m | -2.1m/s | 0°C | 0% | 0hPa | 0V | 00:00:00 | 00:00:00 | 00:00:00 | |
| DF2AP-13 | 2026-08-31 12:39:25 | 51.47563 | 10.22007 | 61° | 77km/h | 5196m | -2.1m/s | 0°C | 0% | 0hPa | 4.8V | 00:00:00 | 00:00:00 | 00:00:00 | |
| DF8AY | 2026-08-31 12:39:23 | 51.47536 | 10.21927 | 63° | 77km/h | 5200m | -2m/s | -13.2°C | 0% | 0hPa | 4.8V | 00:00:00 | 00:00:00 | 00:00:00 | |
| SO1NDE-10 | 2026-08-31 12:39:23 | 51.47545 | 10.21956 | 64° | 82km/h | 5200m | -1.9m/s | 0°C | 0% | 0hPa | 4.8V | 00:00:00 | 00:00:00 | 00:00:00 | |
| TFSTFS | 2026-08-31 12:39:18 | 51.47495 | 10.21783 | 68° | 75km/h | 5211m | -2.2m/s | -13.3°C | 0% | 0hPa | 4.8V | 00:00:00 | 00:00:00 | 00:00:00 | |
| AM1SDL-15 | 2026-08-31 12:39:16 | 51.47488 | 10.21756 | 67° | 73km/h | 5222m | -2.1m/s | 0°C | 0% | 0hPa | 4.8V | 00:00:00 | 00:00:00 | 00:00:00 | |
| DF8AY | 2026-08-31 12:39:11 | 51.47432 | 10.21605 | 56° | 78km/h | 5226m | -2.2m/s | -13.6°C | 0% | 0hPa | 4.8V | 00:00:00 | 00:00:00 | 00:00:00 | |
| AM1SDL-15 | 2026-08-31 12:39:02 | 51.47349 | 10.21371 | 67° | 75km/h | 5248m | -2.1m/s | 0°C | 0% | 0hPa | 4.8V | 00:00:00 | 00:00:00 | 00:00:00 | |
| DF2AP-13 | 2026-08-31 12:38:55 | 51.47290 | 10.21191 | 55° | 78km/h | 5261m | -2.2m/s | 0°C | 0% | 0hPa | 4.8V | 00:00:00 | 00:00:00 | 00:00:00 | |
| DF8AY | 2026-08-31 12:38:53 | 51.47234 | 10.21054 | 59° | 86km/h | 5271m | -2.1m/s | -13.9°C | 0% | 0hPa | 4.8V | 00:00:00 | 00:00:00 | 00:00:00 | |
| DF8AY | 2026-08-31 12:38:40 | 51.47135 | 10.20752 | 56° | 73km/h | 5295m | -2.2m/s | -14.2°C | 0% | 0hPa | 4.8V | 00:00:00 | 00:00:00 | 00:00:00 | |
| AM1SDL-15 | 2026-08-31 12:38:30 | 51.47036 | 10.20498 | 66° | 80km/h | 5348m | -2.2m/s | 0°C | 0% | 0hPa | 4.8V | 00:00:00 | 00:00:00 | 00:00:00 | |
| DF8AY | 2026-08-31 12:38:28 | 51.46964 | 10.20287 | 54° | 78km/h | 5334m | -2.4m/s | -14.6°C | 0% | 0hPa | 4.8V | 00:00:00 | 00:00:00 | 00:00:00 | |
| DF2AP-13 | 2026-08-31 12:38:25 | 51.46995 | 10.20362 | 57° | 80km/h | 5329m | -2.0m/s | 0°C | 0% | 0hPa | 4.8V | 00:00:00 | 00:00:00 | 00:00:00 | |
| AM1SDL-15 | 2026-08-31 12:38:11 | 51.46854 | 10.19971 | 65° | 78km/h | 5390m | -2.2m/s | 0°C | 0% | 0hPa | 4.8V | 00:00:00 | 00:00:00 | 00:00:00 | |
| DF8AY | 2026-08-31 12:38:09 | 51.46784 | 10.19792 | 57° | 82km/h | 5375m | -2.2m/s | -14.9°C | 0% | 0hPa | 4.8V | 00:00:00 | 00:00:00 | 00:00:00 | |
| DF2AP-13 | 2026-08-31 12:37:55 | 51.46697 | 10.19520 | 67° | 82km/h | 5396m | -2.1m/s | 0°C | 0% | 0hPa | 4.8V | 00:00:00 | 00:00:00 | 00:00:00 | |
| DF8AY | 2026-08-31 12:37:51 | 51.46618 | 10.19305 | 57° | 82km/h | 5412m | -2.1m/s | -14.9°C | 0% | 0hPa | 4.8V | 00:00:00 | 00:00:00 | 00:00:00 | |
| AM1SDL-15 | 2026-08-31 12:37:51 | 51.46662 | 10.19413 | 59° | 84km/h | 5422m | -2.0m/s | 0°C | 0% | 0hPa | 4.7V | 00:00:00 | 00:00:00 | 00:00:00 | |
| DF8AY | 2026-08-31 12:37:40 | 51.46533 | 10.19067 | 62° | 86km/h | 5429m | -2.2m/s | -14.9°C | 0% | 0hPa | 4.7V | 00:00:00 | 00:00:00 | 00:00:00 | |
| AM1SDL-15 | 2026-08-31 12:37:34 | 51.46481 | 10.18914 | 60° | 84km/h | 5460m | -2.2m/s | 0°C | 0% | 0hPa | 4.7V | 00:00:00 | 00:00:00 | 00:00:00 | |
| DF8AY | 2026-08-31 12:37:30 | 51.46425 | 10.18767 | 58° | 84km/h | 5451m | -2.1m/s | -15.2°C | 0% | 0hPa | 4.7V | 00:00:00 | 00:00:00 | 00:00:00 | |
| DF2AP-13 | 2026-08-31 12:37:25 | 51.46380 | 10.18653 | 58° | 82km/h | 5462m | -2.1m/s | 0°C | 0% | 0hPa | 4.7V | 00:00:00 | 00:00:00 | 00:00:00 | |
| DF8AY | 2026-08-31 12:37:19 | 51.46302 | 10.18456 | 57° | 82km/h | 5476m | -2.2m/s | -15.4°C | 0% | 0hPa | 4.7V | 00:00:00 | 00:00:00 | 00:00:00 | |
| AM1SDL-15 | 2026-08-31 12:37:19 | 51.46313 | 10.18484 | 58° | 80km/h | 5494m | -2.3m/s | 0°C | 0% | 0hPa | 0V | 00:00:00 | 00:00:00 | 00:00:00 | |
| DL1NUX | 2026-08-31 12:37:09 | 51.46191 | 10.18182 | 57° | 80km/h | 5509m | -2.3m/s | 0°C | 0% | 0hPa | 0V | 00:00:00 | 00:00:00 | 00:00:00 | |
| AM1SDL-15 | 2026-08-31 12:37:02 | 51.46122 | 10.18018 | 55° | 86km/h | 5516m | -2.2m/s | 0°C | 0% | 0hPa | 0V | 00:00:00 | 00:00:00 | 00:00:00 | |
| DL1NUX | 2026-08-31 12:37:01 | 51.46061 | 10.17868 | 60° | 91km/h | 5530m | -2.4m/s | 0°C | 0% | 0hPa | 0V | 00:00:00 | 00:00:00 | 00:00:00 | |
| DF2AP-13 | 2026-08-31 12:36:55 | 51.46040 | 10.17804 | 65° | 84km/h | 5532m | -2.3m/s | 0°C | 0% | 0hPa | 4.7V | 00:00:00 | 00:00:00 | 00:00:00 | |
| DF8AY | 2026-08-31 12:36:51 | 51.45995 | 10.17655 | 61° | 77km/h | 5541m | -2.2m/s | -16.2°C | 0% | 0hPa | 4.7V | 00:00:00 | 00:00:00 | 00:00:00 | |
| AM1SDL-15 | 2026-08-31 12:36:50 | 51.45995 | 10.17655 | 59° | 84km/h | 5544m | -2.3m/s | 0°C | 0% | 0hPa | 0V | 00:00:00 | 00:00:00 | 00:00:00 | |
| DL1NUX | 2026-08-31 12:36:49 | 51.45927 | 10.17495 | 54° | 88km/h | 5556m | -2.5m/s | 0°C | 0% | 0hPa | 0V | 00:00:00 | 00:00:00 | 00:00:00 | |
| SO1NDE-10 | 2026-08-31 12:36:44 | 51.45927 | 10.17495 | 55° | 84km/h | 5556m | -2.4m/s | 0°C | 0% | 0hPa | 4.7V | 00:00:00 | 00:00:00 | 00:00:00 | |
| DF8AY | 2026-08-31 12:36:40 | 51.45860 | 10.17305 | 65° | 86km/h | 5570m | -2.5m/s | -16.3°C | 0% | 0hPa | 4.7V | 00:00:00 | 00:00:00 | 00:00:00 | |
| AM1SDL-15 | 2026-08-31 12:36:38 | 51.45860 | 10.17305 | 65° | 82km/h | 5573m | -2.4m/s | 0°C | 0% | 0hPa | 0V | 00:00:00 | 00:00:00 | 00:00:00 | |
| DL1NUX | 2026-08-31 12:36:35 | 51.45782 | 10.17077 | 56° | 80km/h | 5598m | -2.5m/s | 0°C | 0% | 0hPa | 0V | 00:00:00 | 00:00:00 | 00:00:00 | |
| DF8AY | 2026-08-31 12:36:27 | 51.45733 | 10.16964 | 56° | 89km/h | 5600m | -2.4m/s | -16.7°C | 0% | 0hPa | 4.7V | 00:00:00 | 00:00:00 | 00:00:00 | |
| AM1SDL-15 | 2026-08-31 12:36:26 | 51.45733 | 10.16964 | 56° | 88km/h | 5603m | -2.4m/s | 0°C | 0% | 0hPa | 0V | 00:00:00 | 00:00:00 | 00:00:00 | |
| DF2AP-13 | 2026-08-31 12:36:25 | 51.45720 | 10.16933 | 57° | 86km/h | 5605m | -2.4m/s | 0°C | 0% | 0hPa | 0V | 00:00:00 | 00:00:00 | 00:00:00 | |
| DL1NUX | 2026-08-31 12:36:22 | 51.45638 | 10.16680 | 62° | 78km/h | 5627m | -2.4m/s | 0°C | 0% | 0hPa | 0V | 00:00:00 | 00:00:00 | 00:00:00 | |
| AM1SDL-15 | 2026-08-31 12:36:14 | 51.45607 | 10.16599 | 56° | 89km/h | 5632m | -2.4m/s | 0°C | 0% | 0hPa | 4.7V | 00:00:00 | 00:00:00 | 00:00:00 | |
| DF8AY | 2026-08-31 12:36:12 | 51.45571 | 10.16516 | 55° | 88km/h | 5637m | -2.5m/s | -17°C | 0% | 0hPa | 4.7V | 00:00:00 | 00:00:00 | 00:00:00 | |
| DL1NUX | 2026-08-31 12:36:10 | 51.45499 | 10.16324 | 63° | 91km/h | 5652m | -2.4m/s | 0°C | 0% | 0hPa | 0V | 00:00:00 | 00:00:00 | 00:00:00 | |
| SO1NDE-10 | 2026-08-31 12:36:10 | 51.45558 | 10.16486 | 57° | 88km/h | 5647m | -2.4m/s | 0°C | 0% | 0hPa | 4.7V | 00:00:00 | 00:00:00 | 00:00:00 | |
| EDDB2-12 | 2026-08-31 12:36:09 | 51.45533 | 10.16423 | 59° | 93km/h | 5644m | -2.3m/s | -16.4°C | -1.0% | -1.0hPa | 4.7V | 00:00:00 | 00:00:00 | 00:00:00 | |
| AM1SDL-15 | 2026-08-31 12:36:02 | 51.45470 | 10.16229 | 65° | 84km/h | 5662m | -2.2m/s | 0°C | 0% | 0hPa | 4.7V | 00:00:00 | 00:00:00 | 00:00:00 | |
| DF8AY | 2026-08-31 12:36:00 | 51.45433 | 10.16112 | 61° | 80km/h | 5669m | -2.3m/s | -17.2°C | 0% | 0hPa | 4.7V | 00:00:00 | 00:00:00 | 00:00:00 | |
| DF2AP-13 | 2026-08-31 12:35:55 | 51.45400 | 10.16025 | 58° | 82km/h | 5678m | -2.3m/s | 0°C | 0% | 0hPa | 4.7V | 00:00:00 | 00:00:00 | 00:00:00 | |
| AM1SDL-15 | 2026-08-31 12:35:50 | 51.45340 | 10.15882 | 57° | 82km/h | 5690m | -2.3m/s | 0°C | 0% | 0hPa | 4.7V | 00:00:00 | 00:00:00 | 00:00:00 | |
| DF8AY | 2026-08-31 12:35:43 | 51.45244 | 10.15623 | 60° | 82km/h | 5710m | -2.5m/s | -17.5°C | 0% | 0hPa | 4.7V | 00:00:00 | 00:00:00 | 00:00:00 | |
| AM1SDL-15 | 2026-08-31 12:35:38 | 51.45212 | 10.15537 | 60° | 82km/h | 5720m | -2.5m/s | 0°C | 0% | 0hPa | 4.7V | 00:00:00 | 00:00:00 | 00:00:00 | |
| DF8AY | 2026-08-31 12:35:32 | 51.44999 | 10.14989 | 57° | 93km/h | 5762m | -2.4m/s | -18°C | 0% | 0hPa | 4.7V | 00:00:00 | 00:00:00 | 00:00:00 | |
| DF2AP-13 | 2026-08-31 12:35:25 | 51.45075 | 10.15164 | 56° | 89km/h | 5750m | -2.4m/s | 0°C | 0% | 0hPa | 4.7V | 00:00:00 | 00:00:00 | 00:00:00 | |
| DF8AY | 2026-08-31 12:35:14 | 51.44929 | 10.14790 | 64° | 89km/h | 5776m | -2.4m/s | -18°C | 0% | 0hPa | 4.7V | 00:00:00 | 00:00:00 | 00:00:00 | |
| AM1SDL-15 | 2026-08-31 12:35:14 | 51.44940 | 10.14823 | 64° | 86km/h | 5776m | -2.3m/s | 0°C | 0% | 0hPa | 0V | 00:00:00 | 00:00:00 | 00:00:00 | |
| DL1NUX | 2026-08-31 12:35:08 | 51.44856 | 10.14587 | 54° | 84km/h | 5795m | -2.3m/s | 0°C | 0% | 0hPa | 0V | 00:00:00 | 00:00:00 | 00:00:00 | |
| DF8AY | 2026-08-31 12:35:03 | 51.44804 | 10.14469 | 56° | 93km/h | 5803m | -2.4m/s | -18.3°C | 0% | 0hPa | 4.7V | 00:00:00 | 00:00:00 | 00:00:00 | |
| AM1SDL-15 | 2026-08-31 12:35:02 | 51.44803 | 10.14469 | 56° | 91km/h | 5805m | -2.3m/s | 0°C | 0% | 0hPa | 0V | 00:00:00 | 00:00:00 | 00:00:00 | |
| DL1NUX | 2026-08-31 12:35:01 | 51.44731 | 10.14273 | 62° | 91km/h | 5822m | -2.4m/s | 0°C | 0% | 0hPa | 0V | 00:00:00 | 00:00:00 | 00:00:00 | |
| DF2AP-13 | 2026-08-31 12:34:55 | 51.44721 | 10.14241 | 63° | 88km/h | 5822m | -2.3m/s | 0°C | 0% | 0hPa | 4.7V | 00:00:00 | 00:00:00 | 00:00:00 | |
| AM1SDL-15 | 2026-08-31 12:34:50 | 51.44670 | 10.14093 | 58° | 89km/h | 5834m | -2.3m/s | 0°C | 0% | 0hPa | 4.7V | 00:00:00 | 00:00:00 | 00:00:00 | |
| DF8AY | 2026-08-31 12:34:49 | 51.44647 | 10.14039 | 54° | 82km/h | 5837m | -2.4m/s | -18.6°C | 0% | 0hPa | 4.7V | 00:00:00 | 00:00:00 | 00:00:00 | |
| DL1NUX | 2026-08-31 12:34:48 | 51.44621 | 10.13984 | 52° | 88km/h | 5844m | -2.4m/s | 0°C | 0% | 0hPa | 0V | 00:00:00 | 00:00:00 | 00:00:00 | |
| SO1NDE-10 | 2026-08-31 12:34:43 | 51.44577 | 10.13894 | 56° | 93km/h | 5849m | -2.4m/s | 0°C | 0% | 0hPa | 0V | 00:00:00 | 00:00:00 | 00:00:00 | |
| DL1NUX | 2026-08-31 12:34:41 | 51.44500 | 10.13668 | 62° | 84km/h | 5889m | -2.4m/s | 0°C | 0% | 0hPa | 0V | 00:00:00 | 00:00:00 | 00:00:00 | |
| DF8AY | 2026-08-31 12:34:39 | 51.44520 | 10.13730 | 63° | 89km/h | 5861m | -2.4m/s | -18.7°C | 0% | 0hPa | 4.7V | 00:00:00 | 00:00:00 | 00:00:00 | |
| AM1SDL-15 | 2026-08-31 12:34:38 | 51.44520 | 10.13730 | 63° | 88km/h | 5863m | -2.3m/s | 0°C | 0% | 0hPa | 0V | 00:00:00 | 00:00:00 | 00:00:00 | |
| DL1NUX | 2026-08-31 12:34:28 | 51.44361 | 10.13350 | 58° | 97km/h | 5896m | -2.4m/s | 0°C | 0% | 0hPa | 0V | 00:00:00 | 00:00:00 | 00:00:00 | |
| DF8AY | 2026-08-31 12:34:28 | 51.44388 | 10.13415 | 54° | 97km/h | 5889m | -2.4m/s | -19.1°C | 0% | 0hPa | 4.7V | 00:00:00 | 00:00:00 | 00:00:00 | |
| DF2AP-13 | 2026-08-31 12:34:25 | 51.44361 | 10.13350 | 59° | 88km/h | 5896m | -2.4m/s | 0°C | 0% | 0hPa | 4.7V | 00:00:00 | 00:00:00 | 00:00:00 | |
| DF8AY | 2026-08-31 12:34:17 | 51.44260 | 10.13082 | 52° | 82km/h | 5915m | -2.3m/s | -19.3°C | 0% | 0hPa | 4.7V | 00:00:00 | 00:00:00 | 00:00:00 | |
| SO1NDE-10 | 2026-08-31 12:34:13 | 51.44203 | 10.12999 | 52° | 91km/h | 5923m | -2.3m/s | 0°C | 0% | 0hPa | 0V | 00:00:00 | 00:00:00 | 00:00:00 | |
| DL1NUX | 2026-08-31 12:34:09 | 51.44151 | 10.12837 | 61° | 95km/h | 5937m | -2.4m/s | 0°C | 0% | 0hPa | 0V | 00:00:00 | 00:00:00 | 00:00:00 | |
| DF8AY | 2026-08-31 12:34:07 | 51.43989 | 10.12452 | 57° | 99km/h | 5965m | -2.3m/s | -19.7°C | 0% | 0hPa | 4.7V | 00:00:00 | 00:00:00 | 00:00:00 | |
| SONDE2-11 | 2026-08-31 12:34:06 | 51.44109 | 10.12713 | 59° | 80km/h | 5944m | -2.3m/s | -19.0°C | -1.0% | -1.0hPa | 0V | 00:00:00 | 00:00:00 | 00:00:00 | |
| EDDB2-12 | 2026-08-31 12:34:05 | 51.44109 | 10.12713 | 59° | 80km/h | 5944m | -2.3m/s | -19.0°C | -1.0% | -1.0hPa | 0V | 00:00:00 | 00:00:00 | 00:00:00 | |
| DL1NUX | 2026-08-31 12:33:55 | 51.43964 | 10.12385 | 60° | 93km/h | 5970m | -2.3m/s | 0°C | 0% | 0hPa | 0V | 00:00:00 | 00:00:00 | 00:00:00 | |
| DF2AP-13 | 2026-08-31 12:33:55 | 51.43988 | 10.12452 | 58° | 91km/h | 5967m | -2.3m/s | 0°C | 0% | 0hPa | 4.7V | 00:00:00 | 00:00:00 | 00:00:00 | |
| DF8AY | 2026-08-31 12:33:53 | 51.43942 | 10.12321 | 62° | 88km/h | 5974m | -2.2m/s | -19.7°C | 0% | 0hPa | 4.7V | 00:00:00 | 00:00:00 | 00:00:00 | |
| DL1NUX | 2026-08-31 12:33:42 | 51.43802 | 10.12000 | 56° | 99km/h | 6002m | -2.4m/s | 0°C | 0% | 0hPa | 0V | 00:00:00 | 00:00:00 | 00:00:00 | |
| HSKMA3-T | 2026-08-31 12:33:41 | 51.43802 | 10.12000 | 57° | 99km/h | 6000m | -2.3m/s | -20°C | 0% | 0hPa | 4.7V | 00:00:00 | 00:00:00 | 00:00:00 | |
| SO1NDE-10 | 2026-08-31 12:33:40 | 51.43802 | 10.12000 | 57° | 89km/h | 6002m | -2.3m/s | 0°C | 0% | 0hPa | 0V | 00:00:00 | 00:00:00 | 00:00:00 | |
| DL1NUX | 2026-08-31 12:33:35 | 51.43687 | 10.11693 | 51° | 86km/h | 6026m | -2.2m/s | 0°C | 0% | 0hPa | 0V | 00:00:00 | 00:00:00 | 00:00:00 | |
| AM1SDL-15 | 2026-08-31 12:33:35 | 51.43744 | 10.11834 | 62° | 88km/h | 6014m | -2.3m/s | 0°C | 0% | 0hPa | 4.7V | 00:00:00 | 00:00:00 | 00:00:00 | |
| DF8AY | 2026-08-31 12:33:30 | 51.43674 | 10.11664 | 52° | 88km/h | 6026m | -2.2m/s | -20.2°C | 0% | 0hPa | 4.7V | 00:00:00 | 00:00:00 | 00:00:00 | |
| DL1NUX | 2026-08-31 12:33:25 | 51.43543 | 10.11346 | 62° | 86km/h | 6048m | -2.3m/s | 0°C | 0% | 0hPa | 0V | 00:00:00 | 00:00:00 | 00:00:00 | |
| DF2AP-13 | 2026-08-31 12:33:25 | 51.43616 | 10.11545 | 57° | 89km/h | 6037m | -2.3m/s | 0°C | 0% | 0hPa | 4.6V | 00:00:00 | 00:00:00 | 00:00:00 | |
| DF8AY | 2026-08-31 12:33:15 | 51.43461 | 10.11145 | 52° | 89km/h | 6063m | -2.1m/s | -20.6°C | 0% | 0hPa | 4.6V | 00:00:00 | 00:00:00 | 00:00:00 | |
| DL1NUX | 2026-08-31 12:33:14 | 51.43418 | 10.11055 | 53° | 97km/h | 6072m | -2.2m/s | 0°C | 0% | 0hPa | 0V | 00:00:00 | 00:00:00 | 00:00:00 | |
| SO1NDE-10 | 2026-08-31 12:33:10 | 51.43432 | 10.11086 | 53° | 91km/h | 6070m | -2.1m/s | 0°C | 0% | 0hPa | 0V | 00:00:00 | 00:00:00 | 00:00:00 | |
| DL1NUX | 2026-08-31 12:33:04 | 51.43297 | 10.10734 | 57° | 82km/h | 6094m | -2.2m/s | 0°C | 0% | 0hPa | 0V | 00:00:00 | 00:00:00 | 00:00:00 | |
| SONDE2-11 | 2026-08-31 12:33:04 | 51.43340 | 10.10855 | 61° | 89km/h | 6083m | -2.1m/s | -20.1°C | -1.0% | -1.0hPa | 4.7V | 00:00:00 | 00:00:00 | 00:00:00 | |
| EDDB2-12 | 2026-08-31 12:33:03 | 51.43330 | 10.10823 | 61° | 88km/h | 6085m | -2.2m/s | -20.2°C | -1.0% | -1.0hPa | 4.7V | 00:00:00 | 00:00:00 | 00:00:00 | |
| DF8AY | 2026-08-31 12:33:02 | 51.43233 | 10.10596 | 51° | 91km/h | 6103m | -2.2m/s | -21°C | 0% | 0hPa | 4.7V | 00:00:00 | 00:00:00 | 00:00:00 | |
| DF2AP-13 | 2026-08-31 12:32:55 | 51.43247 | 10.10625 | 52° | 91km/h | 6103m | -2.1m/s | 0°C | 0% | 0hPa | 0V | 00:00:00 | 00:00:00 | 00:00:00 | |
| DL1NUX | 2026-08-31 12:32:54 | 51.43161 | 10.10433 | 61° | 99km/h | 6116m | -2.1m/s | 0°C | 0% | 0hPa | 0V | 00:00:00 | 00:00:00 | 00:00:00 | |
| DF8AY | 2026-08-31 12:32:45 | 51.43082 | 10.10214 | 56° | 82km/h | 6129m | -2.1m/s | -21.1°C | 0% | 0hPa | 4.7V | 00:00:00 | 00:00:00 | 00:00:00 | |
| DL1NUX | 2026-08-31 12:32:40 | 51.43028 | 10.10105 | 51° | 91km/h | 6141m | -2.1m/s | 0°C | 0% | 0hPa | 0V | 00:00:00 | 00:00:00 | 00:00:00 | |
| SO1NDE-10 | 2026-08-31 12:32:40 | 51.43056 | 10.10160 | 51° | 93km/h | 6136m | -2.2m/s | 0°C | 0% | 0hPa | 0V | 00:00:00 | 00:00:00 | 00:00:00 | |
| AM1SDL-15 | 2026-08-31 12:32:39 | 51.43043 | 10.10132 | 51° | 93km/h | 6139m | -2.1m/s | 0°C | 0% | 0hPa | 0V | 00:00:00 | 00:00:00 | 00:00:00 | |
| DL1NUX | 2026-08-31 12:32:28 | 51.42897 | 10.09781 | 60° | 88km/h | 6162m | -2.1m/s | 0°C | 0% | 0hPa | 0V | 00:00:00 | 00:00:00 | 00:00:00 | |
| DF8AY | 2026-08-31 12:32:28 | 51.42886 | 10.09751 | 59° | 86km/h | 6162m | -2.1m/s | -21.2°C | 0% | 0hPa | 4.7V | 00:00:00 | 00:00:00 | 00:00:00 | |
| AM1SDL-15 | 2026-08-31 12:32:27 | 51.42886 | 10.09751 | 59° | 93km/h | 6162m | -2.0m/s | 0°C | 0% | 0hPa | 0V | 00:00:00 | 00:00:00 | 00:00:00 | |
| DF2AP-13 | 2026-08-31 12:32:25 | 51.42863 | 10.09693 | 54° | 95km/h | 6168m | -2.0m/s | 0°C | 0% | 0hPa | 0V | 00:00:00 | 00:00:00 | 00:00:00 | |
| DL1NUX | 2026-08-31 12:32:23 | 51.42763 | 10.09487 | 53° | 100km/h | 6183m | -2.1m/s | 0°C | 0% | 0hPa | 0V | 00:00:00 | 00:00:00 | 00:00:00 | |
| DF8AY | 2026-08-31 12:32:17 | 51.42734 | 10.09421 | 56° | 100km/h | 6185m | -2.2m/s | -21.6°C | 0% | 0hPa | 4.6V | 00:00:00 | 00:00:00 | 00:00:00 | |
| SO1NDE-10 | 2026-08-31 12:32:10 | 51.42660 | 10.09219 | 59° | 93km/h | 6200m | -2.0m/s | 0°C | 0% | 0hPa | 0V | 00:00:00 | 00:00:00 | 00:00:00 | |
| DL1NUX | 2026-08-31 12:32:08 | 51.42638 | 10.09160 | 55° | 86km/h | 6204m | -2m/s | 0°C | 0% | 0hPa | 0V | 00:00:00 | 00:00:00 | 00:00:00 | |
| AM1SDL-15 | 2026-08-31 12:32:08 | 51.42638 | 10.09160 | 54° | 104km/h | 6206m | -2.0m/s | 0°C | 0% | 0hPa | 4.6V | 00:00:00 | 00:00:00 | 00:00:00 | |
| DF8AY | 2026-08-31 12:32:05 | 51.42585 | 10.09046 | 52° | 91km/h | 6210m | -1.9m/s | -21.8°C | 0% | 0hPa | 4.6V | 00:00:00 | 00:00:00 | 00:00:00 | |
| SONDE2-11 | 2026-08-31 12:32:02 | 51.42540 | 10.08955 | 52° | 99km/h | 6216m | -2.0m/s | -21.3°C | -1.0% | -1.0hPa | 0V | 00:00:00 | 00:00:00 | 00:00:00 | |
| DL1NUX | 2026-08-31 12:32:01 | 51.42495 | 10.08855 | 56° | 102km/h | 6228m | -2.1m/s | 0°C | 0% | 0hPa | 0V | 00:00:00 | 00:00:00 | 00:00:00 | |
| DF8AY | 2026-08-31 12:31:55 | 51.42433 | 10.08684 | 61° | 91km/h | 6232m | -2m/s | -21.8°C | 0% | 0hPa | 4.6V | 00:00:00 | 00:00:00 | 00:00:00 | |
| DL1NUX | 2026-08-31 12:31:48 | 51.42360 | 10.08508 | 51° | 89km/h | 6246m | -2m/s | 0°C | 0% | 0hPa | 0V | 00:00:00 | 00:00:00 | 00:00:00 | |
| DF8AY | 2026-08-31 12:31:44 | 51.42299 | 10.08388 | 52° | 100km/h | 6253m | -2.1m/s | -22.1°C | 0% | 0hPa | 4.6V | 00:00:00 | 00:00:00 | 00:00:00 | |
| DL1NUX | 2026-08-31 12:31:41 | 51.42217 | 10.08183 | 61° | 95km/h | 6267m | -2m/s | 0°C | 0% | 0hPa | 0V | 00:00:00 | 00:00:00 | 00:00:00 | |
| SO1NDE-10 | 2026-08-31 12:31:40 | 51.42255 | 10.08286 | 60° | 95km/h | 6261m | -2.0m/s | 0°C | 0% | 0hPa | 4.6V | 00:00:00 | 00:00:00 | 00:00:00 | |
| HSKMA3-T | 2026-08-31 12:31:36 | 51.42194 | 10.08118 | 60° | 89km/h | 6269m | -2m/s | -22.1°C | 0% | 0hPa | 4.6V | 00:00:00 | 00:00:00 | 00:00:00 | |
| DF8AY | 2026-08-31 12:31:34 | 51.42171 | 10.08057 | 56° | 86km/h | 6273m | -2.1m/s | -22.2°C | 0% | 0hPa | 4.6V | 00:00:00 | 00:00:00 | 00:00:00 | |
| DL1NUX | 2026-08-31 12:31:28 | 51.42086 | 10.07884 | 53° | 99km/h | 6288m | -2m/s | 0°C | 0% | 0hPa | 0V | 00:00:00 | 00:00:00 | 00:00:00 | |
| HSKMA3-T | 2026-08-31 12:31:25 | 51.42040 | 10.07783 | 56° | 104km/h | 6292m | -2.1m/s | -22.4°C | 0% | 0hPa | 4.6V | 00:00:00 | 00:00:00 | 00:00:00 | |
| DL1NUX | 2026-08-31 12:31:21 | 51.41953 | 10.07546 | 57° | 88km/h | 6308m | -2.1m/s | 0°C | 0% | 0hPa | 0V | 00:00:00 | 00:00:00 | 00:00:00 | |
| DF8AY | 2026-08-31 12:31:16 | 51.41927 | 10.07488 | 54° | 88km/h | 6310m | -2m/s | -22.5°C | 0% | 0hPa | 4.6V | 00:00:00 | 00:00:00 | 00:00:00 | |
| HSKMA3-T | 2026-08-31 12:31:14 | 51.41900 | 10.07430 | 52° | 91km/h | 6315m | -2m/s | 0°C | 0% | 0hPa | 4.6V | 00:00:00 | 00:00:00 | 00:00:00 | |
| SO1NDE-10 | 2026-08-31 12:31:10 | 51.41854 | 10.07340 | 54° | 99km/h | 6323m | -2.0m/s | 0°C | 0% | 0hPa | 0V | 00:00:00 | 00:00:00 | 00:00:00 | |
| DL1NUX | 2026-08-31 12:31:08 | 51.41808 | 10.07238 | 56° | 104km/h | 6329m | -2m/s | 0°C | 0% | 0hPa | 0V | 00:00:00 | 00:00:00 | 00:00:00 | |
| DF8AY | 2026-08-31 12:31:05 | 51.41767 | 10.07132 | 60° | 99km/h | 6333m | -2m/s | -22.6°C | 0% | 0hPa | 4.6V | 00:00:00 | 00:00:00 | 00:00:00 | |
| DF8AY | 2026-08-31 12:30:55 | 51.41639 | 10.06826 | 51° | 97km/h | 6354m | -2m/s | -22.9°C | 0% | 0hPa | 4.6V | 00:00:00 | 00:00:00 | 00:00:00 | |
| DF8AY | 2026-08-31 12:30:44 | 51.41487 | 10.06457 | 59° | 89km/h | 6376m | -2m/s | -22.9°C | 0% | 0hPa | 4.6V | 00:00:00 | 00:00:00 | 00:00:00 | |
| DL1NUX | 2026-08-31 12:30:41 | 51.41392 | 10.06252 | 50° | 97km/h | 6394m | -2m/s | 0°C | 0% | 0hPa | 0V | 00:00:00 | 00:00:00 | 00:00:00 | |
| DF8AY | 2026-08-31 12:30:34 | 51.41279 | 10.05980 | 61° | 95km/h | 6406m | -1.9m/s | -23.1°C | 0% | 0hPa | 4.6V | 00:00:00 | 00:00:00 | 00:00:00 | |
| DF2AP-13 | 2026-08-31 12:30:25 | 51.41243 | 10.05884 | 58° | 91km/h | 6416m | -2.0m/s | 0°C | 0% | 0hPa | 4.6V | 00:00:00 | 00:00:00 | 00:00:00 | |
| DF8AY | 2026-08-31 12:30:22 | 51.41177 | 10.05738 | 51° | 93km/h | 6422m | -1.9m/s | -23.4°C | 0% | 0hPa | 4.6V | 00:00:00 | 00:00:00 | 00:00:00 | |
| DL1NUX | 2026-08-31 12:30:21 | 51.41131 | 10.05647 | 52° | 99km/h | 6437m | -2m/s | 0°C | 0% | 0hPa | 0V | 00:00:00 | 00:00:00 | 00:00:00 | |
| DF8AY | 2026-08-31 12:30:12 | 51.41044 | 10.05444 | 59° | 100km/h | 6441m | -2.1m/s | -23.3°C | 0% | 0hPa | 4.6V | 00:00:00 | 00:00:00 | 00:00:00 | |
| DL1NUX | 2026-08-31 12:30:09 | 51.40983 | 10.05281 | 57° | 88km/h | 6455m | -2m/s | 0°C | 0% | 0hPa | 0V | 00:00:00 | 00:00:00 | 00:00:00 | |
| DL1NUX | 2026-08-31 12:30:00 | 51.40825 | 10.04949 | 55° | 104km/h | 6477m | -2.2m/s | 0°C | 0% | 0hPa | 0V | 00:00:00 | 00:00:00 | 00:00:00 | |
| DF2AP-13 | 2026-08-31 12:29:55 | 51.40824 | 10.04949 | 56° | 95km/h | 6477m | -2.2m/s | 0°C | 0% | 0hPa | 0V | 00:00:00 | 00:00:00 | 00:00:00 | |
| DL1NUX | 2026-08-31 12:29:48 | 51.40696 | 10.04635 | 50° | 89km/h | 6498m | -2.1m/s | 0°C | 0% | 0hPa | 0V | 00:00:00 | 00:00:00 | 00:00:00 | |
| DF8AY | 2026-08-31 12:29:47 | 51.40696 | 10.04635 | 50° | 89km/h | 6496m | -2.1m/s | -24°C | 0% | 0hPa | 4.6V | 00:00:00 | 00:00:00 | 00:00:00 | |
| SO1NDE-10 | 2026-08-31 12:29:42 | 51.40650 | 10.04547 | 51° | 95km/h | 6505m | -2.1m/s | 0°C | 0% | 0hPa | 0V | 00:00:00 | 00:00:00 | 00:00:00 | |
| DL1NUX | 2026-08-31 12:29:40 | 51.40549 | 10.04307 | 59° | 93km/h | 6520m | -2.1m/s | 0°C | 0% | 0hPa | 0V | 00:00:00 | 00:00:00 | 00:00:00 | |
| DF8AY | 2026-08-31 12:29:36 | 51.40458 | 10.04103 | 50° | 93km/h | 6533m | -2.1m/s | -24.3°C | 0% | 0hPa | 4.6V | 00:00:00 | 00:00:00 | 00:00:00 | |
| DL1NUX | 2026-08-31 12:29:28 | 51.40410 | 10.04011 | 51° | 102km/h | 6542m | -2.2m/s | 0°C | 0% | 0hPa | 0V | 00:00:00 | 00:00:00 | 00:00:00 | |
| DF2AP-13 | 2026-08-31 12:29:25 | 51.40410 | 10.04011 | 52° | 97km/h | 6543m | -2.2m/s | 0°C | 0% | 0hPa | 4.6V | 00:00:00 | 00:00:00 | 00:00:00 | |
| DF8AY | 2026-08-31 12:29:23 | 51.40365 | 10.03908 | 58° | 102km/h | 6547m | -2.2m/s | -24.3°C | 0% | 0hPa | 4.6V | 00:00:00 | 00:00:00 | 00:00:00 | |
| DL1NUX | 2026-08-31 12:29:20 | 51.40279 | 10.03686 | 52° | 88km/h | 6565m | -2.2m/s | 0°C | 0% | 0hPa | 0V | 00:00:00 | 00:00:00 | 00:00:00 | |
| DF8AY | 2026-08-31 12:29:17 | 51.40218 | 10.03569 | 50° | 102km/h | 6572m | -2.2m/s | -24.7°C | 0% | 0hPa | 4.6V | 00:00:00 | 00:00:00 | 00:00:00 | |
| DB0NH | 2026-08-31 12:29:12 | 51.40234 | 10.03600 | 50° | 110km/h | 6572m | -2.2m/s | 0°C | 0% | 0hPa | 0V | 00:00:00 | 00:00:00 | 00:00:00 | |
| DL1NUX | 2026-08-31 12:29:08 | 51.40130 | 10.03362 | 59° | 95km/h | 6588m | -2.2m/s | 0°C | 0% | 0hPa | 0V | 00:00:00 | 00:00:00 | 00:00:00 | |
| DO2JMG | 2026-08-31 12:29:07 | 50.83886 | 8.75814 | 47° | 44km/h | 14274m | -10.2m/s | 0°C | 0% | 0hPa | 4.6V | 00:00:00 | 00:00:00 | 00:00:00 | |
| DF8AY | 2026-08-31 12:29:03 | 51.40082 | 10.03241 | 54° | 86km/h | 6594m | -2.3m/s | -24.7°C | 0% | 0hPa | 4.6V | 00:00:00 | 00:00:00 | 00:00:00 | |
| DL1NUX | 2026-08-31 12:29:00 | 51.39993 | 10.03064 | 52° | 102km/h | 6611m | -2.3m/s | 0°C | 0% | 0hPa | 0V | 00:00:00 | 00:00:00 | 00:00:00 | |
| DF8AY | 2026-08-31 12:28:51 | 51.39910 | 10.02858 | 60° | 93km/h | 6623m | -2.3m/s | -24.9°C | 0% | 0hPa | 4.6V | 00:00:00 | 00:00:00 | 00:00:00 | |
| DL1NUX | 2026-08-31 12:28:48 | 51.39863 | 10.02737 | 54° | 86km/h | 6635m | -2.5m/s | 0°C | 0% | 0hPa | 0V | 00:00:00 | 00:00:00 | 00:00:00 | |
| SO1NDE-10 | 2026-08-31 12:28:42 | 51.39821 | 10.02653 | 50° | 97km/h | 6643m | -2.3m/s | 0°C | 0% | 0hPa | 0V | 00:00:00 | 00:00:00 | 00:00:00 | |
| DL1NUX | 2026-08-31 12:28:40 | 51.39715 | 10.02421 | 60° | 100km/h | 6660m | -2.4m/s | 0°C | 0% | 0hPa | 0V | 00:00:00 | 00:00:00 | 00:00:00 | |
| DF8AY | 2026-08-31 12:28:38 | 51.39743 | 10.02492 | 56° | 104km/h | 6653m | -2.5m/s | -25.2°C | 0% | 0hPa | 4.6V | 00:00:00 | 00:00:00 | 00:00:00 | |
| DL3OBA | 2026-08-31 12:28:34 | 51.39703 | 10.02388 | 62° | 97km/h | 6660m | -2.4m/s | -25.2°C | 0% | 0hPa | 0V | 00:00:00 | 00:00:00 | 00:00:00 | |
| DL1NUX | 2026-08-31 12:28:28 | 51.39582 | 10.02118 | 50° | 99km/h | 6685m | -2.5m/s | 0°C | 0% | 0hPa | 0V | 00:00:00 | 00:00:00 | 00:00:00 | |
| DF8AY | 2026-08-31 12:28:22 | 51.39520 | 10.01986 | 57° | 102km/h | 6693m | -2.4m/s | -25.5°C | 0% | 0hPa | 4.6V | 00:00:00 | 00:00:00 | 00:00:00 | |
| DL1NUX | 2026-08-31 12:28:20 | 51.39446 | 10.01784 | 55° | 88km/h | 6710m | -2.5m/s | 0°C | 0% | 0hPa | 0V | 00:00:00 | 00:00:00 | 00:00:00 | |
| SO1NDE-10 | 2026-08-31 12:28:12 | 51.39407 | 10.01699 | 51° | 99km/h | 6719m | -2.7m/s | 0°C | 0% | 0hPa | 0V | 00:00:00 | 00:00:00 | 00:00:00 | |
| DL1NUX | 2026-08-31 12:28:08 | 51.39299 | 10.01480 | 57° | 104km/h | 6737m | -2.6m/s | 0°C | 0% | 0hPa | 0V | 00:00:00 | 00:00:00 | 00:00:00 | |
| DF8AY | 2026-08-31 12:28:06 | 51.39260 | 10.01377 | 60° | 95km/h | 6742m | -2.5m/s | -25.8°C | 0% | 0hPa | 4.6V | 00:00:00 | 00:00:00 | 00:00:00 | |
| DF2AP-13 | 2026-08-31 12:28:06 | 51.39314 | 10.01515 | 56° | 99km/h | 6735m | -2.6m/s | 0°C | 0% | 0hPa | 0V | 00:00:00 | 00:00:00 | 00:00:00 | |
| DL1NUX | 2026-08-31 12:28:00 | 51.39167 | 10.01165 | 50° | 97km/h | 6764m | -2.5m/s | 0°C | 0% | 0hPa | 0V | 00:00:00 | 00:00:00 | 00:00:00 | |
| DF8AY | 2026-08-31 12:27:56 | 51.39167 | 10.01165 | 51° | 97km/h | 6761m | -2.4m/s | -26.2°C | 0% | 0hPa | 4.6V | 00:00:00 | 00:00:00 | 00:00:00 | |
| DL1NUX | 2026-08-31 12:27:48 | 51.39016 | 10.00818 | 60° | 100km/h | 6792m | -2.9m/s | 0°C | 0% | 0hPa | 0V | 00:00:00 | 00:00:00 | 00:00:00 | |
| SO1NDE-10 | 2026-08-31 12:27:42 | 51.38979 | 10.00719 | 57° | 102km/h | 6800m | -2.6m/s | 0°C | 0% | 0hPa | 0V | 00:00:00 | 00:00:00 | 00:00:00 | |
| DL1NUX | 2026-08-31 12:27:40 | 51.38871 | 10.00500 | 52° | 110km/h | 6823m | -2.9m/s | 0°C | 0% | 0hPa | 0V | 00:00:00 | 00:00:00 | 00:00:00 | |
| DF8AY | 2026-08-31 12:27:38 | 51.38854 | 10.00465 | 54° | 110km/h | 6820m | -2.8m/s | -26.5°C | 0% | 0hPa | 4.6V | 00:00:00 | 00:00:00 | 00:00:00 | |
| DF2AP-13 | 2026-08-31 12:27:36 | 51.38888 | 10.00534 | 51° | 102km/h | 6817m | -2.8m/s | 0°C | 0% | 0hPa | 4.6V | 00:00:00 | 00:00:00 | 00:00:00 | |
| DF8AY | 2026-08-31 12:27:28 | 51.38759 | 10.00219 | 57° | 93km/h | 6840m | -2.8m/s | -26.6°C | 0% | 0hPa | 4.6V | 00:00:00 | 00:00:00 | 00:00:00 | |
| DF8AY | 2026-08-31 12:27:18 | 51.38605 | 9.99891 | 58° | 110km/h | 6869m | -2.9m/s | -26.8°C | 0% | 0hPa | 4.5V | 00:00:00 | 00:00:00 | 00:00:00 | |
| DL3OBA | 2026-08-31 12:27:09 | 51.38503 | 9.99612 | 56° | 93km/h | 6892m | -3.0m/s | -26.9°C | 0% | 0hPa | 4.5V | 00:00:00 | 00:00:00 | 00:00:00 | |
| DF2AP-13 | 2026-08-31 12:27:06 | 51.38459 | 9.99519 | 53° | 104km/h | 6904m | -2.9m/s | 0°C | 0% | 0hPa | 4.5V | 00:00:00 | 00:00:00 | 00:00:00 | |
| DF8AY | 2026-08-31 12:27:05 | 51.38426 | 9.99451 | 53° | 108km/h | 6907m | -2.9m/s | -27.2°C | 0% | 0hPa | 4.5V | 00:00:00 | 00:00:00 | 00:00:00 | |
| DF8AY | 2026-08-31 12:26:54 | 51.38274 | 9.99054 | 56° | 95km/h | 6939m | -2.9m/s | -27.4°C | 0% | 0hPa | 4.5V | 00:00:00 | 00:00:00 | 00:00:00 | |
| DL1NUX | 2026-08-31 12:26:49 | 51.38135 | 9.98743 | 59° | 111km/h | 6968m | -3.1m/s | 0°C | 0% | 0hPa | 0V | 00:00:00 | 00:00:00 | 00:00:00 | |
| DF8AY | 2026-08-31 12:26:42 | 51.38096 | 9.98627 | 63° | 104km/h | 6974m | -3.1m/s | -27.6°C | 0% | 0hPa | 4.5V | 00:00:00 | 00:00:00 | 00:00:00 | |
| DL1NUX | 2026-08-31 12:26:38 | 51.38004 | 9.98395 | 52° | 102km/h | 6998m | -3m/s | 0°C | 0% | 0hPa | 0V | 00:00:00 | 00:00:00 | 00:00:00 | |
| DF2AP-13 | 2026-08-31 12:26:36 | 51.38033 | 9.98458 | 54° | 104km/h | 6992m | -2.9m/s | 0°C | 0% | 0hPa | 4.5V | 00:00:00 | 00:00:00 | 00:00:00 | |
| SO1NDE-10 | 2026-08-31 12:26:33 | 51.37988 | 9.98361 | 53° | 104km/h | 7001m | -3.0m/s | 0°C | 0% | 0hPa | 4.5V | 00:00:00 | 00:00:00 | 00:00:00 | |
| DF8AY | 2026-08-31 12:26:31 | 51.37896 | 9.98141 | 61° | 108km/h | 7016m | -3m/s | -27.9°C | 0% | 0hPa | 4.5V | 00:00:00 | 00:00:00 | 00:00:00 | |
| DL1NUX | 2026-08-31 12:26:28 | 51.37859 | 9.98030 | 62° | 99km/h | 7058m | -2.9m/s | 0°C | 0% | 0hPa | 0V | 00:00:00 | 00:00:00 | 00:00:00 | |
| DL3OBA | 2026-08-31 12:26:26 | 51.37859 | 9.98030 | 63° | 99km/h | 7024m | -2.9m/s | -28.0°C | 0% | 0hPa | 0V | 00:00:00 | 00:00:00 | 00:00:00 | |
| DL1NUX | 2026-08-31 12:26:18 | 51.37701 | 9.97660 | 58° | 110km/h | 7061m | -2.8m/s | 0°C | 0% | 0hPa | 0V | 00:00:00 | 00:00:00 | 00:00:00 | |
| DF8AY | 2026-08-31 12:26:18 | 51.37631 | 9.97472 | 61° | 104km/h | 7072m | -2.9m/s | -28.3°C | 0% | 0hPa | 4.5V | 00:00:00 | 00:00:00 | 00:00:00 | |
| DF8AY | 2026-08-31 12:26:12 | 51.37606 | 9.97401 | 61° | 100km/h | 7078m | -2.9m/s | -28.4°C | 0% | 0hPa | 4.5V | 00:00:00 | 00:00:00 | 00:00:00 | |
| DM0DOS-11 | 2026-08-31 12:26:06 | 51.37555 | 9.97265 | 56° | 97km/h | 7090m | -3m/s | 0°C | 0% | 0hPa | 0V | 00:00:00 | 00:00:00 | 00:00:00 | |
| DF2AP-13 | 2026-08-31 12:26:06 | 51.37606 | 9.97400 | 61° | 100km/h | 7081m | -2.9m/s | 0°C | 0% | 0hPa | 0V | 00:00:00 | 00:00:00 | 00:00:00 | |
| DL1NUX | 2026-08-31 12:26:03 | 51.37569 | 9.97298 | 58° | 97km/h | 7097m | -3m/s | 0°C | 0% | 0hPa | 0V | 00:00:00 | 00:00:00 | 00:00:00 | |
| SO1NDE-10 | 2026-08-31 12:26:03 | 51.37569 | 9.97298 | 59° | 104km/h | 7097m | -3.0m/s | 0°C | 0% | 0hPa | 4.5V | 00:00:00 | 00:00:00 | 00:00:00 | |
| DO2JMG | 2026-08-31 12:25:51 | 51.37390 | 9.96885 | 58° | 111km/h | 7124m | -2.9m/s | -28.8°C | 0% | 0hPa | 4.5V | 00:00:00 | 00:00:00 | 00:00:00 | |
| DL1NUX | 2026-08-31 12:25:51 | 51.37391 | 9.96885 | 59° | 111km/h | 7127m | -3m/s | 0°C | 0% | 0hPa | 0V | 00:00:00 | 00:00:00 | 00:00:00 | |
| DF8AY | 2026-08-31 12:25:47 | 51.37321 | 9.96697 | 60° | 104km/h | 7140m | -2.9m/s | -29.1°C | 0% | 0hPa | 4.5V | 00:00:00 | 00:00:00 | 00:00:00 | |
| DL1NUX | 2026-08-31 12:25:45 | 51.37244 | 9.96489 | 55° | 95km/h | 7161m | -3m/s | 0°C | 0% | 0hPa | 0V | 00:00:00 | 00:00:00 | 00:00:00 | |
| DL3OBA | 2026-08-31 12:25:43 | 51.37269 | 9.96555 | 60° | 97km/h | 7151m | -3.0m/s | -29.3°C | 0% | 0hPa | 4.5V | 00:00:00 | 00:00:00 | 00:00:00 | |
| DO2JMG | 2026-08-31 12:25:40 | 51.37230 | 9.96457 | 56° | 97km/h | 7161m | -3m/s | -29.5°C | 0% | 0hPa | 4.5V | 00:00:00 | 00:00:00 | 00:00:00 | |
| DF8AY | 2026-08-31 12:25:36 | 51.37170 | 9.96326 | 53° | 108km/h | 7173m | -2.8m/s | -29.6°C | 0% | 0hPa | 4.5V | 00:00:00 | 00:00:00 | 00:00:00 | |
| SO1NDE-10 | 2026-08-31 12:25:33 | 51.37137 | 9.96254 | 55° | 113km/h | 7183m | -2.9m/s | 0°C | 0% | 0hPa | 0V | 00:00:00 | 00:00:00 | 00:00:00 | |
| DL1NUX | 2026-08-31 12:25:32 | 51.37090 | 9.96141 | 58° | 111km/h | 7194m | -3m/s | 0°C | 0% | 0hPa | 0V | 00:00:00 | 00:00:00 | 00:00:00 | |
| DO2JMG | 2026-08-31 12:25:29 | 51.37076 | 9.96103 | 60° | 110km/h | 7192m | -2.8m/s | -29.6°C | 0% | 0hPa | 4.5V | 00:00:00 | 00:00:00 | 00:00:00 | |
| DF8AY | 2026-08-31 12:25:23 | 51.36984 | 9.95849 | 58° | 100km/h | 7213m | -3.1m/s | -30°C | 0% | 0hPa | 4.6V | 00:00:00 | 00:00:00 | 00:00:00 | |
| DO2JMG | 2026-08-31 12:25:19 | 51.36928 | 9.95712 | 56° | 104km/h | 7225m | -3m/s | -30.2°C | 0% | 0hPa | 4.5V | 00:00:00 | 00:00:00 | 00:00:00 | |
| DF8AY | 2026-08-31 12:25:12 | 51.36819 | 9.95458 | 55° | 115km/h | 7246m | -3m/s | -30.2°C | 0% | 0hPa | 4.5V | 00:00:00 | 00:00:00 | 00:00:00 | |
| SONCRA | 2026-08-31 12:25:06 | 51.36727 | 9.95219 | 62° | 111km/h | 7265m | -3.0m/s | -30.1°C | -1.0% | -1.0hPa | 4.5V | 00:00:00 | 00:00:00 | 00:00:00 | |
| DF8AY | 2026-08-31 12:25:00 | 51.36648 | 9.94998 | 56° | 104km/h | 7283m | -2.9m/s | -30.3°C | 0% | 0hPa | 4.5V | 00:00:00 | 00:00:00 | 00:00:00 | |
| DF2AP-13 | 2026-08-31 12:24:50 | 51.36490 | 9.94612 | 60° | 113km/h | 7318m | -2.8m/s | 0°C | 0% | 0hPa | 4.5V | 00:00:00 | 00:00:00 | 00:00:00 | |
| DF8AY | 2026-08-31 12:24:47 | 51.36446 | 9.94487 | 62° | 117km/h | 7321m | -2.9m/s | -30.3°C | 0% | 0hPa | 4.5V | 00:00:00 | 00:00:00 | 00:00:00 | |
| DO2JMG | 2026-08-31 12:24:31 | 51.36207 | 9.93865 | 60° | 122km/h | 7368m | -2.9m/s | 0°C | 0% | 0hPa | 4.7V | 00:00:00 | 00:00:00 | 00:00:00 | |
| DL1NUX | 2026-08-31 12:24:26 | 51.36125 | 9.93614 | 62° | 108km/h | 7388m | -2.9m/s | 0°C | 0% | 0hPa | 0V | 00:00:00 | 00:00:00 | 00:00:00 | |
| HSKMA3-T | 2026-08-31 12:24:23 | 51.36112 | 9.93576 | 60° | 106km/h | 7388m | -2.9m/s | -30.7°C | 0% | 0hPa | 4.5V | 00:00:00 | 00:00:00 | 00:00:00 | |
| DF8AY | 2026-08-31 12:24:22 | 51.35950 | 9.93181 | 60° | 124km/h | 7417m | -2.8m/s | -30.8°C | 0% | 0hPa | 4.5V | 00:00:00 | 00:00:00 | 00:00:00 | |
| DL1NUX | 2026-08-31 12:24:19 | 51.35966 | 9.93225 | 58° | 126km/h | 7414m | -2.9m/s | 0°C | 0% | 0hPa | 0V | 00:00:00 | 00:00:00 | 00:00:00 | |
| SO1NDE-10 | 2026-08-31 12:24:17 | 51.36017 | 9.93350 | 56° | 124km/h | 7408m | -2.7m/s | 0°C | 0% | 0hPa | 4.5V | 00:00:00 | 00:00:00 | 00:00:00 | |
| DL3OBA | 2026-08-31 12:24:14 | 51.35966 | 9.93225 | 60° | 126km/h | 7414m | -2.9m/s | -30.8°C | 0% | 0hPa | 4.5V | 00:00:00 | 00:00:00 | 00:00:00 | |
| HSKMA3-T | 2026-08-31 12:24:10 | 51.35893 | 9.93009 | 62° | 115km/h | 7428m | -2.7m/s | -30.7°C | 0% | 0hPa | 4.5V | 00:00:00 | 00:00:00 | 00:00:00 | |
| DF8AY | 2026-08-31 12:24:08 | 51.35865 | 9.92930 | 60° | 110km/h | 7434m | -2.9m/s | -30.8°C | 0% | 0hPa | 4.5V | 00:00:00 | 00:00:00 | 00:00:00 | |
| HSKMA3-T | 2026-08-31 12:23:55 | 51.35666 | 9.92450 | 62° | 122km/h | 7469m | -2.8m/s | -31°C | 0% | 0hPa | 4.5V | 00:00:00 | 00:00:00 | 00:00:00 | |
| DL3OBA | 2026-08-31 12:23:51 | 51.35609 | 9.92285 | 60° | 111km/h | 7480m | -2.8m/s | -31.1°C | 0% | 0hPa | 4.5V | 00:00:00 | 00:00:00 | 00:00:00 | |
| DF8AY | 2026-08-31 12:23:45 | 51.35406 | 9.91802 | 62° | 124km/h | 7515m | -2.8m/s | -31.4°C | 0% | 0hPa | 4.5V | 00:00:00 | 00:00:00 | 00:00:00 | |
| HSKMA3-T | 2026-08-31 12:23:42 | 51.35438 | 9.91891 | 59° | 128km/h | 7509m | -2.8m/s | -31.3°C | 0% | 0hPa | 4.5V | 00:00:00 | 00:00:00 | 00:00:00 | |
| DL1NUX | 2026-08-31 12:23:38 | 51.35364 | 9.91676 | 60° | 113km/h | 7538m | -2.8m/s | 0°C | 0% | 0hPa | 0V | 00:00:00 | 00:00:00 | 00:00:00 | |
| THATR2-17 | 2026-08-31 12:23:37 | 51.35303 | 9.91526 | 53° | 111km/h | 7535m | 0m/s | 0°C | 0% | 0hPa | 0V | 00:00:00 | 00:00:00 | 00:00:00 | |
| DM0DOS-11 | 2026-08-31 12:23:36 | 51.35286 | 9.91488 | 52° | 117km/h | 7538m | -2.8m/s | 0°C | 0% | 0hPa | 0V | 00:00:00 | 00:00:00 | 00:00:00 | |
| SO1NDE-10 | 2026-08-31 12:23:36 | 51.35364 | 9.91676 | 61° | 120km/h | 7538m | -2.7m/s | 0°C | 0% | 0hPa | 4.5V | 00:00:00 | 00:00:00 | 00:00:00 | |
| DB0NH | 2026-08-31 12:23:32 | 51.35303 | 9.91525 | 54° | 122km/h | 7538m | -2.7m/s | 0°C | 0% | 0hPa | 4.5V | 00:00:00 | 00:00:00 | 00:00:00 | |
| HSKMA3-T | 2026-08-31 12:23:31 | 51.35268 | 9.91450 | 53° | 119km/h | 7541m | -2.8m/s | -31.7°C | 0% | 0hPa | 4.5V | 00:00:00 | 00:00:00 | 00:00:00 | |
| DF8AY | 2026-08-31 12:23:29 | 51.35231 | 9.91371 | 54° | 126km/h | 7546m | -2.6m/s | -31.8°C | 0% | 0hPa | 4.5V | 00:00:00 | 00:00:00 | 00:00:00 | |
| DL1NUX | 2026-08-31 12:23:28 | 51.35161 | 9.91199 | 59° | 124km/h | 7560m | -2.8m/s | 0°C | 0% | 0hPa | 0V | 00:00:00 | 00:00:00 | 00:00:00 | |
| DM0DOS-11 | 2026-08-31 12:23:21 | 51.35102 | 9.91030 | 58° | 113km/h | 7594m | -2.6m/s | 0°C | 0% | 0hPa | 0V | 00:00:00 | 00:00:00 | 00:00:00 | |
| HSKMA3-T | 2026-08-31 12:23:20 | 51.35087 | 9.90992 | 59° | 111km/h | 7571m | -2.6m/s | -31.9°C | 0% | 0hPa | 4.5V | 00:00:00 | 00:00:00 | 00:00:00 | |
| DF8AY | 2026-08-31 12:23:18 | 51.35023 | 9.90842 | 53° | 115km/h | 7581m | -2.6m/s | -32.1°C | 0% | 0hPa | 4.5V | 00:00:00 | 00:00:00 | 00:00:00 | |
| DM0DOS-11 | 2026-08-31 12:23:16 | 51.34929 | 9.90648 | 54° | 128km/h | 7602m | -2.7m/s | 0°C | 0% | 0hPa | 0V | 00:00:00 | 00:00:00 | 00:00:00 | |
| DF2AP-13 | 2026-08-31 12:23:14 | 51.35005 | 9.90806 | 52° | 120km/h | 7586m | -2.7m/s | 0°C | 0% | 0hPa | 4.5V | 00:00:00 | 00:00:00 | 00:00:00 | |
| DL3OBA | 2026-08-31 12:23:10 | 51.34929 | 9.90648 | 56° | 128km/h | 7594m | -2.6m/s | -32.2°C | 0% | 0hPa | 4.5V | 00:00:00 | 00:00:00 | 00:00:00 | |
| HSKMA3-T | 2026-08-31 12:23:09 | 51.34910 | 9.90605 | 57° | 130km/h | 7597m | -2.7m/s | -32.2°C | 0% | 0hPa | 4.5V | 00:00:00 | 00:00:00 | 00:00:00 | |
| DL1NUX | 2026-08-31 12:23:08 | 51.34818 | 9.90349 | 59° | 111km/h | 7613m | -2.6m/s | 0°C | 0% | 0hPa | 0V | 00:00:00 | 00:00:00 | 00:00:00 | |
| SO1NDE-10 | 2026-08-31 12:23:06 | 51.34861 | 9.90473 | 62° | 128km/h | 7608m | -2.6m/s | 0°C | 0% | 0hPa | 4.5V | 00:00:00 | 00:00:00 | 00:00:00 | |
| DF8AY | 2026-08-31 12:23:04 | 51.34818 | 9.90349 | 59° | 111km/h | 7613m | -2.6m/s | -32.3°C | 0% | 0hPa | 4.5V | 00:00:00 | 00:00:00 | 00:00:00 | |
| HSKMA3-T | 2026-08-31 12:22:59 | 51.34735 | 9.90162 | 52° | 120km/h | 7626m | -2.5m/s | -32.5°C | 0% | 0hPa | 4.5V | 00:00:00 | 00:00:00 | 00:00:00 | |
| DF8AY | 2026-08-31 12:22:52 | 51.34595 | 9.89823 | 61° | 119km/h | 7647m | -2.5m/s | -32.5°C | 0% | 0hPa | 4.5V | 00:00:00 | 00:00:00 | 00:00:00 | |
| DL3OBA | 2026-08-31 12:22:50 | 51.34595 | 9.89823 | 62° | 119km/h | 7647m | -2.5m/s | -32.5°C | 0% | 0hPa | 4.5V | 00:00:00 | 00:00:00 | 00:00:00 | |
| HSKMA3-T | 2026-08-31 12:22:48 | 51.34551 | 9.89704 | 57° | 110km/h | 7654m | -2.6m/s | -32.6°C | 0% | 0hPa | 4.5V | 00:00:00 | 00:00:00 | 00:00:00 | |
| TFSTFS | 2026-08-31 12:22:45 | 51.34519 | 9.89631 | 55° | 111km/h | 7660m | -2.7m/s | -32.7°C | 0% | 0hPa | 4.5V | 00:00:00 | 00:00:00 | 00:00:00 | |
| DF2AP-13 | 2026-08-31 12:22:44 | 51.34502 | 9.89596 | 52° | 120km/h | 7665m | -2.4m/s | 0°C | 0% | 0hPa | 4.5V | 00:00:00 | 00:00:00 | 00:00:00 | |
| DF8AY | 2026-08-31 12:22:42 | 51.34296 | 9.89104 | 58° | 111km/h | 7693m | -2.4m/s | -32.8°C | 0% | 0hPa | 4.5V | 00:00:00 | 00:00:00 | 00:00:00 | |
| HSKMA3-T | 2026-08-31 12:22:37 | 51.34372 | 9.89312 | 59° | 126km/h | 7681m | -2.5m/s | -32.7°C | 0% | 0hPa | 4.5V | 00:00:00 | 00:00:00 | 00:00:00 | |
| DL1XH-west | 2026-08-31 12:22:35 | 51.34340 | 9.89225 | 60° | 120km/h | 7686m | -2.5m/s | -32.7°C | 0% | 0hPa | 4.5V | 00:00:00 | 00:00:00 | 00:00:00 | |
| DF8AY | 2026-08-31 12:22:31 | 51.33970 | 9.88344 | 55° | 113km/h | 7741m | -2.3m/s | -33°C | 0% | 0hPa | 4.5V | 00:00:00 | 00:00:00 | 00:00:00 | |
| DL3OBA | 2026-08-31 12:22:29 | 51.34247 | 9.88992 | 54° | 113km/h | 7701m | -2.5m/s | -32.8°C | 0% | 0hPa | 4.5V | 00:00:00 | 00:00:00 | 00:00:00 | |
| HSKMA3-T | 2026-08-31 12:22:27 | 51.34193 | 9.88879 | 52° | 122km/h | 7709m | -2.5m/s | -33°C | 0% | 0hPa | 4.5V | 00:00:00 | 00:00:00 | 00:00:00 | |
| DL1XH-west | 2026-08-31 12:22:24 | 51.34136 | 9.88758 | 54° | 128km/h | 7717m | -2.5m/s | -33°C | 0% | 0hPa | 4.7V | 00:00:00 | 00:00:00 | 00:00:00 | |
| DF8AY | 2026-08-31 12:22:20 | 51.33765 | 9.87899 | 59° | 128km/h | 7769m | -2.4m/s | -33.2°C | 0% | 0hPa | 4.5V | 00:00:00 | 00:00:00 | 00:00:00 | |
| DM0DOS-11 | 2026-08-31 12:22:18 | 51.34018 | 9.88460 | 57° | 117km/h | 7736m | -2.3m/s | 0°C | 0% | 0hPa | 0V | 00:00:00 | 00:00:00 | 00:00:00 | |
| HSKMA3-T | 2026-08-31 12:22:16 | 51.34002 | 9.88421 | 58° | 115km/h | 7736m | -2.3m/s | -32.9°C | 0% | 0hPa | 4.5V | 00:00:00 | 00:00:00 | 00:00:00 | |
| DF2AP-13 | 2026-08-31 12:22:14 | 51.33986 | 9.88382 | 57° | 124km/h | 7741m | -2.2m/s | 0°C | 0% | 0hPa | 4.5V | 00:00:00 | 00:00:00 | 00:00:00 | |
| DL3OBA | 2026-08-31 12:22:08 | 51.33879 | 9.88157 | 52° | 126km/h | 7754m | -2.5m/s | -33.4°C | 0% | 0hPa | 4.5V | 00:00:00 | 00:00:00 | 00:00:00 | |
| DF8AY | 2026-08-31 12:22:06 | 51.33701 | 9.87735 | 56° | 113km/h | 7778m | -2.4m/s | -33.3°C | 0% | 0hPa | 4.5V | 00:00:00 | 00:00:00 | 00:00:00 | |
| HSKMA3-T | 2026-08-31 12:22:05 | 51.33800 | 9.87988 | 56° | 133km/h | 7764m | -2.5m/s | -33.4°C | 0% | 0hPa | 4.5V | 00:00:00 | 00:00:00 | 00:00:00 | |
| DO8TBO-1 | 2026-08-31 12:21:58 | 51.33701 | 9.87734 | 56° | 126km/h | 7781m | -2.3m/s | 0°C | 0% | 0hPa | 4.5V | 00:00:00 | 00:00:00 | 00:00:00 | |
| HSKMA3-T | 2026-08-31 12:21:54 | 51.33609 | 9.87547 | 50° | 126km/h | 7791m | -2.4m/s | -33.6°C | 0% | 0hPa | 4.5V | 00:00:00 | 00:00:00 | 00:00:00 | |
| DF8AY | 2026-08-31 12:21:49 | 51.33509 | 9.87336 | 57° | 131km/h | 7803m | -2.3m/s | -33.4°C | 0% | 0hPa | 4.5V | 00:00:00 | 00:00:00 | 00:00:00 | |
| DL3OBA | 2026-08-31 12:21:48 | 51.33509 | 9.87335 | 58° | 131km/h | 7803m | -2.3m/s | -33.5°C | 0% | 0hPa | 4.5V | 00:00:00 | 00:00:00 | 00:00:00 | |
| DF2AP-13 | 2026-08-31 12:21:44 | 51.33442 | 9.87163 | 58° | 126km/h | 7814m | -2.4m/s | 0°C | 0% | 0hPa | 4.5V | 00:00:00 | 00:00:00 | 00:00:00 | |
| HSKMA3-T | 2026-08-31 12:21:43 | 51.33410 | 9.87085 | 55° | 115km/h | 7817m | -2.4m/s | -33.5°C | 0% | 0hPa | 4.5V | 00:00:00 | 00:00:00 | 00:00:00 | |
| DL1XH-west | 2026-08-31 12:21:37 | 51.33314 | 9.86896 | 50° | 130km/h | 7829m | -2.4m/s | -33.7°C | 0% | 0hPa | 4.5V | 00:00:00 | 00:00:00 | 00:00:00 | |
| DF8AY | 2026-08-31 12:21:36 | 51.33180 | 9.86594 | 58° | 122km/h | 7845m | -2.3m/s | -33.6°C | 0% | 0hPa | 4.5V | 00:00:00 | 00:00:00 | 00:00:00 | |
| HSKMA3-T | 2026-08-31 12:21:33 | 51.33214 | 9.86681 | 57° | 131km/h | 7841m | -2.4m/s | -33.6°C | 0% | 0hPa | 4.5V | 00:00:00 | 00:00:00 | 00:00:00 | |
| DO8TBO-1 | 2026-08-31 12:21:28 | 51.33147 | 9.86512 | 54° | 126km/h | 7855m | -2.3m/s | 0°C | 0% | 0hPa | 4.4V | 00:00:00 | 00:00:00 | 00:00:00 | |
| DL3OBA | 2026-08-31 12:21:27 | 51.33130 | 9.86475 | 55° | 115km/h | 7852m | -2.4m/s | -33.7°C | 0% | 0hPa | 4.4V | 00:00:00 | 00:00:00 | 00:00:00 | |
| DL1XH-west | 2026-08-31 12:21:26 | 51.33112 | 9.86438 | 52° | 115km/h | 7855m | -2.3m/s | -33.8°C | 0% | 0hPa | 4.4V | 00:00:00 | 00:00:00 | 00:00:00 | |
| DB0NH | 2026-08-31 12:21:24 | 51.33074 | 9.86364 | 50° | 124km/h | 7860m | -2.3m/s | 0°C | 0% | 0hPa | 4.5V | 00:00:00 | 00:00:00 | 00:00:00 | |
| HSKMA3-T | 2026-08-31 12:21:22 | 51.33012 | 9.86247 | 51° | 131km/h | 7867m | -2.4m/s | -33.9°C | 0% | 0hPa | 4.5V | 00:00:00 | 00:00:00 | 00:00:00 | |
| AM1SDL-15 | 2026-08-31 12:21:20 | 51.32991 | 9.86192 | 58° | 124km/h | 7879m | -2.2m/s | 0°C | 0% | 0hPa | 4.5V | 00:00:00 | 00:00:00 | 00:00:00 | |
| DF2AP-13 | 2026-08-31 12:21:14 | 51.32881 | 9.85942 | 59° | 126km/h | 7885m | -2.3m/s | 0°C | 0% | 0hPa | 4.5V | 00:00:00 | 00:00:00 | 00:00:00 | |
| HSKMA3-T | 2026-08-31 12:21:11 | 51.32814 | 9.85787 | 51° | 117km/h | 7892m | -2.2m/s | -34°C | 0% | 0hPa | 4.5V | 00:00:00 | 00:00:00 | 00:00:00 | |
| DF8AY | 2026-08-31 12:21:08 | 51.32753 | 9.85675 | 49° | 128km/h | 7900m | -2.3m/s | -34.2°C | 0% | 0hPa | 4.5V | 00:00:00 | 00:00:00 | 00:00:00 | |
| DL3OBA | 2026-08-31 12:21:07 | 51.32753 | 9.85675 | 50° | 128km/h | 7900m | -2.3m/s | -34.2°C | 0% | 0hPa | 4.5V | 00:00:00 | 00:00:00 | 00:00:00 | |
| AM1SDL-15 | 2026-08-31 12:21:06 | 51.32732 | 9.85635 | 50° | 124km/h | 7911m | -2.2m/s | 0°C | 0% | 0hPa | 4.5V | 00:00:00 | 00:00:00 | 00:00:00 | |
| DC4HF-4 | 2026-08-31 12:21:03 | 51.32651 | 9.85462 | 56° | 131km/h | 7911m | -2.3m/s | -34.1°C | -1.0% | -1.0hPa | 4.5V | 00:00:00 | 00:00:00 | 00:00:00 | |
| HSKMA3-T | 2026-08-31 12:21:00 | 51.32600 | 9.85333 | 58° | 120km/h | 7917m | -2.2m/s | -34.2°C | 0% | 0hPa | 4.5V | 00:00:00 | 00:00:00 | 00:00:00 | |
| DO8TBO-1 | 2026-08-31 12:20:58 | 51.32584 | 9.85291 | 56° | 126km/h | 7922m | -2.3m/s | 0°C | 0% | 0hPa | 4.5V | 00:00:00 | 00:00:00 | 00:00:00 | |
| AM1SDL-15 | 2026-08-31 12:20:54 | 51.32514 | 9.85143 | 50° | 124km/h | 7932m | -2.5m/s | 0°C | 0% | 0hPa | 4.5V | 00:00:00 | 00:00:00 | 00:00:00 | |
| DB0NH | 2026-08-31 12:20:52 | 51.32473 | 9.85071 | 50° | 128km/h | 7937m | -2.3m/s | 0°C | 0% | 0hPa | 4.5V | 00:00:00 | 00:00:00 | 00:00:00 | |
| HSKMA3-T | 2026-08-31 12:20:50 | 51.32409 | 9.84942 | 53° | 137km/h | 7942m | -2.4m/s | -34.5°C | 0% | 0hPa | 4.5V | 00:00:00 | 00:00:00 | 00:00:00 | |
| DL3OBA | 2026-08-31 12:20:46 | 51.32351 | 9.84808 | 58° | 133km/h | 7949m | -2.4m/s | -34.5°C | 0% | 0hPa | 4.4V | 00:00:00 | 00:00:00 | 00:00:00 | |
| DF8AY | 2026-08-31 12:20:45 | 51.32316 | 9.84720 | 58° | 124km/h | 7954m | -2.3m/s | 0°C | 0% | 0hPa | 4.4V | 00:00:00 | 00:00:00 | 00:00:00 | |
| DF2AP-13 | 2026-08-31 12:20:45 | 51.32316 | 9.84720 | 58° | 128km/h | 7956m | -2.2m/s | 0°C | 0% | 0hPa | 4.4V | 00:00:00 | 00:00:00 | 00:00:00 | |
| HSKMA3-T | 2026-08-31 12:20:39 | 51.32209 | 9.84488 | 49° | 124km/h | 7968m | -2.3m/s | -34.7°C | 0% | 0hPa | 4.4V | 00:00:00 | 00:00:00 | 00:00:00 | |
| EDDB2-12 | 2026-08-31 12:20:39 | 51.32167 | 9.84410 | 49° | 131km/h | 7972m | -2.3m/s | -34.6°C | -1.0% | -1.0hPa | 4.4V | 00:00:00 | 00:00:00 | 00:00:00 | |
| S3001 | 2026-08-31 12:20:37 | 51.32124 | 9.84325 | 52° | 135km/h | 7977m | -84.4m/s | -34.7°C | -1.0% | -1.0hPa | 4.4V | 00:00:00 | 00:00:00 | 00:00:00 | |
| BUE01 | 2026-08-31 12:20:35 | 51.32124 | 9.84325 | 52° | 135km/h | 7977m | -2.5m/s | -34.7°C | -1.0% | -1.0hPa | 4.4V | 00:00:00 | 00:00:00 | 00:00:00 | |
| THATR2-17 | 2026-08-31 12:20:31 | 51.31692 | 9.83356 | 56° | 117km/h | 8031m | 0m/s | 0°C | 0% | 0hPa | 4.4V | 00:00:00 | 00:00:00 | 00:00:00 | |
| HSKMA3-T | 2026-08-31 12:20:28 | 51.31996 | 9.84018 | 57° | 120km/h | 7994m | -2.3m/s | -34.7°C | 0% | 0hPa | 4.4V | 00:00:00 | 00:00:00 | 00:00:00 | |
| DL1XH-west | 2026-08-31 12:20:27 | 51.31979 | 9.83979 | 55° | 119km/h | 7996m | -2.3m/s | -34.7°C | 0% | 0hPa | 4.5V | 00:00:00 | 00:00:00 | 00:00:00 | |
| DL3OBA | 2026-08-31 12:20:26 | 51.31979 | 9.83979 | 56° | 119km/h | 7996m | -2.3m/s | -34.7°C | 0% | 0hPa | 4.5V | 00:00:00 | 00:00:00 | 00:00:00 | |
| HSKMA3-T | 2026-08-31 12:20:17 | 51.31778 | 9.83572 | 57° | 135km/h | 8020m | -2.4m/s | -34.8°C | 0% | 0hPa | 4.5V | 00:00:00 | 00:00:00 | 00:00:00 | |
| DF8AY | 2026-08-31 12:20:14 | 51.31725 | 9.83438 | 58° | 124km/h | 8027m | -2.4m/s | -34.8°C | 0% | 0hPa | 4.5V | 00:00:00 | 00:00:00 | 00:00:00 | |
| DL1XH-west | 2026-08-31 12:20:11 | 51.31658 | 9.83280 | 52° | 117km/h | 8036m | -2.4m/s | -35°C | 0% | 0hPa | 4.5V | 00:00:00 | 00:00:00 | 00:00:00 | |
| HSKMA3-T | 2026-08-31 12:20:07 | 51.31598 | 9.83167 | 49° | 128km/h | 8043m | -2.4m/s | -35°C | 0% | 0hPa | 4.5V | 00:00:00 | 00:00:00 | 00:00:00 | |
| DF8AY | 2026-08-31 12:20:03 | 51.31515 | 9.82998 | 55° | 135km/h | 8053m | -2.3m/s | -35°C | 0% | 0hPa | 4.5V | 00:00:00 | 00:00:00 | 00:00:00 | |
| DL3OBA | 2026-08-31 12:20:03 | 51.31535 | 9.83043 | 54° | 137km/h | 8051m | -2.5m/s | -35.0°C | 0% | 0hPa | 4.5V | 00:00:00 | 00:00:00 | 00:00:00 | |
| DL1XH-west | 2026-08-31 12:20:00 | 51.31460 | 9.82864 | 58° | 128km/h | 8060m | -2.5m/s | -35.1°C | 0% | 0hPa | 4.5V | 00:00:00 | 00:00:00 | 00:00:00 | |
| DB0NH | 2026-08-31 12:19:57 | 51.31426 | 9.82780 | 57° | 122km/h | 8079m | -2.5m/s | 0°C | 0% | 0hPa | 4.5V | 00:00:00 | 00:00:00 | 00:00:00 | |
| HSKMA3-T | 2026-08-31 12:19:55 | 51.31393 | 9.82702 | 54° | 115km/h | 8069m | -2.4m/s | -35.2°C | 0% | 0hPa | 4.5V | 00:00:00 | 00:00:00 | 00:00:00 | |
| DF8AY | 2026-08-31 12:19:52 | 51.31164 | 9.82212 | 58° | 124km/h | 8098m | -2.5m/s | -35.4°C | 0% | 0hPa | 4.5V | 00:00:00 | 00:00:00 | 00:00:00 | |
| DL1XH-west | 2026-08-31 12:19:48 | 51.31236 | 9.82388 | 55° | 135km/h | 8089m | -2.4m/s | -35.4°C | 0% | 0hPa | 4.5V | 00:00:00 | 00:00:00 | 00:00:00 | |
| HSKMA3-T | 2026-08-31 12:19:45 | 51.31181 | 9.82255 | 58° | 128km/h | 8096m | -2.5m/s | -35.4°C | 0% | 0hPa | 4.5V | 00:00:00 | 00:00:00 | 00:00:00 | |
| DF2AP-13 | 2026-08-31 12:19:44 | 51.31181 | 9.82255 | 58° | 124km/h | 8099m | -2.4m/s | 0°C | 0% | 0hPa | 4.5V | 00:00:00 | 00:00:00 | 00:00:00 | |
| DF8AY | 2026-08-31 12:19:43 | 51.31131 | 9.82129 | 57° | 119km/h | 8103m | -2.5m/s | -35.5°C | 0% | 0hPa | 4.5V | 00:00:00 | 00:00:00 | 00:00:00 | |
| DL1XH-west | 2026-08-31 12:19:36 | 51.31004 | 9.81858 | 52° | 124km/h | 8121m | -2.5m/s | -35.8°C | 0% | 0hPa | 4.5V | 00:00:00 | 00:00:00 | 00:00:00 | |
| HSKMA3-T | 2026-08-31 12:19:34 | 51.30985 | 9.81818 | 52° | 126km/h | 8123m | -2.4m/s | -35.8°C | 0% | 0hPa | 4.5V | 00:00:00 | 00:00:00 | 00:00:00 | |
| DF8AY | 2026-08-31 12:19:31 | 51.30925 | 9.81693 | 54° | 133km/h | 8131m | -2.4m/s | -35.8°C | 0% | 0hPa | 4.5V | 00:00:00 | 00:00:00 | 00:00:00 | |
| DB0NH | 2026-08-31 12:19:24 | 51.30813 | 9.81428 | 58° | 128km/h | 8155m | -2.4m/s | 0°C | 0% | 0hPa | 4.5V | 00:00:00 | 00:00:00 | 00:00:00 | |
| HSKMA3-T | 2026-08-31 12:19:23 | 51.30780 | 9.81344 | 57° | 120km/h | 8150m | -2.5m/s | -35.9°C | 0% | 0hPa | 4.5V | 00:00:00 | 00:00:00 | 00:00:00 | |
| DL3OBA | 2026-08-31 12:19:22 | 51.30780 | 9.81344 | 58° | 120km/h | 8150m | -2.5m/s | -35.9°C | 0% | 0hPa | 4.5V | 00:00:00 | 00:00:00 | 00:00:00 | |
| DF8AY | 2026-08-31 12:19:21 | 51.30746 | 9.81264 | 56° | 119km/h | 8155m | -2.5m/s | -36°C | 0% | 0hPa | 4.5V | 00:00:00 | 00:00:00 | 00:00:00 | |
| DF2AP-13 | 2026-08-31 12:19:14 | 51.30638 | 9.81025 | 53° | 130km/h | 8174m | -2.5m/s | 0°C | 0% | 0hPa | 4.5V | 00:00:00 | 00:00:00 | 00:00:00 | |
| HSKMA3-T | 2026-08-31 12:19:13 | 51.30599 | 9.80944 | 52° | 128km/h | 8177m | -2.6m/s | -36.1°C | 0% | 0hPa | 4.5V | 00:00:00 | 00:00:00 | 00:00:00 | |
| DF8AY | 2026-08-31 12:19:10 | 51.30442 | 9.80590 | 60° | 130km/h | 8197m | -2.7m/s | -36.1°C | 0% | 0hPa | 4.5V | 00:00:00 | 00:00:00 | 00:00:00 | |
| DL1XH-15 | 2026-08-31 12:19:08 | 51.30517 | 9.80773 | 57° | 137km/h | 8192m | -2.8m/s | 0°C | 0% | 0hPa | 0V | 00:00:00 | 00:00:00 | 00:00:00 | |
| DL1NUX | 2026-08-31 12:19:08 | 51.30442 | 9.80590 | 59° | 130km/h | 8197m | -2.7m/s | 0°C | 0% | 0hPa | 0V | 00:00:00 | 00:00:00 | 00:00:00 | |
| HSKMA3-T | 2026-08-31 12:19:02 | 51.30394 | 9.80462 | 57° | 119km/h | 8205m | -2.6m/s | -36.2°C | 0% | 0hPa | 4.5V | 00:00:00 | 00:00:00 | 00:00:00 | |
| DF8AY | 2026-08-31 12:19:00 | 51.30360 | 9.80383 | 54° | 119km/h | 8210m | -2.6m/s | -36.2°C | 0% | 0hPa | 4.5V | 00:00:00 | 00:00:00 | 00:00:00 | |
| DL1XH-15 | 2026-08-31 12:18:58 | 51.30323 | 9.80306 | 51° | 124km/h | 8224m | -2.6m/s | 0°C | 0% | 0hPa | 0V | 00:00:00 | 00:00:00 | 00:00:00 | |
| DL1NUX | 2026-08-31 12:18:58 | 51.30242 | 9.80143 | 56° | 133km/h | 8231m | -2.5m/s | 0°C | 0% | 0hPa | 0V | 00:00:00 | 00:00:00 | 00:00:00 | |
| DB0NH | 2026-08-31 12:18:53 | 51.30242 | 9.80142 | 56° | 131km/h | 8229m | -2.4m/s | 0°C | 0% | 0hPa | 4.5V | 00:00:00 | 00:00:00 | 00:00:00 | |
| DL1XH-west | 2026-08-31 12:18:51 | 51.30185 | 9.80005 | 58° | 135km/h | 8234m | -2.5m/s | -36.4°C | 0% | 0hPa | 4.5V | 00:00:00 | 00:00:00 | 00:00:00 | |
| DF8AY | 2026-08-31 12:18:48 | 51.30049 | 9.79657 | 55° | 122km/h | 8254m | -2.7m/s | -36.5°C | 0% | 0hPa | 4.4V | 00:00:00 | 00:00:00 | 00:00:00 | |
| DL1XH-15 | 2026-08-31 12:18:48 | 51.30101 | 9.79780 | 58° | 124km/h | 8247m | -2.5m/s | 0°C | 0% | 0hPa | 0V | 00:00:00 | 00:00:00 | 00:00:00 | |
| DL1NUX | 2026-08-31 12:18:47 | 51.30067 | 9.79697 | 55° | 122km/h | 8257m | -2.6m/s | 0°C | 0% | 0hPa | 0V | 00:00:00 | 00:00:00 | 00:00:00 | |
| SO1NDE-10 | 2026-08-31 12:18:45 | 51.30101 | 9.79779 | 57° | 130km/h | 8249m | -2.7m/s | 0°C | 0% | 0hPa | 4.4V | 00:00:00 | 00:00:00 | 00:00:00 | |
| DL3OBA | 2026-08-31 12:18:41 | 51.30031 | 9.79616 | 55° | 122km/h | 8257m | -2.6m/s | -36.6°C | 0% | 0hPa | 4.4V | 00:00:00 | 00:00:00 | 00:00:00 | |
| DL1XH-west | 2026-08-31 12:18:40 | 51.29993 | 9.79536 | 53° | 126km/h | 8263m | -2.7m/s | -36.7°C | 0% | 0hPa | 4.4V | 00:00:00 | 00:00:00 | 00:00:00 | |
| DL1NUX | 2026-08-31 12:18:38 | 51.29874 | 9.79277 | 56° | 137km/h | 8282m | -2.7m/s | 0°C | 0% | 0hPa | 0V | 00:00:00 | 00:00:00 | 00:00:00 | |
| DF8AY | 2026-08-31 12:18:33 | 51.29855 | 9.79231 | 57° | 137km/h | 8280m | -2.6m/s | -36.9°C | 0% | 0hPa | 4.4V | 00:00:00 | 00:00:00 | 00:00:00 | |
| DL1XH-west | 2026-08-31 12:18:29 | 51.29801 | 9.79090 | 60° | 135km/h | 8287m | -2.8m/s | -36.9°C | 0% | 0hPa | 4.4V | 00:00:00 | 00:00:00 | 00:00:00 | |
| DL1XH-15 | 2026-08-31 12:18:25 | 51.29702 | 9.78842 | 52° | 122km/h | 8314m | -2.9m/s | 0°C | 0% | 0hPa | 0V | 00:00:00 | 00:00:00 | 00:00:00 | |
| DB0NH | 2026-08-31 12:18:23 | 51.29701 | 9.78825 | 56° | 133km/h | 8303m | -2.7m/s | 0°C | 0% | 0hPa | 4.5V | 00:00:00 | 00:00:00 | 00:00:00 | |
| DL3OBA | 2026-08-31 12:18:21 | 51.29665 | 9.78745 | 54° | 124km/h | 8309m | -2.9m/s | -37.1°C | 0% | 0hPa | 4.5V | 00:00:00 | 00:00:00 | 00:00:00 | |
| DL1XH-west | 2026-08-31 12:18:19 | 51.29626 | 9.78664 | 52° | 131km/h | 8314m | -2.9m/s | -37.3°C | 0% | 0hPa | 4.5V | 00:00:00 | 00:00:00 | 00:00:00 | |
| DL1XH-15 | 2026-08-31 12:18:18 | 51.29509 | 9.78389 | 59° | 137km/h | 8342m | -2.9m/s | 0°C | 0% | 0hPa | 0V | 00:00:00 | 00:00:00 | 00:00:00 | |
| DF8AY | 2026-08-31 12:18:17 | 51.29565 | 9.78531 | 56° | 139km/h | 8323m | -2.8m/s | -37.3°C | 0% | 0hPa | 4.4V | 00:00:00 | 00:00:00 | 00:00:00 | |
| SO1NDE-10 | 2026-08-31 12:18:15 | 51.29545 | 9.78485 | 58° | 131km/h | 8331m | -2.8m/s | 0°C | 0% | 0hPa | 4.4V | 00:00:00 | 00:00:00 | 00:00:00 | |
| DF2AP-13 | 2026-08-31 12:18:14 | 51.29527 | 9.78437 | 59° | 133km/h | 8331m | -2.8m/s | 0°C | 0% | 0hPa | 4.4V | 00:00:00 | 00:00:00 | 00:00:00 | |
| DO2JMG | 2026-08-31 12:18:09 | 51.29429 | 9.78161 | 58° | 122km/h | 8345m | -2.8m/s | -37.6°C | 0% | 0hPa | 4.4V | 00:00:00 | 00:00:00 | 00:00:00 | |
| DL1XH-west | 2026-08-31 12:18:08 | 51.29412 | 9.78120 | 56° | 120km/h | 8348m | -2.9m/s | -37.5°C | 0% | 0hPa | 4.5V | 00:00:00 | 00:00:00 | 00:00:00 | |
| DL1XH-15 | 2026-08-31 12:18:07 | 51.29337 | 9.77956 | 52° | 133km/h | 8362m | -2.9m/s | 0°C | 0% | 0hPa | 0V | 00:00:00 | 00:00:00 | 00:00:00 | |
| DF8AY | 2026-08-31 12:18:06 | 51.29296 | 9.77868 | 55° | 139km/h | 8365m | -2.8m/s | -37.6°C | 0% | 0hPa | 4.4V | 00:00:00 | 00:00:00 | 00:00:00 | |
| DL1NUX | 2026-08-31 12:18:05 | 51.29316 | 9.77913 | 53° | 137km/h | 8367m | -2.9m/s | 0°C | 0% | 0hPa | 0V | 00:00:00 | 00:00:00 | 00:00:00 | |
| EDDB2-12 | 2026-08-31 12:18:03 | 51.29296 | 9.77868 | 54° | 137km/h | 8364m | -2.8m/s | -37.6°C | -1.0% | -1.0hPa | 4.4V | 00:00:00 | 00:00:00 | 00:00:00 | |
| DL3OBA | 2026-08-31 12:18:01 | 51.29275 | 9.77822 | 57° | 139km/h | 8367m | -2.9m/s | -37.6°C | 0% | 0hPa | 4.4V | 00:00:00 | 00:00:00 | 00:00:00 | |
| HSKMA3-T | 2026-08-31 12:17:57 | 51.29201 | 9.77635 | 59° | 133km/h | 8378m | -2.9m/s | -37.4°C | 0% | 0hPa | 4.4V | 00:00:00 | 00:00:00 | 00:00:00 | |
| DL1XH-west | 2026-08-31 12:17:55 | 51.29184 | 9.77589 | 59° | 131km/h | 8381m | -2.8m/s | -37.5°C | 0% | 0hPa | 4.4V | 00:00:00 | 00:00:00 | 00:00:00 | |
| DL1XH-15 | 2026-08-31 12:17:51 | 51.29116 | 9.77410 | 55° | 126km/h | 8395m | -2.8m/s | 0°C | 0% | 0hPa | 0V | 00:00:00 | 00:00:00 | 00:00:00 | |
| DF8AY | 2026-08-31 12:17:50 | 51.29081 | 9.77327 | 56° | 126km/h | 8398m | -3m/s | -37.8°C | 0% | 0hPa | 4.4V | 00:00:00 | 00:00:00 | 00:00:00 | |
| HSKMA3-T | 2026-08-31 12:17:46 | 51.29025 | 9.77203 | 53° | 128km/h | 8406m | -2.8m/s | -38°C | 0% | 0hPa | 4.4V | 00:00:00 | 00:00:00 | 00:00:00 | |
| DL1XH-15 | 2026-08-31 12:17:46 | 51.28922 | 9.76988 | 53° | 141km/h | 8427m | -3m/s | 0°C | 0% | 0hPa | 0V | 00:00:00 | 00:00:00 | 00:00:00 | |
| DL1NUX | 2026-08-31 12:17:45 | 51.28901 | 9.76942 | 55° | 141km/h | 8424m | -3m/s | 0°C | 0% | 0hPa | 0V | 00:00:00 | 00:00:00 | 00:00:00 | |
| SO1NDE-10 | 2026-08-31 12:17:45 | 51.29006 | 9.77162 | 53° | 131km/h | 8415m | -3.0m/s | 0°C | 0% | 0hPa | 4.4V | 00:00:00 | 00:00:00 | 00:00:00 | |
| DL1XH-west | 2026-08-31 12:17:44 | 51.28964 | 9.77077 | 52° | 135km/h | 8415m | -3m/s | -38.2°C | 0% | 0hPa | 4.4V | 00:00:00 | 00:00:00 | 00:00:00 | |
| DF2AP-13 | 2026-08-31 12:17:41 | 51.28922 | 9.76988 | 54° | 133km/h | 8424m | -2.9m/s | 0°C | 0% | 0hPa | 4.4V | 00:00:00 | 00:00:00 | 00:00:00 | |
| DO2JMG | 2026-08-31 12:17:40 | 51.28881 | 9.76895 | 57° | 141km/h | 8427m | -3m/s | 0°C | 0% | 0hPa | 4.4V | 00:00:00 | 00:00:00 | 00:00:00 | |
| DF8AY | 2026-08-31 12:17:38 | 51.28844 | 9.76799 | 59° | 137km/h | 8432m | -2.9m/s | -38.1°C | 0% | 0hPa | 4.4V | 00:00:00 | 00:00:00 | 00:00:00 | |
| HSKMA3-T | 2026-08-31 12:17:36 | 51.28809 | 9.76706 | 59° | 131km/h | 8438m | -3m/s | -38.1°C | 0% | 0hPa | 4.4V | 00:00:00 | 00:00:00 | 00:00:00 | |
| DL1XH-15 | 2026-08-31 12:17:35 | 51.28702 | 9.76452 | 51° | 126km/h | 8462m | -3.1m/s | 0°C | 0% | 0hPa | 0V | 00:00:00 | 00:00:00 | 00:00:00 | |
| BIOWL1-15 | 2026-08-31 12:17:35 | 51.28775 | 9.76616 | 58° | 128km/h | 8444m | -2.9m/s | -38.1°C | 0% | 0hPa | 4.4V | 00:00:00 | 00:00:00 | 00:00:00 | |
| DL1XH-west | 2026-08-31 12:17:31 | 51.28662 | 9.76367 | 51° | 131km/h | 8462m | -3.1m/s | -38.4°C | 0% | 0hPa | 4.4V | 00:00:00 | 00:00:00 | 00:00:00 | |
| DF8AY | 2026-08-31 12:17:25 | 51.28534 | 9.76095 | 57° | 142km/h | 8480m | -2.9m/s | -38.4°C | 0% | 0hPa | 4.4V | 00:00:00 | 00:00:00 | 00:00:00 | |
| HSKMA3-T | 2026-08-31 12:17:25 | 51.28597 | 9.76238 | 53° | 142km/h | 8471m | -3m/s | -38.5°C | 0% | 0hPa | 4.4V | 00:00:00 | 00:00:00 | 00:00:00 | |
| DL1XH-15 | 2026-08-31 12:17:22 | 51.28480 | 9.75953 | 58° | 131km/h | 8515m | -3m/s | 0°C | 0% | 0hPa | 0V | 00:00:00 | 00:00:00 | 00:00:00 | |
| DL3OBA | 2026-08-31 12:17:19 | 51.28498 | 9.75999 | 60° | 135km/h | 8485m | -2.8m/s | -38.4°C | 0% | 0hPa | 4.4V | 00:00:00 | 00:00:00 | 00:00:00 | |
| DL1XH-west | 2026-08-31 12:17:18 | 51.28480 | 9.75953 | 59° | 131km/h | 8488m | -2.8m/s | -38.4°C | 0% | 0hPa | 4.4V | 00:00:00 | 00:00:00 | 00:00:00 | |
| DO2JMG | 2026-08-31 12:17:16 | 51.28428 | 9.75825 | 55° | 126km/h | 8497m | -3.1m/s | 0°C | 0% | 0hPa | 4.4V | 00:00:00 | 00:00:00 | 00:00:00 | |
| HSKMA3-T | 2026-08-31 12:17:14 | 51.28389 | 9.75743 | 52° | 130km/h | 8503m | -3m/s | -38.6°C | 0% | 0hPa | 4.4V | 00:00:00 | 00:00:00 | 00:00:00 | |
| DF2AP-13 | 2026-08-31 12:17:11 | 51.28347 | 9.75660 | 51° | 131km/h | 8512m | -3.1m/s | 0°C | 0% | 0hPa | 4.4V | 00:00:00 | 00:00:00 | 00:00:00 | |
| DF8AY | 2026-08-31 12:17:09 | 51.28259 | 9.75480 | 54° | 146km/h | 8521m | -3.2m/s | -38.7°C | 0% | 0hPa | 4.4V | 00:00:00 | 00:00:00 | 00:00:00 | |
| DL1XH-west | 2026-08-31 12:17:08 | 51.28281 | 9.75527 | 53° | 144km/h | 8518m | -3m/s | -38.7°C | 0% | 0hPa | 4.4V | 00:00:00 | 00:00:00 | 00:00:00 | |
| HSKMA3-T | 2026-08-31 12:17:04 | 51.28180 | 9.75287 | 59° | 137km/h | 8533m | -3m/s | -38.6°C | 0% | 0hPa | 4.4V | 00:00:00 | 00:00:00 | 00:00:00 | |
| BIOWL1-15 | 2026-08-31 12:17:01 | 51.28090 | 9.75070 | 53° | 128km/h | 8548m | -3.1m/s | 0°C | 0% | 0hPa | 0V | 00:00:00 | 00:00:00 | 00:00:00 | |
| DL3OBA | 2026-08-31 12:16:59 | 51.28109 | 9.75110 | 55° | 126km/h | 8545m | -3.0m/s | -38.7°C | 0% | 0hPa | 0V | 00:00:00 | 00:00:00 | 00:00:00 | |
| DL1XH-15 | 2026-08-31 12:16:55 | 51.28007 | 9.74901 | 51° | 139km/h | 8573m | -3.1m/s | 0°C | 0% | 0hPa | 0V | 00:00:00 | 00:00:00 | 00:00:00 | |
| HSKMA3-T | 2026-08-31 12:16:47 | 51.27824 | 9.74479 | 58° | 133km/h | 8587m | -3m/s | -39°C | 0% | 0hPa | 4.4V | 00:00:00 | 00:00:00 | 00:00:00 | |
| DL1XH-15 | 2026-08-31 12:16:44 | 51.27789 | 9.74391 | 57° | 128km/h | 8599m | -3m/s | 0°C | 0% | 0hPa | 0V | 00:00:00 | 00:00:00 | 00:00:00 | |
| DF8AY | 2026-08-31 12:16:44 | 51.27673 | 9.74141 | 52° | 137km/h | 8612m | -3.1m/s | -39.1°C | 0% | 0hPa | 4.4V | 00:00:00 | 00:00:00 | 00:00:00 | |
| DL1XH-west | 2026-08-31 12:16:44 | 51.27789 | 9.74391 | 57° | 128km/h | 8593m | -3.1m/s | -39.1°C | 0% | 0hPa | 4.4V | 00:00:00 | 00:00:00 | 00:00:00 | |
| DL3OBA | 2026-08-31 12:16:39 | 51.27694 | 9.74183 | 52° | 133km/h | 8608m | -3.1m/s | -39.1°C | 0% | 0hPa | 0V | 00:00:00 | 00:00:00 | 00:00:00 | |
| DL1XH-15 | 2026-08-31 12:16:38 | 51.27588 | 9.73958 | 56° | 142km/h | 8629m | -3m/s | 0°C | 0% | 0hPa | 0V | 00:00:00 | 00:00:00 | 00:00:00 | |
| HSKMA3-T | 2026-08-31 12:16:36 | 51.27630 | 9.74052 | 53° | 142km/h | 8618m | -3m/s | -39.1°C | 0% | 0hPa | 4.5V | 00:00:00 | 00:00:00 | 00:00:00 | |
| TFSTFS | 2026-08-31 12:16:35 | 51.27630 | 9.74052 | 54° | 142km/h | 8618m | -3.0m/s | -39.1°C | 0% | 0hPa | 4.5V | 00:00:00 | 00:00:00 | 00:00:00 | |
| DL1XH-west | 2026-08-31 12:16:33 | 51.27587 | 9.73959 | 55° | 142km/h | 8623m | -3.1m/s | -39°C | 0% | 0hPa | 4.5V | 00:00:00 | 00:00:00 | 00:00:00 | |
| DF8AY | 2026-08-31 12:16:32 | 51.27547 | 9.73864 | 56° | 141km/h | 8629m | -3m/s | -39°C | 0% | 0hPa | 4.4V | 00:00:00 | 00:00:00 | 00:00:00 | |
| HSKMA3-T | 2026-08-31 12:16:25 | 51.27421 | 9.73545 | 58° | 126km/h | 8650m | -2.9m/s | -39.6°C | 0% | 0hPa | 4.4V | 00:00:00 | 00:00:00 | 00:00:00 | |
| DL1XH-15 | 2026-08-31 12:16:25 | 51.27386 | 9.73461 | 54° | 124km/h | 8658m | -2.9m/s | 0°C | 0% | 0hPa | 0V | 00:00:00 | 00:00:00 | 00:00:00 | |
| DL1XH-west | 2026-08-31 12:16:21 | 51.27348 | 9.73381 | 52° | 126km/h | 8662m | -3.1m/s | -39.7°C | 0% | 0hPa | 4.4V | 00:00:00 | 00:00:00 | 00:00:00 | |
| BIOWL1-15 | 2026-08-31 12:16:18 | 51.27306 | 9.73300 | 51° | 133km/h | 8668m | -3m/s | 0°C | 0% | 0hPa | 0V | 00:00:00 | 00:00:00 | 00:00:00 | |
| DL3OBA | 2026-08-31 12:16:18 | 51.27307 | 9.73300 | 52° | 133km/h | 8668m | -3.0m/s | -39.7°C | 0% | 0hPa | 4.5V | 00:00:00 | 00:00:00 | 00:00:00 | |
| HSKMA3-T | 2026-08-31 12:16:13 | 51.27183 | 9.73026 | 59° | 141km/h | 8686m | -3.1m/s | -39.7°C | 0% | 0hPa | 4.5V | 00:00:00 | 00:00:00 | 00:00:00 | |
| DL1NUX | 2026-08-31 12:16:12 | 51.27114 | 9.72841 | 58° | 124km/h | 17854m | 7m/s | 0°C | 0% | 0hPa | 0V | 00:00:00 | 00:00:00 | 00:00:00 | |
| DL1XH-west | 2026-08-31 12:16:07 | 51.27098 | 9.72799 | 57° | 122km/h | 8701m | -3.1m/s | -39.9°C | 0% | 0hPa | 4.5V | 00:00:00 | 00:00:00 | 00:00:00 | |
| HSKMA3-T | 2026-08-31 12:16:02 | 51.26982 | 9.72556 | 52° | 137km/h | 8720m | -3m/s | -40.1°C | 0% | 0hPa | 4.5V | 00:00:00 | 00:00:00 | 00:00:00 | |
| DL1NUX | 2026-08-31 12:16:02 | 51.26901 | 9.72372 | 58° | 139km/h | 8731m | -3.1m/s | 0°C | 0% | 0hPa | 0V | 00:00:00 | 00:00:00 | 00:00:00 | |
| DL1XH-15 | 2026-08-31 12:16:01 | 51.26982 | 9.72559 | 53° | 137km/h | 8723m | -3m/s | 0°C | 0% | 0hPa | 0V | 00:00:00 | 00:00:00 | 00:00:00 | |
| SO1NDE-10 | 2026-08-31 12:16:01 | 51.26982 | 9.72556 | 52° | 131km/h | 8720m | -3.0m/s | 0°C | 0% | 0hPa | 4.5V | 00:00:00 | 00:00:00 | 00:00:00 | |
| DL1XH-west | 2026-08-31 12:15:57 | 51.26901 | 9.72372 | 58° | 139km/h | 8731m | -3.1m/s | -40°C | 0% | 0hPa | 4.5V | 00:00:00 | 00:00:00 | 00:00:00 | |
| DL1XH-15 | 2026-08-31 12:15:55 | 51.26801 | 9.72105 | 56° | 120km/h | 8755m | -3m/s | 0°C | 0% | 0hPa | 0V | 00:00:00 | 00:00:00 | 00:00:00 | |
| DF8AY | 2026-08-31 12:15:55 | 51.26850 | 9.72233 | 60° | 128km/h | 8740m | -2.9m/s | -40.1°C | 0% | 0hPa | 4.5V | 00:00:00 | 00:00:00 | 00:00:00 | |
| DL1NUX | 2026-08-31 12:15:52 | 51.26727 | 9.71944 | 52° | 128km/h | 8768m | -3m/s | 0°C | 0% | 0hPa | 0V | 00:00:00 | 00:00:00 | 00:00:00 | |
| HSKMA3-T | 2026-08-31 12:15:52 | 51.26801 | 9.72105 | 56° | 120km/h | 8749m | -3.1m/s | -40.2°C | 0% | 0hPa | 4.5V | 00:00:00 | 00:00:00 | 00:00:00 | |
| THATR2-17 | 2026-08-31 12:15:51 | 51.26487 | 9.71370 | 58° | 124km/h | 8800m | 0m/s | 0°C | 0% | 0hPa | 4.7V | 00:00:00 | 00:00:00 | 00:00:00 | |
| DL1XH-west | 2026-08-31 12:15:46 | 51.26686 | 9.71860 | 53° | 133km/h | 8768m | -3m/s | -40.4°C | 0% | 0hPa | 4.7V | 00:00:00 | 00:00:00 | 00:00:00 | |
| DL1NUX | 2026-08-31 12:15:42 | 51.26538 | 9.71497 | 58° | 130km/h | 8803m | -2.9m/s | 0°C | 0% | 0hPa | 0V | 00:00:00 | 00:00:00 | 00:00:00 | |
| HSKMA3-T | 2026-08-31 12:15:41 | 51.26609 | 9.71682 | 57° | 133km/h | 8780m | -3m/s | -40.5°C | 0% | 0hPa | 4.5V | 00:00:00 | 00:00:00 | 00:00:00 | |
| DL1XH-15 | 2026-08-31 12:15:39 | 51.26573 | 9.71591 | 58° | 131km/h | 8792m | -2.9m/s | 0°C | 0% | 0hPa | 0V | 00:00:00 | 00:00:00 | 00:00:00 | |
| DL3OBA | 2026-08-31 12:15:39 | 51.26555 | 9.71546 | 59° | 131km/h | 8789m | -3.0m/s | -40.5°C | 0% | 0hPa | 0V | 00:00:00 | 00:00:00 | 00:00:00 | |
| DL1XH-15 | 2026-08-31 12:15:34 | 51.26404 | 9.71158 | 57° | 126km/h | 8820m | -3m/s | 0°C | 0% | 0hPa | 0V | 00:00:00 | 00:00:00 | 00:00:00 | |
| DL1XH-west | 2026-08-31 12:15:33 | 51.26437 | 9.71243 | 58° | 124km/h | 8809m | -3m/s | -40.5°C | 0% | 0hPa | 4.5V | 00:00:00 | 00:00:00 | 00:00:00 | |
| DL1NUX | 2026-08-31 12:15:32 | 51.26370 | 9.71072 | 57° | 126km/h | 8826m | -2.9m/s | 0°C | 0% | 0hPa | 0V | 00:00:00 | 00:00:00 | 00:00:00 | |
| SO1NDE-10 | 2026-08-31 12:15:31 | 51.26437 | 9.71243 | 58° | 126km/h | 8815m | -3.0m/s | 0°C | 0% | 0hPa | 4.5V | 00:00:00 | 00:00:00 | 00:00:00 | |
| HSKMA3-T | 2026-08-31 12:15:30 | 51.26404 | 9.71157 | 58° | 126km/h | 8815m | -3m/s | -40.7°C | 0% | 0hPa | 4.5V | 00:00:00 | 00:00:00 | 00:00:00 | |
| DF8AY | 2026-08-31 12:15:28 | 51.26319 | 9.70942 | 58° | 126km/h | 8829m | -2.8m/s | -40.7°C | 0% | 0hPa | 4.5V | 00:00:00 | 00:00:00 | 00:00:00 | |
| DL1XH-15 | 2026-08-31 12:15:22 | 51.26220 | 9.70697 | 52° | 117km/h | 8850m | -3.1m/s | 0°C | 0% | 0hPa | 0V | 00:00:00 | 00:00:00 | 00:00:00 | |
| DL1NUX | 2026-08-31 12:15:22 | 51.26203 | 9.70658 | 52° | 119km/h | 8853m | -3.1m/s | 0°C | 0% | 0hPa | 0V | 00:00:00 | 00:00:00 | 00:00:00 | |
| HSKMA3-T | 2026-08-31 12:15:19 | 51.26165 | 9.70581 | 51° | 126km/h | 8856m | -3m/s | -41°C | 0% | 0hPa | 4.5V | 00:00:00 | 00:00:00 | 00:00:00 | |
| DL3OBA | 2026-08-31 12:15:18 | 51.26220 | 9.70697 | 55° | 117km/h | 8847m | -2.9m/s | -40.9°C | 0% | 0hPa | 4.5V | 00:00:00 | 00:00:00 | 00:00:00 | |
| DF8AY | 2026-08-31 12:15:14 | 51.26124 | 9.70499 | 53° | 133km/h | 8862m | -2.9m/s | -41°C | 0% | 0hPa | 4.5V | 00:00:00 | 00:00:00 | 00:00:00 | |
| DO2JMG | 2026-08-31 12:15:12 | 51.26084 | 9.70411 | 56° | 137km/h | 8868m | -2.8m/s | -41.2°C | 0% | 0hPa | 4.4V | 00:00:00 | 00:00:00 | 00:00:00 | |
| DF2AP-13 | 2026-08-31 12:15:11 | 51.26084 | 9.70411 | 58° | 128km/h | 8871m | -2.8m/s | 0°C | 0% | 0hPa | 0V | 00:00:00 | 00:00:00 | 00:00:00 | |
| DL1XH-15 | 2026-08-31 12:15:10 | 51.26030 | 9.70271 | 59° | 133km/h | 8879m | -2.9m/s | 0°C | 0% | 0hPa | 0V | 00:00:00 | 00:00:00 | 00:00:00 | |
| HSKMA3-T | 2026-08-31 12:15:09 | 51.26030 | 9.70271 | 60° | 133km/h | 8876m | -2.9m/s | -40.9°C | 0% | 0hPa | 4.5V | 00:00:00 | 00:00:00 | 00:00:00 | |
| DL1XH-west | 2026-08-31 12:15:03 | 51.25931 | 9.70014 | 54° | 120km/h | 8893m | -2.8m/s | -41.1°C | 0% | 0hPa | 4.5V | 00:00:00 | 00:00:00 | 00:00:00 | |
| DL1NUX | 2026-08-31 12:15:01 | 51.25812 | 9.69772 | 57° | 139km/h | 8916m | -2.7m/s | 0°C | 0% | 0hPa | 0V | 00:00:00 | 00:00:00 | 00:00:00 | |
| HSKMA3-T | 2026-08-31 12:14:58 | 51.25854 | 9.69856 | 51° | 131km/h | 8904m | -2.9m/s | -41.3°C | 0% | 0hPa | 4.4V | 00:00:00 | 00:00:00 | 00:00:00 | |
| DL1XH-15 | 2026-08-31 12:14:58 | 51.25854 | 9.69856 | 51° | 131km/h | 8907m | -2.9m/s | 0°C | 0% | 0hPa | 0V | 00:00:00 | 00:00:00 | 00:00:00 | |
| DL3OBA | 2026-08-31 12:14:58 | 51.25853 | 9.69856 | 52° | 131km/h | 8911m | -2.9m/s | -41.3°C | 0% | 0hPa | 4.5V | 00:00:00 | 00:00:00 | 00:00:00 | |
| DO2JMG | 2026-08-31 12:14:53 | 51.25720 | 9.69536 | 62° | 130km/h | 8924m | -2.9m/s | -41.2°C | 0% | 0hPa | 4.5V | 00:00:00 | 00:00:00 | 00:00:00 | |
| DL1XH-15 | 2026-08-31 12:14:52 | 51.25674 | 9.69404 | 54° | 117km/h | 8936m | -2.9m/s | 0°C | 0% | 0hPa | 0V | 00:00:00 | 00:00:00 | 00:00:00 | |
| TFSTFS | 2026-08-31 12:14:52 | 51.25736 | 9.69583 | 62° | 135km/h | 8921m | -2.9m/s | 0°C | 0% | 0hPa | 4.5V | 00:00:00 | 00:00:00 | 00:00:00 | |
| DL1XH-west | 2026-08-31 12:14:51 | 51.25704 | 9.69490 | 62° | 126km/h | 8927m | -2.9m/s | -41.2°C | 0% | 0hPa | 4.5V | 00:00:00 | 00:00:00 | 00:00:00 | |
| HSKMA3-T | 2026-08-31 12:14:48 | 51.25658 | 9.69365 | 57° | 117km/h | 8936m | -2.9m/s | -41.3°C | 0% | 0hPa | 4.5V | 00:00:00 | 00:00:00 | 00:00:00 | |
| DL1XH-15 | 2026-08-31 12:14:41 | 51.25487 | 9.68986 | 59° | 133km/h | 8973m | -2.8m/s | 0°C | 0% | 0hPa | 0V | 00:00:00 | 00:00:00 | 00:00:00 | |
| DF8AY | 2026-08-31 12:14:41 | 51.25439 | 9.68852 | 60° | 122km/h | 8970m | -2.8m/s | -41.4°C | 0% | 0hPa | 4.5V | 00:00:00 | 00:00:00 | 00:00:00 | |
| DO2JMG | 2026-08-31 12:14:41 | 51.25524 | 9.69078 | 56° | 137km/h | 8956m | -2.8m/s | -41.4°C | 0% | 0hPa | 4.5V | 00:00:00 | 00:00:00 | 00:00:00 | |
| DL1NUX | 2026-08-31 12:14:40 | 51.25439 | 9.68851 | 59° | 122km/h | 8973m | -2.8m/s | 0°C | 0% | 0hPa | 0V | 00:00:00 | 00:00:00 | 00:00:00 | |
| DO8TBO-1 | 2026-08-31 12:14:40 | 51.25523 | 9.69078 | 57° | 124km/h | 8978m | -2.8m/s | 0°C | 0% | 0hPa | 4.5V | 00:00:00 | 00:00:00 | 00:00:00 | |
| HSKMA3-T | 2026-08-31 12:14:38 | 51.25470 | 9.68940 | 60° | 130km/h | 8964m | -2.7m/s | -41.3°C | 0% | 0hPa | 4.5V | 00:00:00 | 00:00:00 | 00:00:00 | |
| DL1XH-15 | 2026-08-31 12:14:31 | 51.25281 | 9.68489 | 53° | 130km/h | 8993m | -2.8m/s | 0°C | 0% | 0hPa | 0V | 00:00:00 | 00:00:00 | 00:00:00 | |
| DB0NH | 2026-08-31 12:14:31 | 51.25375 | 9.68690 | 56° | 124km/h | 8986m | -2.6m/s | 0°C | 0% | 0hPa | 4.5V | 00:00:00 | 00:00:00 | 00:00:00 | |
| DO2JMG | 2026-08-31 12:14:30 | 51.25357 | 9.68651 | 54° | 120km/h | 8983m | -2.7m/s | -41.4°C | 0% | 0hPa | 4.5V | 00:00:00 | 00:00:00 | 00:00:00 | |
| DL1NUX | 2026-08-31 12:14:30 | 51.25262 | 9.68447 | 53° | 130km/h | 9002m | -2.7m/s | 0°C | 0% | 0hPa | 0V | 00:00:00 | 00:00:00 | 00:00:00 | |
| HSKMA3-T | 2026-08-31 12:14:26 | 51.25262 | 9.68447 | 54° | 130km/h | 8996m | -3m/s | -41.7°C | 0% | 0hPa | 4.5V | 00:00:00 | 00:00:00 | 00:00:00 | |
| DL1NUX | 2026-08-31 12:14:21 | 51.25087 | 9.68003 | 60° | 124km/h | 9028m | -2.9m/s | 0°C | 0% | 0hPa | 0V | 00:00:00 | 00:00:00 | 00:00:00 | |
| DO2JMG | 2026-08-31 12:14:19 | 51.25152 | 9.68187 | 59° | 130km/h | 9012m | -2.8m/s | -41.6°C | 0% | 0hPa | 4.4V | 00:00:00 | 00:00:00 | 00:00:00 | |
| DL1XH-15 | 2026-08-31 12:14:18 | 51.25103 | 9.68052 | 61° | 126km/h | 9023m | -2.7m/s | 0°C | 0% | 0hPa | 0V | 00:00:00 | 00:00:00 | 00:00:00 | |
| HSKMA3-T | 2026-08-31 12:14:15 | 51.25073 | 9.67965 | 61° | 120km/h | 9025m | -2.8m/s | -41.8°C | 0% | 0hPa | 4.4V | 00:00:00 | 00:00:00 | 00:00:00 | |
| DF2AP-13 | 2026-08-31 12:14:11 | 51.25028 | 9.67843 | 55° | 124km/h | 9037m | -2.8m/s | 0°C | 0% | 0hPa | 0V | 00:00:00 | 00:00:00 | 00:00:00 | |
| DL1NUX | 2026-08-31 12:14:09 | 51.24900 | 9.67567 | 55° | 130km/h | 9057m | -2.7m/s | 0°C | 0% | 0hPa | 0V | 00:00:00 | 00:00:00 | 00:00:00 | |
| DO2JMG | 2026-08-31 12:14:09 | 51.24977 | 9.67730 | 52° | 120km/h | 9042m | -2.8m/s | -41.9°C | 0% | 0hPa | 4.4V | 00:00:00 | 00:00:00 | 00:00:00 | |
| DL1XH-15 | 2026-08-31 12:14:06 | 51.24939 | 9.67651 | 52° | 126km/h | 9054m | -2.8m/s | 0°C | 0% | 0hPa | 0V | 00:00:00 | 00:00:00 | 00:00:00 | |
| HSKMA3-T | 2026-08-31 12:14:05 | 51.24900 | 9.67567 | 55° | 130km/h | 9054m | -2.9m/s | -41.8°C | 0% | 0hPa | 4.4V | 00:00:00 | 00:00:00 | 00:00:00 | |
| TFSTFS | 2026-08-31 12:14:02 | 51.24864 | 9.67480 | 59° | 130km/h | 9059m | -2.7m/s | 0°C | 0% | 0hPa | 0V | 00:00:00 | 00:00:00 | 00:00:00 | |
| DL1XH-15 | 2026-08-31 12:14:01 | 51.24770 | 9.67214 | 56° | 117km/h | 9081m | -2.8m/s | 0°C | 0% | 0hPa | 0V | 00:00:00 | 00:00:00 | 00:00:00 | |
| SO1NDE-10 | 2026-08-31 12:14:00 | 51.24830 | 9.67386 | 62° | 124km/h | 9070m | -2.9m/s | 0°C | 0% | 0hPa | 0V | 00:00:00 | 00:00:00 | 00:00:00 | |
| DL1NUX | 2026-08-31 12:13:59 | 51.24739 | 9.67137 | 53° | 115km/h | 9087m | -2.7m/s | 0°C | 0% | 0hPa | 0V | 00:00:00 | 00:00:00 | 00:00:00 | |
| DO2JMG | 2026-08-31 12:13:59 | 51.24800 | 9.67302 | 62° | 122km/h | 9070m | -2.9m/s | -42°C | 0% | 0hPa | 4.5V | 00:00:00 | 00:00:00 | 00:00:00 | |
| DB0NH | 2026-08-31 12:13:56 | 51.24770 | 9.67214 | 57° | 124km/h | 9081m | -2.7m/s | 0°C | 0% | 0hPa | 4.5V | 00:00:00 | 00:00:00 | 00:00:00 | |
| DL1XH-west | 2026-08-31 12:13:54 | 51.24739 | 9.67137 | 56° | 115km/h | 9081m | -2.8m/s | -42°C | 0% | 0hPa | 4.5V | 00:00:00 | 00:00:00 | 00:00:00 | |
| HSKMA3-T | 2026-08-31 12:13:54 | 51.24723 | 9.67099 | 55° | 117km/h | 9084m | -2.7m/s | -42°C | 0% | 0hPa | 4.5V | 00:00:00 | 00:00:00 | 00:00:00 | |
| DL1NUX | 2026-08-31 12:13:50 | 51.24553 | 9.66729 | 58° | 133km/h | 9114m | -2.9m/s | 0°C | 0% | 0hPa | 0V | 00:00:00 | 00:00:00 | 00:00:00 | |
| DL1XH-15 | 2026-08-31 12:13:49 | 51.24571 | 9.66774 | 58° | 133km/h | 9109m | -2.9m/s | 0°C | 0% | 0hPa | 0V | 00:00:00 | 00:00:00 | 00:00:00 | |
| DO2JMG | 2026-08-31 12:13:47 | 51.24609 | 9.66863 | 54° | 131km/h | 9100m | -2.8m/s | -42.4°C | 0% | 0hPa | 4.5V | 00:00:00 | 00:00:00 | 00:00:00 | |
| DL3OBA | 2026-08-31 12:13:44 | 51.24553 | 9.66729 | 60° | 133km/h | 9109m | -2.9m/s | -42.4°C | 0% | 0hPa | 4.5V | 00:00:00 | 00:00:00 | 00:00:00 | |
| DF8AY | 2026-08-31 12:13:43 | 51.24519 | 9.66637 | 61° | 130km/h | 9114m | -2.9m/s | -42.4°C | 0% | 0hPa | 4.5V | 00:00:00 | 00:00:00 | 00:00:00 | |
| DF2AP-13 | 2026-08-31 12:13:41 | 51.24504 | 9.66591 | 62° | 122km/h | 9120m | -2.7m/s | 0°C | 0% | 0hPa | 0V | 00:00:00 | 00:00:00 | 00:00:00 | |
| DL1NUX | 2026-08-31 12:13:38 | 51.24374 | 9.66278 | 52° | 126km/h | 9145m | -2.7m/s | 0°C | 0% | 0hPa | 0V | 00:00:00 | 00:00:00 | 00:00:00 | |
| DO2JMG | 2026-08-31 12:13:38 | 51.24444 | 9.66429 | 57° | 113km/h | 9128m | -2.8m/s | -42.5°C | 0% | 0hPa | 4.7V | 00:00:00 | 00:00:00 | 00:00:00 | |
| DO8TBO-1 | 2026-08-31 12:13:37 | 51.24444 | 9.66443 | 53° | 126km/h | 9140m | -2.7m/s | 0°C | 0% | 0hPa | 4.5V | 00:00:00 | 00:00:00 | 00:00:00 | |
| DL1XH-west | 2026-08-31 12:13:36 | 51.24428 | 9.66392 | 55° | 113km/h | 9134m | -2.9m/s | -42.5°C | 0% | 0hPa | 4.5V | 00:00:00 | 00:00:00 | 00:00:00 | |
| DL1CLM-18 | 2026-08-31 12:13:31 | 51.24335 | 9.66195 | 55° | 131km/h | 9145m | -2.7m/s | -42.6°C | 0% | 0hPa | 4.5V | 00:00:00 | 00:00:00 | 00:00:00 | |
| DF8AY | 2026-08-31 12:13:30 | 51.24296 | 9.66107 | 56° | 133km/h | 9151m | -2.9m/s | -42.5°C | 0% | 0hPa | 4.5V | 00:00:00 | 00:00:00 | 00:00:00 | |
| HSKMA3-T | 2026-08-31 12:13:29 | 51.24260 | 9.66017 | 58° | 130km/h | 9156m | -2.6m/s | -42.3°C | 0% | 0hPa | 4.5V | 00:00:00 | 00:00:00 | 00:00:00 | |
| DL1NUX | 2026-08-31 12:13:27 | 51.24181 | 9.65805 | 58° | 115km/h | 9186m | -2.8m/s | 0°C | 0% | 0hPa | 0V | 00:00:00 | 00:00:00 | 00:00:00 | |
| DL1XH-west | 2026-08-31 12:13:26 | 51.24243 | 9.65973 | 59° | 126km/h | 9159m | -2.6m/s | -42.4°C | 0% | 0hPa | 4.5V | 00:00:00 | 00:00:00 | 00:00:00 | |
| DB0NH | 2026-08-31 12:13:25 | 51.24227 | 9.65929 | 60° | 122km/h | 9169m | -2.6m/s | 0°C | 0% | 0hPa | 4.5V | 00:00:00 | 00:00:00 | 00:00:00 | |
| DL3OBA | 2026-08-31 12:13:23 | 51.24181 | 9.65805 | 60° | 115km/h | 9169m | -2.6m/s | -42.7°C | 0% | 0hPa | 4.5V | 00:00:00 | 00:00:00 | 00:00:00 | |
| DO2JMG | 2026-08-31 12:13:21 | 51.24166 | 9.65766 | 57° | 113km/h | 9172m | -2.7m/s | -42.7°C | 0% | 0hPa | 4.5V | 00:00:00 | 00:00:00 | 00:00:00 | |
| DF8AY | 2026-08-31 12:13:19 | 51.24116 | 9.65654 | 52° | 115km/h | 9181m | -2.7m/s | -42.9°C | 0% | 0hPa | 4.5V | 00:00:00 | 00:00:00 | 00:00:00 | |
| DL1XH-15 | 2026-08-31 12:13:19 | 51.24117 | 9.65654 | 52° | 115km/h | 9186m | -2.8m/s | 0°C | 0% | 0hPa | 0V | 00:00:00 | 00:00:00 | 00:00:00 | |
| HSKMA3-T | 2026-08-31 12:13:18 | 51.24079 | 9.65580 | 51° | 122km/h | 9186m | -2.8m/s | -43°C | 0% | 0hPa | 4.5V | 00:00:00 | 00:00:00 | 00:00:00 | |
| DL1XH-west | 2026-08-31 12:13:13 | 51.23998 | 9.65415 | 55° | 133km/h | 9197m | -2.7m/s | -42.9°C | 0% | 0hPa | 4.5V | 00:00:00 | 00:00:00 | 00:00:00 | |
| DF2AP-13 | 2026-08-31 12:13:11 | 51.23979 | 9.65370 | 59° | 122km/h | 9202m | -2.7m/s | 0°C | 0% | 0hPa | 4.5V | 00:00:00 | 00:00:00 | 00:00:00 | |
| DO2JMG | 2026-08-31 12:13:10 | 51.23961 | 9.65326 | 58° | 130km/h | 9202m | -2.8m/s | -42.7°C | 0% | 0hPa | 4.5V | 00:00:00 | 00:00:00 | 00:00:00 | |
| DL1XH-15 | 2026-08-31 12:13:09 | 51.23912 | 9.65196 | 60° | 120km/h | 9211m | -2.9m/s | 0°C | 0% | 0hPa | 0V | 00:00:00 | 00:00:00 | 00:00:00 | |
| HSKMA3-T | 2026-08-31 12:13:06 | 51.23867 | 9.65076 | 56° | 113km/h | 9217m | -2.8m/s | -43°C | 0% | 0hPa | 4.5V | 00:00:00 | 00:00:00 | 00:00:00 | |
| TFSTFS | 2026-08-31 12:13:06 | 51.23882 | 9.65115 | 59° | 113km/h | 9214m | -2.8m/s | -43.0°C | 0% | 0hPa | 0V | 00:00:00 | 00:00:00 | 00:00:00 | |
| DO8TBO-1 | 2026-08-31 12:13:05 | 51.23882 | 9.65115 | 59° | 122km/h | 9220m | -2.8m/s | 0°C | 0% | 0hPa | 0V | 00:00:00 | 00:00:00 | 00:00:00 | |
| DL1NUX | 2026-08-31 12:13:02 | 51.23775 | 9.64890 | 51° | 126km/h | 9236m | -2.8m/s | 0°C | 0% | 0hPa | 0V | 00:00:00 | 00:00:00 | 00:00:00 | |
| DL1XH-15 | 2026-08-31 12:12:59 | 51.23735 | 9.64808 | 53° | 131km/h | 9242m | -2.6m/s | 0°C | 0% | 0hPa | 0V | 00:00:00 | 00:00:00 | 00:00:00 | |
| DL3OBA | 2026-08-31 12:12:59 | 51.23734 | 9.64808 | 55° | 131km/h | 9236m | -2.8m/s | 0°C | 0% | 0hPa | 4.5V | 00:00:00 | 00:00:00 | 00:00:00 | |
| DL1XH-west | 2026-08-31 12:12:58 | 51.23735 | 9.64808 | 54° | 131km/h | 9236m | -2.8m/s | -43.2°C | 0% | 0hPa | 4.5V | 00:00:00 | 00:00:00 | 00:00:00 | |
| DO2JMG | 2026-08-31 12:12:56 | 51.23696 | 9.64720 | 57° | 133km/h | 9242m | -2.6m/s | -43.1°C | 0% | 0hPa | 4.5V | 00:00:00 | 00:00:00 | 00:00:00 | |
| DB0NH | 2026-08-31 12:12:55 | 51.23696 | 9.64720 | 57° | 124km/h | 9247m | -2.8m/s | 0°C | 0% | 0hPa | 0V | 00:00:00 | 00:00:00 | 00:00:00 | |
| SO1NDE-10 | 2026-08-31 12:12:54 | 51.23679 | 9.64675 | 59° | 128km/h | 9247m | -2.8m/s | 0°C | 0% | 0hPa | 0V | 00:00:00 | 00:00:00 | 00:00:00 | |
| DL1NUX | 2026-08-31 12:12:52 | 51.23601 | 9.64462 | 58° | 113km/h | 9258m | -2.8m/s | 0°C | 0% | 0hPa | 0V | 00:00:00 | 00:00:00 | 00:00:00 | |
| DL1XH-15 | 2026-08-31 12:12:48 | 51.23569 | 9.64392 | 50° | 113km/h | 9269m | -2.7m/s | 0°C | 0% | 0hPa | 0V | 00:00:00 | 00:00:00 | 00:00:00 | |
| DL1XH-west | 2026-08-31 12:12:47 | 51.23569 | 9.64388 | 54° | 113km/h | 9263m | -2.8m/s | -43.4°C | 0% | 0hPa | 4.5V | 00:00:00 | 00:00:00 | 00:00:00 | |
| HSKMA3-T | 2026-08-31 12:12:45 | 51.23513 | 9.64276 | 51° | 124km/h | 9272m | -2.7m/s | -43.5°C | 0% | 0hPa | 4.5V | 00:00:00 | 00:00:00 | 00:00:00 | |
| DO2JMG | 2026-08-31 12:12:44 | 51.23493 | 9.64237 | 52° | 128km/h | 9274m | -2.9m/s | -43.6°C | 0% | 0hPa | 4.5V | 00:00:00 | 00:00:00 | 00:00:00 | |
| DL1XH-15 | 2026-08-31 12:12:42 | 51.23383 | 9.63979 | 58° | 124km/h | 9300m | -2.8m/s | 0°C | 0% | 0hPa | 0V | 00:00:00 | 00:00:00 | 00:00:00 | |
| DF2AP-13 | 2026-08-31 12:12:41 | 51.23454 | 9.64148 | 59° | 122km/h | 9290m | -2.7m/s | 0°C | 0% | 0hPa | 4.5V | 00:00:00 | 00:00:00 | 00:00:00 | |
| DL1XH-west | 2026-08-31 12:12:36 | 51.23351 | 9.63895 | 58° | 122km/h | 9295m | -2.6m/s | -43.5°C | 0% | 0hPa | 4.5V | 00:00:00 | 00:00:00 | 00:00:00 | |
| DO8TBO-1 | 2026-08-31 12:12:35 | 51.23351 | 9.63895 | 59° | 122km/h | 9300m | -2.7m/s | 0°C | 0% | 0hPa | 4.5V | 00:00:00 | 00:00:00 | 00:00:00 | |
| HSKMA3-T | 2026-08-31 12:12:34 | 51.23318 | 9.63812 | 57° | 120km/h | 9300m | -2.8m/s | -43.7°C | 0% | 0hPa | 4.5V | 00:00:00 | 00:00:00 | 00:00:00 | |
| DF8AY | 2026-08-31 12:12:30 | 51.23234 | 9.63615 | 54° | 115km/h | 9313m | -2.7m/s | -43.7°C | 0% | 0hPa | 4.5V | 00:00:00 | 00:00:00 | 00:00:00 | |
| DO2JMG | 2026-08-31 12:12:30 | 51.23251 | 9.63653 | 55° | 117km/h | 9311m | -2.7m/s | -43.9°C | 0% | 0hPa | 4.5V | 00:00:00 | 00:00:00 | 00:00:00 | |
| DL1XH-west | 2026-08-31 12:12:26 | 51.23180 | 9.63503 | 52° | 120km/h | 9322m | -2.8m/s | -43.9°C | 0% | 0hPa | 4.5V | 00:00:00 | 00:00:00 | 00:00:00 | |
| HSKMA3-T | 2026-08-31 12:12:24 | 51.23141 | 9.63423 | 53° | 128km/h | 9327m | -2.8m/s | -43.9°C | 0% | 0hPa | 4.5V | 00:00:00 | 00:00:00 | 00:00:00 | |
| DL1XH-15 | 2026-08-31 12:12:21 | 51.23014 | 9.63118 | 58° | 126km/h | 9356m | -2.7m/s | 0°C | 0% | 0hPa | 0V | 00:00:00 | 00:00:00 | 00:00:00 | |
| DO2JMG | 2026-08-31 12:12:18 | 51.23048 | 9.63205 | 58° | 130km/h | 9341m | -2.7m/s | -43.8°C | 0% | 0hPa | 4.5V | 00:00:00 | 00:00:00 | 00:00:00 | |
| HSKMA3-T | 2026-08-31 12:12:13 | 51.22965 | 9.62991 | 58° | 120km/h | 9353m | -2.8m/s | -44°C | 0% | 0hPa | 4.5V | 00:00:00 | 00:00:00 | 00:00:00 | |
| DF2AP-13 | 2026-08-31 12:12:09 | 51.22901 | 9.62832 | 57° | 119km/h | 9367m | -2.8m/s | 0°C | 0% | 0hPa | 4.4V | 00:00:00 | 00:00:00 | 00:00:00 | |
| DL1XH-west | 2026-08-31 12:12:08 | 51.22867 | 9.62757 | 53° | 115km/h | 9370m | -2.9m/s | -44.2°C | 0% | 0hPa | 4.4V | 00:00:00 | 00:00:00 | 00:00:00 | |
| EDDB2-11 | 2026-08-31 12:12:08 | 51.22830 | 9.62681 | 51° | 122km/h | 9376m | -2.8m/s | -44.6°C | -1.0% | -1.0hPa | 4.5V | 00:00:00 | 00:00:00 | 00:00:00 | |
| DF8AY | 2026-08-31 12:12:06 | 51.22715 | 9.62425 | 59° | 133km/h | 9392m | -2.8m/s | -44.2°C | 0% | 0hPa | 4.5V | 00:00:00 | 00:00:00 | 00:00:00 | |
| DC4HF-4 | 2026-08-31 12:12:03 | 51.22771 | 9.62559 | 53° | 131km/h | 9384m | -2.8m/s | -44.3°C | -1.0% | -1.0hPa | 0V | 00:00:00 | 00:00:00 | 00:00:00 | |
| DL1XH-15 | 2026-08-31 12:12:02 | 51.22681 | 9.62333 | 60° | 130km/h | 9408m | -2.8m/s | 0°C | 0% | 0hPa | 0V | 00:00:00 | 00:00:00 | 00:00:00 | |
| HSKMA3-T | 2026-08-31 12:11:56 | 51.22651 | 9.62245 | 61° | 120km/h | 9402m | -2.9m/s | -44.3°C | 0% | 0hPa | 4.5V | 00:00:00 | 00:00:00 | 00:00:00 | |
| DF8AY | 2026-08-31 12:11:55 | 51.22620 | 9.62163 | 58° | 115km/h | 9408m | -2.8m/s | -44.4°C | 0% | 0hPa | 4.5V | 00:00:00 | 00:00:00 | 00:00:00 | |
| DL1XH-15 | 2026-08-31 12:11:49 | 51.22492 | 9.61888 | 53° | 133km/h | 9433m | -2.8m/s | 0°C | 0% | 0hPa | 0V | 00:00:00 | 00:00:00 | 00:00:00 | |
| DO2JMG | 2026-08-31 12:11:49 | 51.22532 | 9.61971 | 52° | 126km/h | 9422m | -2.9m/s | -44.6°C | 0% | 0hPa | 4.5V | 00:00:00 | 00:00:00 | 00:00:00 | |
| DL1XH-west | 2026-08-31 12:11:43 | 51.22418 | 9.61708 | 60° | 131km/h | 9439m | -2.9m/s | -44.6°C | 0% | 0hPa | 4.5V | 00:00:00 | 00:00:00 | 00:00:00 | |
| DO2JMG | 2026-08-31 12:11:38 | 51.22356 | 9.61531 | 61° | 119km/h | 9450m | -2.9m/s | -44.7°C | 0% | 0hPa | 4.5V | 00:00:00 | 00:00:00 | 00:00:00 | |
| DL1XH-15 | 2026-08-31 12:11:37 | 51.22310 | 9.61413 | 55° | 115km/h | 9464m | -2.9m/s | 0°C | 0% | 0hPa | 0V | 00:00:00 | 00:00:00 | 00:00:00 | |
| DO8TBO-1 | 2026-08-31 12:11:33 | 51.22275 | 9.61338 | 53° | 126km/h | 9467m | -2.8m/s | 0°C | 0% | 0hPa | 0V | 00:00:00 | 00:00:00 | 00:00:00 | |
| DL1NUX | 2026-08-31 12:11:32 | 51.22197 | 9.61172 | 54° | 133km/h | 9481m | -2.8m/s | 0°C | 0% | 0hPa | 0V | 00:00:00 | 00:00:00 | 00:00:00 | |
| DL1XH-west | 2026-08-31 12:11:31 | 51.22236 | 9.61258 | 53° | 130km/h | 9470m | -2.8m/s | -45°C | 0% | 0hPa | 4.5V | 00:00:00 | 00:00:00 | 00:00:00 | |
| DO2JMG | 2026-08-31 12:11:28 | 51.22159 | 9.61082 | 58° | 135km/h | 9481m | -2.8m/s | -44.9°C | 0% | 0hPa | 4.5V | 00:00:00 | 00:00:00 | 00:00:00 | |
| DL1XH-15 | 2026-08-31 12:11:26 | 51.22109 | 9.60945 | 61° | 126km/h | 9492m | -2.8m/s | 0°C | 0% | 0hPa | 0V | 00:00:00 | 00:00:00 | 00:00:00 | |
| DL3OBA | 2026-08-31 12:11:25 | 51.22109 | 9.60990 | 62° | 126km/h | 9486m | -2.8m/s | -45.0°C | 0% | 0hPa | 4.5V | 00:00:00 | 00:00:00 | 00:00:00 | |
| DF8AY | 2026-08-31 12:11:23 | 51.22080 | 9.60858 | 61° | 119km/h | 9495m | -2.9m/s | -45.1°C | 0% | 0hPa | 4.5V | 00:00:00 | 00:00:00 | 00:00:00 | |
| SO1NDE-10 | 2026-08-31 12:11:23 | 51.22094 | 9.60899 | 61° | 124km/h | 9495m | -2.9m/s | 0°C | 0% | 0hPa | 4.5V | 00:00:00 | 00:00:00 | 00:00:00 | |
| DL1XH-west | 2026-08-31 12:11:21 | 51.22050 | 9.60778 | 57° | 113km/h | 9500m | -2.7m/s | -45.2°C | 0% | 0hPa | 4.5V | 00:00:00 | 00:00:00 | 00:00:00 | |
| TFSTFS | 2026-08-31 12:11:20 | 51.22050 | 9.60778 | 58° | 113km/h | 9500m | -2.7m/s | -45.2°C | 0% | 0hPa | 4.5V | 00:00:00 | 00:00:00 | 00:00:00 | |
| DO2JMG | 2026-08-31 12:11:17 | 51.21979 | 9.60628 | 51° | 124km/h | 9512m | -3m/s | -45.4°C | 0% | 0hPa | 4.5V | 00:00:00 | 00:00:00 | 00:00:00 | |
| DL1XH-15 | 2026-08-31 12:11:16 | 51.21939 | 9.60547 | 52° | 131km/h | 9523m | -2.9m/s | 0°C | 0% | 0hPa | 0V | 00:00:00 | 00:00:00 | 00:00:00 | |
| DL1XH-west | 2026-08-31 12:11:11 | 51.21864 | 9.60368 | 60° | 133km/h | 9529m | -2.8m/s | -45.3°C | 0% | 0hPa | 4.5V | 00:00:00 | 00:00:00 | 00:00:00 | |
| HSKMA3-T | 2026-08-31 12:11:06 | 51.21789 | 9.60149 | 60° | 115km/h | 9543m | -2.7m/s | -45.4°C | 0% | 0hPa | 4.5V | 00:00:00 | 00:00:00 | 00:00:00 | |
| DF8AY | 2026-08-31 12:11:05 | 51.21774 | 9.60110 | 57° | 113km/h | 9545m | -2.8m/s | -45.5°C | 0% | 0hPa | 4.5V | 00:00:00 | 00:00:00 | 00:00:00 | |
| DO8TBO-1 | 2026-08-31 12:11:03 | 51.21758 | 9.60072 | 55° | 124km/h | 9552m | -2.8m/s | 0°C | 0% | 0hPa | 0V | 00:00:00 | 00:00:00 | 00:00:00 | |
| DL1NUX | 2026-08-31 12:11:02 | 51.21684 | 9.59914 | 53° | 131km/h | 9565m | -2.7m/s | 0°C | 0% | 0hPa | 0V | 00:00:00 | 00:00:00 | 00:00:00 | |
| DL1XH-west | 2026-08-31 12:10:59 | 51.21683 | 9.59914 | 54° | 131km/h | 9559m | -2.7m/s | -45.5°C | 0% | 0hPa | 4.5V | 00:00:00 | 00:00:00 | 00:00:00 | |
| HSKMA3-T | 2026-08-31 12:10:55 | 51.21594 | 9.59687 | 62° | 130km/h | 9573m | -2.7m/s | -45.5°C | 0% | 0hPa | 4.5V | 00:00:00 | 00:00:00 | 00:00:00 | |
| DB0NH | 2026-08-31 12:10:54 | 51.21594 | 9.59687 | 62° | 122km/h | 9578m | -2.8m/s | 0°C | 0% | 0hPa | 4.5V | 00:00:00 | 00:00:00 | 00:00:00 | |
| SO1NDE-10 | 2026-08-31 12:10:53 | 51.21579 | 9.59640 | 63° | 120km/h | 9578m | -2.8m/s | 0°C | 0% | 0hPa | 4.5V | 00:00:00 | 00:00:00 | 00:00:00 | |
| DF8AY | 2026-08-31 12:10:51 | 51.21537 | 9.59512 | 61° | 115km/h | 9584m | -2.8m/s | -45.6°C | 0% | 0hPa | 4.5V | 00:00:00 | 00:00:00 | 00:00:00 | |
| DL1XH-west | 2026-08-31 12:10:48 | 51.21508 | 9.59434 | 57° | 111km/h | 9590m | -2.8m/s | -45.6°C | 0% | 0hPa | 4.5V | 00:00:00 | 00:00:00 | 00:00:00 | |
| HSKMA3-T | 2026-08-31 12:10:44 | 51.21419 | 9.59237 | 55° | 131km/h | 9603m | -2.6m/s | -45.7°C | 0% | 0hPa | 4.5V | 00:00:00 | 00:00:00 | 00:00:00 | |
| DL1NUX | 2026-08-31 12:10:42 | 51.21348 | 9.59055 | 60° | 131km/h | 9617m | -2.7m/s | 0°C | 0% | 0hPa | 0V | 00:00:00 | 00:00:00 | 00:00:00 | |
| DO2JMG | 2026-08-31 12:10:40 | 51.21348 | 9.59055 | 61° | 131km/h | 9615m | -2.8m/s | -45.5°C | 0% | 0hPa | 4.5V | 00:00:00 | 00:00:00 | 00:00:00 | |
| DL3OBA | 2026-08-31 12:10:39 | 51.21317 | 9.58966 | 63° | 122km/h | 9620m | -2.7m/s | -45.5°C | 0% | 0hPa | 4.5V | 00:00:00 | 00:00:00 | 00:00:00 | |
| DL1XH-west | 2026-08-31 12:10:37 | 51.21317 | 9.58966 | 62° | 122km/h | 9620m | -2.7m/s | -45.5°C | 0% | 0hPa | 4.5V | 00:00:00 | 00:00:00 | 00:00:00 | |
| DF8AY | 2026-08-31 12:10:34 | 51.21155 | 9.58572 | 52° | 126km/h | 9648m | -2.6m/s | -46°C | 0% | 0hPa | 4.5V | 00:00:00 | 00:00:00 | 00:00:00 | |
| HSKMA3-T | 2026-08-31 12:10:33 | 51.21258 | 9.58802 | 58° | 113km/h | 9631m | -2.7m/s | -45.9°C | 0% | 0hPa | 4.5V | 00:00:00 | 00:00:00 | 00:00:00 | |
| DO8TBO-1 | 2026-08-31 12:10:33 | 51.21258 | 9.58802 | 58° | 124km/h | 9634m | -2.6m/s | 0°C | 0% | 0hPa | 0V | 00:00:00 | 00:00:00 | 00:00:00 | |
| DL1NUX | 2026-08-31 12:10:32 | 51.21193 | 9.58655 | 52° | 119km/h | 9648m | -2.6m/s | 0°C | 0% | 0hPa | 0V | 00:00:00 | 00:00:00 | 00:00:00 | |
| DO2JMG | 2026-08-31 12:10:29 | 51.21174 | 9.58612 | 52° | 122km/h | 9645m | -2.5m/s | -46°C | 0% | 0hPa | 4.5V | 00:00:00 | 00:00:00 | 00:00:00 | |
| DL1XH-west | 2026-08-31 12:10:27 | 51.21135 | 9.58531 | 53° | 130km/h | 9650m | -2.7m/s | -46°C | 0% | 0hPa | 4.5V | 00:00:00 | 00:00:00 | 00:00:00 | |
| DF8AY | 2026-08-31 12:10:24 | 51.21077 | 9.58400 | 57° | 133km/h | 9659m | -2.7m/s | -45.9°C | 0% | 0hPa | 4.4V | 00:00:00 | 00:00:00 | 00:00:00 | |
| SO1NDE-10 | 2026-08-31 12:10:23 | 51.21077 | 9.58400 | 58° | 124km/h | 9659m | -2.7m/s | 0°C | 0% | 0hPa | 0V | 00:00:00 | 00:00:00 | 00:00:00 | |
| DL1NUX | 2026-08-31 12:10:22 | 51.20997 | 9.58181 | 60° | 119km/h | 9675m | -2.8m/s | 0°C | 0% | 0hPa | 0V | 00:00:00 | 00:00:00 | 00:00:00 | |
| HSKMA3-T | 2026-08-31 12:10:22 | 51.21043 | 9.58310 | 60° | 128km/h | 9664m | -2.5m/s | -45.8°C | 0% | 0hPa | 4.4V | 00:00:00 | 00:00:00 | 00:00:00 | |
| DB0NH | 2026-08-31 12:10:21 | 51.21042 | 9.58310 | 61° | 120km/h | 9664m | -2.5m/s | 0°C | 0% | 0hPa | 0V | 00:00:00 | 00:00:00 | 00:00:00 | |
| DM0DOS-11 | 2026-08-31 12:10:19 | 51.20967 | 9.58100 | 54° | 113km/h | 9680m | -2.5m/s | 0°C | 0% | 0hPa | 0V | 00:00:00 | 00:00:00 | 00:00:00 | |
| DO2JMG | 2026-08-31 12:10:18 | 51.20997 | 9.58181 | 61° | 119km/h | 9672m | -2.8m/s | -45.8°C | 0% | 0hPa | 4.4V | 00:00:00 | 00:00:00 | 00:00:00 | |
| DL1XH-west | 2026-08-31 12:10:16 | 51.20952 | 9.58061 | 56° | 113km/h | 9680m | -2.5m/s | -46.1°C | 0% | 0hPa | 4.5V | 00:00:00 | 00:00:00 | 00:00:00 | |
| DF8AY | 2026-08-31 12:10:13 | 51.20899 | 9.57949 | 52° | 120km/h | 9687m | -2.7m/s | -46.3°C | 0% | 0hPa | 4.5V | 00:00:00 | 00:00:00 | 00:00:00 | |
| DL3OBA | 2026-08-31 12:10:13 | 51.20918 | 9.57986 | 53° | 117km/h | 9687m | -2.7m/s | -46.2°C | 0% | 0hPa | 0V | 00:00:00 | 00:00:00 | 00:00:00 | |
| DL1NUX | 2026-08-31 12:10:11 | 51.20801 | 9.57744 | 55° | 131km/h | 9703m | -2.7m/s | 0°C | 0% | 0hPa | 0V | 00:00:00 | 00:00:00 | 00:00:00 | |
| HSKMA3-T | 2026-08-31 12:10:10 | 51.20840 | 9.57830 | 53° | 131km/h | 9695m | -2.8m/s | -46.3°C | 0% | 0hPa | 4.4V | 00:00:00 | 00:00:00 | 00:00:00 | |
| DM0DOS-11 | 2026-08-31 12:10:09 | 51.20766 | 9.57655 | 58° | 128km/h | 9708m | -2.5m/s | 0°C | 0% | 0hPa | 0V | 00:00:00 | 00:00:00 | 00:00:00 | |
| DO2JMG | 2026-08-31 12:10:07 | 51.20801 | 9.57744 | 56° | 131km/h | 9700m | -2.6m/s | -46.1°C | 0% | 0hPa | 4.4V | 00:00:00 | 00:00:00 | 00:00:00 | |
| DL1XH-west | 2026-08-31 12:10:06 | 51.20766 | 9.57655 | 58° | 128km/h | 9705m | -2.7m/s | -46.1°C | 0% | 0hPa | 4.4V | 00:00:00 | 00:00:00 | 00:00:00 | |
| DO8TBO-1 | 2026-08-31 12:10:03 | 51.20732 | 9.57569 | 59° | 124km/h | 9713m | -2.6m/s | 0°C | 0% | 0hPa | 4.4V | 00:00:00 | 00:00:00 | 00:00:00 | |
| DF8AY | 2026-08-31 12:10:02 | 51.20701 | 9.57485 | 58° | 120km/h | 9716m | -2.6m/s | -46.3°C | 0% | 0hPa | 4.4V | 00:00:00 | 00:00:00 | 00:00:00 | |
| HSKMA3-T | 2026-08-31 12:09:59 | 51.20651 | 9.57365 | 56° | 119km/h | 9724m | -2.6m/s | -46.3°C | 0% | 0hPa | 4.4V | 00:00:00 | 00:00:00 | 00:00:00 | |
| DO2JMG | 2026-08-31 12:09:57 | 51.20634 | 9.57326 | 55° | 117km/h | 9727m | -2.6m/s | -46.3°C | 0% | 0hPa | 4.5V | 00:00:00 | 00:00:00 | 00:00:00 | |
| DL1NUX | 2026-08-31 12:09:57 | 51.20599 | 9.57252 | 50° | 117km/h | 9738m | -2.7m/s | 0°C | 0% | 0hPa | 0V | 00:00:00 | 00:00:00 | 00:00:00 | |
| DL1XH-west | 2026-08-31 12:09:55 | 51.20581 | 9.57213 | 51° | 117km/h | 9735m | -2.6m/s | -46.6°C | 0% | 0hPa | 4.4V | 00:00:00 | 00:00:00 | 00:00:00 | |
| DL3OBA | 2026-08-31 12:09:52 | 51.20522 | 9.57100 | 51° | 126km/h | 9744m | -2.8m/s | -46.7°C | 0% | 0hPa | 4.5V | 00:00:00 | 00:00:00 | 00:00:00 | |
| DF8AY | 2026-08-31 12:09:51 | 51.20501 | 9.57060 | 51° | 131km/h | 9746m | -2.8m/s | -46.7°C | 0% | 0hPa | 4.5V | 00:00:00 | 00:00:00 | 00:00:00 | |
| DB0NH | 2026-08-31 12:09:51 | 51.20522 | 9.57100 | 50° | 126km/h | 9749m | -2.6m/s | 0°C | 0% | 0hPa | 0V | 00:00:00 | 00:00:00 | 00:00:00 | |
| DL1NUX | 2026-08-31 12:09:49 | 51.20385 | 9.56795 | 59° | 128km/h | 9762m | -2.9m/s | 0°C | 0% | 0hPa | 0V | 00:00:00 | 00:00:00 | 00:00:00 | |
| HSKMA3-T | 2026-08-31 12:09:48 | 51.20440 | 9.56931 | 55° | 137km/h | 9754m | -2.7m/s | -46.6°C | 0% | 0hPa | 4.5V | 00:00:00 | 00:00:00 | 00:00:00 | |
| DL1XH-west | 2026-08-31 12:09:42 | 51.20354 | 9.56709 | 59° | 119km/h | 9767m | -2.8m/s | -46.6°C | 0% | 0hPa | 4.5V | 00:00:00 | 00:00:00 | 00:00:00 | |
| DF8AY | 2026-08-31 12:09:40 | 51.20306 | 9.56593 | 54° | 113km/h | 9774m | -2.9m/s | -46.7°C | 0% | 0hPa | 4.5V | 00:00:00 | 00:00:00 | 00:00:00 | |
| HSKMA3-T | 2026-08-31 12:09:38 | 51.20269 | 9.56520 | 51° | 119km/h | 9780m | -2.8m/s | -46.8°C | 0% | 0hPa | 4.5V | 00:00:00 | 00:00:00 | 00:00:00 | |
| DO2JMG | 2026-08-31 12:09:36 | 51.20230 | 9.56444 | 51° | 126km/h | 9786m | -2.7m/s | -46.8°C | 0% | 0hPa | 4.8V | 00:00:00 | 00:00:00 | 00:00:00 | |
| DO8TBO-1 | 2026-08-31 12:09:33 | 51.20190 | 9.56364 | 55° | 131km/h | 9794m | -2.6m/s | 0°C | 0% | 0hPa | 4.5V | 00:00:00 | 00:00:00 | 00:00:00 | |
| DL1XH-west | 2026-08-31 12:09:31 | 51.20151 | 9.56276 | 56° | 133km/h | 9796m | -2.7m/s | -46.6°C | 0% | 0hPa | 4.5V | 00:00:00 | 00:00:00 | 00:00:00 | |
| HSKMA3-T | 2026-08-31 12:09:27 | 51.20065 | 9.56053 | 61° | 122km/h | 9809m | -2.7m/s | -46.8°C | 0% | 0hPa | 4.5V | 00:00:00 | 00:00:00 | 00:00:00 | |
| DO2JMG | 2026-08-31 12:09:25 | 51.20050 | 9.56011 | 60° | 117km/h | 9812m | -2.7m/s | -46.9°C | 0% | 0hPa | 4.8V | 00:00:00 | 00:00:00 | 00:00:00 | |
| DB0NH | 2026-08-31 12:09:21 | 51.19986 | 9.55860 | 52° | 124km/h | 9829m | -2.7m/s | 0°C | 0% | 0hPa | 4.5V | 00:00:00 | 00:00:00 | 00:00:00 | |
| DL1XH-west | 2026-08-31 12:09:20 | 51.19947 | 9.55787 | 50° | 124km/h | 9829m | -2.8m/s | -47°C | 0% | 0hPa | 4.5V | 00:00:00 | 00:00:00 | 00:00:00 | |
| HSKMA3-T | 2026-08-31 12:09:16 | 51.19866 | 9.55620 | 55° | 135km/h | 9840m | -2.8m/s | -46.8°C | 0% | 0hPa | 4.5V | 00:00:00 | 00:00:00 | 00:00:00 | |
| DL1XH-west | 2026-08-31 12:09:09 | 51.19765 | 9.55360 | 57° | 115km/h | 9855m | -2.6m/s | -46.9°C | 0% | 0hPa | 4.5V | 00:00:00 | 00:00:00 | 00:00:00 | |
| DF2AP-13 | 2026-08-31 12:09:07 | 51.19732 | 9.55283 | 54° | 126km/h | 9867m | -2.7m/s | 0°C | 0% | 0hPa | 4.5V | 00:00:00 | 00:00:00 | 00:00:00 | |
| HSKMA3-T | 2026-08-31 12:09:05 | 51.19655 | 9.55131 | 51° | 130km/h | 9872m | -2.7m/s | -47.2°C | 0% | 0hPa | 4.5V | 00:00:00 | 00:00:00 | 00:00:00 | |
| SONCRA | 2026-08-31 12:09:04 | 51.19634 | 9.55090 | 51° | 133km/h | 9874m | -2.6m/s | -47.2°C | -1.0% | -1.0hPa | 4.5V | 00:00:00 | 00:00:00 | 00:00:00 | |
| DF8AY | 2026-08-31 12:08:59 | 51.19533 | 9.54866 | 58° | 133km/h | 9888m | -2.6m/s | -47°C | 0% | 0hPa | 4.5V | 00:00:00 | 00:00:00 | 00:00:00 | |
| DL1XH-west | 2026-08-31 12:08:58 | 51.19551 | 9.54912 | 57° | 137km/h | 9885m | -2.7m/s | -47°C | 0% | 0hPa | 4.5V | 00:00:00 | 00:00:00 | 00:00:00 | |
| DO2JMG | 2026-08-31 12:08:56 | 51.19516 | 9.54821 | 60° | 130km/h | 9890m | -2.6m/s | -47°C | 0% | 0hPa | 4.5V | 00:00:00 | 00:00:00 | 00:00:00 | |
| HSKMA3-T | 2026-08-31 12:08:55 | 51.19484 | 9.54732 | 60° | 122km/h | 9896m | -2.7m/s | -47°C | 0% | 0hPa | 4.5V | 00:00:00 | 00:00:00 | 00:00:00 | |
| DL1NUX | 2026-08-31 12:08:48 | 51.19277 | 9.54278 | 57° | 139km/h | 9928m | -2.8m/s | 0°C | 0% | 0hPa | 0V | 00:00:00 | 00:00:00 | 00:00:00 | |
| DL1XH-west | 2026-08-31 12:08:48 | 51.19359 | 9.54455 | 51° | 131km/h | 9915m | -2.7m/s | -47.2°C | 0% | 0hPa | 4.5V | 00:00:00 | 00:00:00 | 00:00:00 | |
| DB0NH | 2026-08-31 12:08:48 | 51.19379 | 9.54501 | 53° | 130km/h | 9917m | -2.6m/s | 0°C | 0% | 0hPa | 4.5V | 00:00:00 | 00:00:00 | 00:00:00 | |
| DF8AY | 2026-08-31 12:08:46 | 51.19317 | 9.54370 | 54° | 137km/h | 9920m | -2.6m/s | -47.2°C | 0% | 0hPa | 4.5V | 00:00:00 | 00:00:00 | 00:00:00 | |
| DO2JMG | 2026-08-31 12:08:44 | 51.19277 | 9.54278 | 57° | 139km/h | 9925m | -2.7m/s | -47.2°C | 0% | 0hPa | 4.5V | 00:00:00 | 00:00:00 | 00:00:00 | |
| DL1NUX | 2026-08-31 12:08:39 | 51.19112 | 9.53852 | 52° | 120km/h | 9958m | -2.5m/s | 0°C | 0% | 0hPa | 0V | 00:00:00 | 00:00:00 | 00:00:00 | |
| AA1-15 | 2026-08-31 12:08:38 | 51.19178 | 9.54005 | 60° | 119km/h | 9941m | -2.7m/s | -47.3°C | 0% | 0hPa | 4.5V | 00:00:00 | 00:00:00 | 00:00:00 | |
| DL1XH-west | 2026-08-31 12:08:37 | 51.19163 | 9.53964 | 58° | 117km/h | 9944m | -2.8m/s | -47.3°C | 0% | 0hPa | 4.5V | 00:00:00 | 00:00:00 | 00:00:00 | |
| SO1NDE-10 | 2026-08-31 12:08:37 | 51.19178 | 9.54001 | 57° | 130km/h | 9947m | -2.7m/s | 0°C | 0% | 0hPa | 4.5V | 00:00:00 | 00:00:00 | 00:00:00 | |
| HSKMA3-T | 2026-08-31 12:08:33 | 51.19112 | 9.53847 | 53° | 120km/h | 9953m | -2.7m/s | -47.3°C | 0% | 0hPa | 4.5V | 00:00:00 | 00:00:00 | 00:00:00 | |
| DO2JMG | 2026-08-31 12:08:33 | 51.19094 | 9.53808 | 53° | 126km/h | 9955m | -2.7m/s | -47.3°C | 0% | 0hPa | 4.5V | 00:00:00 | 00:00:00 | 00:00:00 | |
| DF8AY | 2026-08-31 12:08:31 | 51.19054 | 9.53725 | 53° | 135km/h | 9960m | -2.5m/s | -47.4°C | 0% | 0hPa | 4.5V | 00:00:00 | 00:00:00 | 00:00:00 | |
| AA1-15 | 2026-08-31 12:08:24 | 51.18941 | 9.53447 | 62° | 131km/h | 9976m | -2.8m/s | -47.3°C | 0% | 0hPa | 4.5V | 00:00:00 | 00:00:00 | 00:00:00 | |
| DO8TBO-1 | 2026-08-31 12:08:24 | 51.18941 | 9.53431 | 58° | 130km/h | 9987m | -2.7m/s | 0°C | 0% | 0hPa | 0V | 00:00:00 | 00:00:00 | 00:00:00 | |
| DL1NUX | 2026-08-31 12:08:22 | 51.18911 | 9.53355 | 60° | 122km/h | 9984m | -2.8m/s | 0°C | 0% | 0hPa | 0V | 00:00:00 | 00:00:00 | 00:00:00 | |
| DO2JMG | 2026-08-31 12:08:22 | 51.18896 | 9.53315 | 60° | 119km/h | 9984m | -2.8m/s | -47.3°C | 0% | 0hPa | 4.5V | 00:00:00 | 00:00:00 | 00:00:00 | |
| DF8AY | 2026-08-31 12:08:21 | 51.18880 | 9.53274 | 58° | 117km/h | 9986m | -2.7m/s | -47.3°C | 0% | 0hPa | 4.5V | 00:00:00 | 00:00:00 | 00:00:00 | |
| DB0NH | 2026-08-31 12:08:17 | 51.18829 | 9.53156 | 54° | 130km/h | 9998m | -2.7m/s | 0°C | 0% | 0hPa | 4.5V | 00:00:00 | 00:00:00 | 00:00:00 | |
| DL1XH-west | 2026-08-31 12:08:13 | 51.18752 | 9.52986 | 56° | 135km/h | 10006m | -2.7m/s | -47.2°C | 0% | 0hPa | 4.5V | 00:00:00 | 00:00:00 | 00:00:00 | |
| DO2JMG | 2026-08-31 12:08:12 | 51.18714 | 9.52894 | 58° | 137km/h | 10011m | -2.6m/s | -47.3°C | 0% | 0hPa | 4.5V | 00:00:00 | 00:00:00 | 00:00:00 | |
| DF8AY | 2026-08-31 12:08:08 | 51.18648 | 9.52704 | 63° | 130km/h | 10022m | -2.8m/s | -47.3°C | 0% | 0hPa | 4.5V | 00:00:00 | 00:00:00 | 00:00:00 | |
| HSKMA3-T | 2026-08-31 12:08:07 | 51.18633 | 9.52658 | 63° | 126km/h | 10024m | -2.9m/s | -47.3°C | 0% | 0hPa | 4.5V | 00:00:00 | 00:00:00 | 00:00:00 | |
| DL1XH-15 | 2026-08-31 12:08:06 | 51.18604 | 9.52571 | 60° | 120km/h | 10035m | -2.6m/s | 0°C | 0% | 0hPa | 0V | 00:00:00 | 00:00:00 | 00:00:00 | |
| DL1NUX | 2026-08-31 12:08:02 | 51.18571 | 9.52489 | 56° | 120km/h | 10041m | -2.8m/s | 0°C | 0% | 0hPa | 0V | 00:00:00 | 00:00:00 | 00:00:00 | |
| DO2JMG | 2026-08-31 12:08:01 | 51.18537 | 9.52407 | 55° | 126km/h | 10041m | -2.8m/s | -47.4°C | 0% | 0hPa | 4.4V | 00:00:00 | 00:00:00 | 00:00:00 | |
| AA1-15 | 2026-08-31 12:07:59 | 51.18499 | 9.52324 | 54° | 131km/h | 10046m | -2.7m/s | 0°C | 0% | 0hPa | 4.5V | 00:00:00 | 00:00:00 | 00:00:00 | |
| TFSTFS | 2026-08-31 12:07:58 | 51.18499 | 9.52324 | 55° | 131km/h | 10046m | -2.7m/s | 0°C | 0% | 0hPa | 4.4V | 00:00:00 | 00:00:00 | 00:00:00 | |
| HSKMA3-T | 2026-08-31 12:07:56 | 51.18439 | 9.52190 | 57° | 139km/h | 10054m | -2.8m/s | -47.6°C | 0% | 0hPa | 4.4V | 00:00:00 | 00:00:00 | 00:00:00 | |
| DL1NUX | 2026-08-31 12:07:52 | 51.18369 | 9.51998 | 62° | 133km/h | 10075m | -2.8m/s | 0°C | 0% | 0hPa | 0V | 00:00:00 | 00:00:00 | 00:00:00 | |
| DO8TBO-1 | 2026-08-31 12:07:51 | 51.18369 | 9.51998 | 63° | 131km/h | 10075m | -2.7m/s | 0°C | 0% | 0hPa | 4.4V | 00:00:00 | 00:00:00 | 00:00:00 | |
| DL1XH-west | 2026-08-31 12:07:48 | 51.18308 | 9.51819 | 60° | 120km/h | 10075m | -2.8m/s | -47.5°C | 0% | 0hPa | 4.4V | 00:00:00 | 00:00:00 | 00:00:00 | |
| DB0NH | 2026-08-31 12:07:47 | 51.18308 | 9.51819 | 60° | 133km/h | 10078m | -2.6m/s | 0°C | 0% | 0hPa | 0V | 00:00:00 | 00:00:00 | 00:00:00 | |
| DL1XH-15 | 2026-08-31 12:07:46 | 51.18240 | 9.51654 | 54° | 126km/h | 10097m | -2.9m/s | 0°C | 0% | 0hPa | 0V | 00:00:00 | 00:00:00 | 00:00:00 | |
| DL1NUX | 2026-08-31 12:07:46 | 51.18203 | 9.51569 | 54° | 137km/h | 10092m | -2.8m/s | 0°C | 0% | 0hPa | 0V | 00:00:00 | 00:00:00 | 00:00:00 | |
| DO2JMG | 2026-08-31 12:07:45 | 51.18276 | 9.51736 | 57° | 122km/h | 10081m | -2.7m/s | -47.5°C | 0% | 0hPa | 4.4V | 00:00:00 | 00:00:00 | 00:00:00 | |
| DF8AY | 2026-08-31 12:07:41 | 51.18183 | 9.51525 | 54° | 133km/h | 10095m | -2.8m/s | -47.8°C | 0% | 0hPa | 4.5V | 00:00:00 | 00:00:00 | 00:00:00 | |
| DL1XH-15 | 2026-08-31 12:07:36 | 51.18018 | 9.51094 | 63° | 133km/h | 10127m | -2.8m/s | 0°C | 0% | 0hPa | 0V | 00:00:00 | 00:00:00 | 00:00:00 | |
| DL1XH-west | 2026-08-31 12:07:36 | 51.18085 | 9.51292 | 60° | 142km/h | 10108m | -2.8m/s | -47.7°C | 0% | 0hPa | 4.5V | 00:00:00 | 00:00:00 | 00:00:00 | |
| DO2JMG | 2026-08-31 12:07:34 | 51.18067 | 9.51243 | 61° | 142km/h | 10111m | -2.8m/s | -47.7°C | 0% | 0hPa | 4.5V | 00:00:00 | 00:00:00 | 00:00:00 | |
| DL1NUX | 2026-08-31 12:07:32 | 51.18003 | 9.51047 | 63° | 130km/h | 10127m | -2.8m/s | 0°C | 0% | 0hPa | 0V | 00:00:00 | 00:00:00 | 00:00:00 | |
| DF8AY | 2026-08-31 12:07:31 | 51.18004 | 9.51047 | 63° | 130km/h | 10122m | -2.8m/s | -47.7°C | 0% | 0hPa | 4.5V | 00:00:00 | 00:00:00 | 00:00:00 | |
| DL1XH-west | 2026-08-31 12:07:24 | 51.17903 | 9.50791 | 54° | 130km/h | 10139m | -2.8m/s | -47.9°C | 0% | 0hPa | 4.5V | 00:00:00 | 00:00:00 | 00:00:00 | |
| HSKMA3-T | 2026-08-31 12:07:24 | 51.17883 | 9.50748 | 53° | 133km/h | 10142m | -3m/s | -47.9°C | 0% | 0hPa | 4.5V | 00:00:00 | 00:00:00 | 00:00:00 | |
| DO2JMG | 2026-08-31 12:07:21 | 51.17843 | 9.50659 | 56° | 139km/h | 10147m | -3m/s | -47.8°C | 0% | 0hPa | 4.5V | 00:00:00 | 00:00:00 | 00:00:00 | |
| DL1XH-15 | 2026-08-31 12:07:21 | 51.17842 | 9.50659 | 55° | 139km/h | 10153m | -2.8m/s | 0°C | 0% | 0hPa | 0V | 00:00:00 | 00:00:00 | 00:00:00 | |
| DO8TBO-1 | 2026-08-31 12:07:21 | 51.17842 | 9.50659 | 56° | 131km/h | 10150m | -2.8m/s | 0°C | 0% | 0hPa | 0V | 00:00:00 | 00:00:00 | 00:00:00 | |
| DF8AY | 2026-08-31 12:07:20 | 51.17823 | 9.50612 | 58° | 141km/h | 10150m | -2.9m/s | 0°C | 0% | 0hPa | 0V | 00:00:00 | 00:00:00 | 00:00:00 | |
| DB0NH | 2026-08-31 12:07:16 | 51.17755 | 9.50416 | 65° | 131km/h | 10164m | -3.0m/s | 0°C | 0% | 0hPa | 4.5V | 00:00:00 | 00:00:00 | 00:00:00 | |
| DO3DL | 2026-08-31 12:07:15 | 51.17727 | 9.50323 | 65° | 126km/h | 10168m | -3.1m/s | -47.6°C | 0% | 0hPa | 4.5V | 00:00:00 | 00:00:00 | 00:00:00 | |
| DL1XH-west | 2026-08-31 12:07:14 | 51.17712 | 9.50278 | 62° | 122km/h | 10170m | -3m/s | -47.6°C | 0% | 0hPa | 4.5V | 00:00:00 | 00:00:00 | 00:00:00 | |
| HSKMA3-T | 2026-08-31 12:07:13 | 51.17698 | 9.50235 | 60° | 120km/h | 10173m | -2.9m/s | -47.6°C | 0% | 0hPa | 4.5V | 00:00:00 | 00:00:00 | 00:00:00 | |
| DL1XH-15 | 2026-08-31 12:07:11 | 51.17666 | 9.50153 | 56° | 122km/h | 10186m | -2.9m/s | 0°C | 0% | 0hPa | 0V | 00:00:00 | 00:00:00 | 00:00:00 | |
| DO2JMG | 2026-08-31 12:07:11 | 51.17666 | 9.50153 | 57° | 122km/h | 10179m | -3m/s | -47.5°C | 0% | 0hPa | 4.5V | 00:00:00 | 00:00:00 | 00:00:00 | |
| DL3OBA | 2026-08-31 12:07:10 | 51.17666 | 9.50153 | 58° | 122km/h | 10180m | -3.0m/s | -46.7°C | 0% | 0hPa | 0V | 00:00:00 | 00:00:00 | 00:00:00 | |
| DF2AP-13 | 2026-08-31 12:07:08 | 51.17630 | 9.50068 | 56° | 80km/h | 10191m | -2.8m/s | 0°C | 0% | 0hPa | 0V | 00:00:00 | 00:00:00 | 00:00:00 | |
| SO1NDE-10 | 2026-08-31 12:07:06 | 51.17593 | 9.49979 | 58° | 128km/h | 10200m | -3.0m/s | 0°C | 0% | 0hPa | 0V | 00:00:00 | 00:00:00 | 00:00:00 | |
| DL1NUX | 2026-08-31 12:07:04 | 51.17477 | 9.49642 | 64° | 130km/h | 10214m | -3.2m/s | 0°C | 0% | 0hPa | 0V | 00:00:00 | 00:00:00 | 00:00:00 | |
| HSKMA3-T | 2026-08-31 12:07:03 | 51.17522 | 9.49788 | 62° | 139km/h | 10203m | -2.8m/s | -47.3°C | 0% | 0hPa | 4.5V | 00:00:00 | 00:00:00 | 00:00:00 | |
| DO2JMG | 2026-08-31 12:07:00 | 51.17477 | 9.49642 | 65° | 130km/h | 10211m | -3.1m/s | -47.3°C | 0% | 0hPa | 4.5V | 00:00:00 | 00:00:00 | 00:00:00 | |
| DO3DL | 2026-08-31 12:06:55 | 51.17423 | 9.49462 | 64° | 119km/h | 10223m | -3.0m/s | -47.2°C | 0% | 0hPa | 0V | 00:00:00 | 00:00:00 | 00:00:00 | |
| DL1NUX | 2026-08-31 12:06:53 | 51.17326 | 9.49209 | 58° | 133km/h | 10244m | -2.9m/s | 0°C | 0% | 0hPa | 0V | 00:00:00 | 00:00:00 | 00:00:00 | |
| HSKMA3-T | 2026-08-31 12:06:52 | 51.17361 | 9.49297 | 57° | 126km/h | 10236m | -3m/s | -47.1°C | 0% | 0hPa | 4.5V | 00:00:00 | 00:00:00 | 00:00:00 | |
| DO8TBO-1 | 2026-08-31 12:06:51 | 51.17361 | 9.49297 | 58° | 130km/h | 10242m | -2.8m/s | 0°C | 0% | 0hPa | 4.5V | 00:00:00 | 00:00:00 | 00:00:00 | |
| DO2JMG | 2026-08-31 12:06:49 | 51.17326 | 9.49209 | 58° | 133km/h | 10242m | -2.9m/s | -47°C | 0% | 0hPa | 4.5V | 00:00:00 | 00:00:00 | 00:00:00 | |
| DM7RM-13 | 2026-08-31 12:06:47 | 51.17290 | 9.49114 | 61° | 139km/h | 10250m | -3.1m/s | -40.3°C | 0% | 0hPa | 0V | 00:00:00 | 00:00:00 | 00:00:00 | |
| DO3DL | 2026-08-31 12:06:46 | 51.17273 | 9.49066 | 62° | 139km/h | 10250m | -3.1m/s | -47.0°C | 0% | 0hPa | 0V | 00:00:00 | 00:00:00 | 00:00:00 | |
| DL1NUX | 2026-08-31 12:06:43 | 51.17159 | 9.48689 | 63° | 117km/h | 10278m | -3.2m/s | 0°C | 0% | 0hPa | 0V | 00:00:00 | 00:00:00 | 00:00:00 | |
| DL1XH-west | 2026-08-31 12:06:40 | 51.17185 | 9.48776 | 66° | 124km/h | 10269m | -2.9m/s | -47°C | 0% | 0hPa | 4.5V | 00:00:00 | 00:00:00 | 00:00:00 | |
| DO2JMG | 2026-08-31 12:06:38 | 51.17159 | 9.48688 | 63° | 117km/h | 10275m | -3.1m/s | -47°C | 0% | 0hPa | 4.5V | 00:00:00 | 00:00:00 | 00:00:00 | |
| SO1NDE-10 | 2026-08-31 12:06:34 | 51.17099 | 9.48523 | 58° | 131km/h | 10291m | -3.0m/s | 0°C | 0% | 0hPa | 4.5V | 00:00:00 | 00:00:00 | 00:00:00 | |
| DL1XH-west | 2026-08-31 12:06:30 | 51.17011 | 9.48290 | 61° | 141km/h | 10303m | -3.2m/s | -47.2°C | 0% | 0hPa | 4.5V | 00:00:00 | 00:00:00 | 00:00:00 | |
| DL1XH-15 | 2026-08-31 12:06:27 | 51.16963 | 9.48137 | 66° | 137km/h | 10316m | -3.2m/s | 0°C | 0% | 0hPa | 0V | 00:00:00 | 00:00:00 | 00:00:00 | |
| DL1XH-15 | 2026-08-31 12:06:21 | 51.16818 | 9.47698 | 55° | 128km/h | 10349m | -3.5m/s | 0°C | 0% | 0hPa | 0V | 00:00:00 | 00:00:00 | 00:00:00 | |
| AA1-15 | 2026-08-31 12:06:20 | 51.16868 | 9.47822 | 60° | 119km/h | 10336m | -3.3m/s | -47.4°C | 0% | 0hPa | 4.8V | 00:00:00 | 00:00:00 | 00:00:00 | |
| DO8TBO-1 | 2026-08-31 12:06:19 | 51.16868 | 9.47824 | 57° | 126km/h | 10342m | -3.2m/s | 0°C | 0% | 0hPa | 4.5V | 00:00:00 | 00:00:00 | 00:00:00 | |
| DL1XH-west | 2026-08-31 12:06:19 | 51.16852 | 9.47781 | 58° | 120km/h | 10339m | -3.2m/s | -47.4°C | 0% | 0hPa | 4.5V | 00:00:00 | 00:00:00 | 00:00:00 | |
| DO2JMG | 2026-08-31 12:06:17 | 51.16818 | 9.47698 | 56° | 128km/h | 10346m | -3.3m/s | -47.4°C | 0% | 0hPa | 4.5V | 00:00:00 | 00:00:00 | 00:00:00 | |
| DB0NH | 2026-08-31 12:06:09 | 51.16697 | 9.47366 | 66° | 119km/h | 10371m | -3.2m/s | 0°C | 0% | 0hPa | 4.5V | 00:00:00 | 00:00:00 | 00:00:00 | |
| DL1XH-west | 2026-08-31 12:06:08 | 51.16684 | 9.47321 | 66° | 128km/h | 10371m | -3.3m/s | -47.2°C | 0% | 0hPa | 4.5V | 00:00:00 | 00:00:00 | 00:00:00 | |
| DL1NUX | 2026-08-31 12:06:08 | 51.16684 | 9.47321 | 65° | 128km/h | 10374m | -3.1m/s | 0°C | 0% | 0hPa | 0V | 00:00:00 | 00:00:00 | 00:00:00 | |
| DO2JMG | 2026-08-31 12:06:07 | 51.16658 | 9.47231 | 65° | 119km/h | 10377m | -3.2m/s | -47.5°C | 0% | 0hPa | 4.5V | 00:00:00 | 00:00:00 | 00:00:00 | |
| DL1XH-15 | 2026-08-31 12:06:06 | 51.16658 | 9.47231 | 65° | 119km/h | 10384m | -3.4m/s | 0°C | 0% | 0hPa | 0V | 00:00:00 | 00:00:00 | 00:00:00 | |
| SO1NDE-10 | 2026-08-31 12:06:04 | 51.16631 | 9.47146 | 60° | 128km/h | 10391m | -3.2m/s | 0°C | 0% | 0hPa | 0V | 00:00:00 | 00:00:00 | 00:00:00 | |
| DL1NUX | 2026-08-31 12:06:02 | 51.16523 | 9.46896 | 56° | 137km/h | 10403m | -3.2m/s | 0°C | 0% | 0hPa | 0V | 00:00:00 | 00:00:00 | 00:00:00 | |
| DL1XH-15 | 2026-08-31 12:06:00 | 51.16476 | 9.46755 | 61° | 137km/h | 10426m | -3.1m/s | 0°C | 0% | 0hPa | 0V | 00:00:00 | 00:00:00 | 00:00:00 | |
| DL1XH-west | 2026-08-31 12:05:57 | 51.16511 | 9.46850 | 58° | 137km/h | 10407m | -3.2m/s | -47.7°C | 0% | 0hPa | 4.5V | 00:00:00 | 00:00:00 | 00:00:00 | |
| AA1-15 | 2026-08-31 12:05:54 | 51.16444 | 9.46659 | 63° | 133km/h | 10420m | -3.3m/s | -47.5°C | 0% | 0hPa | 4.4V | 00:00:00 | 00:00:00 | 00:00:00 | |
| DL1NUX | 2026-08-31 12:05:52 | 51.16375 | 9.46437 | 61° | 115km/h | 10439m | -3.4m/s | 0°C | 0% | 0hPa | 0V | 00:00:00 | 00:00:00 | 00:00:00 | |
| DO8TBO-1 | 2026-08-31 12:05:48 | 51.16375 | 9.46436 | 62° | 130km/h | 10439m | -3.4m/s | 0°C | 0% | 0hPa | 4.4V | 00:00:00 | 00:00:00 | 00:00:00 | |
| HSKMA3-T | 2026-08-31 12:05:47 | 51.16345 | 9.46357 | 57° | 117km/h | 10442m | -3.2m/s | -48°C | 0% | 0hPa | 4.4V | 00:00:00 | 00:00:00 | 00:00:00 | |
| DL1XH-15 | 2026-08-31 12:05:42 | 51.16274 | 9.46192 | 55° | 131km/h | 10462m | -3.4m/s | 0°C | 0% | 0hPa | 0V | 00:00:00 | 00:00:00 | 00:00:00 | |
| AA1-15 | 2026-08-31 12:05:41 | 51.16236 | 9.46102 | 57° | 137km/h | 10462m | -3.4m/s | -48.1°C | 0% | 0hPa | 4.5V | 00:00:00 | 00:00:00 | 00:00:00 | |
| DL1NUX | 2026-08-31 12:05:40 | 51.16199 | 9.46008 | 60° | 137km/h | 10471m | -3.3m/s | 0°C | 0% | 0hPa | 0V | 00:00:00 | 00:00:00 | 00:00:00 | |
| DM7RM-13 | 2026-08-31 12:05:39 | 51.16217 | 9.46056 | 60° | 137km/h | 10465m | -3.3m/s | -41.5°C | 0% | 0hPa | 4.5V | 00:00:00 | 00:00:00 | 00:00:00 | |
| HSKMA3-T | 2026-08-31 12:05:36 | 51.16153 | 9.45867 | 64° | 126km/h | 10478m | -3.3m/s | -48.1°C | 0% | 0hPa | 4.5V | 00:00:00 | 00:00:00 | 00:00:00 | |
| SO1NDE-10 | 2026-08-31 12:05:34 | 51.16139 | 9.45820 | 63° | 122km/h | 10484m | -3.0m/s | 0°C | 0% | 0hPa | 0V | 00:00:00 | 00:00:00 | 00:00:00 | |
| DL1XH-15 | 2026-08-31 12:05:32 | 51.16097 | 9.45696 | 59° | 113km/h | 10494m | -3.3m/s | 0°C | 0% | 0hPa | 0V | 00:00:00 | 00:00:00 | 00:00:00 | |
| AA1-15 | 2026-08-31 12:05:30 | 51.16067 | 9.45619 | 56° | 113km/h | 10498m | -3.4m/s | -48.4°C | 0% | 0hPa | 4.5V | 00:00:00 | 00:00:00 | 00:00:00 | |
| DL3OBA | 2026-08-31 12:05:29 | 51.16067 | 9.45619 | 57° | 113km/h | 10498m | -3.4m/s | -48.4°C | 0% | 0hPa | 4.5V | 00:00:00 | 00:00:00 | 00:00:00 | |
| DL1XH-west | 2026-08-31 12:05:25 | 51.15995 | 9.45464 | 53° | 128km/h | 10511m | -3.3m/s | -48.5°C | 0% | 0hPa | 4.5V | 00:00:00 | 00:00:00 | 00:00:00 | |
| DL1NUX | 2026-08-31 12:05:23 | 51.15872 | 9.45154 | 61° | 120km/h | 10536m | -3.3m/s | 0°C | 0% | 0hPa | 0V | 00:00:00 | 00:00:00 | 00:00:00 | |
| DL1XH-15 | 2026-08-31 12:05:22 | 51.15919 | 9.45288 | 60° | 133km/h | 10526m | -3.2m/s | 0°C | 0% | 0hPa | 0V | 00:00:00 | 00:00:00 | 00:00:00 | |
| DM7RM-13 | 2026-08-31 12:05:19 | 51.15872 | 9.45154 | 63° | 120km/h | 10533m | -3.2m/s | -41.6°C | 0% | 0hPa | 4.5V | 00:00:00 | 00:00:00 | 00:00:00 | |
| DO8TBO-1 | 2026-08-31 12:05:18 | 51.15872 | 9.45154 | 62° | 126km/h | 10546m | -3.4m/s | 0°C | 0% | 0hPa | 4.5V | 00:00:00 | 00:00:00 | 00:00:00 | |
| DL1XH-west | 2026-08-31 12:05:14 | 51.15814 | 9.44996 | 56° | 111km/h | 10546m | -3.5m/s | -48.5°C | 0% | 0hPa | 4.5V | 00:00:00 | 00:00:00 | 00:00:00 | |
| DL1XH-15 | 2026-08-31 12:05:12 | 51.15762 | 9.44885 | 50° | 122km/h | 10559m | -3.4m/s | 0°C | 0% | 0hPa | 0V | 00:00:00 | 00:00:00 | 00:00:00 | |
| DL1NUX | 2026-08-31 12:05:08 | 51.15701 | 9.44766 | 58° | 133km/h | 0m | -327.4m/s | 0°C | 0% | 0hPa | 0V | 00:00:00 | 00:00:00 | 00:00:00 | |
| DL1NUX | 2026-08-31 12:05:08 | 51.15626 | 9.44581 | 61° | 131km/h | 10582m | -3.2m/s | 0°C | 0% | 0hPa | 0V | 00:00:00 | 00:00:00 | 00:00:00 | |
| DL3OBA | 2026-08-31 12:05:05 | 51.15643 | 9.44629 | 59° | 133km/h | 10576m | -3.3m/s | -48.3°C | 0% | 0hPa | 4.5V | 00:00:00 | 00:00:00 | 00:00:00 | |
| SO1NDE-10 | 2026-08-31 12:05:04 | 51.15626 | 9.44581 | 62° | 128km/h | 10582m | -3.2m/s | 0°C | 0% | 0hPa | 4.5V | 00:00:00 | 00:00:00 | 00:00:00 | |
| DL1XH-west | 2026-08-31 12:05:03 | 51.15610 | 9.44538 | 61° | 128km/h | 10582m | -3.2m/s | -48.3°C | 0% | 0hPa | 4.5V | 00:00:00 | 00:00:00 | 00:00:00 | |
| DM0DOS-11 | 2026-08-31 12:05:03 | 51.15549 | 9.44369 | 57° | 117km/h | 10609m | -3.2m/s | 0°C | 0% | 0hPa | 0V | 00:00:00 | 00:00:00 | 00:00:00 | |
| DL1XH-15 | 2026-08-31 12:05:02 | 51.15580 | 9.44451 | 60° | 120km/h | 10592m | -3.3m/s | 0°C | 0% | 0hPa | 0V | 00:00:00 | 00:00:00 | 00:00:00 | |
| AA1-15 | 2026-08-31 12:05:00 | 51.15550 | 9.44369 | 58° | 117km/h | 10595m | -3.3m/s | -48.3°C | 0% | 0hPa | 4.5V | 00:00:00 | 00:00:00 | 00:00:00 | |
| DL1NUX | 2026-08-31 12:04:58 | 51.15462 | 9.44172 | 53° | 128km/h | 10625m | -3.3m/s | 0°C | 0% | 0hPa | 0V | 00:00:00 | 00:00:00 | 00:00:00 | |
| DM7RM-13 | 2026-08-31 12:04:57 | 51.15517 | 9.44291 | 56° | 119km/h | 10602m | -3.3m/s | -42.0°C | 0% | 0hPa | 0V | 00:00:00 | 00:00:00 | 00:00:00 | |
| DM0DOS-11 | 2026-08-31 12:04:53 | 51.15365 | 9.43954 | 59° | 137km/h | 10631m | -3.3m/s | 0°C | 0% | 0hPa | 0V | 00:00:00 | 00:00:00 | 00:00:00 | |
| DL1XH-15 | 2026-08-31 12:04:52 | 51.15403 | 9.44044 | 54° | 135km/h | 10622m | -3.3m/s | 0°C | 0% | 0hPa | 0V | 00:00:00 | 00:00:00 | 00:00:00 | |
| AA1-15 | 2026-08-31 12:04:49 | 51.15347 | 9.43907 | 59° | 137km/h | 10632m | -3.4m/s | -48.5°C | 0% | 0hPa | 4.5V | 00:00:00 | 00:00:00 | 00:00:00 | |
| DO8TBO-1 | 2026-08-31 12:04:45 | 51.15298 | 9.43765 | 63° | 128km/h | 10642m | -3.5m/s | 0°C | 0% | 0hPa | 0V | 00:00:00 | 00:00:00 | 00:00:00 | |
| DM0DOS-11 | 2026-08-31 12:04:43 | 51.15206 | 9.43517 | 53° | 119km/h | 10669m | -3.4m/s | 0°C | 0% | 0hPa | 0V | 00:00:00 | 00:00:00 | 00:00:00 | |
| DL1XH-15 | 2026-08-31 12:04:42 | 51.15240 | 9.43594 | 57° | 115km/h | 10669m | -3.4m/s | 0°C | 0% | 0hPa | 0V | 00:00:00 | 00:00:00 | 00:00:00 | |
| DM7RM-13 | 2026-08-31 12:04:37 | 51.15150 | 9.43396 | 55° | 131km/h | 10670m | -3.4m/s | -42.3°C | 0% | 0hPa | 0V | 00:00:00 | 00:00:00 | 00:00:00 | |
| SO1NDE-10 | 2026-08-31 12:04:34 | 51.15108 | 9.43306 | 58° | 128km/h | 10680m | -3.2m/s | 0°C | 0% | 0hPa | 0V | 00:00:00 | 00:00:00 | 00:00:00 | |
| DL1NUX | 2026-08-31 12:04:33 | 51.15013 | 9.43025 | 62° | 124km/h | 10714m | -3.4m/s | 0°C | 0% | 0hPa | 0V | 00:00:00 | 00:00:00 | 00:00:00 | |
| AA1-15 | 2026-08-31 12:04:32 | 51.15075 | 9.43212 | 61° | 137km/h | 10686m | -3.4m/s | -48.9°C | 0% | 0hPa | 4.5V | 00:00:00 | 00:00:00 | 00:00:00 | |
| HSKMA3-T | 2026-08-31 12:04:32 | 51.15059 | 9.43164 | 62° | 135km/h | 10690m | -3.5m/s | -48.9°C | 0% | 0hPa | 4.5V | 00:00:00 | 00:00:00 | 00:00:00 | |
| DL1XH-15 | 2026-08-31 12:04:30 | 51.14969 | 9.42899 | 58° | 115km/h | 10714m | -3.4m/s | 0°C | 0% | 0hPa | 0V | 00:00:00 | 00:00:00 | 00:00:00 | |
| DO2JMG | 2026-08-31 12:04:23 | 51.14938 | 9.42821 | 56° | 115km/h | 10718m | -3.5m/s | -48.9°C | 0% | 0hPa | 4.5V | 00:00:00 | 00:00:00 | 00:00:00 | |
| DL1XH-west | 2026-08-31 12:04:21 | 51.14904 | 9.42744 | 54° | 122km/h | 10725m | -3.5m/s | 0°C | 0% | 0hPa | 0V | 00:00:00 | 00:00:00 | 00:00:00 | |
| HSKMA3-T | 2026-08-31 12:04:21 | 51.14885 | 9.42703 | 53° | 126km/h | 10729m | -3.5m/s | -49°C | 0% | 0hPa | 4.5V | 00:00:00 | 00:00:00 | 00:00:00 | |
| DL1NUX | 2026-08-31 12:04:20 | 51.14827 | 9.42573 | 55° | 137km/h | 10739m | -3.4m/s | 0°C | 0% | 0hPa | 0V | 00:00:00 | 00:00:00 | 00:00:00 | |
| BIOWL1-15 | 2026-08-31 12:04:19 | 51.14827 | 9.42573 | 56° | 137km/h | 10739m | -3.4m/s | -49°C | 0% | 0hPa | 4.5V | 00:00:00 | 00:00:00 | 00:00:00 | |
| DL1XH-15 | 2026-08-31 12:04:16 | 51.14789 | 9.42479 | 59° | 139km/h | 10776m | -3.5m/s | 0°C | 0% | 0hPa | 0V | 00:00:00 | 00:00:00 | 00:00:00 | |
| DM7RM-13 | 2026-08-31 12:04:16 | 51.14789 | 9.42479 | 60° | 139km/h | 10745m | -3.4m/s | -42.3°C | 0% | 0hPa | 5.6V | 00:00:00 | 00:00:00 | 00:00:00 | |
| DO8TBO-1 | 2026-08-31 12:04:15 | 51.14789 | 9.42479 | 60° | 128km/h | 10762m | -3.3m/s | 0°C | 0% | 0hPa | 5.6V | 00:00:00 | 00:00:00 | 00:00:00 | |
| DL3OBA | 2026-08-31 12:04:14 | 51.14771 | 9.42431 | 62° | 139km/h | 10749m | -3.5m/s | -48.7°C | 0% | 0hPa | 5.6V | 00:00:00 | 00:00:00 | 00:00:00 | |
| BIOWL1-15 | 2026-08-31 12:04:10 | 51.14679 | 9.42159 | 59° | 120km/h | 10769m | -3.3m/s | -48.6°C | 0% | 0hPa | 5.6V | 00:00:00 | 00:00:00 | 00:00:00 | |
| DO2JMG | 2026-08-31 12:04:10 | 51.14695 | 9.42201 | 60° | 120km/h | 10766m | -3.3m/s | -48.6°C | 0% | 0hPa | 4.8V | 00:00:00 | 00:00:00 | 00:00:00 | |
| DL1XH-15 | 2026-08-31 12:04:09 | 51.14610 | 9.42005 | 52° | 122km/h | 10786m | -3.6m/s | 0°C | 0% | 0hPa | 0V | 00:00:00 | 00:00:00 | 00:00:00 | |
| AA1-15 | 2026-08-31 12:04:04 | 51.14591 | 9.41961 | 52° | 126km/h | 10786m | -3.6m/s | -48.6°C | 0% | 0hPa | 4.5V | 00:00:00 | 00:00:00 | 00:00:00 | |
| SO1NDE-10 | 2026-08-31 12:04:03 | 51.14591 | 9.41961 | 53° | 128km/h | 10799m | -3.2m/s | 0°C | 0% | 0hPa | 4.5V | 00:00:00 | 00:00:00 | 00:00:00 | |
| HSKMA3-T | 2026-08-31 12:03:59 | 51.14494 | 9.41738 | 60° | 139km/h | 10803m | -3.3m/s | -48.5°C | 0% | 0hPa | 4.5V | 00:00:00 | 00:00:00 | 00:00:00 | |
| DL1XH-15 | 2026-08-31 12:03:56 | 51.14431 | 9.41548 | 63° | 124km/h | 10820m | -3.4m/s | 0°C | 0% | 0hPa | 0V | 00:00:00 | 00:00:00 | 00:00:00 | |
| DM7RM-13 | 2026-08-31 12:03:54 | 51.14431 | 9.41548 | 65° | 124km/h | 10817m | -3.5m/s | -41.9°C | 0% | 0hPa | 4.5V | 00:00:00 | 00:00:00 | 00:00:00 | |
| BIOWL1-15 | 2026-08-31 12:03:52 | 51.14404 | 9.41461 | 61° | 117km/h | 10823m | -3.4m/s | -48.6°C | 0% | 0hPa | 4.5V | 00:00:00 | 00:00:00 | 00:00:00 | |
| DL3OBA | 2026-08-31 12:03:52 | 51.14403 | 9.41461 | 62° | 117km/h | 10823m | -3.4m/s | -48.6°C | 0% | 0hPa | 0V | 00:00:00 | 00:00:00 | 00:00:00 | |
| DL1NUX | 2026-08-31 12:03:50 | 51.14304 | 9.41220 | 55° | 128km/h | 10850m | -3.1m/s | 0°C | 0% | 0hPa | 0V | 00:00:00 | 00:00:00 | 00:00:00 | |
| DL1XH-15 | 2026-08-31 12:03:49 | 51.14268 | 9.41132 | 59° | 131km/h | 10857m | -3.2m/s | 0°C | 0% | 0hPa | 0V | 00:00:00 | 00:00:00 | 00:00:00 | |
| HSKMA3-T | 2026-08-31 12:03:49 | 51.14340 | 9.41302 | 55° | 122km/h | 10837m | -3.2m/s | -48.8°C | 0% | 0hPa | 4.5V | 00:00:00 | 00:00:00 | 00:00:00 | |
| BIOWL1-15 | 2026-08-31 12:03:43 | 51.14233 | 9.41043 | 59° | 130km/h | 10857m | -3.2m/s | -48.7°C | 0% | 0hPa | 4.5V | 00:00:00 | 00:00:00 | 00:00:00 | |
| AA1-15 | 2026-08-31 12:03:42 | 51.14216 | 9.40998 | 59° | 130km/h | 10860m | -3.3m/s | -48.7°C | 0% | 0hPa | 4.4V | 00:00:00 | 00:00:00 | 00:00:00 | |
| HSKMA3-T | 2026-08-31 12:03:38 | 51.14152 | 9.40818 | 62° | 128km/h | 10873m | -3.3m/s | -48.5°C | 0% | 0hPa | 4.4V | 00:00:00 | 00:00:00 | 00:00:00 | |
| DM7RM-13 | 2026-08-31 12:03:34 | 51.14083 | 9.40592 | 66° | 119km/h | 10890m | -3.4m/s | -41.8°C | 0% | 0hPa | 4.5V | 00:00:00 | 00:00:00 | 00:00:00 | |
| AA1-15 | 2026-08-31 12:03:32 | 51.14070 | 9.40550 | 64° | 117km/h | 10894m | -3.5m/s | -48.4°C | 0% | 0hPa | 4.5V | 00:00:00 | 00:00:00 | 00:00:00 | |
| DL1NUX | 2026-08-31 12:03:30 | 51.13995 | 9.40351 | 54° | 119km/h | 10914m | -3.4m/s | 0°C | 0% | 0hPa | 0V | 00:00:00 | 00:00:00 | 00:00:00 | |
| SO1NDE-10 | 2026-08-31 12:03:30 | 51.14057 | 9.40508 | 63° | 117km/h | 10900m | -3.2m/s | 0°C | 0% | 0hPa | 4.5V | 00:00:00 | 00:00:00 | 00:00:00 | |
| DL3OBA | 2026-08-31 12:03:29 | 51.14028 | 9.40468 | 61° | 115km/h | 10900m | -3.2m/s | -48.3°C | 0% | 0hPa | 4.5V | 00:00:00 | 00:00:00 | 00:00:00 | |
| HSKMA3-T | 2026-08-31 12:03:27 | 51.13995 | 9.40351 | 54° | 119km/h | 10911m | -3.2m/s | -48.3°C | 0% | 0hPa | 4.5V | 00:00:00 | 00:00:00 | 00:00:00 | |
| DL1XH-west | 2026-08-31 12:03:24 | 51.13941 | 9.40233 | 54° | 126km/h | 10921m | -3.4m/s | -48.2°C | 0% | 0hPa | 4.5V | 00:00:00 | 00:00:00 | 00:00:00 | |
| BIOWL1-15 | 2026-08-31 12:03:21 | 51.13856 | 9.40012 | 64° | 128km/h | 10937m | -3.2m/s | -48.2°C | 0% | 0hPa | 4.5V | 00:00:00 | 00:00:00 | 00:00:00 | |
| AA1-15 | 2026-08-31 12:03:21 | 51.13887 | 9.40103 | 60° | 130km/h | 10930m | -3.1m/s | -48.2°C | 0% | 0hPa | 4.5V | 00:00:00 | 00:00:00 | 00:00:00 | |
| HSKMA3-T | 2026-08-31 12:03:16 | 51.13816 | 9.39878 | 65° | 117km/h | 10947m | -3.4m/s | -48.3°C | 0% | 0hPa | 4.5V | 00:00:00 | 00:00:00 | 00:00:00 | |
| DL1XH-west | 2026-08-31 12:03:14 | 51.13790 | 9.39797 | 61° | 110km/h | 10953m | -3.1m/s | -48.4°C | 0% | 0hPa | 4.5V | 00:00:00 | 00:00:00 | 00:00:00 | |
| DO8TBO-1 | 2026-08-31 12:03:13 | 51.13790 | 9.39797 | 61° | 119km/h | 10960m | -3.1m/s | 0°C | 0% | 0hPa | 4.5V | 00:00:00 | 00:00:00 | 00:00:00 | |
| DM7RM-13 | 2026-08-31 12:03:12 | 51.13762 | 9.39759 | 60° | 108km/h | 10957m | -3.2m/s | -41.9°C | 0% | 0hPa | 4.5V | 00:00:00 | 00:00:00 | 00:00:00 | |
| AA1-15 | 2026-08-31 12:03:10 | 51.13730 | 9.39651 | 54° | 115km/h | 10966m | -3.4m/s | -48.6°C | 0% | 0hPa | 4.5V | 00:00:00 | 00:00:00 | 00:00:00 | |
| DL3OBA | 2026-08-31 12:03:07 | 51.13694 | 9.39573 | 55° | 124km/h | 10973m | -3.2m/s | -48.7°C | 0% | 0hPa | 4.5V | 00:00:00 | 00:00:00 | 00:00:00 | |
| BIOWL1-15 | 2026-08-31 12:03:06 | 51.13580 | 9.39271 | 62° | 117km/h | 10996m | -3.1m/s | -49°C | 0% | 0hPa | 4.5V | 00:00:00 | 00:00:00 | 00:00:00 | |
| HSKMA3-T | 2026-08-31 12:03:05 | 51.13659 | 9.39488 | 58° | 130km/h | 10980m | -3.2m/s | -48.7°C | 0% | 0hPa | 4.5V | 00:00:00 | 00:00:00 | 00:00:00 | |
| DL1XH-west | 2026-08-31 12:03:03 | 51.13625 | 9.39400 | 60° | 128km/h | 10986m | -3.3m/s | -48.8°C | 0% | 0hPa | 4.5V | 00:00:00 | 00:00:00 | 00:00:00 | |
| EDDB2-12 | 2026-08-31 12:03:02 | 51.13595 | 9.39313 | 61° | 120km/h | 10993m | -3.2m/s | -49.4°C | -1.0% | -1.0hPa | 4.5V | 00:00:00 | 00:00:00 | 00:00:00 | |
| AA1-15 | 2026-08-31 12:02:59 | 51.13553 | 9.39190 | 61° | 111km/h | 11002m | -3.3m/s | -49.1°C | 0% | 0hPa | 4.5V | 00:00:00 | 00:00:00 | 00:00:00 | |
| DO2JMG | 2026-08-31 12:02:54 | 51.13497 | 9.39040 | 56° | 108km/h | 11016m | -3.3m/s | -48.9°C | 0% | 0hPa | 4.5V | 00:00:00 | 00:00:00 | 00:00:00 | |
| DL1XH-west | 2026-08-31 12:02:51 | 51.13426 | 9.38894 | 52° | 122km/h | 11029m | -3.5m/s | -48.9°C | 0% | 0hPa | 4.5V | 00:00:00 | 00:00:00 | 00:00:00 | |
| AA1-15 | 2026-08-31 12:02:48 | 51.13370 | 9.38773 | 57° | 128km/h | 11040m | -3.3m/s | -48.9°C | 0% | 0hPa | 4.5V | 00:00:00 | 00:00:00 | 00:00:00 | |
| DB0NH | 2026-08-31 12:02:45 | 51.13337 | 9.38686 | 62° | 117km/h | 11053m | -3.3m/s | 0°C | 0% | 0hPa | 4.5V | 00:00:00 | 00:00:00 | 00:00:00 | |
| BIOWL1-15 | 2026-08-31 12:02:43 | 51.13309 | 9.38599 | 64° | 119km/h | 11053m | -3.3m/s | -49°C | 0% | 0hPa | 4.5V | 00:00:00 | 00:00:00 | 00:00:00 | |
| DO8TBO-1 | 2026-08-31 12:02:43 | 51.13309 | 9.38599 | 64° | 115km/h | 11056m | -3.5m/s | 0°C | 0% | 0hPa | 4.5V | 00:00:00 | 00:00:00 | 00:00:00 | |
| DL1XH-west | 2026-08-31 12:02:40 | 51.13258 | 9.38438 | 60° | 108km/h | 11066m | -3.5m/s | -48.9°C | 0% | 0hPa | 4.5V | 00:00:00 | 00:00:00 | 00:00:00 | |
| AA1-15 | 2026-08-31 12:02:38 | 51.13229 | 9.38364 | 56° | 111km/h | 11073m | -3.3m/s | -48.7°C | 0% | 0hPa | 4.5V | 00:00:00 | 00:00:00 | 00:00:00 | |
| DO2JMG | 2026-08-31 12:02:33 | 51.13143 | 9.38162 | 58° | 131km/h | 11090m | -3.3m/s | -48.7°C | 0% | 0hPa | 4.5V | 00:00:00 | 00:00:00 | 00:00:00 | |
| DL1XH-west | 2026-08-31 12:02:30 | 51.13081 | 9.37977 | 66° | 126km/h | 11104m | -3.2m/s | -48.7°C | 0% | 0hPa | 4.5V | 00:00:00 | 00:00:00 | 00:00:00 | |
| AA1-15 | 2026-08-31 12:02:27 | 51.13056 | 9.37887 | 68° | 119km/h | 11111m | -3.4m/s | -48.7°C | 0% | 0hPa | 4.5V | 00:00:00 | 00:00:00 | 00:00:00 | |
| DL3OBA | 2026-08-31 12:02:25 | 51.13045 | 9.37843 | 69° | 113km/h | 11115m | -3.5m/s | -48.7°C | 0% | 0hPa | 4.5V | 00:00:00 | 00:00:00 | 00:00:00 | |
| HSKMA3-T | 2026-08-31 12:02:23 | 51.13011 | 9.37724 | 63° | 104km/h | 11125m | -3.6m/s | -48.6°C | 0% | 0hPa | 4.5V | 00:00:00 | 00:00:00 | 00:00:00 | |
| DM0DOS-11 | 2026-08-31 12:02:22 | 51.12984 | 9.37652 | 55° | 108km/h | 11135m | -3.4m/s | 0°C | 0% | 0hPa | 0V | 00:00:00 | 00:00:00 | 00:00:00 | |
| DL1XH-west | 2026-08-31 12:02:20 | 51.12969 | 9.37615 | 56° | 111km/h | 11135m | -3.4m/s | -48.3°C | 0% | 0hPa | 4.5V | 00:00:00 | 00:00:00 | 00:00:00 | |
| DL1NUX | 2026-08-31 12:02:19 | 51.12918 | 9.37501 | 60° | 122km/h | 11152m | -3.3m/s | 0°C | 0% | 0hPa | 0V | 00:00:00 | 00:00:00 | 00:00:00 | |
| DO2JMG | 2026-08-31 12:02:19 | 51.12953 | 9.37577 | 55° | 115km/h | 11139m | -3.3m/s | -48.2°C | 0% | 0hPa | 4.5V | 00:00:00 | 00:00:00 | 00:00:00 | |
| AA1-15 | 2026-08-31 12:02:16 | 51.12902 | 9.37457 | 58° | 124km/h | 11149m | -3.4m/s | -47.9°C | 0% | 0hPa | 4.5V | 00:00:00 | 00:00:00 | 00:00:00 | |
| DB0NH | 2026-08-31 12:02:15 | 51.12902 | 9.37457 | 58° | 124km/h | 11152m | -3.3m/s | 0°C | 0% | 0hPa | 4.5V | 00:00:00 | 00:00:00 | 00:00:00 | |
| DO8TBO-1 | 2026-08-31 12:02:13 | 51.12870 | 9.37371 | 63° | 111km/h | 11159m | -3.3m/s | 0°C | 0% | 0hPa | 4.5V | 00:00:00 | 00:00:00 | 00:00:00 | |
| HSKMA3-T | 2026-08-31 12:02:12 | 51.12844 | 9.37284 | 65° | 119km/h | 11163m | -3.3m/s | -47.6°C | 0% | 0hPa | 4.5V | 00:00:00 | 00:00:00 | 00:00:00 | |
| SO1NDE-10 | 2026-08-31 12:02:11 | 51.12843 | 9.37284 | 66° | 113km/h | 11166m | -3.2m/s | 0°C | 0% | 0hPa | 4.5V | 00:00:00 | 00:00:00 | 00:00:00 | |
| DL1XH-west | 2026-08-31 12:02:09 | 51.12820 | 9.37200 | 65° | 111km/h | 11169m | -3.2m/s | -47.6°C | 0% | 0hPa | 4.5V | 00:00:00 | 00:00:00 | 00:00:00 | |
| AA1-15 | 2026-08-31 12:02:05 | 51.12756 | 9.37018 | 55° | 102km/h | 11186m | -3.5m/s | -47.5°C | 0% | 0hPa | 4.5V | 00:00:00 | 00:00:00 | 00:00:00 | |
| DO2JMG | 2026-08-31 12:02:03 | 51.12740 | 9.36984 | 53° | 106km/h | 11190m | -3.4m/s | -47.5°C | 0% | 0hPa | 4.8V | 00:00:00 | 00:00:00 | 00:00:00 | |
| HSKMA3-T | 2026-08-31 12:02:01 | 51.12689 | 9.36876 | 53° | 119km/h | 11200m | -3.5m/s | -47.5°C | 0% | 0hPa | 4.5V | 00:00:00 | 00:00:00 | 00:00:00 | |
| DM0DOS-11 | 2026-08-31 12:02:00 | 51.12688 | 9.36876 | 53° | 119km/h | 11204m | -3.4m/s | 0°C | 0% | 0hPa | 0V | 00:00:00 | 00:00:00 | 00:00:00 | |
| DL1XH-west | 2026-08-31 12:01:58 | 51.12621 | 9.36711 | 61° | 122km/h | 11214m | -3.4m/s | -47.5°C | 0% | 0hPa | 4.5V | 00:00:00 | 00:00:00 | 00:00:00 | |
| DL1NUX | 2026-08-31 12:01:57 | 51.12570 | 9.36544 | 58° | 104km/h | 11235m | -3.4m/s | 0°C | 0% | 0hPa | 0V | 00:00:00 | 00:00:00 | 00:00:00 | |
| AA1-15 | 2026-08-31 12:01:55 | 51.12594 | 9.36627 | 64° | 113km/h | 11222m | -3.5m/s | -47.6°C | 0% | 0hPa | 4.5V | 00:00:00 | 00:00:00 | 00:00:00 | |
| BIOWL1-15 | 2026-08-31 12:01:50 | 51.12530 | 9.36444 | 55° | 100km/h | 11238m | -3.4m/s | -47.6°C | 0% | 0hPa | 4.8V | 00:00:00 | 00:00:00 | 00:00:00 | |
| DM0DOS-11 | 2026-08-31 12:01:47 | 51.12463 | 9.36306 | 51° | 117km/h | 11258m | -3.5m/s | 0°C | 0% | 0hPa | 0V | 00:00:00 | 00:00:00 | 00:00:00 | |
| DL1NUX | 2026-08-31 12:01:46 | 51.12391 | 9.36144 | 58° | 126km/h | 11270m | -3.6m/s | 0°C | 0% | 0hPa | 0V | 00:00:00 | 00:00:00 | 00:00:00 | |
| AA1-15 | 2026-08-31 12:01:44 | 51.12426 | 9.36228 | 54° | 124km/h | 11258m | -3.5m/s | -47.7°C | 0% | 0hPa | 4.5V | 00:00:00 | 00:00:00 | 00:00:00 | |
| DO8TBO-1 | 2026-08-31 12:01:43 | 51.12426 | 9.36228 | 55° | 113km/h | 11262m | -3.5m/s | 0°C | 0% | 0hPa | 4.5V | 00:00:00 | 00:00:00 | 00:00:00 | |
| DO2JMG | 2026-08-31 12:01:41 | 51.12391 | 9.36144 | 59° | 126km/h | 11266m | -3.6m/s | -47.8°C | 0% | 0hPa | 4.5V | 00:00:00 | 00:00:00 | 00:00:00 | |
| SO1NDE-10 | 2026-08-31 12:01:41 | 51.12391 | 9.36144 | 59° | 111km/h | 11270m | -3.6m/s | 0°C | 0% | 0hPa | 4.5V | 00:00:00 | 00:00:00 | 00:00:00 | |
| HSKMA3-T | 2026-08-31 12:01:39 | 51.12361 | 9.36059 | 62° | 119km/h | 11274m | -3.5m/s | -47.8°C | 0% | 0hPa | 4.5V | 00:00:00 | 00:00:00 | 00:00:00 | |
| BIOWL1-15 | 2026-08-31 12:01:38 | 51.12333 | 9.35978 | 62° | 110km/h | 11280m | -3.5m/s | -47.8°C | 0% | 0hPa | 4.8V | 00:00:00 | 00:00:00 | 00:00:00 | |
| DM0DOS-11 | 2026-08-31 12:01:37 | 51.12307 | 9.35904 | 58° | 104km/h | 11287m | -3.4m/s | 0°C | 0% | 0hPa | 0V | 00:00:00 | 00:00:00 | 00:00:00 | |
| AA1-15 | 2026-08-31 12:01:33 | 51.12261 | 9.35802 | 52° | 106km/h | 11297m | -3.1m/s | -47.6°C | 0% | 0hPa | 4.5V | 00:00:00 | 00:00:00 | 00:00:00 | |
| DO2JMG | 2026-08-31 12:01:31 | 51.12227 | 9.35735 | 50° | 111km/h | 11304m | -3.4m/s | -47.5°C | 0% | 0hPa | 4.5V | 00:00:00 | 00:00:00 | 00:00:00 | |
| HSKMA3-T | 2026-08-31 12:01:29 | 51.12189 | 9.35663 | 51° | 120km/h | 11311m | -3.6m/s | -47.4°C | 0% | 0hPa | 4.5V | 00:00:00 | 00:00:00 | 00:00:00 | |
| DL1XH-west | 2026-08-31 12:01:27 | 51.12152 | 9.35585 | 55° | 124km/h | 11318m | -3.5m/s | -47.4°C | 0% | 0hPa | 4.5V | 00:00:00 | 00:00:00 | 00:00:00 | |
| DL1NUX | 2026-08-31 12:01:26 | 51.12074 | 9.35381 | 60° | 110km/h | 11339m | -3.3m/s | 0°C | 0% | 0hPa | 0V | 00:00:00 | 00:00:00 | 00:00:00 | |
| DM0DOS-11 | 2026-08-31 12:01:24 | 51.12118 | 9.35501 | 59° | 122km/h | 11329m | -3.4m/s | 0°C | 0% | 0hPa | 0V | 00:00:00 | 00:00:00 | 00:00:00 | |
| AA1-15 | 2026-08-31 12:01:22 | 51.12074 | 9.35381 | 60° | 110km/h | 11336m | -3.2m/s | -47.3°C | 0% | 0hPa | 4.5V | 00:00:00 | 00:00:00 | 00:00:00 | |
| DO2JMG | 2026-08-31 12:01:20 | 51.12047 | 9.35308 | 58° | 102km/h | 11342m | -3.4m/s | -47.3°C | 0% | 0hPa | 4.5V | 00:00:00 | 00:00:00 | 00:00:00 | |
| HSKMA3-T | 2026-08-31 12:01:18 | 51.12018 | 9.35240 | 54° | 102km/h | 11349m | -3.3m/s | -47.2°C | 0% | 0hPa | 4.5V | 00:00:00 | 00:00:00 | 00:00:00 | |
| DL1NUX | 2026-08-31 12:01:16 | 51.11908 | 9.35030 | 51° | 126km/h | 11376m | -3.5m/s | 0°C | 0% | 0hPa | 0V | 00:00:00 | 00:00:00 | 00:00:00 | |
| DL1XH-west | 2026-08-31 12:01:15 | 51.11985 | 9.35174 | 50° | 108km/h | 11356m | -3.4m/s | -47.1°C | 0% | 0hPa | 4.5V | 00:00:00 | 00:00:00 | 00:00:00 | |
| DO8TBO-1 | 2026-08-31 12:01:13 | 51.11948 | 9.35105 | 50° | 117km/h | 11366m | -3.3m/s | 0°C | 0% | 0hPa | 4.5V | 00:00:00 | 00:00:00 | 00:00:00 | |
| AA1-15 | 2026-08-31 12:01:12 | 51.11908 | 9.35030 | 52° | 126km/h | 11369m | -3.5m/s | -47.2°C | 0% | 0hPa | 4.5V | 00:00:00 | 00:00:00 | 00:00:00 | |
| SO1NDE-10 | 2026-08-31 12:01:11 | 51.11908 | 9.35030 | 52° | 119km/h | 11376m | -3.5m/s | 0°C | 0% | 0hPa | 4.5V | 00:00:00 | 00:00:00 | 00:00:00 | |
| DO2JMG | 2026-08-31 12:01:09 | 51.11853 | 9.34905 | 58° | 126km/h | 11380m | -3.5m/s | -47.2°C | 0% | 0hPa | 4.5V | 00:00:00 | 00:00:00 | 00:00:00 | |
| HSKMA3-T | 2026-08-31 12:01:07 | 51.11822 | 9.34819 | 62° | 119km/h | 11387m | -3.6m/s | -47.2°C | 0% | 0hPa | 4.5V | 00:00:00 | 00:00:00 | 00:00:00 | |
| DL1NUX | 2026-08-31 12:01:06 | 51.11754 | 9.34647 | 51° | 104km/h | 11414m | -3.2m/s | 0°C | 0% | 0hPa | 0V | 00:00:00 | 00:00:00 | 00:00:00 | |
| DM0DOS-11 | 2026-08-31 12:01:05 | 51.11795 | 9.34739 | 61° | 108km/h | 11398m | -3.5m/s | 0°C | 0% | 0hPa | 0V | 00:00:00 | 00:00:00 | 00:00:00 | |
| DL1XH-west | 2026-08-31 12:01:05 | 51.11795 | 9.34739 | 62° | 108km/h | 11395m | -3.5m/s | -47.2°C | 0% | 0hPa | 4.5V | 00:00:00 | 00:00:00 | 00:00:00 | |
| AA1-15 | 2026-08-31 12:01:01 | 51.11738 | 9.34597 | 53° | 108km/h | 11408m | -3.3m/s | -47°C | 0% | 0hPa | 4.5V | 00:00:00 | 00:00:00 | 00:00:00 | |
| DO2JMG | 2026-08-31 12:00:58 | 51.11703 | 9.34526 | 52° | 119km/h | 11414m | -3.2m/s | -46.9°C | 0% | 0hPa | 4.5V | 00:00:00 | 00:00:00 | 00:00:00 | |
| DL1NUX | 2026-08-31 12:00:56 | 51.11581 | 9.34225 | 63° | 124km/h | 11453m | -3.5m/s | 0°C | 0% | 0hPa | 0V | 00:00:00 | 00:00:00 | 00:00:00 | |
| DM0DOS-11 | 2026-08-31 12:00:54 | 51.11628 | 9.34360 | 60° | 131km/h | 11432m | -3.7m/s | 0°C | 0% | 0hPa | 0V | 00:00:00 | 00:00:00 | 00:00:00 | |
| DL1XH-west | 2026-08-31 12:00:54 | 51.11611 | 9.34315 | 61° | 130km/h | 11432m | -3.7m/s | -46.6°C | 0% | 0hPa | 4.5V | 00:00:00 | 00:00:00 | 00:00:00 | |
| AA1-15 | 2026-08-31 12:00:50 | 51.11555 | 9.34139 | 64° | 113km/h | 11447m | -3.5m/s | -46.7°C | 0% | 0hPa | 4.5V | 00:00:00 | 00:00:00 | 00:00:00 | |
| DO2JMG | 2026-08-31 12:00:48 | 51.11543 | 9.34099 | 63° | 108km/h | 11450m | -3.3m/s | -46.8°C | 0% | 0hPa | 4.5V | 00:00:00 | 00:00:00 | 00:00:00 | |
| HSKMA3-T | 2026-08-31 12:00:46 | 51.11502 | 9.33989 | 56° | 108km/h | 11460m | -3.8m/s | -46.6°C | 0% | 0hPa | 4.5V | 00:00:00 | 00:00:00 | 00:00:00 | |
| DL1XH-15 | 2026-08-31 12:00:44 | 51.11416 | 9.33792 | 58° | 130km/h | 11485m | -3.6m/s | 0°C | 0% | 0hPa | 0V | 00:00:00 | 00:00:00 | 00:00:00 | |
| DL1XH-west | 2026-08-31 12:00:44 | 51.11469 | 9.33916 | 54° | 117km/h | 11467m | -3.5m/s | -46.6°C | 0% | 0hPa | 4.5V | 00:00:00 | 00:00:00 | 00:00:00 | |
| DO8TBO-1 | 2026-08-31 12:00:43 | 51.11469 | 9.33916 | 54° | 122km/h | 11471m | -3.4m/s | 0°C | 0% | 0hPa | 0V | 00:00:00 | 00:00:00 | 00:00:00 | |
| DO3DL | 2026-08-31 12:00:42 | 51.11451 | 9.33877 | 55° | 122km/h | 11471m | -3.4m/s | -46.6°C | 0% | 0hPa | 0V | 00:00:00 | 00:00:00 | 00:00:00 | |
| SO1NDE-10 | 2026-08-31 12:00:41 | 51.11434 | 9.33837 | 59° | 120km/h | 11478m | -3.5m/s | 0°C | 0% | 0hPa | 0V | 00:00:00 | 00:00:00 | 00:00:00 | |
| DL1NUX | 2026-08-31 12:00:39 | 51.11399 | 9.33735 | 64° | 131km/h | 11493m | -3.6m/s | 0°C | 0% | 0hPa | 0V | 00:00:00 | 00:00:00 | 00:00:00 | |
| AA1-15 | 2026-08-31 12:00:39 | 51.11383 | 9.33701 | 62° | 130km/h | 11485m | -3.6m/s | -46.8°C | 0% | 0hPa | 4.5V | 00:00:00 | 00:00:00 | 00:00:00 | |
| DO3DL | 2026-08-31 12:00:37 | 51.11354 | 9.33610 | 65° | 124km/h | 11493m | -3.6m/s | -46.8°C | 0% | 0hPa | 4.5V | 00:00:00 | 00:00:00 | 00:00:00 | |
| HSKMA3-T | 2026-08-31 12:00:35 | 51.11327 | 9.33522 | 65° | 117km/h | 11500m | -3.3m/s | -46.8°C | 0% | 0hPa | 4.5V | 00:00:00 | 00:00:00 | 00:00:00 | |
| DL1XH-west | 2026-08-31 12:00:33 | 51.11315 | 9.33480 | 64° | 113km/h | 11503m | -3.4m/s | -46.8°C | 0% | 0hPa | 4.5V | 00:00:00 | 00:00:00 | 00:00:00 | |
| DL1NUX | 2026-08-31 12:00:29 | 51.11217 | 9.33198 | 59° | 122km/h | 11530m | -3.6m/s | 0°C | 0% | 0hPa | 0V | 00:00:00 | 00:00:00 | 00:00:00 | |
| AA1-15 | 2026-08-31 12:00:29 | 51.11248 | 9.33280 | 60° | 117km/h | 11520m | -3.5m/s | -46.8°C | 0% | 0hPa | 4.5V | 00:00:00 | 00:00:00 | 00:00:00 | |
| DO3DL | 2026-08-31 12:00:26 | 51.11217 | 9.33197 | 61° | 122km/h | 11527m | -3.4m/s | -46.8°C | 0% | 0hPa | 4.5V | 00:00:00 | 00:00:00 | 00:00:00 | |
| HSKMA3-T | 2026-08-31 12:00:24 | 51.11170 | 9.33067 | 60° | 126km/h | 11536m | -3.5m/s | -46.8°C | 0% | 0hPa | 4.5V | 00:00:00 | 00:00:00 | 00:00:00 | |
| DL1XH-west | 2026-08-31 12:00:23 | 51.11154 | 9.33024 | 60° | 126km/h | 11539m | -3.5m/s | -46.7°C | 0% | 0hPa | 4.5V | 00:00:00 | 00:00:00 | 00:00:00 | |
| DO3MHA-11 | 2026-08-31 12:00:22 | 51.11154 | 9.33023 | 61° | 120km/h | 11553m | -3.5m/s | 0°C | 0% | 0hPa | 0V | 00:00:00 | 00:00:00 | 00:00:00 | |
| DO3DL | 2026-08-31 12:00:19 | 51.11106 | 9.32893 | 61° | 124km/h | 11550m | -3.6m/s | -46.8°C | 0% | 0hPa | 0V | 00:00:00 | 00:00:00 | 00:00:00 | |
| DL1XH-15 | 2026-08-31 12:00:15 | 51.11049 | 9.32719 | 65° | 119km/h | 11568m | -3.5m/s | 0°C | 0% | 0hPa | 0V | 00:00:00 | 00:00:00 | 00:00:00 | |
| AA1-15 | 2026-08-31 12:00:13 | 51.11023 | 9.32636 | 65° | 115km/h | 11571m | -3.7m/s | -46.5°C | 0% | 0hPa | 4.5V | 00:00:00 | 00:00:00 | 00:00:00 | |
| HSKMA3-T | 2026-08-31 12:00:13 | 51.11011 | 9.32594 | 66° | 113km/h | 11575m | -3.8m/s | -46.5°C | 0% | 0hPa | 4.5V | 00:00:00 | 00:00:00 | 00:00:00 | |
| DL1XH-west | 2026-08-31 12:00:12 | 51.10999 | 9.32553 | 65° | 111km/h | 11579m | -3.9m/s | -46.5°C | 0% | 0hPa | 4.5V | 00:00:00 | 00:00:00 | 00:00:00 | |
| DO3DL | 2026-08-31 12:00:12 | 51.10999 | 9.32553 | 66° | 111km/h | 11579m | -3.9m/s | -46.5°C | 0% | 0hPa | 4.5V | 00:00:00 | 00:00:00 | 00:00:00 | |
| DO2JMG | 2026-08-31 12:00:11 | 51.10988 | 9.32513 | 65° | 110km/h | 11583m | -4m/s | -46.5°C | 0% | 0hPa | 4.5V | 00:00:00 | 00:00:00 | 00:00:00 | |
| DL1XH-15 | 2026-08-31 12:00:05 | 51.10921 | 9.32322 | 59° | 115km/h | 11611m | -4m/s | 0°C | 0% | 0hPa | 0V | 00:00:00 | 00:00:00 | 00:00:00 | |
| DL8DAS-15 | 2026-08-31 12:00:04 | 51.10890 | 9.32236 | 61° | 122km/h | 11611m | -4.0m/s | -46.2°C | 0% | 0hPa | 4.5V | 00:00:00 | 00:00:00 | 00:00:00 | |
| AA1-15 | 2026-08-31 12:00:03 | 51.10875 | 9.32193 | 61° | 124km/h | 11615m | -4m/s | -46.2°C | 0% | 0hPa | 4.5V | 00:00:00 | 00:00:00 | 00:00:00 | |
| HSKMA3-T | 2026-08-31 12:00:02 | 51.10860 | 9.32150 | 62° | 124km/h | 11618m | -3.5m/s | -46.2°C | 0% | 0hPa | 4.5V | 00:00:00 | 00:00:00 | 00:00:00 | |
| DO2JMG | 2026-08-31 12:00:00 | 51.10831 | 9.32061 | 64° | 122km/h | 11626m | -3.5m/s | -46.2°C | 0% | 0hPa | 4.5V | 00:00:00 | 00:00:00 | 00:00:00 | |
| DL1NUX | 2026-08-31 11:59:59 | 51.10781 | 9.31887 | 65° | 115km/h | 11643m | -3.4m/s | 0°C | 0% | 0hPa | 0V | 00:00:00 | 00:00:00 | 00:00:00 | |
| DL1XH-15 | 2026-08-31 11:59:54 | 51.10769 | 9.31844 | 65° | 113km/h | 11647m | -3.4m/s | 0°C | 0% | 0hPa | 0V | 00:00:00 | 00:00:00 | 00:00:00 | |
| DL1XH-west | 2026-08-31 11:59:52 | 51.10734 | 9.31722 | 66° | 110km/h | 11654m | -3.3m/s | -46.4°C | 0% | 0hPa | 4.5V | 00:00:00 | 00:00:00 | 00:00:00 | |
| DO2JMG | 2026-08-31 11:59:50 | 51.10712 | 9.31643 | 66° | 106km/h | 11661m | -3.5m/s | -46.4°C | 0% | 0hPa | 4.5V | 00:00:00 | 00:00:00 | 00:00:00 | |
| DL1NUX | 2026-08-31 11:59:49 | 51.10665 | 9.31493 | 59° | 104km/h | 11679m | -3.5m/s | 0°C | 0% | 0hPa | 0V | 00:00:00 | 00:00:00 | 00:00:00 | |
| DO3MHA-11 | 2026-08-31 11:59:49 | 51.10712 | 9.31643 | 66° | 110km/h | 11668m | -3.6m/s | 0°C | 0% | 0hPa | 0V | 00:00:00 | 00:00:00 | 00:00:00 | |
| DL1XH-15 | 2026-08-31 11:59:46 | 51.10652 | 9.31456 | 60° | 106km/h | 11683m | -3.4m/s | 0°C | 0% | 0hPa | 0V | 00:00:00 | 00:00:00 | 00:00:00 | |
| AA1-15 | 2026-08-31 11:59:41 | 51.10595 | 9.31307 | 57° | 113km/h | 11693m | -3.5m/s | -46.4°C | 0% | 0hPa | 4.5V | 00:00:00 | 00:00:00 | 00:00:00 | |
| DL1NUX | 2026-08-31 11:59:39 | 51.10506 | 9.31065 | 64° | 117km/h | 11722m | -3.3m/s | 0°C | 0% | 0hPa | 0V | 00:00:00 | 00:00:00 | 00:00:00 | |
| DO2JMG | 2026-08-31 11:59:39 | 51.10564 | 9.31230 | 58° | 117km/h | 11700m | -3.5m/s | -46.5°C | 0% | 0hPa | 4.5V | 00:00:00 | 00:00:00 | 00:00:00 | |
| DO3MHA-11 | 2026-08-31 11:59:38 | 51.10564 | 9.31230 | 58° | 110km/h | 11707m | -3.4m/s | 0°C | 0% | 0hPa | 4.5V | 00:00:00 | 00:00:00 | 00:00:00 | |
| BIOWL1-15 | 2026-08-31 11:59:33 | 51.10482 | 9.30980 | 68° | 113km/h | 11722m | -3.3m/s | -46.8°C | 0% | 0hPa | 4.5V | 00:00:00 | 00:00:00 | 00:00:00 | |
| DO8TBO-1 | 2026-08-31 11:59:33 | 51.10493 | 9.31023 | 67° | 104km/h | 11723m | -3.2m/s | 0°C | 0% | 0hPa | 4.4V | 00:00:00 | 00:00:00 | 00:00:00 | |
| DL1XH-west | 2026-08-31 11:59:30 | 51.10443 | 9.30819 | 67° | 100km/h | 11736m | -3.6m/s | -46.9°C | 0% | 0hPa | 4.4V | 00:00:00 | 00:00:00 | 00:00:00 | |
| HSKMA3-T | 2026-08-31 11:59:30 | 51.10452 | 9.30857 | 69° | 104km/h | 11733m | -3.6m/s | -46.9°C | 0% | 0hPa | 4.4V | 00:00:00 | 00:00:00 | 00:00:00 | |
| DL1NUX | 2026-08-31 11:59:28 | 51.10385 | 9.30648 | 57° | 99km/h | 11784m | -3.5m/s | 0°C | 0% | 0hPa | 0V | 00:00:00 | 00:00:00 | 00:00:00 | |
| DO2JMG | 2026-08-31 11:59:28 | 51.10432 | 9.30783 | 65° | 97km/h | 11740m | -3.4m/s | -46.9°C | 0% | 0hPa | 4.4V | 00:00:00 | 00:00:00 | 00:00:00 | |
| DO3MHA-11 | 2026-08-31 11:59:27 | 51.10432 | 9.30783 | 65° | 104km/h | 11746m | -3.3m/s | 0°C | 0% | 0hPa | 0V | 00:00:00 | 00:00:00 | 00:00:00 | |
| DL1XH-15 | 2026-08-31 11:59:21 | 51.10356 | 9.30579 | 57° | 108km/h | 11766m | -3.2m/s | 0°C | 0% | 0hPa | 0V | 00:00:00 | 00:00:00 | 00:00:00 | |
| DL1XH-west | 2026-08-31 11:59:20 | 51.10327 | 9.30502 | 61° | 113km/h | 11766m | -3.2m/s | -46.9°C | 0% | 0hPa | 4.5V | 00:00:00 | 00:00:00 | 00:00:00 | |
| DL1NUX | 2026-08-31 11:59:18 | 51.10260 | 9.30264 | 55° | 102km/h | 11798m | -3.5m/s | 0°C | 0% | 0hPa | 0V | 00:00:00 | 00:00:00 | 00:00:00 | |
| DO2JMG | 2026-08-31 11:59:18 | 51.10301 | 9.30420 | 65° | 115km/h | 11774m | -3.4m/s | -46.9°C | 0% | 0hPa | 4.5V | 00:00:00 | 00:00:00 | 00:00:00 | |
| AA1-15 | 2026-08-31 11:59:18 | 51.10290 | 9.30378 | 67° | 115km/h | 11777m | -3.5m/s | -47°C | 0% | 0hPa | 4.5V | 00:00:00 | 00:00:00 | 00:00:00 | |
| DO3MHA-11 | 2026-08-31 11:59:17 | 51.10300 | 9.30420 | 66° | 100km/h | 11774m | -3.3m/s | 0°C | 0% | 0hPa | 0V | 00:00:00 | 00:00:00 | 00:00:00 | |
| DL1XH-15 | 2026-08-31 11:59:11 | 51.10242 | 9.30181 | 64° | 91km/h | 11798m | -3.5m/s | 0°C | 0% | 0hPa | 0V | 00:00:00 | 00:00:00 | 00:00:00 | |
| SO1NDE-10 | 2026-08-31 11:59:11 | 51.10242 | 9.30194 | 56° | 100km/h | 11798m | -3.5m/s | 0°C | 0% | 0hPa | 4.5V | 00:00:00 | 00:00:00 | 00:00:00 | |
| DL1XH-west | 2026-08-31 11:59:10 | 51.10222 | 9.30117 | 61° | 89km/h | 11801m | -3.5m/s | -47°C | 0% | 0hPa | 4.5V | 00:00:00 | 00:00:00 | 00:00:00 | |
| HSKMA3-T | 2026-08-31 11:59:09 | 51.10211 | 9.30086 | 58° | 93km/h | 11805m | -3.5m/s | -47°C | 0% | 0hPa | 4.5V | 00:00:00 | 00:00:00 | 00:00:00 | |
| DL1NUX | 2026-08-31 11:59:08 | 51.10138 | 9.29915 | 58° | 113km/h | 11844m | -3.5m/s | 0°C | 0% | 0hPa | 0V | 00:00:00 | 00:00:00 | 00:00:00 | |
| DO2JMG | 2026-08-31 11:59:07 | 51.10183 | 9.30022 | 55° | 100km/h | 11812m | -3.4m/s | -47°C | 0% | 0hPa | 4.5V | 00:00:00 | 00:00:00 | 00:00:00 | |
| DL1XH-15 | 2026-08-31 11:59:06 | 51.10110 | 9.29835 | 63° | 113km/h | 11833m | -3.3m/s | 0°C | 0% | 0hPa | 0V | 00:00:00 | 00:00:00 | 00:00:00 | |
| DO8TBO-1 | 2026-08-31 11:59:03 | 51.10138 | 9.29914 | 59° | 99km/h | 11830m | -3.2m/s | 0°C | 0% | 0hPa | 4.5V | 00:00:00 | 00:00:00 | 00:00:00 | |
| DL1XH-west | 2026-08-31 11:58:59 | 51.10078 | 9.29715 | 69° | 102km/h | 11840m | -3.5m/s | -47.2°C | 0% | 0hPa | 4.5V | 00:00:00 | 00:00:00 | 00:00:00 | |
| HSKMA3-T | 2026-08-31 11:58:58 | 51.10069 | 9.29677 | 69° | 97km/h | 11844m | -3.6m/s | -47.2°C | 0% | 0hPa | 4.5V | 00:00:00 | 00:00:00 | 00:00:00 | |
| DL1NUX | 2026-08-31 11:58:57 | 51.10019 | 9.29518 | 55° | 89km/h | 11878m | -3.2m/s | 0°C | 0% | 0hPa | 0V | 00:00:00 | 00:00:00 | 00:00:00 | |
| DO2JMG | 2026-08-31 11:58:56 | 51.10051 | 9.29608 | 66° | 88km/h | 11851m | -3.4m/s | -47.2°C | 0% | 0hPa | 4.5V | 00:00:00 | 00:00:00 | 00:00:00 | |
| DL1XH-15 | 2026-08-31 11:58:51 | 51.10005 | 9.29488 | 53° | 93km/h | 11868m | -3.3m/s | 0°C | 0% | 0hPa | 0V | 00:00:00 | 00:00:00 | 00:00:00 | |
| HSKMA3-T | 2026-08-31 11:58:47 | 51.09931 | 9.29313 | 62° | 111km/h | 11881m | -3.2m/s | -47.2°C | 0% | 0hPa | 4.5V | 00:00:00 | 00:00:00 | 00:00:00 | |
| DO2JMG | 2026-08-31 11:58:45 | 51.09907 | 9.29235 | 66° | 106km/h | 11888m | -3.3m/s | -47.2°C | 0% | 0hPa | 4.5V | 00:00:00 | 00:00:00 | 00:00:00 | |
| DL1XH-15 | 2026-08-31 11:58:41 | 51.09878 | 9.29123 | 63° | 91km/h | 11902m | -3.2m/s | 0°C | 0% | 0hPa | 0V | 00:00:00 | 00:00:00 | 00:00:00 | |
| DL1XH-west | 2026-08-31 11:58:41 | 51.09868 | 9.29092 | 64° | 88km/h | 11902m | -3.2m/s | -47.3°C | 0% | 0hPa | 4.5V | 00:00:00 | 00:00:00 | 00:00:00 | |
| DL1XH-15 | 2026-08-31 11:58:36 | 51.09752 | 9.28810 | 56° | 104km/h | 11952m | -3.3m/s | 0°C | 0% | 0hPa | 0V | 00:00:00 | 00:00:00 | 00:00:00 | |
| HSKMA3-T | 2026-08-31 11:58:36 | 51.09808 | 9.28941 | 54° | 93km/h | 11918m | -3.3m/s | -47.2°C | 0% | 0hPa | 4.5V | 00:00:00 | 00:00:00 | 00:00:00 | |
| DO3MHA-11 | 2026-08-31 11:58:35 | 51.09808 | 9.28941 | 55° | 102km/h | 11921m | -3.1m/s | 0°C | 0% | 0hPa | 43.3V | 00:00:00 | 00:00:00 | 00:00:00 | |
| DO2JMG | 2026-08-31 11:58:34 | 51.09780 | 9.28878 | 55° | 99km/h | 11924m | -3.2m/s | -47.2°C | 0% | 0hPa | 43.3V | 00:00:00 | 00:00:00 | 00:00:00 | |
| DM0DOS-11 | 2026-08-31 11:58:34 | 51.09723 | 9.28739 | 58° | 108km/h | 11952m | -3.3m/s | 0°C | 0% | 0hPa | 0V | 00:00:00 | 00:00:00 | 00:00:00 | |
| AA1-15 | 2026-08-31 11:58:34 | 51.09752 | 9.28810 | 57° | 104km/h | 11931m | -3.2m/s | -47.2°C | 0% | 0hPa | 4.5V | 00:00:00 | 00:00:00 | 00:00:00 | |
| DO8TBO-1 | 2026-08-31 11:58:32 | 51.09766 | 9.28846 | 57° | 100km/h | 11931m | -3.2m/s | 0°C | 0% | 0hPa | 0V | 00:00:00 | 00:00:00 | 00:00:00 | |
| DL1NUX | 2026-08-31 11:58:28 | 51.09672 | 9.28588 | 64° | 106km/h | 11965m | -3.3m/s | 0°C | 0% | 0hPa | 0V | 00:00:00 | 00:00:00 | 00:00:00 | |
| DL1XH-west | 2026-08-31 11:58:28 | 51.09697 | 9.28664 | 62° | 108km/h | 11945m | -3.3m/s | -47.3°C | 0% | 0hPa | 4.5V | 00:00:00 | 00:00:00 | 00:00:00 | |
| HSKMA3-T | 2026-08-31 11:58:26 | 51.09672 | 9.28588 | 64° | 106km/h | 11952m | -3.3m/s | -47.3°C | 0% | 0hPa | 4.5V | 00:00:00 | 00:00:00 | 00:00:00 | |
| DO3MHA-11 | 2026-08-31 11:58:25 | 51.09672 | 9.28588 | 65° | 95km/h | 11959m | -3.3m/s | 0°C | 0% | 0hPa | 4.5V | 00:00:00 | 00:00:00 | 00:00:00 | |
| AA1-15 | 2026-08-31 11:58:22 | 51.09630 | 9.28443 | 65° | 93km/h | 11965m | -3.3m/s | -47.2°C | 0% | 0hPa | 4.5V | 00:00:00 | 00:00:00 | 00:00:00 | |
| DL1XH-15 | 2026-08-31 11:58:21 | 51.09573 | 9.28283 | 56° | 93km/h | 11988m | -3.2m/s | 0°C | 0% | 0hPa | 0V | 00:00:00 | 00:00:00 | 00:00:00 | |
| SO1NDE-10 | 2026-08-31 11:58:21 | 51.09631 | 9.28443 | 65° | 102km/h | 11965m | -3.3m/s | 0°C | 0% | 0hPa | 4.5V | 00:00:00 | 00:00:00 | 00:00:00 | |
| DO2JMG | 2026-08-31 11:58:19 | 51.09598 | 9.28346 | 59° | 91km/h | 11975m | -3.2m/s | -47.2°C | 0% | 0hPa | 4.5V | 00:00:00 | 00:00:00 | 00:00:00 | |
| DM0DOS-11 | 2026-08-31 11:58:15 | 51.09546 | 9.28220 | 55° | 99km/h | 11998m | -3.3m/s | 0°C | 0% | 0hPa | 0V | 00:00:00 | 00:00:00 | 00:00:00 | |
| HSKMA3-T | 2026-08-31 11:58:15 | 51.09546 | 9.28220 | 55° | 99km/h | 11988m | -3.2m/s | -47.2°C | 0% | 0hPa | 4.5V | 00:00:00 | 00:00:00 | 00:00:00 | |
| DL1XH-west | 2026-08-31 11:58:14 | 51.09532 | 9.28187 | 55° | 100km/h | 11991m | -3.3m/s | -47.2°C | 0% | 0hPa | 4.5V | 00:00:00 | 00:00:00 | 00:00:00 | |
| DL1CLM-18 | 2026-08-31 11:58:13 | 51.09502 | 9.28119 | 57° | 104km/h | 11998m | -3.3m/s | -47.2°C | 0% | 0hPa | 4.5V | 00:00:00 | 00:00:00 | 00:00:00 | |
| AA1-15 | 2026-08-31 11:58:12 | 51.09488 | 9.28084 | 57° | 106km/h | 12001m | -3.3m/s | -47.2°C | 0% | 0hPa | 4.5V | 00:00:00 | 00:00:00 | 00:00:00 | |
| DL1XH-15 | 2026-08-31 11:58:06 | 51.09430 | 9.27941 | 57° | 104km/h | 12018m | -3.3m/s | 0°C | 0% | 0hPa | 0V | 00:00:00 | 00:00:00 | 00:00:00 | |
| HSKMA3-T | 2026-08-31 11:58:04 | 51.09387 | 9.27835 | 57° | 104km/h | 12024m | -3.3m/s | -47.4°C | 0% | 0hPa | 4.5V | 00:00:00 | 00:00:00 | 00:00:00 | |
| DO3MHA-11 | 2026-08-31 11:58:04 | 51.09401 | 9.27870 | 57° | 110km/h | 12025m | -3.2m/s | 0°C | 0% | 0hPa | 4.5V | 00:00:00 | 00:00:00 | 00:00:00 | |
| DO8TBO-1 | 2026-08-31 11:58:02 | 51.09372 | 9.27802 | 57° | 110km/h | 12035m | -3.2m/s | 0°C | 0% | 0hPa | 4.5V | 00:00:00 | 00:00:00 | 00:00:00 | |
| DL1XH-west | 2026-08-31 11:58:01 | 51.09342 | 9.27728 | 56° | 110km/h | 12034m | -3.3m/s | -47.4°C | 0% | 0hPa | 4.5V | 00:00:00 | 00:00:00 | 00:00:00 | |
| DL1XH-15 | 2026-08-31 11:58:01 | 51.09282 | 9.27577 | 59° | 111km/h | 12051m | -3.3m/s | 0°C | 0% | 0hPa | 0V | 00:00:00 | 00:00:00 | 00:00:00 | |
| AA1-15 | 2026-08-31 11:58:00 | 51.09326 | 9.27691 | 57° | 110km/h | 12038m | -3.4m/s | -47.5°C | 0% | 0hPa | 4.5V | 00:00:00 | 00:00:00 | 00:00:00 | |
| DO3MHA-11 | 2026-08-31 11:57:54 | 51.09254 | 9.27498 | 63° | 110km/h | 12058m | -3.1m/s | 0°C | 0% | 0hPa | 4.5V | 00:00:00 | 00:00:00 | 00:00:00 | |
| HSKMA3-T | 2026-08-31 11:57:53 | 51.09229 | 9.27419 | 64° | 111km/h | 12062m | -3.2m/s | -47.4°C | 0% | 0hPa | 4.5V | 00:00:00 | 00:00:00 | 00:00:00 | |
| SO1NDE-10 | 2026-08-31 11:57:51 | 51.09216 | 9.27379 | 65° | 108km/h | 12065m | -3.3m/s | 0°C | 0% | 0hPa | 4.5V | 00:00:00 | 00:00:00 | 00:00:00 | |
| DL1XH-west | 2026-08-31 11:57:50 | 51.09193 | 9.27298 | 66° | 111km/h | 12072m | -3.3m/s | -47.5°C | 0% | 0hPa | 4.5V | 00:00:00 | 00:00:00 | 00:00:00 | |
| AA1-15 | 2026-08-31 11:57:49 | 51.09181 | 9.27257 | 67° | 110km/h | 12075m | -3.4m/s | -47.5°C | 0% | 0hPa | 4.5V | 00:00:00 | 00:00:00 | 00:00:00 | |
| DL1XH-15 | 2026-08-31 11:57:46 | 51.09160 | 9.27177 | 67° | 106km/h | 12084m | -3.3m/s | 0°C | 0% | 0hPa | 0V | 00:00:00 | 00:00:00 | 00:00:00 | |
| DO3MHA-11 | 2026-08-31 11:57:44 | 51.09139 | 9.27100 | 66° | 104km/h | 12091m | -3.2m/s | 0°C | 0% | 0hPa | 4.5V | 00:00:00 | 00:00:00 | 00:00:00 | |
| HSKMA3-T | 2026-08-31 11:57:43 | 51.09117 | 9.27028 | 62° | 99km/h | 12094m | -3.1m/s | -47.6°C | 0% | 0hPa | 4.5V | 00:00:00 | 00:00:00 | 00:00:00 | |
| DL1XH-west | 2026-08-31 11:57:40 | 51.09078 | 9.26925 | 58° | 102km/h | 12104m | -3.3m/s | -47.5°C | 0% | 0hPa | 4.5V | 00:00:00 | 00:00:00 | 00:00:00 | |
| DM7RM-13 | 2026-08-31 11:57:40 | 51.09049 | 9.26853 | 59° | 110km/h | 12110m | -3.4m/s | -40.9°C | 0% | 0hPa | 0V | 00:00:00 | 00:00:00 | 00:00:00 | |
| DL1XH-15 | 2026-08-31 11:57:36 | 51.09034 | 9.26817 | 59° | 113km/h | 12117m | -3.3m/s | 0°C | 0% | 0hPa | 0V | 00:00:00 | 00:00:00 | 00:00:00 | |
| DO3MHA-11 | 2026-08-31 11:57:34 | 51.09004 | 9.26736 | 61° | 111km/h | 12120m | -3.3m/s | 0°C | 0% | 0hPa | 4.5V | 00:00:00 | 00:00:00 | 00:00:00 | |
| HSKMA3-T | 2026-08-31 11:57:32 | 51.08964 | 9.26611 | 64° | 117km/h | 12131m | -3.5m/s | -47.5°C | 0% | 0hPa | 4.5V | 00:00:00 | 00:00:00 | 00:00:00 | |
| DO8TBO-1 | 2026-08-31 11:57:32 | 51.08964 | 9.26611 | 65° | 102km/h | 12138m | -3.2m/s | 0°C | 0% | 0hPa | 0V | 00:00:00 | 00:00:00 | 00:00:00 | |
| DL1NUX | 2026-08-31 11:57:29 | 51.08929 | 9.26488 | 66° | 108km/h | 12144m | -3.3m/s | 0°C | 0% | 0hPa | 0V | 00:00:00 | 00:00:00 | 00:00:00 | |
| DL1XH-west | 2026-08-31 11:57:28 | 51.08918 | 9.26449 | 67° | 106km/h | 12144m | -3.3m/s | -47.5°C | 0% | 0hPa | 4.5V | 00:00:00 | 00:00:00 | 00:00:00 | |
| DO3MHA-11 | 2026-08-31 11:57:24 | 51.08887 | 9.26336 | 66° | 100km/h | 12158m | -3.5m/s | 0°C | 0% | 0hPa | 4.4V | 00:00:00 | 00:00:00 | 00:00:00 | |
| HSKMA3-T | 2026-08-31 11:57:22 | 51.08854 | 9.26230 | 62° | 97km/h | 12165m | -3.5m/s | -47.2°C | 0% | 0hPa | 4.4V | 00:00:00 | 00:00:00 | 00:00:00 | |
| SO1NDE-10 | 2026-08-31 11:57:21 | 51.08854 | 9.26230 | 61° | 97km/h | 12169m | -3.4m/s | 0°C | 0% | 0hPa | 0V | 00:00:00 | 00:00:00 | 00:00:00 | |
| DL1NUX | 2026-08-31 11:57:19 | 51.08817 | 9.26128 | 57° | 100km/h | 12182m | -3.4m/s | 0°C | 0% | 0hPa | 0V | 00:00:00 | 00:00:00 | 00:00:00 | |
| DM0DOS-11 | 2026-08-31 11:57:17 | 51.08788 | 9.26059 | 56° | 106km/h | 12189m | -3.5m/s | 0°C | 0% | 0hPa | 0V | 00:00:00 | 00:00:00 | 00:00:00 | |
| DL1XH-west | 2026-08-31 11:57:17 | 51.08788 | 9.26059 | 56° | 106km/h | 12182m | -3.4m/s | -47.1°C | 0% | 0hPa | 4.4V | 00:00:00 | 00:00:00 | 00:00:00 | |
| DO3MHA-11 | 2026-08-31 11:57:14 | 51.08758 | 9.25987 | 58° | 108km/h | 12193m | -3.3m/s | 0°C | 0% | 0hPa | 4.5V | 00:00:00 | 00:00:00 | 00:00:00 | |
| HSKMA3-T | 2026-08-31 11:57:11 | 51.08702 | 9.25837 | 61° | 108km/h | 12203m | -3.4m/s | -46.7°C | 0% | 0hPa | 4.5V | 00:00:00 | 00:00:00 | 00:00:00 | |
| DL1XH-15 | 2026-08-31 11:57:06 | 51.08653 | 9.25685 | 64° | 106km/h | 12220m | -3.6m/s | 0°C | 0% | 0hPa | 0V | 00:00:00 | 00:00:00 | 00:00:00 | |
| DL1XH-west | 2026-08-31 11:57:06 | 51.08642 | 9.25648 | 65° | 104km/h | 12220m | -3.6m/s | -46.3°C | 0% | 0hPa | 4.5V | 00:00:00 | 00:00:00 | 00:00:00 | |
| DO3MHA-11 | 2026-08-31 11:57:04 | 51.08630 | 9.25606 | 65° | 97km/h | 12230m | -3.4m/s | 0°C | 0% | 0hPa | 4.5V | 00:00:00 | 00:00:00 | 00:00:00 | |
| DL8DAS-14 | 2026-08-31 11:57:02 | 51.08599 | 9.25505 | 63° | 89km/h | 12234m | -3.6m/s | -46.2°C | -1.0% | -1.0hPa | 4.5V | 00:00:00 | 00:00:00 | 00:00:00 | |
| HSKMA3-T | 2026-08-31 11:57:01 | 51.08577 | 9.25443 | 57° | 89km/h | 12242m | -3.6m/s | -46.2°C | 0% | 0hPa | 4.5V | 00:00:00 | 00:00:00 | 00:00:00 | |
| DO8TBO-1 | 2026-08-31 11:56:59 | 51.08577 | 9.25443 | 57° | 106km/h | 12246m | -3.7m/s | 0°C | 0% | 0hPa | 4.5V | 00:00:00 | 00:00:00 | 00:00:00 | |
| DO2JMG | 2026-08-31 11:56:58 | 51.08549 | 9.25383 | 52° | 97km/h | 12249m | -3.9m/s | -46.2°C | 0% | 0hPa | 4.5V | 00:00:00 | 00:00:00 | 00:00:00 | |
| DJTTGO | 2026-08-31 11:56:58 | 51.08549 | 9.25383 | 53° | 97km/h | 12250m | -3.9m/s | -46.2°C | 0% | 0hPa | 4.5V | 00:00:00 | 00:00:00 | 00:00:00 | |
| DM7RM-13 | 2026-08-31 11:56:56 | 51.08534 | 9.25351 | 53° | 104km/h | 12253m | -3.8m/s | -39.6°C | 0% | 0hPa | 4.5V | 00:00:00 | 00:00:00 | 00:00:00 | |
| DL1XH-west | 2026-08-31 11:56:55 | 51.08501 | 9.25281 | 55° | 115km/h | 12260m | -3.6m/s | -46.2°C | 0% | 0hPa | 4.5V | 00:00:00 | 00:00:00 | 00:00:00 | |
| DO3MHA-11 | 2026-08-31 11:56:54 | 51.08501 | 9.25281 | 55° | 110km/h | 12264m | -3.8m/s | 0°C | 0% | 0hPa | 4.5V | 00:00:00 | 00:00:00 | 00:00:00 | |
| GOEST3-10 | 2026-08-31 11:56:52 | 51.08468 | 9.25202 | 60° | 113km/h | 12275m | -3.7m/s | 0°C | 0% | 0hPa | 4.5V | 00:00:00 | 00:00:00 | 00:00:00 | |
| HSKMA3-T | 2026-08-31 11:56:51 | 51.08440 | 9.25119 | 64° | 115km/h | 12275m | -3.7m/s | -46°C | 0% | 0hPa | 4.5V | 00:00:00 | 00:00:00 | 00:00:00 | |
| DM0DOS-11 | 2026-08-31 11:56:47 | 51.08396 | 9.24966 | 65° | 95km/h | 12293m | -4m/s | 0°C | 0% | 0hPa | 0V | 00:00:00 | 00:00:00 | 00:00:00 | |
| GOEST3-10 | 2026-08-31 11:56:47 | 51.08406 | 9.25001 | 67° | 95km/h | 12290m | -3.7m/s | 0°C | 0% | 0hPa | 4.5V | 00:00:00 | 00:00:00 | 00:00:00 | |
| DL1XH-west | 2026-08-31 11:56:44 | 51.08362 | 9.24868 | 57° | 95km/h | 12301m | -3.9m/s | -46.3°C | 0% | 0hPa | 4.5V | 00:00:00 | 00:00:00 | 00:00:00 | |
| DO3MHA-11 | 2026-08-31 11:56:44 | 51.08374 | 9.24899 | 57° | 106km/h | 12306m | -3.6m/s | 0°C | 0% | 0hPa | 4.5V | 00:00:00 | 00:00:00 | 00:00:00 | |
| GOEST3-10 | 2026-08-31 11:56:42 | 51.08347 | 9.24836 | 55° | 111km/h | 12306m | -3.6m/s | 0°C | 0% | 0hPa | 4.5V | 00:00:00 | 00:00:00 | 00:00:00 | |
| HSKMA3-T | 2026-08-31 11:56:40 | 51.08299 | 9.24731 | 55° | 115km/h | 12316m | -3.8m/s | -46.3°C | 0% | 0hPa | 4.5V | 00:00:00 | 00:00:00 | 00:00:00 | |
| DL1XH-15 | 2026-08-31 11:56:36 | 51.08253 | 9.24613 | 63° | 115km/h | 12331m | -3.7m/s | 0°C | 0% | 0hPa | 0V | 00:00:00 | 00:00:00 | 00:00:00 | |
| GOEST3-10 | 2026-08-31 11:56:35 | 51.08239 | 9.24573 | 64° | 106km/h | 12335m | -3.6m/s | 0°C | 0% | 0hPa | 4.5V | 00:00:00 | 00:00:00 | 00:00:00 | |
| DL1XH-west | 2026-08-31 11:56:34 | 51.08216 | 9.24494 | 66° | 106km/h | 12339m | -3.7m/s | -46.2°C | 0% | 0hPa | 4.5V | 00:00:00 | 00:00:00 | 00:00:00 | |
| DL8DAS-15 | 2026-08-31 11:56:34 | 51.08216 | 9.24494 | 67° | 106km/h | 12339m | -3.7m/s | -46.2°C | 0% | 0hPa | 0V | 00:00:00 | 00:00:00 | 00:00:00 | |
| DL1XH-15 | 2026-08-31 11:56:30 | 51.08142 | 9.24254 | 56° | 93km/h | 12370m | -3.9m/s | 0°C | 0% | 0hPa | 0V | 00:00:00 | 00:00:00 | 00:00:00 | |
| GOEST3-10 | 2026-08-31 11:56:30 | 51.08186 | 9.24383 | 67° | 91km/h | 12354m | -4.0m/s | 0°C | 0% | 0hPa | 0V | 00:00:00 | 00:00:00 | 00:00:00 | |
| DM0DOS-11 | 2026-08-31 11:56:29 | 51.08129 | 9.24237 | 55° | 97km/h | 12373m | -3.8m/s | 0°C | 0% | 0hPa | 0V | 00:00:00 | 00:00:00 | 00:00:00 | |
| HSKMA3-T | 2026-08-31 11:56:29 | 51.08166 | 9.24316 | 62° | 89km/h | 12357m | -3.9m/s | -46.2°C | 0% | 0hPa | 4.5V | 00:00:00 | 00:00:00 | 00:00:00 | |
| DO2JMG | 2026-08-31 11:56:25 | 51.08129 | 9.24223 | 55° | 97km/h | 12370m | -3.9m/s | -46.3°C | 0% | 0hPa | 4.5V | 00:00:00 | 00:00:00 | 00:00:00 | |
| GOEST3-10 | 2026-08-31 11:56:25 | 51.08130 | 9.24223 | 55° | 108km/h | 12370m | -3.9m/s | 0°C | 0% | 0hPa | 4.5V | 00:00:00 | 00:00:00 | 00:00:00 | |
| DL1XH-west | 2026-08-31 11:56:23 | 51.08083 | 9.24119 | 55° | 111km/h | 12381m | -3.8m/s | -46.4°C | 0% | 0hPa | 4.5V | 00:00:00 | 00:00:00 | 00:00:00 | |
| DO3MHA-11 | 2026-08-31 11:56:23 | 51.08099 | 9.24160 | 57° | 110km/h | 12381m | -3.8m/s | 0°C | 0% | 0hPa | 4.5V | 00:00:00 | 00:00:00 | 00:00:00 | |
| AA1-15 | 2026-08-31 11:56:22 | 51.08067 | 9.24081 | 57° | 115km/h | 12385m | -3.9m/s | -46.3°C | 0% | 0hPa | 4.5V | 00:00:00 | 00:00:00 | 00:00:00 | |
| GOEST3-10 | 2026-08-31 11:56:20 | 51.08051 | 9.24042 | 59° | 113km/h | 12393m | -3.8m/s | 0°C | 0% | 0hPa | 0V | 00:00:00 | 00:00:00 | 00:00:00 | |
| DL1XH-15 | 2026-08-31 11:56:16 | 51.07999 | 9.23870 | 62° | 106km/h | 12424m | -4.1m/s | 0°C | 0% | 0hPa | 0V | 00:00:00 | 00:00:00 | 00:00:00 | |
| HSKMA3-T | 2026-08-31 11:56:16 | 51.07988 | 9.23842 | 66° | 100km/h | 12408m | -3.8m/s | -46°C | 0% | 0hPa | 4.5V | 00:00:00 | 00:00:00 | 00:00:00 | |
| DM7RM-13 | 2026-08-31 11:56:15 | 51.07988 | 9.23842 | 67° | 100km/h | 12411m | -3.8m/s | -39.3°C | 0% | 0hPa | 4.5V | 00:00:00 | 00:00:00 | 00:00:00 | |
| DO3MHA-11 | 2026-08-31 11:56:13 | 51.07966 | 9.23771 | 63° | 99km/h | 12419m | -3.9m/s | 0°C | 0% | 0hPa | 4.5V | 00:00:00 | 00:00:00 | 00:00:00 | |
| DL1XH-west | 2026-08-31 11:56:12 | 51.07943 | 9.23705 | 59° | 95km/h | 12424m | -4.1m/s | -46°C | 0% | 0hPa | 4.5V | 00:00:00 | 00:00:00 | 00:00:00 | |
| DL1XH-15 | 2026-08-31 11:56:11 | 51.07872 | 9.23539 | 54° | 104km/h | 12447m | -4m/s | 0°C | 0% | 0hPa | 0V | 00:00:00 | 00:00:00 | 00:00:00 | |
| DL1CLM-18 | 2026-08-31 11:56:10 | 51.07916 | 9.23640 | 57° | 99km/h | 12432m | -4.0m/s | -46.1°C | 0% | 0hPa | 0V | 00:00:00 | 00:00:00 | 00:00:00 | |
| DM0DOS-11 | 2026-08-31 11:56:05 | 51.07842 | 9.23470 | 55° | 106km/h | 12455m | -3.8m/s | 0°C | 0% | 0hPa | 0V | 00:00:00 | 00:00:00 | 00:00:00 | |
| GOEST3-10 | 2026-08-31 11:56:05 | 51.07857 | 9.23505 | 56° | 106km/h | 12459m | -3.8m/s | 0°C | 0% | 0hPa | 4.5V | 00:00:00 | 00:00:00 | 00:00:00 | |
| DO3MHA-11 | 2026-08-31 11:56:03 | 51.07827 | 9.23434 | 56° | 108km/h | 12463m | -4.0m/s | 0°C | 0% | 0hPa | 4.5V | 00:00:00 | 00:00:00 | 00:00:00 | |
| DL1XH-west | 2026-08-31 11:56:01 | 51.07782 | 9.23327 | 57° | 108km/h | 12467m | -4m/s | -46.4°C | 0% | 0hPa | 4.5V | 00:00:00 | 00:00:00 | 00:00:00 | |
| DL1XH-15 | 2026-08-31 11:56:00 | 51.07724 | 9.23181 | 58° | 108km/h | 12486m | -3.9m/s | 0°C | 0% | 0hPa | 0V | 00:00:00 | 00:00:00 | 00:00:00 | |
| GOEST3-10 | 2026-08-31 11:56:00 | 51.07782 | 9.23327 | 58° | 108km/h | 12471m | -4.0m/s | 0°C | 0% | 0hPa | 4.5V | 00:00:00 | 00:00:00 | 00:00:00 | |
| GOEST3-10 | 2026-08-31 11:55:56 | 51.07710 | 9.23145 | 59° | 108km/h | 12491m | -3.8m/s | 0°C | 0% | 0hPa | 4.5V | 00:00:00 | 00:00:00 | 00:00:00 | |
| HSKMA3-T | 2026-08-31 11:55:55 | 51.07695 | 9.23108 | 58° | 108km/h | 12490m | -3.9m/s | -46.5°C | 0% | 0hPa | 4.5V | 00:00:00 | 00:00:00 | 00:00:00 | |
| DL1XH-west | 2026-08-31 11:55:51 | 51.07638 | 9.22961 | 59° | 106km/h | 12506m | -3.9m/s | -46.5°C | 0% | 0hPa | 4.5V | 00:00:00 | 00:00:00 | 00:00:00 | |
| GOEST3-10 | 2026-08-31 11:55:50 | 51.07638 | 9.22961 | 59° | 106km/h | 12511m | -3.9m/s | 0°C | 0% | 0hPa | 0V | 00:00:00 | 00:00:00 | 00:00:00 | |
| DL1XH-15 | 2026-08-31 11:55:46 | 51.07586 | 9.22814 | 62° | 104km/h | 12525m | -3.8m/s | 0°C | 0% | 0hPa | 0V | 00:00:00 | 00:00:00 | 00:00:00 | |
| GOEST3-10 | 2026-08-31 11:55:45 | 51.07573 | 9.22777 | 63° | 104km/h | 12529m | -4.0m/s | 0°C | 0% | 0hPa | 4.5V | 00:00:00 | 00:00:00 | 00:00:00 | |
| HSKMA3-T | 2026-08-31 11:55:44 | 51.07548 | 9.22703 | 61° | 104km/h | 12533m | -3.9m/s | -46.6°C | 0% | 0hPa | 4.5V | 00:00:00 | 00:00:00 | 00:00:00 | |
| DL1XH-15 | 2026-08-31 11:55:41 | 51.07447 | 9.22457 | 54° | 100km/h | 12564m | -4m/s | 0°C | 0% | 0hPa | 0V | 00:00:00 | 00:00:00 | 00:00:00 | |
| DL1XH-west | 2026-08-31 11:55:40 | 51.07492 | 9.22559 | 56° | 106km/h | 12549m | -4m/s | -46.5°C | 0% | 0hPa | 4.5V | 00:00:00 | 00:00:00 | 00:00:00 | |
| DO3MHA-11 | 2026-08-31 11:55:37 | 51.07462 | 9.22490 | 55° | 93km/h | 12560m | -4.0m/s | 0°C | 0% | 0hPa | 4.5V | 00:00:00 | 00:00:00 | 00:00:00 | |
| GOEST3-10 | 2026-08-31 11:55:34 | 51.07419 | 9.22392 | 56° | 89km/h | 12576m | -3.9m/s | 0°C | 0% | 0hPa | 4.5V | 00:00:00 | 00:00:00 | 00:00:00 | |
| HSKMA3-T | 2026-08-31 11:55:33 | 51.07392 | 9.22331 | 56° | 89km/h | 12575m | -4m/s | -46.3°C | 0% | 0hPa | 4.5V | 00:00:00 | 00:00:00 | 00:00:00 | |
| DL1XH-west | 2026-08-31 11:55:29 | 51.07346 | 9.22213 | 61° | 88km/h | 12593m | -4m/s | -46.4°C | 0% | 0hPa | 4.5V | 00:00:00 | 00:00:00 | 00:00:00 | |
| AA1-15 | 2026-08-31 11:55:28 | 51.07336 | 9.22182 | 63° | 89km/h | 12597m | -4m/s | -46.4°C | 0% | 0hPa | 4.5V | 00:00:00 | 00:00:00 | 00:00:00 | |
| DO3MHA-11 | 2026-08-31 11:55:27 | 51.07337 | 9.22182 | 63° | 100km/h | 12597m | -3.9m/s | 0°C | 0% | 0hPa | 4.5V | 00:00:00 | 00:00:00 | 00:00:00 | |
| GOEST3-10 | 2026-08-31 11:55:24 | 51.07304 | 9.22082 | 64° | 102km/h | 12617m | -3.8m/s | 0°C | 0% | 0hPa | 4.5V | 00:00:00 | 00:00:00 | 00:00:00 | |
| HSKMA3-T | 2026-08-31 11:55:23 | 51.07281 | 9.22010 | 62° | 104km/h | 12617m | -3.9m/s | -46.6°C | 0% | 0hPa | 4.5V | 00:00:00 | 00:00:00 | 00:00:00 | |
| DL8DAS-15 | 2026-08-31 11:55:20 | 51.07255 | 9.21936 | 61° | 106km/h | 12625m | -4.1m/s | -46.9°C | 0% | 0hPa | 4.5V | 00:00:00 | 00:00:00 | 00:00:00 | |
| GOEST3-10 | 2026-08-31 11:55:18 | 51.07227 | 9.21851 | 51° | 97km/h | 12648m | -4.0m/s | 0°C | 0% | 0hPa | 4.5V | 00:00:00 | 00:00:00 | 00:00:00 | |
| AA1-15 | 2026-08-31 11:55:17 | 51.07196 | 9.21798 | 52° | 100km/h | 12640m | -4.1m/s | -47.2°C | 0% | 0hPa | 4.5V | 00:00:00 | 00:00:00 | 00:00:00 | |
| DO3MHA-11 | 2026-08-31 11:55:17 | 51.07212 | 9.21831 | 55° | 93km/h | 12640m | -4.1m/s | 0°C | 0% | 0hPa | 0V | 00:00:00 | 00:00:00 | 00:00:00 | |
| DL1XH-15 | 2026-08-31 11:55:16 | 51.07196 | 9.21794 | 50° | 100km/h | 12648m | -4m/s | 0°C | 0% | 0hPa | 0V | 00:00:00 | 00:00:00 | 00:00:00 | |
| DO8TBO-1 | 2026-08-31 11:55:16 | 51.07196 | 9.21795 | 51° | 95km/h | 12648m | -4.0m/s | 0°C | 0% | 0hPa | 4.5V | 00:00:00 | 00:00:00 | 00:00:00 | |
| DO2JMG | 2026-08-31 11:55:15 | 51.07180 | 9.21766 | 51° | 99km/h | 12644m | -4.1m/s | -47.1°C | 0% | 0hPa | 4.5V | 00:00:00 | 00:00:00 | 00:00:00 | |
| HSKMA3-T | 2026-08-31 11:55:13 | 51.07135 | 9.21678 | 51° | 91km/h | 12655m | -4m/s | -47°C | 0% | 0hPa | 4.5V | 00:00:00 | 00:00:00 | 00:00:00 | |
| GOEST3-10 | 2026-08-31 11:55:11 | 51.07121 | 9.21650 | 53° | 89km/h | 12664m | -4.0m/s | 0°C | 0% | 0hPa | 4.5V | 00:00:00 | 00:00:00 | 00:00:00 | |
| DL1XH-west | 2026-08-31 11:55:07 | 51.07073 | 9.21532 | 61° | 89km/h | 12676m | -3.8m/s | -46.8°C | 0% | 0hPa | 4.5V | 00:00:00 | 00:00:00 | 00:00:00 | |
| DO3MHA-11 | 2026-08-31 11:55:07 | 51.07073 | 9.21532 | 62° | 104km/h | 12684m | -3.9m/s | 0°C | 0% | 0hPa | 4.5V | 00:00:00 | 00:00:00 | 00:00:00 | |
| AA1-15 | 2026-08-31 11:55:06 | 51.07051 | 9.21465 | 64° | 97km/h | 12684m | -4m/s | -47°C | 0% | 0hPa | 4.5V | 00:00:00 | 00:00:00 | 00:00:00 | |
| DL1NUX | 2026-08-31 11:55:05 | 51.06987 | 9.21279 | 56° | 111km/h | 12717m | -4.2m/s | 0°C | 0% | 0hPa | 0V | 00:00:00 | 00:00:00 | 00:00:00 | |
| SO1NDE-10 | 2026-08-31 11:55:05 | 51.07051 | 9.21468 | 64° | 102km/h | 12704m | -4.1m/s | 0°C | 0% | 0hPa | 4.5V | 00:00:00 | 00:00:00 | 00:00:00 | |
| DO2JMG | 2026-08-31 11:55:03 | 51.07015 | 9.21355 | 61° | 108km/h | 12696m | -4.1m/s | -47.2°C | 0% | 0hPa | 4.5V | 00:00:00 | 00:00:00 | 00:00:00 | |
| HSKMA3-T | 2026-08-31 11:55:00 | 51.06971 | 9.21242 | 55° | 111km/h | 12708m | -4.3m/s | -47.2°C | 0% | 0hPa | 4.5V | 00:00:00 | 00:00:00 | 00:00:00 | |
| GOEST3-10 | 2026-08-31 11:55:00 | 51.06986 | 9.21279 | 57° | 106km/h | 12713m | -4.4m/s | 0°C | 0% | 0hPa | 0V | 00:00:00 | 00:00:00 | 00:00:00 | |
| DM0DOS-11 | 2026-08-31 11:54:59 | 51.06875 | 9.21053 | 53° | 88km/h | 12738m | -4.2m/s | 0°C | 0% | 0hPa | 0V | 00:00:00 | 00:00:00 | 00:00:00 | |
| DL1XH-west | 2026-08-31 11:54:57 | 51.06920 | 9.21141 | 49° | 102km/h | 12721m | -4.2m/s | -47.2°C | 0% | 0hPa | 4.5V | 00:00:00 | 00:00:00 | 00:00:00 | |
| DL1XH-15 | 2026-08-31 11:54:56 | 51.06920 | 9.21141 | 49° | 102km/h | 12725m | -4.2m/s | 0°C | 0% | 0hPa | 0V | 00:00:00 | 00:00:00 | 00:00:00 | |
| DL1NUX | 2026-08-31 11:54:54 | 51.06830 | 9.20929 | 65° | 97km/h | 12763m | -4.1m/s | 0°C | 0% | 0hPa | 0V | 00:00:00 | 00:00:00 | 00:00:00 | |
| GOEST3-10 | 2026-08-31 11:54:54 | 51.06888 | 9.21081 | 51° | 89km/h | 12733m | -4.3m/s | 0°C | 0% | 0hPa | 4.5V | 00:00:00 | 00:00:00 | 00:00:00 | |
| DO2JMG | 2026-08-31 11:54:52 | 51.06851 | 9.20995 | 61° | 88km/h | 12742m | -4.2m/s | -47.1°C | 0% | 0hPa | 4.5V | 00:00:00 | 00:00:00 | 00:00:00 | |
| HSKMA3-T | 2026-08-31 11:54:50 | 51.06830 | 9.20929 | 65° | 97km/h | 12751m | -4.1m/s | -47.1°C | 0% | 0hPa | 4.5V | 00:00:00 | 00:00:00 | 00:00:00 | |
| GOEST3-10 | 2026-08-31 11:54:49 | 51.06830 | 9.20929 | 66° | 104km/h | 12755m | -4.3m/s | 0°C | 0% | 0hPa | 0V | 00:00:00 | 00:00:00 | 00:00:00 | |
| DM0DOS-11 | 2026-08-31 11:54:48 | 51.06753 | 9.20698 | 55° | 113km/h | 12780m | -4.1m/s | 0°C | 0% | 0hPa | 0V | 00:00:00 | 00:00:00 | 00:00:00 | |
| DL1XH-15 | 2026-08-31 11:54:46 | 51.06796 | 9.20815 | 60° | 111km/h | 12767m | -4.2m/s | 0°C | 0% | 0hPa | 0V | 00:00:00 | 00:00:00 | 00:00:00 | |
| DL1XH-west | 2026-08-31 11:54:46 | 51.06783 | 9.20775 | 61° | 113km/h | 12768m | -4.2m/s | -47.2°C | 0% | 0hPa | 4.5V | 00:00:00 | 00:00:00 | 00:00:00 | |
| GOEST3-10 | 2026-08-31 11:54:44 | 51.06768 | 9.20734 | 56° | 108km/h | 12776m | -4.1m/s | 0°C | 0% | 0hPa | 4.5V | 00:00:00 | 00:00:00 | 00:00:00 | |
| DO2JMG | 2026-08-31 11:54:42 | 51.06720 | 9.20628 | 52° | 106km/h | 12783m | -4.1m/s | -47.1°C | 0% | 0hPa | 4.5V | 00:00:00 | 00:00:00 | 00:00:00 | |
| DJTTGO | 2026-08-31 11:54:41 | 51.06703 | 9.20595 | 52° | 100km/h | 12788m | -4.2m/s | -47.1°C | 0% | 0hPa | 0V | 00:00:00 | 00:00:00 | 00:00:00 | |
| DL1NUX | 2026-08-31 11:54:39 | 51.06673 | 9.20536 | 52° | 91km/h | 12809m | -4m/s | 0°C | 0% | 0hPa | 0V | 00:00:00 | 00:00:00 | 00:00:00 | |
| GOEST3-10 | 2026-08-31 11:54:39 | 51.06688 | 9.20565 | 51° | 91km/h | 12796m | -4.3m/s | 0°C | 0% | 0hPa | 0V | 00:00:00 | 00:00:00 | 00:00:00 | |
| DL1XH-15 | 2026-08-31 11:54:38 | 51.06648 | 9.20477 | 58° | 88km/h | 12809m | -4m/s | 0°C | 0% | 0hPa | 0V | 00:00:00 | 00:00:00 | 00:00:00 | |
| DO3MHA-11 | 2026-08-31 11:54:37 | 51.06660 | 9.20508 | 59° | 99km/h | 12804m | -4.0m/s | 0°C | 0% | 0hPa | 4.5V | 00:00:00 | 00:00:00 | 00:00:00 | |
| DL1XH-west | 2026-08-31 11:54:35 | 51.06626 | 9.20414 | 63° | 93km/h | 12813m | -3.9m/s | -46.9°C | 0% | 0hPa | 4.5V | 00:00:00 | 00:00:00 | 00:00:00 | |
| GOEST3-10 | 2026-08-31 11:54:33 | 51.06615 | 9.20381 | 65° | 106km/h | 12821m | -3.9m/s | 0°C | 0% | 0hPa | 4.5V | 00:00:00 | 00:00:00 | 00:00:00 | |
| DO2JMG | 2026-08-31 11:54:32 | 51.06592 | 9.20305 | 64° | 108km/h | 12825m | -4.2m/s | -46.8°C | 0% | 0hPa | 4.5V | 00:00:00 | 00:00:00 | 00:00:00 | |
| HSKMA3-T | 2026-08-31 11:54:29 | 51.06551 | 9.20188 | 57° | 113km/h | 12837m | -4.2m/s | -47.1°C | 0% | 0hPa | 4.5V | 00:00:00 | 00:00:00 | 00:00:00 | |
| GOEST3-10 | 2026-08-31 11:54:28 | 51.06551 | 9.20188 | 58° | 110km/h | 12841m | -4.2m/s | 0°C | 0% | 0hPa | 0V | 00:00:00 | 00:00:00 | 00:00:00 | |
| DM0DOS-11 | 2026-08-31 11:54:27 | 51.06467 | 9.20017 | 49° | 99km/h | 12861m | -4.1m/s | 0°C | 0% | 0hPa | 0V | 00:00:00 | 00:00:00 | 00:00:00 | |
| DO3MHA-11 | 2026-08-31 11:54:27 | 51.06535 | 9.20150 | 55° | 99km/h | 12849m | -4.1m/s | 0°C | 0% | 0hPa | 0V | 00:00:00 | 00:00:00 | 00:00:00 | |
| DL1XH-15 | 2026-08-31 11:54:26 | 51.06518 | 9.20114 | 52° | 111km/h | 12849m | -4.2m/s | 0°C | 0% | 0hPa | 0V | 00:00:00 | 00:00:00 | 00:00:00 | |
| DL1XH-west | 2026-08-31 11:54:24 | 51.06467 | 9.20017 | 49° | 99km/h | 12857m | -4.2m/s | -47.1°C | 0% | 0hPa | 4.5V | 00:00:00 | 00:00:00 | 00:00:00 | |
| GOEST3-10 | 2026-08-31 11:54:23 | 51.06467 | 9.20017 | 50° | 91km/h | 12865m | -3.9m/s | 0°C | 0% | 0hPa | 4.5V | 00:00:00 | 00:00:00 | 00:00:00 | |
| DO2JMG | 2026-08-31 11:54:20 | 51.06410 | 9.19902 | 57° | 89km/h | 12874m | -4.1m/s | -47.1°C | 0% | 0hPa | 4.5V | 00:00:00 | 00:00:00 | 00:00:00 | |
| HSKMA3-T | 2026-08-31 11:54:18 | 51.06386 | 9.19839 | 61° | 95km/h | 12882m | -3.9m/s | -47.1°C | 0% | 0hPa | 4.5V | 00:00:00 | 00:00:00 | 00:00:00 | |
| GOEST3-10 | 2026-08-31 11:54:18 | 51.06398 | 9.19873 | 61° | 100km/h | 12882m | -3.9m/s | 0°C | 0% | 0hPa | 0V | 00:00:00 | 00:00:00 | 00:00:00 | |
| DM0DOS-11 | 2026-08-31 11:54:17 | 51.06334 | 9.19694 | 57° | 111km/h | 12902m | -3.8m/s | 0°C | 0% | 0hPa | 0V | 00:00:00 | 00:00:00 | 00:00:00 | |
| DO3MHA-11 | 2026-08-31 11:54:17 | 51.06386 | 9.19839 | 61° | 108km/h | 12886m | -3.6m/s | 0°C | 0% | 0hPa | 4.5V | 00:00:00 | 00:00:00 | 00:00:00 | |
| AA1-15 | 2026-08-31 11:54:16 | 51.06362 | 9.19769 | 61° | 104km/h | 12890m | -3.9m/s | -47.2°C | 0% | 0hPa | 4.5V | 00:00:00 | 00:00:00 | 00:00:00 | |
| DL1XH-west | 2026-08-31 11:54:14 | 51.06334 | 9.19694 | 58° | 111km/h | 12898m | -3.9m/s | -47.2°C | 0% | 0hPa | 4.5V | 00:00:00 | 00:00:00 | 00:00:00 | |
| GOEST3-10 | 2026-08-31 11:54:13 | 51.06334 | 9.19694 | 58° | 111km/h | 12906m | -3.9m/s | 0°C | 0% | 0hPa | 4.5V | 00:00:00 | 00:00:00 | 00:00:00 | |
| DO2JMG | 2026-08-31 11:54:09 | 51.06249 | 9.19517 | 48° | 110km/h | 12918m | -4m/s | -47.3°C | 0% | 0hPa | 4.5V | 00:00:00 | 00:00:00 | 00:00:00 | |
| GOEST3-10 | 2026-08-31 11:54:08 | 51.06249 | 9.19517 | 49° | 102km/h | 12922m | -4.0m/s | 0°C | 0% | 0hPa | 4.5V | 00:00:00 | 00:00:00 | 00:00:00 | |
| HSKMA3-T | 2026-08-31 11:54:07 | 51.06212 | 9.19453 | 47° | 104km/h | 12925m | -3.9m/s | -47.2°C | 0% | 0hPa | 4.5V | 00:00:00 | 00:00:00 | 00:00:00 | |
| DO3MHA-11 | 2026-08-31 11:54:07 | 51.06230 | 9.19483 | 48° | 80km/h | 12926m | -3.8m/s | 0°C | 0% | 0hPa | 4.5V | 00:00:00 | 00:00:00 | 00:00:00 | |
| AA1-15 | 2026-08-31 11:54:05 | 51.06178 | 9.19392 | 50° | 97km/h | 12933m | -3.9m/s | -47°C | 0% | 0hPa | 4.5V | 00:00:00 | 00:00:00 | 00:00:00 | |
| DL1XH-west | 2026-08-31 11:54:03 | 51.06149 | 9.19332 | 55° | 95km/h | 12941m | -3.9m/s | -47.1°C | 0% | 0hPa | 4.5V | 00:00:00 | 00:00:00 | 00:00:00 | |
| DL1XH-15 | 2026-08-31 11:54:02 | 51.06110 | 9.19233 | 60° | 100km/h | 12957m | -4m/s | 0°C | 0% | 0hPa | 0V | 00:00:00 | 00:00:00 | 00:00:00 | |
| DO2JMG | 2026-08-31 11:53:59 | 51.06097 | 9.19197 | 61° | 106km/h | 12957m | -4m/s | -47.3°C | 0% | 0hPa | 4.5V | 00:00:00 | 00:00:00 | 00:00:00 | |
| DM7RM-13 | 2026-08-31 11:53:58 | 51.06084 | 9.19160 | 61° | 110km/h | 12961m | -4.1m/s | -40.7°C | 0% | 0hPa | 4.5V | 00:00:00 | 00:00:00 | 00:00:00 | |
| HSKMA3-T | 2026-08-31 11:53:56 | 51.06055 | 9.19082 | 57° | 115km/h | 12969m | -3.9m/s | -47.4°C | 0% | 0hPa | 4.5V | 00:00:00 | 00:00:00 | 00:00:00 | |
| AA1-15 | 2026-08-31 11:53:54 | 51.06021 | 9.19005 | 54° | 117km/h | 12977m | -4m/s | -47.5°C | 0% | 0hPa | 4.5V | 00:00:00 | 00:00:00 | 00:00:00 | |
| GOEST3-10 | 2026-08-31 11:53:53 | 51.06021 | 9.19005 | 54° | 111km/h | 12981m | -3.9m/s | 0°C | 0% | 0hPa | 4.5V | 00:00:00 | 00:00:00 | 00:00:00 | |
| DL1XH-west | 2026-08-31 11:53:52 | 51.05985 | 9.18933 | 50° | 113km/h | 12984m | -4m/s | -47.5°C | 0% | 0hPa | 4.5V | 00:00:00 | 00:00:00 | 00:00:00 | |
| DL1XH-15 | 2026-08-31 11:53:50 | 51.05949 | 9.18867 | 48° | 104km/h | 12996m | -4m/s | 0°C | 0% | 0hPa | 0V | 00:00:00 | 00:00:00 | 00:00:00 | |
| GOEST3-10 | 2026-08-31 11:53:48 | 51.05932 | 9.18836 | 52° | 95km/h | 13000m | -4.0m/s | 0°C | 0% | 0hPa | 4.5V | 00:00:00 | 00:00:00 | 00:00:00 | |
| HSKMA3-T | 2026-08-31 11:53:46 | 51.05888 | 9.18745 | 57° | 93km/h | 13008m | -4m/s | -47.7°C | 0% | 0hPa | 4.5V | 00:00:00 | 00:00:00 | 00:00:00 | |
| AA1-15 | 2026-08-31 11:53:44 | 51.05864 | 9.18681 | 62° | 95km/h | 13016m | -4m/s | -47.8°C | 0% | 0hPa | 4.5V | 00:00:00 | 00:00:00 | 00:00:00 | |
| GOEST3-10 | 2026-08-31 11:53:43 | 51.05864 | 9.18680 | 63° | 104km/h | 13020m | -4.0m/s | 0°C | 0% | 0hPa | 4.5V | 00:00:00 | 00:00:00 | 00:00:00 | |
| DO2JMG | 2026-08-31 11:53:42 | 51.05842 | 9.18609 | 64° | 102km/h | 13024m | -4m/s | -47.8°C | 0% | 0hPa | 4.5V | 00:00:00 | 00:00:00 | 00:00:00 | |
| DL1XH-west | 2026-08-31 11:53:41 | 51.05830 | 9.18571 | 64° | 108km/h | 13028m | -4m/s | -47.8°C | 0% | 0hPa | 4.5V | 00:00:00 | 00:00:00 | 00:00:00 | |
| GOEST3-10 | 2026-08-31 11:53:38 | 51.05804 | 9.18492 | 61° | 115km/h | 13040m | -4.0m/s | 0°C | 0% | 0hPa | 4.5V | 00:00:00 | 00:00:00 | 00:00:00 | |
| DM7RM-13 | 2026-08-31 11:53:37 | 51.05790 | 9.18452 | 60° | 115km/h | 13040m | -4.0m/s | -41.3°C | 0% | 0hPa | 4.5V | 00:00:00 | 00:00:00 | 00:00:00 | |
| AA1-15 | 2026-08-31 11:53:34 | 51.05725 | 9.18303 | 52° | 108km/h | 13055m | -4m/s | -47.9°C | 0% | 0hPa | 4.5V | 00:00:00 | 00:00:00 | 00:00:00 | |
| GOEST3-10 | 2026-08-31 11:53:33 | 51.05725 | 9.18301 | 52° | 102km/h | 13067m | -3.9m/s | 0°C | 0% | 0hPa | 0V | 00:00:00 | 00:00:00 | 00:00:00 | |
| DL1XH-15 | 2026-08-31 11:53:30 | 51.05664 | 9.18177 | 55° | 91km/h | 13075m | -4m/s | 0°C | 0% | 0hPa | 0V | 00:00:00 | 00:00:00 | 00:00:00 | |
| DL1XH-west | 2026-08-31 11:53:28 | 51.05640 | 9.18116 | 62° | 91km/h | 13079m | -3.9m/s | -48°C | 0% | 0hPa | 4.5V | 00:00:00 | 00:00:00 | 00:00:00 | |
| HSKMA3-T | 2026-08-31 11:53:23 | 51.05586 | 9.17934 | 65° | 110km/h | 13099m | -3.8m/s | -48.1°C | 0% | 0hPa | 4.5V | 00:00:00 | 00:00:00 | 00:00:00 | |
| DL1XH-15 | 2026-08-31 11:53:22 | 51.05546 | 9.17814 | 59° | 113km/h | 13114m | -3.9m/s | 0°C | 0% | 0hPa | 0V | 00:00:00 | 00:00:00 | 00:00:00 | |
| AA1-15 | 2026-08-31 11:53:22 | 51.05574 | 9.17894 | 63° | 113km/h | 13103m | -3.9m/s | -48.2°C | 0% | 0hPa | 4.5V | 00:00:00 | 00:00:00 | 00:00:00 | |
| DJTTGO | 2026-08-31 11:53:20 | 51.05546 | 9.17814 | 60° | 113km/h | 13111m | -3.8m/s | -48.2°C | 0% | 0hPa | 4.5V | 00:00:00 | 00:00:00 | 00:00:00 | |
| DL1XH-west | 2026-08-31 11:53:18 | 51.05515 | 9.17739 | 56° | 110km/h | 13118m | -4m/s | -48.2°C | 0% | 0hPa | 4.5V | 00:00:00 | 00:00:00 | 00:00:00 | |
| DM7RM-13 | 2026-08-31 11:53:17 | 51.05500 | 9.17703 | 55° | 106km/h | 13122m | -3.9m/s | -41.7°C | 0% | 0hPa | 4.4V | 00:00:00 | 00:00:00 | 00:00:00 | |
| DO8TBO-1 | 2026-08-31 11:53:16 | 51.05500 | 9.17703 | 55° | 100km/h | 13125m | -3.7m/s | 0°C | 0% | 0hPa | 4.4V | 00:00:00 | 00:00:00 | 00:00:00 | |
| HSKMA3-T | 2026-08-31 11:53:13 | 51.05441 | 9.17574 | 56° | 93km/h | 13136m | -3.8m/s | -48.1°C | 0% | 0hPa | 4.4V | 00:00:00 | 00:00:00 | 00:00:00 | |
| DL1XH-15 | 2026-08-31 11:53:10 | 51.05405 | 9.17489 | 63° | 91km/h | 13152m | -3.7m/s | 0°C | 0% | 0hPa | 0V | 00:00:00 | 00:00:00 | 00:00:00 | |
| GOEST3-10 | 2026-08-31 11:53:08 | 51.05394 | 9.17449 | 63° | 102km/h | 13160m | -3.7m/s | 0°C | 0% | 0hPa | 4.4V | 00:00:00 | 00:00:00 | 00:00:00 | |
| DL1XH-west | 2026-08-31 11:53:07 | 51.05372 | 9.17381 | 64° | 97km/h | 13159m | -3.8m/s | -48°C | 0% | 0hPa | 4.4V | 00:00:00 | 00:00:00 | 00:00:00 | |
| HSKMA3-T | 2026-08-31 11:53:03 | 51.05325 | 9.17235 | 62° | 106km/h | 13174m | -3.7m/s | -48.1°C | 0% | 0hPa | 4.5V | 00:00:00 | 00:00:00 | 00:00:00 | |
| DL1XH-15 | 2026-08-31 11:53:02 | 51.05285 | 9.17121 | 58° | 111km/h | 13189m | -3.9m/s | 0°C | 0% | 0hPa | 0V | 00:00:00 | 00:00:00 | 00:00:00 | |
| DO2JMG | 2026-08-31 11:53:00 | 51.05284 | 9.17121 | 59° | 111km/h | 13185m | -3.8m/s | -48.3°C | 0% | 0hPa | 4.5V | 00:00:00 | 00:00:00 | 00:00:00 | |
| DL3OBA | 2026-08-31 11:53:00 | 51.05269 | 9.17083 | 59° | 111km/h | 13189m | -3.9m/s | -48.4°C | 0% | 0hPa | 0V | 00:00:00 | 00:00:00 | 00:00:00 | |
| DM0DOS-11 | 2026-08-31 11:52:56 | 51.05222 | 9.16974 | 52° | 110km/h | 13204m | -3.8m/s | 0°C | 0% | 0hPa | 0V | 00:00:00 | 00:00:00 | 00:00:00 | |
| DL1XH-west | 2026-08-31 11:52:56 | 51.05222 | 9.16974 | 53° | 110km/h | 13200m | -3.8m/s | -48.5°C | 0% | 0hPa | 4.5V | 00:00:00 | 00:00:00 | 00:00:00 | |
| DM7RM-13 | 2026-08-31 11:52:56 | 51.05222 | 9.16974 | 54° | 110km/h | 13200m | -3.8m/s | -41.9°C | 0% | 0hPa | 4.5V | 00:00:00 | 00:00:00 | 00:00:00 | |
| DO3DL | 2026-08-31 11:52:53 | 51.05188 | 9.16907 | 52° | 104km/h | 13208m | -3.9m/s | -48.5°C | 0% | 0hPa | 4.5V | 00:00:00 | 00:00:00 | 00:00:00 | |
| HSKMA3-T | 2026-08-31 11:52:52 | 51.05156 | 9.16844 | 52° | 97km/h | 13215m | -3.9m/s | -48.4°C | 0% | 0hPa | 4.5V | 00:00:00 | 00:00:00 | 00:00:00 | |
| DL1XH-15 | 2026-08-31 11:52:51 | 51.05128 | 9.16783 | 55° | 93km/h | 13226m | -3.7m/s | 0°C | 0% | 0hPa | 0V | 00:00:00 | 00:00:00 | 00:00:00 | |
| DM0DOS-11 | 2026-08-31 11:52:51 | 51.05070 | 9.16618 | 64° | 99km/h | 13253m | -3.7m/s | 0°C | 0% | 0hPa | 0V | 00:00:00 | 00:00:00 | 00:00:00 | |
| DO2JMG | 2026-08-31 11:52:49 | 51.05128 | 9.16783 | 56° | 93km/h | 13223m | -3.7m/s | -48.4°C | 0% | 0hPa | 4.5V | 00:00:00 | 00:00:00 | 00:00:00 | |
| DO8TBO-1 | 2026-08-31 11:52:46 | 51.05092 | 9.16688 | 63° | 102km/h | 13238m | -3.6m/s | 0°C | 0% | 0hPa | 4.5V | 00:00:00 | 00:00:00 | 00:00:00 | |
| DL1XH-west | 2026-08-31 11:52:45 | 51.05070 | 9.16618 | 65° | 99km/h | 13242m | -3.8m/s | -48.4°C | 0% | 0hPa | 4.5V | 00:00:00 | 00:00:00 | 00:00:00 | |
| DL1XH-15 | 2026-08-31 11:52:45 | 51.05011 | 9.16429 | 59° | 110km/h | 13264m | -3.5m/s | 0°C | 0% | 0hPa | 0V | 00:00:00 | 00:00:00 | 00:00:00 | |
| DO3DL | 2026-08-31 11:52:43 | 51.05049 | 9.16544 | 66° | 104km/h | 13250m | -3.6m/s | -48.4°C | 0% | 0hPa | 4.5V | 00:00:00 | 00:00:00 | 00:00:00 | |
| HSKMA3-T | 2026-08-31 11:52:40 | 51.05011 | 9.16429 | 61° | 110km/h | 13261m | -3.5m/s | -48.5°C | 0% | 0hPa | 4.5V | 00:00:00 | 00:00:00 | 00:00:00 | |
| DO2JMG | 2026-08-31 11:52:39 | 51.04998 | 9.16391 | 60° | 110km/h | 13264m | -3.5m/s | -48.5°C | 0% | 0hPa | 4.5V | 00:00:00 | 00:00:00 | 00:00:00 | |
| DM0DOS-11 | 2026-08-31 11:52:38 | 51.04943 | 9.16245 | 59° | 104km/h | 13282m | -3.4m/s | 0°C | 0% | 0hPa | 0V | 00:00:00 | 00:00:00 | 00:00:00 | |
| DL1XH-west | 2026-08-31 11:52:35 | 51.04943 | 9.16245 | 59° | 104km/h | 13278m | -3.5m/s | -48.5°C | 0% | 0hPa | 4.5V | 00:00:00 | 00:00:00 | 00:00:00 | |
| DL3OBA | 2026-08-31 11:52:34 | 51.04943 | 9.16245 | 60° | 104km/h | 13289m | -3.3m/s | -48.6°C | 0% | 0hPa | 0V | 00:00:00 | 00:00:00 | 00:00:00 | |
| DL1XH-15 | 2026-08-31 11:52:30 | 51.04877 | 9.16067 | 59° | 102km/h | 13298m | -3.5m/s | 0°C | 0% | 0hPa | 0V | 00:00:00 | 00:00:00 | 00:00:00 | |
| HSKMA3-T | 2026-08-31 11:52:30 | 51.04877 | 9.16067 | 60° | 102km/h | 13295m | -3.5m/s | -48.6°C | 0% | 0hPa | 4.5V | 00:00:00 | 00:00:00 | 00:00:00 | |
| DO3DL | 2026-08-31 11:52:30 | 51.04877 | 9.16067 | 61° | 102km/h | 13295m | -3.5m/s | -48.6°C | 0% | 0hPa | 4.5V | 00:00:00 | 00:00:00 | 00:00:00 | |
| DO2JMG | 2026-08-31 11:52:28 | 51.04851 | 9.15995 | 60° | 104km/h | 13302m | -3.6m/s | -48.4°C | 0% | 0hPa | 4.5V | 00:00:00 | 00:00:00 | 00:00:00 | |
| DF1GD-15 | 2026-08-31 11:52:27 | 51.04851 | 9.15995 | 61° | 104km/h | 13313m | -3.4m/s | -48.4°C | 0% | 0hPa | 4.5V | 00:00:00 | 00:00:00 | 00:00:00 | |
| DL1XH-west | 2026-08-31 11:52:25 | 51.04812 | 9.15882 | 64° | 110km/h | 13312m | -3.4m/s | -48.1°C | 0% | 0hPa | 4.5V | 00:00:00 | 00:00:00 | 00:00:00 | |
| DL1XH-15 | 2026-08-31 11:52:24 | 51.04756 | 9.15641 | 72° | 97km/h | 13337m | -3.6m/s | 0°C | 0% | 0hPa | 0V | 00:00:00 | 00:00:00 | 00:00:00 | |
| DO3DL | 2026-08-31 11:52:23 | 51.04800 | 9.15842 | 67° | 111km/h | 13316m | -3.5m/s | 0°C | 0% | 0hPa | 4.5V | 00:00:00 | 00:00:00 | 00:00:00 | |
| HSKMA3-T | 2026-08-31 11:52:20 | 51.04763 | 9.15679 | 73° | 100km/h | 13330m | -3.7m/s | -48.1°C | 0% | 0hPa | 4.5V | 00:00:00 | 00:00:00 | 00:00:00 | |
| DO2JMG | 2026-08-31 11:52:17 | 51.04740 | 9.15571 | 69° | 89km/h | 13340m | -3.4m/s | -48.2°C | 0% | 0hPa | 4.5V | 00:00:00 | 00:00:00 | 00:00:00 | |
| DL1XH-west | 2026-08-31 11:52:14 | 51.04711 | 9.15475 | 61° | 91km/h | 13351m | -3.4m/s | -48.3°C | 0% | 0hPa | 4.5V | 00:00:00 | 00:00:00 | 00:00:00 | |
| DL1XH-15 | 2026-08-31 11:52:13 | 51.04650 | 9.15308 | 59° | 100km/h | 13382m | -3.6m/s | 0°C | 0% | 0hPa | 0V | 00:00:00 | 00:00:00 | 00:00:00 | |
| DO8TBO-1 | 2026-08-31 11:52:13 | 51.04711 | 9.15475 | 61° | 104km/h | 13355m | -3.4m/s | 0°C | 0% | 0hPa | 4.5V | 00:00:00 | 00:00:00 | 00:00:00 | |
| DL3OBA | 2026-08-31 11:52:12 | 51.04688 | 9.15410 | 61° | 95km/h | 13358m | -3.6m/s | -48.3°C | 0% | 0hPa | 4.5V | 00:00:00 | 00:00:00 | 00:00:00 | |
| HSKMA3-T | 2026-08-31 11:52:09 | 51.04650 | 9.15308 | 60° | 100km/h | 13369m | -3.5m/s | -48.4°C | 0% | 0hPa | 4.5V | 00:00:00 | 00:00:00 | 00:00:00 | |
| DO2JMG | 2026-08-31 11:52:07 | 51.04624 | 9.15237 | 60° | 104km/h | 13376m | -3.6m/s | -48.4°C | 0% | 0hPa | 4.5V | 00:00:00 | 00:00:00 | 00:00:00 | |
| DF1GD-15 | 2026-08-31 11:52:05 | 51.04599 | 9.15164 | 63° | 104km/h | 13383m | -3.6m/s | -48.3°C | 0% | 0hPa | 4.5V | 00:00:00 | 00:00:00 | 00:00:00 | |
| DL1XH-west | 2026-08-31 11:52:04 | 51.04587 | 9.15127 | 63° | 102km/h | 13386m | -3.5m/s | -48.3°C | 0% | 0hPa | 4.5V | 00:00:00 | 00:00:00 | 00:00:00 | |
| GOEST3-10 | 2026-08-31 11:52:04 | 51.04599 | 9.15172 | 68° | 106km/h | 13407m | -3.4m/s | 0°C | 0% | 0hPa | 0V | 00:00:00 | 00:00:00 | 00:00:00 | |
| DL1XH-15 | 2026-08-31 11:52:00 | 51.04503 | 9.14821 | 67° | 108km/h | 13417m | -3.6m/s | 0°C | 0% | 0hPa | 0V | 00:00:00 | 00:00:00 | 00:00:00 | |
| HSKMA3-T | 2026-08-31 11:51:58 | 51.04523 | 9.14900 | 68° | 104km/h | 13406m | -3.4m/s | -48°C | 0% | 0hPa | 4.5V | 00:00:00 | 00:00:00 | 00:00:00 | |
| AA1-15 | 2026-08-31 11:51:56 | 51.04503 | 9.14821 | 68° | 108km/h | 13413m | -3.6m/s | -48.1°C | 0% | 0hPa | 4.5V | 00:00:00 | 00:00:00 | 00:00:00 | |
| DL1XH-west | 2026-08-31 11:51:54 | 51.04482 | 9.14741 | 66° | 108km/h | 13420m | -3.5m/s | -48.1°C | 0% | 0hPa | 4.5V | 00:00:00 | 00:00:00 | 00:00:00 | |
| DL3OBA | 2026-08-31 11:51:51 | 51.04447 | 9.14625 | 64° | 108km/h | 13427m | -3.5m/s | -48.1°C | 0% | 0hPa | 0V | 00:00:00 | 00:00:00 | 00:00:00 | |
| DL1XH-15 | 2026-08-31 11:51:46 | 51.04380 | 9.14436 | 60° | 108km/h | 13451m | -3.4m/s | 0°C | 0% | 0hPa | 0V | 00:00:00 | 00:00:00 | 00:00:00 | |
| DL1XH-west | 2026-08-31 11:51:43 | 51.04329 | 9.14289 | 62° | 102km/h | 13461m | -3.5m/s | -48.2°C | 0% | 0hPa | 4.5V | 00:00:00 | 00:00:00 | 00:00:00 | |
| AA1-15 | 2026-08-31 11:51:43 | 51.04341 | 9.14325 | 62° | 104km/h | 13458m | -3.5m/s | -48.2°C | 0% | 0hPa | 4.5V | 00:00:00 | 00:00:00 | 00:00:00 | |
| DO2JMG | 2026-08-31 11:51:41 | 51.04316 | 9.14252 | 62° | 102km/h | 13465m | -3.6m/s | -48°C | 0% | 0hPa | 4.5V | 00:00:00 | 00:00:00 | 00:00:00 | |
| DL1XH-15 | 2026-08-31 11:51:40 | 51.04261 | 9.14079 | 64° | 91km/h | 13485m | -3.5m/s | 0°C | 0% | 0hPa | 0V | 00:00:00 | 00:00:00 | 00:00:00 | |
| DD1CC2-15 | 2026-08-31 11:51:39 | 51.04305 | 9.14216 | 64° | 100km/h | 13468m | -3.4m/s | -41.4°C | 0% | 0hPa | 4.5V | 00:00:00 | 00:00:00 | 00:00:00 | |
| HSKMA3-T | 2026-08-31 11:51:36 | 51.04261 | 9.14079 | 65° | 91km/h | 13482m | -3.6m/s | -47.4°C | 0% | 0hPa | 4.5V | 00:00:00 | 00:00:00 | 00:00:00 | |
| DL1XH-west | 2026-08-31 11:51:32 | 51.04226 | 9.13944 | 72° | 93km/h | 13497m | -3.5m/s | -47.5°C | 0% | 0hPa | 4.5V | 00:00:00 | 00:00:00 | 00:00:00 | |
| DO3DL | 2026-08-31 11:51:31 | 51.04219 | 9.13908 | 75° | 95km/h | 13500m | -3.5m/s | -47.4°C | 0% | 0hPa | 0V | 00:00:00 | 00:00:00 | 00:00:00 | |
| DL3OBA | 2026-08-31 11:51:30 | 51.04219 | 9.13908 | 75° | 95km/h | 13500m | -3.5m/s | -47.4°C | 0% | 0hPa | 0V | 00:00:00 | 00:00:00 | 00:00:00 | |
| DL1XH-15 | 2026-08-31 11:51:26 | 51.04184 | 9.13708 | 72° | 111km/h | 13520m | -3.6m/s | 0°C | 0% | 0hPa | 0V | 00:00:00 | 00:00:00 | 00:00:00 | |
| HSKMA3-T | 2026-08-31 11:51:26 | 51.04184 | 9.13708 | 72° | 111km/h | 13517m | -3.6m/s | -47.2°C | 0% | 0hPa | 4.5V | 00:00:00 | 00:00:00 | 00:00:00 | |
| DL1XH-west | 2026-08-31 11:51:22 | 51.04142 | 9.13543 | 64° | 106km/h | 13531m | -3.7m/s | -47.1°C | 0% | 0hPa | 4.5V | 00:00:00 | 00:00:00 | 00:00:00 | |
| DO3DL | 2026-08-31 11:51:21 | 51.04130 | 9.13506 | 64° | 100km/h | 13534m | -3.7m/s | -47.0°C | 0% | 0hPa | 0V | 00:00:00 | 00:00:00 | 00:00:00 | |
| DL1XH-15 | 2026-08-31 11:51:20 | 51.04084 | 9.13346 | 76° | 82km/h | 13557m | -3.8m/s | 0°C | 0% | 0hPa | 0V | 00:00:00 | 00:00:00 | 00:00:00 | |
| DD1CC2-15 | 2026-08-31 11:51:19 | 51.04119 | 9.13471 | 64° | 95km/h | 13538m | -3.8m/s | -40.4°C | 0% | 0hPa | 4.5V | 00:00:00 | 00:00:00 | 00:00:00 | |
| AA1-15 | 2026-08-31 11:51:15 | 51.04079 | 9.13312 | 77° | 86km/h | 13557m | -3.8m/s | -47.1°C | 0% | 0hPa | 4.5V | 00:00:00 | 00:00:00 | 00:00:00 | |
| DL1XH-west | 2026-08-31 11:51:11 | 51.04057 | 9.13158 | 76° | 108km/h | 13571m | -3.6m/s | -47°C | 0% | 0hPa | 4.5V | 00:00:00 | 00:00:00 | 00:00:00 | |
| DO3DL | 2026-08-31 11:51:11 | 51.04058 | 9.13158 | 77° | 108km/h | 13571m | -3.6m/s | -47.0°C | 0% | 0hPa | 4.5V | 00:00:00 | 00:00:00 | 00:00:00 | |
| DF1GD-15 | 2026-08-31 11:51:10 | 51.04050 | 9.13116 | 74° | 111km/h | 13575m | -3.8m/s | -47.0°C | 0% | 0hPa | 4.5V | 00:00:00 | 00:00:00 | 00:00:00 | |
| DO2JMG | 2026-08-31 11:51:08 | 51.04031 | 9.13032 | 67° | 111km/h | 13582m | -4m/s | -47°C | 0% | 0hPa | 4.5V | 00:00:00 | 00:00:00 | 00:00:00 | |
| DL1XH-15 | 2026-08-31 11:51:06 | 51.04007 | 9.12955 | 61° | 100km/h | 13594m | -3.8m/s | 0°C | 0% | 0hPa | 0V | 00:00:00 | 00:00:00 | 00:00:00 | |
| DO3DL | 2026-08-31 11:51:05 | 51.03996 | 9.12920 | 62° | 93km/h | 13594m | -3.8m/s | -46.9°C | 0% | 0hPa | 4.5V | 00:00:00 | 00:00:00 | 00:00:00 | |
| AA1-15 | 2026-08-31 11:51:04 | 51.03985 | 9.12889 | 62° | 86km/h | 13597m | -3.7m/s | -46.8°C | 0% | 0hPa | 4.5V | 00:00:00 | 00:00:00 | 00:00:00 | |
| DL1XH-west | 2026-08-31 11:51:01 | 51.03956 | 9.12770 | 78° | 82km/h | 13614m | -4m/s | -46.7°C | 0% | 0hPa | 4.5V | 00:00:00 | 00:00:00 | 00:00:00 | |
| DO2JMG | 2026-08-31 11:50:58 | 51.03947 | 9.12700 | 79° | 97km/h | 13622m | -3.6m/s | -46.7°C | 0% | 0hPa | 4.5V | 00:00:00 | 00:00:00 | 00:00:00 | |
| DO3DL | 2026-08-31 11:50:58 | 51.03942 | 9.12661 | 78° | 102km/h | 13625m | -3.7m/s | -46.7°C | 0% | 0hPa | 0V | 00:00:00 | 00:00:00 | 00:00:00 | |
| DF5WG-10 | 2026-08-31 11:50:55 | 51.03935 | 9.12620 | 74° | 77km/h | 13633m | -6.2m/s | 0°C | 0% | 0hPa | 0V | 00:00:00 | 00:00:00 | 00:00:00 | |
| DL1XH-15 | 2026-08-31 11:50:54 | 51.03904 | 9.12499 | 62° | 108km/h | 13644m | -4m/s | 0°C | 0% | 0hPa | 0V | 00:00:00 | 00:00:00 | 00:00:00 | |
| HSKMA3-T | 2026-08-31 11:50:53 | 51.03904 | 9.12499 | 63° | 108km/h | 13640m | -3.9m/s | -46.7°C | 0% | 0hPa | 4.5V | 00:00:00 | 00:00:00 | 00:00:00 | |
| DO3DL | 2026-08-31 11:50:51 | 51.03890 | 9.12462 | 61° | 102km/h | 13644m | -4.0m/s | -46.6°C | 0% | 0hPa | 4.5V | 00:00:00 | 00:00:00 | 00:00:00 | |
| DL1XH-west | 2026-08-31 11:50:48 | 51.03845 | 9.12339 | 65° | 77km/h | 13659m | -3.8m/s | -46.5°C | 0% | 0hPa | 4.5V | 00:00:00 | 00:00:00 | 00:00:00 | |
| DO8TBO-1 | 2026-08-31 11:50:48 | 51.03854 | 9.12367 | 61° | 60km/h | 13660m | -3.7m/s | 0°C | 0% | 0hPa | 4.5V | 00:00:00 | 00:00:00 | 00:00:00 | |
| DO2JMG | 2026-08-31 11:50:47 | 51.03837 | 9.12310 | 71° | 77km/h | 13664m | -3.9m/s | -46.4°C | 0% | 0hPa | 4.5V | 00:00:00 | 00:00:00 | 00:00:00 | |
| DL1XH-15 | 2026-08-31 11:50:46 | 51.03817 | 9.12175 | 77° | 99km/h | 13683m | -3.8m/s | 0°C | 0% | 0hPa | 0V | 00:00:00 | 00:00:00 | 00:00:00 | |
| DO3DL | 2026-08-31 11:50:45 | 51.03832 | 9.12280 | 76° | 80km/h | 13668m | -4.0m/s | -46.5°C | 0% | 0hPa | 4.5V | 00:00:00 | 00:00:00 | 00:00:00 | |
| DO2KSM | 2026-08-31 11:50:44 | 51.03827 | 9.12248 | 79° | 86km/h | 13672m | -3.9m/s | 0°C | 0% | 0hPa | 4.5V | 00:00:00 | 00:00:00 | 00:00:00 | |
| AA1-15 | 2026-08-31 11:50:43 | 51.03817 | 9.12175 | 77° | 99km/h | 13679m | -3.8m/s | -46.5°C | 0% | 0hPa | 4.5V | 00:00:00 | 00:00:00 | 00:00:00 | |
| DL3OBA | 2026-08-31 11:50:43 | 51.03817 | 9.12175 | 78° | 99km/h | 13679m | -3.8m/s | -46.5°C | 0% | 0hPa | 4.5V | 00:00:00 | 00:00:00 | 00:00:00 | |
| DL1XH-west | 2026-08-31 11:50:38 | 51.03774 | 9.11975 | 64° | 102km/h | 13699m | -4.1m/s | -46.7°C | 0% | 0hPa | 4.5V | 00:00:00 | 00:00:00 | 00:00:00 | |
| DO2JMG | 2026-08-31 11:50:36 | 51.03752 | 9.11906 | 63° | 89km/h | 13707m | -3.7m/s | -46.6°C | 0% | 0hPa | 4.5V | 00:00:00 | 00:00:00 | 00:00:00 | |
| DL1XH-15 | 2026-08-31 11:50:34 | 51.03728 | 9.11819 | 76° | 73km/h | 13723m | -4.4m/s | 0°C | 0% | 0hPa | 0V | 00:00:00 | 00:00:00 | 00:00:00 | |
| AA1-15 | 2026-08-31 11:50:32 | 51.03723 | 9.11790 | 77° | 75km/h | 13723m | -4.4m/s | -46.5°C | 0% | 0hPa | 4.5V | 00:00:00 | 00:00:00 | 00:00:00 | |
| DO3DL | 2026-08-31 11:50:31 | 51.03719 | 9.11760 | 81° | 78km/h | 13728m | -4.5m/s | -46.4°C | 0% | 0hPa | 4.5V | 00:00:00 | 00:00:00 | 00:00:00 | |
| DL1XH-west | 2026-08-31 11:50:27 | 51.03711 | 9.11654 | 83° | 99km/h | 13740m | -4.2m/s | -46.2°C | 0% | 0hPa | 4.5V | 00:00:00 | 00:00:00 | 00:00:00 | |
| DL1XH-15 | 2026-08-31 11:50:26 | 51.03678 | 9.11463 | 66° | 88km/h | 13764m | -4.1m/s | 0°C | 0% | 0hPa | 0V | 00:00:00 | 00:00:00 | 00:00:00 | |
| DO2JMG | 2026-08-31 11:50:25 | 51.03695 | 9.11534 | 73° | 100km/h | 13753m | -4.4m/s | -46.1°C | 0% | 0hPa | 4.5V | 00:00:00 | 00:00:00 | 00:00:00 | |
| HSKMA3-T | 2026-08-31 11:50:21 | 51.03661 | 9.11404 | 65° | 73km/h | 13768m | -4.3m/s | -46°C | 0% | 0hPa | 4.5V | 00:00:00 | 00:00:00 | 00:00:00 | |
| AA1-15 | 2026-08-31 11:50:19 | 51.03649 | 9.11355 | 74° | 62km/h | 13777m | -4.3m/s | -45.9°C | 0% | 0hPa | 4.5V | 00:00:00 | 00:00:00 | 00:00:00 | |
| DL1XH-west | 2026-08-31 11:50:17 | 51.03645 | 9.11305 | 88° | 66km/h | 13785m | -4m/s | -45.8°C | 0% | 0hPa | 4.5V | 00:00:00 | 00:00:00 | 00:00:00 | |
| DO2JMG | 2026-08-31 11:50:15 | 51.03645 | 9.11246 | 91° | 82km/h | 13793m | -4m/s | -45.7°C | 0% | 0hPa | 4.5V | 00:00:00 | 00:00:00 | 00:00:00 | |
| DL1XH-15 | 2026-08-31 11:50:14 | 51.03643 | 9.11175 | 79° | 93km/h | 13805m | -4m/s | 0°C | 0% | 0hPa | 0V | 00:00:00 | 00:00:00 | 00:00:00 | |
| HSKMA3-T | 2026-08-31 11:50:10 | 51.03619 | 9.11033 | 68° | 84km/h | 13817m | -4.1m/s | -45.6°C | 0% | 0hPa | 4.5V | 00:00:00 | 00:00:00 | 00:00:00 | |
| AA1-15 | 2026-08-31 11:50:08 | 51.03611 | 9.11003 | 67° | 77km/h | 13821m | -4m/s | -45.6°C | 0% | 0hPa | 4.5V | 00:00:00 | 00:00:00 | 00:00:00 | |
| DL1XH-west | 2026-08-31 11:50:05 | 51.03598 | 9.10951 | 73° | 64km/h | 13828m | -3.9m/s | -45.5°C | 0% | 0hPa | 4.5V | 00:00:00 | 00:00:00 | 00:00:00 | |
| DO2JMG | 2026-08-31 11:50:04 | 51.03592 | 9.10903 | 85° | 60km/h | 13836m | -4m/s | -45.6°C | 0% | 0hPa | 4.5V | 00:00:00 | 00:00:00 | 00:00:00 | |
| BUE01 | 2026-08-31 11:50:02 | 51.03592 | 9.10852 | 91° | 69km/h | 13844m | -4.1m/s | -45.6°C | -1.0% | -1.0hPa | 4.5V | 00:00:00 | 00:00:00 | 00:00:00 | |
| HSKMA3-T | 2026-08-31 11:50:00 | 51.03592 | 9.10791 | 88° | 80km/h | 13853m | -3.8m/s | -45.5°C | 0% | 0hPa | 4.5V | 00:00:00 | 00:00:00 | 00:00:00 | |
| DD1CC2-15 | 2026-08-31 11:49:59 | 51.03587 | 9.10724 | 81° | 86km/h | 11644m | 4.9m/s | -38.8°C | 0% | 0hPa | 4.5V | 00:00:00 | 00:00:00 | 00:00:00 | |
| DF1GD-15 | 2026-08-31 11:49:58 | 51.03590 | 9.10758 | 85° | 84km/h | 13860m | -3.9m/s | -45.6°C | 0% | 0hPa | 4.5V | 00:00:00 | 00:00:00 | 00:00:00 | |
| DO3DL | 2026-08-31 11:49:57 | 51.03582 | 9.10690 | 77° | 86km/h | 13864m | -3.9m/s | -45.7°C | 0% | 0hPa | 4.5V | 00:00:00 | 00:00:00 | 00:00:00 | |
| AA1-15 | 2026-08-31 11:49:55 | 51.03576 | 9.10658 | 72° | 84km/h | 13867m | -3.9m/s | -45.8°C | 0% | 0hPa | 4.5V | 00:00:00 | 00:00:00 | 00:00:00 | |
| DL1XH-west | 2026-08-31 11:49:55 | 51.03569 | 9.10627 | 69° | 80km/h | 13871m | -4.2m/s | -45.8°C | 0% | 0hPa | 4.5V | 00:00:00 | 00:00:00 | 00:00:00 | |
| DL1XH-15 | 2026-08-31 11:49:55 | 51.03555 | 9.10572 | 66° | 68km/h | 13882m | -3.8m/s | 0°C | 0% | 0hPa | 0V | 00:00:00 | 00:00:00 | 00:00:00 | |
| DO2JMG | 2026-08-31 11:49:53 | 51.03555 | 9.10572 | 67° | 68km/h | 13879m | -3.9m/s | -45.8°C | 0% | 0hPa | 4.5V | 00:00:00 | 00:00:00 | 00:00:00 | |
| HSKMA3-T | 2026-08-31 11:49:49 | 51.03538 | 9.10482 | 82° | 55km/h | 13894m | -3.8m/s | -45.7°C | 0% | 0hPa | 4.5V | 00:00:00 | 00:00:00 | 00:00:00 | |
| AA1-15 | 2026-08-31 11:49:45 | 51.03534 | 9.10381 | 86° | 73km/h | 13910m | -3.9m/s | -45.8°C | 0% | 0hPa | 4.5V | 00:00:00 | 00:00:00 | 00:00:00 | |
| DL1XH-west | 2026-08-31 11:49:44 | 51.03532 | 9.10351 | 84° | 77km/h | 13914m | -3.7m/s | -45.8°C | 0% | 0hPa | 4.5V | 00:00:00 | 00:00:00 | 00:00:00 | |
| DO2JMG | 2026-08-31 11:49:42 | 51.03526 | 9.10289 | 77° | 80km/h | 13922m | -3.9m/s | -45.9°C | 0% | 0hPa | 4.5V | 00:00:00 | 00:00:00 | 00:00:00 | |
| HSKMA3-T | 2026-08-31 11:49:37 | 51.03494 | 9.10143 | 68° | 68km/h | 13941m | -3.8m/s | -46.1°C | 0% | 0hPa | 4.5V | 00:00:00 | 00:00:00 | 00:00:00 | |
| DL3OBA | 2026-08-31 11:49:36 | 51.03488 | 9.10118 | 70° | 64km/h | 13945m | -3.7m/s | -46.1°C | 0% | 0hPa | 4.5V | 00:00:00 | 00:00:00 | 00:00:00 | |
| DL1XH-west | 2026-08-31 11:49:34 | 51.03478 | 9.10073 | 73° | 57km/h | 13952m | -3.6m/s | -46.2°C | 0% | 0hPa | 4.5V | 00:00:00 | 00:00:00 | 00:00:00 | |
| DO2JMG | 2026-08-31 11:49:32 | 51.03471 | 9.10029 | 78° | 57km/h | 13960m | -3.9m/s | -46.2°C | 0% | 0hPa | 4.5V | 00:00:00 | 00:00:00 | 00:00:00 | |
| HSKMA3-T | 2026-08-31 11:49:27 | 51.03457 | 9.09903 | 82° | 68km/h | 13978m | -3.8m/s | -46.6°C | 0% | 0hPa | 4.5V | 00:00:00 | 00:00:00 | 00:00:00 | |
| DL1XH-15 | 2026-08-31 11:49:26 | 51.03449 | 9.09800 | 83° | 58km/h | 13997m | -3.8m/s | 0°C | 0% | 0hPa | 0V | 00:00:00 | 00:00:00 | 00:00:00 | |
| DF1GD-15 | 2026-08-31 11:49:25 | 51.03455 | 9.09876 | 84° | 68km/h | 13982m | -3.8m/s | -46.6°C | 0% | 0hPa | 4.5V | 00:00:00 | 00:00:00 | 00:00:00 | |
| DL1XH-west | 2026-08-31 11:49:23 | 51.03449 | 9.09800 | 83° | 58km/h | 13993m | -3.7m/s | -46.7°C | 0% | 0hPa | 4.5V | 00:00:00 | 00:00:00 | 00:00:00 | |
| DO2JMG | 2026-08-31 11:49:22 | 51.03447 | 9.09778 | 81° | 55km/h | 13997m | -3.8m/s | -46.7°C | 0% | 0hPa | 4.5V | 00:00:00 | 00:00:00 | 00:00:00 | |
| DL1CLM-18 | 2026-08-31 11:49:20 | 51.03444 | 9.09758 | 78° | 51km/h | 14001m | -3.9m/s | -46.8°C | 0% | 0hPa | 4.5V | 00:00:00 | 00:00:00 | 00:00:00 | |
| HSKMA3-T | 2026-08-31 11:49:16 | 51.03423 | 9.09681 | 60° | 60km/h | 14017m | -4.1m/s | -46.9°C | 0% | 0hPa | 4.5V | 00:00:00 | 00:00:00 | 00:00:00 | |
| DL3OBA | 2026-08-31 11:49:15 | 51.03399 | 9.09609 | 67° | 75km/h | 14028m | -3.7m/s | -46.6°C | 0% | 0hPa | 0V | 00:00:00 | 00:00:00 | 00:00:00 | |
| DL1XH-15 | 2026-08-31 11:49:14 | 51.03392 | 9.09581 | 73° | 78km/h | 14035m | -3.8m/s | 0°C | 0% | 0hPa | 0V | 00:00:00 | 00:00:00 | 00:00:00 | |
| DL1XH-west | 2026-08-31 11:49:12 | 51.03385 | 9.09551 | 74° | 78km/h | 14035m | -3.8m/s | -46.5°C | 0% | 0hPa | 4.5V | 00:00:00 | 00:00:00 | 00:00:00 | |
| DO2JMG | 2026-08-31 11:49:09 | 51.03377 | 9.09491 | 81° | 73km/h | 14043m | -4m/s | -46.3°C | 0% | 0hPa | 4.5V | 00:00:00 | 00:00:00 | 00:00:00 | |
| DL1XH-15 | 2026-08-31 11:49:06 | 51.03358 | 9.09348 | 59° | 46km/h | 14078m | -4m/s | 0°C | 0% | 0hPa | 0V | 00:00:00 | 00:00:00 | 00:00:00 | |
| HSKMA3-T | 2026-08-31 11:49:06 | 51.03370 | 9.09396 | 79° | 47km/h | 14058m | -3.8m/s | -46.3°C | 0% | 0hPa | 4.5V | 00:00:00 | 00:00:00 | 00:00:00 | |
| DF1GD-15 | 2026-08-31 11:49:03 | 51.03358 | 9.09348 | 60° | 46km/h | 14070m | -3.9m/s | -46.4°C | 0% | 0hPa | 4.5V | 00:00:00 | 00:00:00 | 00:00:00 | |
| DL1XH-west | 2026-08-31 11:49:02 | 51.03352 | 9.09332 | 56° | 49km/h | 14074m | -4.2m/s | -46.5°C | 0% | 0hPa | 4.5V | 00:00:00 | 00:00:00 | 00:00:00 | |
| DO2JMG | 2026-08-31 11:48:59 | 51.03327 | 9.09273 | 59° | 68km/h | 14086m | -3.8m/s | -46.5°C | 0% | 0hPa | 4.5V | 00:00:00 | 00:00:00 | 00:00:00 | |
| HSKMA3-T | 2026-08-31 11:48:55 | 51.03301 | 9.09166 | 79° | 71km/h | 14101m | -4.1m/s | -46.4°C | 0% | 0hPa | 4.5V | 00:00:00 | 00:00:00 | 00:00:00 | |
| DL1XH-15 | 2026-08-31 11:48:54 | 51.03297 | 9.09113 | 86° | 60km/h | 14113m | -3.9m/s | 0°C | 0% | 0hPa | 0V | 00:00:00 | 00:00:00 | 00:00:00 | |
| DO2SHX-10 | 2026-08-31 11:48:54 | 51.03301 | 9.09166 | 79° | 71km/h | 14106m | -4.1m/s | 0°C | 0% | 0hPa | 4.5V | 00:00:00 | 00:00:00 | 00:00:00 | |
| DL3OBA | 2026-08-31 11:48:53 | 51.03298 | 9.09139 | 84° | 68km/h | 14106m | -4.2m/s | -46.4°C | 0% | 0hPa | 4.5V | 00:00:00 | 00:00:00 | 00:00:00 | |
| DL1XH-west | 2026-08-31 11:48:51 | 51.03296 | 9.09070 | 86° | 46km/h | 14117m | -4m/s | -46.5°C | 0% | 0hPa | 4.5V | 00:00:00 | 00:00:00 | 00:00:00 | |
| DO3MHA-11 | 2026-08-31 11:48:50 | 51.03295 | 9.09070 | 86° | 49km/h | 14121m | -3.8m/s | 0°C | 0% | 0hPa | 4.5V | 00:00:00 | 00:00:00 | 00:00:00 | |
| DO2JMG | 2026-08-31 11:48:48 | 51.03286 | 9.09027 | 52° | 40km/h | 14129m | -3.9m/s | -46.6°C | 0% | 0hPa | 4.5V | 00:00:00 | 00:00:00 | 00:00:00 | |
| HSKMA3-T | 2026-08-31 11:48:44 | 51.03249 | 9.08957 | 56° | 71km/h | 14146m | -4.1m/s | -46.7°C | 0% | 0hPa | 4.5V | 00:00:00 | 00:00:00 | 00:00:00 | |
| DO3MHA-11 | 2026-08-31 11:48:40 | 51.03223 | 9.08877 | 75° | 53km/h | 14158m | -4.2m/s | 0°C | 0% | 0hPa | 4.5V | 00:00:00 | 00:00:00 | 00:00:00 | |
| DL1XH-west | 2026-08-31 11:48:39 | 51.03221 | 9.08850 | 79° | 66km/h | 14163m | -4.1m/s | -46.7°C | 0% | 0hPa | 4.5V | 00:00:00 | 00:00:00 | 00:00:00 | |
| DO2JMG | 2026-08-31 11:48:37 | 51.03217 | 9.08804 | 83° | 49km/h | 14170m | -4m/s | -46.8°C | 0% | 0hPa | 4.5V | 00:00:00 | 00:00:00 | 00:00:00 | |
| DL1XH-15 | 2026-08-31 11:48:34 | 51.03194 | 9.08731 | 43° | 49km/h | 14195m | -4.1m/s | 0°C | 0% | 0hPa | 0V | 00:00:00 | 00:00:00 | 00:00:00 | |
| HSKMA3-T | 2026-08-31 11:48:33 | 51.03194 | 9.08731 | 43° | 49km/h | 14191m | -4m/s | -47.1°C | 0% | 0hPa | 4.5V | 00:00:00 | 00:00:00 | 00:00:00 | |
| DL3OBA | 2026-08-31 11:48:33 | 51.03194 | 9.08730 | 44° | 49km/h | 14191m | -4.1m/s | -47.1°C | 0% | 0hPa | 4.5V | 00:00:00 | 00:00:00 | 00:00:00 | |
| DO3MHA-11 | 2026-08-31 11:48:30 | 51.03173 | 9.08698 | 48° | 64km/h | 14207m | -3.9m/s | 0°C | 0% | 0hPa | 4.5V | 00:00:00 | 00:00:00 | 00:00:00 | |
| DL1XH-west | 2026-08-31 11:48:29 | 51.03152 | 9.08653 | 59° | 75km/h | 14207m | -3.9m/s | -47.1°C | 0% | 0hPa | 4.5V | 00:00:00 | 00:00:00 | 00:00:00 | |
| AA1-15 | 2026-08-31 11:48:28 | 51.03143 | 9.08626 | 65° | 75km/h | 14211m | -3.8m/s | -47.1°C | 0% | 0hPa | 4.5V | 00:00:00 | 00:00:00 | 00:00:00 | |
| DL1XH-15 | 2026-08-31 11:48:27 | 51.03123 | 9.08505 | 77° | 46km/h | 14234m | -3.9m/s | 0°C | 0% | 0hPa | 0V | 00:00:00 | 00:00:00 | 00:00:00 | |
| DO2JMG | 2026-08-31 11:48:26 | 51.03131 | 9.08572 | 77° | 68km/h | 14218m | -3.8m/s | -47.1°C | 0% | 0hPa | 4.5V | 00:00:00 | 00:00:00 | 00:00:00 | |
| HSKMA3-T | 2026-08-31 11:48:22 | 51.03123 | 9.08505 | 77° | 46km/h | 14230m | -4.1m/s | -47.3°C | 0% | 0hPa | 4.5V | 00:00:00 | 00:00:00 | 00:00:00 | |
| DL1XH-west | 2026-08-31 11:48:19 | 51.03100 | 9.08447 | 42° | 53km/h | 14246m | -3.9m/s | -47.6°C | 0% | 0hPa | 4.5V | 00:00:00 | 00:00:00 | 00:00:00 | |
| BIOWL1-15 | 2026-08-31 11:48:17 | 51.03054 | 9.08370 | 55° | 75km/h | 14262m | -4.1m/s | -47.6°C | 0% | 0hPa | 27.8V | 00:00:00 | 00:00:00 | 00:00:00 | |
| DL1XH-15 | 2026-08-31 11:48:16 | 51.03035 | 9.08316 | 70° | 73km/h | 14274m | -3.8m/s | 0°C | 0% | 0hPa | 0V | 00:00:00 | 00:00:00 | 00:00:00 | |
| AA1-15 | 2026-08-31 11:48:16 | 51.03065 | 9.08394 | 49° | 73km/h | 14258m | -3.9m/s | -47.6°C | 0% | 0hPa | 4.5V | 00:00:00 | 00:00:00 | 00:00:00 | |
| DO3DL | 2026-08-31 11:48:14 | 51.03034 | 9.08318 | 67° | 73km/h | 14270m | -3.9m/s | -47.6°C | 0% | 0hPa | 4.5V | 00:00:00 | 00:00:00 | 00:00:00 | |
| DO2JMG | 2026-08-31 11:48:12 | 51.03028 | 9.08291 | 70° | 69km/h | 14274m | -3.8m/s | -47.5°C | 0% | 0hPa | 4.5V | 00:00:00 | 00:00:00 | 00:00:00 | |
| DL3OBA | 2026-08-31 11:48:12 | 51.03028 | 9.08291 | 71° | 69km/h | 14274m | -3.8m/s | -47.5°C | 0% | 0hPa | 4.5V | 00:00:00 | 00:00:00 | 00:00:00 | |
| DM7RM-13 | 2026-08-31 11:48:10 | 51.03023 | 9.08266 | 74° | 62km/h | 14278m | -3.6m/s | -41.0°C | 0% | 0hPa | 4.5V | 00:00:00 | 00:00:00 | 00:00:00 | |
| DO3MHA-11 | 2026-08-31 11:48:09 | 51.03018 | 9.08243 | 74° | 57km/h | 14285m | -3.7m/s | 0°C | 0% | 0hPa | 4.5V | 00:00:00 | 00:00:00 | 00:00:00 | |
| DL1XH-west | 2026-08-31 11:48:08 | 51.03010 | 9.08205 | 67° | 46km/h | 14288m | -3.9m/s | -47.8°C | 0% | 0hPa | 4.5V | 00:00:00 | 00:00:00 | 00:00:00 | |
| DO3DL | 2026-08-31 11:48:08 | 51.03010 | 9.08205 | 68° | 46km/h | 14289m | -3.9m/s | -47.8°C | 0% | 0hPa | 0V | 00:00:00 | 00:00:00 | 00:00:00 | |
| DD1CC2-15 | 2026-08-31 11:48:07 | 51.03010 | 9.08205 | 68° | 46km/h | 14289m | -3.9m/s | -41.2°C | 0% | 0hPa | 0V | 00:00:00 | 00:00:00 | 00:00:00 | |
| DM0DOS-11 | 2026-08-31 11:48:06 | 51.02969 | 9.08127 | 45° | 64km/h | 14316m | -4m/s | 0°C | 0% | 0hPa | 0V | 00:00:00 | 00:00:00 | 00:00:00 | |
| AA1-15 | 2026-08-31 11:48:05 | 51.02990 | 9.08160 | 47° | 51km/h | 14300m | -4.2m/s | -48°C | 0% | 0hPa | 4.5V | 00:00:00 | 00:00:00 | 00:00:00 | |
| BIOWL1-15 | 2026-08-31 11:48:03 | 51.02935 | 9.08062 | 55° | 77km/h | 14320m | -3.9m/s | -48°C | 0% | 0hPa | 0V | 00:00:00 | 00:00:00 | 00:00:00 | |
| HSKMA3-T | 2026-08-31 11:48:01 | 51.02946 | 9.08086 | 51° | 73km/h | 14316m | -4m/s | -48°C | 0% | 0hPa | 4.5V | 00:00:00 | 00:00:00 | 00:00:00 | |
| DO3MHA-11 | 2026-08-31 11:47:58 | 51.02924 | 9.08036 | 59° | 62km/h | 14331m | -3.7m/s | 0°C | 0% | 0hPa | 4.5V | 00:00:00 | 00:00:00 | 00:00:00 | |
| DL1XH-west | 2026-08-31 11:47:57 | 51.02906 | 9.07983 | 66° | 73km/h | 14331m | -3.7m/s | -47.9°C | 0% | 0hPa | 4.5V | 00:00:00 | 00:00:00 | 00:00:00 | |
| DL1XH-15 | 2026-08-31 11:47:57 | 51.02883 | 9.07886 | 62° | 55km/h | 14350m | -3.7m/s | 0°C | 0% | 0hPa | 0V | 00:00:00 | 00:00:00 | 00:00:00 | |
| GOEST3-10 | 2026-08-31 11:47:57 | 51.02914 | 9.07991 | 70° | 68km/h | 14339m | -3.9m/s | 0°C | 0% | 0hPa | 0V | 00:00:00 | 00:00:00 | 00:00:00 | |
| DM0DOS-11 | 2026-08-31 11:47:55 | 51.02877 | 9.07868 | 62° | 53km/h | 14354m | -3.8m/s | 0°C | 0% | 0hPa | 0V | 00:00:00 | 00:00:00 | 00:00:00 | |
| AA1-15 | 2026-08-31 11:47:55 | 51.02894 | 9.07932 | 70° | 64km/h | 14339m | -3.9m/s | -47.8°C | 0% | 0hPa | 4.5V | 00:00:00 | 00:00:00 | 00:00:00 | |
| DO2JMG | 2026-08-31 11:47:52 | 51.02877 | 9.07868 | 63° | 53km/h | 14350m | -3.7m/s | -47.9°C | 0% | 0hPa | 4.5V | 00:00:00 | 00:00:00 | 00:00:00 | |
| HSKMA3-T | 2026-08-31 11:47:51 | 51.02871 | 9.07850 | 58° | 51km/h | 14354m | -3.8m/s | -48°C | 0% | 0hPa | 4.5V | 00:00:00 | 00:00:00 | 00:00:00 | |
| DL3OBA | 2026-08-31 11:47:50 | 51.02863 | 9.07833 | 54° | 51km/h | 14359m | -3.8m/s | -48.1°C | 0% | 0hPa | 0V | 00:00:00 | 00:00:00 | 00:00:00 | |
| DM7RM-13 | 2026-08-31 11:47:49 | 51.02863 | 9.07833 | 54° | 51km/h | 14359m | -3.8m/s | -41.5°C | 0% | 0hPa | 0V | 00:00:00 | 00:00:00 | 00:00:00 | |
| DO3DL | 2026-08-31 11:47:48 | 51.02845 | 9.07800 | 47° | 58km/h | 14366m | -3.8m/s | -48.3°C | 0% | 0hPa | 0V | 00:00:00 | 00:00:00 | 00:00:00 | |
| DL1XH-15 | 2026-08-31 11:47:46 | 51.02787 | 9.07698 | 54° | 78km/h | 14389m | -3.8m/s | 0°C | 0% | 0hPa | 0V | 00:00:00 | 00:00:00 | 00:00:00 | |
| DL1XH-west | 2026-08-31 11:47:46 | 51.02823 | 9.07765 | 45° | 68km/h | 14373m | -4m/s | -48.4°C | 0% | 0hPa | 4.5V | 00:00:00 | 00:00:00 | 00:00:00 | |
| AA1-15 | 2026-08-31 11:47:44 | 51.02811 | 9.07745 | 47° | 71km/h | 14377m | -3.9m/s | -48.4°C | 0% | 0hPa | 4.5V | 00:00:00 | 00:00:00 | 00:00:00 | |
| DM0DOS-11 | 2026-08-31 11:47:44 | 51.02776 | 9.07672 | 58° | 80km/h | 14393m | -3.9m/s | 0°C | 0% | 0hPa | 0V | 00:00:00 | 00:00:00 | 00:00:00 | |
| GOEST3-10 | 2026-08-31 11:47:44 | 51.02806 | 9.07745 | 47° | 80km/h | 14378m | -3.9m/s | 0°C | 0% | 0hPa | 4.5V | 00:00:00 | 00:00:00 | 00:00:00 | |
| DO2JMG | 2026-08-31 11:47:42 | 51.02776 | 9.07672 | 58° | 80km/h | 14389m | -3.8m/s | -48.2°C | 0% | 0hPa | 4.5V | 00:00:00 | 00:00:00 | 00:00:00 | |
| DO3DL | 2026-08-31 11:47:41 | 51.02766 | 9.07644 | 64° | 80km/h | 14393m | -3.9m/s | -48.2°C | 0% | 0hPa | 4.5V | 00:00:00 | 00:00:00 | 00:00:00 | |
| HSKMA3-T | 2026-08-31 11:47:40 | 51.02757 | 9.07616 | 67° | 77km/h | 14396m | -4m/s | -48.2°C | 0% | 0hPa | 4.5V | 00:00:00 | 00:00:00 | 00:00:00 | |
| DF1GD-15 | 2026-08-31 11:47:39 | 51.02745 | 9.07561 | 74° | 66km/h | 14405m | -3.8m/s | -48.2°C | 0% | 0hPa | 4.5V | 00:00:00 | 00:00:00 | 00:00:00 | |
| DL1XH-west | 2026-08-31 11:47:35 | 51.02731 | 9.07497 | 67° | 47km/h | 14416m | -4m/s | -48.2°C | 0% | 0hPa | 4.5V | 00:00:00 | 00:00:00 | 00:00:00 | |
| AA1-15 | 2026-08-31 11:47:34 | 51.02726 | 9.07480 | 60° | 47km/h | 14420m | -4m/s | -48.2°C | 0% | 0hPa | 4.5V | 00:00:00 | 00:00:00 | 00:00:00 | |
| DM0DOS-11 | 2026-08-31 11:47:33 | 51.02711 | 9.07448 | 48° | 55km/h | 14428m | -3.5m/s | 0°C | 0% | 0hPa | 0V | 00:00:00 | 00:00:00 | 00:00:00 | |
| DO2JMG | 2026-08-31 11:47:32 | 51.02701 | 9.07432 | 47° | 60km/h | 14431m | -3.6m/s | -48.3°C | 0% | 0hPa | 4.5V | 00:00:00 | 00:00:00 | 00:00:00 | |
| HSKMA3-T | 2026-08-31 11:47:31 | 51.02690 | 9.07413 | 47° | 66km/h | 14435m | -3.8m/s | -48.3°C | 0% | 0hPa | 4.5V | 00:00:00 | 00:00:00 | 00:00:00 | |
| DM7RM-13 | 2026-08-31 11:47:29 | 51.02690 | 9.07413 | 48° | 66km/h | 14435m | -3.8m/s | -41.7°C | 0% | 0hPa | 4.5V | 00:00:00 | 00:00:00 | 00:00:00 | |
| DO3MHA-11 | 2026-08-31 11:47:28 | 51.02679 | 9.07393 | 49° | 66km/h | 14443m | -3.9m/s | 0°C | 0% | 0hPa | 4.5V | 00:00:00 | 00:00:00 | 00:00:00 | |
| DJTTGO | 2026-08-31 11:47:25 | 51.02647 | 9.07323 | 61° | 73km/h | 14450m | -3.8m/s | -48.1°C | 0% | 0hPa | 4.5V | 00:00:00 | 00:00:00 | 00:00:00 | |
| DL1XH-west | 2026-08-31 11:47:24 | 51.02632 | 9.07272 | 69° | 68km/h | 14457m | -3.6m/s | -48.2°C | 0% | 0hPa | 4.5V | 00:00:00 | 00:00:00 | 00:00:00 | |
| DM0DOS-11 | 2026-08-31 11:47:20 | 51.02617 | 9.07199 | 73° | 57km/h | 14472m | -3.9m/s | 0°C | 0% | 0hPa | 0V | 00:00:00 | 00:00:00 | 00:00:00 | |
| DO2JMG | 2026-08-31 11:47:20 | 51.02613 | 9.07179 | 74° | 53km/h | 14472m | -3.9m/s | -48.4°C | 0% | 0hPa | 4.5V | 00:00:00 | 00:00:00 | 00:00:00 | |
| DF1GD-15 | 2026-08-31 11:47:18 | 51.02600 | 9.07124 | 62° | 47km/h | 14480m | -3.8m/s | -48.5°C | 0% | 0hPa | 0V | 00:00:00 | 00:00:00 | 00:00:00 | |
| HSKMA3-T | 2026-08-31 11:47:18 | 51.02605 | 9.07141 | 67° | 47km/h | 14480m | -3.8m/s | -48.5°C | 0% | 0hPa | 4.5V | 00:00:00 | 00:00:00 | 00:00:00 | |
| DM0DOS-11 | 2026-08-31 11:47:14 | 51.02547 | 9.07018 | 52° | 69km/h | 14510m | -3.7m/s | 0°C | 0% | 0hPa | 0V | 00:00:00 | 00:00:00 | 00:00:00 | |
| DL1XH-west | 2026-08-31 11:47:13 | 51.02577 | 9.07075 | 50° | 55km/h | 14495m | -3.8m/s | -48.7°C | 0% | 0hPa | 4.5V | 00:00:00 | 00:00:00 | 00:00:00 | |
| DO2JMG | 2026-08-31 11:47:09 | 51.02528 | 9.06970 | 61° | 73km/h | 14514m | -3.8m/s | -48.6°C | 0% | 0hPa | 4.5V | 00:00:00 | 00:00:00 | 00:00:00 | |
| DO3DL | 2026-08-31 11:47:08 | 51.02519 | 9.06945 | 66° | 71km/h | 14518m | -3.7m/s | -48.5°C | 0% | 0hPa | 4.5V | 00:00:00 | 00:00:00 | 00:00:00 | |
| HSKMA3-T | 2026-08-31 11:47:07 | 51.02513 | 9.06919 | 69° | 69km/h | 14521m | -3.6m/s | -48.5°C | 0% | 0hPa | 4.5V | 00:00:00 | 00:00:00 | 00:00:00 | |
| DL1XH-15 | 2026-08-31 11:47:06 | 51.02496 | 9.06826 | 76° | 49km/h | 14540m | -3.8m/s | 0°C | 0% | 0hPa | 0V | 00:00:00 | 00:00:00 | 00:00:00 | |
| DL1XH-west | 2026-08-31 11:47:03 | 51.02496 | 9.06826 | 77° | 49km/h | 14536m | -3.7m/s | -48.7°C | 0% | 0hPa | 4.5V | 00:00:00 | 00:00:00 | 00:00:00 | |
| DM0DOS-11 | 2026-08-31 11:47:03 | 51.02490 | 9.06792 | 66° | 40km/h | 14548m | -3.9m/s | 0°C | 0% | 0hPa | 0V | 00:00:00 | 00:00:00 | 00:00:00 | |
| AA1-15 | 2026-08-31 11:47:01 | 51.02490 | 9.06792 | 67° | 40km/h | 14544m | -3.9m/s | -48.8°C | 0% | 0hPa | 4.5V | 00:00:00 | 00:00:00 | 00:00:00 | |
| DO2JMG | 2026-08-31 11:46:59 | 51.02479 | 9.06766 | 47° | 40km/h | 14552m | -3.8m/s | -48.8°C | 0% | 0hPa | 4.5V | 00:00:00 | 00:00:00 | 00:00:00 | |
| DO3MHA-11 | 2026-08-31 11:46:58 | 51.02479 | 9.06766 | 48° | 62km/h | 14556m | -4.0m/s | 0°C | 0% | 0hPa | 0V | 00:00:00 | 00:00:00 | 00:00:00 | |
| DL1XH-15 | 2026-08-31 11:46:56 | 51.02414 | 9.06667 | 58° | 73km/h | 14581m | -3.9m/s | 0°C | 0% | 0hPa | 0V | 00:00:00 | 00:00:00 | 00:00:00 | |
| HSKMA3-T | 2026-08-31 11:46:56 | 51.02450 | 9.06726 | 40° | 62km/h | 14565m | -4.2m/s | -48.8°C | 0% | 0hPa | 4.5V | 00:00:00 | 00:00:00 | 00:00:00 | |
| DF1GD-15 | 2026-08-31 11:46:54 | 51.02426 | 9.06688 | 49° | 71km/h | 14573m | -4.0m/s | -48.7°C | 0% | 0hPa | 4.5V | 00:00:00 | 00:00:00 | 00:00:00 | |
| DO3DL | 2026-08-31 11:46:53 | 51.02426 | 9.06688 | 49° | 71km/h | 14573m | -4.0m/s | 0°C | 0% | 0hPa | 4.5V | 00:00:00 | 00:00:00 | 00:00:00 | |
| AA1-15 | 2026-08-31 11:46:50 | 51.02395 | 9.06616 | 64° | 71km/h | 14585m | -3.9m/s | -48.3°C | 0% | 0hPa | 4.5V | 00:00:00 | 00:00:00 | 00:00:00 | |
| DM0DOS-11 | 2026-08-31 11:46:50 | 51.02394 | 9.06614 | 67° | 71km/h | 14589m | -4m/s | 0°C | 0% | 0hPa | 0V | 00:00:00 | 00:00:00 | 00:00:00 | |
| DO3MHA-11 | 2026-08-31 11:46:48 | 51.02382 | 9.06565 | 68° | 55km/h | 14597m | -3.9m/s | 0°C | 0% | 0hPa | 4.5V | 00:00:00 | 00:00:00 | 00:00:00 | |
| DO2JMG | 2026-08-31 11:46:47 | 51.02377 | 9.06547 | 67° | 51km/h | 14597m | -3.9m/s | -48.4°C | 0% | 0hPa | 4.5V | 00:00:00 | 00:00:00 | 00:00:00 | |
| DL1XH-15 | 2026-08-31 11:46:47 | 51.02340 | 9.06478 | 34° | 53km/h | 14621m | -4.4m/s | 0°C | 0% | 0hPa | 0V | 00:00:00 | 00:00:00 | 00:00:00 | |
| HSKMA3-T | 2026-08-31 11:46:46 | 51.02365 | 9.06514 | 54° | 42km/h | 14605m | -3.6m/s | -48.4°C | 0% | 0hPa | 4.5V | 00:00:00 | 00:00:00 | 00:00:00 | |
| DM0DOS-11 | 2026-08-31 11:46:45 | 51.02314 | 9.06450 | 35° | 68km/h | 14629m | -4.2m/s | 0°C | 0% | 0hPa | 0V | 00:00:00 | 00:00:00 | 00:00:00 | |
| DL1XH-west | 2026-08-31 11:46:41 | 51.02314 | 9.06450 | 35° | 68km/h | 14626m | -4.3m/s | -48.7°C | 0% | 0hPa | 4.5V | 00:00:00 | 00:00:00 | 00:00:00 | |
| AA1-15 | 2026-08-31 11:46:40 | 51.02300 | 9.06433 | 39° | 73km/h | 14629m | -4.2m/s | -48.7°C | 0% | 0hPa | 4.5V | 00:00:00 | 00:00:00 | 00:00:00 | |
| DO3MHA-11 | 2026-08-31 11:46:38 | 51.02286 | 9.06413 | 44° | 68km/h | 14638m | -3.9m/s | 0°C | 0% | 0hPa | 4.5V | 00:00:00 | 00:00:00 | 00:00:00 | |
| DO2JMG | 2026-08-31 11:46:37 | 51.02259 | 9.06364 | 54° | 80km/h | 14642m | -4m/s | -48.6°C | 0% | 0hPa | 4.5V | 00:00:00 | 00:00:00 | 00:00:00 | |
| DL1XH-15 | 2026-08-31 11:46:37 | 51.02223 | 9.06262 | 65° | 60km/h | 14663m | -3.9m/s | 0°C | 0% | 0hPa | 0V | 00:00:00 | 00:00:00 | 00:00:00 | |
| HSKMA3-T | 2026-08-31 11:46:35 | 51.02238 | 9.06311 | 63° | 75km/h | 14650m | -4.2m/s | -48.5°C | 0% | 0hPa | 4.5V | 00:00:00 | 00:00:00 | 00:00:00 | |
| DM0DOS-11 | 2026-08-31 11:46:34 | 51.02210 | 9.06224 | 54° | 47km/h | 14671m | -4.2m/s | 0°C | 0% | 0hPa | 0V | 00:00:00 | 00:00:00 | 00:00:00 | |
| DL1XH-west | 2026-08-31 11:46:31 | 51.02210 | 9.06224 | 55° | 47km/h | 14667m | -4.1m/s | -48.6°C | 0% | 0hPa | 4.5V | 00:00:00 | 00:00:00 | 00:00:00 | |
| AA1-15 | 2026-08-31 11:46:28 | 51.02181 | 9.06184 | 32° | 58km/h | 14680m | -4.2m/s | -48.7°C | 0% | 0hPa | 4.5V | 00:00:00 | 00:00:00 | 00:00:00 | |
| DL3OBA | 2026-08-31 11:46:26 | 51.02153 | 9.06156 | 34° | 75km/h | 14689m | -4.3m/s | -48.8°C | 0% | 0hPa | 4.5V | 00:00:00 | 00:00:00 | 00:00:00 | |
| HSKMA3-T | 2026-08-31 11:46:24 | 51.02121 | 9.06116 | 43° | 86km/h | 14697m | -4.3m/s | -48.8°C | 0% | 0hPa | 4.5V | 00:00:00 | 00:00:00 | 00:00:00 | |
| DL1XH-west | 2026-08-31 11:46:20 | 51.02071 | 9.06008 | 65° | 75km/h | 14714m | -4.3m/s | -48.8°C | 0% | 0hPa | 4.5V | 00:00:00 | 00:00:00 | 00:00:00 | |
| AA1-15 | 2026-08-31 11:46:18 | 51.02058 | 9.05961 | 66° | 57km/h | 14723m | -4.3m/s | -48.9°C | 0% | 0hPa | 4.5V | 00:00:00 | 00:00:00 | 00:00:00 | |
| DL1XH-15 | 2026-08-31 11:46:16 | 51.02012 | 9.05888 | 30° | 68km/h | 14750m | -4.4m/s | 0°C | 0% | 0hPa | 0V | 00:00:00 | 00:00:00 | 00:00:00 | |
| HSKMA3-T | 2026-08-31 11:46:13 | 51.02012 | 9.05888 | 31° | 68km/h | 14745m | -4.5m/s | -49.2°C | 0% | 0hPa | 4.5V | 00:00:00 | 00:00:00 | 00:00:00 | |
| DL1XH-west | 2026-08-31 11:46:09 | 51.01949 | 9.05805 | 51° | 89km/h | 14763m | -4.4m/s | -49.1°C | 0% | 0hPa | 4.5V | 00:00:00 | 00:00:00 | 00:00:00 | |
| DO3MHA-11 | 2026-08-31 11:46:08 | 51.01949 | 9.05805 | 51° | 68km/h | 14768m | -4.4m/s | 0°C | 0% | 0hPa | 4.5V | 00:00:00 | 00:00:00 | 00:00:00 | |
| AA1-15 | 2026-08-31 11:46:07 | 51.01925 | 9.05747 | 62° | 82km/h | 14772m | -4.4m/s | -49.1°C | 0% | 0hPa | 4.5V | 00:00:00 | 00:00:00 | 00:00:00 | |
| DL1XH-15 | 2026-08-31 11:46:06 | 51.01896 | 9.05653 | 56° | 51km/h | 14797m | -4.5m/s | 0°C | 0% | 0hPa | 0V | 00:00:00 | 00:00:00 | 00:00:00 | |
| DL3OBA | 2026-08-31 11:46:05 | 51.01916 | 9.05719 | 67° | 75km/h | 14776m | -4.4m/s | -49.1°C | 0% | 0hPa | 4.5V | 00:00:00 | 00:00:00 | 00:00:00 | |
| HSKMA3-T | 2026-08-31 11:46:03 | 51.01896 | 9.05653 | 57° | 51km/h | 14789m | -4.2m/s | -49.2°C | 0% | 0hPa | 4.5V | 00:00:00 | 00:00:00 | 00:00:00 | |
| DO2JMG | 2026-08-31 11:46:00 | 51.01865 | 9.05609 | 34° | 66km/h | 14802m | -4.4m/s | -49.4°C | 0% | 0hPa | 4.5V | 00:00:00 | 00:00:00 | 00:00:00 | |
| DL1XH-west | 2026-08-31 11:45:58 | 51.01834 | 9.05574 | 38° | 84km/h | 14811m | -4.3m/s | -49.5°C | 0% | 0hPa | 4.5V | 00:00:00 | 00:00:00 | 00:00:00 | |
| DL1XH-15 | 2026-08-31 11:45:57 | 51.01762 | 9.05431 | 68° | 86km/h | 14838m | -4.4m/s | 0°C | 0% | 0hPa | 0V | 00:00:00 | 00:00:00 | 00:00:00 | |
| AA1-15 | 2026-08-31 11:45:56 | 51.01800 | 9.05525 | 48° | 95km/h | 14820m | -4.5m/s | -49.4°C | 0% | 0hPa | 4.5V | 00:00:00 | 00:00:00 | 00:00:00 | |
| DF1GD-15 | 2026-08-31 11:45:54 | 51.01772 | 9.05465 | 60° | 91km/h | 14829m | -4.4m/s | -49.4°C | 0% | 0hPa | 4.5V | 00:00:00 | 00:00:00 | 00:00:00 | |
| HSKMA3-T | 2026-08-31 11:45:52 | 51.01754 | 9.05404 | 68° | 77km/h | 14838m | -4.4m/s | -49.4°C | 0% | 0hPa | 4.5V | 00:00:00 | 00:00:00 | 00:00:00 | |
| GOEST3-10 | 2026-08-31 11:45:51 | 51.01754 | 9.05404 | 69° | 62km/h | 14843m | -4.4m/s | 0°C | 0% | 0hPa | 4.5V | 00:00:00 | 00:00:00 | 00:00:00 | |
| DO2JMG | 2026-08-31 11:45:49 | 51.01741 | 9.05353 | 67° | 58km/h | 14847m | -4.5m/s | -49.4°C | 0% | 0hPa | 4.5V | 00:00:00 | 00:00:00 | 00:00:00 | |
| DJTTGO | 2026-08-31 11:45:49 | 51.01734 | 9.05333 | 60° | 55km/h | 14852m | -4.6m/s | -49.4°C | 0% | 0hPa | 4.5V | 00:00:00 | 00:00:00 | 00:00:00 | |
| DL1XH-west | 2026-08-31 11:45:48 | 51.01727 | 9.05316 | 49° | 55km/h | 14856m | -4.6m/s | -49.4°C | 0% | 0hPa | 4.5V | 00:00:00 | 00:00:00 | 00:00:00 | |
| DL1XH-15 | 2026-08-31 11:45:46 | 51.01655 | 9.05213 | 48° | 97km/h | 14884m | -4.7m/s | 0°C | 0% | 0hPa | 0V | 00:00:00 | 00:00:00 | 00:00:00 | |
| GOEST3-10 | 2026-08-31 11:45:46 | 51.01716 | 9.05299 | 41° | 80km/h | 14865m | -4.4m/s | 0°C | 0% | 0hPa | 4.5V | 00:00:00 | 00:00:00 | 00:00:00 | |
| AA1-15 | 2026-08-31 11:45:45 | 51.01688 | 9.05263 | 39° | 82km/h | 14870m | -4.5m/s | -49.6°C | 0% | 0hPa | 4.5V | 00:00:00 | 00:00:00 | 00:00:00 | |
| DL3OBA | 2026-08-31 11:45:44 | 51.01688 | 9.05263 | 40° | 82km/h | 14870m | -4.5m/s | -49.6°C | 0% | 0hPa | 0V | 00:00:00 | 00:00:00 | 00:00:00 | |
| GOEST3-10 | 2026-08-31 11:45:41 | 51.01639 | 9.05182 | 55° | 88km/h | 14884m | -4.6m/s | 0°C | 0% | 0hPa | 0V | 00:00:00 | 00:00:00 | 00:00:00 | |
| BIOWL1-15 | 2026-08-31 11:45:39 | 51.01600 | 9.05050 | 73° | 77km/h | 14902m | -4.6m/s | 0°C | 0% | 0hPa | 0V | 00:00:00 | 00:00:00 | 00:00:00 | |
| DO2JMG | 2026-08-31 11:45:39 | 51.01606 | 9.05081 | 70° | 86km/h | 14898m | -4.6m/s | -49.5°C | 0% | 0hPa | 4.5V | 00:00:00 | 00:00:00 | 00:00:00 | |
| DO3MHA-11 | 2026-08-31 11:45:38 | 51.01606 | 9.05080 | 71° | 75km/h | 14903m | -4.6m/s | 0°C | 0% | 0hPa | 4.5V | 00:00:00 | 00:00:00 | 00:00:00 | |
| DL1XH-west | 2026-08-31 11:45:37 | 51.01594 | 9.05022 | 72° | 68km/h | 14907m | -4.6m/s | -49.6°C | 0% | 0hPa | 4.5V | 00:00:00 | 00:00:00 | 00:00:00 | |
| DL1XH-15 | 2026-08-31 11:45:37 | 51.01559 | 9.04946 | 42° | 71km/h | 14931m | -4.7m/s | 0°C | 0% | 0hPa | 0V | 00:00:00 | 00:00:00 | 00:00:00 | |
| AA1-15 | 2026-08-31 11:45:35 | 51.01581 | 9.04979 | 56° | 57km/h | 14916m | -4.5m/s | -49.7°C | 0% | 0hPa | 4.5V | 00:00:00 | 00:00:00 | 00:00:00 | |
| DF5WG-10 | 2026-08-31 11:45:33 | 51.01571 | 9.04960 | 47° | 86km/h | 14945m | -4.6m/s | 0°C | 0% | 0hPa | 4.5V | 00:00:00 | 00:00:00 | 00:00:00 | |
| DO3DL | 2026-08-31 11:45:32 | 51.01530 | 9.04897 | 47° | 91km/h | 14936m | -4.6m/s | -49.7°C | 0% | 0hPa | 4.5V | 00:00:00 | 00:00:00 | 00:00:00 | |
| GOEST3-10 | 2026-08-31 11:45:30 | 51.01530 | 9.04906 | 57° | 95km/h | 14945m | -4.6m/s | 0°C | 0% | 0hPa | 4.5V | 00:00:00 | 00:00:00 | 00:00:00 | |
| DO2JMG | 2026-08-31 11:45:28 | 51.01487 | 9.04802 | 62° | 100km/h | 14949m | -4.8m/s | -49.6°C | 0% | 0hPa | 4.5V | 00:00:00 | 00:00:00 | 00:00:00 | |
| DO3MHA-11 | 2026-08-31 11:45:28 | 51.01499 | 9.04836 | 68° | 73km/h | 14949m | -4.8m/s | 0°C | 0% | 0hPa | 4.5V | 00:00:00 | 00:00:00 | 00:00:00 | |
| DL1XH-west | 2026-08-31 11:45:26 | 51.01468 | 9.04732 | 72° | 88km/h | 14959m | -4.8m/s | -49.5°C | 0% | 0hPa | 4.5V | 00:00:00 | 00:00:00 | 00:00:00 | |
| DM7RM-13 | 2026-08-31 11:45:26 | 51.01469 | 9.04732 | 73° | 88km/h | 14959m | -4.8m/s | -43.0°C | 0% | 0hPa | 4.5V | 00:00:00 | 00:00:00 | 00:00:00 | |
| AA1-15 | 2026-08-31 11:45:24 | 51.01457 | 9.04672 | 74° | 68km/h | 14968m | -4.6m/s | -49.4°C | 0% | 0hPa | 4.5V | 00:00:00 | 00:00:00 | 00:00:00 | |
| GOEST3-10 | 2026-08-31 11:45:24 | 51.01462 | 9.04693 | 75° | 68km/h | 14968m | -4.5m/s | 0°C | 0% | 0hPa | 0V | 00:00:00 | 00:00:00 | 00:00:00 | |
| DL3OBA | 2026-08-31 11:45:23 | 51.01453 | 9.04648 | 70° | 58km/h | 14973m | -4.5m/s | -49.4°C | 0% | 0hPa | 0V | 00:00:00 | 00:00:00 | 00:00:00 | |
| DF5WG-10 | 2026-08-31 11:45:21 | 51.01446 | 9.04628 | 60° | 82km/h | 14993m | -4.8m/s | 0°C | 0% | 0hPa | 0V | 00:00:00 | 00:00:00 | 00:00:00 | |
| DO3DL | 2026-08-31 11:45:19 | 51.01415 | 9.04574 | 44° | 75km/h | 14993m | -4.8m/s | -49.5°C | 0% | 0hPa | 0V | 00:00:00 | 00:00:00 | 00:00:00 | |
| DL1XH-15 | 2026-08-31 11:45:18 | 51.01343 | 9.04392 | 74° | 88km/h | 15026m | -4.9m/s | 0°C | 0% | 0hPa | 0V | 00:00:00 | 00:00:00 | 00:00:00 | |
| DO2JMG | 2026-08-31 11:45:18 | 51.01386 | 9.04525 | 51° | 91km/h | 15002m | -4.5m/s | -49.5°C | 0% | 0hPa | 4.5V | 00:00:00 | 00:00:00 | 00:00:00 | |
| DL1XH-west | 2026-08-31 11:45:15 | 51.01360 | 9.04461 | 63° | 97km/h | 15011m | -4.8m/s | -49.4°C | 0% | 0hPa | 4.5V | 00:00:00 | 00:00:00 | 00:00:00 | |
| DO3DL | 2026-08-31 11:45:13 | 51.01343 | 9.04392 | 75° | 88km/h | 15021m | -4.8m/s | -49.4°C | 0% | 0hPa | 4.5V | 00:00:00 | 00:00:00 | 00:00:00 | |
| AA1-15 | 2026-08-31 11:45:13 | 51.01343 | 9.04392 | 74° | 88km/h | 15021m | -4.8m/s | -49.4°C | 0% | 0hPa | 4.5V | 00:00:00 | 00:00:00 | 00:00:00 | |
| GOEST3-10 | 2026-08-31 11:45:12 | 51.01343 | 9.04392 | 75° | 71km/h | 15026m | -4.9m/s | 0°C | 0% | 0hPa | 4.5V | 00:00:00 | 00:00:00 | 00:00:00 | |
| DD1CC2-15 | 2026-08-31 11:45:11 | 51.01334 | 9.04332 | 80° | 68km/h | 15031m | -5.0m/s | -42.9°C | 0% | 0hPa | 4.5V | 00:00:00 | 00:00:00 | 00:00:00 | |
| DO3MHA-11 | 2026-08-31 11:45:08 | 51.01326 | 9.04286 | 67° | 77km/h | 15046m | -4.8m/s | 0°C | 0% | 0hPa | 4.5V | 00:00:00 | 00:00:00 | 00:00:00 | |
| DO2JMG | 2026-08-31 11:45:07 | 51.01310 | 9.04249 | 48° | 62km/h | 15051m | -4.8m/s | -49.5°C | 0% | 0hPa | 4.5V | 00:00:00 | 00:00:00 | 00:00:00 | |
| DO3DL | 2026-08-31 11:45:06 | 51.01299 | 9.04230 | 47° | 71km/h | 15056m | -4.7m/s | -49.5°C | 0% | 0hPa | 4.5V | 00:00:00 | 00:00:00 | 00:00:00 | |
| DL1XH-west | 2026-08-31 11:45:04 | 51.01272 | 9.04182 | 52° | 88km/h | 15065m | -5.2m/s | -49.6°C | 0% | 0hPa | 4.5V | 00:00:00 | 00:00:00 | 00:00:00 | |
| AA1-15 | 2026-08-31 11:45:02 | 51.01247 | 9.04119 | 64° | 93km/h | 15076m | -4.9m/s | -49.5°C | 0% | 0hPa | 4.5V | 00:00:00 | 00:00:00 | 00:00:00 | |
| DL3OBA | 2026-08-31 11:45:01 | 51.01247 | 9.04119 | 65° | 93km/h | 15076m | -4.9m/s | -49.5°C | 0% | 0hPa | 4.5V | 00:00:00 | 00:00:00 | 00:00:00 | |
| DF5WG-10 | 2026-08-31 11:45:00 | 51.01238 | 9.04045 | 80° | 68km/h | 15100m | -4.9m/s | 0°C | 0% | 0hPa | 4.5V | 00:00:00 | 00:00:00 | 00:00:00 | |
| DO3MHA-11 | 2026-08-31 11:44:58 | 51.01235 | 9.04020 | 80° | 68km/h | 15090m | -4.7m/s | 0°C | 0% | 0hPa | 4.5V | 00:00:00 | 00:00:00 | 00:00:00 | |
| GOEST3-10 | 2026-08-31 11:44:57 | 51.01224 | 9.03991 | 82° | 60km/h | 15100m | -4.9m/s | 0°C | 0% | 0hPa | 4.5V | 00:00:00 | 00:00:00 | 00:00:00 | |
| DO2JMG | 2026-08-31 11:44:56 | 51.01218 | 9.03943 | 74° | 53km/h | 15105m | -4.8m/s | -49.7°C | 0% | 0hPa | 4.5V | 00:00:00 | 00:00:00 | 00:00:00 | |
| DL1XH-west | 2026-08-31 11:44:53 | 51.01207 | 9.03905 | 56° | 55km/h | 15115m | -5m/s | -49.8°C | 0% | 0hPa | 4.5V | 00:00:00 | 00:00:00 | 00:00:00 | |
| DO3DL | 2026-08-31 11:44:53 | 51.01198 | 9.03886 | 53° | 62km/h | 15120m | -4.9m/s | -49.8°C | 0% | 0hPa | 4.5V | 00:00:00 | 00:00:00 | 00:00:00 | |
| AA1-15 | 2026-08-31 11:44:52 | 51.01187 | 9.03865 | 51° | 71km/h | 15125m | -5m/s | -49.8°C | 0% | 0hPa | 4.5V | 00:00:00 | 00:00:00 | 00:00:00 | |
| DF1GD-15 | 2026-08-31 11:44:51 | 51.01188 | 9.03865 | 52° | 71km/h | 15125m | -5.0m/s | -49.8°C | 0% | 0hPa | 0V | 00:00:00 | 00:00:00 | 00:00:00 | |
| DD1CC2-15 | 2026-08-31 11:44:50 | 51.01176 | 9.03841 | 54° | 80km/h | 15130m | -4.9m/s | -43.3°C | 0% | 0hPa | 0V | 00:00:00 | 00:00:00 | 00:00:00 | |
| DF5WG-10 | 2026-08-31 11:44:48 | 51.01134 | 9.03751 | 68° | 69km/h | 15146m | -5.1m/s | 0°C | 0% | 0hPa | 0V | 00:00:00 | 00:00:00 | 00:00:00 | |
| DL1XH-15 | 2026-08-31 11:44:47 | 51.01123 | 9.03602 | 83° | 57km/h | 15175m | -5.2m/s | 0°C | 0% | 0hPa | 0V | 00:00:00 | 00:00:00 | 00:00:00 | |
| DO3MHA-11 | 2026-08-31 11:44:47 | 51.01143 | 9.03744 | 78° | 60km/h | 15150m | -4.9m/s | 0°C | 0% | 0hPa | 4.5V | 00:00:00 | 00:00:00 | 00:00:00 | |
| DO2JMG | 2026-08-31 11:44:46 | 51.01130 | 9.03685 | 78° | 82km/h | 15155m | -4.8m/s | -49.7°C | 0% | 0hPa | 4.5V | 00:00:00 | 00:00:00 | 00:00:00 | |
| GOEST3-10 | 2026-08-31 11:44:45 | 51.01152 | 9.03685 | 78° | 66km/h | 15155m | -4.8m/s | 0°C | 0% | 0hPa | 4.5V | 00:00:00 | 00:00:00 | 00:00:00 | |
| DL1XH-west | 2026-08-31 11:44:43 | 51.01123 | 9.03602 | 84° | 57km/h | 15170m | -5m/s | -49.8°C | 0% | 0hPa | 4.5V | 00:00:00 | 00:00:00 | 00:00:00 | |
| DM7RM-13 | 2026-08-31 11:44:41 | 51.01121 | 9.03581 | 80° | 49km/h | 15175m | -5.2m/s | -43.3°C | 0% | 0hPa | 4.5V | 00:00:00 | 00:00:00 | 00:00:00 | |
| AA1-15 | 2026-08-31 11:44:40 | 51.01117 | 9.03564 | 68° | 44km/h | 15180m | -5.3m/s | -49.8°C | 0% | 0hPa | 4.5V | 00:00:00 | 00:00:00 | 00:00:00 | |
| DO3MHA-11 | 2026-08-31 11:44:36 | 51.01081 | 9.03500 | 53° | 68km/h | 15207m | -5.0m/s | 0°C | 0% | 0hPa | 4.5V | 00:00:00 | 00:00:00 | 00:00:00 | |
| DO2JMG | 2026-08-31 11:44:34 | 51.01048 | 9.03415 | 67° | 84km/h | 15217m | -5m/s | -49.7°C | 0% | 0hPa | 4.5V | 00:00:00 | 00:00:00 | 00:00:00 | |
| DL1XH-west | 2026-08-31 11:44:32 | 51.01036 | 9.03355 | 79° | 73km/h | 15227m | -4.8m/s | -49.7°C | 0% | 0hPa | 4.5V | 00:00:00 | 00:00:00 | 00:00:00 | |
| AA1-15 | 2026-08-31 11:44:30 | 51.01032 | 9.03305 | 82° | 53km/h | 15238m | -5.1m/s | -49.8°C | 0% | 0hPa | 4.5V | 00:00:00 | 00:00:00 | 00:00:00 | |
| DO3MHA-11 | 2026-08-31 11:44:26 | 51.01019 | 9.03258 | 47° | 69km/h | 15259m | -5.0m/s | 0°C | 0% | 0hPa | 4.5V | 00:00:00 | 00:00:00 | 00:00:00 | |
| DO2JMG | 2026-08-31 11:44:24 | 51.00987 | 9.03214 | 42° | 73km/h | 15269m | -5.2m/s | -50°C | 0% | 0hPa | 4.5V | 00:00:00 | 00:00:00 | 00:00:00 | |
| GOEST3-10 | 2026-08-31 11:44:23 | 51.00986 | 9.03214 | 42° | 77km/h | 15274m | -5.1m/s | 0°C | 0% | 0hPa | 4.5V | 00:00:00 | 00:00:00 | 00:00:00 | |
| DL1XH-west | 2026-08-31 11:44:21 | 51.00948 | 9.03138 | 62° | 86km/h | 15285m | -5.2m/s | -49.9°C | 0% | 0hPa | 4.5V | 00:00:00 | 00:00:00 | 00:00:00 | |
| AA1-15 | 2026-08-31 11:44:19 | 51.00933 | 9.03078 | 75° | 75km/h | 15295m | -5m/s | -49.9°C | 0% | 0hPa | 4.5V | 00:00:00 | 00:00:00 | 00:00:00 | |
| DL1XH-15 | 2026-08-31 11:44:17 | 51.00902 | 9.02964 | 39° | 57km/h | 15331m | -4.9m/s | 0°C | 0% | 0hPa | 0V | 00:00:00 | 00:00:00 | 00:00:00 | |
| DO3MHA-11 | 2026-08-31 11:44:16 | 51.00926 | 9.03027 | 79° | 68km/h | 15310m | -5.2m/s | 0°C | 0% | 0hPa | 4.5V | 00:00:00 | 00:00:00 | 00:00:00 | |
| DO2JMG | 2026-08-31 11:44:12 | 51.00902 | 9.02964 | 40° | 57km/h | 15326m | -5m/s | -50.2°C | 0% | 0hPa | 4.5V | 00:00:00 | 00:00:00 | 00:00:00 | |
| GOEST3-10 | 2026-08-31 11:44:12 | 51.00902 | 9.02964 | 40° | 80km/h | 15336m | -5.1m/s | 0°C | 0% | 0hPa | 4.5V | 00:00:00 | 00:00:00 | 00:00:00 | |
| DL1XH-west | 2026-08-31 11:44:11 | 51.00876 | 9.02929 | 43° | 78km/h | 15336m | -5.1m/s | -50.3°C | 0% | 0hPa | 4.5V | 00:00:00 | 00:00:00 | 00:00:00 | |
| DD1CC2-15 | 2026-08-31 11:44:10 | 51.00862 | 9.02905 | 49° | 86km/h | 15341m | -5.3m/s | -43.9°C | 0% | 0hPa | 4.5V | 00:00:00 | 00:00:00 | 00:00:00 | |
| AA1-15 | 2026-08-31 11:44:08 | 51.00835 | 9.02847 | 61° | 91km/h | 15352m | -5.3m/s | -50.2°C | 0% | 0hPa | 4.5V | 00:00:00 | 00:00:00 | 00:00:00 | |
| DF1GD-15 | 2026-08-31 11:44:07 | 51.00825 | 9.02815 | 69° | 89km/h | 15357m | -5.2m/s | -50.1°C | 0% | 0hPa | 0V | 00:00:00 | 00:00:00 | 00:00:00 | |
| DO3MHA-11 | 2026-08-31 11:44:06 | 51.00825 | 9.02813 | 74° | 68km/h | 15367m | -4.9m/s | 0°C | 0% | 0hPa | 0V | 00:00:00 | 00:00:00 | 00:00:00 | |
| DM0DOS-11 | 2026-08-31 11:44:05 | 51.00807 | 9.02699 | 66° | 53km/h | 15383m | -5.3m/s | 0°C | 0% | 0hPa | 0V | 00:00:00 | 00:00:00 | 00:00:00 | |
| DF5WG-10 | 2026-08-31 11:44:03 | 51.00810 | 9.02725 | 81° | 77km/h | 15419m | -5.0m/s | 0°C | 0% | 0hPa | 4.5V | 00:00:00 | 00:00:00 | 00:00:00 | |
| DO2JMG | 2026-08-31 11:44:01 | 51.00803 | 9.02682 | 67° | 47km/h | 15383m | -5.3m/s | -50.3°C | 0% | 0hPa | 4.5V | 00:00:00 | 00:00:00 | 00:00:00 | |
| DL3OBA | 2026-08-31 11:44:01 | 51.00797 | 9.02666 | 54° | 47km/h | 15388m | -5.2m/s | -50.3°C | 0% | 0hPa | 4.5V | 00:00:00 | 00:00:00 | 00:00:00 | |
| DM7RM-13 | 2026-08-31 11:44:00 | 51.00797 | 9.02666 | 54° | 47km/h | 15388m | -5.2m/s | -43.9°C | 0% | 0hPa | 4.5V | 00:00:00 | 00:00:00 | 00:00:00 | |
| DL1XH-west | 2026-08-31 11:43:59 | 51.00789 | 9.02651 | 44° | 55km/h | 15393m | -5.1m/s | -50.3°C | 0% | 0hPa | 4.5V | 00:00:00 | 00:00:00 | 00:00:00 | |
| AA1-15 | 2026-08-31 11:43:58 | 51.00764 | 9.02616 | 43° | 77km/h | 15404m | -5.2m/s | -50.3°C | 0% | 0hPa | 4.5V | 00:00:00 | 00:00:00 | 00:00:00 | |
| DO3MHA-11 | 2026-08-31 11:43:56 | 51.00749 | 9.02592 | 48° | 73km/h | 15414m | -5.2m/s | 0°C | 0% | 0hPa | 0V | 00:00:00 | 00:00:00 | 00:00:00 | |
| DM0DOS-11 | 2026-08-31 11:43:55 | 51.00706 | 9.02471 | 74° | 80km/h | 15434m | -5.3m/s | 0°C | 0% | 0hPa | 0V | 00:00:00 | 00:00:00 | 00:00:00 | |
| GOEST3-10 | 2026-08-31 11:43:51 | 51.00701 | 9.02425 | 78° | 55km/h | 15440m | -5.2m/s | 0°C | 0% | 0hPa | 4.5V | 00:00:00 | 00:00:00 | 00:00:00 | |
| DO2JMG | 2026-08-31 11:43:51 | 51.00698 | 9.02415 | 80° | 60km/h | 15440m | -5.3m/s | -50.2°C | 0% | 0hPa | 4.5V | 00:00:00 | 00:00:00 | 00:00:00 | |
| DD1CC2-15 | 2026-08-31 11:43:50 | 51.00696 | 9.02393 | 78° | 49km/h | 15445m | -5.2m/s | -43.8°C | 0% | 0hPa | 4.5V | 00:00:00 | 00:00:00 | 00:00:00 | |
| DL1XH-west | 2026-08-31 11:43:49 | 51.00692 | 9.02376 | 66° | 42km/h | 15450m | -5.3m/s | -50.2°C | 0% | 0hPa | 4.5V | 00:00:00 | 00:00:00 | 00:00:00 | |
| AA1-15 | 2026-08-31 11:43:47 | 51.00679 | 9.02349 | 41° | 47km/h | 15460m | -5.2m/s | -50.2°C | 0% | 0hPa | 4.5V | 00:00:00 | 00:00:00 | 00:00:00 | |
| DO3MHA-11 | 2026-08-31 11:43:46 | 51.00679 | 9.02349 | 41° | 68km/h | 15466m | -5.5m/s | 0°C | 0% | 0hPa | 0V | 00:00:00 | 00:00:00 | 00:00:00 | |
| DM0DOS-11 | 2026-08-31 11:43:45 | 51.00629 | 9.02276 | 52° | 82km/h | 15487m | -5.1m/s | 0°C | 0% | 0hPa | 0V | 00:00:00 | 00:00:00 | 00:00:00 | |
| DO2SHX-10 | 2026-08-31 11:43:43 | 51.00642 | 9.02300 | 46° | 53km/h | 15487m | -5.0m/s | 0°C | 0% | 0hPa | 4.5V | 00:00:00 | 00:00:00 | 00:00:00 | |
| GOEST3-10 | 2026-08-31 11:43:41 | 51.00618 | 9.02249 | 61° | 77km/h | 15492m | -5.0m/s | 0°C | 0% | 0hPa | 4.5V | 00:00:00 | 00:00:00 | 00:00:00 | |
| DO2JMG | 2026-08-31 11:43:40 | 51.00602 | 9.02190 | 74° | 75km/h | 15497m | -5m/s | -50.2°C | 0% | 0hPa | 4.5V | 00:00:00 | 00:00:00 | 00:00:00 | |
| DL3OBA | 2026-08-31 11:43:40 | 51.00602 | 9.02190 | 75° | 75km/h | 15497m | -4.9m/s | -50.2°C | 0% | 0hPa | 4.5V | 00:00:00 | 00:00:00 | 00:00:00 | |
| DL1XH-west | 2026-08-31 11:43:38 | 51.00595 | 9.02138 | 82° | 55km/h | 15507m | -5.2m/s | -50.3°C | 0% | 0hPa | 4.5V | 00:00:00 | 00:00:00 | 00:00:00 | |
| AA1-15 | 2026-08-31 11:43:36 | 51.00590 | 9.02103 | 67° | 37km/h | 15518m | -5.1m/s | -50.4°C | 0% | 0hPa | 4.5V | 00:00:00 | 00:00:00 | 00:00:00 | |
| DM0DOS-11 | 2026-08-31 11:43:35 | 51.00568 | 9.02070 | 32° | 53km/h | 15533m | -5.1m/s | 0°C | 0% | 0hPa | 0V | 00:00:00 | 00:00:00 | 00:00:00 | |
| DO2JMG | 2026-08-31 11:43:30 | 51.00529 | 9.02020 | 48° | 77km/h | 15549m | -5.3m/s | -50.6°C | 0% | 0hPa | 4.5V | 00:00:00 | 00:00:00 | 00:00:00 | |
| DD1CC2-15 | 2026-08-31 11:43:29 | 51.00517 | 9.01996 | 57° | 77km/h | 15554m | -4.9m/s | -44.1°C | 0% | 0hPa | 4.5V | 00:00:00 | 00:00:00 | 00:00:00 | |
| DL1XH-west | 2026-08-31 11:43:27 | 51.00508 | 9.01969 | 65° | 75km/h | 15559m | -4.7m/s | -50.5°C | 0% | 0hPa | 4.5V | 00:00:00 | 00:00:00 | 00:00:00 | |
| DL1XH-15 | 2026-08-31 11:43:26 | 51.00490 | 9.01863 | 67° | 35km/h | 15589m | -5.1m/s | 0°C | 0% | 0hPa | 0V | 00:00:00 | 00:00:00 | 00:00:00 | |
| DO2KSM | 2026-08-31 11:43:26 | 50.61601 | 8.08656 | 59° | 135km/h | 10178m | 5.4m/s | 0°C | 0% | 0hPa | 4.5V | 00:00:00 | 00:00:00 | 00:00:00 | |
| AA1-15 | 2026-08-31 11:43:25 | 51.00495 | 9.01895 | 81° | 51km/h | 15574m | -5.1m/s | -50.6°C | 0% | 0hPa | 4.5V | 00:00:00 | 00:00:00 | 00:00:00 | |
| GOEST3-10 | 2026-08-31 11:43:21 | 51.00485 | 9.01857 | 39° | 38km/h | 15594m | -5.1m/s | 0°C | 0% | 0hPa | 4.5V | 00:00:00 | 00:00:00 | 00:00:00 | |
| HSKMA3-T | 2026-08-31 11:43:19 | 51.00457 | 9.01815 | 39° | 64km/h | 15604m | -4.6m/s | -50.6°C | 0% | 0hPa | 4.5V | 00:00:00 | 00:00:00 | 00:00:00 | |
| DL1XH-west | 2026-08-31 11:43:17 | 51.00431 | 9.01774 | 51° | 80km/h | 15614m | -5.1m/s | -50.4°C | 0% | 0hPa | 4.5V | 00:00:00 | 00:00:00 | 00:00:00 | |
| DL1XH-15 | 2026-08-31 11:43:16 | 51.00398 | 9.01654 | 83° | 73km/h | 15640m | -5.3m/s | 0°C | 0% | 0hPa | 0V | 00:00:00 | 00:00:00 | 00:00:00 | |
| DO3MHA-11 | 2026-08-31 11:43:16 | 51.00431 | 9.01774 | 51° | 57km/h | 15619m | -5.1m/s | 0°C | 0% | 0hPa | 4.5V | 00:00:00 | 00:00:00 | 00:00:00 | |
| AA1-15 | 2026-08-31 11:43:14 | 51.00410 | 9.01718 | 66° | 82km/h | 15625m | -5.2m/s | -50.4°C | 0% | 0hPa | 4.5V | 00:00:00 | 00:00:00 | 00:00:00 | |
| GOEST3-10 | 2026-08-31 11:43:11 | 51.00395 | 9.01631 | 84° | 49km/h | 15651m | -5.0m/s | 0°C | 0% | 0hPa | 4.5V | 00:00:00 | 00:00:00 | 00:00:00 | |
| HSKMA3-T | 2026-08-31 11:43:08 | 51.00384 | 9.01563 | 47° | 37km/h | 15661m | -4.9m/s | -50.4°C | 0% | 0hPa | 4.5V | 00:00:00 | 00:00:00 | 00:00:00 | |
| GOEST3-10 | 2026-08-31 11:43:06 | 51.00376 | 9.01555 | 35° | 66km/h | 15671m | -5.5m/s | 0°C | 0% | 0hPa | 4.5V | 00:00:00 | 00:00:00 | 00:00:00 | |
| DL1XH-west | 2026-08-31 11:43:05 | 51.00366 | 9.01540 | 35° | 57km/h | 15671m | -5.5m/s | -50.3°C | 0% | 0hPa | 4.5V | 00:00:00 | 00:00:00 | 00:00:00 | |
| DO3MHA-11 | 2026-08-31 11:43:05 | 51.00366 | 9.01540 | 35° | 64km/h | 15677m | -5.5m/s | 0°C | 0% | 0hPa | 4.5V | 00:00:00 | 00:00:00 | 00:00:00 | |
| AA1-15 | 2026-08-31 11:43:03 | 51.00341 | 9.01507 | 46° | 73km/h | 15682m | -5.2m/s | -50.3°C | 0% | 0hPa | 4.5V | 00:00:00 | 00:00:00 | 00:00:00 | |
| DO2SHX-10 | 2026-08-31 11:43:02 | 51.00329 | 9.01484 | 55° | 69km/h | 15692m | -4.6m/s | 0°C | 0% | 0hPa | 4.5V | 00:00:00 | 00:00:00 | 00:00:00 | |
| GOEST3-10 | 2026-08-31 11:43:01 | 51.00319 | 9.01457 | 65° | 66km/h | 15697m | -4.8m/s | 0°C | 0% | 0hPa | 4.5V | 00:00:00 | 00:00:00 | 00:00:00 | |
| DF1GD-15 | 2026-08-31 11:43:00 | 51.00312 | 9.01428 | 74° | 75km/h | 15697m | -4.8m/s | -50.2°C | 0% | 0hPa | 4.5V | 00:00:00 | 00:00:00 | 00:00:00 | |
| DM7RM-13 | 2026-08-31 11:42:58 | 51.00307 | 9.01374 | 88° | 60km/h | 15707m | -5.2m/s | -43.8°C | 0% | 0hPa | 4.5V | 00:00:00 | 00:00:00 | 00:00:00 | |
| HSKMA3-T | 2026-08-31 11:42:57 | 51.00305 | 9.01334 | 84° | 40km/h | 15718m | -5.2m/s | -50.2°C | 0% | 0hPa | 4.5V | 00:00:00 | 00:00:00 | 00:00:00 | |
| DL1XH-15 | 2026-08-31 11:42:56 | 51.00258 | 9.01243 | 53° | 75km/h | 15752m | -5m/s | 0°C | 0% | 0hPa | 0V | 00:00:00 | 00:00:00 | 00:00:00 | |
| DL1XH-west | 2026-08-31 11:42:55 | 51.00299 | 9.01308 | 50° | 38km/h | 15727m | -4.6m/s | -50.2°C | 0% | 0hPa | 4.5V | 00:00:00 | 00:00:00 | 00:00:00 | |
| AA1-15 | 2026-08-31 11:42:53 | 51.00281 | 9.01283 | 41° | 58km/h | 15737m | -4.8m/s | -50.3°C | 0% | 0hPa | 4.5V | 00:00:00 | 00:00:00 | 00:00:00 | |
| DO2SHX-10 | 2026-08-31 11:42:53 | 51.00291 | 9.01324 | 54° | 60km/h | 15747m | -5.1m/s | 0°C | 0% | 0hPa | 4.5V | 00:00:00 | 00:00:00 | 00:00:00 | |
| DF5WG-10 | 2026-08-31 11:42:51 | 51.00269 | 9.01269 | 54° | 58km/h | 15747m | -5.1m/s | 0°C | 0% | 0hPa | 4.5V | 00:00:00 | 00:00:00 | 00:00:00 | |
| DO2SHX-10 | 2026-08-31 11:42:48 | 51.00240 | 9.01189 | 72° | 73km/h | 15762m | -4.7m/s | 0°C | 0% | 0hPa | 4.5V | 00:00:00 | 00:00:00 | 00:00:00 | |
| HSKMA3-T | 2026-08-31 11:42:47 | 51.00233 | 9.01135 | 87° | 62km/h | 15766m | -4.8m/s | -49.9°C | 0% | 0hPa | 4.5V | 00:00:00 | 00:00:00 | 00:00:00 | |
| GOEST3-10 | 2026-08-31 11:42:46 | 51.00233 | 9.01135 | 87° | 42km/h | 15772m | -5.0m/s | 0°C | 0% | 0hPa | 4.5V | 00:00:00 | 00:00:00 | 00:00:00 | |
| DO3MHA-11 | 2026-08-31 11:42:45 | 51.00233 | 9.01112 | 92° | 46km/h | 15782m | -5.0m/s | 0°C | 0% | 0hPa | 4.5V | 00:00:00 | 00:00:00 | 00:00:00 | |
| DO2JMG | 2026-08-31 11:42:44 | 51.00232 | 9.01080 | 78° | 29km/h | 15781m | -5m/s | -49.8°C | 0% | 0hPa | 4.5V | 00:00:00 | 00:00:00 | 00:00:00 | |
| AA1-15 | 2026-08-31 11:42:42 | 51.00224 | 9.01062 | 36° | 35km/h | 15791m | -4.8m/s | -49.8°C | 0% | 0hPa | 4.5V | 00:00:00 | 00:00:00 | 00:00:00 | |
| DO2SHX-10 | 2026-08-31 11:42:41 | 51.00223 | 9.01062 | 37° | 46km/h | 15801m | -5.0m/s | 0°C | 0% | 0hPa | 4.5V | 00:00:00 | 00:00:00 | 00:00:00 | |
| DF1GD-15 | 2026-08-31 11:42:40 | 51.00215 | 9.01053 | 33° | 46km/h | 15797m | -5.0m/s | -49.8°C | 0% | 0hPa | 4.5V | 00:00:00 | 00:00:00 | 00:00:00 | |
| DO2SHX-10 | 2026-08-31 11:42:38 | 51.00192 | 9.01030 | 50° | 68km/h | 15812m | -5.0m/s | 0°C | 0% | 0hPa | 4.5V | 00:00:00 | 00:00:00 | 00:00:00 | |
| HSKMA3-T | 2026-08-31 11:42:36 | 51.00162 | 9.00958 | 68° | 69km/h | 15821m | -4.6m/s | -49.7°C | 0% | 0hPa | 4.5V | 00:00:00 | 00:00:00 | 00:00:00 | |
| DO2SHX-10 | 2026-08-31 11:42:35 | 51.00162 | 9.00958 | 69° | 64km/h | 15831m | -4.7m/s | 0°C | 0% | 0hPa | 4.5V | 00:00:00 | 00:00:00 | 00:00:00 | |
| DL1XH-west | 2026-08-31 11:42:34 | 51.00154 | 9.00909 | 84° | 55km/h | 15831m | -4.7m/s | -49.7°C | 0% | 0hPa | 4.5V | 00:00:00 | 00:00:00 | 00:00:00 | |
| DO2SHX-10 | 2026-08-31 11:42:32 | 51.00153 | 9.00889 | 88° | 40km/h | 15841m | -4.8m/s | 0°C | 0% | 0hPa | 4.5V | 00:00:00 | 00:00:00 | 00:00:00 | |
| AA1-15 | 2026-08-31 11:42:31 | 51.00153 | 9.00873 | 85° | 35km/h | 15841m | -4.9m/s | -49.8°C | 0% | 0hPa | 4.5V | 00:00:00 | 00:00:00 | 00:00:00 | |
| GOEST3-10 | 2026-08-31 11:42:31 | 51.00153 | 9.00873 | 85° | 37km/h | 15846m | -4.9m/s | 0°C | 0% | 0hPa | 4.5V | 00:00:00 | 00:00:00 | 00:00:00 | |
| DO2SHX-10 | 2026-08-31 11:42:29 | 51.00147 | 9.00853 | 44° | 53km/h | 15851m | -5.0m/s | 0°C | 0% | 0hPa | 4.5V | 00:00:00 | 00:00:00 | 00:00:00 | |
| HSKMA3-T | 2026-08-31 11:42:25 | 51.00095 | 9.00781 | 55° | 75km/h | 15874m | -4.8m/s | -49.6°C | 0% | 0hPa | 4.5V | 00:00:00 | 00:00:00 | 00:00:00 | |
| DO2JMG | 2026-08-31 11:42:22 | 51.00079 | 9.00727 | 72° | 73km/h | 15883m | -4.8m/s | -49.5°C | 0% | 0hPa | 4.5V | 00:00:00 | 00:00:00 | 00:00:00 | |
| DO3MHA-11 | 2026-08-31 11:42:22 | 51.00079 | 9.00727 | 73° | 47km/h | 15889m | -4.6m/s | 0°C | 0% | 0hPa | 4.5V | 00:00:00 | 00:00:00 | 00:00:00 | |
| AA1-15 | 2026-08-31 11:42:21 | 51.00075 | 9.00699 | 81° | 69km/h | 15888m | -4.7m/s | -49.5°C | 0% | 0hPa | 4.5V | 00:00:00 | 00:00:00 | 00:00:00 | |
| GOEST3-10 | 2026-08-31 11:42:21 | 51.00074 | 9.00696 | 88° | 49km/h | 15893m | -4.6m/s | 0°C | 0% | 0hPa | 4.5V | 00:00:00 | 00:00:00 | 00:00:00 | |
| DO2SHX-10 | 2026-08-31 11:42:20 | 51.00073 | 9.00674 | 88° | 55km/h | 15898m | -4.6m/s | 0°C | 0% | 0hPa | 4.5V | 00:00:00 | 00:00:00 | 00:00:00 | |
| DF1GD-15 | 2026-08-31 11:42:19 | 51.00072 | 9.00652 | 92° | 49km/h | 15898m | -4.7m/s | -49.6°C | 0% | 0hPa | 4.5V | 00:00:00 | 00:00:00 | 00:00:00 | |
| DF5WG-10 | 2026-08-31 11:42:18 | 51.00072 | 9.00634 | 89° | 58km/h | 15949m | -4.5m/s | 0°C | 0% | 0hPa | 4.5V | 00:00:00 | 00:00:00 | 00:00:00 | |
| DO2SHX-10 | 2026-08-31 11:42:17 | 51.00071 | 9.00620 | 76° | 35km/h | 15912m | -4.6m/s | 0°C | 0% | 0hPa | 4.5V | 00:00:00 | 00:00:00 | 00:00:00 | |
| GOEST3-10 | 2026-08-31 11:42:16 | 51.00068 | 9.00610 | 45° | 53km/h | 15917m | -4.6m/s | 0°C | 0% | 0hPa | 4.5V | 00:00:00 | 00:00:00 | 00:00:00 | |
| HSKMA3-T | 2026-08-31 11:42:14 | 51.00044 | 9.00568 | 48° | 62km/h | 15926m | -4.6m/s | -49.8°C | 0% | 0hPa | 4.5V | 00:00:00 | 00:00:00 | 00:00:00 | |
| DO3MHA-11 | 2026-08-31 11:42:12 | 51.00034 | 9.00550 | 64° | 57km/h | 15940m | -4.5m/s | 0°C | 0% | 0hPa | 4.5V | 00:00:00 | 00:00:00 | 00:00:00 | |
| DO2JMG | 2026-08-31 11:42:11 | 51.00024 | 9.00522 | 63° | 75km/h | 15935m | -4.5m/s | -49.6°C | 0% | 0hPa | 4.5V | 00:00:00 | 00:00:00 | 00:00:00 | |
| GOEST3-10 | 2026-08-31 11:42:11 | 51.00024 | 9.00522 | 64° | 71km/h | 15940m | -4.5m/s | 0°C | 0% | 0hPa | 4.5V | 00:00:00 | 00:00:00 | 00:00:00 | |
| AA1-15 | 2026-08-31 11:42:10 | 51.00012 | 9.00465 | 80° | 75km/h | 15944m | -4.6m/s | -49.5°C | 0% | 0hPa | 4.5V | 00:00:00 | 00:00:00 | 00:00:00 | |
| DF5WG-10 | 2026-08-31 11:42:08 | 51.00010 | 9.00419 | 100° | 55km/h | 15958m | -4.5m/s | 0°C | 0% | 0hPa | 0V | 00:00:00 | 00:00:00 | 00:00:00 | |
| GOEST3-10 | 2026-08-31 11:42:06 | 51.00013 | 9.00388 | 100° | 38km/h | 15962m | -4.5m/s | 0°C | 0% | 0hPa | 0V | 00:00:00 | 00:00:00 | 00:00:00 | |
| DL1XH-15 | 2026-08-31 11:42:05 | 50.99997 | 9.00316 | 46° | 51km/h | 16008m | -4.9m/s | 0°C | 0% | 0hPa | 0V | 00:00:00 | 00:00:00 | 00:00:00 | |
| HSKMA3-T | 2026-08-31 11:42:03 | 51.00014 | 9.00348 | 68° | 24km/h | 15972m | -4.8m/s | -49.3°C | 0% | 0hPa | 4.5V | 00:00:00 | 00:00:00 | 00:00:00 | |
| DL8DAS-14 | 2026-08-31 11:42:02 | 51.00005 | 9.00329 | 43° | 40km/h | 15981m | -4.9m/s | -49.3°C | -1.0% | -1.0hPa | 4.5V | 00:00:00 | 00:00:00 | 00:00:00 | |
| DL1XH-west | 2026-08-31 11:42:01 | 50.99997 | 9.00316 | 47° | 51km/h | 15986m | -4.6m/s | -49.3°C | 0% | 0hPa | 4.5V | 00:00:00 | 00:00:00 | 00:00:00 | |
| AA1-15 | 2026-08-31 11:42:00 | 50.99988 | 9.00298 | 54° | 60km/h | 15990m | -4.3m/s | -49.3°C | 0% | 0hPa | 4.5V | 00:00:00 | 00:00:00 | 00:00:00 | |
| DF1GD-15 | 2026-08-31 11:41:59 | 50.99987 | 9.00298 | 55° | 60km/h | 15991m | -4.3m/s | -49.3°C | 0% | 0hPa | 0V | 00:00:00 | 00:00:00 | 00:00:00 | |
| DF5WG-10 | 2026-08-31 11:41:57 | 50.99972 | 9.00221 | 96° | 44km/h | 16013m | -4.7m/s | 0°C | 0% | 0hPa | 0V | 00:00:00 | 00:00:00 | 00:00:00 | |
| GOEST3-10 | 2026-08-31 11:41:56 | 50.99968 | 9.00225 | 80° | 55km/h | 16008m | -4.8m/s | 0°C | 0% | 0hPa | 0V | 00:00:00 | 00:00:00 | 00:00:00 | |
| DL1XH-15 | 2026-08-31 11:41:55 | 50.99971 | 9.00119 | 56° | 16km/h | 16036m | -5.1m/s | 0°C | 0% | 0hPa | 0V | 00:00:00 | 00:00:00 | 00:00:00 | |
| DO3MHA-11 | 2026-08-31 11:41:52 | 50.99971 | 9.00138 | 106° | 47km/h | 16032m | -4.8m/s | 0°C | 0% | 0hPa | 4.5V | 00:00:00 | 00:00:00 | 00:00:00 | |
| DL1XH-west | 2026-08-31 11:41:51 | 50.99972 | 9.00119 | 57° | 16km/h | 16032m | -4.8m/s | -49.3°C | 0% | 0hPa | 4.5V | 00:00:00 | 00:00:00 | 00:00:00 | |
| AA1-15 | 2026-08-31 11:41:50 | 50.99962 | 9.00106 | 34° | 35km/h | 16042m | -5.2m/s | -49.4°C | 0% | 0hPa | 4.5V | 00:00:00 | 00:00:00 | 00:00:00 | |
| DO2SHX-10 | 2026-08-31 11:41:47 | 50.99953 | 9.00097 | 38° | 51km/h | 16056m | -4.6m/s | 0°C | 0% | 0hPa | 0V | 00:00:00 | 00:00:00 | 00:00:00 | |
| DF5WG-10 | 2026-08-31 11:41:46 | 50.99944 | 9.00091 | 65° | 46km/h | 16056m | -4.6m/s | 0°C | 0% | 0hPa | 0V | 00:00:00 | 00:00:00 | 00:00:00 | |
| DL1XH-15 | 2026-08-31 11:41:45 | 50.99917 | 8.99947 | 96° | 42km/h | 16084m | -4.6m/s | 0°C | 0% | 0hPa | 0V | 00:00:00 | 00:00:00 | 00:00:00 | |
| DO2SHX-10 | 2026-08-31 11:41:44 | 50.99926 | 9.00040 | 75° | 66km/h | 16075m | -4.7m/s | 0°C | 0% | 0hPa | 4.5V | 00:00:00 | 00:00:00 | 00:00:00 | |
| DO3MHA-11 | 2026-08-31 11:41:41 | 50.99916 | 8.99970 | 92° | 40km/h | 16080m | -4.6m/s | 0°C | 0% | 0hPa | 4.5V | 00:00:00 | 00:00:00 | 00:00:00 | |
| DD1CC2-15 | 2026-08-31 11:41:40 | 50.99918 | 8.99951 | 98° | 42km/h | 16080m | -4.7m/s | -42.2°C | 0% | 0hPa | 4.5V | 00:00:00 | 00:00:00 | 00:00:00 | |
| DL1XH-west | 2026-08-31 11:41:39 | 50.99918 | 8.99937 | 97° | 29km/h | 16084m | -4.6m/s | -48.8°C | 0% | 0hPa | 4.5V | 00:00:00 | 00:00:00 | 00:00:00 | |
| AA1-15 | 2026-08-31 11:41:38 | 50.99916 | 8.99920 | 45° | 20km/h | 16094m | -4.9m/s | -48.8°C | 0% | 0hPa | 4.5V | 00:00:00 | 00:00:00 | 00:00:00 | |
| DL3OBA | 2026-08-31 11:41:36 | 50.99904 | 8.99907 | 32° | 40km/h | 16104m | -4.9m/s | -48.8°C | 0% | 0hPa | 0V | 00:00:00 | 00:00:00 | 00:00:00 | |
| DL1XH-15 | 2026-08-31 11:41:35 | 50.99859 | 8.99816 | 73° | 68km/h | 16133m | -4.9m/s | 0°C | 0% | 0hPa | 0V | 00:00:00 | 00:00:00 | 00:00:00 | |
| DO2SHX-10 | 2026-08-31 11:41:35 | 50.99904 | 8.99907 | 32° | 55km/h | 16109m | -4.8m/s | 0°C | 0% | 0hPa | 4.5V | 00:00:00 | 00:00:00 | 00:00:00 | |
| DO8TBO-1 | 2026-08-31 11:41:32 | 50.99874 | 8.99864 | 54° | 66km/h | 16124m | -4.8m/s | 0°C | 0% | 0hPa | 4.5V | 00:00:00 | 00:00:00 | 00:00:00 | |
| DO2SHX-10 | 2026-08-31 11:41:31 | 50.99865 | 8.99841 | 74° | 64km/h | 16128m | -4.9m/s | 0°C | 0% | 0hPa | 4.5V | 00:00:00 | 00:00:00 | 00:00:00 | |
| DO2JMG | 2026-08-31 11:41:28 | 50.99855 | 8.99766 | 91° | 57km/h | 16138m | -4.9m/s | -47.9°C | 0% | 0hPa | 4.5V | 00:00:00 | 00:00:00 | 00:00:00 | |
| DO2SHX-10 | 2026-08-31 11:41:28 | 50.99855 | 8.99766 | 92° | 46km/h | 16153m | -4.9m/s | 0°C | 0% | 0hPa | 4.5V | 00:00:00 | 00:00:00 | 00:00:00 | |
| DL1XH-west | 2026-08-31 11:41:28 | 50.99856 | 8.99746 | 98° | 46km/h | 16143m | -5.1m/s | -47.9°C | 0% | 0hPa | 4.5V | 00:00:00 | 00:00:00 | 00:00:00 | |
| HSKMA3-T | 2026-08-31 11:41:27 | 50.99857 | 8.99730 | 99° | 35km/h | 16147m | -5m/s | -47.9°C | 0% | 0hPa | 4.5V | 00:00:00 | 00:00:00 | 00:00:00 | |
| GOEST3-10 | 2026-08-31 11:41:26 | 50.99857 | 8.99730 | 100° | 29km/h | 16157m | -4.6m/s | 0°C | 0% | 0hPa | 0V | 00:00:00 | 00:00:00 | 00:00:00 | |
| DL1XH-15 | 2026-08-31 11:41:25 | 50.99827 | 8.99672 | 58° | 60km/h | 16182m | -4.8m/s | 0°C | 0% | 0hPa | 0V | 00:00:00 | 00:00:00 | 00:00:00 | |
| DO2SHX-10 | 2026-08-31 11:41:25 | 50.99858 | 8.99717 | 56° | 24km/h | 16157m | -4.6m/s | 0°C | 0% | 0hPa | 4.5V | 00:00:00 | 00:00:00 | 00:00:00 | |
| DO2SHX-10 | 2026-08-31 11:41:22 | 50.99845 | 8.99695 | 37° | 49km/h | 16172m | -4.9m/s | 0°C | 0% | 0hPa | 4.5V | 00:00:00 | 00:00:00 | 00:00:00 | |
| GOEST3-10 | 2026-08-31 11:41:21 | 50.99837 | 8.99683 | 41° | 64km/h | 16177m | -4.8m/s | 0°C | 0% | 0hPa | 4.5V | 00:00:00 | 00:00:00 | 00:00:00 | |
| DO3MHA-11 | 2026-08-31 11:41:20 | 50.99827 | 8.99677 | 68° | 47km/h | 16187m | -4.8m/s | 0°C | 0% | 0hPa | 4.5V | 00:00:00 | 00:00:00 | 00:00:00 | |
| DO2SHX-10 | 2026-08-31 11:41:19 | 50.99817 | 8.99647 | 59° | 66km/h | 16192m | -4.9m/s | 0°C | 0% | 0hPa | 4.5V | 00:00:00 | 00:00:00 | 00:00:00 | |
| DF1GD-15 | 2026-08-31 11:41:18 | 50.99810 | 8.99595 | 79° | 71km/h | 16192m | -4.9m/s | -48.1°C | 0% | 0hPa | 4.5V | 00:00:00 | 00:00:00 | 00:00:00 | |
| DO2JMG | 2026-08-31 11:41:17 | 50.99804 | 8.99596 | 78° | 71km/h | 16191m | -4.9m/s | -48.1°C | 0% | 0hPa | 4.5V | 00:00:00 | 00:00:00 | 00:00:00 | |
| HSKMA3-T | 2026-08-31 11:41:16 | 50.99802 | 8.99541 | 95° | 62km/h | 16201m | -5.2m/s | -48.1°C | 0% | 0hPa | 4.5V | 00:00:00 | 00:00:00 | 00:00:00 | |
| DL1XH-15 | 2026-08-31 11:41:16 | 50.99804 | 8.99466 | 49° | 29km/h | 16236m | -5.2m/s | 0°C | 0% | 0hPa | 0V | 00:00:00 | 00:00:00 | 00:00:00 | |
| DM7RM-13 | 2026-08-31 11:41:14 | 50.99806 | 8.99500 | 104° | 42km/h | 16212m | -5.0m/s | -41.5°C | 0% | 0hPa | 4.5V | 00:00:00 | 00:00:00 | 00:00:00 | |
| DO2SHX-10 | 2026-08-31 11:41:11 | 50.99808 | 8.99475 | 74° | 27km/h | 16272m | -4.8m/s | 0°C | 0% | 0hPa | 4.5V | 00:00:00 | 00:00:00 | 00:00:00 | |
| DO3MHA-11 | 2026-08-31 11:41:10 | 50.99804 | 8.99466 | 50° | 57km/h | 16232m | -5.2m/s | 0°C | 0% | 0hPa | 4.5V | 00:00:00 | 00:00:00 | 00:00:00 | |
| DO2JMG | 2026-08-31 11:41:08 | 50.99780 | 8.99426 | 50° | 62km/h | 16242m | -5.2m/s | -48.2°C | 0% | 0hPa | 4.5V | 00:00:00 | 00:00:00 | 00:00:00 | |
| GOEST3-10 | 2026-08-31 11:41:06 | 50.99770 | 8.99405 | 59° | 68km/h | 16252m | -4.7m/s | 0°C | 0% | 0hPa | 0V | 00:00:00 | 00:00:00 | 00:00:00 | |
| DL1XH-15 | 2026-08-31 11:41:05 | 50.99754 | 8.99261 | 93° | 35km/h | 16281m | -4.9m/s | 0°C | 0% | 0hPa | 0V | 00:00:00 | 00:00:00 | 00:00:00 | |
| AA1-15 | 2026-08-31 11:41:05 | 50.99756 | 8.99352 | 76° | 73km/h | 16257m | -4.8m/s | -48°C | 0% | 0hPa | 4.5V | 00:00:00 | 00:00:00 | 00:00:00 | |
| DF5WG-10 | 2026-08-31 11:41:05 | 50.99762 | 8.99371 | 85° | 60km/h | 16257m | -4.8m/s | 0°C | 0% | 0hPa | 4.5V | 00:00:00 | 00:00:00 | 00:00:00 | |
| DO2SHX-10 | 2026-08-31 11:41:04 | 50.99756 | 8.99352 | 76° | 60km/h | 16272m | -4.8m/s | 0°C | 0% | 0hPa | 4.5V | 00:00:00 | 00:00:00 | 00:00:00 | |
| HSKMA3-T | 2026-08-31 11:41:03 | 50.99752 | 8.99299 | 91° | 58km/h | 16266m | -5m/s | -47.9°C | 0% | 0hPa | 4.5V | 00:00:00 | 00:00:00 | 00:00:00 | |
| GOEST3-10 | 2026-08-31 11:41:01 | 50.99753 | 8.99273 | 94° | 33km/h | 16277m | -4.7m/s | 0°C | 0% | 0hPa | 4.5V | 00:00:00 | 00:00:00 | 00:00:00 | |
| DO3MHA-11 | 2026-08-31 11:41:00 | 50.99753 | 8.99261 | 94° | 51km/h | 16282m | -4.9m/s | 0°C | 0% | 0hPa | 4.5V | 00:00:00 | 00:00:00 | 00:00:00 | |
| DO2SHX-10 | 2026-08-31 11:40:59 | 50.99753 | 8.99248 | 53° | 46km/h | 16287m | -5.0m/s | 0°C | 0% | 0hPa | 4.5V | 00:00:00 | 00:00:00 | 00:00:00 | |
| DD1CC2-15 | 2026-08-31 11:40:58 | 50.99751 | 8.99240 | 54° | 24km/h | 16287m | -5.0m/s | -41.4°C | 0% | 0hPa | 4.5V | 00:00:00 | 00:00:00 | 00:00:00 | |
| DO2JMG | 2026-08-31 11:40:57 | 50.99737 | 8.99224 | 33° | 44km/h | 16297m | -5.4m/s | -48.1°C | 0% | 0hPa | 4.5V | 00:00:00 | 00:00:00 | 00:00:00 | |
| DL1XH-15 | 2026-08-31 11:40:56 | 50.99681 | 8.99099 | 86° | 66km/h | 16332m | -4.8m/s | 0°C | 0% | 0hPa | 0V | 00:00:00 | 00:00:00 | 00:00:00 | |
| GOEST3-10 | 2026-08-31 11:40:56 | 50.99737 | 8.99224 | 33° | 60km/h | 16308m | -5.0m/s | 0°C | 0% | 0hPa | 4.5V | 00:00:00 | 00:00:00 | 00:00:00 | |
| AA1-15 | 2026-08-31 11:40:55 | 50.99716 | 8.99198 | 43° | 64km/h | 16308m | -5.1m/s | -48.1°C | 0% | 0hPa | 4.5V | 00:00:00 | 00:00:00 | 00:00:00 | |
| DF5WG-10 | 2026-08-31 11:40:54 | 50.99716 | 8.99198 | 43° | 53km/h | 16313m | -5.0m/s | 0°C | 0% | 0hPa | 4.5V | 00:00:00 | 00:00:00 | 00:00:00 | |
| DM7RM-13 | 2026-08-31 11:40:52 | 50.99694 | 8.99155 | 61° | 73km/h | 16318m | -4.9m/s | -41.5°C | 0% | 0hPa | 4.5V | 00:00:00 | 00:00:00 | 00:00:00 | |
| GOEST3-10 | 2026-08-31 11:40:51 | 50.99686 | 8.99129 | 70° | 55km/h | 16328m | -4.7m/s | 0°C | 0% | 0hPa | 4.5V | 00:00:00 | 00:00:00 | 00:00:00 | |
| DO3MHA-11 | 2026-08-31 11:40:50 | 50.99682 | 8.99099 | 87° | 46km/h | 16332m | -4.8m/s | 0°C | 0% | 0hPa | 4.5V | 00:00:00 | 00:00:00 | 00:00:00 | |
| HSKMA3-T | 2026-08-31 11:40:48 | 50.99679 | 8.99040 | 89° | 35km/h | 16341m | -4.8m/s | -48.2°C | 0% | 0hPa | 4.5V | 00:00:00 | 00:00:00 | 00:00:00 | |
| DO2JMG | 2026-08-31 11:40:46 | 50.99678 | 8.99028 | 76° | 27km/h | 16346m | -4.3m/s | -48.3°C | 0% | 0hPa | 4.5V | 00:00:00 | 00:00:00 | 00:00:00 | |
| GOEST3-10 | 2026-08-31 11:40:46 | 50.99678 | 8.99027 | 49° | 38km/h | 16351m | -4.9m/s | 0°C | 0% | 0hPa | 0V | 00:00:00 | 00:00:00 | 00:00:00 | |
| DL1XH-15 | 2026-08-31 11:40:45 | 50.99625 | 8.98958 | 48° | 73km/h | 16379m | -4.9m/s | 0°C | 0% | 0hPa | 0V | 00:00:00 | 00:00:00 | 00:00:00 | |
| DF5WG-10 | 2026-08-31 11:40:44 | 50.99669 | 8.99014 | 30° | 60km/h | 16361m | -4.6m/s | 0°C | 0% | 0hPa | 4.5V | 00:00:00 | 00:00:00 | 00:00:00 | |
| AA1-15 | 2026-08-31 11:40:43 | 50.99661 | 8.99004 | 30° | 46km/h | 16360m | -4.7m/s | -48.5°C | 0% | 0hPa | 4.5V | 00:00:00 | 00:00:00 | 00:00:00 | |
| GOEST3-10 | 2026-08-31 11:40:41 | 50.99637 | 8.98978 | 41° | 71km/h | 16380m | -4.8m/s | 0°C | 0% | 0hPa | 4.5V | 00:00:00 | 00:00:00 | 00:00:00 | |
| DO3MHA-11 | 2026-08-31 11:40:40 | 50.99625 | 8.98958 | 49° | 57km/h | 16380m | -4.8m/s | 0°C | 0% | 0hPa | 4.5V | 00:00:00 | 00:00:00 | 00:00:00 | |
| HSKMA3-T | 2026-08-31 11:40:37 | 50.99592 | 8.98857 | 76° | 62km/h | 16393m | -4.7m/s | -48.6°C | 0% | 0hPa | 4.5V | 00:00:00 | 00:00:00 | 00:00:00 | |
| GOEST3-10 | 2026-08-31 11:40:36 | 50.99592 | 8.98857 | 77° | 46km/h | 16403m | -4.3m/s | 0°C | 0% | 0hPa | 4.5V | 00:00:00 | 00:00:00 | 00:00:00 | |
| DF5WG-10 | 2026-08-31 11:40:34 | 50.99587 | 8.98816 | 77° | 58km/h | 16412m | -4.3m/s | 0°C | 0% | 0hPa | 4.5V | 00:00:00 | 00:00:00 | 00:00:00 | |
| DO2JMG | 2026-08-31 11:40:33 | 50.99579 | 8.98790 | 48° | 33km/h | 16412m | -4.4m/s | -48.9°C | 0% | 0hPa | 4.5V | 00:00:00 | 00:00:00 | 00:00:00 | |
| AA1-15 | 2026-08-31 11:40:32 | 50.99572 | 8.98780 | 35° | 40km/h | 16417m | -4.5m/s | -48.9°C | 0% | 0hPa | 4.5V | 00:00:00 | 00:00:00 | 00:00:00 | |
| GOEST3-10 | 2026-08-31 11:40:31 | 50.99572 | 8.98780 | 35° | 60km/h | 16417m | -4.5m/s | 0°C | 0% | 0hPa | 4.5V | 00:00:00 | 00:00:00 | 00:00:00 | |
| DO3MHA-11 | 2026-08-31 11:40:30 | 50.99563 | 8.98771 | 31° | 68km/h | 16426m | -4.6m/s | 0°C | 0% | 0hPa | 4.5V | 00:00:00 | 00:00:00 | 00:00:00 | |
| DM7RM-13 | 2026-08-31 11:40:29 | 50.99551 | 8.98760 | 33° | 58km/h | 16426m | -4.6m/s | -42.5°C | 0% | 0hPa | 4.5V | 00:00:00 | 00:00:00 | 00:00:00 | |
| HSKMA3-T | 2026-08-31 11:40:26 | 50.99510 | 8.98705 | 48° | 80km/h | 16440m | -4.7m/s | 0°C | 0% | 0hPa | 4.5V | 00:00:00 | 00:00:00 | 00:00:00 | |
| GOEST3-10 | 2026-08-31 11:40:26 | 50.99510 | 8.98705 | 49° | 75km/h | 16445m | -4.8m/s | 0°C | 0% | 0hPa | 4.5V | 00:00:00 | 00:00:00 | 00:00:00 | |
| DO2SHX-10 | 2026-08-31 11:40:25 | 50.99497 | 8.98680 | 56° | 77km/h | 16469m | -4.5m/s | 0°C | 0% | 0hPa | 4.5V | 00:00:00 | 00:00:00 | 00:00:00 | |
| DF5WG-10 | 2026-08-31 11:40:24 | 50.99486 | 8.98651 | 69° | 55km/h | 16455m | -4.8m/s | 0°C | 0% | 0hPa | 4.5V | 00:00:00 | 00:00:00 | 00:00:00 | |
| DO2SHX-10 | 2026-08-31 11:40:22 | 50.99473 | 8.98587 | 72° | 44km/h | 16469m | -4.5m/s | 0°C | 0% | 0hPa | 4.5V | 00:00:00 | 00:00:00 | 00:00:00 | |
| DO2JMG | 2026-08-31 11:40:22 | 50.99469 | 8.98578 | 75° | 51km/h | 16464m | -4.8m/s | -49.2°C | 0% | 0hPa | 4.5V | 00:00:00 | 00:00:00 | 00:00:00 | |
| AA1-15 | 2026-08-31 11:40:21 | 50.99466 | 8.98560 | 71° | 40km/h | 16469m | -4.6m/s | -49.3°C | 0% | 0hPa | 4.5V | 00:00:00 | 00:00:00 | 00:00:00 | |
| DO3MHA-11 | 2026-08-31 11:40:20 | 50.99466 | 8.98557 | 58° | 58km/h | 16474m | -4.7m/s | 0°C | 0% | 0hPa | 4.5V | 00:00:00 | 00:00:00 | 00:00:00 | |
| DO2SHX-10 | 2026-08-31 11:40:18 | 50.99460 | 8.98537 | 40° | 42km/h | 16479m | -4.8m/s | 0°C | 0% | 0hPa | 4.5V | 00:00:00 | 00:00:00 | 00:00:00 | |
| GOEST3-10 | 2026-08-31 11:40:16 | 50.99437 | 8.98521 | 26° | 75km/h | 16489m | -5.3m/s | 0°C | 0% | 0hPa | 4.5V | 00:00:00 | 00:00:00 | 00:00:00 | |
| DO2SHX-10 | 2026-08-31 11:40:15 | 50.99424 | 8.98510 | 29° | 68km/h | 16520m | -5.1m/s | 0°C | 0% | 0hPa | 4.5V | 00:00:00 | 00:00:00 | 00:00:00 | |
| DF5WG-10 | 2026-08-31 11:40:14 | 50.99410 | 8.98495 | 36° | 68km/h | 16505m | -4.8m/s | 0°C | 0% | 0hPa | 4.5V | 00:00:00 | 00:00:00 | 00:00:00 | |
| DO2JMG | 2026-08-31 11:40:11 | 50.99369 | 8.98427 | 58° | 80km/h | 16514m | -5.1m/s | -49.6°C | 0% | 0hPa | 4.5V | 00:00:00 | 00:00:00 | 00:00:00 | |
| AA1-15 | 2026-08-31 11:40:11 | 50.99353 | 8.98372 | 70° | 68km/h | 16525m | -5.1m/s | -49.6°C | 0% | 0hPa | 4.5V | 00:00:00 | 00:00:00 | 00:00:00 | |
| DO3MHA-11 | 2026-08-31 11:40:10 | 50.99359 | 8.98399 | 66° | 55km/h | 16525m | -5.1m/s | 0°C | 0% | 0hPa | 4.5V | 00:00:00 | 00:00:00 | 00:00:00 | |
| DM7RM-13 | 2026-08-31 11:40:09 | 50.99348 | 8.98349 | 75° | 57km/h | 16530m | -5.3m/s | -43.2°C | 0% | 0hPa | 4.5V | 00:00:00 | 00:00:00 | 00:00:00 | |
| DO2SHX-10 | 2026-08-31 11:40:06 | 50.99340 | 8.98313 | 62° | 46km/h | 16555m | -5.1m/s | 0°C | 0% | 0hPa | 4.5V | 00:00:00 | 00:00:00 | 00:00:00 | |
| GOEST3-10 | 2026-08-31 11:40:04 | 50.99326 | 8.98292 | 32° | 62km/h | 16555m | -5.1m/s | 0°C | 0% | 0hPa | 4.5V | 00:00:00 | 00:00:00 | 00:00:00 | |
| DO2SHX-10 | 2026-08-31 11:40:02 | 50.99303 | 8.98272 | 29° | 75km/h | 16570m | -4.7m/s | 0°C | 0% | 0hPa | 4.5V | 00:00:00 | 00:00:00 | 00:00:00 | |
| DL1XH-west | 2026-08-31 11:40:01 | 50.99273 | 8.98240 | 40° | 80km/h | 16570m | -4.7m/s | -50.2°C | 0% | 0hPa | 4.5V | 00:00:00 | 00:00:00 | 00:00:00 | |
| DO3MHA-11 | 2026-08-31 11:40:00 | 50.99273 | 8.98240 | 40° | 66km/h | 16575m | -4.7m/s | 0°C | 0% | 0hPa | 4.5V | 00:00:00 | 00:00:00 | 00:00:00 | |
| AA1-15 | 2026-08-31 11:39:59 | 50.99244 | 8.98192 | 54° | 84km/h | 16580m | -4.8m/s | -50.1°C | 0% | 0hPa | 4.5V | 00:00:00 | 00:00:00 | 00:00:00 | |
| DO2SHX-10 | 2026-08-31 11:39:58 | 50.99244 | 8.98192 | 54° | 80km/h | 16584m | -4.9m/s | 0°C | 0% | 0hPa | 0V | 00:00:00 | 00:00:00 | 00:00:00 | |
| DL1XH-15 | 2026-08-31 11:39:56 | 50.99224 | 8.98133 | 69° | 75km/h | 16595m | -4.9m/s | 0°C | 0% | 0hPa | 0V | 00:00:00 | 00:00:00 | 00:00:00 | |
| DD1CC2-15 | 2026-08-31 11:39:55 | 50.99217 | 8.98110 | 71° | 66km/h | 16595m | -4.9m/s | -43.7°C | 0% | 0hPa | 4.5V | 00:00:00 | 00:00:00 | 00:00:00 | |
| DO2SHX-10 | 2026-08-31 11:39:54 | 50.99212 | 8.98083 | 64° | 49km/h | 16609m | -4.5m/s | 0°C | 0% | 0hPa | 4.5V | 00:00:00 | 00:00:00 | 00:00:00 | |
| DF1GD-15 | 2026-08-31 11:39:53 | 50.99206 | 8.98068 | 64° | 47km/h | 16605m | -4.7m/s | -50.3°C | 0% | 0hPa | 4.5V | 00:00:00 | 00:00:00 | 00:00:00 | |
| DO2SHX-10 | 2026-08-31 11:39:51 | 50.99192 | 8.98042 | 37° | 57km/h | 16618m | -4.8m/s | 0°C | 0% | 0hPa | 4.5V | 00:00:00 | 00:00:00 | 00:00:00 | |
| DL1XH-west | 2026-08-31 11:39:50 | 50.99169 | 8.98021 | 27° | 64km/h | 16623m | -5.1m/s | -50.6°C | 0% | 0hPa | 4.5V | 00:00:00 | 00:00:00 | 00:00:00 | |
| DO3MHA-11 | 2026-08-31 11:39:50 | 50.99182 | 8.98034 | 28° | 75km/h | 16623m | -5.0m/s | 0°C | 0% | 0hPa | 4.5V | 00:00:00 | 00:00:00 | 00:00:00 | |
| GOEST3-10 | 2026-08-31 11:39:49 | 50.99169 | 8.98021 | 28° | 78km/h | 16628m | -5.1m/s | 0°C | 0% | 0hPa | 4.5V | 00:00:00 | 00:00:00 | 00:00:00 | |
| AA1-15 | 2026-08-31 11:39:49 | 50.99154 | 8.98008 | 30° | 73km/h | 16628m | -5.1m/s | -50.6°C | 0% | 0hPa | 4.5V | 00:00:00 | 00:00:00 | 00:00:00 | |
| DO2SHX-10 | 2026-08-31 11:39:48 | 50.99154 | 8.98008 | 31° | 80km/h | 16628m | -5.1m/s | 0°C | 0% | 0hPa | 4.5V | 00:00:00 | 00:00:00 | 00:00:00 | |
| DO2JMG | 2026-08-31 11:39:47 | 50.99138 | 8.97991 | 35° | 80km/h | 16634m | -5.3m/s | -50.6°C | 0% | 0hPa | 4.5V | 00:00:00 | 00:00:00 | 00:00:00 | |
| DM7RM-13 | 2026-08-31 11:39:47 | 50.99121 | 8.97970 | 43° | 86km/h | 16639m | -4.9m/s | -44.1°C | 0% | 0hPa | 4.5V | 00:00:00 | 00:00:00 | 00:00:00 | |
| DO2SHX-10 | 2026-08-31 11:39:45 | 50.99106 | 8.97945 | 50° | 75km/h | 16648m | -4.7m/s | 0°C | 0% | 0hPa | 4.5V | 00:00:00 | 00:00:00 | 00:00:00 | |
| GOEST3-10 | 2026-08-31 11:39:44 | 50.99093 | 8.97917 | 57° | 73km/h | 16653m | -4.7m/s | 0°C | 0% | 0hPa | 4.5V | 00:00:00 | 00:00:00 | 00:00:00 | |
| HSKMA3-T | 2026-08-31 11:39:41 | 50.99061 | 8.97812 | 67° | 55km/h | 16667m | -4.8m/s | -50.6°C | 0% | 0hPa | 4.5V | 00:00:00 | 00:00:00 | 00:00:00 | |
| DO3MHA-11 | 2026-08-31 11:39:40 | 50.99061 | 8.97812 | 67° | 64km/h | 16672m | -4.6m/s | 0°C | 0% | 0hPa | 4.5V | 00:00:00 | 00:00:00 | 00:00:00 | |
| GOEST3-10 | 2026-08-31 11:39:39 | 50.99056 | 8.97792 | 46° | 53km/h | 16677m | -4.7m/s | 0°C | 0% | 0hPa | 4.5V | 00:00:00 | 00:00:00 | 00:00:00 | |
| DL1XH-west | 2026-08-31 11:39:38 | 50.99049 | 8.97780 | 45° | 44km/h | 16677m | -4.8m/s | -50.7°C | 0% | 0hPa | 4.5V | 00:00:00 | 00:00:00 | 00:00:00 | |
| AA1-15 | 2026-08-31 11:39:38 | 50.99040 | 8.97769 | 34° | 49km/h | 16681m | -4.7m/s | -50.7°C | 0% | 0hPa | 4.5V | 00:00:00 | 00:00:00 | 00:00:00 | |
| DO2SHX-10 | 2026-08-31 11:39:37 | 50.99040 | 8.97770 | 30° | 57km/h | 16686m | -4.8m/s | 0°C | 0% | 0hPa | 4.5V | 00:00:00 | 00:00:00 | 00:00:00 | |
| DO2JMG | 2026-08-31 11:39:36 | 50.99028 | 8.97758 | 29° | 57km/h | 16686m | -4.9m/s | -50.8°C | 0% | 0hPa | 4.5V | 00:00:00 | 00:00:00 | 00:00:00 | |
| DD1CC2-15 | 2026-08-31 11:39:35 | 50.99014 | 8.97731 | 33° | 68km/h | 16696m | -4.8m/s | -44.5°C | 0% | 0hPa | 0V | 00:00:00 | 00:00:00 | 00:00:00 | |
| DO2SHX-10 | 2026-08-31 11:39:34 | 50.98999 | 8.97731 | 33° | 80km/h | 16715m | -4.5m/s | 0°C | 0% | 0hPa | 0V | 00:00:00 | 00:00:00 | 00:00:00 | |
| DO2SHX-10 | 2026-08-31 11:39:31 | 50.98951 | 8.97664 | 51° | 60km/h | 16715m | -4.5m/s | 0°C | 0% | 0hPa | 0V | 00:00:00 | 00:00:00 | 00:00:00 | |
| DF1GD-15 | 2026-08-31 11:39:30 | 50.98928 | 8.97608 | 64° | 78km/h | 16719m | -4.5m/s | -50.8°C | 0% | 0hPa | 0V | 00:00:00 | 00:00:00 | 00:00:00 | |
| GOEST3-10 | 2026-08-31 11:39:29 | 50.98927 | 8.97608 | 63° | 62km/h | 16724m | -4.5m/s | 0°C | 0% | 0hPa | 0V | 00:00:00 | 00:00:00 | 00:00:00 | |
| DF5WG-10 | 2026-08-31 11:39:28 | 50.98919 | 8.97567 | 65° | 66km/h | 16728m | -4.4m/s | 0°C | 0% | 0hPa | 0V | 00:00:00 | 00:00:00 | 00:00:00 | |
| DL3OBA | 2026-08-31 11:39:27 | 50.98913 | 8.97556 | 69° | 62km/h | 16728m | -4.4m/s | -50.8°C | 0% | 0hPa | 0V | 00:00:00 | 00:00:00 | 00:00:00 | |
| DL1XH-15 | 2026-08-31 11:39:26 | 50.98907 | 8.97533 | 56° | 53km/h | 16737m | -4.6m/s | 0°C | 0% | 0hPa | 0V | 00:00:00 | 00:00:00 | 00:00:00 | |
| DO2JMG | 2026-08-31 11:39:26 | 50.98901 | 8.97518 | 57° | 47km/h | 16737m | -4.6m/s | -50.8°C | 0% | 0hPa | 4.5V | 00:00:00 | 00:00:00 | 00:00:00 | |
| DM7RM-13 | 2026-08-31 11:39:25 | 50.98901 | 8.97518 | 58° | 47km/h | 16737m | -4.6m/s | -44.4°C | 0% | 0hPa | 4.5V | 00:00:00 | 00:00:00 | 00:00:00 | |
| GOEST3-10 | 2026-08-31 11:39:24 | 50.98894 | 8.97507 | 34° | 66km/h | 16747m | -4.6m/s | 0°C | 0% | 0hPa | 4.5V | 00:00:00 | 00:00:00 | 00:00:00 | |
| DL1CLM-18 | 2026-08-31 11:39:21 | 50.98858 | 8.97462 | 36° | 71km/h | 16756m | -4.7m/s | -50.7°C | 0% | 0hPa | 4.5V | 00:00:00 | 00:00:00 | 00:00:00 | |
| DO3MHA-11 | 2026-08-31 11:39:20 | 50.98843 | 8.97448 | 44° | 73km/h | 16766m | -4.8m/s | 0°C | 0% | 0hPa | 4.5V | 00:00:00 | 00:00:00 | 00:00:00 | |
| GOEST3-10 | 2026-08-31 11:39:19 | 50.98827 | 8.97423 | 44° | 86km/h | 16770m | -4.8m/s | 0°C | 0% | 0hPa | 4.5V | 00:00:00 | 00:00:00 | 00:00:00 | |
| DL1XH-west | 2026-08-31 11:39:18 | 50.98799 | 8.97368 | 57° | 89km/h | 16775m | -4.8m/s | -50.3°C | 0% | 0hPa | 4.5V | 00:00:00 | 00:00:00 | 00:00:00 | |
| DO2JMG | 2026-08-31 11:39:15 | 50.98780 | 8.97307 | 71° | 78km/h | 16784m | -4.8m/s | -50.1°C | 0% | 0hPa | 4.5V | 00:00:00 | 00:00:00 | 00:00:00 | |
| GOEST3-10 | 2026-08-31 11:39:14 | 50.98775 | 8.97278 | 77° | 49km/h | 16794m | -4.8m/s | 0°C | 0% | 0hPa | 0V | 00:00:00 | 00:00:00 | 00:00:00 | |
| DL1XH-15 | 2026-08-31 11:39:11 | 50.98715 | 8.97150 | 42° | 75km/h | 16847m | -4.8m/s | 0°C | 0% | 0hPa | 0V | 00:00:00 | 00:00:00 | 00:00:00 | |
| DO2SHX-10 | 2026-08-31 11:39:11 | 50.98765 | 8.97215 | 49° | 44km/h | 16809m | -4.8m/s | 0°C | 0% | 0hPa | 4.5V | 00:00:00 | 00:00:00 | 00:00:00 | |
| GOEST3-10 | 2026-08-31 11:39:09 | 50.98752 | 8.97196 | 35° | 64km/h | 16819m | -5.1m/s | 0°C | 0% | 0hPa | 4.5V | 00:00:00 | 00:00:00 | 00:00:00 | |
| DO2SHX-10 | 2026-08-31 11:39:08 | 50.98741 | 8.97182 | 35° | 64km/h | 16824m | -5.0m/s | 0°C | 0% | 0hPa | 4.5V | 00:00:00 | 00:00:00 | 00:00:00 | |
| DL3OBA | 2026-08-31 11:39:07 | 50.98729 | 8.97168 | 38° | 66km/h | 16824m | -5.0m/s | -49.8°C | 0% | 0hPa | 4.5V | 00:00:00 | 00:00:00 | 00:00:00 | |
| DL1XH-west | 2026-08-31 11:39:06 | 50.98702 | 8.97127 | 50° | 80km/h | 16833m | -4.8m/s | -49.7°C | 0% | 0hPa | 4.5V | 00:00:00 | 00:00:00 | 00:00:00 | |
| DO2JMG | 2026-08-31 11:39:05 | 50.98690 | 8.97101 | 58° | 82km/h | 16838m | -4.6m/s | -49.6°C | 0% | 0hPa | 4.5V | 00:00:00 | 00:00:00 | 00:00:00 | |
| DM7RM-13 | 2026-08-31 11:39:05 | 50.98690 | 8.97101 | 59° | 82km/h | 16838m | -4.6m/s | -43.1°C | 0% | 0hPa | 4.5V | 00:00:00 | 00:00:00 | 00:00:00 | |
| GOEST3-10 | 2026-08-31 11:39:04 | 50.98690 | 8.97101 | 58° | 75km/h | 16843m | -4.8m/s | 0°C | 0% | 0hPa | 4.5V | 00:00:00 | 00:00:00 | 00:00:00 | |
| DD1CC8 | 2026-08-31 11:39:03 | 50.98674 | 8.97043 | 73° | 75km/h | 16852m | -4.9m/s | -49.6°C | -1.0% | -1.0hPa | 4.5V | 00:00:00 | 00:00:00 | 00:00:00 | |
| DO3MHA-11 | 2026-08-31 11:39:00 | 50.98667 | 8.96987 | 86° | 55km/h | 16862m | -5.0m/s | 0°C | 0% | 0hPa | 4.5V | 00:00:00 | 00:00:00 | 00:00:00 | |
| GOEST3-10 | 2026-08-31 11:38:59 | 50.98666 | 8.96969 | 86° | 42km/h | 16867m | -5.0m/s | 0°C | 0% | 0hPa | 4.5V | 00:00:00 | 00:00:00 | 00:00:00 | |
| DF5WG-10 | 2026-08-31 11:38:57 | 50.98661 | 8.96938 | 65° | 66km/h | 16882m | -4.7m/s | 0°C | 0% | 0hPa | 4.5V | 00:00:00 | 00:00:00 | 00:00:00 | |
| DL1XH-west | 2026-08-31 11:38:56 | 50.98649 | 8.96913 | 43° | 47km/h | 16882m | -4.7m/s | -49.3°C | 0% | 0hPa | 4.5V | 00:00:00 | 00:00:00 | 00:00:00 | |
| HSKMA3-T | 2026-08-31 11:38:54 | 50.98639 | 8.96898 | 42° | 57km/h | 16886m | -4.6m/s | -49.2°C | 0% | 0hPa | 4.5V | 00:00:00 | 00:00:00 | 00:00:00 | |
| GOEST3-10 | 2026-08-31 11:38:54 | 50.98639 | 8.96902 | 46° | 71km/h | 16891m | -4.8m/s | 0°C | 0% | 0hPa | 4.5V | 00:00:00 | 00:00:00 | 00:00:00 | |
| DO2JMG | 2026-08-31 11:38:53 | 50.98628 | 8.96881 | 46° | 66km/h | 16891m | -4.8m/s | -49.2°C | 0% | 0hPa | 4.5V | 00:00:00 | 00:00:00 | 00:00:00 | |
| DO3DL | 2026-08-31 11:38:53 | 50.98628 | 8.96881 | 47° | 66km/h | 16891m | -4.8m/s | -49.2°C | 0% | 0hPa | 0V | 00:00:00 | 00:00:00 | 00:00:00 | |
| DO3MHA-11 | 2026-08-31 11:38:50 | 50.98596 | 8.96808 | 65° | 55km/h | 16910m | -4.7m/s | 0°C | 0% | 0hPa | 0V | 00:00:00 | 00:00:00 | 00:00:00 | |
| DF1GD-15 | 2026-08-31 11:38:49 | 50.98583 | 8.96748 | 80° | 75km/h | 16914m | -5.0m/s | -48.6°C | 0% | 0hPa | 0V | 00:00:00 | 00:00:00 | 00:00:00 | |
| DF5WG-10 | 2026-08-31 11:38:47 | 50.98580 | 8.96720 | 85° | 51km/h | 16925m | -5.0m/s | 0°C | 0% | 0hPa | 0V | 00:00:00 | 00:00:00 | 00:00:00 | |
| DL3OBA | 2026-08-31 11:38:46 | 50.98579 | 8.96694 | 90° | 58km/h | 16925m | -5.0m/s | -48.5°C | 0% | 0hPa | 0V | 00:00:00 | 00:00:00 | 00:00:00 | |
| DL1XH-15 | 2026-08-31 11:38:45 | 50.98579 | 8.96655 | 86° | 38km/h | 16938m | -4.7m/s | 0°C | 0% | 0hPa | 0V | 00:00:00 | 00:00:00 | 00:00:00 | |
| DL1XH-west | 2026-08-31 11:38:45 | 50.98579 | 8.96655 | 87° | 38km/h | 16934m | -4.5m/s | -48.3°C | 0% | 0hPa | 4.5V | 00:00:00 | 00:00:00 | 00:00:00 | |
| GOEST3-10 | 2026-08-31 11:38:44 | 50.98579 | 8.96655 | 87° | 37km/h | 16939m | -4.6m/s | 0°C | 0% | 0hPa | 4.5V | 00:00:00 | 00:00:00 | 00:00:00 | |
| DO2JMG | 2026-08-31 11:38:43 | 50.98575 | 8.96630 | 60° | 31km/h | 16943m | -4.6m/s | -48.2°C | 0% | 0hPa | 4.5V | 00:00:00 | 00:00:00 | 00:00:00 | |
| DO3MHA-11 | 2026-08-31 11:38:40 | 50.98562 | 8.96608 | 45° | 60km/h | 16958m | -4.5m/s | 0°C | 0% | 0hPa | 0V | 00:00:00 | 00:00:00 | 00:00:00 | |
| DL1XH-15 | 2026-08-31 11:38:39 | 50.98516 | 8.96450 | 90° | 60km/h | 16990m | -4.7m/s | 0°C | 0% | 0hPa | 0V | 00:00:00 | 00:00:00 | 00:00:00 | |
| GOEST3-10 | 2026-08-31 11:38:39 | 50.98553 | 8.96598 | 52° | 66km/h | 16962m | -4.5m/s | 0°C | 0% | 0hPa | 4.5V | 00:00:00 | 00:00:00 | 00:00:00 | |
| DO8TBO-1 | 2026-08-31 11:38:38 | 50.98543 | 8.96576 | 52° | 46km/h | 16967m | -4.5m/s | 0°C | 0% | 0hPa | 4.5V | 00:00:00 | 00:00:00 | 00:00:00 | |
| DF5WG-10 | 2026-08-31 11:38:36 | 50.98526 | 8.96529 | 67° | 47km/h | 16986m | -4.7m/s | 0°C | 0% | 0hPa | 4.5V | 00:00:00 | 00:00:00 | 00:00:00 | |
| DL1XH-west | 2026-08-31 11:38:35 | 50.98517 | 8.96475 | 83° | 68km/h | 16981m | -4.9m/s | -48.2°C | 0% | 0hPa | 4.5V | 00:00:00 | 00:00:00 | 00:00:00 | |
| GOEST3-10 | 2026-08-31 11:38:35 | 50.98517 | 8.96475 | 83° | 51km/h | 16986m | -4.7m/s | 0°C | 0% | 0hPa | 4.5V | 00:00:00 | 00:00:00 | 00:00:00 | |
| DD1CC2-15 | 2026-08-31 11:38:34 | 50.98516 | 8.96450 | 92° | 60km/h | 16986m | -4.7m/s | -41.6°C | 0% | 0hPa | 4.5V | 00:00:00 | 00:00:00 | 00:00:00 | |
| DO3DL | 2026-08-31 11:38:33 | 50.98516 | 8.96427 | 98° | 51km/h | 16990m | -4.7m/s | -48.2°C | 0% | 0hPa | 4.5V | 00:00:00 | 00:00:00 | 00:00:00 | |
| DO2JMG | 2026-08-31 11:38:32 | 50.98519 | 8.96409 | 102° | 42km/h | 16995m | -4.9m/s | -48.3°C | 0% | 0hPa | 4.5V | 00:00:00 | 00:00:00 | 00:00:00 | |
| DO3MHA-11 | 2026-08-31 11:38:30 | 50.98521 | 8.96391 | 90° | 44km/h | 17005m | -5.0m/s | 0°C | 0% | 0hPa | 0V | 00:00:00 | 00:00:00 | 00:00:00 | |
| GOEST3-10 | 2026-08-31 11:38:29 | 50.98521 | 8.96400 | 90° | 33km/h | 17010m | -5.0m/s | 0°C | 0% | 0hPa | 0V | 00:00:00 | 00:00:00 | 00:00:00 | |
| DF1GD-15 | 2026-08-31 11:38:28 | 50.98520 | 8.96368 | 42° | 20km/h | 17015m | -5.3m/s | -48.5°C | 0% | 0hPa | 0V | 00:00:00 | 00:00:00 | 00:00:00 | |
| DF5WG-10 | 2026-08-31 11:38:26 | 50.98510 | 8.96373 | 50° | 47km/h | 17031m | -4.9m/s | 0°C | 0% | 0hPa | 0V | 00:00:00 | 00:00:00 | 00:00:00 | |
| DL1XH-15 | 2026-08-31 11:38:25 | 50.98492 | 8.96336 | 59° | 58km/h | 17036m | -4.9m/s | 0°C | 0% | 0hPa | 0V | 00:00:00 | 00:00:00 | 00:00:00 | |
| GOEST3-10 | 2026-08-31 11:38:24 | 50.98492 | 8.96333 | 50° | 57km/h | 17031m | -4.9m/s | 0°C | 0% | 0hPa | 4.5V | 00:00:00 | 00:00:00 | 00:00:00 | |
| DL1XH-west | 2026-08-31 11:38:23 | 50.98483 | 8.96313 | 60° | 64km/h | 17036m | -4.9m/s | -48.6°C | 0% | 0hPa | 4.5V | 00:00:00 | 00:00:00 | 00:00:00 | |
| DL8DAS-15 | 2026-08-31 11:38:23 | 50.98476 | 8.96289 | 71° | 66km/h | 9037m | 6.1m/s | 0°C | 0% | 0hPa | 4.5V | 00:00:00 | 00:00:00 | 00:00:00 | |
| DM7RM-13 | 2026-08-31 11:38:22 | 50.98476 | 8.96289 | 71° | 66km/h | 17041m | -4.8m/s | -42.0°C | 0% | 0hPa | 4.5V | 00:00:00 | 00:00:00 | 00:00:00 | |
| DO2JMG | 2026-08-31 11:38:21 | 50.98472 | 8.96264 | 80° | 64km/h | 17045m | -4.8m/s | -48.5°C | 0% | 0hPa | 4.5V | 00:00:00 | 00:00:00 | 00:00:00 | |
| DO3MHA-11 | 2026-08-31 11:38:20 | 50.98470 | 8.96239 | 91° | 37km/h | 17055m | -4.7m/s | 0°C | 0% | 0hPa | 0V | 00:00:00 | 00:00:00 | 00:00:00 | |
| DL1XH-15 | 2026-08-31 11:38:19 | 50.98479 | 8.96160 | 43° | 18km/h | 17084m | -4.9m/s | 0°C | 0% | 0hPa | 0V | 00:00:00 | 00:00:00 | 00:00:00 | |
| DO3DL | 2026-08-31 11:38:17 | 50.98480 | 8.96173 | 110° | 22km/h | 17069m | -5.2m/s | -48.8°C | 0% | 0hPa | 4.5V | 00:00:00 | 00:00:00 | 00:00:00 | |
| DF5WG-10 | 2026-08-31 11:38:15 | 50.98489 | 8.96166 | 65° | 46km/h | 17074m | -5.1m/s | 0°C | 0% | 0hPa | 4.5V | 00:00:00 | 00:00:00 | 00:00:00 | |
| DL1XH-west | 2026-08-31 11:38:13 | 50.98467 | 8.96145 | 40° | 40km/h | 17089m | -4.9m/s | -49°C | 0% | 0hPa | 4.5V | 00:00:00 | 00:00:00 | 00:00:00 | |
| GOEST3-10 | 2026-08-31 11:38:12 | 50.98467 | 8.96145 | 41° | 53km/h | 17094m | -4.8m/s | 0°C | 0% | 0hPa | 4.5V | 00:00:00 | 00:00:00 | 00:00:00 | |
| DO2JMG | 2026-08-31 11:38:10 | 50.98451 | 8.96116 | 57° | 57km/h | 17099m | -5.1m/s | -49.1°C | 0% | 0hPa | 4.5V | 00:00:00 | 00:00:00 | 00:00:00 | |
| AA1-15 | 2026-08-31 11:38:10 | 50.98444 | 8.96096 | 67° | 60km/h | 17104m | -5.1m/s | -49°C | 0% | 0hPa | 4.5V | 00:00:00 | 00:00:00 | 00:00:00 | |
| DO3MHA-11 | 2026-08-31 11:38:10 | 50.98451 | 8.96116 | 57° | 42km/h | 17104m | -5.1m/s | 0°C | 0% | 0hPa | 4.5V | 00:00:00 | 00:00:00 | 00:00:00 | |
| HSKMA3-T | 2026-08-31 11:38:09 | 50.98439 | 8.96073 | 77° | 60km/h | 17109m | -5m/s | -49°C | 0% | 0hPa | 4.5V | 00:00:00 | 00:00:00 | 00:00:00 | |
| DO8TBO-1 | 2026-08-31 11:38:08 | 50.98439 | 8.96073 | 77° | 33km/h | 17114m | -5.0m/s | 0°C | 0% | 0hPa | 4.5V | 00:00:00 | 00:00:00 | 00:00:00 | |
| DO3DL | 2026-08-31 11:38:06 | 50.98438 | 8.96027 | 99° | 53km/h | 17119m | -5.0m/s | -49.1°C | 0% | 0hPa | 4.5V | 00:00:00 | 00:00:00 | 00:00:00 | |
| GOEST3-10 | 2026-08-31 11:38:05 | 50.98440 | 8.96008 | 108° | 27km/h | 17144m | -4.7m/s | 0°C | 0% | 0hPa | 4.5V | 00:00:00 | 00:00:00 | 00:00:00 | |
| DF5WG-10 | 2026-08-31 11:38:03 | 50.98447 | 8.95981 | 118° | 42km/h | 17154m | -4.9m/s | 0°C | 0% | 0hPa | 4.5V | 00:00:00 | 00:00:00 | 00:00:00 | |
| DL1XH-west | 2026-08-31 11:38:02 | 50.98449 | 8.95969 | 47° | 13km/h | 17144m | -4.8m/s | -49.4°C | 0% | 0hPa | 4.5V | 00:00:00 | 00:00:00 | 00:00:00 | |
| DO3DL | 2026-08-31 11:38:01 | 50.98446 | 8.95964 | 35° | 20km/h | 17149m | -4.8m/s | -49.4°C | 0% | 0hPa | 4.5V | 00:00:00 | 00:00:00 | 00:00:00 | |
| DO2JMG | 2026-08-31 11:38:00 | 50.98447 | 8.95964 | 34° | 20km/h | 17148m | -4.8m/s | 0°C | 0% | 0hPa | 4.5V | 00:00:00 | 00:00:00 | 00:00:00 | |
| DO3MHA-11 | 2026-08-31 11:38:00 | 50.98447 | 8.95967 | 32° | 40km/h | 17154m | -4.9m/s | 0°C | 0% | 0hPa | 4.5V | 00:00:00 | 00:00:00 | 00:00:00 | |
| AA1-15 | 2026-08-31 11:37:59 | 50.98434 | 8.95952 | 37° | 38km/h | 17158m | -5.1m/s | -49.5°C | 0% | 0hPa | 4.5V | 00:00:00 | 00:00:00 | 00:00:00 | |
| HSKMA3-T | 2026-08-31 11:37:58 | 50.98427 | 8.95941 | 46° | 46km/h | 17164m | -5.4m/s | -49.5°C | 0% | 0hPa | 4.5V | 00:00:00 | 00:00:00 | 00:00:00 | |
| DM0DOS-11 | 2026-08-31 11:37:53 | 50.98423 | 8.95820 | 23° | 4km/h | 17250m | -5.2m/s | 0°C | 0% | 0hPa | 0V | 00:00:00 | 00:00:00 | 00:00:00 | |
| GOEST3-10 | 2026-08-31 11:37:53 | 50.98410 | 8.95869 | 94° | 31km/h | 17194m | -4.7m/s | 0°C | 0% | 0hPa | 4.5V | 00:00:00 | 00:00:00 | 00:00:00 | |
| DD1CC2-15 | 2026-08-31 11:37:52 | 50.98412 | 8.95852 | 107° | 40km/h | 17189m | -4.7m/s | -42.8°C | 0% | 0hPa | 4.5V | 00:00:00 | 00:00:00 | 00:00:00 | |
| DL1XH-west | 2026-08-31 11:37:51 | 50.98415 | 8.95838 | 118° | 33km/h | 17194m | -4.8m/s | -49.3°C | 0% | 0hPa | 4.5V | 00:00:00 | 00:00:00 | 00:00:00 | |
| DF5WG-10 | 2026-08-31 11:37:51 | 50.98415 | 8.95838 | 118° | 38km/h | 17209m | -5.0m/s | 0°C | 0% | 0hPa | 4.5V | 00:00:00 | 00:00:00 | 00:00:00 | |
| DO3MHA-11 | 2026-08-31 11:37:50 | 50.98419 | 8.95829 | 129° | 29km/h | 17204m | -4.9m/s | 0°C | 0% | 0hPa | 4.5V | 00:00:00 | 00:00:00 | 00:00:00 | |
| AA1-15 | 2026-08-31 11:37:49 | 50.98423 | 8.95820 | 24° | 4km/h | 17209m | -5m/s | -49.3°C | 0% | 0hPa | 4.5V | 00:00:00 | 00:00:00 | 00:00:00 | |
| GOEST3-10 | 2026-08-31 11:37:48 | 50.98423 | 8.95820 | 24° | 22km/h | 17219m | -4.6m/s | 0°C | 0% | 0hPa | 4.5V | 00:00:00 | 00:00:00 | 00:00:00 | |
| HSKMA3-T | 2026-08-31 11:37:47 | 50.98422 | 8.95819 | 14° | 11km/h | 17214m | -4.9m/s | -49.3°C | 0% | 0hPa | 4.5V | 00:00:00 | 00:00:00 | 00:00:00 | |
| DL3OBA | 2026-08-31 11:37:45 | 50.98411 | 8.95814 | 20° | 33km/h | 17224m | -4.8m/s | -49.3°C | 0% | 0hPa | 4.5V | 00:00:00 | 00:00:00 | 00:00:00 | |
| GOEST3-10 | 2026-08-31 11:37:43 | 50.98394 | 8.95799 | 40° | 42km/h | 17234m | -5.2m/s | 0°C | 0% | 0hPa | 4.5V | 00:00:00 | 00:00:00 | 00:00:00 | |
| DO3DL | 2026-08-31 11:37:42 | 50.98386 | 8.95786 | 54° | 46km/h | 17239m | -5.4m/s | -49.2°C | 0% | 0hPa | 4.5V | 00:00:00 | 00:00:00 | 00:00:00 | |
| DL1XH-west | 2026-08-31 11:37:41 | 50.98377 | 8.95754 | 81° | 40km/h | 17250m | -5.2m/s | -49.2°C | 0% | 0hPa | 4.5V | 00:00:00 | 00:00:00 | 00:00:00 | |
| DM0DOS-11 | 2026-08-31 11:37:40 | 50.98386 | 8.95713 | 291° | 5km/h | 17286m | -5.3m/s | 0°C | 0% | 0hPa | 0V | 00:00:00 | 00:00:00 | 00:00:00 | |
| DO3MHA-11 | 2026-08-31 11:37:40 | 50.98377 | 8.95754 | 82° | 22km/h | 17255m | -4.1m/s | 0°C | 0% | 0hPa | 4.5V | 00:00:00 | 00:00:00 | 00:00:00 | |
| AA1-15 | 2026-08-31 11:37:39 | 50.98378 | 8.95726 | 112° | 27km/h | 17259m | -4.5m/s | -49.3°C | 0% | 0hPa | 4.5V | 00:00:00 | 00:00:00 | 00:00:00 | |
| DF5WG-10 | 2026-08-31 11:37:38 | 50.98378 | 8.95726 | 112° | 24km/h | 17275m | -5.6m/s | 0°C | 0% | 0hPa | 0V | 00:00:00 | 00:00:00 | 00:00:00 | |
| DL1XH-15 | 2026-08-31 11:37:36 | 50.98384 | 8.95711 | 291° | 13km/h | 17275m | -5.6m/s | 0°C | 0% | 0hPa | 0V | 00:00:00 | 00:00:00 | 00:00:00 | |
| DO3DL | 2026-08-31 11:37:35 | 50.98386 | 8.95713 | 292° | 5km/h | 17275m | -5.6m/s | -49.4°C | 0% | 0hPa | 4.5V | 00:00:00 | 00:00:00 | 00:00:00 | |
| HSKMA3-T | 2026-08-31 11:37:33 | 50.98378 | 8.95719 | 352° | 26km/h | 17292m | -5m/s | -49.4°C | 0% | 0hPa | 4.5V | 00:00:00 | 00:00:00 | 00:00:00 | |
| GOEST3-10 | 2026-08-31 11:37:32 | 50.98378 | 8.95730 | 20° | 38km/h | 17297m | -4.9m/s | 0°C | 0% | 0hPa | 4.5V | 00:00:00 | 00:00:00 | 00:00:00 | |
| DJTTGO | 2026-08-31 11:37:31 | 50.98362 | 8.95716 | 20° | 38km/h | 17302m | -5.3m/s | -49.5°C | 0% | 0hPa | 4.5V | 00:00:00 | 00:00:00 | 00:00:00 | |
| DL1XH-west | 2026-08-31 11:37:30 | 50.98353 | 8.95709 | 32° | 42km/h | 17307m | -5.1m/s | -49.5°C | 0% | 0hPa | 4.5V | 00:00:00 | 00:00:00 | 00:00:00 | |
| DM0DOS-11 | 2026-08-31 11:37:29 | 50.98336 | 8.95646 | 113° | 24km/h | 17343m | -5m/s | 0°C | 0% | 0hPa | 0V | 00:00:00 | 00:00:00 | 00:00:00 | |
| AA1-15 | 2026-08-31 11:37:28 | 50.98339 | 8.95685 | 62° | 42km/h | 17317m | -5.2m/s | -49.4°C | 0% | 0hPa | 4.5V | 00:00:00 | 00:00:00 | 00:00:00 | |
| DO3DL | 2026-08-31 11:37:27 | 50.98339 | 8.95684 | 63° | 40km/h | 17318m | -5.2m/s | -49.4°C | 0% | 0hPa | 0V | 00:00:00 | 00:00:00 | 00:00:00 | |
| GOEST3-10 | 2026-08-31 11:37:26 | 50.98335 | 8.95670 | 78° | 18km/h | 17328m | -5.0m/s | 0°C | 0% | 0hPa | 0V | 00:00:00 | 00:00:00 | 00:00:00 | |
| DL3OBA | 2026-08-31 11:37:25 | 50.98336 | 8.95645 | 115° | 24km/h | 17332m | -4.9m/s | -49.5°C | 0% | 0hPa | 0V | 00:00:00 | 00:00:00 | 00:00:00 | |
| DL1XH-15 | 2026-08-31 11:37:21 | 50.98312 | 8.95647 | 20° | 38km/h | 17412m | -5.4m/s | 0°C | 0% | 0hPa | 0V | 00:00:00 | 00:00:00 | 00:00:00 | |
| GOEST3-10 | 2026-08-31 11:37:20 | 50.98340 | 8.95642 | 325° | 27km/h | 17357m | -4.2m/s | 0°C | 0% | 0hPa | 4.5V | 00:00:00 | 00:00:00 | 00:00:00 | |
| DL1XH-west | 2026-08-31 11:37:18 | 50.98329 | 8.95650 | 350° | 31km/h | 17361m | -4.4m/s | -50°C | 0% | 0hPa | 4.5V | 00:00:00 | 00:00:00 | 00:00:00 | |
| AA1-15 | 2026-08-31 11:37:17 | 50.98312 | 8.95647 | 21° | 38km/h | 17371m | -5.3m/s | -50.1°C | 0% | 0hPa | 4.5V | 00:00:00 | 00:00:00 | 00:00:00 | |
| DM7RM-13 | 2026-08-31 11:37:16 | 50.98311 | 8.95647 | 22° | 38km/h | 17371m | -5.3m/s | -43.6°C | 0% | 0hPa | 0V | 00:00:00 | 00:00:00 | 00:00:00 | |
| GOEST3-10 | 2026-08-31 11:37:15 | 50.98303 | 8.95641 | 51° | 29km/h | 17386m | -5.0m/s | 0°C | 0% | 0hPa | 0V | 00:00:00 | 00:00:00 | 00:00:00 | |
| DM0DOS-11 | 2026-08-31 11:37:14 | 50.98296 | 8.95630 | 50° | 35km/h | 17402m | -4.9m/s | 0°C | 0% | 0hPa | 0V | 00:00:00 | 00:00:00 | 00:00:00 | |
| DF5WG-10 | 2026-08-31 11:37:11 | 50.98290 | 8.95599 | 103° | 9km/h | 17402m | -4.9m/s | 0°C | 0% | 0hPa | 4.5V | 00:00:00 | 00:00:00 | 00:00:00 | |
| DO3MHA-11 | 2026-08-31 11:37:10 | 50.98290 | 8.95595 | 135° | 27km/h | 17407m | -5.0m/s | 0°C | 0% | 0hPa | 4.5V | 00:00:00 | 00:00:00 | 00:00:00 | |
| DL1XH-west | 2026-08-31 11:37:08 | 50.98289 | 8.95602 | 312° | 20km/h | 17417m | -5.5m/s | -50.4°C | 0% | 0hPa | 4.5V | 00:00:00 | 00:00:00 | 00:00:00 | |
| DO3DL | 2026-08-31 11:37:07 | 50.98284 | 8.95609 | 322° | 27km/h | 17423m | -5.6m/s | -50.4°C | 0% | 0hPa | 4.5V | 00:00:00 | 00:00:00 | 00:00:00 | |
| AA1-15 | 2026-08-31 11:37:06 | 50.98278 | 8.95616 | 335° | 35km/h | 17429m | -5.6m/s | -50.4°C | 0% | 0hPa | 4.5V | 00:00:00 | 00:00:00 | 00:00:00 | |
| GOEST3-10 | 2026-08-31 11:37:05 | 50.98277 | 8.95615 | 335° | 42km/h | 17435m | -5.7m/s | 0°C | 0% | 0hPa | 0V | 00:00:00 | 00:00:00 | 00:00:00 | |
| DL3OBA | 2026-08-31 11:37:04 | 50.98269 | 8.95620 | 349° | 40km/h | 17435m | -5.8m/s | -50.4°C | 0% | 0hPa | 0V | 00:00:00 | 00:00:00 | 00:00:00 | |
| DL1XH-15 | 2026-08-31 11:37:03 | 50.98221 | 8.95588 | 58° | 38km/h | 17469m | -5.9m/s | 0°C | 0% | 0hPa | 0V | 00:00:00 | 00:00:00 | 00:00:00 | |
| DO3MHA-11 | 2026-08-31 11:37:00 | 50.98227 | 8.95601 | 59° | 27km/h | 17464m | -5.8m/s | 0°C | 0% | 0hPa | 4.5V | 00:00:00 | 00:00:00 | 00:00:00 | |
| DL1XH-west | 2026-08-31 11:36:58 | 50.98216 | 8.95566 | 87° | 20km/h | 17475m | -5.6m/s | -50.5°C | 0% | 0hPa | 4.5V | 00:00:00 | 00:00:00 | 00:00:00 | |
| GOEST3-10 | 2026-08-31 11:36:55 | 50.98216 | 8.95560 | 302° | 27km/h | 17491m | -5.1m/s | 0°C | 0% | 0hPa | 4.5V | 00:00:00 | 00:00:00 | 00:00:00 | |
| AA1-15 | 2026-08-31 11:36:54 | 50.98212 | 8.95571 | 313° | 27km/h | 17496m | -5m/s | -50.7°C | 0% | 0hPa | 4.5V | 00:00:00 | 00:00:00 | 00:00:00 | |
| DD1CC2-15 | 2026-08-31 11:36:51 | 50.98196 | 8.95586 | 342° | 44km/h | 17507m | -5.5m/s | -44.4°C | 0% | 0hPa | 0V | 00:00:00 | 00:00:00 | 00:00:00 | |
| DO3MHA-11 | 2026-08-31 11:36:50 | 50.98185 | 8.95590 | 356° | 33km/h | 17518m | -5.3m/s | 0°C | 0% | 0hPa | 0V | 00:00:00 | 00:00:00 | 00:00:00 | |
| DL1XH-15 | 2026-08-31 11:36:49 | 50.98173 | 8.95593 | 24° | 49km/h | 17524m | -5.2m/s | 0°C | 0% | 0hPa | 0V | 00:00:00 | 00:00:00 | 00:00:00 | |
| DL1XH-west | 2026-08-31 11:36:46 | 50.98143 | 8.95560 | 52° | 42km/h | 17535m | -5.6m/s | -50.7°C | 0% | 0hPa | 4.5V | 00:00:00 | 00:00:00 | 00:00:00 | |
| GOEST3-10 | 2026-08-31 11:36:45 | 50.98138 | 8.95543 | 80° | 16km/h | 17546m | -5.4m/s | 0°C | 0% | 0hPa | 4.5V | 00:00:00 | 00:00:00 | 00:00:00 | |
| AA1-15 | 2026-08-31 11:36:44 | 50.98135 | 8.95526 | 306° | 0km/h | 17556m | -4.8m/s | -50.9°C | 0% | 0hPa | 4.5V | 00:00:00 | 00:00:00 | 00:00:00 | |
| DL1XH-15 | 2026-08-31 11:36:43 | 50.98126 | 8.95541 | 327° | 33km/h | 17578m | -5.6m/s | 0°C | 0% | 0hPa | 0V | 00:00:00 | 00:00:00 | 00:00:00 | |
| DO3MHA-11 | 2026-08-31 11:36:40 | 50.98132 | 8.95534 | 328° | 42km/h | 17572m | -5.5m/s | 0°C | 0% | 0hPa | 4.5V | 00:00:00 | 00:00:00 | 00:00:00 | |
| DO8TBO-1 | 2026-08-31 11:36:37 | 50.98106 | 8.95550 | 357° | 44km/h | 17589m | -5.1m/s | 0°C | 0% | 0hPa | 4.5V | 00:00:00 | 00:00:00 | 00:00:00 | |
| DL1XH-west | 2026-08-31 11:36:36 | 50.98081 | 8.95542 | 23° | 53km/h | 17594m | -5.4m/s | -51.2°C | 0% | 0hPa | 4.5V | 00:00:00 | 00:00:00 | 00:00:00 | |
| GOEST3-10 | 2026-08-31 11:36:35 | 50.98081 | 8.95542 | 24° | 44km/h | 17599m | -5.5m/s | 0°C | 0% | 0hPa | 4.5V | 00:00:00 | 00:00:00 | 00:00:00 | |
| DF5WG-10 | 2026-08-31 11:36:33 | 50.98061 | 8.95519 | 49° | 38km/h | 17610m | -5.5m/s | 0°C | 0% | 0hPa | 4.5V | 00:00:00 | 00:00:00 | 00:00:00 | |
| AA1-15 | 2026-08-31 11:36:32 | 50.98051 | 8.95493 | 73° | 27km/h | 17616m | -5.3m/s | -51.3°C | 0% | 0hPa | 4.5V | 00:00:00 | 00:00:00 | 00:00:00 | |
| DO2KSM | 2026-08-31 11:36:31 | 50.55010 | 7.90485 | 63° | 130km/h | 8623m | 4.3m/s | 0°C | 0% | 0hPa | 0V | 00:00:00 | 00:00:00 | 00:00:00 | |
| DO3MHA-11 | 2026-08-31 11:36:30 | 50.98050 | 8.95484 | 73° | 38km/h | 17627m | -5.4m/s | 0°C | 0% | 0hPa | 0V | 00:00:00 | 00:00:00 | 00:00:00 | |
| DL1XH-15 | 2026-08-31 11:36:29 | 50.98049 | 8.95481 | 336° | 5km/h | 17632m | -5.3m/s | 0°C | 0% | 0hPa | 0V | 00:00:00 | 00:00:00 | 00:00:00 | |
| DM7RM-13 | 2026-08-31 11:36:29 | 50.98047 | 8.95482 | 327° | 13km/h | 17627m | -5.4m/s | -45.0°C | 0% | 0hPa | 4.5V | 00:00:00 | 00:00:00 | 00:00:00 | |
| DL1XH-west | 2026-08-31 11:36:25 | 50.98012 | 8.95500 | 359° | 55km/h | 17654m | -5.7m/s | -51.7°C | 0% | 0hPa | 4.5V | 00:00:00 | 00:00:00 | 00:00:00 | |
| DO3DL | 2026-08-31 11:36:23 | 50.97984 | 8.95492 | 23° | 58km/h | 17665m | -5.9m/s | -51.7°C | 0% | 0hPa | 4.5V | 00:00:00 | 00:00:00 | 00:00:00 | |
| AA1-15 | 2026-08-31 11:36:21 | 50.97962 | 8.95468 | 46° | 47km/h | 17676m | -5.4m/s | -51.7°C | 0% | 0hPa | 4.5V | 00:00:00 | 00:00:00 | 00:00:00 | |
| GOEST3-10 | 2026-08-31 11:36:20 | 50.97962 | 8.95468 | 47° | 27km/h | 17682m | -5.1m/s | 0°C | 0% | 0hPa | 4.5V | 00:00:00 | 00:00:00 | 00:00:00 | |
| DF5WG-10 | 2026-08-31 11:36:18 | 50.97951 | 8.95442 | 67° | 16km/h | 17698m | -5.4m/s | 0°C | 0% | 0hPa | 4.5V | 00:00:00 | 00:00:00 | 00:00:00 | |
| DO3DL | 2026-08-31 11:36:16 | 50.97944 | 8.95432 | 336° | 16km/h | 17703m | -5.5m/s | -51.9°C | 0% | 0hPa | 4.5V | 00:00:00 | 00:00:00 | 00:00:00 | |
| DL1XH-west | 2026-08-31 11:36:15 | 50.97939 | 8.95436 | 335° | 27km/h | 17709m | -5.5m/s | -52.1°C | 0% | 0hPa | 4.5V | 00:00:00 | 00:00:00 | 00:00:00 | |
| AA1-15 | 2026-08-31 11:36:10 | 50.97879 | 8.95435 | 23° | 60km/h | 17735m | -5.4m/s | -52.2°C | 0% | 0hPa | 4.6V | 00:00:00 | 00:00:00 | 00:00:00 | |
| DO3MHA-11 | 2026-08-31 11:36:10 | 50.97893 | 8.95446 | 24° | 38km/h | 17735m | -5.4m/s | 0°C | 0% | 0hPa | 4.6V | 00:00:00 | 00:00:00 | 00:00:00 | |
| DD1CC2-15 | 2026-08-31 11:36:09 | 50.97879 | 8.95435 | 24° | 60km/h | 17735m | -5.4m/s | -45.9°C | 0% | 0hPa | 4.6V | 00:00:00 | 00:00:00 | 00:00:00 | |
| DF5WG-10 | 2026-08-31 11:36:08 | 50.97862 | 8.95424 | 34° | 46km/h | 17741m | -5.3m/s | 0°C | 0% | 0hPa | 4.6V | 00:00:00 | 00:00:00 | 00:00:00 | |
| DO8TBO-1 | 2026-08-31 11:36:07 | 50.97854 | 8.95410 | 45° | 44km/h | 17752m | -5.4m/s | 0°C | 0% | 0hPa | 4.6V | 00:00:00 | 00:00:00 | 00:00:00 | |
| HSKMA3-T | 2026-08-31 11:36:06 | 50.97846 | 8.95395 | 54° | 46km/h | 17751m | -5.4m/s | -52.1°C | 0% | 0hPa | 4.6V | 00:00:00 | 00:00:00 | 00:00:00 | |
| GOEST3-10 | 2026-08-31 11:36:05 | 50.97841 | 8.95382 | 62° | 24km/h | 17763m | -5.3m/s | 0°C | 0% | 0hPa | 0V | 00:00:00 | 00:00:00 | 00:00:00 | |
| DL1XH-15 | 2026-08-31 11:36:04 | 50.97820 | 8.95367 | 347° | 35km/h | 17789m | -5.3m/s | 0°C | 0% | 0hPa | 0V | 00:00:00 | 00:00:00 | 00:00:00 | |
| DL1XH-west | 2026-08-31 11:36:03 | 50.97835 | 8.95365 | 24° | 15km/h | 17767m | -5.2m/s | -52.2°C | 0% | 0hPa | 4.6V | 00:00:00 | 00:00:00 | 00:00:00 | |
| DL3OBA | 2026-08-31 11:36:03 | 50.97832 | 8.95363 | 356° | 15km/h | 17773m | -5.4m/s | -52.2°C | 0% | 0hPa | 4.5V | 00:00:00 | 00:00:00 | 00:00:00 | |
| DO3DL | 2026-08-31 11:36:01 | 50.97820 | 8.95367 | 348° | 35km/h | 17784m | -5.6m/s | -52.3°C | 0% | 0hPa | 4.5V | 00:00:00 | 00:00:00 | 00:00:00 | |
| DO3MHA-11 | 2026-08-31 11:36:00 | 50.97820 | 8.95367 | 348° | 53km/h | 17789m | -5.2m/s | 0°C | 0% | 0hPa | 4.5V | 00:00:00 | 00:00:00 | 00:00:00 | |
| AA1-15 | 2026-08-31 11:35:59 | 50.97810 | 8.95369 | 354° | 44km/h | 17789m | -5.3m/s | -52.4°C | 0% | 0hPa | 4.5V | 00:00:00 | 00:00:00 | 00:00:00 | |
| DF1GD-15 | 2026-08-31 11:35:57 | 50.97769 | 8.95358 | 25° | 64km/h | 17800m | -5.4m/s | -52.4°C | 0% | 0hPa | 0V | 00:00:00 | 00:00:00 | 00:00:00 | |
| DO3DL | 2026-08-31 11:35:55 | 50.97743 | 8.95329 | 45° | 62km/h | 17816m | -5.6m/s | -52.3°C | 0% | 0hPa | 0V | 00:00:00 | 00:00:00 | 00:00:00 | |
| GOEST3-10 | 2026-08-31 11:35:54 | 50.97743 | 8.95329 | 45° | 46km/h | 17822m | -5.7m/s | 0°C | 0% | 0hPa | 0V | 00:00:00 | 00:00:00 | 00:00:00 | |
| DL1XH-15 | 2026-08-31 11:35:53 | 50.97718 | 8.95266 | 64° | 26km/h | 17844m | -5.2m/s | 0°C | 0% | 0hPa | 0V | 00:00:00 | 00:00:00 | 00:00:00 | |
| DL1XH-west | 2026-08-31 11:35:52 | 50.97726 | 8.95293 | 61° | 49km/h | 17827m | -5.8m/s | -52.3°C | 0% | 0hPa | 4.6V | 00:00:00 | 00:00:00 | 00:00:00 | |
| HSKMA3-T | 2026-08-31 11:35:50 | 50.97715 | 8.95259 | 27° | 16km/h | 17844m | -5.2m/s | -52.4°C | 0% | 0hPa | 4.6V | 00:00:00 | 00:00:00 | 00:00:00 | |
| GOEST3-10 | 2026-08-31 11:35:49 | 50.97715 | 8.95255 | 1° | 31km/h | 17850m | -5.7m/s | 0°C | 0% | 0hPa | 4.6V | 00:00:00 | 00:00:00 | 00:00:00 | |
| AA1-15 | 2026-08-31 11:35:48 | 50.97711 | 8.95256 | 1° | 18km/h | 17849m | -5.8m/s | -52.4°C | 0% | 0hPa | 4.6V | 00:00:00 | 00:00:00 | 00:00:00 | |
| DO3DL | 2026-08-31 11:35:48 | 50.97711 | 8.95256 | 2° | 18km/h | 17850m | -5.8m/s | -52.4°C | 0% | 0hPa | 4.6V | 00:00:00 | 00:00:00 | 00:00:00 | |
| GOEST3-10 | 2026-08-31 11:35:44 | 50.97671 | 8.95263 | 18° | 58km/h | 17878m | -6.0m/s | 0°C | 0% | 0hPa | 4.6V | 00:00:00 | 00:00:00 | 00:00:00 | |
| DL3OBA | 2026-08-31 11:35:42 | 50.97629 | 8.95232 | 39° | 60km/h | 17890m | -5.7m/s | -51.5°C | 0% | 0hPa | 4.6V | 00:00:00 | 00:00:00 | 00:00:00 | |
| DL1XH-west | 2026-08-31 11:35:42 | 50.97629 | 8.95231 | 38° | 60km/h | 17890m | -5.7m/s | -51.5°C | 0% | 0hPa | 4.6V | 00:00:00 | 00:00:00 | 00:00:00 | |
| DO3MHA-11 | 2026-08-31 11:35:39 | 50.97611 | 8.95199 | 61° | 31km/h | 17907m | -5.7m/s | 0°C | 0% | 0hPa | 4.6V | 00:00:00 | 00:00:00 | 00:00:00 | |
| AA1-15 | 2026-08-31 11:35:37 | 50.97604 | 8.95170 | 79° | 29km/h | 17912m | -6m/s | -51.2°C | 0% | 0hPa | 4.6V | 00:00:00 | 00:00:00 | 00:00:00 | |
| DO8TBO-1 | 2026-08-31 11:35:37 | 50.97604 | 8.95170 | 79° | 33km/h | 17919m | -6.0m/s | 0°C | 0% | 0hPa | 4.6V | 00:00:00 | 00:00:00 | 00:00:00 | |
| DO3DL | 2026-08-31 11:35:36 | 50.97603 | 8.95161 | 74° | 18km/h | 17919m | -6.1m/s | -51.2°C | 0% | 0hPa | 4.6V | 00:00:00 | 00:00:00 | 00:00:00 | |
| GOEST3-10 | 2026-08-31 11:35:34 | 50.97600 | 8.95156 | 341° | 33km/h | 17937m | -5.9m/s | 0°C | 0% | 0hPa | 4.6V | 00:00:00 | 00:00:00 | 00:00:00 | |
| DL1XH-west | 2026-08-31 11:35:31 | 50.97578 | 8.95164 | 357° | 44km/h | 17948m | -6.2m/s | -51.1°C | 0% | 0hPa | 4.6V | 00:00:00 | 00:00:00 | 00:00:00 | |
| DO3DL | 2026-08-31 11:35:30 | 50.97553 | 8.95158 | 22° | 55km/h | 17961m | -6.2m/s | -51.0°C | 0% | 0hPa | 4.6V | 00:00:00 | 00:00:00 | 00:00:00 | |
| DO3MHA-11 | 2026-08-31 11:35:29 | 50.97553 | 8.95166 | 48° | 31km/h | 17967m | -6.3m/s | 0°C | 0% | 0hPa | 4.6V | 00:00:00 | 00:00:00 | 00:00:00 | |
| DD1CC2-15 | 2026-08-31 11:35:28 | 50.97541 | 8.95148 | 35° | 55km/h | 17967m | -6.4m/s | -44.5°C | 0% | 0hPa | 4.6V | 00:00:00 | 00:00:00 | 00:00:00 | |
| HSKMA3-T | 2026-08-31 11:35:27 | 50.97523 | 8.95117 | 62° | 47km/h | 17979m | -6m/s | -50.8°C | 0% | 0hPa | 4.6V | 00:00:00 | 00:00:00 | 00:00:00 | |
| DF5WG-10 | 2026-08-31 11:35:25 | 50.97519 | 8.95094 | 90° | 35km/h | 18021m | -5.7m/s | 0°C | 0% | 0hPa | 4.6V | 00:00:00 | 00:00:00 | 00:00:00 | |
| GOEST3-10 | 2026-08-31 11:35:24 | 50.97518 | 8.95087 | 90° | 20km/h | 17998m | -6.2m/s | 0°C | 0% | 0hPa | 4.6V | 00:00:00 | 00:00:00 | 00:00:00 | |
| DL3OBA | 2026-08-31 11:35:21 | 50.97519 | 8.95071 | 328° | 5km/h | 18010m | -5.8m/s | -50.8°C | 0% | 0hPa | 4.6V | 00:00:00 | 00:00:00 | 00:00:00 | |
| DL1XH-west | 2026-08-31 11:35:20 | 50.97516 | 8.95074 | 328° | 18km/h | 18015m | -5.6m/s | -50.8°C | 0% | 0hPa | 4.6V | 00:00:00 | 00:00:00 | 00:00:00 | |
| DO3DL | 2026-08-31 11:35:20 | 50.97511 | 8.95079 | 336° | 29km/h | 18021m | -5.7m/s | 0°C | 0% | 0hPa | 4.6V | 00:00:00 | 00:00:00 | 00:00:00 | |
| GOEST3-10 | 2026-08-31 11:35:19 | 50.97511 | 8.95079 | 335° | 44km/h | 18033m | -6.2m/s | 0°C | 0% | 0hPa | 4.6V | 00:00:00 | 00:00:00 | 00:00:00 | |
| HSKMA3-T | 2026-08-31 11:35:16 | 50.97468 | 8.95080 | 20° | 53km/h | 18046m | -6.1m/s | -50.7°C | 0% | 0hPa | 4.6V | 00:00:00 | 00:00:00 | 00:00:00 | |
| GOEST3-10 | 2026-08-31 11:35:14 | 50.97456 | 8.95071 | 47° | 38km/h | 18058m | -5.8m/s | 0°C | 0% | 0hPa | 4.6V | 00:00:00 | 00:00:00 | 00:00:00 | |
| DM7RM-13 | 2026-08-31 11:35:13 | 50.97446 | 8.95058 | 47° | 47km/h | 18058m | -5.8m/s | -43.9°C | 0% | 0hPa | 4.6V | 00:00:00 | 00:00:00 | 00:00:00 | |
| DL1XH-west | 2026-08-31 11:35:10 | 50.97434 | 8.95016 | 54° | 9km/h | 18082m | -6.2m/s | -50.4°C | 0% | 0hPa | 4.6V | 00:00:00 | 00:00:00 | 00:00:00 | |
| DO3MHA-11 | 2026-08-31 11:35:09 | 50.97434 | 8.95016 | 55° | 33km/h | 18088m | -5.9m/s | 0°C | 0% | 0hPa | 4.6V | 00:00:00 | 00:00:00 | 00:00:00 | |
| DD1CC2-15 | 2026-08-31 11:35:08 | 50.97433 | 8.95014 | 321° | 4km/h | 18088m | -5.9m/s | -44.1°C | 0% | 0hPa | 4.6V | 00:00:00 | 00:00:00 | 00:00:00 | |
| DO8TBO-1 | 2026-08-31 11:35:07 | 50.97431 | 8.95017 | 318° | 31km/h | 18100m | -6.3m/s | 0°C | 0% | 0hPa | 4.6V | 00:00:00 | 00:00:00 | 00:00:00 | |
| HSKMA3-T | 2026-08-31 11:35:06 | 50.97420 | 8.95029 | 334° | 37km/h | 18106m | -6.2m/s | -50.8°C | 0% | 0hPa | 4.6V | 00:00:00 | 00:00:00 | 00:00:00 | |
| DL3AQ-11 | 2026-08-31 11:35:04 | 50.97400 | 8.95036 | 359° | 47km/h | 18119m | -6.5m/s | -50.9°C | -1.0% | -1.0hPa | 4.6V | 00:00:00 | 00:00:00 | 00:00:00 | |
| DL3OBA | 2026-08-31 11:35:00 | 50.97364 | 8.95017 | 39° | 49km/h | 18137m | -5.7m/s | -50.8°C | 0% | 0hPa | 4.6V | 00:00:00 | 00:00:00 | 00:00:00 | |
| DL1XH-west | 2026-08-31 11:34:59 | 50.97349 | 8.94989 | 63° | 40km/h | 18149m | -6.1m/s | -50.8°C | 0% | 0hPa | 4.6V | 00:00:00 | 00:00:00 | 00:00:00 | |
| DO3MHA-11 | 2026-08-31 11:34:59 | 50.97355 | 8.95003 | 64° | 31km/h | 18149m | -6.0m/s | 0°C | 0% | 0hPa | 4.6V | 00:00:00 | 00:00:00 | 00:00:00 | |
| GOEST3-10 | 2026-08-31 11:34:58 | 50.97349 | 8.94989 | 64° | 22km/h | 18155m | -6.5m/s | 0°C | 0% | 0hPa | 4.6V | 00:00:00 | 00:00:00 | 00:00:00 | |
| DO2SHX-10 | 2026-08-31 11:34:56 | 50.97345 | 8.94966 | 80° | 15km/h | 18180m | -6.5m/s | 0°C | 0% | 0hPa | 4.6V | 00:00:00 | 00:00:00 | 00:00:00 | |
| AA1-15 | 2026-08-31 11:34:55 | 50.97344 | 8.94960 | 30° | 11km/h | 18168m | -5.9m/s | -51°C | 0% | 0hPa | 4.6V | 00:00:00 | 00:00:00 | 00:00:00 | |
| HSKMA3-T | 2026-08-31 11:34:53 | 50.97333 | 8.94966 | 334° | 31km/h | 18187m | -6.7m/s | -51.2°C | 0% | 0hPa | 4.6V | 00:00:00 | 00:00:00 | 00:00:00 | |
| DM0DOS-11 | 2026-08-31 11:34:52 | 50.97313 | 8.94975 | 352° | 51km/h | 18214m | -6.9m/s | 0°C | 0% | 0hPa | 0V | 00:00:00 | 00:00:00 | 00:00:00 | |
| DO3MHA-11 | 2026-08-31 11:34:49 | 50.97300 | 8.94975 | 4° | 37km/h | 18214m | -6.9m/s | 0°C | 0% | 0hPa | 4.6V | 00:00:00 | 00:00:00 | 00:00:00 | |
| DL1XH-west | 2026-08-31 11:34:48 | 50.97272 | 8.94964 | 27° | 58km/h | 18221m | -6.7m/s | -51.3°C | 0% | 0hPa | 4.6V | 00:00:00 | 00:00:00 | 00:00:00 | |
| DO2SHX-10 | 2026-08-31 11:34:47 | 50.97272 | 8.94964 | 27° | 55km/h | 18241m | -6.5m/s | 0°C | 0% | 0hPa | 4.6V | 00:00:00 | 00:00:00 | 00:00:00 | |
| AA1-15 | 2026-08-31 11:34:45 | 50.97242 | 8.94913 | 69° | 26km/h | 18247m | -6.5m/s | -51.2°C | 0% | 0hPa | 4.6V | 00:00:00 | 00:00:00 | 00:00:00 | |
| DO2SHX-10 | 2026-08-31 11:34:44 | 50.97243 | 8.94924 | 61° | 11km/h | 18241m | -6.5m/s | 0°C | 0% | 0hPa | 0V | 00:00:00 | 00:00:00 | 00:00:00 | |
| GOEST3-10 | 2026-08-31 11:34:43 | 50.97242 | 8.94913 | 70° | 18km/h | 18254m | -6.4m/s | 0°C | 0% | 0hPa | 0V | 00:00:00 | 00:00:00 | 00:00:00 | |
| DL3OBA | 2026-08-31 11:34:40 | 50.97236 | 8.94905 | 327° | 16km/h | 18267m | -7.0m/s | -51.3°C | 0% | 0hPa | 0V | 00:00:00 | 00:00:00 | 00:00:00 | |
| DM0DOS-11 | 2026-08-31 11:34:39 | 50.97231 | 8.94910 | 330° | 29km/h | 18281m | -6.7m/s | 0°C | 0% | 0hPa | 0V | 00:00:00 | 00:00:00 | 00:00:00 | |
| DJTTGO | 2026-08-31 11:34:39 | 50.97223 | 8.94915 | 341° | 40km/h | 18281m | -6.7m/s | -51.4°C | 0% | 0hPa | 4.6V | 00:00:00 | 00:00:00 | 00:00:00 | |
| GOEST3-10 | 2026-08-31 11:34:38 | 50.97223 | 8.94916 | 341° | 49km/h | 18288m | -6.8m/s | 0°C | 0% | 0hPa | 4.6V | 00:00:00 | 00:00:00 | 00:00:00 | |
| DL1XH-west | 2026-08-31 11:34:37 | 50.97212 | 8.94920 | 352° | 49km/h | 18288m | -6.8m/s | -51.4°C | 0% | 0hPa | 4.6V | 00:00:00 | 00:00:00 | 00:00:00 | |
| DO2SHX-10 | 2026-08-31 11:34:37 | 50.97212 | 8.94920 | 352° | 53km/h | 18301m | -6.6m/s | 0°C | 0% | 0hPa | 4.6V | 00:00:00 | 00:00:00 | 00:00:00 | |
| AA1-15 | 2026-08-31 11:34:33 | 50.97147 | 8.94877 | 51° | 57km/h | 18322m | -6.9m/s | -51.3°C | 0% | 0hPa | 4.6V | 00:00:00 | 00:00:00 | 00:00:00 | |
| DM7RM-13 | 2026-08-31 11:34:32 | 50.97147 | 8.94877 | 52° | 55km/h | 18322m | -6.9m/s | -44.9°C | 0% | 0hPa | 4.6V | 00:00:00 | 00:00:00 | 00:00:00 | |
| DO2JMG | 2026-08-31 11:34:31 | 50.97136 | 8.94844 | 73° | 40km/h | 18336m | -6.9m/s | -51.2°C | 0% | 0hPa | 4.6V | 00:00:00 | 00:00:00 | 00:00:00 | |
| DO3MHA-11 | 2026-08-31 11:34:29 | 50.97134 | 8.94826 | 79° | 38km/h | 18350m | -7.2m/s | 0°C | 0% | 0hPa | 4.7V | 00:00:00 | 00:00:00 | 00:00:00 | |
| HSKMA3-T | 2026-08-31 11:34:28 | 50.97131 | 8.94818 | 4° | 9km/h | 18356m | -7m/s | -51°C | 0% | 0hPa | 4.7V | 00:00:00 | 00:00:00 | 00:00:00 | |
| DD1CC2-15 | 2026-08-31 11:34:27 | 50.97131 | 8.94818 | 5° | 9km/h | 18356m | -7.0m/s | -44.7°C | 0% | 0hPa | 0V | 00:00:00 | 00:00:00 | 00:00:00 | |
| DL1XH-west | 2026-08-31 11:34:27 | 50.97128 | 8.94818 | 345° | 16km/h | 18363m | -6.5m/s | -51°C | 0% | 0hPa | 4.6V | 00:00:00 | 00:00:00 | 00:00:00 | |
| GOEST3-10 | 2026-08-31 11:34:23 | 50.97101 | 8.94825 | 2° | 58km/h | 18391m | -7.3m/s | 0°C | 0% | 0hPa | 0V | 00:00:00 | 00:00:00 | 00:00:00 | |
| DM0DOS-11 | 2026-08-31 11:34:22 | 50.97047 | 8.94788 | 45° | 60km/h | 18418m | -6.7m/s | 0°C | 0% | 0hPa | 0V | 00:00:00 | 00:00:00 | 00:00:00 | |
| DO2SHX-10 | 2026-08-31 11:34:22 | 50.97088 | 8.94823 | 13° | 58km/h | 18398m | -7.0m/s | 0°C | 0% | 0hPa | 4.5V | 00:00:00 | 00:00:00 | 00:00:00 | |
| DO2JMG | 2026-08-31 11:34:20 | 50.97048 | 8.94788 | 46° | 60km/h | 18411m | -6.9m/s | -50.1°C | 0% | 0hPa | 4.5V | 00:00:00 | 00:00:00 | 00:00:00 | |
| DO3MHA-11 | 2026-08-31 11:34:20 | 50.97047 | 8.94788 | 46° | 37km/h | 18418m | -6.6m/s | 0°C | 0% | 0hPa | 4.5V | 00:00:00 | 00:00:00 | 00:00:00 | |
| DO2SHX-10 | 2026-08-31 11:34:18 | 50.97038 | 8.94760 | 73° | 33km/h | 18431m | -6.8m/s | 0°C | 0% | 0hPa | 4.5V | 00:00:00 | 00:00:00 | 00:00:00 | |
| DL1XH-west | 2026-08-31 11:34:15 | 50.97027 | 8.94727 | 72° | 24km/h | 18438m | -7m/s | -50.1°C | 0% | 0hPa | 4.5V | 00:00:00 | 00:00:00 | 00:00:00 | |
| DO2SHX-10 | 2026-08-31 11:34:14 | 50.97024 | 8.94729 | 354° | 15km/h | 18452m | -6.8m/s | 0°C | 0% | 0hPa | 0V | 00:00:00 | 00:00:00 | 00:00:00 | |
| GOEST3-10 | 2026-08-31 11:34:13 | 50.97021 | 8.94718 | 5° | 33km/h | 18459m | -6.7m/s | 0°C | 0% | 0hPa | 0V | 00:00:00 | 00:00:00 | 00:00:00 | |
| DM0DOS-11 | 2026-08-31 11:34:12 | 50.96982 | 8.94720 | 10° | 58km/h | 18486m | -6.9m/s | 0°C | 0% | 0hPa | 0V | 00:00:00 | 00:00:00 | 00:00:00 | |
| AA1-15 | 2026-08-31 11:34:11 | 50.97007 | 8.94721 | 354° | 40km/h | 18465m | -6.8m/s | -50.4°C | 0% | 0hPa | 4.5V | 00:00:00 | 00:00:00 | 00:00:00 | |
| DO2SHX-10 | 2026-08-31 11:34:11 | 50.97007 | 8.94721 | 354° | 40km/h | 18486m | -6.9m/s | 0°C | 0% | 0hPa | 4.5V | 00:00:00 | 00:00:00 | 00:00:00 | |
| DM7RM-13 | 2026-08-31 11:34:10 | 50.96996 | 8.94722 | 2° | 51km/h | 18472m | -6.9m/s | -44.0°C | 0% | 0hPa | 4.5V | 00:00:00 | 00:00:00 | 00:00:00 | |
| DO2JMG | 2026-08-31 11:34:09 | 50.96982 | 8.94720 | 10° | 58km/h | 18479m | -7.1m/s | -50.4°C | 0% | 0hPa | 4.5V | 00:00:00 | 00:00:00 | 00:00:00 | |
| DO3MHA-11 | 2026-08-31 11:34:09 | 50.96982 | 8.94719 | 11° | 49km/h | 18486m | -6.9m/s | 0°C | 0% | 0hPa | 4.6V | 00:00:00 | 00:00:00 | 00:00:00 | |
| DO2SHX-10 | 2026-08-31 11:34:08 | 50.96967 | 8.94713 | 21° | 64km/h | 18506m | -6.9m/s | 0°C | 0% | 0hPa | 4.6V | 00:00:00 | 00:00:00 | 00:00:00 | |
| DD1CC2-15 | 2026-08-31 11:34:06 | 50.96938 | 8.94686 | 42° | 68km/h | 18500m | -6.9m/s | -43.9°C | 0% | 0hPa | 4.6V | 00:00:00 | 00:00:00 | 00:00:00 | |
| DL1XH-west | 2026-08-31 11:34:05 | 50.96927 | 8.94667 | 51° | 64km/h | 18506m | -7m/s | -50.2°C | 0% | 0hPa | 4.6V | 00:00:00 | 00:00:00 | 00:00:00 | |
| DF5WG-10 | 2026-08-31 11:34:04 | 50.96918 | 8.94647 | 61° | 38km/h | 18520m | -7.0m/s | 0°C | 0% | 0hPa | 4.6V | 00:00:00 | 00:00:00 | 00:00:00 | |
| GOEST3-10 | 2026-08-31 11:34:03 | 50.96913 | 8.94624 | 76° | 26km/h | 18527m | -7.1m/s | 0°C | 0% | 0hPa | 4.6V | 00:00:00 | 00:00:00 | 00:00:00 | |
| DO3MHA-11 | 2026-08-31 11:33:59 | 50.96904 | 8.94596 | 338° | 47km/h | 18554m | -6.9m/s | 0°C | 0% | 0hPa | 4.6V | 00:00:00 | 00:00:00 | 00:00:00 | |
| DO2JMG | 2026-08-31 11:33:58 | 50.96899 | 8.94601 | 337° | 27km/h | 18554m | -6.9m/s | -50°C | 0% | 0hPa | 4.6V | 00:00:00 | 00:00:00 | 00:00:00 | |
| GOEST3-10 | 2026-08-31 11:33:58 | 50.96899 | 8.94601 | 338° | 42km/h | 18562m | -7.2m/s | 0°C | 0% | 0hPa | 4.6V | 00:00:00 | 00:00:00 | 00:00:00 | |
| DO3DL | 2026-08-31 11:33:56 | 50.96880 | 8.94608 | 355° | 47km/h | 18569m | -7.4m/s | -50.0°C | 0% | 0hPa | 4.6V | 00:00:00 | 00:00:00 | 00:00:00 | |
| DL1XH-west | 2026-08-31 11:33:55 | 50.96853 | 8.94603 | 19° | 60km/h | 18583m | -6.7m/s | -49.9°C | 0% | 0hPa | 4.6V | 00:00:00 | 00:00:00 | 00:00:00 | |
| DF5WG-10 | 2026-08-31 11:33:54 | 50.96853 | 8.94603 | 20° | 44km/h | 18603m | -7.0m/s | 0°C | 0% | 0hPa | 4.6V | 00:00:00 | 00:00:00 | 00:00:00 | |
| GOEST3-10 | 2026-08-31 11:33:53 | 50.96839 | 8.94592 | 32° | 53km/h | 18596m | -6.6m/s | 0°C | 0% | 0hPa | 4.6V | 00:00:00 | 00:00:00 | 00:00:00 | |
| DM7RM-13 | 2026-08-31 11:33:50 | 50.96808 | 8.94526 | 78° | 37km/h | 18617m | -6.7m/s | -43.0°C | 0% | 0hPa | 4.6V | 00:00:00 | 00:00:00 | 00:00:00 | |
| DO3MHA-11 | 2026-08-31 11:33:49 | 50.96808 | 8.94526 | 77° | 37km/h | 18624m | -6.8m/s | 0°C | 0% | 0hPa | 4.6V | 00:00:00 | 00:00:00 | 00:00:00 | |
| DO2JMG | 2026-08-31 11:33:48 | 50.96806 | 8.94507 | 41° | 13km/h | 18630m | -6.7m/s | -49.5°C | 0% | 0hPa | 4.6V | 00:00:00 | 00:00:00 | 00:00:00 | |
| DD1CC2-15 | 2026-08-31 11:33:46 | 50.96804 | 8.94504 | 359° | 11km/h | 18637m | -6.5m/s | -43.0°C | 0% | 0hPa | 4.6V | 00:00:00 | 00:00:00 | 00:00:00 | |
| DL1XH-west | 2026-08-31 11:33:45 | 50.96793 | 8.94507 | 353° | 35km/h | 18650m | -7m/s | -49.5°C | 0% | 0hPa | 4.6V | 00:00:00 | 00:00:00 | 00:00:00 | |
| DO3DL | 2026-08-31 11:33:43 | 50.96770 | 8.94504 | 15° | 55km/h | 18664m | -6.7m/s | -49.5°C | 0% | 0hPa | 4.6V | 00:00:00 | 00:00:00 | 00:00:00 | |
| DO3MHA-11 | 2026-08-31 11:33:39 | 50.96731 | 8.94464 | 50° | 40km/h | 18691m | -6.9m/s | 0°C | 0% | 0hPa | 4.6V | 00:00:00 | 00:00:00 | 00:00:00 | |
| GOEST3-10 | 2026-08-31 11:33:38 | 50.96722 | 8.94442 | 62° | 46km/h | 18698m | -6.8m/s | 0°C | 0% | 0hPa | 4.6V | 00:00:00 | 00:00:00 | 00:00:00 | |
| DO2JMG | 2026-08-31 11:33:37 | 50.96713 | 8.94400 | 82° | 49km/h | 18704m | -6.7m/s | -49.2°C | 0% | 0hPa | 4.6V | 00:00:00 | 00:00:00 | 00:00:00 | |
| OE3JTB-15 | 2026-08-31 11:33:36 | 50.96712 | 8.94400 | 82° | 42km/h | 18711m | -6.5m/s | 0°C | 0% | 0hPa | 4.6V | 00:00:00 | 00:00:00 | 00:00:00 | |
| DL1XH-west | 2026-08-31 11:33:35 | 50.96712 | 8.94371 | 92° | 22km/h | 18717m | -6.6m/s | -49.2°C | 0% | 0hPa | 4.6V | 00:00:00 | 00:00:00 | 00:00:00 | |
| GOEST3-10 | 2026-08-31 11:33:33 | 50.96711 | 8.94363 | 1° | 26km/h | 18731m | -6.5m/s | 0°C | 0% | 0hPa | 4.6V | 00:00:00 | 00:00:00 | 00:00:00 | |
| DF5WG-10 | 2026-08-31 11:33:30 | 50.96693 | 8.94363 | 5° | 37km/h | 18765m | -6.5m/s | 0°C | 0% | 0hPa | 4.6V | 00:00:00 | 00:00:00 | 00:00:00 | |
| DO3MHA-11 | 2026-08-31 11:33:29 | 50.96682 | 8.94365 | 28° | 49km/h | 18758m | -6.8m/s | 0°C | 0% | 0hPa | 4.6V | 00:00:00 | 00:00:00 | 00:00:00 | |
| AA1-15 | 2026-08-31 11:33:28 | 50.96643 | 8.94318 | 52° | 68km/h | 18771m | -6.4m/s | -49.4°C | 0% | 0hPa | 4.6V | 00:00:00 | 00:00:00 | 00:00:00 | |
| GOEST3-10 | 2026-08-31 11:33:28 | 50.96668 | 8.94351 | 28° | 64km/h | 18785m | -6.6m/s | 0°C | 0% | 0hPa | 4.6V | 00:00:00 | 00:00:00 | 00:00:00 | |
| DJTTGO | 2026-08-31 11:33:27 | 50.96643 | 8.94318 | 53° | 68km/h | 18771m | -6.4m/s | -49.4°C | 0% | 0hPa | 4.6V | 00:00:00 | 00:00:00 | 00:00:00 | |
| DD1CC2-15 | 2026-08-31 11:33:25 | 50.96634 | 8.94295 | 65° | 66km/h | 18778m | -6.4m/s | -42.8°C | 0% | 0hPa | 4.6V | 00:00:00 | 00:00:00 | 00:00:00 | |
| DL1XH-west | 2026-08-31 11:33:24 | 50.96629 | 8.94272 | 75° | 60km/h | 18784m | -6.7m/s | -49.3°C | 0% | 0hPa | 4.6V | 00:00:00 | 00:00:00 | 00:00:00 | |
| DO2JMG | 2026-08-31 11:33:24 | 50.96626 | 8.94251 | 85° | 49km/h | 18791m | -7m/s | -49.3°C | 0% | 0hPa | 4.6V | 00:00:00 | 00:00:00 | 00:00:00 | |
| GOEST3-10 | 2026-08-31 11:33:23 | 50.96626 | 8.94251 | 86° | 44km/h | 18798m | -6.7m/s | 0°C | 0% | 0hPa | 4.6V | 00:00:00 | 00:00:00 | 00:00:00 | |
| DO3MHA-11 | 2026-08-31 11:33:19 | 50.96624 | 8.94210 | 13° | 51km/h | 18825m | -6.8m/s | 0°C | 0% | 0hPa | 4.6V | 00:00:00 | 00:00:00 | 00:00:00 | |
| DL3OBA | 2026-08-31 11:33:18 | 50.96618 | 8.94209 | 5° | 29km/h | 18825m | -6.9m/s | -49.7°C | 0% | 0hPa | 4.6V | 00:00:00 | 00:00:00 | 00:00:00 | |
| AA1-15 | 2026-08-31 11:33:16 | 50.96585 | 8.94192 | 32° | 62km/h | 18845m | -6.4m/s | -49.7°C | 0% | 0hPa | 4.6V | 00:00:00 | 00:00:00 | 00:00:00 | |
| DF5WG-10 | 2026-08-31 11:33:16 | 50.96597 | 8.94208 | 32° | 53km/h | 18852m | -6.3m/s | 0°C | 0% | 0hPa | 4.6V | 00:00:00 | 00:00:00 | 00:00:00 | |
| DL1XH-west | 2026-08-31 11:33:14 | 50.96561 | 8.94156 | 55° | 69km/h | 18858m | -6.4m/s | -49.7°C | 0% | 0hPa | 4.6V | 00:00:00 | 00:00:00 | 00:00:00 | |
| DO2JMG | 2026-08-31 11:33:11 | 50.96546 | 8.94108 | 74° | 62km/h | 18872m | -7m/s | -49.8°C | 0% | 0hPa | 4.6V | 00:00:00 | 00:00:00 | 00:00:00 | |
| GOEST3-10 | 2026-08-31 11:33:11 | 50.96546 | 8.94108 | 74° | 53km/h | 18886m | -6.6m/s | 0°C | 0% | 0hPa | 4.6V | 00:00:00 | 00:00:00 | 00:00:00 | |
| DF1GD-15 | 2026-08-31 11:33:10 | 50.96543 | 8.94086 | 83° | 51km/h | 18879m | -7.0m/s | -49.8°C | 0% | 0hPa | 4.6V | 00:00:00 | 00:00:00 | 00:00:00 | |
| DO3MHA-11 | 2026-08-31 11:33:09 | 50.96542 | 8.94063 | 84° | 37km/h | 18893m | -6.2m/s | 0°C | 0% | 0hPa | 4.6V | 00:00:00 | 00:00:00 | 00:00:00 | |
| DM7RM-13 | 2026-08-31 11:33:08 | 50.96542 | 8.94055 | 84° | 26km/h | 18893m | -6.3m/s | -43.5°C | 0% | 0hPa | 4.6V | 00:00:00 | 00:00:00 | 00:00:00 | |
| OE3JTB-15 | 2026-08-31 11:33:07 | 50.96540 | 8.94045 | 21° | 29km/h | 18905m | -6.1m/s | 0°C | 0% | 0hPa | 4.6V | 00:00:00 | 00:00:00 | 00:00:00 | |
| DF5WG-10 | 2026-08-31 11:33:06 | 50.96537 | 8.94043 | 21° | 46km/h | 18925m | -6.8m/s | 0°C | 0% | 0hPa | 4.6V | 00:00:00 | 00:00:00 | 00:00:00 | |
| AA1-15 | 2026-08-31 11:33:05 | 50.96524 | 8.94038 | 13° | 35km/h | 18918m | -7.2m/s | -50.3°C | 0% | 0hPa | 4.6V | 00:00:00 | 00:00:00 | 00:00:00 | |
| DL1XH-west | 2026-08-31 11:33:04 | 50.96514 | 8.94033 | 22° | 44km/h | 18925m | -6.8m/s | -50.3°C | 0% | 0hPa | 4.6V | 00:00:00 | 00:00:00 | 00:00:00 | |
| DO2JMG | 2026-08-31 11:33:01 | 50.96484 | 8.93993 | 56° | 60km/h | 18944m | -5.6m/s | -50.4°C | 0% | 0hPa | 4.6V | 00:00:00 | 00:00:00 | 00:00:00 | |
| DO3MHA-11 | 2026-08-31 11:32:59 | 50.96477 | 8.93972 | 66° | 40km/h | 18956m | -6.1m/s | 0°C | 0% | 0hPa | 4.6V | 00:00:00 | 00:00:00 | 00:00:00 | |
| DL3OBA | 2026-08-31 11:32:58 | 50.96468 | 8.93927 | 80° | 57km/h | 18963m | -7.0m/s | -50.5°C | 0% | 0hPa | 4.6V | 00:00:00 | 00:00:00 | 00:00:00 | |
| GOEST3-10 | 2026-08-31 11:32:56 | 50.96466 | 8.93906 | 81° | 35km/h | 18970m | -7.3m/s | 0°C | 0% | 0hPa | 4.6V | 00:00:00 | 00:00:00 | 00:00:00 | |
| DF5WG-10 | 2026-08-31 11:32:55 | 50.96464 | 8.93888 | 79° | 37km/h | 18983m | -5.7m/s | 0°C | 0% | 0hPa | 4.6V | 00:00:00 | 00:00:00 | 00:00:00 | |
| DL1XH-west | 2026-08-31 11:32:53 | 50.96458 | 8.93865 | 54° | 26km/h | 18989m | -6m/s | -50.8°C | 0% | 0hPa | 4.6V | 00:00:00 | 00:00:00 | 00:00:00 | |
| DO3MHA-11 | 2026-08-31 11:32:49 | 50.96434 | 8.93837 | 39° | 42km/h | 19020m | -5.9m/s | 0°C | 0% | 0hPa | 4.6V | 00:00:00 | 00:00:00 | 00:00:00 | |
| DM7RM-13 | 2026-08-31 11:32:48 | 50.96426 | 8.93826 | 46° | 44km/h | 19020m | -6.0m/s | -44.6°C | 0% | 0hPa | 4.6V | 00:00:00 | 00:00:00 | 00:00:00 | |
| DO2JMG | 2026-08-31 11:32:47 | 50.96419 | 8.93812 | 54° | 49km/h | 19026m | -5.1m/s | -51.1°C | 0% | 0hPa | 4.6V | 00:00:00 | 00:00:00 | 00:00:00 | |
| DD1CC2-15 | 2026-08-31 11:32:45 | 50.96403 | 8.93755 | 81° | 49km/h | 19045m | -8.1m/s | -44.9°C | 0% | 0hPa | 4.6V | 00:00:00 | 00:00:00 | 00:00:00 | |
| DL1XH-west | 2026-08-31 11:32:44 | 50.96402 | 8.93737 | 89° | 44km/h | 19053m | -7.7m/s | -51.4°C | 0% | 0hPa | 4.6V | 00:00:00 | 00:00:00 | 00:00:00 | |
| DO3DL | 2026-08-31 11:32:39 | 50.96399 | 8.93686 | 32° | 26km/h | 19087m | -5.7m/s | -51.5°C | 0% | 0hPa | 4.6V | 00:00:00 | 00:00:00 | 00:00:00 | |
| DL3OBA | 2026-08-31 11:32:37 | 50.96392 | 8.93680 | 29° | 37km/h | 19093m | -5.9m/s | -51.5°C | 0% | 0hPa | 4.6V | 00:00:00 | 00:00:00 | 00:00:00 | |
| DO2JMG | 2026-08-31 11:32:36 | 50.96384 | 8.93672 | 32° | 46km/h | 19098m | -6m/s | -51.6°C | 0% | 0hPa | 4.6V | 00:00:00 | 00:00:00 | 00:00:00 | |
| GOEST3-10 | 2026-08-31 11:32:35 | 50.96373 | 8.93666 | 48° | 62km/h | 19112m | -6.5m/s | 0°C | 0% | 0hPa | 4.6V | 00:00:00 | 00:00:00 | 00:00:00 | |
| DF5WG-10 | 2026-08-31 11:32:33 | 50.96353 | 8.93624 | 59° | 66km/h | 19118m | -7.0m/s | 0°C | 0% | 0hPa | 4.6V | 00:00:00 | 00:00:00 | 00:00:00 | |
| DL1XH-west | 2026-08-31 11:32:32 | 50.96346 | 8.93601 | 69° | 66km/h | 19125m | -6.6m/s | -51.8°C | 0% | 0hPa | 4.6V | 00:00:00 | 00:00:00 | 00:00:00 | |
| DO3DL | 2026-08-31 11:32:31 | 50.96341 | 8.93576 | 81° | 64km/h | 19132m | -6.4m/s | -51.8°C | 0% | 0hPa | 4.6V | 00:00:00 | 00:00:00 | 00:00:00 | |
| GOEST3-10 | 2026-08-31 11:32:30 | 50.96340 | 8.93552 | 91° | 58km/h | 19193m | -7.2m/s | 0°C | 0% | 0hPa | 4.6V | 00:00:00 | 00:00:00 | 00:00:00 | |
| DO3MHA-11 | 2026-08-31 11:32:29 | 50.96341 | 8.93530 | 100° | 38km/h | 19151m | -6.5m/s | 0°C | 0% | 0hPa | 4.6V | 00:00:00 | 00:00:00 | 00:00:00 | |
| DM7RM-13 | 2026-08-31 11:32:27 | 50.96347 | 8.93500 | 109° | 27km/h | 19158m | -6.4m/s | -45.6°C | 0% | 0hPa | 4.6V | 00:00:00 | 00:00:00 | 00:00:00 | |
| DO2JMG | 2026-08-31 11:32:26 | 50.96346 | 8.93486 | 47° | 16km/h | 19171m | -6.9m/s | -51.8°C | 0% | 0hPa | 4.6V | 00:00:00 | 00:00:00 | 00:00:00 | |
| DO3DL | 2026-08-31 11:32:26 | 50.96346 | 8.93486 | 48° | 16km/h | 19171m | -6.9m/s | -51.8°C | 0% | 0hPa | 4.6V | 00:00:00 | 00:00:00 | 00:00:00 | |
| DF1GD-15 | 2026-08-31 11:32:25 | 50.96346 | 8.93486 | 48° | 16km/h | 19171m | -6.9m/s | -51.8°C | 0% | 0hPa | 4.6V | 00:00:00 | 00:00:00 | 00:00:00 | |
| DD1CC2-15 | 2026-08-31 11:32:24 | 50.96334 | 8.93475 | 31° | 38km/h | 19186m | -7.0m/s | -45.4°C | 0% | 0hPa | 4.6V | 00:00:00 | 00:00:00 | 00:00:00 | |
| DF5WG-10 | 2026-08-31 11:32:23 | 50.96334 | 8.93475 | 30° | 58km/h | 19200m | -7.2m/s | 0°C | 0% | 0hPa | 4.6V | 00:00:00 | 00:00:00 | 00:00:00 | |
| GOEST3-10 | 2026-08-31 11:32:22 | 50.96325 | 8.93479 | 61° | 57km/h | 19207m | -7.0m/s | 0°C | 0% | 0hPa | 4.6V | 00:00:00 | 00:00:00 | 00:00:00 | |
| AA1-15 | 2026-08-31 11:32:21 | 50.96300 | 8.93405 | 73° | 68km/h | 19214m | -7.1m/s | -51.6°C | 0% | 0hPa | 4.6V | 00:00:00 | 00:00:00 | 00:00:00 | |
| DL1XH-west | 2026-08-31 11:32:21 | 50.96306 | 8.93429 | 61° | 66km/h | 19207m | -7.1m/s | -51.7°C | 0% | 0hPa | 4.6V | 00:00:00 | 00:00:00 | 00:00:00 | |
| DO3DL | 2026-08-31 11:32:20 | 50.96300 | 8.93405 | 74° | 68km/h | 19215m | -7.1m/s | -51.6°C | 0% | 0hPa | 4.5V | 00:00:00 | 00:00:00 | 00:00:00 | |
| DO3MHA-11 | 2026-08-31 11:32:19 | 50.96300 | 8.93405 | 74° | 40km/h | 19222m | -7.0m/s | 0°C | 0% | 0hPa | 4.5V | 00:00:00 | 00:00:00 | 00:00:00 | |
| DL3OBA | 2026-08-31 11:32:16 | 50.96301 | 8.93334 | 111° | 49km/h | 19236m | -7.2m/s | -51.6°C | 0% | 0hPa | 4.5V | 00:00:00 | 00:00:00 | 00:00:00 | |
| DO2JMG | 2026-08-31 11:32:15 | 50.96305 | 8.93318 | 120° | 37km/h | 19243m | -7.1m/s | -51.7°C | 0% | 0hPa | 4.5V | 00:00:00 | 00:00:00 | 00:00:00 | |
| DF5WG-10 | 2026-08-31 11:32:14 | 50.96311 | 8.93362 | 52° | 42km/h | 19265m | -7.1m/s | 0°C | 0% | 0hPa | 4.6V | 00:00:00 | 00:00:00 | 00:00:00 | |
| DL1XH-west | 2026-08-31 11:32:11 | 50.96296 | 8.93287 | 39° | 44km/h | 19279m | -7.2m/s | -51.6°C | 0% | 0hPa | 4.6V | 00:00:00 | 00:00:00 | 00:00:00 | |
| AA1-15 | 2026-08-31 11:32:09 | 50.96280 | 8.93253 | 64° | 60km/h | 19294m | -7.1m/s | -51.5°C | 0% | 0hPa | 4.5V | 00:00:00 | 00:00:00 | 00:00:00 | |
| DO3MHA-11 | 2026-08-31 11:32:09 | 50.96287 | 8.93277 | 65° | 42km/h | 19294m | -7.1m/s | 0°C | 0% | 0hPa | 4.6V | 00:00:00 | 00:00:00 | 00:00:00 | |
| DM7RM-13 | 2026-08-31 11:32:07 | 50.96275 | 8.93230 | 79° | 62km/h | 19301m | -7.6m/s | -45.1°C | 0% | 0hPa | 4.6V | 00:00:00 | 00:00:00 | 00:00:00 | |
| DO3DL | 2026-08-31 11:32:05 | 50.96276 | 8.93183 | 107° | 57km/h | 19316m | -7.5m/s | -51.5°C | 0% | 0hPa | 4.6V | 00:00:00 | 00:00:00 | 00:00:00 | |
| DO2JMG | 2026-08-31 11:32:04 | 50.96281 | 8.93164 | 120° | 47km/h | 19324m | -7.1m/s | -51.6°C | 0% | 0hPa | 4.6V | 00:00:00 | 00:00:00 | 00:00:00 | |
| DD1CC2-15 | 2026-08-31 11:32:03 | 50.96287 | 8.93151 | 136° | 37km/h | 19331m | -7.2m/s | -45.2°C | 0% | 0hPa | 4.6V | 00:00:00 | 00:00:00 | 00:00:00 | |
| DF5WG-10 | 2026-08-31 11:32:02 | 50.96293 | 8.93143 | 149° | 46km/h | 19361m | -7.3m/s | 0°C | 0% | 0hPa | 4.6V | 00:00:00 | 00:00:00 | 00:00:00 | |
| DO3MHA-11 | 2026-08-31 11:31:59 | 50.96294 | 8.93137 | 24° | 42km/h | 19369m | -7.1m/s | 0°C | 0% | 0hPa | 4.6V | 00:00:00 | 00:00:00 | 00:00:00 | |
| DL1XH-west | 2026-08-31 11:31:58 | 50.96281 | 8.93121 | 50° | 44km/h | 19376m | -7.2m/s | -51.7°C | 0% | 0hPa | 4.6V | 00:00:00 | 00:00:00 | 00:00:00 | |
| DO2JMG | 2026-08-31 11:31:54 | 50.96270 | 8.93062 | 95° | 57km/h | 19398m | -7.5m/s | -51.8°C | 0% | 0hPa | 4.6V | 00:00:00 | 00:00:00 | 00:00:00 | |
| DO3DL | 2026-08-31 11:31:51 | 50.96293 | 8.93002 | 160° | 26km/h | 19429m | -7.4m/s | -51.8°C | 0% | 0hPa | 4.6V | 00:00:00 | 00:00:00 | 00:00:00 | |
| GOEST3-10 | 2026-08-31 11:31:50 | 50.96293 | 8.93002 | 159° | 20km/h | 19436m | -7.4m/s | 0°C | 0% | 0hPa | 4.6V | 00:00:00 | 00:00:00 | 00:00:00 | |
| DO3MHA-11 | 2026-08-31 11:31:49 | 50.96298 | 8.93001 | 185° | 33km/h | 19444m | -7.3m/s | 0°C | 0% | 0hPa | 4.6V | 00:00:00 | 00:00:00 | 00:00:00 | |
| AA1-15 | 2026-08-31 11:31:48 | 50.96297 | 8.93003 | 357° | 16km/h | 19451m | -7.5m/s | -51.8°C | 0% | 0hPa | 4.6V | 00:00:00 | 00:00:00 | 00:00:00 | |
| DM7RM-13 | 2026-08-31 11:31:46 | 50.96292 | 8.93001 | 21° | 27km/h | 19459m | -7.6m/s | -45.4°C | 0% | 0hPa | 4.6V | 00:00:00 | 00:00:00 | 00:00:00 | |
| GOEST3-10 | 2026-08-31 11:31:45 | 50.96285 | 8.93004 | 72° | 44km/h | 19474m | -7.3m/s | 0°C | 0% | 0hPa | 4.6V | 00:00:00 | 00:00:00 | 00:00:00 | |
| DD1CC2-15 | 2026-08-31 11:31:43 | 50.96273 | 8.92966 | 73° | 49km/h | 19482m | -7.5m/s | -45.4°C | 0% | 0hPa | 4.6V | 00:00:00 | 00:00:00 | 00:00:00 | |
| DO2JMG | 2026-08-31 11:31:41 | 50.96277 | 8.92913 | 124° | 40km/h | 19504m | -7.6m/s | -51.8°C | 0% | 0hPa | 4.6V | 00:00:00 | 00:00:00 | 00:00:00 | |
| DF5WG-10 | 2026-08-31 11:31:41 | 50.96277 | 8.92913 | 124° | 35km/h | 19519m | -7.5m/s | 0°C | 0% | 0hPa | 4.6V | 00:00:00 | 00:00:00 | 00:00:00 | |
| GOEST3-10 | 2026-08-31 11:31:40 | 50.96277 | 8.92913 | 124° | 33km/h | 19512m | -7.4m/s | 0°C | 0% | 0hPa | 4.6V | 00:00:00 | 00:00:00 | 00:00:00 | |
| DO3MHA-11 | 2026-08-31 11:31:39 | 50.96283 | 8.92898 | 171° | 31km/h | 19519m | -7.5m/s | 0°C | 0% | 0hPa | 4.6V | 00:00:00 | 00:00:00 | 00:00:00 | |
| DO3DL | 2026-08-31 11:31:37 | 50.96293 | 8.92899 | 216° | 13km/h | 19527m | -7.7m/s | -51.7°C | 0% | 0hPa | 4.6V | 00:00:00 | 00:00:00 | 00:00:00 | |
| DL1XH-west | 2026-08-31 11:31:36 | 50.96294 | 8.92903 | 294° | 13km/h | 19534m | -7.7m/s | -51.7°C | 0% | 0hPa | 4.6V | 00:00:00 | 00:00:00 | 00:00:00 | |
| DL3OBA | 2026-08-31 11:31:35 | 50.96290 | 8.92907 | 340° | 22km/h | 19542m | -7.5m/s | -51.7°C | 0% | 0hPa | 4.6V | 00:00:00 | 00:00:00 | 00:00:00 | |
| GOEST3-10 | 2026-08-31 11:31:32 | 50.96266 | 8.92818 | 132° | 42km/h | 19573m | -8.0m/s | 0°C | 0% | 0hPa | 4.6V | 00:00:00 | 00:00:00 | 00:00:00 | |
| DO3MHA-11 | 2026-08-31 11:31:29 | 50.96253 | 8.92844 | 93° | 29km/h | 19596m | -7.2m/s | 0°C | 0% | 0hPa | 4.6V | 00:00:00 | 00:00:00 | 00:00:00 | |
| DO2JMG | 2026-08-31 11:31:28 | 50.96259 | 8.92816 | 131° | 29km/h | 19603m | -7.4m/s | -51.9°C | 0% | 0hPa | 4.6V | 00:00:00 | 00:00:00 | 00:00:00 | |
| DL1XH-west | 2026-08-31 11:31:26 | 50.96267 | 8.92809 | 200° | 9km/h | 19618m | -7.9m/s | -51.9°C | 0% | 0hPa | 4.6V | 00:00:00 | 00:00:00 | 00:00:00 | |
| AA1-15 | 2026-08-31 11:31:25 | 50.96267 | 8.92811 | 301° | 9km/h | 19626m | -7.8m/s | -51.9°C | 0% | 0hPa | 4.6V | 00:00:00 | 00:00:00 | 00:00:00 | |
| DD1CC2-15 | 2026-08-31 11:31:22 | 50.96258 | 8.92816 | 3° | 33km/h | 19642m | -7.6m/s | -45.5°C | 0% | 0hPa | 4.6V | 00:00:00 | 00:00:00 | 00:00:00 | |
| GOEST3-10 | 2026-08-31 11:31:21 | 50.96249 | 8.92812 | 21° | 46km/h | 19657m | -7.9m/s | 0°C | 0% | 0hPa | 4.6V | 00:00:00 | 00:00:00 | 00:00:00 | |
| DO3MHA-11 | 2026-08-31 11:31:19 | 50.96230 | 8.92789 | 55° | 33km/h | 19674m | -7.7m/s | 0°C | 0% | 0hPa | 4.6V | 00:00:00 | 00:00:00 | 00:00:00 | |
| DO3DL | 2026-08-31 11:31:18 | 50.96225 | 8.92771 | 73° | 53km/h | 19674m | -7.8m/s | -52.0°C | 0% | 0hPa | 4.6V | 00:00:00 | 00:00:00 | 00:00:00 | |
| DO2JMG | 2026-08-31 11:31:17 | 50.96224 | 8.92733 | 107° | 42km/h | 19689m | -7.8m/s | -52°C | 0% | 0hPa | 4.6V | 00:00:00 | 00:00:00 | 00:00:00 | |
| GOEST3-10 | 2026-08-31 11:31:16 | 50.96223 | 8.92733 | 107° | 29km/h | 19697m | -7.8m/s | 0°C | 0% | 0hPa | 4.6V | 00:00:00 | 00:00:00 | 00:00:00 | |
| DL1XH-west | 2026-08-31 11:31:15 | 50.96228 | 8.92719 | 127° | 35km/h | 19696m | -7.8m/s | -51.9°C | 0% | 0hPa | 4.6V | 00:00:00 | 00:00:00 | 00:00:00 | |
| HSKMA3-T | 2026-08-31 11:31:15 | 50.96233 | 8.92712 | 151° | 24km/h | 19704m | -7.8m/s | -51.9°C | 0% | 0hPa | 4.6V | 00:00:00 | 00:00:00 | 00:00:00 | |
| DL3OBA | 2026-08-31 11:31:14 | 50.96233 | 8.92712 | 152° | 24km/h | 19705m | -7.8m/s | -51.9°C | 0% | 0hPa | 4.6V | 00:00:00 | 00:00:00 | 00:00:00 | |
| DO3DL | 2026-08-31 11:31:12 | 50.96239 | 8.92712 | 269° | 11km/h | 19720m | -7.6m/s | -51.7°C | 0% | 0hPa | 4.6V | 00:00:00 | 00:00:00 | 00:00:00 | |
| DF1GD-15 | 2026-08-31 11:31:10 | 50.96223 | 8.92722 | 7° | 37km/h | 19743m | -7.9m/s | -51.6°C | 0% | 0hPa | 4.6V | 00:00:00 | 00:00:00 | 00:00:00 | |
| DO3MHA-11 | 2026-08-31 11:31:09 | 50.96223 | 8.92727 | 25° | 33km/h | 19752m | -7.9m/s | 0°C | 0% | 0hPa | 4.6V | 00:00:00 | 00:00:00 | 00:00:00 | |
| DO2JMG | 2026-08-31 11:31:06 | 50.96198 | 8.92694 | 62° | 44km/h | 19767m | -7.7m/s | -51.5°C | 0% | 0hPa | 4.6V | 00:00:00 | 00:00:00 | 00:00:00 | |
| DO3DL | 2026-08-31 11:31:06 | 50.96194 | 8.92678 | 83° | 42km/h | 19775m | -7.8m/s | -51.4°C | 0% | 0hPa | 4.6V | 00:00:00 | 00:00:00 | 00:00:00 | |
| DM7RM-13 | 2026-08-31 11:31:05 | 50.96194 | 8.92678 | 83° | 42km/h | 19775m | -7.8m/s | -45.0°C | 0% | 0hPa | 4.6V | 00:00:00 | 00:00:00 | 00:00:00 | |
| HSKMA3-T | 2026-08-31 11:31:04 | 50.96198 | 8.92651 | 126° | 31km/h | 19791m | -7.9m/s | -51.5°C | 0% | 0hPa | 4.6V | 00:00:00 | 00:00:00 | 00:00:00 | |
| GOEST3-10 | 2026-08-31 11:31:01 | 50.96207 | 8.92643 | 198° | 24km/h | 19838m | -7.4m/s | 0°C | 0% | 0hPa | 4.6V | 00:00:00 | 00:00:00 | 00:00:00 | |
| DO3DL | 2026-08-31 11:31:00 | 50.96209 | 8.92654 | 295° | 24km/h | 19823m | -7.6m/s | -51.4°C | 0% | 0hPa | 4.6V | 00:00:00 | 00:00:00 | 00:00:00 | |
| DO3MHA-11 | 2026-08-31 11:30:59 | 50.96209 | 8.92654 | 295° | 31km/h | 19831m | -7.5m/s | 0°C | 0% | 0hPa | 4.6V | 00:00:00 | 00:00:00 | 00:00:00 | |
| DO2JMG | 2026-08-31 11:30:56 | 50.96177 | 8.92665 | 22° | 44km/h | 19853m | -8m/s | -51.6°C | 0% | 0hPa | 4.6V | 00:00:00 | 00:00:00 | 00:00:00 | |
| DL1XH-west | 2026-08-31 11:30:54 | 50.96167 | 8.92656 | 40° | 42km/h | 19861m | -8.1m/s | 0°C | 0% | 0hPa | 4.6V | 00:00:00 | 00:00:00 | 00:00:00 | |
| AA1-15 | 2026-08-31 11:30:54 | 50.96160 | 8.92644 | 57° | 38km/h | 19869m | -7.8m/s | -51.5°C | 0% | 0hPa | 4.6V | 00:00:00 | 00:00:00 | 00:00:00 | |
| DO3DL | 2026-08-31 11:30:53 | 50.96157 | 8.92632 | 78° | 31km/h | 19877m | -7.6m/s | -51.4°C | 0% | 0hPa | 4.6V | 00:00:00 | 00:00:00 | 00:00:00 | |
| HSKMA3-T | 2026-08-31 11:30:51 | 50.96157 | 8.92621 | 103° | 22km/h | 19885m | -7.7m/s | -51.2°C | 0% | 0hPa | 4.6V | 00:00:00 | 00:00:00 | 00:00:00 | |
| DO3MHA-11 | 2026-08-31 11:30:49 | 50.96161 | 8.92611 | 269° | 38km/h | 19909m | -8.3m/s | 0°C | 0% | 0hPa | 4.6V | 00:00:00 | 00:00:00 | 00:00:00 | |
| DO3DL | 2026-08-31 11:30:47 | 50.96155 | 8.92641 | 318° | 40km/h | 19926m | -7.8m/s | -50.9°C | 0% | 0hPa | 4.6V | 00:00:00 | 00:00:00 | 00:00:00 | |
| DM7RM-13 | 2026-08-31 11:30:45 | 50.96146 | 8.92650 | 337° | 47km/h | 19933m | -7.5m/s | -44.5°C | 0% | 0hPa | 4.6V | 00:00:00 | 00:00:00 | 00:00:00 | |
| DO2JMG | 2026-08-31 11:30:43 | 50.96121 | 8.92654 | 11° | 53km/h | 19949m | -7.6m/s | -50.9°C | 0% | 0hPa | 4.6V | 00:00:00 | 00:00:00 | 00:00:00 | |
| AA1-15 | 2026-08-31 11:30:42 | 50.96100 | 8.92637 | 45° | 44km/h | 19964m | -7.9m/s | -51°C | 0% | 0hPa | 4.6V | 00:00:00 | 00:00:00 | 00:00:00 | |
| HSKMA3-T | 2026-08-31 11:30:41 | 50.96094 | 8.92624 | 63° | 37km/h | 19971m | -7.7m/s | -51°C | 0% | 0hPa | 4.6V | 00:00:00 | 00:00:00 | 00:00:00 | |
| DD1CC2-15 | 2026-08-31 11:30:41 | 50.96094 | 8.92624 | 64° | 37km/h | 19972m | -7.7m/s | -44.6°C | 0% | 0hPa | 4.6V | 00:00:00 | 00:00:00 | 00:00:00 | |
| DO3DL | 2026-08-31 11:30:40 | 50.96094 | 8.92624 | 64° | 37km/h | 19972m | -7.7m/s | -51.0°C | 0% | 0hPa | 4.6V | 00:00:00 | 00:00:00 | 00:00:00 | |
| GOEST3-10 | 2026-08-31 11:30:39 | 50.96092 | 8.92605 | 108° | 13km/h | 19994m | -7.7m/s | 0°C | 0% | 0hPa | 4.6V | 00:00:00 | 00:00:00 | 00:00:00 | |
| DL1XH-west | 2026-08-31 11:30:36 | 50.96091 | 8.92610 | 306° | 24km/h | 20010m | -7.6m/s | 0°C | 0% | 0hPa | 4.6V | 00:00:00 | 00:00:00 | 00:00:00 | |
| GOEST3-10 | 2026-08-31 11:30:33 | 50.96077 | 8.92625 | 344° | 46km/h | 20032m | -6.9m/s | 0°C | 0% | 0hPa | 4.6V | 00:00:00 | 00:00:00 | 00:00:00 | |
| DO2JMG | 2026-08-31 11:30:32 | 50.96054 | 8.92624 | 17° | 49km/h | 20038m | -6.6m/s | -50.9°C | 0% | 0hPa | 4.6V | 00:00:00 | 00:00:00 | 00:00:00 | |
| AA1-15 | 2026-08-31 11:30:31 | 50.96043 | 8.92616 | 34° | 47km/h | 20045m | -6.8m/s | -50.8°C | 0% | 0hPa | 4.6V | 00:00:00 | 00:00:00 | 00:00:00 | |
| HSKMA3-T | 2026-08-31 11:30:30 | 50.96035 | 8.92604 | 51° | 44km/h | 20052m | -6.5m/s | -50.8°C | 0% | 0hPa | 4.6V | 00:00:00 | 00:00:00 | 00:00:00 | |
| DO3MHA-11 | 2026-08-31 11:30:29 | 50.96035 | 8.92604 | 52° | 27km/h | 20058m | -6.9m/s | 0°C | 0% | 0hPa | 4.6V | 00:00:00 | 00:00:00 | 00:00:00 | |
| DF5WG-10 | 2026-08-31 11:30:26 | 50.96030 | 8.92565 | 112° | 42km/h | 20119m | -7.3m/s | 0°C | 0% | 0hPa | 4.6V | 00:00:00 | 00:00:00 | 00:00:00 | |
| DM7RM-13 | 2026-08-31 11:30:25 | 50.96035 | 8.92557 | 196° | 11km/h | 20089m | -7.6m/s | -44.5°C | 0% | 0hPa | 4.6V | 00:00:00 | 00:00:00 | 00:00:00 | |
| GOEST3-10 | 2026-08-31 11:30:23 | 50.96037 | 8.92560 | 269° | 27km/h | 20104m | -7.3m/s | 0°C | 0% | 0hPa | 4.6V | 00:00:00 | 00:00:00 | 00:00:00 | |
| AA1-15 | 2026-08-31 11:30:20 | 50.96011 | 8.92572 | 16° | 46km/h | 20126m | -7.2m/s | -50.8°C | 0% | 0hPa | 4.6V | 00:00:00 | 00:00:00 | 00:00:00 | |
| DO2JMG | 2026-08-31 11:30:19 | 50.96000 | 8.92564 | 32° | 49km/h | 20133m | -7.2m/s | -50.8°C | 0% | 0hPa | 4.6V | 00:00:00 | 00:00:00 | 00:00:00 | |
| GOEST3-10 | 2026-08-31 11:30:18 | 50.96000 | 8.92564 | 33° | 44km/h | 20141m | -7.4m/s | 0°C | 0% | 0hPa | 4.6V | 00:00:00 | 00:00:00 | 00:00:00 | |
| DF5WG-10 | 2026-08-31 11:30:16 | 50.95979 | 8.92505 | 95° | 42km/h | 20192m | -7.4m/s | 0°C | 0% | 0hPa | 4.6V | 00:00:00 | 00:00:00 | 00:00:00 | |
| DO3DL | 2026-08-31 11:30:15 | 50.95979 | 8.92501 | 95° | 37km/h | 20163m | -7.2m/s | -50.7°C | 0% | 0hPa | 4.6V | 00:00:00 | 00:00:00 | 00:00:00 | |
| GOEST3-10 | 2026-08-31 11:30:13 | 50.95980 | 8.92481 | 133° | 22km/h | 20192m | -7.4m/s | 0°C | 0% | 0hPa | 4.6V | 00:00:00 | 00:00:00 | 00:00:00 | |
| DL3OBA | 2026-08-31 11:30:10 | 50.95981 | 8.92485 | 336° | 24km/h | 20200m | -7.4m/s | -50.8°C | 0% | 0hPa | 4.6V | 00:00:00 | 00:00:00 | 00:00:00 | |
| AA1-15 | 2026-08-31 11:30:09 | 50.95974 | 8.92488 | 353° | 35km/h | 20207m | -7.5m/s | -50.8°C | 0% | 0hPa | 4.6V | 00:00:00 | 00:00:00 | 00:00:00 | |
| GOEST3-10 | 2026-08-31 11:30:08 | 50.95975 | 8.92488 | 354° | 51km/h | 20207m | -7.5m/s | 0°C | 0% | 0hPa | 4.6V | 00:00:00 | 00:00:00 | 00:00:00 | |
| DO3DL | 2026-08-31 11:30:07 | 50.95964 | 8.92487 | 12° | 44km/h | 20215m | -7.8m/s | -50.8°C | 0% | 0hPa | 4.6V | 00:00:00 | 00:00:00 | 00:00:00 | |
| DO2JMG | 2026-08-31 11:30:06 | 50.95942 | 8.92468 | 45° | 55km/h | 20230m | -7.4m/s | -50.8°C | 0% | 0hPa | 4.6V | 00:00:00 | 00:00:00 | 00:00:00 | |
| DF5WG-10 | 2026-08-31 11:30:05 | 50.95942 | 8.92468 | 45° | 51km/h | 20238m | -7.1m/s | 0°C | 0% | 0hPa | 4.6V | 00:00:00 | 00:00:00 | 00:00:00 | |
| DM7RM-13 | 2026-08-31 11:30:04 | 50.95930 | 8.92430 | 80° | 53km/h | 20245m | -7.4m/s | -44.3°C | 0% | 0hPa | 4.6V | 00:00:00 | 00:00:00 | 00:00:00 | |
| GOEST3-10 | 2026-08-31 11:30:03 | 50.95930 | 8.92430 | 80° | 37km/h | 20253m | -7.4m/s | 0°C | 0% | 0hPa | 4.6V | 00:00:00 | 00:00:00 | 00:00:00 | |
| DO3DL | 2026-08-31 11:30:01 | 50.95932 | 8.92394 | 116° | 38km/h | 20260m | -7.5m/s | -50.8°C | 0% | 0hPa | 4.6V | 00:00:00 | 00:00:00 | 00:00:00 | |
| DD1CC2-15 | 2026-08-31 11:30:00 | 50.95936 | 8.92383 | 136° | 27km/h | 20268m | -7.5m/s | -44.4°C | 0% | 0hPa | 4.6V | 00:00:00 | 00:00:00 | 00:00:00 | |
| DO3MHA-11 | 2026-08-31 11:29:59 | 50.95940 | 8.92378 | 161° | 35km/h | 20283m | -7.3m/s | 0°C | 0% | 0hPa | 4.6V | 00:00:00 | 00:00:00 | 00:00:00 | |
| AA1-15 | 2026-08-31 11:29:58 | 50.95942 | 8.92381 | 323° | 15km/h | 20290m | -7.3m/s | -50.9°C | 0% | 0hPa | 4.6V | 00:00:00 | 00:00:00 | 00:00:00 | |
| GOEST3-10 | 2026-08-31 11:29:58 | 50.95943 | 8.92378 | 301° | 35km/h | 20297m | -7.4m/s | 0°C | 0% | 0hPa | 4.6V | 00:00:00 | 00:00:00 | 00:00:00 | |
| DO3DL | 2026-08-31 11:29:54 | 50.95920 | 8.92375 | 33° | 46km/h | 20312m | -7.8m/s | -51.0°C | 0% | 0hPa | 4.6V | 00:00:00 | 00:00:00 | 00:00:00 | |
| DO2JMG | 2026-08-31 11:29:53 | 50.95911 | 8.92363 | 49° | 51km/h | 20320m | -7.8m/s | -51°C | 0% | 0hPa | 4.6V | 00:00:00 | 00:00:00 | 00:00:00 | |
| GOEST3-10 | 2026-08-31 11:29:52 | 50.95905 | 8.92346 | 67° | 47km/h | 20336m | -7.6m/s | 0°C | 0% | 0hPa | 4.6V | 00:00:00 | 00:00:00 | 00:00:00 | |
| DL3OBA | 2026-08-31 11:29:49 | 50.95911 | 8.92278 | 141° | 33km/h | 20358m | -6.9m/s | -51.2°C | 0% | 0hPa | 4.6V | 00:00:00 | 00:00:00 | 00:00:00 | |
| AA1-15 | 2026-08-31 11:29:48 | 50.95921 | 8.92273 | 207° | 13km/h | 20372m | -7.3m/s | -51.2°C | 0% | 0hPa | 4.6V | 00:00:00 | 00:00:00 | 00:00:00 | |
| GOEST3-10 | 2026-08-31 11:29:47 | 50.95917 | 8.92270 | 207° | 20km/h | 20380m | -7.4m/s | 0°C | 0% | 0hPa | 4.6V | 00:00:00 | 00:00:00 | 00:00:00 | |
| DM7RM-13 | 2026-08-31 11:29:43 | 50.95913 | 8.92281 | 3° | 29km/h | 20395m | -7.3m/s | -44.8°C | 0% | 0hPa | 4.6V | 00:00:00 | 00:00:00 | 00:00:00 | |
| DO2JMG | 2026-08-31 11:29:42 | 50.95905 | 8.92278 | 22° | 38km/h | 20402m | -7.2m/s | -51.2°C | 0% | 0hPa | 4.6V | 00:00:00 | 00:00:00 | 00:00:00 | |
| GOEST3-10 | 2026-08-31 11:29:42 | 50.95905 | 8.92278 | 22° | 44km/h | 20410m | -7.6m/s | 0°C | 0% | 0hPa | 4.6V | 00:00:00 | 00:00:00 | 00:00:00 | |
| DF5WG-10 | 2026-08-31 11:29:41 | 50.95896 | 8.92269 | 41° | 37km/h | 20417m | -7.5m/s | 0°C | 0% | 0hPa | 4.6V | 00:00:00 | 00:00:00 | 00:00:00 | |
| DJTTGO | 2026-08-31 11:29:40 | 50.95889 | 8.92256 | 59° | 47km/h | 20417m | -7.6m/s | -51.3°C | 0% | 0hPa | 4.6V | 00:00:00 | 00:00:00 | 00:00:00 | |
| GOEST3-10 | 2026-08-31 11:29:37 | 50.95886 | 8.92202 | 116° | 35km/h | 20500m | -7.4m/s | 0°C | 0% | 0hPa | 4.6V | 00:00:00 | 00:00:00 | 00:00:00 | |
| AA1-15 | 2026-08-31 11:29:36 | 50.95899 | 8.92182 | 162° | 29km/h | 20454m | -7.5m/s | -51.6°C | 0% | 0hPa | 4.6V | 00:00:00 | 00:00:00 | 00:00:00 | |
| DO3DL | 2026-08-31 11:29:36 | 50.95899 | 8.92189 | 138° | 29km/h | 20447m | -7.4m/s | -51.5°C | 0% | 0hPa | 4.6V | 00:00:00 | 00:00:00 | 00:00:00 | |
| DO2JMG | 2026-08-31 11:29:29 | 50.95895 | 8.92199 | 27° | 33km/h | 20500m | -7.5m/s | -51.5°C | 0% | 0hPa | 4.6V | 00:00:00 | 00:00:00 | 00:00:00 | |
| DO3DL | 2026-08-31 11:29:29 | 50.95888 | 8.92190 | 53° | 37km/h | 20508m | -7.4m/s | -51.5°C | 0% | 0hPa | 4.6V | 00:00:00 | 00:00:00 | 00:00:00 | |
| AA1-15 | 2026-08-31 11:29:26 | 50.95894 | 8.92135 | 145° | 38km/h | 20537m | -7.5m/s | -51.6°C | 0% | 0hPa | 4.6V | 00:00:00 | 00:00:00 | 00:00:00 | |
| DM7RM-13 | 2026-08-31 11:29:25 | 50.95902 | 8.92129 | 170° | 35km/h | 20544m | -7.5m/s | -45.3°C | 0% | 0hPa | 4.6V | 00:00:00 | 00:00:00 | 00:00:00 | |
| DF1GD-15 | 2026-08-31 11:29:22 | 50.95915 | 8.92135 | 232° | 24km/h | 20552m | -7.6m/s | -51.7°C | 0% | 0hPa | 4.6V | 00:00:00 | 00:00:00 | 00:00:00 | |
| DO3MHA-11 | 2026-08-31 11:29:19 | 50.95914 | 8.92155 | 353° | 37km/h | 20582m | -7.5m/s | 0°C | 0% | 0hPa | 4.6V | 00:00:00 | 00:00:00 | 00:00:00 | |
| DO2JMG | 2026-08-31 11:29:17 | 50.95893 | 8.92144 | 43° | 40km/h | 20597m | -7.4m/s | -51.8°C | 0% | 0hPa | 4.6V | 00:00:00 | 00:00:00 | 00:00:00 | |
| DO3DL | 2026-08-31 11:29:16 | 50.95887 | 8.92131 | 64° | 44km/h | 20604m | -7.3m/s | -51.8°C | 0% | 0hPa | 4.6V | 00:00:00 | 00:00:00 | 00:00:00 | |
| GOEST3-10 | 2026-08-31 11:29:15 | 50.95887 | 8.92131 | 64° | 38km/h | 20612m | -7.3m/s | 0°C | 0% | 0hPa | 4.6V | 00:00:00 | 00:00:00 | 00:00:00 | |
| AA1-15 | 2026-08-31 11:29:14 | 50.95884 | 8.92115 | 84° | 44km/h | 20611m | -7.4m/s | -51.8°C | 0% | 0hPa | 4.6V | 00:00:00 | 00:00:00 | 00:00:00 | |
| DO3MHA-11 | 2026-08-31 11:29:09 | 50.95907 | 8.92068 | 205° | 37km/h | 20658m | -7.7m/s | 0°C | 0% | 0hPa | 4.6V | 00:00:00 | 00:00:00 | 00:00:00 | |
| DL3OBA | 2026-08-31 11:29:06 | 50.95885 | 8.92081 | 353° | 46km/h | 20673m | -7.4m/s | -52.0°C | 0% | 0hPa | 4.6V | 00:00:00 | 00:00:00 | 00:00:00 | |
| DO2JMG | 2026-08-31 11:29:05 | 50.95885 | 8.92072 | 36° | 46km/h | 20688m | -7.3m/s | -52°C | 0% | 0hPa | 4.6V | 00:00:00 | 00:00:00 | 00:00:00 | |
| AA1-15 | 2026-08-31 11:29:04 | 50.95876 | 8.92059 | 54° | 51km/h | 20695m | -7.4m/s | -52°C | 0% | 0hPa | 4.6V | 00:00:00 | 00:00:00 | 00:00:00 | |
| GOEST3-10 | 2026-08-31 11:29:04 | 50.95885 | 8.92077 | 54° | 49km/h | 20695m | -7.4m/s | 0°C | 0% | 0hPa | 4.6V | 00:00:00 | 00:00:00 | 00:00:00 | |
| DM7RM-13 | 2026-08-31 11:29:03 | 50.95871 | 8.92040 | 73° | 53km/h | 20703m | -7.6m/s | -45.7°C | 0% | 0hPa | 4.6V | 00:00:00 | 00:00:00 | 00:00:00 | |
| DD1CC2-15 | 2026-08-31 11:28:59 | 50.95880 | 8.91980 | 153° | 27km/h | 20732m | -7.5m/s | -45.8°C | 0% | 0hPa | 4.6V | 00:00:00 | 00:00:00 | 00:00:00 | |
| DF1GD-15 | 2026-08-31 11:28:56 | 50.95888 | 8.91980 | 250° | 11km/h | 20748m | -7.5m/s | 0°C | 0% | 0hPa | 4.6V | 00:00:00 | 00:00:00 | 00:00:00 | |
| AA1-15 | 2026-08-31 11:28:53 | 50.95875 | 8.91987 | 14° | 35km/h | 20771m | -7.5m/s | -52°C | 0% | 0hPa | 4.6V | 00:00:00 | 00:00:00 | 00:00:00 | |
| DO2JMG | 2026-08-31 11:28:53 | 50.95866 | 8.91981 | 36° | 42km/h | 20778m | -7.6m/s | -52°C | 0% | 0hPa | 4.6V | 00:00:00 | 00:00:00 | 00:00:00 | |
| DO3DL | 2026-08-31 11:28:52 | 50.95866 | 8.91981 | 37° | 42km/h | 20779m | -7.6m/s | -52.0°C | 0% | 0hPa | 4.6V | 00:00:00 | 00:00:00 | 00:00:00 | |
| DF5WG-10 | 2026-08-31 11:28:51 | 50.95851 | 8.91968 | 56° | 40km/h | 20786m | -7.5m/s | 0°C | 0% | 0hPa | 4.6V | 00:00:00 | 00:00:00 | 00:00:00 | |
| DO3MHA-11 | 2026-08-31 11:28:49 | 50.95852 | 8.91927 | 114° | 33km/h | 20809m | -7.8m/s | 0°C | 0% | 0hPa | 4.6V | 00:00:00 | 00:00:00 | 00:00:00 | |
| DL3OBA | 2026-08-31 11:28:45 | 50.95883 | 8.91899 | 279° | 22km/h | 20848m | -7.6m/s | -51.7°C | 0% | 0hPa | 4.6V | 00:00:00 | 00:00:00 | 00:00:00 | |
| AA1-15 | 2026-08-31 11:28:44 | 50.95880 | 8.91907 | 318° | 26km/h | 20856m | -7.6m/s | -51.7°C | 0% | 0hPa | 4.6V | 00:00:00 | 00:00:00 | 00:00:00 | |
| DM7RM-13 | 2026-08-31 11:28:41 | 50.95873 | 8.91912 | 351° | 31km/h | 20864m | -7.8m/s | -45.3°C | 0% | 0hPa | 4.6V | 00:00:00 | 00:00:00 | 00:00:00 | |
| DO3MHA-11 | 2026-08-31 11:28:39 | 50.95857 | 8.91903 | 43° | 33km/h | 20887m | -7.4m/s | 0°C | 0% | 0hPa | 4.6V | 00:00:00 | 00:00:00 | 00:00:00 | |
| DO2JMG | 2026-08-31 11:28:38 | 50.95852 | 8.91891 | 66° | 40km/h | 20887m | -7.4m/s | -51.7°C | 0% | 0hPa | 4.6V | 00:00:00 | 00:00:00 | 00:00:00 | |
| GOEST3-10 | 2026-08-31 11:28:38 | 50.95851 | 8.91890 | 92° | 38km/h | 20895m | -7.5m/s | 0°C | 0% | 0hPa | 4.6V | 00:00:00 | 00:00:00 | 00:00:00 | |
| AA1-15 | 2026-08-31 11:28:33 | 50.95877 | 8.91862 | 280° | 26km/h | 20941m | -7.8m/s | -51.6°C | 0% | 0hPa | 4.6V | 00:00:00 | 00:00:00 | 00:00:00 | |
| DO3DL | 2026-08-31 11:28:32 | 50.95876 | 8.91852 | 243° | 26km/h | 20934m | -7.7m/s | -51.6°C | 0% | 0hPa | 4.6V | 00:00:00 | 00:00:00 | 00:00:00 | |
| DJTTGO | 2026-08-31 11:28:29 | 50.95860 | 8.91875 | 16° | 37km/h | 20965m | -7.3m/s | -51.5°C | 0% | 0hPa | 4.6V | 00:00:00 | 00:00:00 | 00:00:00 | |
| DL1CLM-18 | 2026-08-31 11:28:28 | 50.95860 | 8.91875 | 16° | 37km/h | 20965m | -7.3m/s | -51.5°C | 0% | 0hPa | 4.6V | 00:00:00 | 00:00:00 | 00:00:00 | |
| DO2JMG | 2026-08-31 11:28:26 | 50.95844 | 8.91856 | 59° | 42km/h | 20979m | -7.5m/s | -51.4°C | 0% | 0hPa | 4.6V | 00:00:00 | 00:00:00 | 00:00:00 | |
| DO3DL | 2026-08-31 11:28:26 | 50.95845 | 8.91856 | 60° | 42km/h | 20979m | -7.5m/s | -51.4°C | 0% | 0hPa | 4.6V | 00:00:00 | 00:00:00 | 00:00:00 | |
| GOEST3-10 | 2026-08-31 11:28:22 | 50.95849 | 8.91806 | 154° | 24km/h | 21064m | -7.8m/s | 0°C | 0% | 0hPa | 4.6V | 00:00:00 | 00:00:00 | 00:00:00 | |
| AA1-15 | 2026-08-31 11:28:21 | 50.95857 | 8.91809 | 248° | 18km/h | 21025m | -7.3m/s | -51.5°C | 0% | 0hPa | 4.6V | 00:00:00 | 00:00:00 | 00:00:00 | |
| DO3MHA-11 | 2026-08-31 11:28:19 | 50.95856 | 8.91817 | 290° | 37km/h | 21041m | -7.8m/s | 0°C | 0% | 0hPa | 4.6V | 00:00:00 | 00:00:00 | 00:00:00 | |
| GOEST3-10 | 2026-08-31 11:28:17 | 50.95845 | 8.91833 | 341° | 35km/h | 21064m | -7.8m/s | 0°C | 0% | 0hPa | 4.6V | 00:00:00 | 00:00:00 | 00:00:00 | |
| DF5WG-10 | 2026-08-31 11:28:16 | 50.95835 | 8.91841 | 21° | 40km/h | 21072m | -7.8m/s | 0°C | 0% | 0hPa | 4.6V | 00:00:00 | 00:00:00 | 00:00:00 | |
| DO2JMG | 2026-08-31 11:28:14 | 50.95806 | 8.91808 | 60° | 46km/h | 21080m | -7.7m/s | -51.6°C | 0% | 0hPa | 4.6V | 00:00:00 | 00:00:00 | 00:00:00 | |
| DO3DL | 2026-08-31 11:28:14 | 50.95806 | 8.91808 | 61° | 46km/h | 21080m | -7.7m/s | -51.6°C | 0% | 0hPa | 4.6V | 00:00:00 | 00:00:00 | 00:00:00 | |
| AA1-15 | 2026-08-31 11:28:10 | 50.95810 | 8.91768 | 187° | 15km/h | 21112m | -7.6m/s | -51.5°C | 0% | 0hPa | 4.6V | 00:00:00 | 00:00:00 | 00:00:00 | |
| DO3MHA-11 | 2026-08-31 11:28:09 | 50.95810 | 8.91768 | 188° | 37km/h | 21120m | -7.8m/s | 0°C | 0% | 0hPa | 4.6V | 00:00:00 | 00:00:00 | 00:00:00 | |
| DO3DL | 2026-08-31 11:28:07 | 50.95812 | 8.91780 | 293° | 26km/h | 21128m | -8.0m/s | -51.5°C | 0% | 0hPa | 4.6V | 00:00:00 | 00:00:00 | 00:00:00 | |
| GOEST3-10 | 2026-08-31 11:28:06 | 50.95808 | 8.91819 | 26° | 40km/h | 21160m | -7.8m/s | 0°C | 0% | 0hPa | 4.6V | 00:00:00 | 00:00:00 | 00:00:00 | |
| DO2JMG | 2026-08-31 11:28:03 | 50.95778 | 8.91793 | 26° | 47km/h | 21160m | -7.8m/s | -51.6°C | 0% | 0hPa | 4.6V | 00:00:00 | 00:00:00 | 00:00:00 | |
| DM7RM-13 | 2026-08-31 11:28:01 | 50.95759 | 8.91749 | 90° | 40km/h | 21183m | -8.0m/s | -45.3°C | 0% | 0hPa | 4.6V | 00:00:00 | 00:00:00 | 00:00:00 | |
| GOEST3-10 | 2026-08-31 11:28:00 | 50.95760 | 8.91749 | 90° | 38km/h | 21216m | -7.8m/s | 0°C | 0% | 0hPa | 4.6V | 00:00:00 | 00:00:00 | 00:00:00 | |
| AA1-15 | 2026-08-31 11:27:59 | 50.95765 | 8.91725 | 138° | 26km/h | 21199m | -7.9m/s | -51.7°C | 0% | 0hPa | 4.6V | 00:00:00 | 00:00:00 | 00:00:00 | |
| DO3DL | 2026-08-31 11:27:54 | 50.95769 | 8.91737 | 327° | 29km/h | 21232m | -8.0m/s | -51.7°C | 0% | 0hPa | 4.6V | 00:00:00 | 00:00:00 | 00:00:00 | |
| DO3MHA-11 | 2026-08-31 11:27:49 | 50.95724 | 8.91704 | 70° | 31km/h | 21280m | -7.8m/s | 0°C | 0% | 0hPa | 4.6V | 00:00:00 | 00:00:00 | 00:00:00 | |
| AA1-15 | 2026-08-31 11:27:48 | 50.95722 | 8.91687 | 89° | 44km/h | 21279m | -7.8m/s | -51.8°C | 0% | 0hPa | 4.6V | 00:00:00 | 00:00:00 | 00:00:00 | |
| GOEST3-10 | 2026-08-31 11:27:48 | 50.95722 | 8.91682 | 111° | 40km/h | 21288m | -7.8m/s | 0°C | 0% | 0hPa | 4.6V | 00:00:00 | 00:00:00 | 00:00:00 | |
| DO3DL | 2026-08-31 11:27:47 | 50.95723 | 8.91671 | 112° | 37km/h | 21288m | -7.8m/s | -51.8°C | 0% | 0hPa | 4.6V | 00:00:00 | 00:00:00 | 00:00:00 | |
| DO2JMG | 2026-08-31 11:27:46 | 50.95732 | 8.91656 | 169° | 16km/h | 21304m | -7.9m/s | -51.8°C | 0% | 0hPa | 4.6V | 00:00:00 | 00:00:00 | 00:00:00 | |
| DM7RM-13 | 2026-08-31 11:27:40 | 50.95712 | 8.91669 | 14° | 46km/h | 21344m | -7.9m/s | -45.6°C | 0% | 0hPa | 4.6V | 00:00:00 | 00:00:00 | 00:00:00 | |
| DO3MHA-11 | 2026-08-31 11:27:39 | 50.95701 | 8.91662 | 31° | 33km/h | 21360m | -8.0m/s | 0°C | 0% | 0hPa | 4.6V | 00:00:00 | 00:00:00 | 00:00:00 | |
| AA1-15 | 2026-08-31 11:27:38 | 50.95684 | 8.91632 | 65° | 51km/h | 21368m | -7.9m/s | -52°C | 0% | 0hPa | 4.6V | 00:00:00 | 00:00:00 | 00:00:00 | |
| DD1CC2-15 | 2026-08-31 11:27:36 | 50.95680 | 8.91614 | 85° | 47km/h | 21376m | -8.1m/s | -45.6°C | 0% | 0hPa | 4.6V | 00:00:00 | 00:00:00 | 00:00:00 | |
| DO2JMG | 2026-08-31 11:27:35 | 50.95681 | 8.91596 | 103° | 42km/h | 21384m | -7.5m/s | -52°C | 0% | 0hPa | 4.6V | 00:00:00 | 00:00:00 | 00:00:00 | |
| GOEST3-10 | 2026-08-31 11:27:34 | 50.95684 | 8.91583 | 126° | 29km/h | 21400m | -7.8m/s | 0°C | 0% | 0hPa | 4.6V | 00:00:00 | 00:00:00 | 00:00:00 | |
| DL3OBA | 2026-08-31 11:27:31 | 50.95697 | 8.91577 | 253° | 15km/h | 21416m | -8.2m/s | -51.9°C | 0% | 0hPa | 4.6V | 00:00:00 | 00:00:00 | 00:00:00 | |
| DO3MHA-11 | 2026-08-31 11:27:29 | 50.95692 | 8.91594 | 2° | 31km/h | 21441m | -8.1m/s | 0°C | 0% | 0hPa | 4.6V | 00:00:00 | 00:00:00 | 00:00:00 | |
| DO2JMG | 2026-08-31 11:27:26 | 50.95662 | 8.91565 | 67° | 42km/h | 21465m | -8.3m/s | -51.7°C | 0% | 0hPa | 4.6V | 00:00:00 | 00:00:00 | 00:00:00 | |
| GOEST3-10 | 2026-08-31 11:27:25 | 50.95662 | 8.91564 | 90° | 37km/h | 21473m | -8.2m/s | 0°C | 0% | 0hPa | 4.6V | 00:00:00 | 00:00:00 | 00:00:00 | |
| DO3DL | 2026-08-31 11:27:22 | 50.95673 | 8.91519 | 171° | 27km/h | 21490m | -8.1m/s | -51.6°C | 0% | 0hPa | 4.6V | 00:00:00 | 00:00:00 | 00:00:00 | |
| GOEST3-10 | 2026-08-31 11:27:20 | 50.95679 | 8.91520 | 244° | 29km/h | 21538m | -8.3m/s | 0°C | 0% | 0hPa | 4.6V | 00:00:00 | 00:00:00 | 00:00:00 | |
| DM7RM-13 | 2026-08-31 11:27:19 | 50.95683 | 8.91527 | 245° | 22km/h | 21513m | -8.2m/s | -45.1°C | 0% | 0hPa | 4.6V | 00:00:00 | 00:00:00 | 00:00:00 | |
| AA1-15 | 2026-08-31 11:27:16 | 50.95667 | 8.91546 | 20° | 33km/h | 21546m | -8.2m/s | -51.5°C | 0% | 0hPa | 4.6V | 00:00:00 | 00:00:00 | 00:00:00 | |
| DO3DL | 2026-08-31 11:27:15 | 50.95668 | 8.91546 | 21° | 33km/h | 21547m | -8.1m/s | -51.5°C | 0% | 0hPa | 4.6V | 00:00:00 | 00:00:00 | 00:00:00 | |
| GOEST3-10 | 2026-08-31 11:27:12 | 50.95653 | 8.91511 | 92° | 37km/h | 21571m | -8.1m/s | 0°C | 0% | 0hPa | 4.6V | 00:00:00 | 00:00:00 | 00:00:00 | |
| DL3OBA | 2026-08-31 11:27:10 | 50.95662 | 8.91482 | 135° | 40km/h | 21587m | -7.6m/s | -51.5°C | 0% | 0hPa | 4.6V | 00:00:00 | 00:00:00 | 00:00:00 | |
| DO2JMG | 2026-08-31 11:27:09 | 50.95670 | 8.91474 | 158° | 37km/h | 21595m | -8.2m/s | -51.5°C | 0% | 0hPa | 4.6V | 00:00:00 | 00:00:00 | 00:00:00 | |
| DJTTGO | 2026-08-31 11:27:07 | 50.95686 | 8.91474 | 210° | 29km/h | 21612m | -8.4m/s | -51.5°C | 0% | 0hPa | 4.6V | 00:00:00 | 00:00:00 | 00:00:00 | |
| AA1-15 | 2026-08-31 11:27:05 | 50.95689 | 8.91496 | 327° | 22km/h | 21637m | -8.2m/s | -51.5°C | 0% | 0hPa | 4.6V | 00:00:00 | 00:00:00 | 00:00:00 | |
| GOEST3-10 | 2026-08-31 11:27:02 | 50.95677 | 8.91492 | 39° | 38km/h | 21662m | -7.9m/s | 0°C | 0% | 0hPa | 4.6V | 00:00:00 | 00:00:00 | 00:00:00 | |
| DO2JMG | 2026-08-31 11:26:59 | 50.95673 | 8.91431 | 121° | 42km/h | 21687m | -9.1m/s | -51.5°C | 0% | 0hPa | 4.6V | 00:00:00 | 00:00:00 | 00:00:00 | |
| SP3BTT-10 | 2026-08-31 11:26:56 | 50.95687 | 8.91414 | 168° | 22km/h | 21722m | -8.2m/s | 0°C | 0% | 0hPa | 4.6V | 00:00:00 | 00:00:00 | 00:00:00 | |
| AA1-15 | 2026-08-31 11:26:55 | 50.95697 | 8.91420 | 249° | 20km/h | 21721m | -8.2m/s | -51.6°C | 0% | 0hPa | 4.6V | 00:00:00 | 00:00:00 | 00:00:00 | |
| DL3OBA | 2026-08-31 11:26:49 | 50.95669 | 8.91424 | 51° | 40km/h | 21765m | -8.5m/s | -51.7°C | 0% | 0hPa | 4.6V | 00:00:00 | 00:00:00 | 00:00:00 | |
| DO2JMG | 2026-08-31 11:26:48 | 50.95664 | 8.91393 | 96° | 40km/h | 21781m | -8.3m/s | -51.8°C | 0% | 0hPa | 4.6V | 00:00:00 | 00:00:00 | 00:00:00 | |
| AA1-15 | 2026-08-31 11:26:44 | 50.95681 | 8.91362 | 174° | 33km/h | 21806m | -8.9m/s | -51.9°C | 0% | 0hPa | 4.6V | 00:00:00 | 00:00:00 | 00:00:00 | |
| DO3MHA-11 | 2026-08-31 11:26:40 | 50.95692 | 8.91391 | 313° | 33km/h | 21849m | -8.1m/s | 0°C | 0% | 0hPa | 41.5V | 00:00:00 | 00:00:00 | 00:00:00 | |
| DM7RM-13 | 2026-08-31 11:26:38 | 50.95677 | 8.91397 | 16° | 35km/h | 21857m | -8.6m/s | -45.6°C | 0% | 0hPa | 41.5V | 00:00:00 | 00:00:00 | 00:00:00 | |
| DO2JMG | 2026-08-31 11:26:37 | 50.95665 | 8.91380 | 69° | 35km/h | 21875m | -9.1m/s | -52.1°C | 0% | 0hPa | 41.5V | 00:00:00 | 00:00:00 | 00:00:00 | |
| GOEST3-10 | 2026-08-31 11:26:36 | 50.95665 | 8.91380 | 69° | 33km/h | 21884m | -8.7m/s | 0°C | 0% | 0hPa | 4.6V | 00:00:00 | 00:00:00 | 00:00:00 | |
| DD1CC2-15 | 2026-08-31 11:26:35 | 50.95664 | 8.91367 | 98° | 31km/h | 21884m | -8.7m/s | -45.6°C | 0% | 0hPa | 4.6V | 00:00:00 | 00:00:00 | 00:00:00 | |
| AA1-15 | 2026-08-31 11:26:33 | 50.95680 | 8.91350 | 197° | 31km/h | 21908m | -8.5m/s | -52°C | 0% | 0hPa | 4.6V | 00:00:00 | 00:00:00 | 00:00:00 | |
| DO3MHA-11 | 2026-08-31 11:26:30 | 50.95690 | 8.91368 | 257° | 35km/h | 21935m | -8.4m/s | 0°C | 0% | 0hPa | 4.6V | 00:00:00 | 00:00:00 | 00:00:00 | |
| DL3OBA | 2026-08-31 11:26:28 | 50.95668 | 8.91405 | 2° | 40km/h | 21959m | -8.3m/s | -52.1°C | 0% | 0hPa | 4.6V | 00:00:00 | 00:00:00 | 00:00:00 | |
| DO3DL | 2026-08-31 11:26:26 | 50.95668 | 8.91405 | 2° | 40km/h | 21959m | -8.3m/s | -52.1°C | 0% | 0hPa | 4.6V | 00:00:00 | 00:00:00 | 00:00:00 | |
| DO2JMG | 2026-08-31 11:26:22 | 50.95649 | 8.91370 | 115° | 27km/h | 21991m | -7.9m/s | -52.2°C | 0% | 0hPa | 4.6V | 00:00:00 | 00:00:00 | 00:00:00 | |
| AA1-15 | 2026-08-31 11:26:22 | 50.95660 | 8.91361 | 189° | 26km/h | 22008m | -8.5m/s | -52.2°C | 0% | 0hPa | 4.6V | 00:00:00 | 00:00:00 | 00:00:00 | |
| GOEST3-10 | 2026-08-31 11:26:21 | 50.95654 | 8.91363 | 152° | 29km/h | 22008m | -8.5m/s | 0°C | 0% | 0hPa | 4.6V | 00:00:00 | 00:00:00 | 00:00:00 | |
| DO3MHA-11 | 2026-08-31 11:26:20 | 50.95660 | 8.91355 | 225° | 37km/h | 22017m | -8.6m/s | 0°C | 0% | 0hPa | 4.6V | 00:00:00 | 00:00:00 | 00:00:00 | |
| DM7RM-13 | 2026-08-31 11:26:18 | 50.95669 | 8.91376 | 259° | 31km/h | 22025m | -8.7m/s | -45.9°C | 0% | 0hPa | 4.6V | 00:00:00 | 00:00:00 | 00:00:00 | |
| DD1CC2-15 | 2026-08-31 11:26:14 | 50.95645 | 8.91418 | 354° | 44km/h | 22058m | -8.4m/s | -46.0°C | 0% | 0hPa | 4.6V | 00:00:00 | 00:00:00 | 00:00:00 | |
| AA1-15 | 2026-08-31 11:26:12 | 50.95620 | 8.91403 | 59° | 29km/h | 22084m | -8.8m/s | -52.4°C | 0% | 0hPa | 4.6V | 00:00:00 | 00:00:00 | 00:00:00 | |
| DO3MHA-11 | 2026-08-31 11:26:10 | 50.95618 | 8.91393 | 95° | 35km/h | 22101m | -8.1m/s | 0°C | 0% | 0hPa | 4.6V | 00:00:00 | 00:00:00 | 00:00:00 | |
| DO2JMG | 2026-08-31 11:26:07 | 50.95634 | 8.91405 | 258° | 37km/h | 22127m | -8.9m/s | -52.5°C | 0% | 0hPa | 4.6V | 00:00:00 | 00:00:00 | 00:00:00 | |
| DL3OBA | 2026-08-31 11:26:06 | 50.95634 | 8.91404 | 259° | 37km/h | 22127m | -8.9m/s | -52.5°C | 0% | 0hPa | 4.6V | 00:00:00 | 00:00:00 | 00:00:00 | |
| WPPR-10 | 2026-08-31 11:26:05 | 50.95630 | 8.91436 | 304° | 44km/h | 22144m | -8.5m/s | -52.5°C | -1.0% | -1.0hPa | 4.6V | 00:00:00 | 00:00:00 | 00:00:00 | |
| AA1-15 | 2026-08-31 11:26:01 | 50.95592 | 8.91450 | 35° | 37km/h | 22177m | -8.1m/s | -52.6°C | 0% | 0hPa | 4.6V | 00:00:00 | 00:00:00 | 00:00:00 | |
| DO3MHA-11 | 2026-08-31 11:26:00 | 50.95592 | 8.91450 | 36° | 33km/h | 22186m | -8.5m/s | 0°C | 0% | 0hPa | 4.6V | 00:00:00 | 00:00:00 | 00:00:00 | |
| DM7RM-13 | 2026-08-31 11:25:57 | 50.95586 | 8.91423 | 138° | 18km/h | 22203m | -8.8m/s | -46.3°C | 0% | 0hPa | 4.6V | 00:00:00 | 00:00:00 | 00:00:00 | |
| DO2JMG | 2026-08-31 11:25:56 | 50.95590 | 8.91422 | 196° | 18km/h | 22212m | -8.6m/s | -52.6°C | 0% | 0hPa | 4.6V | 00:00:00 | 00:00:00 | 00:00:00 | |
| DD1CC2-15 | 2026-08-31 11:25:54 | 50.95593 | 8.91452 | 294° | 42km/h | 22237m | -8.1m/s | -46.2°C | 0% | 0hPa | 4.6V | 00:00:00 | 00:00:00 | 00:00:00 | |
| DO3DL | 2026-08-31 11:25:51 | 50.95577 | 8.91479 | 331° | 49km/h | 22254m | -8.6m/s | -52.5°C | 0% | 0hPa | 4.6V | 00:00:00 | 00:00:00 | 00:00:00 | |
| DO3MHA-11 | 2026-08-31 11:25:50 | 50.95566 | 8.91492 | 8° | 29km/h | 22271m | -8.5m/s | 0°C | 0% | 0hPa | 4.6V | 00:00:00 | 00:00:00 | 00:00:00 | |
| AA1-15 | 2026-08-31 11:25:49 | 50.95546 | 8.91483 | 28° | 35km/h | 22279m | -8m/s | -52.5°C | 0% | 0hPa | 4.6V | 00:00:00 | 00:00:00 | 00:00:00 | |
| DO2JMG | 2026-08-31 11:25:45 | 50.95539 | 8.91465 | 155° | 11km/h | 22304m | -8.8m/s | -52.5°C | 0% | 0hPa | 4.6V | 00:00:00 | 00:00:00 | 00:00:00 | |
| SP3BTT-10 | 2026-08-31 11:25:44 | 50.95542 | 8.91466 | 220° | 29km/h | 22322m | -8.8m/s | 0°C | 0% | 0hPa | 4.6V | 00:00:00 | 00:00:00 | 00:00:00 | |
| DL3OBA | 2026-08-31 11:25:43 | 50.95544 | 8.91472 | 254° | 24km/h | 22322m | -8.8m/s | -52.4°C | 0% | 0hPa | 4.6V | 00:00:00 | 00:00:00 | 00:00:00 | |
| DO3MHA-11 | 2026-08-31 11:25:40 | 50.95534 | 8.91512 | 318° | 40km/h | 22356m | -8.4m/s | 0°C | 0% | 0hPa | 4.6V | 00:00:00 | 00:00:00 | 00:00:00 | |
| AA1-15 | 2026-08-31 11:25:38 | 50.95499 | 8.91528 | 11° | 51km/h | 22374m | -8.6m/s | -52.2°C | 0% | 0hPa | 4.6V | 00:00:00 | 00:00:00 | 00:00:00 | |
| DM7RM-13 | 2026-08-31 11:25:37 | 50.95499 | 8.91528 | 12° | 51km/h | 22374m | -8.6m/s | -45.9°C | 0% | 0hPa | 4.6V | 00:00:00 | 00:00:00 | 00:00:00 | |
| DO2JMG | 2026-08-31 11:25:33 | 50.95475 | 8.91479 | 140° | 16km/h | 22417m | -8.7m/s | -52.2°C | 0% | 0hPa | 4.6V | 00:00:00 | 00:00:00 | 00:00:00 | |
| DO3MHA-11 | 2026-08-31 11:25:30 | 50.95480 | 8.91483 | 263° | 42km/h | 22452m | -8.6m/s | 0°C | 0% | 0hPa | 4.6V | 00:00:00 | 00:00:00 | 00:00:00 | |
| DF1GD-15 | 2026-08-31 11:25:29 | 50.95479 | 8.91492 | 297° | 29km/h | 22443m | -8.7m/s | -52.2°C | 0% | 0hPa | 4.6V | 00:00:00 | 00:00:00 | 00:00:00 | |
| AA1-15 | 2026-08-31 11:25:28 | 50.95464 | 8.91510 | 341° | 46km/h | 22460m | -8.4m/s | -52.2°C | 0% | 0hPa | 4.6V | 00:00:00 | 00:00:00 | 00:00:00 | |
| GOEST3-10 | 2026-08-31 11:25:22 | 50.95412 | 8.91450 | 93° | 46km/h | 22582m | -8.6m/s | 0°C | 0% | 0hPa | 4.6V | 00:00:00 | 00:00:00 | 00:00:00 | |
| BIOWL1-15 | 2026-08-31 11:25:20 | 50.95413 | 8.91437 | 114° | 26km/h | 22520m | -8.8m/s | -52.2°C | 0% | 0hPa | 4.6V | 00:00:00 | 00:00:00 | 00:00:00 | |
| DO3MHA-11 | 2026-08-31 11:25:20 | 50.95412 | 8.91431 | 146° | 37km/h | 22529m | -8.7m/s | 0°C | 0% | 0hPa | 4.6V | 00:00:00 | 00:00:00 | 00:00:00 | |
| DL3OBA | 2026-08-31 11:25:19 | 50.95415 | 8.91431 | 146° | 13km/h | 22529m | -8.7m/s | -52.2°C | 0% | 0hPa | 4.6V | 00:00:00 | 00:00:00 | 00:00:00 | |
| AA1-15 | 2026-08-31 11:25:18 | 50.95415 | 8.91434 | 315° | 18km/h | 22547m | -8.6m/s | -52.2°C | 0% | 0hPa | 4.6V | 00:00:00 | 00:00:00 | 00:00:00 | |
| DM7RM-13 | 2026-08-31 11:25:16 | 50.95410 | 8.91439 | 340° | 31km/h | 22556m | -8.7m/s | -45.9°C | 0% | 0hPa | 4.6V | 00:00:00 | 00:00:00 | 00:00:00 | |
| DD1CC2-15 | 2026-08-31 11:25:12 | 50.95366 | 8.91415 | 50° | 58km/h | 22591m | -8.8m/s | -46.0°C | 0% | 0hPa | 4.6V | 00:00:00 | 00:00:00 | 00:00:00 | |
| GOEST3-10 | 2026-08-31 11:25:11 | 50.95354 | 8.91396 | 66° | 46km/h | 22599m | -8.9m/s | 0°C | 0% | 0hPa | 4.6V | 00:00:00 | 00:00:00 | 00:00:00 | |
| DO3MHA-11 | 2026-08-31 11:25:10 | 50.95354 | 8.91376 | 83° | 29km/h | 22617m | -8.3m/s | 0°C | 0% | 0hPa | 4.6V | 00:00:00 | 00:00:00 | 00:00:00 | |
| DO2JMG | 2026-08-31 11:25:09 | 50.95357 | 8.91347 | 124° | 27km/h | 22625m | -8.2m/s | -52.3°C | 0% | 0hPa | 4.6V | 00:00:00 | 00:00:00 | 00:00:00 | |
| AA1-15 | 2026-08-31 11:25:07 | 50.95364 | 8.91342 | 234° | 11km/h | 22642m | -8.3m/s | -52.3°C | 0% | 0hPa | 4.6V | 00:00:00 | 00:00:00 | 00:00:00 | |
| DF1GD-15 | 2026-08-31 11:25:06 | 50.95360 | 8.91347 | 291° | 26km/h | 22651m | -8.6m/s | -52.3°C | 0% | 0hPa | 4.5V | 00:00:00 | 00:00:00 | 00:00:00 | |
| DO3DL | 2026-08-31 11:25:04 | 50.95360 | 8.91354 | 323° | 26km/h | 22659m | -8.8m/s | -52.3°C | 0% | 0hPa | 4.5V | 00:00:00 | 00:00:00 | 00:00:00 | |
| WPPR-10 | 2026-08-31 11:25:03 | 50.95345 | 8.91360 | 7° | 37km/h | 22677m | -8.5m/s | -52.4°C | -1.0% | -1.0hPa | 4.5V | 00:00:00 | 00:00:00 | 00:00:00 | |
| DO3MHA-11 | 2026-08-31 11:25:00 | 50.95328 | 8.91346 | 68° | 31km/h | 22702m | -8.0m/s | 0°C | 0% | 0hPa | 4.5V | 00:00:00 | 00:00:00 | 00:00:00 | |
| DO2JMG | 2026-08-31 11:24:58 | 50.95320 | 8.91297 | 103° | 38km/h | 22718m | -8.9m/s | -52.3°C | 0% | 0hPa | 4.5V | 00:00:00 | 00:00:00 | 00:00:00 | |
| DO3DL | 2026-08-31 11:24:58 | 50.95323 | 8.91285 | 125° | 31km/h | 22719m | -8.9m/s | -52.3°C | 0% | 0hPa | 4.6V | 00:00:00 | 00:00:00 | 00:00:00 | |
| AA1-15 | 2026-08-31 11:24:56 | 50.95329 | 8.91277 | 151° | 26km/h | 22737m | -8.9m/s | -52.2°C | 0% | 0hPa | 4.6V | 00:00:00 | 00:00:00 | 00:00:00 | |
| GOEST3-10 | 2026-08-31 11:24:55 | 50.95329 | 8.91277 | 151° | 24km/h | 22745m | -8.2m/s | 0°C | 0% | 0hPa | 4.5V | 00:00:00 | 00:00:00 | 00:00:00 | |
| SP3BTT-10 | 2026-08-31 11:24:52 | 50.95339 | 8.91287 | 303° | 33km/h | 22771m | -8.7m/s | 0°C | 0% | 0hPa | 4.5V | 00:00:00 | 00:00:00 | 00:00:00 | |
| DO3MHA-11 | 2026-08-31 11:24:50 | 50.95332 | 8.91302 | 329° | 31km/h | 22789m | -8.8m/s | 0°C | 0% | 0hPa | 4.5V | 00:00:00 | 00:00:00 | 00:00:00 | |
| DO3DL | 2026-08-31 11:24:49 | 50.95325 | 8.91306 | 354° | 35km/h | 22789m | -8.8m/s | -52.2°C | 0% | 0hPa | 4.5V | 00:00:00 | 00:00:00 | 00:00:00 | |
| DO2JMG | 2026-08-31 11:24:47 | 50.95308 | 8.91299 | 39° | 37km/h | 22807m | -9.5m/s | -52.3°C | 0% | 0hPa | 4.5V | 00:00:00 | 00:00:00 | 00:00:00 | |
| BIOWL1-15 | 2026-08-31 11:24:45 | 50.95307 | 8.91258 | 157° | 24km/h | 22844m | -8.9m/s | -52.5°C | 0% | 0hPa | 4.6V | 00:00:00 | 00:00:00 | 00:00:00 | |
| AA1-15 | 2026-08-31 11:24:45 | 50.95302 | 8.91265 | 119° | 27km/h | 22835m | -9.3m/s | -52.4°C | 0% | 0hPa | 4.6V | 00:00:00 | 00:00:00 | 00:00:00 | |
| GOEST3-10 | 2026-08-31 11:24:44 | 50.95302 | 8.91265 | 120° | 27km/h | 22844m | -8.9m/s | 0°C | 0% | 0hPa | 4.5V | 00:00:00 | 00:00:00 | 00:00:00 | |
| OE3JTB-15 | 2026-08-31 11:24:43 | 50.95306 | 8.91252 | 199° | 27km/h | 22853m | -9.0m/s | 0°C | 0% | 0hPa | 4.5V | 00:00:00 | 00:00:00 | 00:00:00 | |
| DF1GD-15 | 2026-08-31 11:24:42 | 50.95317 | 8.91264 | 237° | 27km/h | 22853m | -9.0m/s | -52.5°C | 0% | 0hPa | 4.5V | 00:00:00 | 00:00:00 | 00:00:00 | |
| DO3MHA-11 | 2026-08-31 11:24:40 | 50.95319 | 8.91275 | 266° | 31km/h | 22880m | -9.0m/s | 0°C | 0% | 0hPa | 4.5V | 00:00:00 | 00:00:00 | 00:00:00 | |
| GOEST3-10 | 2026-08-31 11:24:39 | 50.95318 | 8.91292 | 313° | 38km/h | 22899m | -8.9m/s | 0°C | 0% | 0hPa | 4.5V | 00:00:00 | 00:00:00 | 00:00:00 | |
| DO2JMG | 2026-08-31 11:24:36 | 50.95295 | 8.91315 | 356° | 40km/h | 22908m | -9.1m/s | 0°C | 0% | 0hPa | 4.5V | 00:00:00 | 00:00:00 | 00:00:00 | |
| AA1-15 | 2026-08-31 11:24:35 | 50.95278 | 8.91307 | 40° | 31km/h | 22926m | -9.5m/s | -52.5°C | 0% | 0hPa | 4.6V | 00:00:00 | 00:00:00 | 00:00:00 | |
| DO3DL | 2026-08-31 11:24:34 | 50.95273 | 8.91298 | 68° | 24km/h | 22936m | -9.5m/s | -52.4°C | 0% | 0hPa | 4.6V | 00:00:00 | 00:00:00 | 00:00:00 | |
| DD1CC2-15 | 2026-08-31 11:24:31 | 50.95276 | 8.91286 | 163° | 16km/h | 22954m | -9.3m/s | -46.1°C | 0% | 0hPa | 4.6V | 00:00:00 | 00:00:00 | 00:00:00 | |
| DO3MHA-11 | 2026-08-31 11:24:30 | 50.95280 | 8.91282 | 244° | 38km/h | 22973m | -9.3m/s | 0°C | 0% | 0hPa | 4.6V | 00:00:00 | 00:00:00 | 00:00:00 | |
| GOEST3-10 | 2026-08-31 11:24:29 | 50.95284 | 8.91295 | 244° | 40km/h | 22992m | -9.4m/s | 0°C | 0% | 0hPa | 4.6V | 00:00:00 | 00:00:00 | 00:00:00 | |
| AA1-15 | 2026-08-31 11:24:24 | 50.95246 | 8.91353 | 13° | 46km/h | 23030m | -9m/s | -52.4°C | 0% | 0hPa | 4.6V | 00:00:00 | 00:00:00 | 00:00:00 | |
| GOEST3-10 | 2026-08-31 11:24:23 | 50.95245 | 8.91353 | 13° | 35km/h | 23049m | -9.3m/s | 0°C | 0% | 0hPa | 4.6V | 00:00:00 | 00:00:00 | 00:00:00 | |
| DO3MHA-11 | 2026-08-31 11:24:20 | 50.95227 | 8.91326 | 91° | 33km/h | 23068m | -9.6m/s | 0°C | 0% | 0hPa | 4.6V | 00:00:00 | 00:00:00 | 00:00:00 | |
| GOEST3-10 | 2026-08-31 11:24:18 | 50.95233 | 8.91319 | 196° | 31km/h | 23096m | -9.0m/s | 0°C | 0% | 0hPa | 4.6V | 00:00:00 | 00:00:00 | 00:00:00 | |
| DM7RM-13 | 2026-08-31 11:24:15 | 50.95239 | 8.91349 | 287° | 40km/h | 23105m | -9.5m/s | -45.8°C | 0% | 0hPa | 4.6V | 00:00:00 | 00:00:00 | 00:00:00 | |
| DO3DL | 2026-08-31 11:24:14 | 50.95235 | 8.91364 | 309° | 42km/h | 23115m | -9.3m/s | -52.1°C | 0% | 0hPa | 4.6V | 00:00:00 | 00:00:00 | 00:00:00 | |
| AA1-15 | 2026-08-31 11:24:13 | 50.95216 | 8.91380 | 353° | 42km/h | 23132m | -9m/s | -52.2°C | 0% | 0hPa | 4.6V | 00:00:00 | 00:00:00 | 00:00:00 | |
| GOEST3-10 | 2026-08-31 11:24:13 | 50.95227 | 8.91382 | 354° | 40km/h | 23142m | -8.4m/s | 0°C | 0% | 0hPa | 4.6V | 00:00:00 | 00:00:00 | 00:00:00 | |
| DO3MHA-11 | 2026-08-31 11:24:10 | 50.95198 | 8.91372 | 42° | 29km/h | 23160m | -9.6m/s | 0°C | 0% | 0hPa | 4.6V | 00:00:00 | 00:00:00 | 00:00:00 | |
| GOEST3-10 | 2026-08-31 11:24:08 | 50.95192 | 8.91348 | 97° | 27km/h | 23179m | -9.2m/s | 0°C | 0% | 0hPa | 4.6V | 00:00:00 | 00:00:00 | 00:00:00 | |
| OE3JTB-15 | 2026-08-31 11:24:06 | 50.95200 | 8.91332 | 162° | 24km/h | 23207m | -9.7m/s | 0°C | 0% | 0hPa | 4.6V | 00:00:00 | 00:00:00 | 00:00:00 | |
| SP3BTT-10 | 2026-08-31 11:24:05 | 50.95206 | 8.91331 | 196° | 18km/h | 23207m | -9.7m/s | 0°C | 0% | 0hPa | 4.6V | 00:00:00 | 00:00:00 | 00:00:00 | |
| GOEST3-10 | 2026-08-31 11:24:03 | 50.95214 | 8.91346 | 262° | 33km/h | 23227m | -9.7m/s | 0°C | 0% | 0hPa | 4.6V | 00:00:00 | 00:00:00 | 00:00:00 | |
| AA1-15 | 2026-08-31 11:24:02 | 50.95209 | 8.91368 | 320° | 33km/h | 23236m | -9.4m/s | -51.9°C | 0% | 0hPa | 4.6V | 00:00:00 | 00:00:00 | 00:00:00 | |
| DO3DL | 2026-08-31 11:24:01 | 50.95209 | 8.91368 | 321° | 33km/h | 23237m | -9.4m/s | -51.9°C | 0% | 0hPa | 4.6V | 00:00:00 | 00:00:00 | 00:00:00 | |
| DO3MHA-11 | 2026-08-31 11:24:00 | 50.95201 | 8.91379 | 14° | 33km/h | 23256m | -9.5m/s | 0°C | 0% | 0hPa | 4.6V | 00:00:00 | 00:00:00 | 00:00:00 | |
| GOEST3-10 | 2026-08-31 11:23:58 | 50.95184 | 8.91368 | 66° | 35km/h | 23275m | -9.6m/s | 0°C | 0% | 0hPa | 4.6V | 00:00:00 | 00:00:00 | 00:00:00 | |
| BIOWL1-15 | 2026-08-31 11:23:55 | 50.95180 | 8.91330 | 122° | 31km/h | 23294m | -9.9m/s | -51.9°C | 0% | 0hPa | 4.6V | 00:00:00 | 00:00:00 | 00:00:00 | |
| DO3DL | 2026-08-31 11:23:55 | 50.95179 | 8.91330 | 123° | 31km/h | 23294m | -9.9m/s | -51.9°C | 0% | 0hPa | 4.6V | 00:00:00 | 00:00:00 | 00:00:00 | |
| DM7RM-13 | 2026-08-31 11:23:54 | 50.95185 | 8.91322 | 152° | 31km/h | 23304m | -9.6m/s | -45.5°C | 0% | 0hPa | 4.6V | 00:00:00 | 00:00:00 | 00:00:00 | |
| GOEST3-10 | 2026-08-31 11:23:53 | 50.95192 | 8.91319 | 182° | 31km/h | 23323m | -9.8m/s | 0°C | 0% | 0hPa | 4.6V | 00:00:00 | 00:00:00 | 00:00:00 | |
| AA1-15 | 2026-08-31 11:23:52 | 50.95205 | 8.91331 | 240° | 31km/h | 23333m | -10.3m/s | -51.9°C | 0% | 0hPa | 4.6V | 00:00:00 | 00:00:00 | 00:00:00 | |
| DO3MHA-11 | 2026-08-31 11:23:50 | 50.95206 | 8.91342 | 270° | 29km/h | 23354m | -9.8m/s | 0°C | 0% | 0hPa | 4.6V | 00:00:00 | 00:00:00 | 00:00:00 | |
| DD1CC2-15 | 2026-08-31 11:23:49 | 50.95205 | 8.91353 | 300° | 31km/h | 23354m | -9.9m/s | -45.5°C | 0% | 0hPa | 4.6V | 00:00:00 | 00:00:00 | 00:00:00 | |
| DO3DL | 2026-08-31 11:23:48 | 50.95199 | 8.91362 | 330° | 31km/h | 23364m | -9.8m/s | -51.9°C | 0% | 0hPa | 4.6V | 00:00:00 | 00:00:00 | 00:00:00 | |
| GOEST3-10 | 2026-08-31 11:23:44 | 50.95176 | 8.91345 | 81° | 26km/h | 23414m | -10.0m/s | 0°C | 0% | 0hPa | 4.6V | 00:00:00 | 00:00:00 | 00:00:00 | |
| DO3DL | 2026-08-31 11:23:42 | 50.95180 | 8.91327 | 145° | 24km/h | 23424m | -9.6m/s | -51.8°C | 0% | 0hPa | 4.6V | 00:00:00 | 00:00:00 | 00:00:00 | |
| AA1-15 | 2026-08-31 11:23:41 | 50.95192 | 8.91326 | 209° | 26km/h | 23442m | -9.4m/s | -51.7°C | 0% | 0hPa | 4.6V | 00:00:00 | 00:00:00 | 00:00:00 | |
| DO3MHA-11 | 2026-08-31 11:23:40 | 50.95192 | 8.91326 | 209° | 27km/h | 23453m | -10.1m/s | 0°C | 0% | 0hPa | 4.6V | 00:00:00 | 00:00:00 | 00:00:00 | |
| GOEST3-10 | 2026-08-31 11:23:39 | 50.95197 | 8.91333 | 236° | 26km/h | 23509m | -9.0m/s | 0°C | 0% | 0hPa | 4.6V | 00:00:00 | 00:00:00 | 00:00:00 | |
| DO3DL | 2026-08-31 11:23:37 | 50.95195 | 8.91359 | 324° | 24km/h | 23483m | -9.2m/s | -51.7°C | 0% | 0hPa | 4.6V | 00:00:00 | 00:00:00 | 00:00:00 | |
| BIOWL1-15 | 2026-08-31 11:23:34 | 50.95150 | 8.91332 | 337° | 5km/h | 23559m | -8.9m/s | -51.5°C | 0% | 0hPa | 4.6V | 00:00:00 | 00:00:00 | 00:00:00 | |
| AA1-15 | 2026-08-31 11:23:34 | 50.95142 | 8.91350 | 23° | 18km/h | 23627m | -9.3m/s | -51.4°C | 0% | 0hPa | 4.6V | 00:00:00 | 00:00:00 | 00:00:00 | |
| GOEST3-10 | 2026-08-31 11:23:30 | 50.95148 | 8.91349 | 272° | 15km/h | 23607m | -10.2m/s | 0°C | 0% | 0hPa | 4.6V | 00:00:00 | 00:00:00 | 00:00:00 | |
| DL3OBA | 2026-08-31 11:23:23 | 50.95142 | 8.91350 | 24° | 18km/h | 23628m | -9.3m/s | 0°C | 0% | 0hPa | 4.6V | 00:00:00 | 00:00:00 | 00:00:00 | |
| DO3MHA-11 | 2026-08-31 11:23:20 | 50.95137 | 8.91346 | 28° | 20km/h | 23649m | -12.3m/s | 0°C | 0% | 0hPa | 4.6V | 00:00:00 | 00:00:00 | 00:00:00 | |
| GOEST3-10 | 2026-08-31 11:23:19 | 50.95131 | 8.91334 | 350° | 20km/h | 23663m | -14.5m/s | 0°C | 0% | 0hPa | 4.6V | 00:00:00 | 00:00:00 | 00:00:00 | |
| AA1-15 | 2026-08-31 11:23:17 | 50.95116 | 8.91339 | 348° | 18km/h | 23699m | -13.1m/s | -51.4°C | 0% | 0hPa | 4.6V | 00:00:00 | 00:00:00 | 00:00:00 | |
| DO3DL | 2026-08-31 11:23:16 | 50.95116 | 8.91338 | 349° | 18km/h | 23700m | -13.1m/s | -51.4°C | 0% | 0hPa | 4.6V | 00:00:00 | 00:00:00 | 00:00:00 | |
| GOEST3-10 | 2026-08-31 11:23:14 | 50.95107 | 8.91342 | 347° | 16km/h | 23702m | 3.9m/s | 0°C | 0% | 0hPa | 4.6V | 00:00:00 | 00:00:00 | 00:00:00 | |
| DM7RM-13 | 2026-08-31 11:23:13 | 50.95103 | 8.91343 | 358° | 18km/h | 23702m | 3.9m/s | -44.9°C | 0% | 0hPa | 4.6V | 00:00:00 | 00:00:00 | 00:00:00 | |
| DO3MHA-11 | 2026-08-31 11:23:10 | 50.95090 | 8.91340 | 14° | 15km/h | 23684m | 4.0m/s | 0°C | 0% | 0hPa | 4.6V | 00:00:00 | 00:00:00 | 00:00:00 | |
| GOEST3-10 | 2026-08-31 11:23:09 | 50.95087 | 8.91339 | 10° | 15km/h | 23681m | 3.5m/s | 0°C | 0% | 0hPa | 4.6V | 00:00:00 | 00:00:00 | 00:00:00 | |
| AA1-15 | 2026-08-31 11:23:07 | 50.95076 | 8.91336 | 7° | 18km/h | 23671m | 3.8m/s | -51.4°C | 0% | 0hPa | 4.6V | 00:00:00 | 00:00:00 | 00:00:00 | |
| DF1GD-15 | 2026-08-31 11:23:06 | 50.95076 | 8.91336 | 8° | 18km/h | 23672m | 3.8m/s | -51.4°C | 0% | 0hPa | 4.6V | 00:00:00 | 00:00:00 | 00:00:00 | |
| GOEST3-10 | 2026-08-31 11:23:04 | 50.95068 | 8.91335 | 347° | 13km/h | 23659m | 3.7m/s | 0°C | 0% | 0hPa | 4.6V | 00:00:00 | 00:00:00 | 00:00:00 | |
| DO3DL | 2026-08-31 11:23:01 | 50.95058 | 8.91339 | 14° | 11km/h | 23651m | 4.9m/s | -51.3°C | 0% | 0hPa | 4.6V | 00:00:00 | 00:00:00 | 00:00:00 | |
| DO3MHA-11 | 2026-08-31 11:23:00 | 50.95056 | 8.91337 | 21° | 15km/h | 23643m | 4.0m/s | 0°C | 0% | 0hPa | 4.6V | 00:00:00 | 00:00:00 | 00:00:00 | |
| GOEST3-10 | 2026-08-31 11:22:59 | 50.95053 | 8.91336 | 21° | 11km/h | 23638m | 4.4m/s | 0°C | 0% | 0hPa | 4.6V | 00:00:00 | 00:00:00 | 00:00:00 | |
| AA1-15 | 2026-08-31 11:22:55 | 50.95043 | 8.91333 | 3° | 15km/h | 23626m | 4.7m/s | -51.2°C | 0% | 0hPa | 4.6V | 00:00:00 | 00:00:00 | 00:00:00 | |
| SP3BTT-10 | 2026-08-31 11:22:54 | 50.95038 | 8.91333 | 2° | 11km/h | 23619m | 4.1m/s | 0°C | 0% | 0hPa | 4.6V | 00:00:00 | 00:00:00 | 00:00:00 | |
| OE5DRO-10 | 2026-08-31 11:22:52 | 50.95030 | 8.91334 | 346° | 15km/h | 23585m | 3.1m/s | 0°C | 0% | 0hPa | 4.6V | 00:00:00 | 00:00:00 | 00:00:00 | |
| GOEST3-10 | 2026-08-31 11:22:49 | 50.95018 | 8.91340 | 359° | 15km/h | 23597m | 3.4m/s | 0°C | 0% | 0hPa | 4.6V | 00:00:00 | 00:00:00 | 00:00:00 | |
| DD1CC2-15 | 2026-08-31 11:22:47 | 50.95010 | 8.91340 | 357° | 15km/h | 23593m | 5.0m/s | -45.0°C | 0% | 0hPa | 4.6V | 00:00:00 | 00:00:00 | 00:00:00 | |
| DO3DL | 2026-08-31 11:22:46 | 50.95006 | 8.91340 | 352° | 11km/h | 23588m | 4.2m/s | -51.4°C | 0% | 0hPa | 4.6V | 00:00:00 | 00:00:00 | 00:00:00 | |
| AA1-15 | 2026-08-31 11:22:45 | 50.95001 | 8.91342 | 355° | 13km/h | 23581m | 4.7m/s | -51.4°C | 0% | 0hPa | 4.6V | 00:00:00 | 00:00:00 | 00:00:00 | |
| GOEST3-10 | 2026-08-31 11:22:44 | 50.95001 | 8.91342 | 356° | 16km/h | 23576m | 4.1m/s | 0°C | 0% | 0hPa | 4.6V | 00:00:00 | 00:00:00 | 00:00:00 | |
| DO3MHA-11 | 2026-08-31 11:22:40 | 50.94985 | 8.91344 | 321° | 15km/h | 23560m | 3.9m/s | 0°C | 0% | 0hPa | 4.6V | 00:00:00 | 00:00:00 | 00:00:00 | |
| GOEST3-10 | 2026-08-31 11:22:39 | 50.94982 | 8.91348 | 321° | 16km/h | 23556m | 4.0m/s | 0°C | 0% | 0hPa | 4.6V | 00:00:00 | 00:00:00 | 00:00:00 | |
| BIOWL1-15 | 2026-08-31 11:22:38 | 50.94979 | 8.91352 | 323° | 15km/h | 23556m | 4m/s | -51.4°C | 0% | 0hPa | 4.6V | 00:00:00 | 00:00:00 | 00:00:00 | |
| OE3JTB-15 | 2026-08-31 11:22:38 | 50.94979 | 8.91353 | 337° | 9km/h | 23552m | 4.5m/s | 0°C | 0% | 0hPa | 4.6V | 00:00:00 | 00:00:00 | 00:00:00 | |
| GOEST3-10 | 2026-08-31 11:22:34 | 50.94965 | 8.91364 | 335° | 11km/h | 23535m | 3.7m/s | 0°C | 0% | 0hPa | 4.6V | 00:00:00 | 00:00:00 | 00:00:00 | |
| AA1-15 | 2026-08-31 11:22:33 | 50.94959 | 8.91369 | 352° | 11km/h | 23531m | 4.4m/s | -51.3°C | 0% | 0hPa | 4.6V | 00:00:00 | 00:00:00 | 00:00:00 | |
| OE5DRO-10 | 2026-08-31 11:22:33 | 50.94962 | 8.91367 | 335° | 7km/h | 23531m | 4.4m/s | 0°C | 0% | 0hPa | 4.6V | 00:00:00 | 00:00:00 | 00:00:00 | |
| DM7RM-13 | 2026-08-31 11:22:32 | 50.94959 | 8.91369 | 353° | 11km/h | 23531m | 4.4m/s | -44.9°C | 0% | 0hPa | 4.6V | 00:00:00 | 00:00:00 | 00:00:00 | |
| DO3MHA-11 | 2026-08-31 11:22:30 | 50.94954 | 8.91369 | 6° | 7km/h | 23518m | 5.0m/s | 0°C | 0% | 0hPa | 4.6V | 00:00:00 | 00:00:00 | 00:00:00 | |
| BIOWL1-15 | 2026-08-31 11:22:27 | 50.94949 | 8.91369 | 354° | 5km/h | 23510m | 3.3m/s | -51.4°C | 0% | 0hPa | 4.6V | 00:00:00 | 00:00:00 | 00:00:00 | |
| DO3DL | 2026-08-31 11:22:27 | 50.94949 | 8.91369 | 355° | 5km/h | 23510m | 3.3m/s | -51.4°C | 0% | 0hPa | 4.6V | 00:00:00 | 00:00:00 | 00:00:00 | |
| DD1CC2-15 | 2026-08-31 11:22:26 | 50.94947 | 8.91369 | 360° | 5km/h | 23506m | 4.7m/s | -45.0°C | 0% | 0hPa | 4.6V | 00:00:00 | 00:00:00 | 00:00:00 | |
| GOEST3-10 | 2026-08-31 11:22:24 | 50.94943 | 8.91369 | 2° | 7km/h | 23493m | 4.7m/s | 0°C | 0% | 0hPa | 4.6V | 00:00:00 | 00:00:00 | 00:00:00 | |
| AA1-15 | 2026-08-31 11:22:22 | 50.94937 | 8.91370 | 352° | 5km/h | 23484m | 3.6m/s | -51.4°C | 0% | 0hPa | 4.6V | 00:00:00 | 00:00:00 | 00:00:00 | |
| DO3DL | 2026-08-31 11:22:21 | 50.94937 | 8.91370 | 353° | 5km/h | 23485m | 3.6m/s | -51.4°C | 0% | 0hPa | 4.6V | 00:00:00 | 00:00:00 | 00:00:00 | |
| DO3MHA-11 | 2026-08-31 11:22:20 | 50.94935 | 8.91371 | 13° | 5km/h | 23476m | 3.9m/s | 0°C | 0% | 0hPa | 4.6V | 00:00:00 | 00:00:00 | 00:00:00 | |
| GOEST3-10 | 2026-08-31 11:22:19 | 50.94934 | 8.91370 | 30° | 4km/h | 23472m | 3.3m/s | 0°C | 0% | 0hPa | 4.6V | 00:00:00 | 00:00:00 | 00:00:00 | |
| DJTTGO | 2026-08-31 11:22:17 | 50.94931 | 8.91368 | 16° | 4km/h | 23468m | 4.9m/s | -51.4°C | 0% | 0hPa | 4.6V | 00:00:00 | 00:00:00 | 00:00:00 | |
| GOEST3-10 | 2026-08-31 11:22:14 | 50.94930 | 8.91369 | 357° | 5km/h | 23451m | 4.0m/s | 0°C | 0% | 0hPa | 4.6V | 00:00:00 | 00:00:00 | 00:00:00 | |
| AA1-15 | 2026-08-31 11:22:12 | 50.94927 | 8.91369 | 337° | 7km/h | 23443m | 5m/s | -51.4°C | 0% | 0hPa | 4.6V | 00:00:00 | 00:00:00 | 00:00:00 | |
| DM7RM-13 | 2026-08-31 11:22:11 | 50.94927 | 8.91369 | 338° | 7km/h | 23443m | 5.1m/s | -45.0°C | 0% | 0hPa | 4.6V | 00:00:00 | 00:00:00 | 00:00:00 | |
| DO3MHA-11 | 2026-08-31 11:22:10 | 50.94925 | 8.91371 | 325° | 4km/h | 23435m | 3.8m/s | 0°C | 0% | 0hPa | 4.6V | 00:00:00 | 00:00:00 | 00:00:00 | |
| GOEST3-10 | 2026-08-31 11:22:09 | 50.94924 | 8.91372 | 325° | 4km/h | 23430m | 4.9m/s | 0°C | 0% | 0hPa | 4.6V | 00:00:00 | 00:00:00 | 00:00:00 | |
| OE3JTB-15 | 2026-08-31 11:22:08 | 50.94923 | 8.91379 | 179° | 4km/h | 23426m | 4.0m/s | 0°C | 0% | 0hPa | 4.6V | 00:00:00 | 00:00:00 | 00:00:00 | |
| SP3BTT-10 | 2026-08-31 11:22:07 | 50.94922 | 8.91374 | 41° | 4km/h | 23409m | 3.8m/s | 0°C | 0% | 0hPa | 4.6V | 00:00:00 | 00:00:00 | 00:00:00 | |
| DD1CC2-15 | 2026-08-31 11:22:06 | 50.94921 | 8.91373 | 0° | 0km/h | 23422m | 4.1m/s | -45.0°C | 0% | 0hPa | 4.6V | 00:00:00 | 00:00:00 | 00:00:00 | |
| DO3DL | 2026-08-31 11:22:05 | 50.94922 | 8.91373 | 198° | 4km/h | 23417m | 4.7m/s | -51.4°C | 0% | 0hPa | 4.6V | 00:00:00 | 00:00:00 | 00:00:00 | |
| GOEST3-10 | 2026-08-31 11:22:04 | 50.94923 | 8.91375 | 179° | 4km/h | 23409m | 3.8m/s | 0°C | 0% | 0hPa | 4.6V | 00:00:00 | 00:00:00 | 00:00:00 | |
| AA1-15 | 2026-08-31 11:22:02 | 50.94925 | 8.91374 | 57° | 4km/h | 23400m | 4m/s | -51.5°C | 0% | 0hPa | 4.6V | 00:00:00 | 00:00:00 | 00:00:00 | |
| DO3MHA-11 | 2026-08-31 11:22:00 | 50.94924 | 8.91372 | 49° | 2km/h | 23392m | 4.6m/s | 0°C | 0% | 0hPa | 4.6V | 00:00:00 | 00:00:00 | 00:00:00 | |
| GOEST3-10 | 2026-08-31 11:21:54 | 50.94923 | 8.91369 | 81° | 2km/h | 23367m | 4.7m/s | 0°C | 0% | 0hPa | 4.6V | 00:00:00 | 00:00:00 | 00:00:00 | |
| DM7RM-13 | 2026-08-31 11:21:51 | 50.94923 | 8.91368 | 0° | 0km/h | 23359m | 4.2m/s | -45.3°C | 0% | 0hPa | 4.6V | 00:00:00 | 00:00:00 | 00:00:00 | |
| AA1-15 | 2026-08-31 11:21:50 | 50.94922 | 8.91368 | 49° | 2km/h | 23353m | 5.2m/s | -51.7°C | 0% | 0hPa | 4.6V | 00:00:00 | 00:00:00 | 00:00:00 | |
| DO3MHA-11 | 2026-08-31 11:21:50 | 50.94922 | 8.91368 | 49° | 4km/h | 23350m | 3.9m/s | 0°C | 0% | 0hPa | 4.6V | 00:00:00 | 00:00:00 | 00:00:00 | |
| GOEST3-10 | 2026-08-31 11:21:49 | 50.94922 | 8.91366 | 55° | 4km/h | 23346m | 3.6m/s | 0°C | 0% | 0hPa | 4.6V | 00:00:00 | 00:00:00 | 00:00:00 | |
| DD1CC2-15 | 2026-08-31 11:21:45 | 50.94921 | 8.91366 | 176° | 4km/h | 23332m | 4.1m/s | -45.4°C | 0% | 0hPa | 4.6V | 00:00:00 | 00:00:00 | 00:00:00 | |
| GOEST3-10 | 2026-08-31 11:21:44 | 50.94922 | 8.91365 | 150° | 2km/h | 23315m | 3.9m/s | 0°C | 0% | 0hPa | 4.6V | 00:00:00 | 00:00:00 | 00:00:00 | |
| DF1GD-15 | 2026-08-31 11:21:43 | 50.94924 | 8.91364 | 0° | 0km/h | 23315m | 3.9m/s | -51.6°C | 0% | 0hPa | 4.6V | 00:00:00 | 00:00:00 | 00:00:00 | |
| AA1-15 | 2026-08-31 11:21:40 | 50.94924 | 8.91362 | 40° | 5km/h | 23306m | 4.7m/s | -51.6°C | 0% | 0hPa | 4.6V | 00:00:00 | 00:00:00 | 00:00:00 | |
| DO3MHA-11 | 2026-08-31 11:21:39 | 50.94924 | 8.91362 | 40° | 5km/h | 23302m | 4.0m/s | 0°C | 0% | 0hPa | 4.6V | 00:00:00 | 00:00:00 | 00:00:00 | |
| OE3JTB-15 | 2026-08-31 11:21:38 | 50.94922 | 8.91359 | 16° | 7km/h | 23297m | 5.2m/s | 0°C | 0% | 0hPa | 4.6V | 00:00:00 | 00:00:00 | 00:00:00 | |
| BIOWL1-15 | 2026-08-31 11:21:37 | 50.94918 | 8.91359 | 18° | 5km/h | 23288m | 3.8m/s | -51.6°C | 0% | 0hPa | 4.6V | 00:00:00 | 00:00:00 | 00:00:00 | |
| GOEST3-10 | 2026-08-31 11:21:34 | 50.94916 | 8.91358 | 49° | 4km/h | 23279m | 3.9m/s | 0°C | 0% | 0hPa | 4.6V | 00:00:00 | 00:00:00 | 00:00:00 | |
| DO3DL | 2026-08-31 11:21:32 | 50.94914 | 8.91355 | 70° | 5km/h | 23275m | 4.4m/s | -51.6°C | 0% | 0hPa | 4.6V | 00:00:00 | 00:00:00 | 00:00:00 | |
| DM7RM-13 | 2026-08-31 11:21:30 | 50.94914 | 8.91353 | 0° | 0km/h | 23267m | 3.6m/s | -45.3°C | 0% | 0hPa | 4.6V | 00:00:00 | 00:00:00 | 00:00:00 | |
| AA1-15 | 2026-08-31 11:21:29 | 50.94914 | 8.91351 | 44° | 5km/h | 23257m | 4.3m/s | -51.7°C | 0% | 0hPa | 4.6V | 00:00:00 | 00:00:00 | 00:00:00 | |
| DO3MHA-11 | 2026-08-31 11:21:29 | 50.94914 | 8.91353 | 44° | 7km/h | 23257m | 4.3m/s | 0°C | 0% | 0hPa | 4.6V | 00:00:00 | 00:00:00 | 00:00:00 | |
| BIOWL1-15 | 2026-08-31 11:21:27 | 50.94913 | 8.91348 | 33° | 7km/h | 23253m | 3.5m/s | -51.6°C | 0% | 0hPa | 4.6V | 00:00:00 | 00:00:00 | 00:00:00 | |
| SP3BTT-10 | 2026-08-31 11:21:25 | 50.94909 | 8.91348 | 14° | 9km/h | 23240m | 3.8m/s | 0°C | 0% | 0hPa | 4.6V | 00:00:00 | 00:00:00 | 00:00:00 | |
| GOEST3-10 | 2026-08-31 11:21:24 | 50.94907 | 8.91346 | 3° | 7km/h | 23236m | 5.0m/s | 0°C | 0% | 0hPa | 4.6V | 00:00:00 | 00:00:00 | 00:00:00 | |
| DF1GD-15 | 2026-08-31 11:21:20 | 50.94901 | 8.91344 | 346° | 5km/h | 23222m | 4.9m/s | -51.8°C | 0% | 0hPa | 4.6V | 00:00:00 | 00:00:00 | 00:00:00 | |
| GOEST3-10 | 2026-08-31 11:21:19 | 50.94899 | 8.91345 | 343° | 5km/h | 23214m | 4.7m/s | 0°C | 0% | 0hPa | 4.6V | 00:00:00 | 00:00:00 | 00:00:00 | |
| AA1-15 | 2026-08-31 11:21:18 | 50.94898 | 8.91346 | 8° | 5km/h | 23214m | 4.8m/s | -51.8°C | 0% | 0hPa | 4.6V | 00:00:00 | 00:00:00 | 00:00:00 | |
| BIOWL1-15 | 2026-08-31 11:21:17 | 50.94891 | 8.91344 | 337° | 5km/h | 23193m | 3.9m/s | 0°C | 0% | 0hPa | 4.6V | 00:00:00 | 00:00:00 | 00:00:00 | |
| GOEST3-10 | 2026-08-31 11:21:14 | 50.94892 | 8.91343 | 338° | 5km/h | 23193m | 3.9m/s | 0°C | 0% | 0hPa | 4.6V | 00:00:00 | 00:00:00 | 00:00:00 | |
| DO3DL | 2026-08-31 11:21:11 | 50.94888 | 8.91345 | 360° | 5km/h | 23184m | 4.3m/s | -51.9°C | 0% | 0hPa | 4.6V | 00:00:00 | 00:00:00 | 00:00:00 | |
| DM7RM-13 | 2026-08-31 11:21:10 | 50.94884 | 8.91345 | 346° | 11km/h | 23176m | 4.9m/s | -45.5°C | 0% | 0hPa | 4.6V | 00:00:00 | 00:00:00 | 00:00:00 | |
| DO3MHA-11 | 2026-08-31 11:21:09 | 50.94884 | 8.91345 | 346° | 13km/h | 23172m | 4.5m/s | 0°C | 0% | 0hPa | 4.6V | 00:00:00 | 00:00:00 | 00:00:00 | |
| AA1-15 | 2026-08-31 11:21:08 | 50.94878 | 8.91348 | 341° | 15km/h | 23167m | 3.7m/s | -51.9°C | 0% | 0hPa | 4.6V | 00:00:00 | 00:00:00 | 00:00:00 | |
| GOEST3-10 | 2026-08-31 11:21:04 | 50.94867 | 8.91352 | 345° | 11km/h | 23146m | 3.7m/s | 0°C | 0% | 0hPa | 4.6V | 00:00:00 | 00:00:00 | 00:00:00 | |
| DO3DL | 2026-08-31 11:21:02 | 50.94861 | 8.91356 | 334° | 11km/h | 23146m | 3.8m/s | -52.0°C | 0% | 0hPa | 4.6V | 00:00:00 | 00:00:00 | 00:00:00 | |
| DF5WG-10 | 2026-08-31 11:21:00 | 50.94856 | 8.91359 | 335° | 13km/h | 23132m | 4.0m/s | 0°C | 0% | 0hPa | 4.6V | 00:00:00 | 00:00:00 | 00:00:00 | |
| GOEST3-10 | 2026-08-31 11:20:59 | 50.94855 | 8.91358 | 316° | 13km/h | 23128m | 4.8m/s | 0°C | 0% | 0hPa | 4.6V | 00:00:00 | 00:00:00 | 00:00:00 | |
| AA1-15 | 2026-08-31 11:20:57 | 50.94849 | 8.91370 | 320° | 15km/h | 23119m | 4.8m/s | -51.9°C | 0% | 0hPa | 4.6V | 00:00:00 | 00:00:00 | 00:00:00 | |
| DJTTGO | 2026-08-31 11:20:56 | 50.94849 | 8.91369 | 320° | 15km/h | 23119m | 4.8m/s | -51.9°C | 0% | 0hPa | 4.6V | 00:00:00 | 00:00:00 | 00:00:00 | |
| GOEST3-10 | 2026-08-31 11:20:54 | 50.94843 | 8.91376 | 333° | 16km/h | 23107m | 4.4m/s | 0°C | 0% | 0hPa | 4.6V | 00:00:00 | 00:00:00 | 00:00:00 | |
| DF1GD-15 | 2026-08-31 11:20:52 | 50.94836 | 8.91382 | 324° | 16km/h | 23103m | 4.3m/s | -52.0°C | 0% | 0hPa | 4.6V | 00:00:00 | 00:00:00 | 00:00:00 | |
| GOEST3-10 | 2026-08-31 11:20:49 | 50.94827 | 8.91392 | 336° | 13km/h | 23081m | 5.0m/s | 0°C | 0% | 0hPa | 4.6V | 00:00:00 | 00:00:00 | 00:00:00 | |
| DO3DL | 2026-08-31 11:20:47 | 50.94822 | 8.91396 | 333° | 11km/h | 23081m | 5.0m/s | -52.0°C | 0% | 0hPa | 4.6V | 00:00:00 | 00:00:00 | 00:00:00 | |
| AA1-15 | 2026-08-31 11:20:46 | 50.94816 | 8.91401 | 334° | 15km/h | 23072m | 4.6m/s | -52°C | 0% | 0hPa | 4.6V | 00:00:00 | 00:00:00 | 00:00:00 | |
| GOEST3-10 | 2026-08-31 11:20:44 | 50.94813 | 8.91403 | 339° | 18km/h | 23064m | 3.8m/s | 0°C | 0% | 0hPa | 4.6V | 00:00:00 | 00:00:00 | 00:00:00 | |
| DO3DL | 2026-08-31 11:20:41 | 50.94801 | 8.91412 | 329° | 20km/h | 23051m | 3.8m/s | -52.0°C | 0% | 0hPa | 4.6V | 00:00:00 | 00:00:00 | 00:00:00 | |
| AA1-15 | 2026-08-31 11:20:36 | 50.94780 | 8.91430 | 320° | 15km/h | 23029m | 3.8m/s | -51.9°C | 0% | 0hPa | 4.6V | 00:00:00 | 00:00:00 | 00:00:00 | |
| BIOWL1-15 | 2026-08-31 11:20:34 | 50.94766 | 8.91442 | 336° | 18km/h | 23012m | 3.7m/s | -52°C | 0% | 0hPa | 4.6V | 00:00:00 | 00:00:00 | 00:00:00 | |
| GOEST3-10 | 2026-08-31 11:20:34 | 50.94777 | 8.91434 | 327° | 16km/h | 23021m | 5.0m/s | 0°C | 0% | 0hPa | 4.6V | 00:00:00 | 00:00:00 | 00:00:00 | |
| DO3DL | 2026-08-31 11:20:29 | 50.94754 | 8.91455 | 320° | 20km/h | 23000m | 4.0m/s | -51.9°C | 0% | 0hPa | 4.6V | 00:00:00 | 00:00:00 | 00:00:00 | |
| AA1-15 | 2026-08-31 11:20:25 | 50.94741 | 8.91471 | 323° | 16km/h | 22981m | 4.2m/s | -51.8°C | 0% | 0hPa | 4.6V | 00:00:00 | 00:00:00 | 00:00:00 | |
| GOEST3-10 | 2026-08-31 11:20:23 | 50.94738 | 8.91474 | 327° | 15km/h | 22974m | 5.0m/s | 0°C | 0% | 0hPa | 4.6V | 00:00:00 | 00:00:00 | 00:00:00 | |
| DO3DL | 2026-08-31 11:20:21 | 50.94731 | 8.91480 | 334° | 15km/h | 22969m | 3.9m/s | -51.9°C | 0% | 0hPa | 4.6V | 00:00:00 | 00:00:00 | 00:00:00 | |
| DO3MHA-11 | 2026-08-31 11:20:19 | 50.94725 | 8.91486 | 314° | 18km/h | 22957m | 3.9m/s | 0°C | 0% | 0hPa | 4.6V | 00:00:00 | 00:00:00 | 00:00:00 | |
| GOEST3-10 | 2026-08-31 11:20:18 | 50.94722 | 8.91494 | 313° | 18km/h | 22949m | 4.4m/s | 0°C | 0% | 0hPa | 4.6V | 00:00:00 | 00:00:00 | 00:00:00 | |
| DO2KSM | 2026-08-31 11:20:15 | 50.94714 | 8.91508 | 321° | 16km/h | 22945m | 3.4m/s | -52.0°C | 0% | 0hPa | 4.6V | 00:00:00 | 00:00:00 | 00:00:00 | |
| AA1-15 | 2026-08-31 11:20:14 | 50.94707 | 8.91517 | 318° | 16km/h | 22937m | 4.5m/s | -52°C | 0% | 0hPa | 4.6V | 00:00:00 | 00:00:00 | 00:00:00 | |
| GOEST3-10 | 2026-08-31 11:20:12 | 50.94704 | 8.91522 | 327° | 18km/h | 22929m | 3.6m/s | 0°C | 0% | 0hPa | 4.6V | 00:00:00 | 00:00:00 | 00:00:00 | |
| OE3JTB-15 | 2026-08-31 11:20:10 | 50.94697 | 8.91530 | 337° | 11km/h | 22921m | 3.7m/s | 0°C | 0% | 0hPa | 4.6V | 00:00:00 | 00:00:00 | 00:00:00 | |
| BIOWL1-15 | 2026-08-31 11:20:09 | 50.94685 | 8.91539 | 316° | 15km/h | 22912m | 4.9m/s | -52°C | 0% | 0hPa | 4.6V | 00:00:00 | 00:00:00 | 00:00:00 | |
| DO3DL | 2026-08-31 11:20:09 | 50.94689 | 8.91535 | 329° | 16km/h | 22917m | 4.1m/s | -52.0°C | 0% | 0hPa | 4.6V | 00:00:00 | 00:00:00 | 00:00:00 | |
| DM7RM-13 | 2026-08-31 11:20:08 | 50.94689 | 8.91535 | 329° | 16km/h | 22917m | 4.1m/s | -45.7°C | 0% | 0hPa | 4.6V | 00:00:00 | 00:00:00 | 00:00:00 | |
| GOEST3-10 | 2026-08-31 11:20:07 | 50.94685 | 8.91538 | 316° | 13km/h | 22900m | 4.8m/s | 0°C | 0% | 0hPa | 4.6V | 00:00:00 | 00:00:00 | 00:00:00 | |
| DF1GD-15 | 2026-08-31 11:20:05 | 50.94680 | 8.91552 | 310° | 11km/h | 22900m | 4.8m/s | -52.0°C | 0% | 0hPa | 4.6V | 00:00:00 | 00:00:00 | 00:00:00 | |
| DD1CC2-15 | 2026-08-31 11:20:03 | 50.94678 | 8.91556 | 320° | 11km/h | 22896m | 4.1m/s | -45.6°C | 0% | 0hPa | 4.6V | 00:00:00 | 00:00:00 | 00:00:00 | |
| AA1-15 | 2026-08-31 11:20:02 | 50.94674 | 8.91561 | 316° | 11km/h | 22887m | 4.6m/s | -52°C | 0% | 0hPa | 4.6V | 00:00:00 | 00:00:00 | 00:00:00 | |
| GOEST3-10 | 2026-08-31 11:20:02 | 50.94676 | 8.91558 | 319° | 11km/h | 22883m | 3.9m/s | 0°C | 0% | 0hPa | 4.6V | 00:00:00 | 00:00:00 | 00:00:00 | |
| DO3MHA-11 | 2026-08-31 11:19:59 | 50.94669 | 8.91568 | 330° | 9km/h | 22875m | 3.7m/s | 0°C | 0% | 0hPa | 4.6V | 00:00:00 | 00:00:00 | 00:00:00 | |
| DO3DL | 2026-08-31 11:19:57 | 50.94662 | 8.91576 | 312° | 11km/h | 22866m | 4.4m/s | -52.0°C | 0% | 0hPa | 4.6V | 00:00:00 | 00:00:00 | 00:00:00 | |
| BIOWL1-15 | 2026-08-31 11:19:54 | 50.94650 | 8.91586 | 337° | 5km/h | 22830m | 5m/s | -51.8°C | 0% | 0hPa | 4.6V | 00:00:00 | 00:00:00 | 00:00:00 | |
| GOEST3-10 | 2026-08-31 11:19:52 | 50.94656 | 8.91583 | 11° | 5km/h | 22837m | 3.8m/s | 0°C | 0% | 0hPa | 4.6V | 00:00:00 | 00:00:00 | 00:00:00 | |
| AA1-15 | 2026-08-31 11:19:51 | 50.94653 | 8.91583 | 352° | 5km/h | 22842m | 5.1m/s | -51.9°C | 0% | 0hPa | 4.6V | 00:00:00 | 00:00:00 | 00:00:00 | |
| DO2JMG | 2026-08-31 11:19:50 | 50.94652 | 8.91583 | 318° | 4km/h | 22837m | 3.9m/s | -51.9°C | 0% | 0hPa | 4.6V | 00:00:00 | 00:00:00 | 00:00:00 | |
| DO3MHA-11 | 2026-08-31 11:19:49 | 50.94651 | 8.91583 | 318° | 5km/h | 22834m | 3.1m/s | 0°C | 0% | 0hPa | 4.6V | 00:00:00 | 00:00:00 | 00:00:00 | |
| DM7RM-13 | 2026-08-31 11:19:48 | 50.94651 | 8.91584 | 320° | 5km/h | 22834m | 3.1m/s | -45.5°C | 0% | 0hPa | 4.6V | 00:00:00 | 00:00:00 | 00:00:00 | |
| GOEST3-10 | 2026-08-31 11:19:47 | 50.94650 | 8.91586 | 337° | 7km/h | 22826m | 4.0m/s | 0°C | 0% | 0hPa | 4.6V | 00:00:00 | 00:00:00 | 00:00:00 | |
| DO3DL | 2026-08-31 11:19:43 | 50.94642 | 8.91590 | 32° | 4km/h | 22811m | 3.2m/s | -51.6°C | 0% | 0hPa | 4.6V | 00:00:00 | 00:00:00 | 00:00:00 | |
| GOEST3-10 | 2026-08-31 11:19:42 | 50.94642 | 8.91590 | 32° | 5km/h | 22798m | 3.9m/s | 0°C | 0% | 0hPa | 4.6V | 00:00:00 | 00:00:00 | 00:00:00 | |
| OE3JTB-15 | 2026-08-31 11:19:41 | 50.94641 | 8.91589 | 45° | 9km/h | 22802m | 4.3m/s | 0°C | 0% | 0hPa | 4.6V | 00:00:00 | 00:00:00 | 00:00:00 | |
| DO2JMG | 2026-08-31 11:19:39 | 50.94638 | 8.91584 | 53° | 7km/h | 22797m | 3.9m/s | -51.6°C | 0% | 0hPa | 4.6V | 00:00:00 | 00:00:00 | 00:00:00 | |
| DO3MHA-11 | 2026-08-31 11:19:39 | 50.94638 | 8.91584 | 54° | 5km/h | 22793m | 4.5m/s | 0°C | 0% | 0hPa | 4.6V | 00:00:00 | 00:00:00 | 00:00:00 | |
| BIOWL1-15 | 2026-08-31 11:19:37 | 50.94636 | 8.91579 | 21° | 5km/h | 22785m | 4.9m/s | -51.6°C | 0% | 0hPa | 4.6V | 00:00:00 | 00:00:00 | 00:00:00 | |
| GOEST3-10 | 2026-08-31 11:19:37 | 50.94636 | 8.91580 | 21° | 5km/h | 22781m | 4.0m/s | 0°C | 0% | 0hPa | 4.6V | 00:00:00 | 00:00:00 | 00:00:00 | |
| DF1GD-15 | 2026-08-31 11:19:36 | 50.94635 | 8.91579 | 22° | 5km/h | 22785m | 4.9m/s | -51.6°C | 0% | 0hPa | 4.6V | 00:00:00 | 00:00:00 | 00:00:00 | |
| GOEST3-10 | 2026-08-31 11:19:32 | 50.94629 | 8.91577 | 14° | 5km/h | 22764m | 3.9m/s | 0°C | 0% | 0hPa | 4.6V | 00:00:00 | 00:00:00 | 00:00:00 | |
| DO3DL | 2026-08-31 11:19:30 | 50.94627 | 8.91575 | 53° | 7km/h | 22760m | 4.5m/s | -51.6°C | 0% | 0hPa | 4.6V | 00:00:00 | 00:00:00 | 00:00:00 | |
| DO3MHA-11 | 2026-08-31 11:19:29 | 50.94626 | 8.91573 | 76° | 11km/h | 22751m | 5.1m/s | 0°C | 0% | 0hPa | 4.6V | 00:00:00 | 00:00:00 | 00:00:00 | |
| DO2JMG | 2026-08-31 11:19:29 | 50.94625 | 8.91570 | 75° | 11km/h | 22751m | 5.1m/s | -51.6°C | 0% | 0hPa | 4.6V | 00:00:00 | 00:00:00 | 00:00:00 | |
| DM7RM-13 | 2026-08-31 11:19:28 | 50.94624 | 8.91566 | 82° | 11km/h | 22747m | 3.7m/s | -45.2°C | 0% | 0hPa | 4.6V | 00:00:00 | 00:00:00 | 00:00:00 | |
| GOEST3-10 | 2026-08-31 11:19:27 | 50.94624 | 8.91566 | 82° | 11km/h | 22731m | 3.4m/s | 0°C | 0% | 0hPa | 4.6V | 00:00:00 | 00:00:00 | 00:00:00 | |
| BIOWL1-15 | 2026-08-31 11:19:26 | 50.94620 | 8.91546 | 52° | 13km/h | 22731m | 3.4m/s | -51.7°C | 0% | 0hPa | 4.6V | 00:00:00 | 00:00:00 | 00:00:00 | |
| DO2KSM | 2026-08-31 11:19:25 | 50.94623 | 8.91556 | 66° | 13km/h | 22739m | 4.6m/s | -51.7°C | 0% | 0hPa | 4.6V | 00:00:00 | 00:00:00 | 00:00:00 | |
| DO3DL | 2026-08-31 11:19:24 | 50.94621 | 8.91551 | 58° | 15km/h | 22735m | 4.0m/s | -51.7°C | 0% | 0hPa | 4.6V | 00:00:00 | 00:00:00 | 00:00:00 | |
| GOEST3-10 | 2026-08-31 11:19:21 | 50.94617 | 8.91541 | 49° | 9km/h | 22719m | 3.9m/s | 0°C | 0% | 0hPa | 4.6V | 00:00:00 | 00:00:00 | 00:00:00 | |
| DO3MHA-11 | 2026-08-31 11:19:20 | 50.94614 | 8.91536 | 46° | 15km/h | 22711m | 3.9m/s | 0°C | 0% | 0hPa | 4.6V | 00:00:00 | 00:00:00 | 00:00:00 | |
| DO2JMG | 2026-08-31 11:19:17 | 50.94610 | 8.91529 | 58° | 15km/h | 22706m | 4.8m/s | -51.9°C | 0% | 0hPa | 4.6V | 00:00:00 | 00:00:00 | 00:00:00 | |
| DO3DL | 2026-08-31 11:19:17 | 50.94610 | 8.91529 | 59° | 15km/h | 22706m | 4.8m/s | -51.9°C | 0% | 0hPa | 4.6V | 00:00:00 | 00:00:00 | 00:00:00 | |
| GOEST3-10 | 2026-08-31 11:19:16 | 50.94608 | 8.91523 | 55° | 18km/h | 22698m | 4.2m/s | 0°C | 0% | 0hPa | 4.6V | 00:00:00 | 00:00:00 | 00:00:00 | |
| BIOWL1-15 | 2026-08-31 11:19:13 | 50.94594 | 8.91497 | 32° | 11km/h | 22681m | 3.8m/s | -52°C | 0% | 0hPa | 4.6V | 00:00:00 | 00:00:00 | 00:00:00 | |
| OE3JTB-15 | 2026-08-31 11:19:12 | 50.94596 | 8.91500 | 39° | 22km/h | 22681m | 3.7m/s | 0°C | 0% | 0hPa | 4.6V | 00:00:00 | 00:00:00 | 00:00:00 | |
| GOEST3-10 | 2026-08-31 11:19:11 | 50.94594 | 8.91497 | 32° | 13km/h | 22678m | 3.5m/s | 0°C | 0% | 0hPa | 4.6V | 00:00:00 | 00:00:00 | 00:00:00 | |
| DO3MHA-11 | 2026-08-31 11:19:09 | 50.94589 | 8.91494 | 25° | 18km/h | 22670m | 3.5m/s | 0°C | 0% | 0hPa | 4.6V | 00:00:00 | 00:00:00 | 00:00:00 | |
| AA1-15 | 2026-08-31 11:19:07 | 50.94580 | 8.91486 | 48° | 15km/h | 22662m | 4.6m/s | -51.9°C | 0% | 0hPa | 4.6V | 00:00:00 | 00:00:00 | 00:00:00 | |
| GOEST3-10 | 2026-08-31 11:19:06 | 50.94580 | 8.91486 | 48° | 20km/h | 22658m | 3.7m/s | 0°C | 0% | 0hPa | 4.6V | 00:00:00 | 00:00:00 | 00:00:00 | |
| DO2JMG | 2026-08-31 11:19:05 | 50.94577 | 8.91481 | 56° | 16km/h | 22658m | 3.7m/s | -51.9°C | 0% | 0hPa | 4.6V | 00:00:00 | 00:00:00 | 00:00:00 | |
| SP3BTT-10 | 2026-08-31 11:19:04 | 50.94575 | 8.91475 | 56° | 22km/h | 22650m | 4.8m/s | 0°C | 0% | 0hPa | 4.6V | 00:00:00 | 00:00:00 | 00:00:00 | |
| BIOWL1-15 | 2026-08-31 11:19:02 | 50.94519 | 8.91380 | 44° | 26km/h | 22594m | 4.2m/s | -51.9°C | 0% | 0hPa | 4.6V | 00:00:00 | 00:00:00 | 00:00:00 | |
| GOEST3-10 | 2026-08-31 11:19:01 | 50.94562 | 8.91454 | 45° | 18km/h | 22642m | 3.5m/s | 0°C | 0% | 0hPa | 4.6V | 00:00:00 | 00:00:00 | 00:00:00 | |
| DO3MHA-11 | 2026-08-31 11:18:59 | 50.94556 | 8.91443 | 44° | 22km/h | 22630m | 4.1m/s | 0°C | 0% | 0hPa | 4.6V | 00:00:00 | 00:00:00 | 00:00:00 | |
| AA1-15 | 2026-08-31 11:18:56 | 50.94542 | 8.91424 | 49° | 20km/h | 22619m | 4.8m/s | -51.8°C | 0% | 0hPa | 4.6V | 00:00:00 | 00:00:00 | 00:00:00 | |
| DF1GD-15 | 2026-08-31 11:18:55 | 50.94542 | 8.91424 | 50° | 20km/h | 22619m | 4.8m/s | -51.8°C | 0% | 0hPa | 4.6V | 00:00:00 | 00:00:00 | 00:00:00 | |
| BIOWL1-15 | 2026-08-31 11:18:53 | 50.94514 | 8.91373 | 43° | 24km/h | 22590m | 3.5m/s | -51.9°C | 0% | 0hPa | 4.6V | 00:00:00 | 00:00:00 | 00:00:00 | |
| GOEST3-10 | 2026-08-31 11:18:50 | 50.94523 | 8.91387 | 44° | 27km/h | 22598m | 4.1m/s | 0°C | 0% | 0hPa | 4.6V | 00:00:00 | 00:00:00 | 00:00:00 | |
| DO3MHA-11 | 2026-08-31 11:18:49 | 50.94519 | 8.91380 | 44° | 27km/h | 22590m | 3.4m/s | 0°C | 0% | 0hPa | 4.6V | 00:00:00 | 00:00:00 | 00:00:00 | |
| DO2JMG | 2026-08-31 11:18:48 | 50.94510 | 8.91367 | 42° | 24km/h | 22586m | 4.5m/s | -51.9°C | 0% | 0hPa | 4.6V | 00:00:00 | 00:00:00 | 00:00:00 | |
| AA1-15 | 2026-08-31 11:18:46 | 50.94500 | 8.91353 | 43° | 27km/h | 22578m | 3.5m/s | -52°C | 0% | 0hPa | 4.6V | 00:00:00 | 00:00:00 | 00:00:00 | |
| GOEST3-10 | 2026-08-31 11:18:43 | 50.94491 | 8.91338 | 55° | 27km/h | 22563m | 4.4m/s | 0°C | 0% | 0hPa | 4.6V | 00:00:00 | 00:00:00 | 00:00:00 | |
| DD1CC2-15 | 2026-08-31 11:18:40 | 50.94479 | 8.91312 | 48° | 29km/h | 22558m | 4.2m/s | -45.5°C | 0% | 0hPa | 4.6V | 00:00:00 | 00:00:00 | 00:00:00 | |
| BIOWL1-15 | 2026-08-31 11:18:38 | 50.94457 | 8.91281 | 34° | 31km/h | 22542m | 4.8m/s | -51.9°C | 0% | 0hPa | 4.6V | 00:00:00 | 00:00:00 | 00:00:00 | |
| DO3MHA-11 | 2026-08-31 11:18:38 | 50.94468 | 8.91296 | 43° | 27km/h | 22547m | 3.4m/s | 0°C | 0% | 0hPa | 4.6V | 00:00:00 | 00:00:00 | 00:00:00 | |
| OE3JTB-15 | 2026-08-31 11:18:35 | 50.94467 | 8.91275 | 30° | 26km/h | 22535m | 3.8m/s | 0°C | 0% | 0hPa | 4.6V | 00:00:00 | 00:00:00 | 00:00:00 | |
| DO2JMG | 2026-08-31 11:18:35 | 50.94444 | 8.91269 | 30° | 27km/h | 22534m | 3.9m/s | -51.9°C | 0% | 0hPa | 4.6V | 00:00:00 | 00:00:00 | 00:00:00 | |
| GOEST3-10 | 2026-08-31 11:18:33 | 50.94438 | 8.91264 | 39° | 24km/h | 22527m | 3.1m/s | 0°C | 0% | 0hPa | 4.6V | 00:00:00 | 00:00:00 | 00:00:00 | |
| DJTTGO | 2026-08-31 11:18:32 | 50.94429 | 8.91253 | 40° | 22km/h | 22523m | 4.2m/s | -51.8°C | 0% | 0hPa | 4.6V | 00:00:00 | 00:00:00 | 00:00:00 | |
| DF1GD-15 | 2026-08-31 11:18:31 | 50.94429 | 8.91253 | 40° | 22km/h | 22523m | 4.2m/s | -51.8°C | 0% | 0hPa | 4.6V | 00:00:00 | 00:00:00 | 00:00:00 | |
| DO3MHA-11 | 2026-08-31 11:18:28 | 50.94413 | 8.91233 | 35° | 26km/h | 22507m | 4.2m/s | 0°C | 0% | 0hPa | 4.6V | 00:00:00 | 00:00:00 | 00:00:00 | |
| BIOWL1-15 | 2026-08-31 11:18:26 | 50.94376 | 8.91204 | 24° | 26km/h | 22488m | 4.7m/s | -51.9°C | 0% | 0hPa | 4.6V | 00:00:00 | 00:00:00 | 00:00:00 | |
| DO3DL | 2026-08-31 11:18:25 | 50.94383 | 8.91212 | 25° | 29km/h | 22500m | 4.5m/s | -51.9°C | 0% | 0hPa | 4.6V | 00:00:00 | 00:00:00 | 00:00:00 | |
| DO2JMG | 2026-08-31 11:18:24 | 50.94383 | 8.91208 | 23° | 29km/h | 22492m | 3.3m/s | -51.9°C | 0% | 0hPa | 4.6V | 00:00:00 | 00:00:00 | 00:00:00 | |
| GOEST3-10 | 2026-08-31 11:18:23 | 50.94383 | 8.91208 | 23° | 24km/h | 22488m | 4.7m/s | 0°C | 0% | 0hPa | 4.6V | 00:00:00 | 00:00:00 | 00:00:00 | |
| DD1CC2-15 | 2026-08-31 11:18:20 | 50.94367 | 8.91196 | 32° | 20km/h | 22480m | 3.7m/s | -45.5°C | 0% | 0hPa | 4.6V | 00:00:00 | 00:00:00 | 00:00:00 | |
| GOEST3-10 | 2026-08-31 11:18:18 | 50.94358 | 8.91187 | 29° | 24km/h | 22461m | 3.4m/s | 0°C | 0% | 0hPa | 4.6V | 00:00:00 | 00:00:00 | 00:00:00 | |
| DO2KSM | 2026-08-31 11:18:15 | 50.94344 | 8.91175 | 7° | 18km/h | 22452m | 3.8m/s | -52.0°C | 0% | 0hPa | 4.6V | 00:00:00 | 00:00:00 | 00:00:00 | |
| DO2JMG | 2026-08-31 11:18:13 | 50.94326 | 8.91174 | 5° | 27km/h | 22449m | 3.7m/s | -52°C | 0% | 0hPa | 4.6V | 00:00:00 | 00:00:00 | 00:00:00 | |
| DF1GD-15 | 2026-08-31 11:18:10 | 50.94314 | 8.91173 | 6° | 20km/h | 22441m | 3.7m/s | -52.0°C | 0% | 0hPa | 4.6V | 00:00:00 | 00:00:00 | 00:00:00 | |
| GOEST3-10 | 2026-08-31 11:18:09 | 50.94309 | 8.91172 | 13° | 18km/h | 22433m | 4.3m/s | 0°C | 0% | 0hPa | 4.6V | 00:00:00 | 00:00:00 | 00:00:00 | |
| DO3MHA-11 | 2026-08-31 11:18:08 | 50.94304 | 8.91171 | 13° | 20km/h | 22429m | 3.3m/s | 0°C | 0% | 0hPa | 4.6V | 00:00:00 | 00:00:00 | 00:00:00 | |
| DO3DL | 2026-08-31 11:18:07 | 50.94300 | 8.91169 | 14° | 20km/h | 22429m | 3.3m/s | -51.9°C | 0% | 0hPa | 4.6V | 00:00:00 | 00:00:00 | 00:00:00 | |
| OE3JTB-15 | 2026-08-31 11:18:06 | 50.94295 | 8.91167 | 10° | 22km/h | 22422m | 4.6m/s | 0°C | 0% | 0hPa | 4.6V | 00:00:00 | 00:00:00 | 00:00:00 | |
| DM7RM-13 | 2026-08-31 11:18:05 | 50.94290 | 8.91166 | 5° | 18km/h | 22422m | 4.6m/s | -45.6°C | 0% | 0hPa | 4.6V | 00:00:00 | 00:00:00 | 00:00:00 | |
| SP3BTT-10 | 2026-08-31 11:18:03 | 50.94281 | 8.91166 | 359° | 18km/h | 22409m | 4.2m/s | 0°C | 0% | 0hPa | 4.6V | 00:00:00 | 00:00:00 | 00:00:00 | |
| DO2JMG | 2026-08-31 11:18:02 | 50.94276 | 8.91166 | 0° | 24km/h | 22409m | 4.3m/s | -52°C | 0% | 0hPa | 4.6V | 00:00:00 | 00:00:00 | 00:00:00 | |
| DD1CC2-15 | 2026-08-31 11:18:00 | 50.94258 | 8.91167 | 352° | 20km/h | 22396m | 3.8m/s | -45.7°C | 0% | 0hPa | 4.6V | 00:00:00 | 00:00:00 | 00:00:00 | |
| DO3MHA-11 | 2026-08-31 11:17:58 | 50.94253 | 8.91169 | 357° | 20km/h | 22388m | 4.4m/s | 0°C | 0% | 0hPa | 4.6V | 00:00:00 | 00:00:00 | 00:00:00 | |
| GOEST3-10 | 2026-08-31 11:17:53 | 50.94230 | 8.91172 | 346° | 22km/h | 22368m | 4.6m/s | 0°C | 0% | 0hPa | 4.6V | 00:00:00 | 00:00:00 | 00:00:00 | |
| DO2JMG | 2026-08-31 11:17:52 | 50.94220 | 8.91175 | 353° | 24km/h | 22363m | 4m/s | -52.4°C | 0% | 0hPa | 4.6V | 00:00:00 | 00:00:00 | 00:00:00 | |
| DO3MHA-11 | 2026-08-31 11:17:48 | 50.94200 | 8.91181 | 345° | 22km/h | 22348m | 4.0m/s | 0°C | 0% | 0hPa | 4.6V | 00:00:00 | 00:00:00 | 00:00:00 | |
| NBG1-10 | 2026-08-31 11:17:46 | 50.94188 | 8.91186 | 346° | 18km/h | 22307m | 3.4m/s | 0°C | 0% | 0hPa | 4.6V | 00:00:00 | 00:00:00 | 00:00:00 | |
| DM7RM-13 | 2026-08-31 11:17:44 | 50.94177 | 8.91191 | 334° | 20km/h | 22336m | 4.9m/s | -46.2°C | 0% | 0hPa | 4.6V | 00:00:00 | 00:00:00 | 00:00:00 | |
| GOEST3-10 | 2026-08-31 11:17:43 | 50.94173 | 8.91195 | 325° | 20km/h | 22331m | 4.0m/s | 0°C | 0% | 0hPa | 4.6V | 00:00:00 | 00:00:00 | 00:00:00 | |
| AA1-15 | 2026-08-31 11:17:41 | 50.94161 | 8.91208 | 334° | 22km/h | 22319m | 3.6m/s | -52.4°C | 0% | 0hPa | 4.6V | 00:00:00 | 00:00:00 | 00:00:00 | |
| DD1CC2-15 | 2026-08-31 11:17:39 | 50.94156 | 8.91212 | 333° | 20km/h | 22315m | 5.1m/s | -46.1°C | 0% | 0hPa | 4.6V | 00:00:00 | 00:00:00 | 00:00:00 | |
| BIOWL1-15 | 2026-08-31 11:17:38 | 50.94118 | 8.91236 | 337° | 16km/h | 22277m | 4.7m/s | -52.5°C | 0% | 0hPa | 4.6V | 00:00:00 | 00:00:00 | 00:00:00 | |
| DO3MHA-11 | 2026-08-31 11:17:38 | 50.94151 | 8.91216 | 330° | 18km/h | 22307m | 3.4m/s | 0°C | 0% | 0hPa | 4.6V | 00:00:00 | 00:00:00 | 00:00:00 | |
| OE3JTB-15 | 2026-08-31 11:17:37 | 50.94147 | 8.91223 | 349° | 16km/h | 22303m | 4.8m/s | 0°C | 0% | 0hPa | 4.6V | 00:00:00 | 00:00:00 | 00:00:00 | |
| GOEST3-10 | 2026-08-31 11:17:33 | 50.94128 | 8.91229 | 341° | 16km/h | 22285m | 3.9m/s | 0°C | 0% | 0hPa | 4.6V | 00:00:00 | 00:00:00 | 00:00:00 | |
| DO3DL | 2026-08-31 11:17:32 | 50.94125 | 8.91231 | 333° | 15km/h | 22285m | 3.9m/s | -52.4°C | 0% | 0hPa | 4.6V | 00:00:00 | 00:00:00 | 00:00:00 | |
| AA1-15 | 2026-08-31 11:17:30 | 50.94114 | 8.91239 | 341° | 18km/h | 22273m | 3.8m/s | -52.4°C | 0% | 0hPa | 4.6V | 00:00:00 | 00:00:00 | 00:00:00 | |
| GOEST3-10 | 2026-08-31 11:17:28 | 50.94109 | 8.91241 | 331° | 20km/h | 22265m | 4.7m/s | 0°C | 0% | 0hPa | 4.6V | 00:00:00 | 00:00:00 | 00:00:00 | |
| BIOWL1-15 | 2026-08-31 11:17:25 | 50.94088 | 8.91258 | 344° | 20km/h | 22247m | 3.6m/s | -52.4°C | 0% | 0hPa | 4.6V | 00:00:00 | 00:00:00 | 00:00:00 | |
| DM7RM-13 | 2026-08-31 11:17:24 | 50.94092 | 8.91256 | 342° | 20km/h | 22252m | 4.6m/s | -46.1°C | 0% | 0hPa | 4.6V | 00:00:00 | 00:00:00 | 00:00:00 | |
| GOEST3-10 | 2026-08-31 11:17:23 | 50.94088 | 8.91258 | 344° | 18km/h | 22243m | 4.7m/s | 0°C | 0% | 0hPa | 4.6V | 00:00:00 | 00:00:00 | 00:00:00 | |
| AA1-15 | 2026-08-31 11:17:19 | 50.94073 | 8.91269 | 329° | 15km/h | 22230m | 5m/s | -52.3°C | 0% | 0hPa | 4.6V | 00:00:00 | 00:00:00 | 00:00:00 | |
| GOEST3-10 | 2026-08-31 11:17:18 | 50.94069 | 8.91271 | 328° | 16km/h | 22222m | 4.2m/s | 0°C | 0% | 0hPa | 4.6V | 00:00:00 | 00:00:00 | 00:00:00 | |
| GOEST3-10 | 2026-08-31 11:17:13 | 50.94055 | 8.91294 | 335° | 15km/h | 22201m | 3.8m/s | 0°C | 0% | 0hPa | 4.6V | 00:00:00 | 00:00:00 | 00:00:00 | |
| DF1GD-15 | 2026-08-31 11:17:10 | 50.94045 | 8.91302 | 326° | 13km/h | 22188m | 4.0m/s | -52.2°C | 0% | 0hPa | 4.6V | 00:00:00 | 00:00:00 | 00:00:00 | |
| AA1-15 | 2026-08-31 11:17:09 | 50.94039 | 8.91308 | 325° | 16km/h | 22183m | 5m/s | -52.2°C | 0% | 0hPa | 4.6V | 00:00:00 | 00:00:00 | 00:00:00 | |
| DO3MHA-11 | 2026-08-31 11:17:08 | 50.94039 | 8.91308 | 326° | 15km/h | 22178m | 4.1m/s | 0°C | 0% | 0hPa | 4.6V | 00:00:00 | 00:00:00 | 00:00:00 | |
| DO2JMG | 2026-08-31 11:17:07 | 50.94032 | 8.91317 | 314° | 18km/h | 22174m | 5m/s | -52.2°C | 0% | 0hPa | 4.6V | 00:00:00 | 00:00:00 | 00:00:00 | |
| NBG1-10 | 2026-08-31 11:17:06 | 50.94032 | 8.91317 | 315° | 15km/h | 22169m | 4.4m/s | 0°C | 0% | 0hPa | 4.6V | 00:00:00 | 00:00:00 | 00:00:00 | |
| DL1CLM-18 | 2026-08-31 11:17:03 | 50.94021 | 8.91337 | 327° | 13km/h | 22156m | 3.9m/s | 0°C | 0% | 0hPa | 4.6V | 00:00:00 | 00:00:00 | 00:00:00 | |
| DO2KSM | 2026-08-31 11:17:01 | 50.94016 | 8.91342 | 323° | 11km/h | 22152m | 4.1m/s | -52.2°C | 0% | 0hPa | 4.6V | 00:00:00 | 00:00:00 | 00:00:00 | |
| AA1-15 | 2026-08-31 11:16:58 | 50.94008 | 8.91351 | 329° | 18km/h | 22134m | 4.5m/s | -52.2°C | 0% | 0hPa | 4.6V | 00:00:00 | 00:00:00 | 00:00:00 | |
| GOEST3-10 | 2026-08-31 11:16:58 | 50.94011 | 8.91345 | 325° | 20km/h | 22134m | 4.4m/s | 0°C | 0% | 0hPa | 4.6V | 00:00:00 | 00:00:00 | 00:00:00 | |
| DO2SHX-10 | 2026-08-31 11:16:56 | 50.94003 | 8.91355 | 325° | 22km/h | 22130m | 4.1m/s | 0°C | 0% | 0hPa | 4.6V | 00:00:00 | 00:00:00 | 00:00:00 | |
| DO2JMG | 2026-08-31 11:16:55 | 50.94000 | 8.91360 | 318° | 20km/h | 22125m | 5.1m/s | -52.2°C | 0% | 0hPa | 4.6V | 00:00:00 | 00:00:00 | 00:00:00 | |
| DO2SHX-10 | 2026-08-31 11:16:53 | 50.93992 | 8.91372 | 318° | 18km/h | 22107m | 3.8m/s | 0°C | 0% | 0hPa | 4.6V | 00:00:00 | 00:00:00 | 00:00:00 | |
| GOEST3-10 | 2026-08-31 11:16:52 | 50.93988 | 8.91377 | 324° | 16km/h | 22107m | 3.8m/s | 0°C | 0% | 0hPa | 4.6V | 00:00:00 | 00:00:00 | 00:00:00 | |
| DO3DL | 2026-08-31 11:16:51 | 50.93984 | 8.91382 | 329° | 18km/h | 22107m | 3.8m/s | -52.1°C | 0% | 0hPa | 4.6V | 00:00:00 | 00:00:00 | 00:00:00 | |
| DO2SHX-10 | 2026-08-31 11:16:49 | 50.93977 | 8.91389 | 340° | 13km/h | 22094m | 4.5m/s | 0°C | 0% | 0hPa | 4.6V | 00:00:00 | 00:00:00 | 00:00:00 | |
| DO3MHA-11 | 2026-08-31 11:16:48 | 50.93975 | 8.91392 | 332° | 15km/h | 22089m | 5.2m/s | 0°C | 0% | 0hPa | 4.6V | 00:00:00 | 00:00:00 | 00:00:00 | |
| AA1-15 | 2026-08-31 11:16:47 | 50.93970 | 8.91395 | 343° | 13km/h | 22084m | 4.2m/s | -51.9°C | 0% | 0hPa | 4.6V | 00:00:00 | 00:00:00 | 00:00:00 | |
| GOEST3-10 | 2026-08-31 11:16:47 | 50.93973 | 8.91392 | 338° | 15km/h | 22080m | 4.8m/s | 0°C | 0% | 0hPa | 4.6V | 00:00:00 | 00:00:00 | 00:00:00 | |
| BIOWL1-15 | 2026-08-31 11:16:45 | 50.93960 | 8.91402 | 330° | 15km/h | 22070m | 4.3m/s | -51.9°C | 0% | 0hPa | 4.6V | 00:00:00 | 00:00:00 | 00:00:00 | |
| DO3DL | 2026-08-31 11:16:45 | 50.93967 | 8.91397 | 339° | 15km/h | 22080m | 4.8m/s | -51.9°C | 0% | 0hPa | 4.6V | 00:00:00 | 00:00:00 | 00:00:00 | |
| DM7RM-13 | 2026-08-31 11:16:43 | 50.93960 | 8.91402 | 331° | 15km/h | 22070m | 4.3m/s | -45.6°C | 0% | 0hPa | 4.6V | 00:00:00 | 00:00:00 | 00:00:00 | |
| DO2SHX-10 | 2026-08-31 11:16:42 | 50.93956 | 8.91405 | 334° | 16km/h | 22052m | 4.0m/s | 0°C | 0% | 0hPa | 4.6V | 00:00:00 | 00:00:00 | 00:00:00 | |
| DO2JMG | 2026-08-31 11:16:40 | 50.93949 | 8.91412 | 327° | 16km/h | 22057m | 5.3m/s | -52°C | 0% | 0hPa | 4.6V | 00:00:00 | 00:00:00 | 00:00:00 | |
| OE3JTB-15 | 2026-08-31 11:16:39 | 50.93945 | 8.91415 | 324° | 9km/h | 22043m | 5.3m/s | 0°C | 0% | 0hPa | 4.6V | 00:00:00 | 00:00:00 | 00:00:00 | |
| DO3MHA-11 | 2026-08-31 11:16:38 | 50.93943 | 8.91419 | 331° | 11km/h | 22043m | 5.3m/s | 0°C | 0% | 0hPa | 4.6V | 00:00:00 | 00:00:00 | 00:00:00 | |
| GOEST3-10 | 2026-08-31 11:16:37 | 50.93940 | 8.91421 | 349° | 7km/h | 22030m | 4.6m/s | 0°C | 0% | 0hPa | 4.6V | 00:00:00 | 00:00:00 | 00:00:00 | |
| AA1-15 | 2026-08-31 11:16:36 | 50.93936 | 8.91421 | 353° | 7km/h | 22034m | 4.8m/s | -51.9°C | 0% | 0hPa | 4.6V | 00:00:00 | 00:00:00 | 00:00:00 | |
| SP3BTT-10 | 2026-08-31 11:16:33 | 50.93932 | 8.91422 | 334° | 9km/h | 22020m | 5.1m/s | 0°C | 0% | 0hPa | 0V | 00:00:00 | 00:00:00 | 00:00:00 | |
| BIOWL1-15 | 2026-08-31 11:16:30 | 50.93922 | 8.91430 | 331° | 15km/h | 22007m | 4.7m/s | -51.9°C | 0% | 0hPa | 0V | 00:00:00 | 00:00:00 | 00:00:00 | |
| DO3DL | 2026-08-31 11:16:29 | 50.93922 | 8.91430 | 332° | 15km/h | 22007m | 4.7m/s | -51.9°C | 0% | 0hPa | 4.6V | 00:00:00 | 00:00:00 | 00:00:00 | |
| DO3MHA-11 | 2026-08-31 11:16:28 | 50.93919 | 8.91434 | 352° | 9km/h | 21999m | 5.1m/s | 0°C | 0% | 0hPa | 4.6V | 00:00:00 | 00:00:00 | 00:00:00 | |
| AA1-15 | 2026-08-31 11:16:26 | 50.93911 | 8.91435 | 13° | 9km/h | 21989m | 4.8m/s | -51.9°C | 0% | 0hPa | 4.6V | 00:00:00 | 00:00:00 | 00:00:00 | |
| DO3DL | 2026-08-31 11:16:22 | 50.93906 | 8.91434 | 344° | 5km/h | 21976m | 4.9m/s | -52.0°C | 0% | 0hPa | 4.6V | 00:00:00 | 00:00:00 | 00:00:00 | |
| GOEST3-10 | 2026-08-31 11:16:21 | 50.93905 | 8.91432 | 323° | 9km/h | 21968m | 4.0m/s | 0°C | 0% | 0hPa | 4.6V | 00:00:00 | 00:00:00 | 00:00:00 | |
| DO3MHA-11 | 2026-08-31 11:16:18 | 50.93899 | 8.91440 | 316° | 5km/h | 21954m | 4.0m/s | 0°C | 0% | 0hPa | 4.6V | 00:00:00 | 00:00:00 | 00:00:00 | |
| DD1CC2-15 | 2026-08-31 11:16:17 | 50.93896 | 8.91445 | 335° | 9km/h | 21950m | 5.3m/s | -45.6°C | 0% | 0hPa | 4.6V | 00:00:00 | 00:00:00 | 00:00:00 | |
| GOEST3-10 | 2026-08-31 11:16:16 | 50.93895 | 8.91445 | 334° | 4km/h | 21945m | 4.1m/s | 0°C | 0% | 0hPa | 4.6V | 00:00:00 | 00:00:00 | 00:00:00 | |
| AA1-15 | 2026-08-31 11:16:15 | 50.93894 | 8.91447 | 347° | 7km/h | 21945m | 4.2m/s | -52°C | 0% | 0hPa | 4.6V | 00:00:00 | 00:00:00 | 00:00:00 | |
| DF1GD-15 | 2026-08-31 11:16:15 | 50.93894 | 8.91447 | 348° | 7km/h | 21945m | 4.2m/s | -52.0°C | 0% | 0hPa | 4.6V | 00:00:00 | 00:00:00 | 00:00:00 | |
| DO2JMG | 2026-08-31 11:16:14 | 50.93892 | 8.91447 | 354° | 5km/h | 21940m | 4.8m/s | -51.9°C | 0% | 0hPa | 4.6V | 00:00:00 | 00:00:00 | 00:00:00 | |
| BIOWL1-15 | 2026-08-31 11:16:13 | 50.93891 | 8.91448 | 1° | 2km/h | 21922m | 4.9m/s | -52°C | 0% | 0hPa | 0V | 00:00:00 | 00:00:00 | 00:00:00 | |
| GOEST3-10 | 2026-08-31 11:16:11 | 50.93892 | 8.91448 | 334° | 4km/h | 21922m | 4.8m/s | 0°C | 0% | 0hPa | 4.6V | 00:00:00 | 00:00:00 | 00:00:00 | |
| DO3DL | 2026-08-31 11:16:10 | 50.93890 | 8.91448 | 2° | 5km/h | 21917m | 4.1m/s | -52.0°C | 0% | 0hPa | 4.6V | 00:00:00 | 00:00:00 | 00:00:00 | |
| OE3JTB-15 | 2026-08-31 11:16:09 | 50.93890 | 8.91448 | 1° | 18km/h | 21913m | 4.5m/s | 0°C | 0% | 0hPa | 4.6V | 00:00:00 | 00:00:00 | 00:00:00 | |
| DO3MHA-11 | 2026-08-31 11:16:08 | 50.93889 | 8.91447 | 339° | 5km/h | 21908m | 5.1m/s | 0°C | 0% | 0hPa | 4.6V | 00:00:00 | 00:00:00 | 00:00:00 | |
| GOEST3-10 | 2026-08-31 11:16:06 | 50.93888 | 8.91449 | 59° | 4km/h | 21900m | 4.0m/s | 0°C | 0% | 0hPa | 4.6V | 00:00:00 | 00:00:00 | 00:00:00 | |
| DO2JMG | 2026-08-31 11:16:05 | 50.93887 | 8.91448 | 59° | 4km/h | 21895m | 5.3m/s | -52°C | 0% | 0hPa | 4.6V | 00:00:00 | 00:00:00 | 00:00:00 | |
| AA1-15 | 2026-08-31 11:16:04 | 50.93886 | 8.91446 | 61° | 7km/h | 21890m | 4.1m/s | -52°C | 0% | 0hPa | 4.6V | 00:00:00 | 00:00:00 | 00:00:00 | |
| DO3DL | 2026-08-31 11:16:03 | 50.93886 | 8.91445 | 62° | 7km/h | 21890m | 4.1m/s | -52.0°C | 0% | 0hPa | 4.6V | 00:00:00 | 00:00:00 | 00:00:00 | |
| DM7RM-13 | 2026-08-31 11:16:02 | 50.93885 | 8.91443 | 70° | 9km/h | 21886m | 5.0m/s | -45.6°C | 0% | 0hPa | 4.6V | 00:00:00 | 00:00:00 | 00:00:00 | |
| GOEST3-10 | 2026-08-31 11:16:01 | 50.93885 | 8.91440 | 78° | 5km/h | 21877m | 4.1m/s | 0°C | 0% | 0hPa | 4.6V | 00:00:00 | 00:00:00 | 00:00:00 | |
| DO3MHA-11 | 2026-08-31 11:15:58 | 50.93884 | 8.91434 | 33° | 7km/h | 21863m | 4.2m/s | 0°C | 0% | 0hPa | 4.6V | 00:00:00 | 00:00:00 | 00:00:00 | |
| DD1CC2-15 | 2026-08-31 11:15:57 | 50.93881 | 8.91432 | 39° | 4km/h | 21858m | 5.4m/s | -45.6°C | 0% | 0hPa | 4.6V | 00:00:00 | 00:00:00 | 00:00:00 | |
| GOEST3-10 | 2026-08-31 11:15:56 | 50.93881 | 8.91432 | 38° | 9km/h | 21849m | 4.3m/s | 0°C | 0% | 0hPa | 4.6V | 00:00:00 | 00:00:00 | 00:00:00 | |
| DO2SHX-10 | 2026-08-31 11:15:55 | 50.93881 | 8.91431 | 79° | 7km/h | 21835m | 5.1m/s | 0°C | 0% | 0hPa | 4.6V | 00:00:00 | 00:00:00 | 00:00:00 | |
| DF1GD-15 | 2026-08-31 11:15:54 | 50.93881 | 8.91430 | 79° | 4km/h | 21849m | 4.3m/s | -51.8°C | 0% | 0hPa | 4.6V | 00:00:00 | 00:00:00 | 00:00:00 | |
| AA1-15 | 2026-08-31 11:15:53 | 50.93880 | 8.91425 | 78° | 9km/h | 21840m | 4.5m/s | -51.8°C | 0% | 0hPa | 4.6V | 00:00:00 | 00:00:00 | 00:00:00 | |
| BIOWL1-15 | 2026-08-31 11:15:51 | 50.93879 | 8.91417 | 80° | 9km/h | 21830m | 4.3m/s | 0°C | 0% | 0hPa | 0V | 00:00:00 | 00:00:00 | 00:00:00 | |
| DO3DL | 2026-08-31 11:15:50 | 50.93879 | 8.91417 | 81° | 9km/h | 21830m | 4.3m/s | -51.8°C | 0% | 0hPa | 4.6V | 00:00:00 | 00:00:00 | 00:00:00 | |
| DO2SHX-10 | 2026-08-31 11:15:49 | 50.93879 | 8.91413 | 74° | 11km/h | 21826m | 4.0m/s | 0°C | 0% | 0hPa | 4.6V | 00:00:00 | 00:00:00 | 00:00:00 | |
| DO3MHA-11 | 2026-08-31 11:15:48 | 50.93878 | 8.91409 | 65° | 11km/h | 21817m | 4.0m/s | 0°C | 0% | 0hPa | 4.6V | 00:00:00 | 00:00:00 | 00:00:00 | |
| GOEST3-10 | 2026-08-31 11:15:47 | 50.93877 | 8.91403 | 53° | 13km/h | 21813m | 5.2m/s | 0°C | 0% | 0hPa | 4.6V | 00:00:00 | 00:00:00 | 00:00:00 | |
| DO3DL | 2026-08-31 11:15:44 | 50.93872 | 8.91395 | 59° | 7km/h | 21799m | 5.4m/s | -51.7°C | 0% | 0hPa | 4.6V | 00:00:00 | 00:00:00 | 00:00:00 | |
| AA1-15 | 2026-08-31 11:15:43 | 50.93871 | 8.91392 | 66° | 13km/h | 21794m | 4.3m/s | -51.6°C | 0% | 0hPa | 4.6V | 00:00:00 | 00:00:00 | 00:00:00 | |
| GOEST3-10 | 2026-08-31 11:15:42 | 50.93871 | 8.91392 | 67° | 16km/h | 21790m | 4.5m/s | 0°C | 0% | 0hPa | 4.6V | 00:00:00 | 00:00:00 | 00:00:00 | |
| DM7RM-13 | 2026-08-31 11:15:40 | 50.93868 | 8.91381 | 87° | 16km/h | 21785m | 4.9m/s | -45.3°C | 0% | 0hPa | 4.6V | 00:00:00 | 00:00:00 | 00:00:00 | |
| DO2JMG | 2026-08-31 11:15:38 | 50.93868 | 8.91358 | 78° | 20km/h | 21772m | 4.3m/s | -51.5°C | 0% | 0hPa | 4.6V | 00:00:00 | 00:00:00 | 00:00:00 | |
| DO3MHA-11 | 2026-08-31 11:15:38 | 50.93868 | 8.91365 | 79° | 15km/h | 21772m | 4.3m/s | 0°C | 0% | 0hPa | 4.6V | 00:00:00 | 00:00:00 | 00:00:00 | |
| GOEST3-10 | 2026-08-31 11:15:37 | 50.93868 | 8.91358 | 79° | 13km/h | 21763m | 5.2m/s | 0°C | 0% | 0hPa | 4.6V | 00:00:00 | 00:00:00 | 00:00:00 | |
| DD1CC2-15 | 2026-08-31 11:15:36 | 50.93867 | 8.91351 | 76° | 16km/h | 21768m | 4.2m/s | -45.0°C | 0% | 0hPa | 4.6V | 00:00:00 | 00:00:00 | 00:00:00 | |
| DF1GD-15 | 2026-08-31 11:15:34 | 50.93865 | 8.91340 | 78° | 9km/h | 21758m | 4.3m/s | -51.4°C | 0% | 0hPa | 4.6V | 00:00:00 | 00:00:00 | 00:00:00 | |
| AA1-15 | 2026-08-31 11:15:32 | 50.93864 | 8.91334 | 78° | 11km/h | 21749m | 4.7m/s | -51.4°C | 0% | 0hPa | 4.6V | 00:00:00 | 00:00:00 | 00:00:00 | |
| GOEST3-10 | 2026-08-31 11:15:32 | 50.93863 | 8.91334 | 78° | 13km/h | 21749m | 4.6m/s | 0°C | 0% | 0hPa | 4.6V | 00:00:00 | 00:00:00 | 00:00:00 | |
| DO3DL | 2026-08-31 11:15:30 | 50.93862 | 8.91324 | 98° | 13km/h | 21741m | 5.0m/s | -51.4°C | 0% | 0hPa | 4.6V | 00:00:00 | 00:00:00 | 00:00:00 | |
| DO3MHA-11 | 2026-08-31 11:15:28 | 50.93864 | 8.91313 | 109° | 11km/h | 21727m | 4.9m/s | 0°C | 0% | 0hPa | 4.6V | 00:00:00 | 00:00:00 | 00:00:00 | |
| GOEST3-10 | 2026-08-31 11:15:27 | 50.93865 | 8.91307 | 104° | 9km/h | 21722m | 3.5m/s | 0°C | 0% | 0hPa | 4.6V | 00:00:00 | 00:00:00 | 00:00:00 | |
| DO3DL | 2026-08-31 11:15:24 | 50.93867 | 8.91292 | 115° | 7km/h | 21714m | 4.6m/s | -51.4°C | 0% | 0hPa | 4.6V | 00:00:00 | 00:00:00 | 00:00:00 | |
| AA1-15 | 2026-08-31 11:15:22 | 50.93869 | 8.91286 | 85° | 7km/h | 21701m | 4.3m/s | -51.4°C | 0% | 0hPa | 4.6V | 00:00:00 | 00:00:00 | 00:00:00 | |
| GOEST3-10 | 2026-08-31 11:15:21 | 50.93869 | 8.91286 | 102° | 11km/h | 21697m | 3.8m/s | 0°C | 0% | 0hPa | 4.6V | 00:00:00 | 00:00:00 | 00:00:00 | |
| DO2JMG | 2026-08-31 11:15:20 | 50.93868 | 8.91279 | 102° | 9km/h | 21692m | 4.6m/s | 0°C | 0% | 0hPa | 4.6V | 00:00:00 | 00:00:00 | 00:00:00 | |
| NBG1-10 | 2026-08-31 11:15:19 | 50.93869 | 8.91275 | 123° | 40km/h | 21675m | 4.2m/s | 0°C | 0% | 0hPa | 4.6V | 00:00:00 | 00:00:00 | 00:00:00 | |
| DD1CC2-15 | 2026-08-31 11:15:17 | 50.93874 | 8.91262 | 114° | 15km/h | 21675m | 4.3m/s | -44.9°C | 0% | 0hPa | 4.6V | 00:00:00 | 00:00:00 | 00:00:00 | |
| GOEST3-10 | 2026-08-31 11:15:16 | 50.93874 | 8.91262 | 113° | 11km/h | 21671m | 3.4m/s | 0°C | 0% | 0hPa | 4.6V | 00:00:00 | 00:00:00 | 00:00:00 | |
| DO2SHX-10 | 2026-08-31 11:15:15 | 50.93874 | 8.91262 | 113° | 11km/h | 21662m | 4.1m/s | 0°C | 0% | 0hPa | 4.6V | 00:00:00 | 00:00:00 | 00:00:00 | |
| DF1GD-15 | 2026-08-31 11:15:13 | 50.93877 | 8.91251 | 114° | 13km/h | 21667m | 5.2m/s | -51.4°C | 0% | 0hPa | 4.6V | 00:00:00 | 00:00:00 | 00:00:00 | |
| AA1-15 | 2026-08-31 11:15:12 | 50.93879 | 8.91244 | 104° | 9km/h | 21658m | 4.3m/s | -51.3°C | 0% | 0hPa | 4.6V | 00:00:00 | 00:00:00 | 00:00:00 | |
| DO2SHX-10 | 2026-08-31 11:15:11 | 50.93879 | 8.91244 | 105° | 9km/h | 21649m | 3.8m/s | 0°C | 0% | 0hPa | 4.6V | 00:00:00 | 00:00:00 | 00:00:00 | |
| GOEST3-10 | 2026-08-31 11:15:10 | 50.93879 | 8.91241 | 102° | 11km/h | 21649m | 3.8m/s | 0°C | 0% | 0hPa | 4.6V | 00:00:00 | 00:00:00 | 00:00:00 | |
| DO2JMG | 2026-08-31 11:15:08 | 50.93879 | 8.91233 | 101° | 11km/h | 21644m | 5.3m/s | 0°C | 0% | 0hPa | 4.6V | 00:00:00 | 00:00:00 | 00:00:00 | |
| DO2SHX-10 | 2026-08-31 11:15:08 | 50.93878 | 8.91232 | 102° | 11km/h | 21644m | 5.3m/s | 0°C | 0% | 0hPa | 4.6V | 00:00:00 | 00:00:00 | 00:00:00 | |
| DO3MHA-11 | 2026-08-31 11:15:07 | 50.93880 | 8.91228 | 114° | 13km/h | 21636m | 3.5m/s | 0°C | 0% | 0hPa | 4.6V | 00:00:00 | 00:00:00 | 00:00:00 | |
| DO2SHX-10 | 2026-08-31 11:15:05 | 50.93882 | 8.91219 | 113° | 13km/h | 21610m | 4.6m/s | 0°C | 0% | 0hPa | 4.6V | 00:00:00 | 00:00:00 | 00:00:00 | |
| AA1-15 | 2026-08-31 11:15:02 | 50.93888 | 8.91198 | 121° | 11km/h | 21614m | 4m/s | -51.2°C | 0% | 0hPa | 4.6V | 00:00:00 | 00:00:00 | 00:00:00 | |
| DJTTGO | 2026-08-31 11:15:01 | 50.93888 | 8.91198 | 122° | 11km/h | 21614m | 4.0m/s | -51.2°C | 0% | 0hPa | 4.6V | 00:00:00 | 00:00:00 | 00:00:00 | |
| DO2SHX-10 | 2026-08-31 11:15:00 | 50.93889 | 8.91195 | 113° | 9km/h | 21605m | 4.2m/s | 0°C | 0% | 0hPa | 4.6V | 00:00:00 | 00:00:00 | 00:00:00 | |
| DO3DL | 2026-08-31 11:14:59 | 50.93890 | 8.91187 | 95° | 11km/h | 21601m | 3.9m/s | -51.2°C | 0% | 0hPa | 4.6V | 00:00:00 | 00:00:00 | 00:00:00 | |
| DM7RM-13 | 2026-08-31 11:14:58 | 50.93890 | 8.91187 | 95° | 11km/h | 21601m | 3.9m/s | -44.8°C | 0% | 0hPa | 4.6V | 00:00:00 | 00:00:00 | 00:00:00 | |
| DO3MHA-11 | 2026-08-31 11:14:57 | 50.93890 | 8.91184 | 104° | 11km/h | 21592m | 3.8m/s | 0°C | 0% | 0hPa | 4.6V | 00:00:00 | 00:00:00 | 00:00:00 | |
| DO2SHX-10 | 2026-08-31 11:14:56 | 50.93890 | 8.91180 | 104° | 11km/h | 21587m | 4.2m/s | 0°C | 0% | 0hPa | 4.6V | 00:00:00 | 00:00:00 | 00:00:00 | |
| DO2JMG | 2026-08-31 11:14:55 | 50.93891 | 8.91172 | 103° | 13km/h | 21582m | 4.8m/s | 0°C | 0% | 0hPa | 4.6V | 00:00:00 | 00:00:00 | 00:00:00 | |
| DF1GD-15 | 2026-08-31 11:14:53 | 50.93892 | 8.91167 | 105° | 16km/h | 21579m | 3.4m/s | -51.3°C | 0% | 0hPa | 4.6V | 00:00:00 | 00:00:00 | 00:00:00 | |
| AA1-15 | 2026-08-31 11:14:52 | 50.93894 | 8.91155 | 116° | 13km/h | 21570m | 4.3m/s | -51.3°C | 0% | 0hPa | 4.6V | 00:00:00 | 00:00:00 | 00:00:00 | |
| DO2SHX-10 | 2026-08-31 11:14:51 | 50.93894 | 8.91155 | 116° | 11km/h | 21570m | 4.2m/s | 0°C | 0% | 0hPa | 4.6V | 00:00:00 | 00:00:00 | 00:00:00 | |
| GOEST3-10 | 2026-08-31 11:14:50 | 50.93895 | 8.91151 | 113° | 7km/h | 21558m | 4.4m/s | 0°C | 0% | 0hPa | 4.6V | 00:00:00 | 00:00:00 | 00:00:00 | |
| DO2SHX-10 | 2026-08-31 11:14:47 | 50.93895 | 8.91142 | 59° | 11km/h | 21549m | 5.1m/s | 0°C | 0% | 0hPa | 4.6V | 00:00:00 | 00:00:00 | 00:00:00 | |
| DO3DL | 2026-08-31 11:14:45 | 50.93893 | 8.91138 | 64° | 7km/h | 21544m | 3.9m/s | -51.1°C | 0% | 0hPa | 4.6V | 00:00:00 | 00:00:00 | 00:00:00 | |
| GOEST3-10 | 2026-08-31 11:14:44 | 50.93892 | 8.91136 | 81° | 13km/h | 21530m | 4.1m/s | 0°C | 0% | 0hPa | 4.6V | 00:00:00 | 00:00:00 | 00:00:00 | |
| DO2KSM | 2026-08-31 11:14:40 | 50.93890 | 8.91115 | 99° | 11km/h | 21522m | 3.7m/s | -51.2°C | 0% | 0hPa | 4.6V | 00:00:00 | 00:00:00 | 00:00:00 | |
| DO2JMG | 2026-08-31 11:14:39 | 50.93891 | 8.91111 | 93° | 11km/h | 21517m | 5.1m/s | -51.2°C | 0% | 0hPa | 4.6V | 00:00:00 | 00:00:00 | 00:00:00 | |
| GOEST3-10 | 2026-08-31 11:14:39 | 50.93891 | 8.91111 | 93° | 9km/h | 21513m | 4.2m/s | 0°C | 0% | 0hPa | 4.6V | 00:00:00 | 00:00:00 | 00:00:00 | |
| DM7RM-13 | 2026-08-31 11:14:38 | 50.93891 | 8.91106 | 84° | 11km/h | 21513m | 4.3m/s | -44.9°C | 0% | 0hPa | 4.6V | 00:00:00 | 00:00:00 | 00:00:00 | |
| DO3MHA-11 | 2026-08-31 11:14:37 | 50.93891 | 8.91102 | 72° | 7km/h | 21504m | 5.3m/s | 0°C | 0% | 0hPa | 4.6V | 00:00:00 | 00:00:00 | 00:00:00 | |
| DD1CC2-15 | 2026-08-31 11:14:35 | 50.93888 | 8.91094 | 41° | 7km/h | 21495m | 4.7m/s | -45.0°C | 0% | 0hPa | 4.6V | 00:00:00 | 00:00:00 | 00:00:00 | |
| GOEST3-10 | 2026-08-31 11:14:34 | 50.93888 | 8.91095 | 45° | 7km/h | 21491m | 4.4m/s | 0°C | 0% | 0hPa | 4.6V | 00:00:00 | 00:00:00 | 00:00:00 | |
| SP3BTT-10 | 2026-08-31 11:14:33 | 50.93886 | 8.91092 | 45° | 15km/h | 21486m | 4.2m/s | 0°C | 0% | 0hPa | 4.6V | 00:00:00 | 00:00:00 | 00:00:00 | |
| DF1GD-15 | 2026-08-31 11:14:32 | 50.93884 | 8.91090 | 48° | 9km/h | 21486m | 4.2m/s | -51.4°C | 0% | 0hPa | 4.6V | 00:00:00 | 00:00:00 | 00:00:00 | |
| DO2JMG | 2026-08-31 11:14:29 | 50.93881 | 8.91080 | 77° | 11km/h | 21469m | 4.9m/s | -51.4°C | 0% | 0hPa | 4.6V | 00:00:00 | 00:00:00 | 00:00:00 | |
| GOEST3-10 | 2026-08-31 11:14:29 | 50.93881 | 8.91085 | 78° | 9km/h | 21469m | 4.9m/s | 0°C | 0% | 0hPa | 4.6V | 00:00:00 | 00:00:00 | 00:00:00 | |
| DO3MHA-11 | 2026-08-31 11:14:27 | 50.93880 | 8.91075 | 78° | 11km/h | 21460m | 5.1m/s | 0°C | 0% | 0hPa | 4.6V | 00:00:00 | 00:00:00 | 00:00:00 | |
| DO3DL | 2026-08-31 11:14:26 | 50.93879 | 8.91070 | 78° | 13km/h | 21460m | 5.1m/s | -51.3°C | 0% | 0hPa | 4.6V | 00:00:00 | 00:00:00 | 00:00:00 | |
| GOEST3-10 | 2026-08-31 11:14:24 | 50.93878 | 8.91062 | 67° | 13km/h | 21443m | 4.3m/s | 0°C | 0% | 0hPa | 4.6V | 00:00:00 | 00:00:00 | 00:00:00 | |
| GOEST3-10 | 2026-08-31 11:14:19 | 50.93870 | 8.91041 | 63° | 15km/h | 21421m | 4.3m/s | 0°C | 0% | 0hPa | 4.6V | 00:00:00 | 00:00:00 | 00:00:00 | |
| DO2JMG | 2026-08-31 11:14:18 | 50.93869 | 8.91037 | 67° | 13km/h | 21425m | 4.9m/s | -51.4°C | 0% | 0hPa | 4.6V | 00:00:00 | 00:00:00 | 00:00:00 | |
| DO2SHX-10 | 2026-08-31 11:14:18 | 50.93869 | 8.91036 | 68° | 15km/h | 21403m | 4.4m/s | 0°C | 0% | 0hPa | 4.6V | 00:00:00 | 00:00:00 | 00:00:00 | |
| DO3MHA-11 | 2026-08-31 11:14:17 | 50.93867 | 8.91031 | 72° | 18km/h | 21417m | 4.1m/s | 0°C | 0% | 0hPa | 4.6V | 00:00:00 | 00:00:00 | 00:00:00 | |
| DO2SHX-10 | 2026-08-31 11:14:14 | 50.93864 | 8.91013 | 70° | 16km/h | 21403m | 4.4m/s | 0°C | 0% | 0hPa | 4.6V | 00:00:00 | 00:00:00 | 00:00:00 | |
| DD1CC2-15 | 2026-08-31 11:14:13 | 50.93862 | 8.91006 | 70° | 16km/h | 21403m | 4.4m/s | -45.3°C | 0% | 0hPa | 4.6V | 00:00:00 | 00:00:00 | 00:00:00 | |
| DF1GD-15 | 2026-08-31 11:14:12 | 50.93861 | 8.90999 | 64° | 20km/h | 21398m | 4.5m/s | -51.6°C | 0% | 0hPa | 4.6V | 00:00:00 | 00:00:00 | 00:00:00 | |
| DO2SHX-10 | 2026-08-31 11:14:11 | 50.93859 | 8.90992 | 57° | 22km/h | 21365m | 4.7m/s | 0°C | 0% | 0hPa | 4.6V | 00:00:00 | 00:00:00 | 00:00:00 | |
| GOEST3-10 | 2026-08-31 11:14:08 | 50.93849 | 8.90977 | 57° | 20km/h | 21378m | 4.9m/s | 0°C | 0% | 0hPa | 4.6V | 00:00:00 | 00:00:00 | 00:00:00 | |
| DO2JMG | 2026-08-31 11:14:07 | 50.93847 | 8.90969 | 52° | 18km/h | 21378m | 5m/s | -51.4°C | 0% | 0hPa | 4.6V | 00:00:00 | 00:00:00 | 00:00:00 | |
| DO3MHA-11 | 2026-08-31 11:14:07 | 50.93846 | 8.90969 | 53° | 22km/h | 21373m | 4.2m/s | 0°C | 0% | 0hPa | 4.5V | 00:00:00 | 00:00:00 | 00:00:00 | |
| DO3DL | 2026-08-31 11:14:06 | 50.93843 | 8.90962 | 57° | 22km/h | 21373m | 4.3m/s | -51.5°C | 0% | 0hPa | 4.5V | 00:00:00 | 00:00:00 | 00:00:00 | |
| GOEST3-10 | 2026-08-31 11:14:02 | 50.93832 | 8.90934 | 50° | 22km/h | 21352m | 4.1m/s | 0°C | 0% | 0hPa | 4.5V | 00:00:00 | 00:00:00 | 00:00:00 | |
| DO2SHX-10 | 2026-08-31 11:14:01 | 50.93827 | 8.90927 | 47° | 22km/h | 21352m | 4.1m/s | 0°C | 0% | 0hPa | 4.5V | 00:00:00 | 00:00:00 | 00:00:00 | |
| DO3DL | 2026-08-31 11:14:00 | 50.93823 | 8.90920 | 40° | 24km/h | 21348m | 3.7m/s | -51.6°C | 0% | 0hPa | 4.5V | 00:00:00 | 00:00:00 | 00:00:00 | |
| DO2KSM | 2026-08-31 11:13:58 | 50.93814 | 8.90910 | 30° | 20km/h | 21339m | 3.9m/s | -51.6°C | 0% | 0hPa | 4.5V | 00:00:00 | 00:00:00 | 00:00:00 | |
| DO2JMG | 2026-08-31 11:13:57 | 50.93810 | 8.90906 | 35° | 20km/h | 21334m | 4.7m/s | -51.5°C | 0% | 0hPa | 4.5V | 00:00:00 | 00:00:00 | 00:00:00 | |
| DO3MHA-11 | 2026-08-31 11:13:57 | 50.93810 | 8.90907 | 42° | 22km/h | 21331m | 3.8m/s | 0°C | 0% | 0hPa | 4.6V | 00:00:00 | 00:00:00 | 00:00:00 | |
| AA1-15 | 2026-08-31 11:13:56 | 50.93802 | 8.90896 | 46° | 20km/h | 21327m | 3.7m/s | -51.4°C | 0% | 0hPa | 4.6V | 00:00:00 | 00:00:00 | 00:00:00 | |
| DO3DL | 2026-08-31 11:13:54 | 50.93799 | 8.90890 | 47° | 20km/h | 21323m | 4.8m/s | -51.4°C | 0% | 0hPa | 4.6V | 00:00:00 | 00:00:00 | 00:00:00 | |
| DD1CC2-15 | 2026-08-31 11:13:53 | 50.93795 | 8.90884 | 48° | 20km/h | 21318m | 4.0m/s | -44.9°C | 0% | 0hPa | 4.6V | 00:00:00 | 00:00:00 | 00:00:00 | |
| DF1GD-15 | 2026-08-31 11:13:52 | 50.93791 | 8.90878 | 51° | 22km/h | 21309m | 4.1m/s | -51.2°C | 0% | 0hPa | 4.6V | 00:00:00 | 00:00:00 | 00:00:00 | |
| DJTTGO | 2026-08-31 11:13:49 | 50.93780 | 8.90856 | 47° | 20km/h | 21301m | 4.4m/s | -51.2°C | 0% | 0hPa | 4.6V | 00:00:00 | 00:00:00 | 00:00:00 | |
| DO3MHA-11 | 2026-08-31 11:13:47 | 50.93773 | 8.90847 | 43° | 20km/h | 21288m | 4.0m/s | 0°C | 0% | 0hPa | 4.6V | 00:00:00 | 00:00:00 | 00:00:00 | |
| AA1-15 | 2026-08-31 11:13:44 | 50.93760 | 8.90826 | 42° | 18km/h | 21276m | 3.8m/s | -51.1°C | 0% | 0hPa | 4.6V | 00:00:00 | 00:00:00 | 00:00:00 | |
| GOEST3-10 | 2026-08-31 11:13:42 | 50.93756 | 8.90821 | 46° | 20km/h | 21272m | 3.8m/s | 0°C | 0% | 0hPa | 0V | 00:00:00 | 00:00:00 | 00:00:00 | |
| DO3DL | 2026-08-31 11:13:41 | 50.93753 | 8.90815 | 52° | 22km/h | 21268m | 4.2m/s | -51.1°C | 0% | 0hPa | 0V | 00:00:00 | 00:00:00 | 00:00:00 | |
| DO2KSM | 2026-08-31 11:13:38 | 50.93743 | 8.90794 | 52° | 18km/h | 21256m | 3.8m/s | -51.1°C | 0% | 0hPa | 0V | 00:00:00 | 00:00:00 | 00:00:00 | |
| DO3MHA-11 | 2026-08-31 11:13:37 | 50.93740 | 8.90789 | 46° | 20km/h | 21248m | 4.7m/s | 0°C | 0% | 0hPa | 0V | 00:00:00 | 00:00:00 | 00:00:00 | |
| BIOWL1-15 | 2026-08-31 11:13:36 | 50.93725 | 8.90769 | 37° | 18km/h | 21235m | 4.4m/s | 0°C | 0% | 0hPa | 0V | 00:00:00 | 00:00:00 | 00:00:00 | |
| DM7RM-13 | 2026-08-31 11:13:36 | 50.93733 | 8.90779 | 41° | 22km/h | 21243m | 3.9m/s | -44.8°C | 0% | 0hPa | 4.6V | 00:00:00 | 00:00:00 | 00:00:00 | |
| DO3DL | 2026-08-31 11:13:34 | 50.93729 | 8.90774 | 38° | 20km/h | 21239m | 4.0m/s | -51.2°C | 0% | 0hPa | 4.6V | 00:00:00 | 00:00:00 | 00:00:00 | |
| AA1-15 | 2026-08-31 11:13:33 | 50.93721 | 8.90765 | 41° | 18km/h | 21231m | 3.2m/s | -51.2°C | 0% | 0hPa | 4.6V | 00:00:00 | 00:00:00 | 00:00:00 | |
| GOEST3-10 | 2026-08-31 11:13:32 | 50.93721 | 8.90764 | 42° | 20km/h | 21227m | 4.8m/s | 0°C | 0% | 0hPa | 4.6V | 00:00:00 | 00:00:00 | 00:00:00 | |
| DF1GD-15 | 2026-08-31 11:13:31 | 50.93718 | 8.90760 | 47° | 20km/h | 21227m | 4.9m/s | -51.2°C | 0% | 0hPa | 4.6V | 00:00:00 | 00:00:00 | 00:00:00 | |
| DO3DL | 2026-08-31 11:13:29 | 50.93708 | 8.90739 | 54° | 20km/h | 21215m | 4.3m/s | -51.2°C | 0% | 0hPa | 4.6V | 00:00:00 | 00:00:00 | 00:00:00 | |
| DO3MHA-11 | 2026-08-31 11:13:27 | 50.93705 | 8.90733 | 37° | 18km/h | 21208m | 3.5m/s | 0°C | 0% | 0hPa | 4.6V | 00:00:00 | 00:00:00 | 00:00:00 | |
| AA1-15 | 2026-08-31 11:13:23 | 50.93686 | 8.90713 | 31° | 16km/h | 21191m | 3.9m/s | -51.1°C | 0% | 0hPa | 4.6V | 00:00:00 | 00:00:00 | 00:00:00 | |
| GOEST3-10 | 2026-08-31 11:13:22 | 50.93686 | 8.90713 | 32° | 18km/h | 21188m | 3.5m/s | 0°C | 0% | 0hPa | 4.6V | 00:00:00 | 00:00:00 | 00:00:00 | |
| SP3BTT-10 | 2026-08-31 11:13:21 | 50.93682 | 8.90709 | 37° | 18km/h | 21184m | 4.3m/s | 0°C | 0% | 0hPa | 4.6V | 00:00:00 | 00:00:00 | 00:00:00 | |
| DO3MHA-11 | 2026-08-31 11:13:17 | 50.93668 | 8.90689 | 43° | 18km/h | 21168m | 3.4m/s | 0°C | 0% | 0hPa | 4.6V | 00:00:00 | 00:00:00 | 00:00:00 | |
| DO3DL | 2026-08-31 11:13:16 | 50.93661 | 8.90680 | 33° | 20km/h | 21163m | 4.5m/s | -50.8°C | 0% | 0hPa | 4.6V | 00:00:00 | 00:00:00 | 00:00:00 | |
| DM7RM-13 | 2026-08-31 11:13:15 | 50.93661 | 8.90680 | 33° | 20km/h | 21163m | 4.5m/s | -44.4°C | 0% | 0hPa | 4.6V | 00:00:00 | 00:00:00 | 00:00:00 | |
| HSKMA3-T | 2026-08-31 11:13:12 | 50.93648 | 8.90670 | 20° | 16km/h | 21151m | 3.6m/s | -50.8°C | 0% | 0hPa | 4.6V | 00:00:00 | 00:00:00 | 00:00:00 | |
| AA1-15 | 2026-08-31 11:13:12 | 50.93644 | 8.90668 | 22° | 18km/h | 21148m | 3.6m/s | -50.8°C | 0% | 0hPa | 4.6V | 00:00:00 | 00:00:00 | 00:00:00 | |
| GOEST3-10 | 2026-08-31 11:13:12 | 50.93648 | 8.90673 | 28° | 18km/h | 21148m | 3.5m/s | 0°C | 0% | 0hPa | 0V | 00:00:00 | 00:00:00 | 00:00:00 | |
| DF1GD-15 | 2026-08-31 11:13:10 | 50.93640 | 8.90665 | 29° | 20km/h | 21144m | 4.5m/s | -50.8°C | 0% | 0hPa | 0V | 00:00:00 | 00:00:00 | 00:00:00 | |
| DO3DL | 2026-08-31 11:13:09 | 50.93630 | 8.90656 | 37° | 20km/h | 21135m | 4.7m/s | -50.8°C | 0% | 0hPa | 0V | 00:00:00 | 00:00:00 | 00:00:00 | |
| DO3MHA-11 | 2026-08-31 11:13:07 | 50.93627 | 8.90652 | 37° | 18km/h | 21127m | 3.7m/s | 0°C | 0% | 0hPa | 0V | 00:00:00 | 00:00:00 | 00:00:00 | |
| GOEST3-10 | 2026-08-31 11:13:06 | 50.93623 | 8.90648 | 35° | 18km/h | 21123m | 4.2m/s | 0°C | 0% | 0hPa | 0V | 00:00:00 | 00:00:00 | 00:00:00 | |
| DO3DL | 2026-08-31 11:13:02 | 50.93606 | 8.90634 | 14° | 18km/h | 21111m | 3.8m/s | -51.0°C | 0% | 0hPa | 0V | 00:00:00 | 00:00:00 | 00:00:00 | |
| GOEST3-10 | 2026-08-31 11:13:01 | 50.93602 | 8.90633 | 14° | 20km/h | 21107m | 4.0m/s | 0°C | 0% | 0hPa | 0V | 00:00:00 | 00:00:00 | 00:00:00 | |
| AA1-15 | 2026-08-31 11:13:01 | 50.93597 | 8.90631 | 18° | 20km/h | 21103m | 4.1m/s | -51°C | 0% | 0hPa | 4.6V | 00:00:00 | 00:00:00 | 00:00:00 | |
| BIOWL1-15 | 2026-08-31 11:12:57 | 50.93584 | 8.90622 | 34° | 16km/h | 21091m | 3.6m/s | 0°C | 0% | 0hPa | 0V | 00:00:00 | 00:00:00 | 00:00:00 | |
| DO3MHA-11 | 2026-08-31 11:12:57 | 50.93584 | 8.90622 | 35° | 18km/h | 21091m | 3.6m/s | 0°C | 0% | 0hPa | 4.6V | 00:00:00 | 00:00:00 | 00:00:00 | |
| GOEST3-10 | 2026-08-31 11:12:56 | 50.93580 | 8.90618 | 41° | 16km/h | 21080m | 3.5m/s | 0°C | 0% | 0hPa | 4.6V | 00:00:00 | 00:00:00 | 00:00:00 | |
| DO2KSM | 2026-08-31 11:12:55 | 50.93577 | 8.90614 | 43° | 18km/h | 21083m | 4.4m/s | -50.9°C | 0% | 0hPa | 4.6V | 00:00:00 | 00:00:00 | 00:00:00 | |
| DM7RM-13 | 2026-08-31 11:12:54 | 50.93574 | 8.90608 | 40° | 20km/h | 21080m | 3.5m/s | -44.4°C | 0% | 0hPa | 4.6V | 00:00:00 | 00:00:00 | 00:00:00 | |
| DD1CC2-15 | 2026-08-31 11:12:51 | 50.93563 | 8.90598 | 15° | 16km/h | 21068m | 3.3m/s | -44.6°C | 0% | 0hPa | 4.6V | 00:00:00 | 00:00:00 | 00:00:00 | |
| AA1-15 | 2026-08-31 11:12:50 | 50.93554 | 8.90595 | 11° | 20km/h | 21060m | 3.4m/s | -50.9°C | 0% | 0hPa | 4.6V | 00:00:00 | 00:00:00 | 00:00:00 | |
| DF1GD-15 | 2026-08-31 11:12:49 | 50.93554 | 8.90595 | 12° | 20km/h | 21060m | 3.4m/s | -50.9°C | 0% | 0hPa | 4.6V | 00:00:00 | 00:00:00 | 00:00:00 | |
| HSKMA3-T | 2026-08-31 11:12:46 | 50.93540 | 8.90592 | 8° | 15km/h | 21049m | 3.3m/s | -51°C | 0% | 0hPa | 4.6V | 00:00:00 | 00:00:00 | 00:00:00 | |
| DO3MHA-11 | 2026-08-31 11:12:46 | 50.93540 | 8.90595 | 21° | 16km/h | 21041m | 3.9m/s | 0°C | 0% | 0hPa | 4.6V | 00:00:00 | 00:00:00 | 00:00:00 | |
| GOEST3-10 | 2026-08-31 11:12:44 | 50.93532 | 8.90590 | 33° | 15km/h | 21038m | 3.0m/s | 0°C | 0% | 0hPa | 4.6V | 00:00:00 | 00:00:00 | 00:00:00 | |
| DO3DL | 2026-08-31 11:12:42 | 50.93525 | 8.90584 | 34° | 16km/h | 21034m | 4.1m/s | -50.9°C | 0% | 0hPa | 4.6V | 00:00:00 | 00:00:00 | 00:00:00 | |
| AA1-15 | 2026-08-31 11:12:40 | 50.93516 | 8.90574 | 31° | 15km/h | 21022m | 4.5m/s | -51°C | 0% | 0hPa | 4.6V | 00:00:00 | 00:00:00 | 00:00:00 | |
| GOEST3-10 | 2026-08-31 11:12:38 | 50.93512 | 8.90571 | 27° | 15km/h | 21015m | 3.5m/s | 0°C | 0% | 0hPa | 4.6V | 00:00:00 | 00:00:00 | 00:00:00 | |
| DO3MHA-11 | 2026-08-31 11:12:36 | 50.93505 | 8.90565 | 22° | 13km/h | 21003m | 3.8m/s | 0°C | 0% | 0hPa | 4.6V | 00:00:00 | 00:00:00 | 00:00:00 | |
| GOEST3-10 | 2026-08-31 11:12:33 | 50.93497 | 8.90561 | 24° | 15km/h | 21000m | 3.6m/s | 0°C | 0% | 0hPa | 4.6V | 00:00:00 | 00:00:00 | 00:00:00 | |
| DD1CC2-15 | 2026-08-31 11:12:31 | 50.93491 | 8.90556 | 52° | 13km/h | 20992m | 4.4m/s | -44.5°C | 0% | 0hPa | 4.6V | 00:00:00 | 00:00:00 | 00:00:00 | |
| DO3DL | 2026-08-31 11:12:30 | 50.93489 | 8.90551 | 62° | 13km/h | 20988m | 3.7m/s | -50.9°C | 0% | 0hPa | 4.6V | 00:00:00 | 00:00:00 | 00:00:00 | |
| AA1-15 | 2026-08-31 11:12:29 | 50.93485 | 8.90541 | 58° | 16km/h | 20980m | 3m/s | -50.9°C | 0% | 0hPa | 4.6V | 00:00:00 | 00:00:00 | 00:00:00 | |
| GOEST3-10 | 2026-08-31 11:12:26 | 50.93482 | 8.90532 | 60° | 11km/h | 20964m | 3.8m/s | 0°C | 0% | 0hPa | 4.6V | 00:00:00 | 00:00:00 | 00:00:00 | |
| DF1GD-15 | 2026-08-31 11:12:25 | 50.93480 | 8.90527 | 53° | 11km/h | 20968m | 3.6m/s | -51.1°C | 0% | 0hPa | 4.6V | 00:00:00 | 00:00:00 | 00:00:00 | |
| DO3DL | 2026-08-31 11:12:24 | 50.93477 | 8.90522 | 29° | 13km/h | 20960m | 4.2m/s | -51.2°C | 0% | 0hPa | 4.6V | 00:00:00 | 00:00:00 | 00:00:00 | |
| GOEST3-10 | 2026-08-31 11:12:21 | 50.93471 | 8.90517 | 38° | 13km/h | 20950m | 3.3m/s | 0°C | 0% | 0hPa | 4.6V | 00:00:00 | 00:00:00 | 00:00:00 | |
| AA1-15 | 2026-08-31 11:12:18 | 50.93464 | 8.90503 | 70° | 13km/h | 20939m | 3m/s | -51.4°C | 0% | 0hPa | 4.6V | 00:00:00 | 00:00:00 | 00:00:00 | |
| DO3DL | 2026-08-31 11:12:17 | 50.93464 | 8.90503 | 71° | 13km/h | 20939m | 3.0m/s | -51.4°C | 0% | 0hPa | 4.6V | 00:00:00 | 00:00:00 | 00:00:00 | |
| DO3MHA-11 | 2026-08-31 11:12:16 | 50.93462 | 8.90498 | 80° | 9km/h | 20932m | 3.6m/s | 0°C | 0% | 0hPa | 4.6V | 00:00:00 | 00:00:00 | 00:00:00 | |
| HSKMA3-T | 2026-08-31 11:12:16 | 50.93462 | 8.90493 | 86° | 15km/h | 20932m | 3.7m/s | -51.4°C | 0% | 0hPa | 4.6V | 00:00:00 | 00:00:00 | 00:00:00 | |
| DM7RM-13 | 2026-08-31 11:12:12 | 50.93460 | 8.90477 | 55° | 13km/h | 20921m | 3.6m/s | -45.0°C | 0% | 0hPa | 4.6V | 00:00:00 | 00:00:00 | 00:00:00 | |
| GOEST3-10 | 2026-08-31 11:12:10 | 50.93457 | 8.90470 | 49° | 7km/h | 20902m | 3.4m/s | 0°C | 0% | 0hPa | 4.6V | 00:00:00 | 00:00:00 | 00:00:00 | |
| AA1-15 | 2026-08-31 11:12:07 | 50.93453 | 8.90464 | 69° | 5km/h | 20898m | 3.5m/s | -51.6°C | 0% | 0hPa | 4.6V | 00:00:00 | 00:00:00 | 00:00:00 | |
| DO2KSM | 2026-08-31 11:12:06 | 50.93452 | 8.90461 | 81° | 9km/h | 20894m | 4.0m/s | -51.6°C | 0% | 0hPa | 4.6V | 00:00:00 | 00:00:00 | 00:00:00 | |
| HSKMA3-T | 2026-08-31 11:12:05 | 50.93452 | 8.90457 | 79° | 11km/h | 20890m | 3.6m/s | -51.7°C | 0% | 0hPa | 4.6V | 00:00:00 | 00:00:00 | 00:00:00 | |
| DO3MHA-11 | 2026-08-31 11:12:05 | 50.93452 | 8.90462 | 79° | 9km/h | 20890m | 3.5m/s | 0°C | 0% | 0hPa | 4.6V | 00:00:00 | 00:00:00 | 00:00:00 | |
| GOEST3-10 | 2026-08-31 11:12:04 | 50.93452 | 8.90457 | 79° | 11km/h | 20879m | 4.1m/s | 0°C | 0% | 0hPa | 4.6V | 00:00:00 | 00:00:00 | 00:00:00 | |
| GOEST3-10 | 2026-08-31 11:11:59 | 50.93447 | 8.90432 | 69° | 7km/h | 20856m | 3.6m/s | 0°C | 0% | 0hPa | 4.6V | 00:00:00 | 00:00:00 | 00:00:00 | |
| DO3DL | 2026-08-31 11:11:58 | 50.93445 | 8.90428 | 68° | 5km/h | 20864m | 2.8m/s | -51.9°C | 0% | 0hPa | 4.6V | 00:00:00 | 00:00:00 | 00:00:00 | |
| AA1-15 | 2026-08-31 11:11:56 | 50.93445 | 8.90424 | 101° | 9km/h | 20856m | 3.7m/s | -51.9°C | 0% | 0hPa | 4.6V | 00:00:00 | 00:00:00 | 00:00:00 | |
| DO3MHA-11 | 2026-08-31 11:11:55 | 50.93445 | 8.90424 | 101° | 16km/h | 20853m | 2.9m/s | 0°C | 0% | 0hPa | 4.7V | 00:00:00 | 00:00:00 | 00:00:00 | |
| GOEST3-10 | 2026-08-31 11:11:54 | 50.93445 | 8.90419 | 98° | 15km/h | 20853m | 2.9m/s | 0°C | 0% | 0hPa | 4.7V | 00:00:00 | 00:00:00 | 00:00:00 | |
| DM7RM-13 | 2026-08-31 11:11:52 | 50.93444 | 8.90397 | 77° | 22km/h | 20842m | 3.4m/s | -45.5°C | 0% | 0hPa | 4.7V | 00:00:00 | 00:00:00 | 00:00:00 | |
| DO3DL | 2026-08-31 11:11:51 | 50.93444 | 8.90397 | 77° | 22km/h | 20842m | 3.4m/s | -51.8°C | 0% | 0hPa | 4.7V | 00:00:00 | 00:00:00 | 00:00:00 | |
| DD1CC2-15 | 2026-08-31 11:11:50 | 50.93443 | 8.90389 | 79° | 22km/h | 20837m | 4.6m/s | -45.5°C | 0% | 0hPa | 4.7V | 00:00:00 | 00:00:00 | 00:00:00 | |
| DO2JMG | 2026-08-31 11:11:48 | 50.93441 | 8.90374 | 74° | 18km/h | 20830m | 3.7m/s | 0°C | 0% | 0hPa | 4.7V | 00:00:00 | 00:00:00 | 00:00:00 | |
| AA1-15 | 2026-08-31 11:11:46 | 50.93437 | 8.90356 | 75° | 15km/h | 20818m | 4.6m/s | -51.9°C | 0% | 0hPa | 4.6V | 00:00:00 | 00:00:00 | 00:00:00 | |
| DO3MHA-11 | 2026-08-31 11:11:45 | 50.93437 | 8.90356 | 76° | 18km/h | 20814m | 3.1m/s | 0°C | 0% | 0hPa | 4.6V | 00:00:00 | 00:00:00 | 00:00:00 | |
| DO3DL | 2026-08-31 11:11:44 | 50.93436 | 8.90351 | 81° | 15km/h | 20814m | 3.2m/s | -51.9°C | 0% | 0hPa | 4.6V | 00:00:00 | 00:00:00 | 00:00:00 | |
| DO3DL | 2026-08-31 11:11:38 | 50.93427 | 8.90308 | 69° | 20km/h | 20790m | 3.8m/s | -52.0°C | 0% | 0hPa | 4.6V | 00:00:00 | 00:00:00 | 00:00:00 | |
| AA1-15 | 2026-08-31 11:11:35 | 50.93420 | 8.90280 | 70° | 18km/h | 20773m | 3.5m/s | -52.1°C | 0% | 0hPa | 4.6V | 00:00:00 | 00:00:00 | 00:00:00 | |
| DO3MHA-11 | 2026-08-31 11:11:35 | 50.93421 | 8.90288 | 70° | 22km/h | 20774m | 3.4m/s | 0°C | 0% | 0hPa | 4.6V | 00:00:00 | 00:00:00 | 00:00:00 | |
| DO3DL | 2026-08-31 11:11:32 | 50.93414 | 8.90257 | 69° | 24km/h | 20761m | 4.4m/s | -52.1°C | 0% | 0hPa | 4.6V | 00:00:00 | 00:00:00 | 00:00:00 | |
| DM7RM-13 | 2026-08-31 11:11:31 | 50.93414 | 8.90257 | 69° | 24km/h | 20761m | 4.4m/s | -45.8°C | 0% | 0hPa | 4.6V | 00:00:00 | 00:00:00 | 00:00:00 | |
| DD1CC2-15 | 2026-08-31 11:11:29 | 50.93409 | 8.90239 | 70° | 26km/h | 20753m | 3.9m/s | -45.8°C | 0% | 0hPa | 4.6V | 00:00:00 | 00:00:00 | 00:00:00 | |
| DO2KSM | 2026-08-31 11:11:25 | 50.93397 | 8.90199 | 73° | 18km/h | 20734m | 3.0m/s | -52.0°C | 0% | 0hPa | 4.6V | 00:00:00 | 00:00:00 | 00:00:00 | |
| AA1-15 | 2026-08-31 11:11:24 | 50.93396 | 8.90192 | 67° | 18km/h | 20730m | 5m/s | -52°C | 0% | 0hPa | 4.6V | 00:00:00 | 00:00:00 | 00:00:00 | |
| BIOWL1-15 | 2026-08-31 11:11:20 | 50.93390 | 8.90172 | 68° | 20km/h | 20718m | 4.7m/s | -51.9°C | 0% | 0hPa | 4.6V | 00:00:00 | 00:00:00 | 00:00:00 | |
| DO3DL | 2026-08-31 11:11:18 | 50.93386 | 8.90156 | 67° | 22km/h | 20711m | 4.1m/s | -51.9°C | 0% | 0hPa | 4.6V | 00:00:00 | 00:00:00 | 00:00:00 | |
| DF1GD-15 | 2026-08-31 11:11:17 | 50.93384 | 8.90149 | 62° | 22km/h | 20702m | 3.3m/s | -51.9°C | 0% | 0hPa | 4.6V | 00:00:00 | 00:00:00 | 00:00:00 | |
| DO3MHA-11 | 2026-08-31 11:11:15 | 50.93379 | 8.90134 | 68° | 18km/h | 20694m | 3.5m/s | 0°C | 0% | 0hPa | 4.6V | 00:00:00 | 00:00:00 | 00:00:00 | |
| AA1-15 | 2026-08-31 11:11:13 | 50.93375 | 8.90114 | 71° | 16km/h | 20687m | 4.5m/s | -51.8°C | 0% | 0hPa | 4.6V | 00:00:00 | 00:00:00 | 00:00:00 | |
| DO3DL | 2026-08-31 11:11:12 | 50.93375 | 8.90114 | 72° | 16km/h | 20687m | 4.5m/s | -51.8°C | 0% | 0hPa | 4.6V | 00:00:00 | 00:00:00 | 00:00:00 | |
| DM7RM-13 | 2026-08-31 11:11:10 | 50.93372 | 8.90101 | 74° | 18km/h | 20679m | 3.7m/s | -45.4°C | 0% | 0hPa | 4.6V | 00:00:00 | 00:00:00 | 00:00:00 | |
| BIOWL1-15 | 2026-08-31 11:11:10 | 50.93371 | 8.90094 | 81° | 18km/h | 20675m | 4.8m/s | -51.8°C | 0% | 0hPa | 4.5V | 00:00:00 | 00:00:00 | 00:00:00 | |
| DD1CC2-15 | 2026-08-31 11:11:09 | 50.93370 | 8.90094 | 82° | 18km/h | 20675m | 4.8m/s | -45.4°C | 0% | 0hPa | 4.6V | 00:00:00 | 00:00:00 | 00:00:00 | |
| DO3DL | 2026-08-31 11:11:06 | 50.93369 | 8.90073 | 77° | 18km/h | 20662m | 4.6m/s | -51.8°C | 0% | 0hPa | 4.6V | 00:00:00 | 00:00:00 | 00:00:00 | |
| DO3MHA-11 | 2026-08-31 11:11:05 | 50.93368 | 8.90065 | 76° | 15km/h | 20654m | 4.1m/s | 0°C | 0% | 0hPa | 4.6V | 00:00:00 | 00:00:00 | 00:00:00 | |
| DO2KSM | 2026-08-31 11:11:03 | 50.93366 | 8.90053 | 82° | 15km/h | 20650m | 4.1m/s | -51.7°C | 0% | 0hPa | 4.6V | 00:00:00 | 00:00:00 | 00:00:00 | |
| AA1-15 | 2026-08-31 11:11:02 | 50.93365 | 8.90048 | 81° | 13km/h | 20646m | 3.2m/s | -51.7°C | 0% | 0hPa | 4.6V | 00:00:00 | 00:00:00 | 00:00:00 | |
| DL3OBA | 2026-08-31 11:11:00 | 50.93362 | 8.90032 | 75° | 13km/h | 20635m | 3.2m/s | -51.5°C | 0% | 0hPa | 4.6V | 00:00:00 | 00:00:00 | 00:00:00 | |
| DO3DL | 2026-08-31 11:10:59 | 50.93362 | 8.90032 | 75° | 13km/h | 20635m | 3.2m/s | -51.6°C | 0% | 0hPa | 4.6V | 00:00:00 | 00:00:00 | 00:00:00 | |
| DO3MHA-11 | 2026-08-31 11:10:55 | 50.93362 | 8.90014 | 91° | 13km/h | 20614m | 3.4m/s | 0°C | 0% | 0hPa | 4.6V | 00:00:00 | 00:00:00 | 00:00:00 | |
| DF1GD-15 | 2026-08-31 11:10:54 | 50.93362 | 8.90008 | 92° | 15km/h | 20614m | 3.5m/s | -51.4°C | 0% | 0hPa | 4.6V | 00:00:00 | 00:00:00 | 00:00:00 | |
| DO3DL | 2026-08-31 11:10:53 | 50.93362 | 8.90003 | 97° | 15km/h | 20610m | 4.8m/s | -51.4°C | 0% | 0hPa | 4.6V | 00:00:00 | 00:00:00 | 00:00:00 | |
| BIOWL1-15 | 2026-08-31 11:10:52 | 50.93362 | 8.89997 | 103° | 15km/h | 20605m | 4m/s | -51.4°C | 0% | 0hPa | 4.6V | 00:00:00 | 00:00:00 | 00:00:00 | |
| AA1-15 | 2026-08-31 11:10:52 | 50.93363 | 8.89992 | 100° | 15km/h | 20601m | 3.9m/s | -51.4°C | 0% | 0hPa | 4.6V | 00:00:00 | 00:00:00 | 00:00:00 | |
| DM7RM-13 | 2026-08-31 11:10:50 | 50.93364 | 8.89986 | 97° | 13km/h | 20597m | 4.3m/s | -45.0°C | 0% | 0hPa | 4.6V | 00:00:00 | 00:00:00 | 00:00:00 | |
| GOEST3-10 | 2026-08-31 11:10:48 | 50.93364 | 8.89977 | 105° | 13km/h | 20585m | 3.8m/s | 0°C | 0% | 0hPa | 4.6V | 00:00:00 | 00:00:00 | 00:00:00 | |
| DO3DL | 2026-08-31 11:10:46 | 50.93366 | 8.89969 | 102° | 9km/h | 20582m | 3.7m/s | -51.4°C | 0% | 0hPa | 4.6V | 00:00:00 | 00:00:00 | 00:00:00 | |
| DO3MHA-11 | 2026-08-31 11:10:45 | 50.93366 | 8.89966 | 93° | 13km/h | 20574m | 3.1m/s | 0°C | 0% | 0hPa | 4.6V | 00:00:00 | 00:00:00 | 00:00:00 | |
| BIOWL1-15 | 2026-08-31 11:10:43 | 50.93370 | 8.89934 | 111° | 15km/h | 20548m | 4.9m/s | -51.5°C | 0% | 0hPa | 4.6V | 00:00:00 | 00:00:00 | 00:00:00 | |
| AA1-15 | 2026-08-31 11:10:41 | 50.93368 | 8.89944 | 104° | 13km/h | 20557m | 4.5m/s | -51.4°C | 0% | 0hPa | 4.6V | 00:00:00 | 00:00:00 | 00:00:00 | |
| GOEST3-10 | 2026-08-31 11:10:40 | 50.93368 | 8.89944 | 104° | 18km/h | 20553m | 3.7m/s | 0°C | 0% | 0hPa | 4.7V | 00:00:00 | 00:00:00 | 00:00:00 | |
| DO3MHA-11 | 2026-08-31 11:10:35 | 50.93373 | 8.89919 | 93° | 11km/h | 20533m | 3.3m/s | 0°C | 0% | 0hPa | 4.7V | 00:00:00 | 00:00:00 | 00:00:00 | |
| DO3DL | 2026-08-31 11:10:33 | 50.93373 | 8.89911 | 96° | 9km/h | 20528m | 5.0m/s | -51.5°C | 0% | 0hPa | 4.7V | 00:00:00 | 00:00:00 | 00:00:00 | |
| AA1-15 | 2026-08-31 11:10:30 | 50.93374 | 8.89895 | 87° | 13km/h | 20512m | 4.1m/s | -51.5°C | 0% | 0hPa | 4.7V | 00:00:00 | 00:00:00 | 00:00:00 | |
| DM7RM-13 | 2026-08-31 11:10:29 | 50.93374 | 8.89895 | 88° | 13km/h | 20512m | 4.1m/s | -45.1°C | 0% | 0hPa | 4.5V | 00:00:00 | 00:00:00 | 00:00:00 | |
| HSKMA3-T | 2026-08-31 11:10:28 | 51.23876 | 9.67690 | 59° | 120km/h | 9618m | -2.7m/s | 0°C | 0% | 0hPa | 4.5V | 00:00:00 | 00:00:00 | 00:00:00 | |
| DD1CC2-15 | 2026-08-31 11:10:28 | 50.93373 | 8.89884 | 100° | 15km/h | 20504m | 4.8m/s | -45.1°C | 0% | 0hPa | 4.7V | 00:00:00 | 00:00:00 | 00:00:00 | |
| DO3DL | 2026-08-31 11:10:27 | 50.93373 | 8.89884 | 100° | 15km/h | 20504m | 4.8m/s | -51.5°C | 0% | 0hPa | 4.7V | 00:00:00 | 00:00:00 | 00:00:00 | |
| DO3MHA-11 | 2026-08-31 11:10:25 | 50.93375 | 8.89873 | 99° | 16km/h | 20491m | 4.3m/s | 0°C | 0% | 0hPa | 4.7V | 00:00:00 | 00:00:00 | 00:00:00 | |
| DO2KSM | 2026-08-31 11:10:22 | 50.93374 | 8.89858 | 75° | 13km/h | 20484m | 4.7m/s | -51.3°C | 0% | 0hPa | 4.7V | 00:00:00 | 00:00:00 | 00:00:00 | |
| AA1-15 | 2026-08-31 11:10:20 | 50.93371 | 8.89839 | 65° | 18km/h | 20471m | 5m/s | -51.3°C | 0% | 0hPa | 4.7V | 00:00:00 | 00:00:00 | 00:00:00 | |
| DO2JMG | 2026-08-31 11:10:17 | 50.93365 | 8.89818 | 81° | 20km/h | 20458m | 4.2m/s | -51.2°C | 0% | 0hPa | 4.5V | 00:00:00 | 00:00:00 | 00:00:00 | |
| DO3MHA-11 | 2026-08-31 11:10:15 | 50.93364 | 8.89809 | 81° | 18km/h | 20451m | 4.6m/s | 0°C | 0% | 0hPa | 4.7V | 00:00:00 | 00:00:00 | 00:00:00 | |
| DO3DL | 2026-08-31 11:10:14 | 50.93364 | 8.89802 | 82° | 18km/h | 20451m | 4.7m/s | -51.2°C | 0% | 0hPa | 4.7V | 00:00:00 | 00:00:00 | 00:00:00 | |
| DL8DAS-15 | 2026-08-31 11:10:11 | 50.93360 | 8.89784 | 68° | 16km/h | 20439m | 4.8m/s | -51.1°C | 0% | 0hPa | 4.7V | 00:00:00 | 00:00:00 | 00:00:00 | |
| AA1-15 | 2026-08-31 11:10:09 | 50.93354 | 8.89764 | 57° | 20km/h | 20426m | 4.5m/s | -51°C | 0% | 0hPa | 4.7V | 00:00:00 | 00:00:00 | 00:00:00 | |
| DM7RM-13 | 2026-08-31 11:10:09 | 50.93354 | 8.89764 | 57° | 20km/h | 20427m | 4.6m/s | -44.6°C | 0% | 0hPa | 4.7V | 00:00:00 | 00:00:00 | 00:00:00 | |
| BIOWL1-15 | 2026-08-31 11:10:08 | 50.93342 | 8.89714 | 73° | 20km/h | 20401m | 3.8m/s | -51°C | 0% | 0hPa | 4.7V | 00:00:00 | 00:00:00 | 00:00:00 | |
| DD1CC2-15 | 2026-08-31 11:10:08 | 50.93351 | 8.89757 | 57° | 20km/h | 20423m | 3.4m/s | -44.6°C | 0% | 0hPa | 4.7V | 00:00:00 | 00:00:00 | 00:00:00 | |
| DO3MHA-11 | 2026-08-31 11:10:05 | 50.93346 | 8.89741 | 74° | 20km/h | 20410m | 3.1m/s | 0°C | 0% | 0hPa | 4.7V | 00:00:00 | 00:00:00 | 00:00:00 | |
| DO3DL | 2026-08-31 11:10:02 | 50.93341 | 8.89714 | 74° | 20km/h | 20401m | 3.8m/s | -51.0°C | 0% | 0hPa | 4.7V | 00:00:00 | 00:00:00 | 00:00:00 | |
| AA1-15 | 2026-08-31 11:09:58 | 50.93335 | 8.89681 | 61° | 18km/h | 20380m | 4.2m/s | -50.8°C | 0% | 0hPa | 4.7V | 00:00:00 | 00:00:00 | 00:00:00 | |
| DO2JMG | 2026-08-31 11:09:55 | 50.93330 | 8.89667 | 67° | 24km/h | 20372m | 4.6m/s | -50.9°C | 0% | 0hPa | 4.7V | 00:00:00 | 00:00:00 | 00:00:00 | |
| DO3DL | 2026-08-31 11:09:55 | 50.93328 | 8.89658 | 72° | 26km/h | 20369m | 3.2m/s | -50.9°C | 0% | 0hPa | 4.7V | 00:00:00 | 00:00:00 | 00:00:00 | |
| BIOWL1-15 | 2026-08-31 11:09:50 | 50.93318 | 8.89609 | 65° | 18km/h | 20344m | 4.9m/s | -50.8°C | 0% | 0hPa | 4.7V | 00:00:00 | 00:00:00 | 00:00:00 | |
| DM7RM-13 | 2026-08-31 11:09:48 | 50.93317 | 8.89609 | 66° | 18km/h | 20344m | 4.9m/s | -44.3°C | 0% | 0hPa | 4.7V | 00:00:00 | 00:00:00 | 00:00:00 | |
| AA1-15 | 2026-08-31 11:09:47 | 50.93313 | 8.89597 | 56° | 20km/h | 20335m | 3.6m/s | -50.7°C | 0% | 0hPa | 4.7V | 00:00:00 | 00:00:00 | 00:00:00 | |
| DO2JMG | 2026-08-31 11:09:45 | 50.93307 | 8.89582 | 65° | 24km/h | 20327m | 3.6m/s | -50.7°C | 0% | 0hPa | 4.7V | 00:00:00 | 00:00:00 | 00:00:00 | |
| DO3DL | 2026-08-31 11:09:42 | 50.93302 | 8.89565 | 61° | 22km/h | 20319m | 4.6m/s | -50.7°C | 0% | 0hPa | 4.7V | 00:00:00 | 00:00:00 | 00:00:00 | |
| DO2KSM | 2026-08-31 11:09:41 | 50.93299 | 8.89558 | 60° | 20km/h | 20315m | 3.7m/s | -50.7°C | 0% | 0hPa | 4.7V | 00:00:00 | 00:00:00 | 00:00:00 | |
| BIOWL1-15 | 2026-08-31 11:09:38 | 50.93293 | 8.89538 | 60° | 18km/h | 20303m | 3.5m/s | -50.7°C | 0% | 0hPa | 4.7V | 00:00:00 | 00:00:00 | 00:00:00 | |
| AA1-15 | 2026-08-31 11:09:36 | 50.93284 | 8.89519 | 51° | 22km/h | 20291m | 4.4m/s | -50.7°C | 0% | 0hPa | 4.7V | 00:00:00 | 00:00:00 | 00:00:00 | |
| DO3MHA-11 | 2026-08-31 11:09:35 | 50.93284 | 8.89519 | 51° | 22km/h | 20286m | 4.1m/s | 0°C | 0% | 0hPa | 4.7V | 00:00:00 | 00:00:00 | 00:00:00 | |
| DO2JMG | 2026-08-31 11:09:32 | 50.93271 | 8.89489 | 48° | 24km/h | 20273m | 4.1m/s | -50.7°C | 0% | 0hPa | 4.7V | 00:00:00 | 00:00:00 | 00:00:00 | |
| DO3DL | 2026-08-31 11:09:29 | 50.93263 | 8.89475 | 53° | 22km/h | 20265m | 4.8m/s | -50.7°C | 0% | 0hPa | 4.7V | 00:00:00 | 00:00:00 | 00:00:00 | |
| BIOWL1-15 | 2026-08-31 11:09:28 | 50.93257 | 8.89462 | 50° | 20km/h | 20257m | 3.6m/s | -50.7°C | 0% | 0hPa | 4.7V | 00:00:00 | 00:00:00 | 00:00:00 | |
| AA1-15 | 2026-08-31 11:09:26 | 50.93249 | 8.89450 | 40° | 22km/h | 20249m | 3.4m/s | -50.7°C | 0% | 0hPa | 4.7V | 00:00:00 | 00:00:00 | 00:00:00 | |
| DO3MHA-11 | 2026-08-31 11:09:25 | 50.93249 | 8.89450 | 41° | 24km/h | 20245m | 4.2m/s | 0°C | 0% | 0hPa | 4.7V | 00:00:00 | 00:00:00 | 00:00:00 | |
| DO3DL | 2026-08-31 11:09:22 | 50.93237 | 8.89431 | 47° | 20km/h | 20238m | 3.3m/s | -50.7°C | 0% | 0hPa | 4.7V | 00:00:00 | 00:00:00 | 00:00:00 | |
| DO2KSM | 2026-08-31 11:09:20 | 50.93229 | 8.89420 | 38° | 22km/h | 20230m | 4.2m/s | -50.7°C | 0% | 0hPa | 4.7V | 00:00:00 | 00:00:00 | 00:00:00 | |
| DO2JMG | 2026-08-31 11:09:19 | 50.93220 | 8.89408 | 44° | 24km/h | 20222m | 4.4m/s | 0°C | 0% | 0hPa | 4.7V | 00:00:00 | 00:00:00 | 00:00:00 | |
| DO3DL | 2026-08-31 11:09:17 | 50.93210 | 8.89394 | 42° | 26km/h | 20213m | 4.8m/s | -50.7°C | 0% | 0hPa | 4.7V | 00:00:00 | 00:00:00 | 00:00:00 | |
| AA1-15 | 2026-08-31 11:09:15 | 50.93200 | 8.89382 | 35° | 26km/h | 20205m | 4.3m/s | -50.7°C | 0% | 0hPa | 4.7V | 00:00:00 | 00:00:00 | 00:00:00 | |
| DL8DAS-15 | 2026-08-31 11:09:14 | 50.93200 | 8.89382 | 36° | 26km/h | 20205m | 4.3m/s | -50.7°C | 0% | 0hPa | 4.6V | 00:00:00 | 00:00:00 | 00:00:00 | |
| DO3DL | 2026-08-31 11:09:09 | 50.93175 | 8.89355 | 29° | 24km/h | 20185m | 4.2m/s | -50.5°C | 0% | 0hPa | 4.6V | 00:00:00 | 00:00:00 | 00:00:00 | |
| DM7RM-13 | 2026-08-31 11:09:07 | 50.93166 | 8.89346 | 39° | 18km/h | 20177m | 3.8m/s | -44.1°C | 0% | 0hPa | 4.6V | 00:00:00 | 00:00:00 | 00:00:00 | |
| DO3MHA-11 | 2026-08-31 11:09:05 | 50.93159 | 8.89338 | 38° | 22km/h | 20164m | 4.0m/s | 0°C | 0% | 0hPa | 4.6V | 00:00:00 | 00:00:00 | 00:00:00 | |
| AA1-15 | 2026-08-31 11:09:04 | 50.93152 | 8.89328 | 47° | 20km/h | 20160m | 4.1m/s | -50.6°C | 0% | 0hPa | 4.6V | 00:00:00 | 00:00:00 | 00:00:00 | |
| BIOWL1-15 | 2026-08-31 11:09:03 | 50.93149 | 8.89322 | 45° | 20km/h | 20156m | 3.2m/s | -50.6°C | 0% | 0hPa | 4.7V | 00:00:00 | 00:00:00 | 00:00:00 | |
| DO3DL | 2026-08-31 11:09:03 | 50.93149 | 8.89322 | 46° | 20km/h | 20156m | 3.2m/s | -50.6°C | 0% | 0hPa | 4.7V | 00:00:00 | 00:00:00 | 00:00:00 | |
| GOEST3-10 | 2026-08-31 11:09:02 | 50.93149 | 8.89309 | 29° | 18km/h | 20152m | 4.5m/s | 0°C | 0% | 0hPa | 4.7V | 00:00:00 | 00:00:00 | 00:00:00 | |
| DO2KSM | 2026-08-31 11:09:00 | 50.93140 | 8.89311 | 31° | 22km/h | 20148m | 3.3m/s | -50.7°C | 0% | 0hPa | 4.7V | 00:00:00 | 00:00:00 | 00:00:00 | |
| DJTTGO | 2026-08-31 11:08:59 | 50.93131 | 8.89303 | 32° | 20km/h | 20141m | 4.1m/s | -50.8°C | 0% | 0hPa | 4.7V | 00:00:00 | 00:00:00 | 00:00:00 | |
| HSKMA3-T | 2026-08-31 11:08:58 | 50.93127 | 8.89299 | 32° | 16km/h | 20137m | 3.7m/s | -50.7°C | 0% | 0hPa | 4.7V | 00:00:00 | 00:00:00 | 00:00:00 | |
| DO3DL | 2026-08-31 11:08:57 | 50.93123 | 8.89295 | 30° | 15km/h | 20133m | 4.0m/s | -50.7°C | 0% | 0hPa | 4.7V | 00:00:00 | 00:00:00 | 00:00:00 | |
| GOEST3-10 | 2026-08-31 11:08:53 | 50.93116 | 8.89288 | 37° | 15km/h | 20121m | 4.7m/s | 0°C | 0% | 0hPa | 4.7V | 00:00:00 | 00:00:00 | 00:00:00 | |
| BIOWL1-15 | 2026-08-31 11:08:53 | 50.93112 | 8.89285 | 44° | 11km/h | 20117m | 3.5m/s | -50.7°C | 0% | 0hPa | 4.7V | 00:00:00 | 00:00:00 | 00:00:00 | |
| DO3DL | 2026-08-31 11:08:48 | 50.93100 | 8.89273 | 26° | 16km/h | 20102m | 4.2m/s | -50.6°C | 0% | 0hPa | 4.7V | 00:00:00 | 00:00:00 | 00:00:00 | |
| HSKMA3-T | 2026-08-31 11:08:47 | 50.93093 | 8.89267 | 17° | 15km/h | 20095m | 3.3m/s | -50.6°C | 0% | 0hPa | 4.7V | 00:00:00 | 00:00:00 | 00:00:00 | |
| DD1CC2-15 | 2026-08-31 11:08:45 | 50.93086 | 8.89265 | 6° | 13km/h | 20087m | 3.4m/s | -44.1°C | 0% | 0hPa | 4.7V | 00:00:00 | 00:00:00 | 00:00:00 | |
| BIOWL1-15 | 2026-08-31 11:08:44 | 50.93069 | 8.89258 | 12° | 18km/h | 20065m | 2.6m/s | -50.5°C | 0% | 0hPa | 4.7V | 00:00:00 | 00:00:00 | 00:00:00 | |
| AA1-15 | 2026-08-31 11:08:43 | 50.93081 | 8.89264 | 21° | 9km/h | 20079m | 3.7m/s | -50.6°C | 0% | 0hPa | 4.7V | 00:00:00 | 00:00:00 | 00:00:00 | |
| GOEST3-10 | 2026-08-31 11:08:41 | 50.93079 | 8.89262 | 24° | 15km/h | 20068m | 3.4m/s | 0°C | 0% | 0hPa | 4.7V | 00:00:00 | 00:00:00 | 00:00:00 | |
| DO2KSM | 2026-08-31 11:08:39 | 50.93073 | 8.89259 | 12° | 15km/h | 20068m | 3.4m/s | -50.5°C | 0% | 0hPa | 4.7V | 00:00:00 | 00:00:00 | 00:00:00 | |
| GOEST3-10 | 2026-08-31 11:08:36 | 50.93060 | 8.89253 | 20° | 20km/h | 20054m | 3.7m/s | 0°C | 0% | 0hPa | 4.7V | 00:00:00 | 00:00:00 | 00:00:00 | |
| DO3DL | 2026-08-31 11:08:35 | 50.93055 | 8.89250 | 21° | 22km/h | 20054m | 3.7m/s | -50.6°C | 0% | 0hPa | 4.7V | 00:00:00 | 00:00:00 | 00:00:00 | |
| HSKMA3-T | 2026-08-31 11:08:34 | 50.93050 | 8.89248 | 13° | 22km/h | 20049m | 4.4m/s | -50.6°C | 0% | 0hPa | 4.7V | 00:00:00 | 00:00:00 | 00:00:00 | |
| AA1-15 | 2026-08-31 11:08:32 | 50.93035 | 8.89244 | 9° | 16km/h | 20038m | 3.9m/s | -50.7°C | 0% | 0hPa | 4.7V | 00:00:00 | 00:00:00 | 00:00:00 | |
| GOEST3-10 | 2026-08-31 11:08:31 | 50.93035 | 8.89244 | 9° | 16km/h | 20027m | 3.7m/s | 0°C | 0% | 0hPa | 4.7V | 00:00:00 | 00:00:00 | 00:00:00 | |
| BIOWL1-15 | 2026-08-31 11:08:30 | 50.93028 | 8.89242 | 5° | 16km/h | 20031m | 4.4m/s | -50.7°C | 0% | 0hPa | 4.7V | 00:00:00 | 00:00:00 | 00:00:00 | |
| DL3OBA | 2026-08-31 11:08:27 | 50.93014 | 8.89240 | 10° | 20km/h | 20019m | 3.7m/s | -50.7°C | 0% | 0hPa | 4.7V | 00:00:00 | 00:00:00 | 00:00:00 | |
| DM7RM-13 | 2026-08-31 11:08:26 | 50.93014 | 8.89240 | 10° | 20km/h | 20019m | 3.7m/s | -44.2°C | 0% | 0hPa | 4.7V | 00:00:00 | 00:00:00 | 00:00:00 | |
| GOEST3-10 | 2026-08-31 11:08:25 | 50.93008 | 8.89239 | 5° | 24km/h | 20005m | 4.1m/s | 0°C | 0% | 0hPa | 4.7V | 00:00:00 | 00:00:00 | 00:00:00 | |
| DD1CC2-15 | 2026-08-31 11:08:24 | 50.93003 | 8.89238 | 5° | 24km/h | 20012m | 4.2m/s | -44.2°C | 0% | 0hPa | 4.7V | 00:00:00 | 00:00:00 | 00:00:00 | |
| BIOWL1-15 | 2026-08-31 11:08:23 | 50.92957 | 8.89232 | 11° | 22km/h | 19982m | 2.8m/s | -50.6°C | 0% | 0hPa | 4.7V | 00:00:00 | 00:00:00 | 00:00:00 | |
| AA1-15 | 2026-08-31 11:08:21 | 50.92979 | 8.89236 | 5° | 22km/h | 19997m | 4.2m/s | -50.6°C | 0% | 0hPa | 4.7V | 00:00:00 | 00:00:00 | 00:00:00 | |
| GOEST3-10 | 2026-08-31 11:08:20 | 50.92979 | 8.89236 | 5° | 24km/h | 19989m | 3.7m/s | 0°C | 0% | 0hPa | 4.7V | 00:00:00 | 00:00:00 | 00:00:00 | |
| DO2KSM | 2026-08-31 11:08:19 | 50.92973 | 8.89235 | 5° | 22km/h | 19993m | 3.5m/s | -50.6°C | 0% | 0hPa | 4.7V | 00:00:00 | 00:00:00 | 00:00:00 | |
| DO3DL | 2026-08-31 11:08:11 | 50.92928 | 8.89228 | 3° | 20km/h | 19964m | 3.4m/s | -50.4°C | 0% | 0hPa | 4.7V | 00:00:00 | 00:00:00 | 00:00:00 | |
| AA1-15 | 2026-08-31 11:08:10 | 50.92918 | 8.89229 | 353° | 20km/h | 19956m | 3.3m/s | -50.5°C | 0% | 0hPa | 4.7V | 00:00:00 | 00:00:00 | 00:00:00 | |
| DO3MHA-11 | 2026-08-31 11:08:10 | 50.92923 | 8.89228 | 353° | 20km/h | 19957m | 3.3m/s | 0°C | 0% | 0hPa | 4.7V | 00:00:00 | 00:00:00 | 00:00:00 | |
| DM7RM-13 | 2026-08-31 11:08:06 | 50.92903 | 8.89231 | 356° | 20km/h | 19946m | 3.8m/s | -44.1°C | 0% | 0hPa | 4.7V | 00:00:00 | 00:00:00 | 00:00:00 | |
| DD1CC2-15 | 2026-08-31 11:08:04 | 50.92893 | 8.89233 | 353° | 24km/h | 19938m | 2.9m/s | -44.2°C | 0% | 0hPa | 4.7V | 00:00:00 | 00:00:00 | 00:00:00 | |
| GOEST3-10 | 2026-08-31 11:08:03 | 50.92887 | 8.89234 | 355° | 20km/h | 19928m | 2.9m/s | 0°C | 0% | 0hPa | 4.7V | 00:00:00 | 00:00:00 | 00:00:00 | |
| AA1-15 | 2026-08-31 11:08:00 | 50.92868 | 8.89237 | 348° | 20km/h | 19920m | 3.2m/s | -51.1°C | 0% | 0hPa | 4.7V | 00:00:00 | 00:00:00 | 00:00:00 | |
| DO3DL | 2026-08-31 11:07:59 | 50.92863 | 8.89239 | 348° | 22km/h | 19917m | 2.9m/s | -51.2°C | 0% | 0hPa | 4.7V | 00:00:00 | 00:00:00 | 00:00:00 | |
| GOEST3-10 | 2026-08-31 11:07:58 | 50.92863 | 8.89239 | 347° | 20km/h | 19914m | 4.3m/s | 0°C | 0% | 0hPa | 4.7V | 00:00:00 | 00:00:00 | 00:00:00 | |
| OE3JTB-15 | 2026-08-31 11:07:57 | 50.92858 | 8.89241 | 352° | 16km/h | 19910m | 3.4m/s | 0°C | 0% | 0hPa | 4.7V | 00:00:00 | 00:00:00 | 00:00:00 | |
| BIOWL1-15 | 2026-08-31 11:07:56 | 50.92829 | 8.89243 | 19° | 18km/h | 19892m | 3.9m/s | -51.5°C | 0% | 0hPa | 4.7V | 00:00:00 | 00:00:00 | 00:00:00 | |
| GOEST3-10 | 2026-08-31 11:07:53 | 50.92839 | 8.89244 | 1° | 18km/h | 19899m | 2.9m/s | 0°C | 0% | 0hPa | 4.7V | 00:00:00 | 00:00:00 | 00:00:00 | |
| DO2SHX-10 | 2026-08-31 11:07:52 | 50.92834 | 8.89244 | 9° | 18km/h | 19892m | 3.9m/s | 0°C | 0% | 0hPa | 4.7V | 00:00:00 | 00:00:00 | 00:00:00 | |
| DO3MHA-11 | 2026-08-31 11:07:50 | 50.92825 | 8.89240 | 26° | 16km/h | 19885m | 4.2m/s | 0°C | 0% | 0hPa | 4.7V | 00:00:00 | 00:00:00 | 00:00:00 | |
| AA1-15 | 2026-08-31 11:07:49 | 50.92817 | 8.89235 | 24° | 16km/h | 19881m | 3.3m/s | -51.5°C | 0% | 0hPa | 4.7V | 00:00:00 | 00:00:00 | 00:00:00 | |
| DO3DL | 2026-08-31 11:07:46 | 50.92806 | 8.89225 | 34° | 16km/h | 19871m | 3.0m/s | -51.5°C | 0% | 0hPa | 4.7V | 00:00:00 | 00:00:00 | 00:00:00 | |
| GOEST3-10 | 2026-08-31 11:07:45 | 50.92806 | 8.89225 | 34° | 16km/h | 19864m | 3.8m/s | 0°C | 0% | 0hPa | 4.7V | 00:00:00 | 00:00:00 | 00:00:00 | |
| DO2SHX-10 | 2026-08-31 11:07:43 | 50.92799 | 8.89219 | 21° | 20km/h | 19860m | 2.8m/s | 0°C | 0% | 0hPa | 4.7V | 00:00:00 | 00:00:00 | 00:00:00 | |
| BIOWL1-15 | 2026-08-31 11:07:41 | 50.92786 | 8.89208 | 47° | 15km/h | 19850m | 3.1m/s | -51.5°C | 0% | 0hPa | 4.7V | 00:00:00 | 00:00:00 | 00:00:00 | |
| GOEST3-10 | 2026-08-31 11:07:40 | 50.92788 | 8.89210 | 42° | 13km/h | 19850m | 3.0m/s | 0°C | 0% | 0hPa | 4.7V | 00:00:00 | 00:00:00 | 00:00:00 | |
| DO3MHA-11 | 2026-08-31 11:07:39 | 50.92786 | 8.89208 | 47° | 15km/h | 19846m | 4.3m/s | 0°C | 0% | 0hPa | 4.7V | 00:00:00 | 00:00:00 | 00:00:00 | |
| AA1-15 | 2026-08-31 11:07:38 | 50.92782 | 8.89201 | 37° | 11km/h | 19842m | 3.7m/s | -51.5°C | 0% | 0hPa | 4.7V | 00:00:00 | 00:00:00 | 00:00:00 | |
| GOEST3-10 | 2026-08-31 11:07:34 | 50.92773 | 8.89190 | 47° | 16km/h | 19820m | 3.3m/s | 0°C | 0% | 0hPa | 4.7V | 00:00:00 | 00:00:00 | 00:00:00 | |
| DO3DL | 2026-08-31 11:07:33 | 50.92768 | 8.89182 | 50° | 15km/h | 19824m | 3.6m/s | -51.6°C | 0% | 0hPa | 4.7V | 00:00:00 | 00:00:00 | 00:00:00 | |
| BIOWL1-15 | 2026-08-31 11:07:29 | 50.92759 | 8.89160 | 52° | 18km/h | 19808m | 3.9m/s | -51.9°C | 0% | 0hPa | 4.7V | 00:00:00 | 00:00:00 | 00:00:00 | |
| DO3MHA-11 | 2026-08-31 11:07:29 | 50.92761 | 8.89165 | 53° | 20km/h | 19809m | 3.9m/s | 0°C | 0% | 0hPa | 4.7V | 00:00:00 | 00:00:00 | 00:00:00 | |
| OE3JTB-15 | 2026-08-31 11:07:28 | 50.92759 | 8.89160 | 53° | 22km/h | 19805m | 3.9m/s | 0°C | 0% | 0hPa | 4.7V | 00:00:00 | 00:00:00 | 00:00:00 | |
| AA1-15 | 2026-08-31 11:07:27 | 50.92754 | 8.89151 | 41° | 16km/h | 19801m | 3.3m/s | -51.9°C | 0% | 0hPa | 4.7V | 00:00:00 | 00:00:00 | 00:00:00 | |
| DO3DL | 2026-08-31 11:07:26 | 50.92750 | 8.89146 | 43° | 18km/h | 19797m | 4.5m/s | -51.9°C | 0% | 0hPa | 4.7V | 00:00:00 | 00:00:00 | 00:00:00 | |
| DM7RM-13 | 2026-08-31 11:07:25 | 50.92750 | 8.89146 | 43° | 18km/h | 19797m | 4.5m/s | -45.6°C | 0% | 0hPa | 4.7V | 00:00:00 | 00:00:00 | 00:00:00 | |
| GOEST3-10 | 2026-08-31 11:07:24 | 50.92746 | 8.89140 | 45° | 22km/h | 19786m | 4.0m/s | 0°C | 0% | 0hPa | 4.7V | 00:00:00 | 00:00:00 | 00:00:00 | |
| DD1CC2-15 | 2026-08-31 11:07:23 | 50.92742 | 8.89134 | 47° | 22km/h | 19790m | 3.5m/s | -45.6°C | 0% | 0hPa | 4.7V | 00:00:00 | 00:00:00 | 00:00:00 | |
| BIOWL1-15 | 2026-08-31 11:07:20 | 50.92727 | 8.89098 | 74° | 24km/h | 19771m | 3.5m/s | -52°C | 0% | 0hPa | 4.7V | 00:00:00 | 00:00:00 | 00:00:00 | |
| DO3MHA-11 | 2026-08-31 11:07:19 | 50.92729 | 8.89107 | 70° | 22km/h | 19771m | 3.5m/s | 0°C | 0% | 0hPa | 4.7V | 00:00:00 | 00:00:00 | 00:00:00 | |
| GOEST3-10 | 2026-08-31 11:07:18 | 50.92727 | 8.89098 | 74° | 22km/h | 19767m | 4.0m/s | 0°C | 0% | 0hPa | 4.7V | 00:00:00 | 00:00:00 | 00:00:00 | |
| AA1-15 | 2026-08-31 11:07:17 | 50.92724 | 8.89081 | 72° | 20km/h | 19763m | 3.6m/s | -52°C | 0% | 0hPa | 4.7V | 00:00:00 | 00:00:00 | 00:00:00 | |
| DO3DL | 2026-08-31 11:07:13 | 50.92719 | 8.89057 | 66° | 24km/h | 19753m | 3.1m/s | -52.0°C | 0% | 0hPa | 4.6V | 00:00:00 | 00:00:00 | 00:00:00 | |
| GOEST3-10 | 2026-08-31 11:07:10 | 50.92710 | 8.89038 | 62° | 26km/h | 19739m | 4.0m/s | 0°C | 0% | 0hPa | 4.6V | 00:00:00 | 00:00:00 | 00:00:00 | |
| DO3MHA-11 | 2026-08-31 11:07:09 | 50.92707 | 8.89025 | 58° | 26km/h | 19735m | 3.1m/s | 0°C | 0% | 0hPa | 4.6V | 00:00:00 | 00:00:00 | 00:00:00 | |
| BIOWL1-15 | 2026-08-31 11:07:07 | 50.92700 | 8.89006 | 63° | 31km/h | 19732m | 2.7m/s | -52.1°C | 0% | 0hPa | 4.6V | 00:00:00 | 00:00:00 | 00:00:00 | |
| DO3DL | 2026-08-31 11:07:07 | 50.92701 | 8.89006 | 64° | 31km/h | 19732m | 2.7m/s | -52.1°C | 0% | 0hPa | 4.6V | 00:00:00 | 00:00:00 | 00:00:00 | |
| AA1-15 | 2026-08-31 11:07:06 | 50.92693 | 8.88985 | 58° | 29km/h | 19725m | 3.3m/s | -52°C | 0% | 0hPa | 4.6V | 00:00:00 | 00:00:00 | 00:00:00 | |
| GOEST3-10 | 2026-08-31 11:07:05 | 50.92693 | 8.88984 | 59° | 26km/h | 19718m | 4.1m/s | 0°C | 0% | 0hPa | 4.6V | 00:00:00 | 00:00:00 | 00:00:00 | |
| DM7RM-13 | 2026-08-31 11:07:04 | 50.92689 | 8.88975 | 59° | 27km/h | 19722m | 3.0m/s | -45.7°C | 0% | 0hPa | 4.6V | 00:00:00 | 00:00:00 | 00:00:00 | |
| DD1CC2-15 | 2026-08-31 11:07:02 | 50.92683 | 8.88956 | 64° | 26km/h | 19714m | 3.3m/s | -45.8°C | 0% | 0hPa | 4.6V | 00:00:00 | 00:00:00 | 00:00:00 | |
| GOEST3-10 | 2026-08-31 11:07:00 | 50.92677 | 8.88940 | 51° | 24km/h | 19703m | 3.5m/s | 0°C | 0% | 0hPa | 4.6V | 00:00:00 | 00:00:00 | 00:00:00 | |
| DO3MHA-11 | 2026-08-31 11:06:59 | 50.92673 | 8.88934 | 53° | 26km/h | 19699m | 4.3m/s | 0°C | 0% | 0hPa | 4.6V | 00:00:00 | 00:00:00 | 00:00:00 | |
| DO2SHX-10 | 2026-08-31 11:06:58 | 50.92670 | 8.88927 | 53° | 24km/h | 19691m | 4.1m/s | 0°C | 0% | 0hPa | 4.6V | 00:00:00 | 00:00:00 | 00:00:00 | |
| BIOWL1-15 | 2026-08-31 11:06:57 | 50.92652 | 8.88884 | 59° | 27km/h | 19680m | 4.5m/s | -52.3°C | 0% | 0hPa | 4.6V | 00:00:00 | 00:00:00 | 00:00:00 | |
| DO2KSM | 2026-08-31 11:06:57 | 50.92667 | 8.88919 | 58° | 26km/h | 19695m | 3.5m/s | -52.2°C | 0% | 0hPa | 4.6V | 00:00:00 | 00:00:00 | 00:00:00 | |
| AA1-15 | 2026-08-31 11:06:55 | 50.92655 | 8.88893 | 55° | 27km/h | 19684m | 3.4m/s | -52.3°C | 0% | 0hPa | 4.6V | 00:00:00 | 00:00:00 | 00:00:00 | |
| DO3DL | 2026-08-31 11:06:51 | 50.92645 | 8.88865 | 60° | 26km/h | 19672m | 4.4m/s | -52.3°C | 0% | 0hPa | 4.7V | 00:00:00 | 00:00:00 | 00:00:00 | |
| DO2SHX-10 | 2026-08-31 11:06:49 | 50.92638 | 8.88851 | 54° | 22km/h | 19661m | 4.4m/s | 0°C | 0% | 0hPa | 4.7V | 00:00:00 | 00:00:00 | 00:00:00 | |
| BIOWL1-15 | 2026-08-31 11:06:45 | 50.92620 | 8.88788 | 72° | 20km/h | 19635m | 4.4m/s | -52.5°C | 0% | 0hPa | 4.7V | 00:00:00 | 00:00:00 | 00:00:00 | |
| AA1-15 | 2026-08-31 11:06:44 | 50.92623 | 8.88805 | 69° | 24km/h | 19642m | 4.4m/s | -52.5°C | 0% | 0hPa | 4.7V | 00:00:00 | 00:00:00 | 00:00:00 | |
| DD1CC2-15 | 2026-08-31 11:06:42 | 50.92621 | 8.88796 | 73° | 24km/h | 19639m | 3.4m/s | -46.2°C | 0% | 0hPa | 4.7V | 00:00:00 | 00:00:00 | 00:00:00 | |
| DO3MHA-11 | 2026-08-31 11:06:39 | 50.92617 | 8.88775 | 76° | 20km/h | 19624m | 4.3m/s | 0°C | 0% | 0hPa | 4.7V | 00:00:00 | 00:00:00 | 00:00:00 | |
| DO2KSM | 2026-08-31 11:06:37 | 50.92614 | 8.88756 | 79° | 18km/h | 19616m | 4.3m/s | -52.4°C | 0% | 0hPa | 4.7V | 00:00:00 | 00:00:00 | 00:00:00 | |
| DO3DL | 2026-08-31 11:06:33 | 50.92608 | 8.88722 | 74° | 26km/h | 19600m | 3.8m/s | -52.3°C | 0% | 0hPa | 4.7V | 00:00:00 | 00:00:00 | 00:00:00 | |
| BIOWL1-15 | 2026-08-31 11:06:33 | 50.92608 | 8.88722 | 73° | 26km/h | 19600m | 3.8m/s | -52.3°C | 0% | 0hPa | 4.7V | 00:00:00 | 00:00:00 | 00:00:00 | |
| OE3JTB-15 | 2026-08-31 11:06:30 | 50.92603 | 8.88704 | 68° | 24km/h | 19588m | 4.3m/s | 0°C | 0% | 0hPa | 4.7V | 00:00:00 | 00:00:00 | 00:00:00 | |
| DO3MHA-11 | 2026-08-31 11:06:29 | 50.92601 | 8.88695 | 82° | 22km/h | 19584m | 3.9m/s | 0°C | 0% | 0hPa | 4.7V | 00:00:00 | 00:00:00 | 00:00:00 | |
| DO3DL | 2026-08-31 11:06:26 | 50.92599 | 8.88669 | 86° | 20km/h | 19576m | 4.6m/s | -52.2°C | 0% | 0hPa | 4.7V | 00:00:00 | 00:00:00 | 00:00:00 | |
| DJTTGO | 2026-08-31 11:06:25 | 50.92598 | 8.88661 | 81° | 20km/h | 19573m | 3.6m/s | -52.1°C | 0% | 0hPa | 4.7V | 00:00:00 | 00:00:00 | 00:00:00 | |
| DM7RM-13 | 2026-08-31 11:06:23 | 50.92596 | 8.88645 | 81° | 22km/h | 19565m | 4.5m/s | -45.7°C | 0% | 0hPa | 4.7V | 00:00:00 | 00:00:00 | 00:00:00 | |
| BIOWL1-15 | 2026-08-31 11:06:22 | 50.92595 | 8.88636 | 79° | 24km/h | 19561m | 3.4m/s | -52°C | 0% | 0hPa | 4.7V | 00:00:00 | 00:00:00 | 00:00:00 | |
| DD1CC2-15 | 2026-08-31 11:06:21 | 50.92594 | 8.88626 | 77° | 24km/h | 19557m | 4.2m/s | -45.7°C | 0% | 0hPa | 4.7V | 00:00:00 | 00:00:00 | 00:00:00 | |
| DO3MHA-11 | 2026-08-31 11:06:19 | 50.92591 | 8.88609 | 72° | 24km/h | 19545m | 4.1m/s | 0°C | 0% | 0hPa | 4.7V | 00:00:00 | 00:00:00 | 00:00:00 | |
| DO2KSM | 2026-08-31 11:06:16 | 50.92586 | 8.88583 | 70° | 22km/h | 19536m | 4.6m/s | -51.8°C | 0% | 0hPa | 4.7V | 00:00:00 | 00:00:00 | 00:00:00 | |
| DO3DL | 2026-08-31 11:06:13 | 50.92579 | 8.88557 | 75° | 26km/h | 19525m | 3.8m/s | -51.8°C | 0% | 0hPa | 4.7V | 00:00:00 | 00:00:00 | 00:00:00 | |
| BIOWL1-15 | 2026-08-31 11:06:11 | 50.92575 | 8.88529 | 80° | 22km/h | 19513m | 3.5m/s | -51.8°C | 0% | 0hPa | 4.7V | 00:00:00 | 00:00:00 | 00:00:00 | |
| DO2SHX-10 | 2026-08-31 11:06:11 | 50.92576 | 8.88538 | 76° | 22km/h | 19513m | 3.5m/s | 0°C | 0% | 0hPa | 4.7V | 00:00:00 | 00:00:00 | 00:00:00 | |
| AA1-15 | 2026-08-31 11:06:10 | 50.92574 | 8.88520 | 85° | 22km/h | 19509m | 4.7m/s | -51.7°C | 0% | 0hPa | 4.7V | 00:00:00 | 00:00:00 | 00:00:00 | |
| DO3MHA-11 | 2026-08-31 11:06:09 | 50.92574 | 8.88520 | 85° | 24km/h | 19504m | 4.0m/s | 0°C | 0% | 0hPa | 4.7V | 00:00:00 | 00:00:00 | 00:00:00 | |
| DO3DL | 2026-08-31 11:06:07 | 50.92573 | 8.88502 | 86° | 22km/h | 19501m | 3.5m/s | -51.7°C | 0% | 0hPa | 4.7V | 00:00:00 | 00:00:00 | 00:00:00 | |
| DM7RM-13 | 2026-08-31 11:06:02 | 50.92564 | 8.88457 | 72° | 29km/h | 19481m | 3.8m/s | -45.2°C | 0% | 0hPa | 4.7V | 00:00:00 | 00:00:00 | 00:00:00 | |
| BIOWL1-15 | 2026-08-31 11:06:01 | 50.92557 | 8.88427 | 78° | 26km/h | 19468m | 4.2m/s | -51.6°C | 0% | 0hPa | 4.7V | 00:00:00 | 00:00:00 | 00:00:00 | |
| OE3JTB-15 | 2026-08-31 11:06:01 | 50.92561 | 8.88446 | 72° | 27km/h | 19472m | 3.5m/s | 0°C | 0% | 0hPa | 4.7V | 00:00:00 | 00:00:00 | 00:00:00 | |
| AA1-15 | 2026-08-31 11:05:59 | 50.92556 | 8.88417 | 85° | 26km/h | 19464m | 4.2m/s | -51.6°C | 0% | 0hPa | 4.7V | 00:00:00 | 00:00:00 | 00:00:00 | |
| DO3DL | 2026-08-31 11:05:54 | 50.92551 | 8.88369 | 75° | 29km/h | 19445m | 4.3m/s | -51.6°C | 0% | 0hPa | 4.7V | 00:00:00 | 00:00:00 | 00:00:00 | |
| BIOWL1-15 | 2026-08-31 11:05:50 | 50.92541 | 8.88322 | 72° | 29km/h | 19430m | 3.6m/s | -51.5°C | 0% | 0hPa | 4.7V | 00:00:00 | 00:00:00 | 00:00:00 | |
| DO3MHA-11 | 2026-08-31 11:05:49 | 50.92541 | 8.88322 | 73° | 29km/h | 19426m | 4.1m/s | 0°C | 0% | 0hPa | 4.7V | 00:00:00 | 00:00:00 | 00:00:00 | |
| HSKMA3-T | 2026-08-31 11:05:48 | 50.92539 | 8.88311 | 75° | 29km/h | 19426m | 4.2m/s | -51.5°C | 0% | 0hPa | 4.7V | 00:00:00 | 00:00:00 | 00:00:00 | |
| AA1-15 | 2026-08-31 11:05:48 | 50.92538 | 8.88299 | 78° | 31km/h | 19422m | 3.3m/s | -51.5°C | 0% | 0hPa | 4.7V | 00:00:00 | 00:00:00 | 00:00:00 | |
| DO3DL | 2026-08-31 11:05:47 | 50.92538 | 8.88299 | 79° | 31km/h | 19422m | 3.3m/s | -51.5°C | 0% | 0hPa | 4.7V | 00:00:00 | 00:00:00 | 00:00:00 | |
| DM7RM-13 | 2026-08-31 11:05:42 | 50.92530 | 8.88249 | 81° | 29km/h | 19403m | 3.9m/s | -45.0°C | 0% | 0hPa | 4.7V | 00:00:00 | 00:00:00 | 00:00:00 | |
| DO3DL | 2026-08-31 11:05:41 | 50.92528 | 8.88225 | 83° | 31km/h | 19395m | 4.8m/s | -51.4°C | 0% | 0hPa | 4.7V | 00:00:00 | 00:00:00 | 00:00:00 | |
| DD1CC2-15 | 2026-08-31 11:05:40 | 50.92528 | 8.88225 | 83° | 31km/h | 19395m | 4.8m/s | -45.0°C | 0% | 0hPa | 4.7V | 00:00:00 | 00:00:00 | 00:00:00 | |
| BIOWL1-15 | 2026-08-31 11:05:39 | 50.92524 | 8.88187 | 82° | 35km/h | 19382m | 4.3m/s | -51.3°C | 0% | 0hPa | 4.7V | 00:00:00 | 00:00:00 | 00:00:00 | |
| DO3MHA-11 | 2026-08-31 11:05:39 | 50.92526 | 8.88212 | 81° | 31km/h | 19386m | 4.2m/s | 0°C | 0% | 0hPa | 4.7V | 00:00:00 | 00:00:00 | 00:00:00 | |
| AA1-15 | 2026-08-31 11:05:37 | 50.92523 | 8.88174 | 81° | 33km/h | 19378m | 3.6m/s | -51.3°C | 0% | 0hPa | 4.7V | 00:00:00 | 00:00:00 | 00:00:00 | |
| DO2KSM | 2026-08-31 11:05:34 | 50.92519 | 8.88149 | 74° | 29km/h | 19370m | 3.3m/s | -51.3°C | 0% | 0hPa | 4.7V | 00:00:00 | 00:00:00 | 00:00:00 | |
| OE3JTB-15 | 2026-08-31 11:05:32 | 50.92515 | 8.88127 | 76° | 31km/h | 19358m | 3.7m/s | 0°C | 0% | 0hPa | 4.7V | 00:00:00 | 00:00:00 | 00:00:00 | |
| BIOWL1-15 | 2026-08-31 11:05:31 | 50.92478 | 8.87884 | 75° | 37km/h | 19290m | 4m/s | -51.1°C | 0% | 0hPa | 4.7V | 00:00:00 | 00:00:00 | 00:00:00 | |
| DO3MHA-11 | 2026-08-31 11:05:29 | 50.92510 | 8.88092 | 80° | 35km/h | 19351m | 3.3m/s | 0°C | 0% | 0hPa | 4.7V | 00:00:00 | 00:00:00 | 00:00:00 | |
| DO3DL | 2026-08-31 11:05:28 | 50.92508 | 8.88065 | 82° | 37km/h | 19342m | 3.7m/s | -51.2°C | 0% | 0hPa | 4.7V | 00:00:00 | 00:00:00 | 00:00:00 | |
| AA1-15 | 2026-08-31 11:05:27 | 50.92506 | 8.88050 | 79° | 37km/h | 19338m | 4.3m/s | -51.2°C | 0% | 0hPa | 4.7V | 00:00:00 | 00:00:00 | 00:00:00 | |
| HSKMA3-T | 2026-08-31 11:05:25 | 50.92502 | 8.88023 | 75° | 33km/h | 19330m | 3.2m/s | -51.1°C | 0% | 0hPa | 4.7V | 00:00:00 | 00:00:00 | 00:00:00 | |
| DM7RM-13 | 2026-08-31 11:05:21 | 50.92495 | 8.87983 | 75° | 35km/h | 19319m | 4.0m/s | -44.7°C | 0% | 0hPa | 4.7V | 00:00:00 | 00:00:00 | 00:00:00 | |
| DD1CC2-15 | 2026-08-31 11:05:20 | 50.92492 | 8.87970 | 74° | 35km/h | 19315m | 4.1m/s | -44.8°C | 0% | 0hPa | 4.7V | 00:00:00 | 00:00:00 | 00:00:00 | |
| DO3MHA-11 | 2026-08-31 11:05:18 | 50.92488 | 8.87943 | 77° | 38km/h | 19303m | 3.2m/s | 0°C | 0% | 0hPa | 4.7V | 00:00:00 | 00:00:00 | 00:00:00 | |
| AA1-15 | 2026-08-31 11:05:16 | 50.92480 | 8.87898 | 75° | 37km/h | 19294m | 3.7m/s | -51.1°C | 0% | 0hPa | 4.7V | 00:00:00 | 00:00:00 | 00:00:00 | |
| DO3DL | 2026-08-31 11:05:15 | 50.92480 | 8.87898 | 76° | 37km/h | 19294m | 3.7m/s | -51.1°C | 0% | 0hPa | 4.7V | 00:00:00 | 00:00:00 | 00:00:00 | |
| HSKMA3-T | 2026-08-31 11:05:14 | 50.92475 | 8.87870 | 75° | 38km/h | 19286m | 4.4m/s | -51.1°C | 0% | 0hPa | 4.7V | 00:00:00 | 00:00:00 | 00:00:00 | |
| DO3DL | 2026-08-31 11:05:08 | 50.92464 | 8.87798 | 76° | 38km/h | 19266m | 4.0m/s | -51.3°C | 0% | 0hPa | 4.7V | 00:00:00 | 00:00:00 | 00:00:00 | |
| AA1-15 | 2026-08-31 11:05:05 | 50.92452 | 8.87739 | 71° | 40km/h | 19250m | 4.6m/s | -51.3°C | 0% | 0hPa | 4.7V | 00:00:00 | 00:00:00 | 00:00:00 | |
| HSKMA3-T | 2026-08-31 11:05:03 | 50.92445 | 8.87708 | 71° | 42km/h | 19242m | 4.1m/s | -51.3°C | 0% | 0hPa | 4.7V | 00:00:00 | 00:00:00 | 00:00:00 | |
| DO3DL | 2026-08-31 11:05:02 | 50.92445 | 8.87708 | 72° | 42km/h | 19242m | 4.1m/s | -51.3°C | 0% | 0hPa | 4.7V | 00:00:00 | 00:00:00 | 00:00:00 | |
| DM7RM-13 | 2026-08-31 11:05:01 | 50.92441 | 8.87692 | 71° | 40km/h | 19238m | 4.0m/s | -44.9°C | 0% | 0hPa | 4.7V | 00:00:00 | 00:00:00 | 00:00:00 | |
| DD1CC2-15 | 2026-08-31 11:04:59 | 50.92434 | 8.87662 | 73° | 40km/h | 19232m | 4.3m/s | -44.9°C | 0% | 0hPa | 4.7V | 00:00:00 | 00:00:00 | 00:00:00 | |
| DO3DL | 2026-08-31 11:04:56 | 50.92423 | 8.87595 | 74° | 42km/h | 19216m | 3.5m/s | -51.2°C | 0% | 0hPa | 4.7V | 00:00:00 | 00:00:00 | 00:00:00 | |
| AA1-15 | 2026-08-31 11:04:54 | 50.92416 | 8.87563 | 72° | 44km/h | 19208m | 4.3m/s | -51.2°C | 0% | 0hPa | 4.7V | 00:00:00 | 00:00:00 | 00:00:00 | |
| DO2KSM | 2026-08-31 11:04:53 | 50.92416 | 8.87563 | 73° | 44km/h | 19208m | 4.3m/s | -51.2°C | 0% | 0hPa | 4.7V | 00:00:00 | 00:00:00 | 00:00:00 | |
| HSKMA3-T | 2026-08-31 11:04:52 | 50.92413 | 8.87546 | 72° | 46km/h | 19204m | 3.5m/s | -51.2°C | 0% | 0hPa | 4.7V | 00:00:00 | 00:00:00 | 00:00:00 | |
| BIOWL1-15 | 2026-08-31 11:04:52 | 50.92409 | 8.87529 | 71° | 44km/h | 19200m | 3.7m/s | -51.2°C | 0% | 0hPa | 4.7V | 00:00:00 | 00:00:00 | 00:00:00 | |
| DO3DL | 2026-08-31 11:04:49 | 50.92402 | 8.87499 | 69° | 38km/h | 19193m | 3.4m/s | -51.3°C | 0% | 0hPa | 4.7V | 00:00:00 | 00:00:00 | 00:00:00 | |
| AA1-15 | 2026-08-31 11:04:44 | 50.92382 | 8.87403 | 75° | 46km/h | 19168m | 4.5m/s | -51.2°C | 0% | 0hPa | 4.7V | 00:00:00 | 00:00:00 | 00:00:00 | |
| DO3DL | 2026-08-31 11:04:42 | 50.92379 | 8.87385 | 75° | 47km/h | 19165m | 3.4m/s | -51.2°C | 0% | 0hPa | 4.7V | 00:00:00 | 00:00:00 | 00:00:00 | |
| BIOWL1-15 | 2026-08-31 11:04:41 | 50.92372 | 8.87351 | 69° | 42km/h | 19156m | 4m/s | -51.2°C | 0% | 0hPa | 4.7V | 00:00:00 | 00:00:00 | 00:00:00 | |
| DB0NH | 2026-08-31 11:04:40 | 51.17845 | 9.53094 | 58° | 128km/h | 10577m | -2.5m/s | 0°C | 0% | 0hPa | 4.7V | 00:00:00 | 00:00:00 | 00:00:00 | |
| HSKMA3-T | 2026-08-31 11:04:39 | 50.92363 | 8.87321 | 66° | 42km/h | 19148m | 4.2m/s | -51.2°C | 0% | 0hPa | 4.7V | 00:00:00 | 00:00:00 | 00:00:00 | |
| DO3MHA-11 | 2026-08-31 11:04:38 | 50.92363 | 8.87321 | 66° | 42km/h | 19144m | 3.6m/s | 0°C | 0% | 0hPa | 4.7V | 00:00:00 | 00:00:00 | 00:00:00 | |
| DO3DL | 2026-08-31 11:04:36 | 50.92354 | 8.87291 | 64° | 40km/h | 19140m | 4.6m/s | -51.2°C | 0% | 0hPa | 4.7V | 00:00:00 | 00:00:00 | 00:00:00 | |
| AA1-15 | 2026-08-31 11:04:33 | 50.92338 | 8.87230 | 71° | 46km/h | 19124m | 3.5m/s | -51.2°C | 0% | 0hPa | 4.7V | 00:00:00 | 00:00:00 | 00:00:00 | |
| DO3DL | 2026-08-31 11:04:31 | 50.92330 | 8.87197 | 67° | 42km/h | 19116m | 3.5m/s | -51.1°C | 0% | 0hPa | 4.7V | 00:00:00 | 00:00:00 | 00:00:00 | |
| BIOWL1-15 | 2026-08-31 11:04:29 | 50.92305 | 8.87122 | 59° | 40km/h | 19096m | 3.6m/s | -51°C | 0% | 0hPa | 4.7V | 00:00:00 | 00:00:00 | 00:00:00 | |
| HSKMA3-T | 2026-08-31 11:04:28 | 50.92316 | 8.87151 | 62° | 44km/h | 19104m | 3.6m/s | -51.1°C | 0% | 0hPa | 4.7V | 00:00:00 | 00:00:00 | 00:00:00 | |
| DO3MHA-11 | 2026-08-31 11:04:27 | 50.92316 | 8.87151 | 62° | 42km/h | 19097m | 3.5m/s | 0°C | 0% | 0hPa | 4.7V | 00:00:00 | 00:00:00 | 00:00:00 | |
| DO3DL | 2026-08-31 11:04:24 | 50.92300 | 8.87108 | 63° | 42km/h | 19092m | 4.3m/s | -51.0°C | 0% | 0hPa | 4.7V | 00:00:00 | 00:00:00 | 00:00:00 | |
| AA1-15 | 2026-08-31 11:04:22 | 50.92285 | 8.87062 | 62° | 42km/h | 19080m | 3.7m/s | -51°C | 0% | 0hPa | 4.7V | 00:00:00 | 00:00:00 | 00:00:00 | |
| DM7RM-13 | 2026-08-31 11:04:20 | 50.92280 | 8.87046 | 63° | 44km/h | 19077m | 3.4m/s | -44.6°C | 0% | 0hPa | 4.7V | 00:00:00 | 00:00:00 | 00:00:00 | |
| BIOWL1-15 | 2026-08-31 11:04:19 | 50.92270 | 8.87015 | 64° | 46km/h | 19069m | 3.3m/s | -50.9°C | 0% | 0hPa | 4.7V | 00:00:00 | 00:00:00 | 00:00:00 | |
| HSKMA3-T | 2026-08-31 11:04:18 | 50.92265 | 8.86999 | 61° | 44km/h | 19065m | 4.2m/s | -50.9°C | 0% | 0hPa | 4.7V | 00:00:00 | 00:00:00 | 00:00:00 | |
| DO3MHA-11 | 2026-08-31 11:04:16 | 50.92259 | 8.86984 | 57° | 42km/h | 19050m | 3.0m/s | 0°C | 0% | 0hPa | 4.7V | 00:00:00 | 00:00:00 | 00:00:00 | |
| DO2KSM | 2026-08-31 11:04:12 | 50.92236 | 8.86928 | 61° | 42km/h | 19047m | 4.4m/s | -50.8°C | 0% | 0hPa | 4.7V | 00:00:00 | 00:00:00 | 00:00:00 | |
| AA1-15 | 2026-08-31 11:04:11 | 50.92226 | 8.86900 | 59° | 42km/h | 19039m | 3m/s | -50.8°C | 0% | 0hPa | 4.7V | 00:00:00 | 00:00:00 | 00:00:00 | |
| DO3DL | 2026-08-31 11:04:10 | 50.92215 | 8.86870 | 63° | 46km/h | 19031m | 3.4m/s | -50.8°C | 0% | 0hPa | 4.7V | 00:00:00 | 00:00:00 | 00:00:00 | |
| BIOWL1-15 | 2026-08-31 11:04:09 | 50.92215 | 8.86870 | 62° | 46km/h | 19031m | 3.4m/s | -50.8°C | 0% | 0hPa | 4.7V | 00:00:00 | 00:00:00 | 00:00:00 | |
| HSKMA3-T | 2026-08-31 11:04:07 | 50.92204 | 8.86839 | 58° | 44km/h | 19023m | 3.6m/s | -50.8°C | 0% | 0hPa | 4.7V | 00:00:00 | 00:00:00 | 00:00:00 | |
| DO3MHA-11 | 2026-08-31 11:04:06 | 50.92204 | 8.86839 | 58° | 44km/h | 18977m | 3.7m/s | 0°C | 0% | 0hPa | 4.7V | 00:00:00 | 00:00:00 | 00:00:00 | |
| DJ2DS-15 | 2026-08-31 11:04:05 | 50.92192 | 8.86810 | 57° | 44km/h | 19015m | 3.9m/s | -50.8°C | -1.0% | -1.0hPa | 4.7V | 00:00:00 | 00:00:00 | 00:00:00 | |
| DF3TZ-5 | 2026-08-31 11:04:04 | 50.92180 | 8.86781 | 54° | 42km/h | 19008m | 4.7m/s | -50.8°C | -1.0% | -1.0hPa | 4.7V | 00:00:00 | 00:00:00 | 00:00:00 | |
| AA1-15 | 2026-08-31 11:04:01 | 50.92168 | 8.86755 | 54° | 40km/h | 19001m | 3.6m/s | -50.8°C | 0% | 0hPa | 4.7V | 00:00:00 | 00:00:00 | 00:00:00 | |
| DL8DAS-15 | 2026-08-31 11:04:00 | 50.92168 | 8.86755 | 54° | 40km/h | 19001m | 3.6m/s | -50.8°C | 0% | 0hPa | 4.7V | 00:00:00 | 00:00:00 | 00:00:00 | |
| DM7RM-13 | 2026-08-31 11:03:59 | 50.92162 | 8.86742 | 58° | 40km/h | 18998m | 3.9m/s | -44.4°C | 0% | 0hPa | 4.7V | 00:00:00 | 00:00:00 | 00:00:00 | |
| DD1CC2-15 | 2026-08-31 11:03:58 | 50.92151 | 8.86714 | 60° | 40km/h | 18990m | 4.2m/s | -44.3°C | 0% | 0hPa | 4.7V | 00:00:00 | 00:00:00 | 00:00:00 | |
| BIOWL1-15 | 2026-08-31 11:03:58 | 50.92151 | 8.86714 | 59° | 40km/h | 18989m | 4.2m/s | -50.7°C | 0% | 0hPa | 4.7V | 00:00:00 | 00:00:00 | 00:00:00 | |
| HSKMA3-T | 2026-08-31 11:03:56 | 50.92140 | 8.86688 | 53° | 40km/h | 18981m | 4m/s | -50.7°C | 0% | 0hPa | 4.7V | 00:00:00 | 00:00:00 | 00:00:00 | |
| DO3MHA-11 | 2026-08-31 11:03:52 | 50.92129 | 8.86647 | 46° | 42km/h | 18969m | 4.3m/s | 0°C | 0% | 0hPa | 4.7V | 00:00:00 | 00:00:00 | 00:00:00 | |
| AA1-15 | 2026-08-31 11:03:50 | 50.92094 | 8.86607 | 52° | 46km/h | 18959m | 3.5m/s | -50.7°C | 0% | 0hPa | 4.7V | 00:00:00 | 00:00:00 | 00:00:00 | |
| HSKMA3-T | 2026-08-31 11:03:46 | 50.92070 | 8.86556 | 53° | 37km/h | 18943m | 4m/s | -50.7°C | 0% | 0hPa | 4.5V | 00:00:00 | 00:00:00 | 00:00:00 | |
| AA1-15 | 2026-08-31 11:03:39 | 50.92023 | 8.86468 | 51° | 40km/h | 18917m | 3.1m/s | -50.5°C | 0% | 0hPa | 4.7V | 00:00:00 | 00:00:00 | 00:00:00 | |
| DM7RM-13 | 2026-08-31 11:03:38 | 50.92022 | 8.86468 | 52° | 40km/h | 18917m | 3.2m/s | -44.1°C | 0% | 0hPa | 4.7V | 00:00:00 | 00:00:00 | 00:00:00 | |
| DD1CC2-15 | 2026-08-31 11:03:37 | 50.92016 | 8.86457 | 51° | 37km/h | 18913m | 4.4m/s | -44.0°C | 0% | 0hPa | 4.7V | 00:00:00 | 00:00:00 | 00:00:00 | |
| BIOWL1-15 | 2026-08-31 11:03:35 | 50.91999 | 8.86426 | 49° | 35km/h | 18902m | 3.1m/s | -50.5°C | 0% | 0hPa | 4.7V | 00:00:00 | 00:00:00 | 00:00:00 | |
| DO2KSM | 2026-08-31 11:03:31 | 50.91978 | 8.86395 | 38° | 40km/h | 18891m | 3.5m/s | -50.4°C | 0% | 0hPa | 4.7V | 00:00:00 | 00:00:00 | 00:00:00 | |
| AA1-15 | 2026-08-31 11:03:28 | 50.91947 | 8.86350 | 46° | 40km/h | 18877m | 4.2m/s | -50.4°C | 0% | 0hPa | 4.7V | 00:00:00 | 00:00:00 | 00:00:00 | |
| BIOWL1-15 | 2026-08-31 11:03:24 | 50.91927 | 8.86318 | 49° | 37km/h | 18866m | 3.8m/s | -50.3°C | 0% | 0hPa | 4.7V | 00:00:00 | 00:00:00 | 00:00:00 | |
| Es werden nur die letzten 3500 von 4620 Frames angezeigt. GPX/KML und Diagramme bleiben verfügbar. | |||||||||||||||